<?xml version="1.0" encoding="UTF-8" standalone="no" ?>
<gpx xmlns="http://www.topografix.com/GPX/1/1" xmlns:xsi="http://www.w3.org/2001/XMLSchema-instance" xsi:schemaLocation="http://www.topografix.com/GPX/1/1 http://www.topografix.com/GPX/1/1/gpx.xsd" version="1.1" creator="VisuGPX - https://www.visugpx.com">
  <metadata>
    <name>J5 Narbief - Glère</name>
  </metadata>
  <trk>
    <name><![CDATA[J5 Narbief - Glère_1]]></name>
    <trkseg>
      <trkpt lat="47.12472" lon="6.69977">
        <ele>919.8</ele>
        <time>2021-07-29T08:22:01Z</time>
      </trkpt>
      <trkpt lat="47.12472" lon="6.69977">
        <ele>919.8</ele>
        <time>2021-07-29T08:22:02Z</time>
      </trkpt>
      <trkpt lat="47.12474" lon="6.69975">
        <ele>919.8</ele>
        <time>2021-07-29T08:22:03Z</time>
      </trkpt>
      <trkpt lat="47.12474" lon="6.69975">
        <ele>919.8</ele>
        <time>2021-07-29T08:22:04Z</time>
      </trkpt>
      <trkpt lat="47.12474" lon="6.69974">
        <ele>919.8</ele>
        <time>2021-07-29T08:22:05Z</time>
      </trkpt>
      <trkpt lat="47.12475" lon="6.69974">
        <ele>919.8</ele>
        <time>2021-07-29T08:22:06Z</time>
      </trkpt>
      <trkpt lat="47.12476" lon="6.69973">
        <ele>919.8</ele>
        <time>2021-07-29T08:22:07Z</time>
      </trkpt>
      <trkpt lat="47.12477" lon="6.69973">
        <ele>919.8</ele>
        <time>2021-07-29T08:22:08Z</time>
      </trkpt>
      <trkpt lat="47.12478" lon="6.69972">
        <ele>919.8</ele>
        <time>2021-07-29T08:22:09Z</time>
      </trkpt>
      <trkpt lat="47.12478" lon="6.69971">
        <ele>919.8</ele>
        <time>2021-07-29T08:22:10Z</time>
      </trkpt>
      <trkpt lat="47.12479" lon="6.6997">
        <ele>919.8</ele>
        <time>2021-07-29T08:22:11Z</time>
      </trkpt>
      <trkpt lat="47.12479" lon="6.6997">
        <ele>919.8</ele>
        <time>2021-07-29T08:22:12Z</time>
      </trkpt>
      <trkpt lat="47.1248" lon="6.69969">
        <ele>919.8</ele>
        <time>2021-07-29T08:22:13Z</time>
      </trkpt>
      <trkpt lat="47.1248" lon="6.69969">
        <ele>919.8</ele>
        <time>2021-07-29T08:22:14Z</time>
      </trkpt>
      <trkpt lat="47.12481" lon="6.69968">
        <ele>919.8</ele>
        <time>2021-07-29T08:22:15Z</time>
      </trkpt>
      <trkpt lat="47.12481" lon="6.69967">
        <ele>920</ele>
        <time>2021-07-29T08:22:16Z</time>
      </trkpt>
      <trkpt lat="47.12482" lon="6.69967">
        <ele>920</ele>
        <time>2021-07-29T08:22:17Z</time>
      </trkpt>
      <trkpt lat="47.12482" lon="6.69966">
        <ele>920.2</ele>
        <time>2021-07-29T08:22:18Z</time>
      </trkpt>
      <trkpt lat="47.12483" lon="6.69963">
        <ele>920.8</ele>
        <time>2021-07-29T08:22:20Z</time>
      </trkpt>
      <trkpt lat="47.12483" lon="6.69963">
        <ele>921</ele>
        <time>2021-07-29T08:22:21Z</time>
      </trkpt>
      <trkpt lat="47.12483" lon="6.69962">
        <ele>920.4</ele>
        <time>2021-07-29T08:22:22Z</time>
      </trkpt>
      <trkpt lat="47.12483" lon="6.69962">
        <ele>920</ele>
        <time>2021-07-29T08:22:23Z</time>
      </trkpt>
      <trkpt lat="47.12483" lon="6.69962">
        <ele>920</ele>
        <time>2021-07-29T08:22:24Z</time>
      </trkpt>
      <trkpt lat="47.12482" lon="6.69961">
        <ele>919.8</ele>
        <time>2021-07-29T08:22:25Z</time>
      </trkpt>
      <trkpt lat="47.12482" lon="6.69959">
        <ele>919.8</ele>
        <time>2021-07-29T08:22:26Z</time>
      </trkpt>
      <trkpt lat="47.12467" lon="6.69931">
        <ele>918.6</ele>
        <time>2021-07-29T08:22:34Z</time>
      </trkpt>
      <trkpt lat="47.12466" lon="6.69924">
        <ele>918.4</ele>
        <time>2021-07-29T08:22:35Z</time>
      </trkpt>
      <trkpt lat="47.12469" lon="6.69904">
        <ele>918.2</ele>
        <time>2021-07-29T08:22:37Z</time>
      </trkpt>
      <trkpt lat="47.1247" lon="6.69901">
        <ele>918.2</ele>
        <time>2021-07-29T08:22:38Z</time>
      </trkpt>
      <trkpt lat="47.12472" lon="6.69898">
        <ele>918</ele>
        <time>2021-07-29T08:22:39Z</time>
      </trkpt>
      <trkpt lat="47.12474" lon="6.69894">
        <ele>918</ele>
        <time>2021-07-29T08:22:40Z</time>
      </trkpt>
      <trkpt lat="47.12475" lon="6.6989">
        <ele>917.8</ele>
        <time>2021-07-29T08:22:41Z</time>
      </trkpt>
      <trkpt lat="47.12476" lon="6.69886">
        <ele>917.6</ele>
        <time>2021-07-29T08:22:42Z</time>
      </trkpt>
      <trkpt lat="47.12477" lon="6.69884">
        <ele>917.6</ele>
        <time>2021-07-29T08:22:43Z</time>
      </trkpt>
      <trkpt lat="47.12479" lon="6.69879">
        <ele>917.4</ele>
        <time>2021-07-29T08:22:44Z</time>
      </trkpt>
      <trkpt lat="47.1248" lon="6.69876">
        <ele>917.4</ele>
        <time>2021-07-29T08:22:45Z</time>
      </trkpt>
      <trkpt lat="47.12481" lon="6.69872">
        <ele>917.4</ele>
        <time>2021-07-29T08:22:46Z</time>
      </trkpt>
      <trkpt lat="47.12482" lon="6.69869">
        <ele>917.8</ele>
        <time>2021-07-29T08:22:47Z</time>
      </trkpt>
      <trkpt lat="47.12483" lon="6.69866">
        <ele>917.6</ele>
        <time>2021-07-29T08:22:48Z</time>
      </trkpt>
      <trkpt lat="47.12484" lon="6.69862">
        <ele>917.4</ele>
        <time>2021-07-29T08:22:49Z</time>
      </trkpt>
      <trkpt lat="47.12485" lon="6.69859">
        <ele>917.6</ele>
        <time>2021-07-29T08:22:50Z</time>
      </trkpt>
      <trkpt lat="47.12486" lon="6.69855">
        <ele>917.6</ele>
        <time>2021-07-29T08:22:51Z</time>
      </trkpt>
      <trkpt lat="47.12487" lon="6.69852">
        <ele>917.6</ele>
        <time>2021-07-29T08:22:52Z</time>
      </trkpt>
      <trkpt lat="47.12488" lon="6.69849">
        <ele>917</ele>
        <time>2021-07-29T08:23:10Z</time>
      </trkpt>
      <trkpt lat="47.12489" lon="6.69845">
        <ele>917</ele>
        <time>2021-07-29T08:23:11Z</time>
      </trkpt>
      <trkpt lat="47.12491" lon="6.6984">
        <ele>916.8</ele>
        <time>2021-07-29T08:23:12Z</time>
      </trkpt>
      <trkpt lat="47.12493" lon="6.69834">
        <ele>916.8</ele>
        <time>2021-07-29T08:23:13Z</time>
      </trkpt>
      <trkpt lat="47.12494" lon="6.69831">
        <ele>916.6</ele>
        <time>2021-07-29T08:23:14Z</time>
      </trkpt>
      <trkpt lat="47.12495" lon="6.69828">
        <ele>916.6</ele>
        <time>2021-07-29T08:23:15Z</time>
      </trkpt>
      <trkpt lat="47.12497" lon="6.69823">
        <ele>916.6</ele>
        <time>2021-07-29T08:23:16Z</time>
      </trkpt>
      <trkpt lat="47.125" lon="6.69818">
        <ele>916.2</ele>
        <time>2021-07-29T08:23:17Z</time>
      </trkpt>
      <trkpt lat="47.12503" lon="6.69812">
        <ele>916</ele>
        <time>2021-07-29T08:23:18Z</time>
      </trkpt>
      <trkpt lat="47.12507" lon="6.69806">
        <ele>915.8</ele>
        <time>2021-07-29T08:23:19Z</time>
      </trkpt>
      <trkpt lat="47.1251" lon="6.69801">
        <ele>915.6</ele>
        <time>2021-07-29T08:23:20Z</time>
      </trkpt>
      <trkpt lat="47.12515" lon="6.69796">
        <ele>915.4</ele>
        <time>2021-07-29T08:23:21Z</time>
      </trkpt>
      <trkpt lat="47.12519" lon="6.69792">
        <ele>915.2</ele>
        <time>2021-07-29T08:23:22Z</time>
      </trkpt>
      <trkpt lat="47.12523" lon="6.69789">
        <ele>914.8</ele>
        <time>2021-07-29T08:23:23Z</time>
      </trkpt>
      <trkpt lat="47.12528" lon="6.69785">
        <ele>914.6</ele>
        <time>2021-07-29T08:23:24Z</time>
      </trkpt>
      <trkpt lat="47.12539" lon="6.6978">
        <ele>914.4</ele>
        <time>2021-07-29T08:23:25Z</time>
      </trkpt>
      <trkpt lat="47.12542" lon="6.69779">
        <ele>914.4</ele>
        <time>2021-07-29T08:23:26Z</time>
      </trkpt>
      <trkpt lat="47.12545" lon="6.69778">
        <ele>914.2</ele>
        <time>2021-07-29T08:23:27Z</time>
      </trkpt>
      <trkpt lat="47.1255" lon="6.69778">
        <ele>914.2</ele>
        <time>2021-07-29T08:23:28Z</time>
      </trkpt>
      <trkpt lat="47.12556" lon="6.69779">
        <ele>914.2</ele>
        <time>2021-07-29T08:23:29Z</time>
      </trkpt>
      <trkpt lat="47.12561" lon="6.69782">
        <ele>914</ele>
        <time>2021-07-29T08:23:30Z</time>
      </trkpt>
      <trkpt lat="47.12566" lon="6.69785">
        <ele>913.8</ele>
        <time>2021-07-29T08:23:31Z</time>
      </trkpt>
      <trkpt lat="47.12571" lon="6.69789">
        <ele>913.4</ele>
        <time>2021-07-29T08:23:32Z</time>
      </trkpt>
      <trkpt lat="47.12576" lon="6.69794">
        <ele>913</ele>
        <time>2021-07-29T08:23:33Z</time>
      </trkpt>
      <trkpt lat="47.12581" lon="6.698">
        <ele>912.8</ele>
        <time>2021-07-29T08:23:34Z</time>
      </trkpt>
      <trkpt lat="47.12586" lon="6.69805">
        <ele>912.4</ele>
        <time>2021-07-29T08:23:35Z</time>
      </trkpt>
      <trkpt lat="47.12592" lon="6.69811">
        <ele>912.2</ele>
        <time>2021-07-29T08:23:36Z</time>
      </trkpt>
      <trkpt lat="47.12597" lon="6.69817">
        <ele>911.6</ele>
        <time>2021-07-29T08:23:37Z</time>
      </trkpt>
      <trkpt lat="47.12602" lon="6.69823">
        <ele>911.4</ele>
        <time>2021-07-29T08:23:38Z</time>
      </trkpt>
      <trkpt lat="47.12607" lon="6.6983">
        <ele>911</ele>
        <time>2021-07-29T08:23:39Z</time>
      </trkpt>
      <trkpt lat="47.12618" lon="6.69842">
        <ele>910.8</ele>
        <time>2021-07-29T08:23:40Z</time>
      </trkpt>
      <trkpt lat="47.12621" lon="6.69845">
        <ele>910.6</ele>
        <time>2021-07-29T08:23:41Z</time>
      </trkpt>
      <trkpt lat="47.12624" lon="6.69849">
        <ele>910.2</ele>
        <time>2021-07-29T08:23:42Z</time>
      </trkpt>
      <trkpt lat="47.12633" lon="6.69857">
        <ele>910</ele>
        <time>2021-07-29T08:23:43Z</time>
      </trkpt>
      <trkpt lat="47.12636" lon="6.6986">
        <ele>909.6</ele>
        <time>2021-07-29T08:23:44Z</time>
      </trkpt>
      <trkpt lat="47.12646" lon="6.69866">
        <ele>909.2</ele>
        <time>2021-07-29T08:23:45Z</time>
      </trkpt>
      <trkpt lat="47.1265" lon="6.69868">
        <ele>908.6</ele>
        <time>2021-07-29T08:23:46Z</time>
      </trkpt>
      <trkpt lat="47.12666" lon="6.69869">
        <ele>907.8</ele>
        <time>2021-07-29T08:23:47Z</time>
      </trkpt>
      <trkpt lat="47.1267" lon="6.69868">
        <ele>907.4</ele>
        <time>2021-07-29T08:23:48Z</time>
      </trkpt>
      <trkpt lat="47.12674" lon="6.69867">
        <ele>907</ele>
        <time>2021-07-29T08:23:49Z</time>
      </trkpt>
      <trkpt lat="47.12685" lon="6.69862">
        <ele>906.8</ele>
        <time>2021-07-29T08:23:50Z</time>
      </trkpt>
      <trkpt lat="47.12688" lon="6.69859">
        <ele>906.4</ele>
        <time>2021-07-29T08:23:51Z</time>
      </trkpt>
      <trkpt lat="47.12694" lon="6.69852">
        <ele>906</ele>
        <time>2021-07-29T08:23:52Z</time>
      </trkpt>
      <trkpt lat="47.12704" lon="6.69836">
        <ele>905.8</ele>
        <time>2021-07-29T08:23:53Z</time>
      </trkpt>
      <trkpt lat="47.12706" lon="6.69831">
        <ele>905.4</ele>
        <time>2021-07-29T08:23:54Z</time>
      </trkpt>
      <trkpt lat="47.12708" lon="6.69826">
        <ele>904.8</ele>
        <time>2021-07-29T08:23:55Z</time>
      </trkpt>
      <trkpt lat="47.12711" lon="6.69816">
        <ele>904.2</ele>
        <time>2021-07-29T08:23:56Z</time>
      </trkpt>
      <trkpt lat="47.12713" lon="6.69806">
        <ele>903.8</ele>
        <time>2021-07-29T08:23:57Z</time>
      </trkpt>
      <trkpt lat="47.12714" lon="6.69796">
        <ele>903.4</ele>
        <time>2021-07-29T08:23:58Z</time>
      </trkpt>
      <trkpt lat="47.12715" lon="6.69786">
        <ele>903.2</ele>
        <time>2021-07-29T08:23:59Z</time>
      </trkpt>
      <trkpt lat="47.12716" lon="6.69776">
        <ele>903</ele>
        <time>2021-07-29T08:24:00Z</time>
      </trkpt>
      <trkpt lat="47.12717" lon="6.69766">
        <ele>902.8</ele>
        <time>2021-07-29T08:24:01Z</time>
      </trkpt>
      <trkpt lat="47.12718" lon="6.69756">
        <ele>902.6</ele>
        <time>2021-07-29T08:24:02Z</time>
      </trkpt>
      <trkpt lat="47.12718" lon="6.69746">
        <ele>902.2</ele>
        <time>2021-07-29T08:24:03Z</time>
      </trkpt>
      <trkpt lat="47.12719" lon="6.69736">
        <ele>902</ele>
        <time>2021-07-29T08:24:04Z</time>
      </trkpt>
      <trkpt lat="47.12721" lon="6.69715">
        <ele>901.4</ele>
        <time>2021-07-29T08:24:05Z</time>
      </trkpt>
      <trkpt lat="47.12722" lon="6.6971">
        <ele>901.2</ele>
        <time>2021-07-29T08:24:06Z</time>
      </trkpt>
      <trkpt lat="47.12722" lon="6.69705">
        <ele>900.6</ele>
        <time>2021-07-29T08:24:07Z</time>
      </trkpt>
      <trkpt lat="47.12723" lon="6.69684">
        <ele>900</ele>
        <time>2021-07-29T08:24:08Z</time>
      </trkpt>
      <trkpt lat="47.12724" lon="6.69679">
        <ele>899.8</ele>
        <time>2021-07-29T08:24:09Z</time>
      </trkpt>
      <trkpt lat="47.12724" lon="6.69674">
        <ele>899.2</ele>
        <time>2021-07-29T08:24:10Z</time>
      </trkpt>
      <trkpt lat="47.12727" lon="6.69653">
        <ele>899</ele>
        <time>2021-07-29T08:24:11Z</time>
      </trkpt>
      <trkpt lat="47.12727" lon="6.69648">
        <ele>898.6</ele>
        <time>2021-07-29T08:24:12Z</time>
      </trkpt>
      <trkpt lat="47.12728" lon="6.69643">
        <ele>898.2</ele>
        <time>2021-07-29T08:24:13Z</time>
      </trkpt>
      <trkpt lat="47.1273" lon="6.69633">
        <ele>897.8</ele>
        <time>2021-07-29T08:24:14Z</time>
      </trkpt>
      <trkpt lat="47.12732" lon="6.69625">
        <ele>897.6</ele>
        <time>2021-07-29T08:24:15Z</time>
      </trkpt>
      <trkpt lat="47.12734" lon="6.69616">
        <ele>897.4</ele>
        <time>2021-07-29T08:24:16Z</time>
      </trkpt>
      <trkpt lat="47.12736" lon="6.69608">
        <ele>897</ele>
        <time>2021-07-29T08:24:17Z</time>
      </trkpt>
      <trkpt lat="47.12739" lon="6.69599">
        <ele>896.2</ele>
        <time>2021-07-29T08:24:18Z</time>
      </trkpt>
      <trkpt lat="47.12742" lon="6.6959">
        <ele>895.4</ele>
        <time>2021-07-29T08:24:19Z</time>
      </trkpt>
      <trkpt lat="47.12744" lon="6.69579">
        <ele>894.4</ele>
        <time>2021-07-29T08:24:20Z</time>
      </trkpt>
      <trkpt lat="47.12751" lon="6.69556">
        <ele>893.6</ele>
        <time>2021-07-29T08:24:21Z</time>
      </trkpt>
      <trkpt lat="47.12753" lon="6.6955">
        <ele>892.4</ele>
        <time>2021-07-29T08:24:22Z</time>
      </trkpt>
      <trkpt lat="47.12755" lon="6.69544">
        <ele>890.8</ele>
        <time>2021-07-29T08:24:23Z</time>
      </trkpt>
      <trkpt lat="47.1276" lon="6.69531">
        <ele>889</ele>
        <time>2021-07-29T08:24:24Z</time>
      </trkpt>
      <trkpt lat="47.12766" lon="6.69518">
        <ele>888</ele>
        <time>2021-07-29T08:24:25Z</time>
      </trkpt>
      <trkpt lat="47.12772" lon="6.69506">
        <ele>887.6</ele>
        <time>2021-07-29T08:24:26Z</time>
      </trkpt>
      <trkpt lat="47.12777" lon="6.69494">
        <ele>886.8</ele>
        <time>2021-07-29T08:24:27Z</time>
      </trkpt>
      <trkpt lat="47.12784" lon="6.69483">
        <ele>886.4</ele>
        <time>2021-07-29T08:24:28Z</time>
      </trkpt>
      <trkpt lat="47.12796" lon="6.69464">
        <ele>885.8</ele>
        <time>2021-07-29T08:24:29Z</time>
      </trkpt>
      <trkpt lat="47.128" lon="6.6946">
        <ele>885</ele>
        <time>2021-07-29T08:24:30Z</time>
      </trkpt>
      <trkpt lat="47.12804" lon="6.69456">
        <ele>884.6</ele>
        <time>2021-07-29T08:24:31Z</time>
      </trkpt>
      <trkpt lat="47.12815" lon="6.69447">
        <ele>884.2</ele>
        <time>2021-07-29T08:24:32Z</time>
      </trkpt>
      <trkpt lat="47.12819" lon="6.69444">
        <ele>884</ele>
        <time>2021-07-29T08:24:33Z</time>
      </trkpt>
      <trkpt lat="47.12836" lon="6.69442">
        <ele>883.8</ele>
        <time>2021-07-29T08:24:34Z</time>
      </trkpt>
      <trkpt lat="47.1284" lon="6.69442">
        <ele>883.6</ele>
        <time>2021-07-29T08:24:35Z</time>
      </trkpt>
      <trkpt lat="47.12843" lon="6.69443">
        <ele>883.4</ele>
        <time>2021-07-29T08:24:36Z</time>
      </trkpt>
      <trkpt lat="47.12858" lon="6.69447">
        <ele>883.6</ele>
        <time>2021-07-29T08:24:37Z</time>
      </trkpt>
      <trkpt lat="47.12861" lon="6.69448">
        <ele>884</ele>
        <time>2021-07-29T08:24:38Z</time>
      </trkpt>
      <trkpt lat="47.12865" lon="6.69449">
        <ele>884</ele>
        <time>2021-07-29T08:24:39Z</time>
      </trkpt>
      <trkpt lat="47.12876" lon="6.69448">
        <ele>884.2</ele>
        <time>2021-07-29T08:24:40Z</time>
      </trkpt>
      <trkpt lat="47.12881" lon="6.69447">
        <ele>884.4</ele>
        <time>2021-07-29T08:24:41Z</time>
      </trkpt>
      <trkpt lat="47.12884" lon="6.69444">
        <ele>884.8</ele>
        <time>2021-07-29T08:24:42Z</time>
      </trkpt>
      <trkpt lat="47.12887" lon="6.6944">
        <ele>885.2</ele>
        <time>2021-07-29T08:24:43Z</time>
      </trkpt>
      <trkpt lat="47.12887" lon="6.6944">
        <ele>885.4</ele>
        <time>2021-07-29T08:24:44Z</time>
      </trkpt>
      <trkpt lat="47.12888" lon="6.69436">
        <ele>885.4</ele>
        <time>2021-07-29T08:24:45Z</time>
      </trkpt>
      <trkpt lat="47.1289" lon="6.69428">
        <ele>885.6</ele>
        <time>2021-07-29T08:24:46Z</time>
      </trkpt>
      <trkpt lat="47.1289" lon="6.69428">
        <ele>885.6</ele>
        <time>2021-07-29T08:24:47Z</time>
      </trkpt>
      <trkpt lat="47.12891" lon="6.69424">
        <ele>885.8</ele>
        <time>2021-07-29T08:24:48Z</time>
      </trkpt>
      <trkpt lat="47.12891" lon="6.69421">
        <ele>886</ele>
        <time>2021-07-29T08:24:49Z</time>
      </trkpt>
      <trkpt lat="47.12892" lon="6.69417">
        <ele>886.2</ele>
        <time>2021-07-29T08:24:50Z</time>
      </trkpt>
      <trkpt lat="47.12893" lon="6.6941">
        <ele>886.4</ele>
        <time>2021-07-29T08:24:51Z</time>
      </trkpt>
      <trkpt lat="47.12893" lon="6.69406">
        <ele>886.6</ele>
        <time>2021-07-29T08:24:52Z</time>
      </trkpt>
      <trkpt lat="47.12893" lon="6.69403">
        <ele>887</ele>
        <time>2021-07-29T08:24:53Z</time>
      </trkpt>
      <trkpt lat="47.12893" lon="6.69403">
        <ele>887</ele>
        <time>2021-07-29T08:24:54Z</time>
      </trkpt>
      <trkpt lat="47.12893" lon="6.69399">
        <ele>887.4</ele>
        <time>2021-07-29T08:24:55Z</time>
      </trkpt>
      <trkpt lat="47.12894" lon="6.69396">
        <ele>887.6</ele>
        <time>2021-07-29T08:24:56Z</time>
      </trkpt>
      <trkpt lat="47.12895" lon="6.6939">
        <ele>887.6</ele>
        <time>2021-07-29T08:24:57Z</time>
      </trkpt>
      <trkpt lat="47.12895" lon="6.6939">
        <ele>887.6</ele>
        <time>2021-07-29T08:24:58Z</time>
      </trkpt>
      <trkpt lat="47.12895" lon="6.69386">
        <ele>887.6</ele>
        <time>2021-07-29T08:24:59Z</time>
      </trkpt>
      <trkpt lat="47.12896" lon="6.69383">
        <ele>887.6</ele>
        <time>2021-07-29T08:25:00Z</time>
      </trkpt>
      <trkpt lat="47.12897" lon="6.69377">
        <ele>887.8</ele>
        <time>2021-07-29T08:25:01Z</time>
      </trkpt>
      <trkpt lat="47.12898" lon="6.69374">
        <ele>888</ele>
        <time>2021-07-29T08:25:02Z</time>
      </trkpt>
      <trkpt lat="47.12899" lon="6.69371">
        <ele>888.4</ele>
        <time>2021-07-29T08:25:03Z</time>
      </trkpt>
      <trkpt lat="47.129" lon="6.69368">
        <ele>888.4</ele>
        <time>2021-07-29T08:25:04Z</time>
      </trkpt>
      <trkpt lat="47.129" lon="6.69365">
        <ele>888.6</ele>
        <time>2021-07-29T08:25:05Z</time>
      </trkpt>
      <trkpt lat="47.12901" lon="6.69361">
        <ele>888.6</ele>
        <time>2021-07-29T08:25:06Z</time>
      </trkpt>
      <trkpt lat="47.12902" lon="6.69358">
        <ele>888.6</ele>
        <time>2021-07-29T08:25:07Z</time>
      </trkpt>
      <trkpt lat="47.12902" lon="6.69358">
        <ele>888.6</ele>
        <time>2021-07-29T08:25:08Z</time>
      </trkpt>
      <trkpt lat="47.12903" lon="6.69355">
        <ele>888.6</ele>
        <time>2021-07-29T08:25:09Z</time>
      </trkpt>
      <trkpt lat="47.12905" lon="6.69353">
        <ele>888.6</ele>
        <time>2021-07-29T08:25:10Z</time>
      </trkpt>
      <trkpt lat="47.12907" lon="6.69347">
        <ele>888.6</ele>
        <time>2021-07-29T08:25:11Z</time>
      </trkpt>
      <trkpt lat="47.12907" lon="6.69347">
        <ele>888.6</ele>
        <time>2021-07-29T08:25:12Z</time>
      </trkpt>
      <trkpt lat="47.12908" lon="6.69344">
        <ele>888.8</ele>
        <time>2021-07-29T08:25:13Z</time>
      </trkpt>
      <trkpt lat="47.12911" lon="6.69339">
        <ele>889</ele>
        <time>2021-07-29T08:25:14Z</time>
      </trkpt>
      <trkpt lat="47.12911" lon="6.69339">
        <ele>889</ele>
        <time>2021-07-29T08:25:15Z</time>
      </trkpt>
      <trkpt lat="47.12912" lon="6.69336">
        <ele>889.2</ele>
        <time>2021-07-29T08:25:16Z</time>
      </trkpt>
      <trkpt lat="47.12913" lon="6.69334">
        <ele>889.4</ele>
        <time>2021-07-29T08:25:17Z</time>
      </trkpt>
      <trkpt lat="47.12915" lon="6.69328">
        <ele>889.6</ele>
        <time>2021-07-29T08:25:18Z</time>
      </trkpt>
      <trkpt lat="47.12915" lon="6.69328">
        <ele>889.6</ele>
        <time>2021-07-29T08:25:19Z</time>
      </trkpt>
      <trkpt lat="47.12916" lon="6.69326">
        <ele>889.6</ele>
        <time>2021-07-29T08:25:20Z</time>
      </trkpt>
      <trkpt lat="47.12917" lon="6.69323">
        <ele>889.6</ele>
        <time>2021-07-29T08:25:21Z</time>
      </trkpt>
      <trkpt lat="47.12918" lon="6.69321">
        <ele>889.8</ele>
        <time>2021-07-29T08:25:22Z</time>
      </trkpt>
      <trkpt lat="47.12921" lon="6.69317">
        <ele>889.8</ele>
        <time>2021-07-29T08:25:23Z</time>
      </trkpt>
      <trkpt lat="47.12922" lon="6.69315">
        <ele>890</ele>
        <time>2021-07-29T08:25:24Z</time>
      </trkpt>
      <trkpt lat="47.12923" lon="6.69313">
        <ele>890.2</ele>
        <time>2021-07-29T08:25:25Z</time>
      </trkpt>
      <trkpt lat="47.12923" lon="6.69313">
        <ele>890.2</ele>
        <time>2021-07-29T08:25:26Z</time>
      </trkpt>
      <trkpt lat="47.12926" lon="6.69309">
        <ele>890.4</ele>
        <time>2021-07-29T08:25:27Z</time>
      </trkpt>
      <trkpt lat="47.12926" lon="6.69309">
        <ele>890.4</ele>
        <time>2021-07-29T08:25:28Z</time>
      </trkpt>
      <trkpt lat="47.12928" lon="6.69305">
        <ele>890.8</ele>
        <time>2021-07-29T08:25:29Z</time>
      </trkpt>
      <trkpt lat="47.12928" lon="6.69305">
        <ele>890.8</ele>
        <time>2021-07-29T08:25:30Z</time>
      </trkpt>
      <trkpt lat="47.1293" lon="6.69301">
        <ele>891</ele>
        <time>2021-07-29T08:25:31Z</time>
      </trkpt>
      <trkpt lat="47.1293" lon="6.69301">
        <ele>891</ele>
        <time>2021-07-29T08:25:32Z</time>
      </trkpt>
      <trkpt lat="47.12931" lon="6.69299">
        <ele>891</ele>
        <time>2021-07-29T08:25:33Z</time>
      </trkpt>
      <trkpt lat="47.12933" lon="6.69295">
        <ele>891.2</ele>
        <time>2021-07-29T08:25:34Z</time>
      </trkpt>
      <trkpt lat="47.12934" lon="6.69293">
        <ele>891.4</ele>
        <time>2021-07-29T08:25:35Z</time>
      </trkpt>
      <trkpt lat="47.12935" lon="6.69291">
        <ele>891.6</ele>
        <time>2021-07-29T08:25:36Z</time>
      </trkpt>
      <trkpt lat="47.12935" lon="6.69291">
        <ele>891.8</ele>
        <time>2021-07-29T08:25:37Z</time>
      </trkpt>
      <trkpt lat="47.12936" lon="6.69289">
        <ele>892</ele>
        <time>2021-07-29T08:25:38Z</time>
      </trkpt>
      <trkpt lat="47.12939" lon="6.69286">
        <ele>892.2</ele>
        <time>2021-07-29T08:25:39Z</time>
      </trkpt>
      <trkpt lat="47.1294" lon="6.69284">
        <ele>892.4</ele>
        <time>2021-07-29T08:25:40Z</time>
      </trkpt>
      <trkpt lat="47.12941" lon="6.69283">
        <ele>892.4</ele>
        <time>2021-07-29T08:25:41Z</time>
      </trkpt>
      <trkpt lat="47.12942" lon="6.69281">
        <ele>892.6</ele>
        <time>2021-07-29T08:25:42Z</time>
      </trkpt>
      <trkpt lat="47.12942" lon="6.69281">
        <ele>892.8</ele>
        <time>2021-07-29T08:25:43Z</time>
      </trkpt>
      <trkpt lat="47.12944" lon="6.69278">
        <ele>893</ele>
        <time>2021-07-29T08:25:44Z</time>
      </trkpt>
      <trkpt lat="47.12946" lon="6.69276">
        <ele>893</ele>
        <time>2021-07-29T08:25:45Z</time>
      </trkpt>
      <trkpt lat="47.12947" lon="6.69274">
        <ele>893</ele>
        <time>2021-07-29T08:25:46Z</time>
      </trkpt>
      <trkpt lat="47.12948" lon="6.69272">
        <ele>893.4</ele>
        <time>2021-07-29T08:25:47Z</time>
      </trkpt>
      <trkpt lat="47.12948" lon="6.69272">
        <ele>893.4</ele>
        <time>2021-07-29T08:25:48Z</time>
      </trkpt>
      <trkpt lat="47.1295" lon="6.69268">
        <ele>893.6</ele>
        <time>2021-07-29T08:25:49Z</time>
      </trkpt>
      <trkpt lat="47.1295" lon="6.69266">
        <ele>893.8</ele>
        <time>2021-07-29T08:25:50Z</time>
      </trkpt>
      <trkpt lat="47.12951" lon="6.69264">
        <ele>894</ele>
        <time>2021-07-29T08:25:51Z</time>
      </trkpt>
      <trkpt lat="47.12951" lon="6.69264">
        <ele>894.2</ele>
        <time>2021-07-29T08:25:52Z</time>
      </trkpt>
      <trkpt lat="47.12952" lon="6.69262">
        <ele>894.4</ele>
        <time>2021-07-29T08:25:53Z</time>
      </trkpt>
      <trkpt lat="47.12954" lon="6.69259">
        <ele>894.4</ele>
        <time>2021-07-29T08:25:54Z</time>
      </trkpt>
      <trkpt lat="47.12955" lon="6.69257">
        <ele>894.6</ele>
        <time>2021-07-29T08:25:55Z</time>
      </trkpt>
      <trkpt lat="47.12956" lon="6.69255">
        <ele>894.8</ele>
        <time>2021-07-29T08:25:56Z</time>
      </trkpt>
      <trkpt lat="47.12956" lon="6.69255">
        <ele>894.8</ele>
        <time>2021-07-29T08:25:57Z</time>
      </trkpt>
      <trkpt lat="47.12957" lon="6.69251">
        <ele>895</ele>
        <time>2021-07-29T08:25:58Z</time>
      </trkpt>
      <trkpt lat="47.12958" lon="6.69249">
        <ele>895</ele>
        <time>2021-07-29T08:25:59Z</time>
      </trkpt>
      <trkpt lat="47.12959" lon="6.69247">
        <ele>895.2</ele>
        <time>2021-07-29T08:26:00Z</time>
      </trkpt>
      <trkpt lat="47.1296" lon="6.69245">
        <ele>895.4</ele>
        <time>2021-07-29T08:26:01Z</time>
      </trkpt>
      <trkpt lat="47.1296" lon="6.69245">
        <ele>895.4</ele>
        <time>2021-07-29T08:26:02Z</time>
      </trkpt>
      <trkpt lat="47.12961" lon="6.6924">
        <ele>895.4</ele>
        <time>2021-07-29T08:26:03Z</time>
      </trkpt>
      <trkpt lat="47.12961" lon="6.69238">
        <ele>895.4</ele>
        <time>2021-07-29T08:26:04Z</time>
      </trkpt>
      <trkpt lat="47.12961" lon="6.69235">
        <ele>895.6</ele>
        <time>2021-07-29T08:26:05Z</time>
      </trkpt>
      <trkpt lat="47.12961" lon="6.69231">
        <ele>895.6</ele>
        <time>2021-07-29T08:26:06Z</time>
      </trkpt>
      <trkpt lat="47.12961" lon="6.69228">
        <ele>895.6</ele>
        <time>2021-07-29T08:26:07Z</time>
      </trkpt>
      <trkpt lat="47.12961" lon="6.69224">
        <ele>895.6</ele>
        <time>2021-07-29T08:26:08Z</time>
      </trkpt>
      <trkpt lat="47.12961" lon="6.69221">
        <ele>895.4</ele>
        <time>2021-07-29T08:26:09Z</time>
      </trkpt>
      <trkpt lat="47.12961" lon="6.69217">
        <ele>895.4</ele>
        <time>2021-07-29T08:26:10Z</time>
      </trkpt>
      <trkpt lat="47.12961" lon="6.69214">
        <ele>895.6</ele>
        <time>2021-07-29T08:26:11Z</time>
      </trkpt>
      <trkpt lat="47.1296" lon="6.6921">
        <ele>895.6</ele>
        <time>2021-07-29T08:26:12Z</time>
      </trkpt>
      <trkpt lat="47.1296" lon="6.69207">
        <ele>895.6</ele>
        <time>2021-07-29T08:26:13Z</time>
      </trkpt>
      <trkpt lat="47.12959" lon="6.69204">
        <ele>895.8</ele>
        <time>2021-07-29T08:26:14Z</time>
      </trkpt>
      <trkpt lat="47.12959" lon="6.69201">
        <ele>895.8</ele>
        <time>2021-07-29T08:26:15Z</time>
      </trkpt>
      <trkpt lat="47.12959" lon="6.69197">
        <ele>895.8</ele>
        <time>2021-07-29T08:26:16Z</time>
      </trkpt>
      <trkpt lat="47.12959" lon="6.69194">
        <ele>895.8</ele>
        <time>2021-07-29T08:26:17Z</time>
      </trkpt>
      <trkpt lat="47.12959" lon="6.6919">
        <ele>896</ele>
        <time>2021-07-29T08:26:18Z</time>
      </trkpt>
      <trkpt lat="47.12959" lon="6.69186">
        <ele>896</ele>
        <time>2021-07-29T08:26:19Z</time>
      </trkpt>
      <trkpt lat="47.12958" lon="6.69183">
        <ele>896</ele>
        <time>2021-07-29T08:26:20Z</time>
      </trkpt>
      <trkpt lat="47.12958" lon="6.69179">
        <ele>895.8</ele>
        <time>2021-07-29T08:26:21Z</time>
      </trkpt>
      <trkpt lat="47.12958" lon="6.69175">
        <ele>896</ele>
        <time>2021-07-29T08:26:22Z</time>
      </trkpt>
      <trkpt lat="47.12958" lon="6.69172">
        <ele>896</ele>
        <time>2021-07-29T08:26:23Z</time>
      </trkpt>
      <trkpt lat="47.12957" lon="6.69168">
        <ele>896</ele>
        <time>2021-07-29T08:26:24Z</time>
      </trkpt>
      <trkpt lat="47.12957" lon="6.69164">
        <ele>896</ele>
        <time>2021-07-29T08:26:25Z</time>
      </trkpt>
      <trkpt lat="47.12956" lon="6.6916">
        <ele>896</ele>
        <time>2021-07-29T08:26:26Z</time>
      </trkpt>
      <trkpt lat="47.12956" lon="6.69157">
        <ele>896.2</ele>
        <time>2021-07-29T08:26:27Z</time>
      </trkpt>
      <trkpt lat="47.12956" lon="6.69153">
        <ele>896.2</ele>
        <time>2021-07-29T08:26:28Z</time>
      </trkpt>
      <trkpt lat="47.12956" lon="6.69149">
        <ele>896.2</ele>
        <time>2021-07-29T08:26:29Z</time>
      </trkpt>
      <trkpt lat="47.12955" lon="6.69145">
        <ele>896.4</ele>
        <time>2021-07-29T08:26:30Z</time>
      </trkpt>
      <trkpt lat="47.12955" lon="6.69141">
        <ele>896.4</ele>
        <time>2021-07-29T08:26:31Z</time>
      </trkpt>
      <trkpt lat="47.12955" lon="6.69138">
        <ele>896.4</ele>
        <time>2021-07-29T08:26:32Z</time>
      </trkpt>
      <trkpt lat="47.12955" lon="6.69134">
        <ele>896.2</ele>
        <time>2021-07-29T08:26:33Z</time>
      </trkpt>
      <trkpt lat="47.12954" lon="6.6913">
        <ele>896.4</ele>
        <time>2021-07-29T08:26:34Z</time>
      </trkpt>
      <trkpt lat="47.12954" lon="6.69127">
        <ele>896.6</ele>
        <time>2021-07-29T08:26:35Z</time>
      </trkpt>
      <trkpt lat="47.12954" lon="6.69123">
        <ele>896.6</ele>
        <time>2021-07-29T08:26:36Z</time>
      </trkpt>
      <trkpt lat="47.12953" lon="6.69119">
        <ele>896.6</ele>
        <time>2021-07-29T08:26:37Z</time>
      </trkpt>
      <trkpt lat="47.12953" lon="6.69116">
        <ele>896.6</ele>
        <time>2021-07-29T08:26:38Z</time>
      </trkpt>
      <trkpt lat="47.12953" lon="6.69112">
        <ele>896.6</ele>
        <time>2021-07-29T08:26:39Z</time>
      </trkpt>
      <trkpt lat="47.12952" lon="6.69109">
        <ele>896.6</ele>
        <time>2021-07-29T08:26:40Z</time>
      </trkpt>
      <trkpt lat="47.12952" lon="6.69105">
        <ele>896.6</ele>
        <time>2021-07-29T08:26:41Z</time>
      </trkpt>
      <trkpt lat="47.12952" lon="6.69102">
        <ele>896.8</ele>
        <time>2021-07-29T08:26:42Z</time>
      </trkpt>
      <trkpt lat="47.12951" lon="6.69099">
        <ele>896.8</ele>
        <time>2021-07-29T08:26:43Z</time>
      </trkpt>
      <trkpt lat="47.12951" lon="6.69096">
        <ele>897</ele>
        <time>2021-07-29T08:26:44Z</time>
      </trkpt>
      <trkpt lat="47.12951" lon="6.69092">
        <ele>897</ele>
        <time>2021-07-29T08:26:45Z</time>
      </trkpt>
      <trkpt lat="47.1295" lon="6.69089">
        <ele>897.2</ele>
        <time>2021-07-29T08:26:46Z</time>
      </trkpt>
      <trkpt lat="47.1295" lon="6.69086">
        <ele>897.2</ele>
        <time>2021-07-29T08:26:47Z</time>
      </trkpt>
      <trkpt lat="47.1295" lon="6.69083">
        <ele>897.4</ele>
        <time>2021-07-29T08:26:48Z</time>
      </trkpt>
      <trkpt lat="47.1295" lon="6.6908">
        <ele>897.4</ele>
        <time>2021-07-29T08:26:49Z</time>
      </trkpt>
      <trkpt lat="47.1295" lon="6.69076">
        <ele>897.6</ele>
        <time>2021-07-29T08:26:50Z</time>
      </trkpt>
      <trkpt lat="47.1295" lon="6.69073">
        <ele>897.8</ele>
        <time>2021-07-29T08:26:51Z</time>
      </trkpt>
      <trkpt lat="47.12951" lon="6.69069">
        <ele>897.8</ele>
        <time>2021-07-29T08:26:52Z</time>
      </trkpt>
      <trkpt lat="47.12951" lon="6.69066">
        <ele>898</ele>
        <time>2021-07-29T08:26:53Z</time>
      </trkpt>
      <trkpt lat="47.12951" lon="6.69063">
        <ele>898</ele>
        <time>2021-07-29T08:26:54Z</time>
      </trkpt>
      <trkpt lat="47.12951" lon="6.6906">
        <ele>898.2</ele>
        <time>2021-07-29T08:26:55Z</time>
      </trkpt>
      <trkpt lat="47.12951" lon="6.69056">
        <ele>898.2</ele>
        <time>2021-07-29T08:26:56Z</time>
      </trkpt>
      <trkpt lat="47.1295" lon="6.69053">
        <ele>898.4</ele>
        <time>2021-07-29T08:26:57Z</time>
      </trkpt>
      <trkpt lat="47.1295" lon="6.6905">
        <ele>898.6</ele>
        <time>2021-07-29T08:26:58Z</time>
      </trkpt>
      <trkpt lat="47.1295" lon="6.69047">
        <ele>898.8</ele>
        <time>2021-07-29T08:26:59Z</time>
      </trkpt>
      <trkpt lat="47.1295" lon="6.69044">
        <ele>899</ele>
        <time>2021-07-29T08:27:00Z</time>
      </trkpt>
      <trkpt lat="47.12949" lon="6.69042">
        <ele>899</ele>
        <time>2021-07-29T08:27:01Z</time>
      </trkpt>
      <trkpt lat="47.12949" lon="6.69039">
        <ele>899.2</ele>
        <time>2021-07-29T08:27:02Z</time>
      </trkpt>
      <trkpt lat="47.12948" lon="6.69036">
        <ele>899.2</ele>
        <time>2021-07-29T08:27:03Z</time>
      </trkpt>
      <trkpt lat="47.12948" lon="6.69033">
        <ele>899.2</ele>
        <time>2021-07-29T08:27:04Z</time>
      </trkpt>
      <trkpt lat="47.12948" lon="6.69031">
        <ele>899.4</ele>
        <time>2021-07-29T08:27:05Z</time>
      </trkpt>
      <trkpt lat="47.12948" lon="6.69028">
        <ele>899.4</ele>
        <time>2021-07-29T08:27:06Z</time>
      </trkpt>
      <trkpt lat="47.12948" lon="6.69025">
        <ele>899.4</ele>
        <time>2021-07-29T08:27:07Z</time>
      </trkpt>
      <trkpt lat="47.12947" lon="6.69022">
        <ele>899.6</ele>
        <time>2021-07-29T08:27:08Z</time>
      </trkpt>
      <trkpt lat="47.12947" lon="6.69019">
        <ele>899.6</ele>
        <time>2021-07-29T08:27:09Z</time>
      </trkpt>
      <trkpt lat="47.12947" lon="6.69016">
        <ele>899.8</ele>
        <time>2021-07-29T08:27:10Z</time>
      </trkpt>
      <trkpt lat="47.12947" lon="6.69013">
        <ele>899.8</ele>
        <time>2021-07-29T08:27:11Z</time>
      </trkpt>
      <trkpt lat="47.12946" lon="6.6901">
        <ele>900</ele>
        <time>2021-07-29T08:27:12Z</time>
      </trkpt>
      <trkpt lat="47.12946" lon="6.69007">
        <ele>900.2</ele>
        <time>2021-07-29T08:27:13Z</time>
      </trkpt>
      <trkpt lat="47.12946" lon="6.69004">
        <ele>900.6</ele>
        <time>2021-07-29T08:27:14Z</time>
      </trkpt>
      <trkpt lat="47.12946" lon="6.69002">
        <ele>900.8</ele>
        <time>2021-07-29T08:27:15Z</time>
      </trkpt>
      <trkpt lat="47.12945" lon="6.68999">
        <ele>900.8</ele>
        <time>2021-07-29T08:27:16Z</time>
      </trkpt>
      <trkpt lat="47.12945" lon="6.68996">
        <ele>901</ele>
        <time>2021-07-29T08:27:17Z</time>
      </trkpt>
      <trkpt lat="47.12945" lon="6.68994">
        <ele>901</ele>
        <time>2021-07-29T08:27:18Z</time>
      </trkpt>
      <trkpt lat="47.12944" lon="6.68991">
        <ele>901.4</ele>
        <time>2021-07-29T08:27:19Z</time>
      </trkpt>
      <trkpt lat="47.12944" lon="6.68988">
        <ele>901.4</ele>
        <time>2021-07-29T08:27:20Z</time>
      </trkpt>
      <trkpt lat="47.12944" lon="6.68986">
        <ele>901.6</ele>
        <time>2021-07-29T08:27:21Z</time>
      </trkpt>
      <trkpt lat="47.12944" lon="6.68983">
        <ele>901.6</ele>
        <time>2021-07-29T08:27:22Z</time>
      </trkpt>
      <trkpt lat="47.12944" lon="6.68981">
        <ele>901.4</ele>
        <time>2021-07-29T08:27:23Z</time>
      </trkpt>
      <trkpt lat="47.12944" lon="6.68978">
        <ele>901.4</ele>
        <time>2021-07-29T08:27:24Z</time>
      </trkpt>
      <trkpt lat="47.12944" lon="6.68975">
        <ele>901.6</ele>
        <time>2021-07-29T08:27:25Z</time>
      </trkpt>
      <trkpt lat="47.12943" lon="6.68973">
        <ele>901.8</ele>
        <time>2021-07-29T08:27:26Z</time>
      </trkpt>
      <trkpt lat="47.12943" lon="6.6897">
        <ele>901.8</ele>
        <time>2021-07-29T08:27:27Z</time>
      </trkpt>
      <trkpt lat="47.12943" lon="6.68968">
        <ele>902.2</ele>
        <time>2021-07-29T08:27:28Z</time>
      </trkpt>
      <trkpt lat="47.12943" lon="6.68965">
        <ele>902.4</ele>
        <time>2021-07-29T08:27:29Z</time>
      </trkpt>
      <trkpt lat="47.12943" lon="6.68963">
        <ele>902.4</ele>
        <time>2021-07-29T08:27:30Z</time>
      </trkpt>
      <trkpt lat="47.12943" lon="6.6896">
        <ele>902.6</ele>
        <time>2021-07-29T08:27:31Z</time>
      </trkpt>
      <trkpt lat="47.12943" lon="6.68958">
        <ele>902.8</ele>
        <time>2021-07-29T08:27:32Z</time>
      </trkpt>
      <trkpt lat="47.12943" lon="6.68955">
        <ele>903</ele>
        <time>2021-07-29T08:27:33Z</time>
      </trkpt>
      <trkpt lat="47.12943" lon="6.68953">
        <ele>903.2</ele>
        <time>2021-07-29T08:27:34Z</time>
      </trkpt>
      <trkpt lat="47.12943" lon="6.6895">
        <ele>903.2</ele>
        <time>2021-07-29T08:27:35Z</time>
      </trkpt>
      <trkpt lat="47.12943" lon="6.68948">
        <ele>903.4</ele>
        <time>2021-07-29T08:27:36Z</time>
      </trkpt>
      <trkpt lat="47.12943" lon="6.68946">
        <ele>903.4</ele>
        <time>2021-07-29T08:27:37Z</time>
      </trkpt>
      <trkpt lat="47.12943" lon="6.68943">
        <ele>903.6</ele>
        <time>2021-07-29T08:27:38Z</time>
      </trkpt>
      <trkpt lat="47.12943" lon="6.68941">
        <ele>903.8</ele>
        <time>2021-07-29T08:27:39Z</time>
      </trkpt>
      <trkpt lat="47.12943" lon="6.68938">
        <ele>903.8</ele>
        <time>2021-07-29T08:27:40Z</time>
      </trkpt>
      <trkpt lat="47.12943" lon="6.68936">
        <ele>903.8</ele>
        <time>2021-07-29T08:27:41Z</time>
      </trkpt>
      <trkpt lat="47.12943" lon="6.68933">
        <ele>904.2</ele>
        <time>2021-07-29T08:27:42Z</time>
      </trkpt>
      <trkpt lat="47.12943" lon="6.68931">
        <ele>904.2</ele>
        <time>2021-07-29T08:27:43Z</time>
      </trkpt>
      <trkpt lat="47.12943" lon="6.68928">
        <ele>904.4</ele>
        <time>2021-07-29T08:27:44Z</time>
      </trkpt>
      <trkpt lat="47.12943" lon="6.68926">
        <ele>904.4</ele>
        <time>2021-07-29T08:27:45Z</time>
      </trkpt>
      <trkpt lat="47.12943" lon="6.68924">
        <ele>904.6</ele>
        <time>2021-07-29T08:27:46Z</time>
      </trkpt>
      <trkpt lat="47.12943" lon="6.68921">
        <ele>904.8</ele>
        <time>2021-07-29T08:27:47Z</time>
      </trkpt>
      <trkpt lat="47.12943" lon="6.68919">
        <ele>904.8</ele>
        <time>2021-07-29T08:27:48Z</time>
      </trkpt>
      <trkpt lat="47.12942" lon="6.68916">
        <ele>905</ele>
        <time>2021-07-29T08:27:49Z</time>
      </trkpt>
      <trkpt lat="47.12942" lon="6.68914">
        <ele>905.2</ele>
        <time>2021-07-29T08:27:50Z</time>
      </trkpt>
      <trkpt lat="47.12942" lon="6.68911">
        <ele>905.2</ele>
        <time>2021-07-29T08:27:51Z</time>
      </trkpt>
      <trkpt lat="47.12942" lon="6.68909">
        <ele>905.2</ele>
        <time>2021-07-29T08:27:52Z</time>
      </trkpt>
      <trkpt lat="47.12942" lon="6.68906">
        <ele>905.4</ele>
        <time>2021-07-29T08:27:53Z</time>
      </trkpt>
      <trkpt lat="47.12942" lon="6.68903">
        <ele>905.6</ele>
        <time>2021-07-29T08:27:54Z</time>
      </trkpt>
      <trkpt lat="47.12941" lon="6.68901">
        <ele>905.6</ele>
        <time>2021-07-29T08:27:55Z</time>
      </trkpt>
      <trkpt lat="47.12941" lon="6.68898">
        <ele>905.6</ele>
        <time>2021-07-29T08:27:56Z</time>
      </trkpt>
      <trkpt lat="47.12941" lon="6.68895">
        <ele>905.8</ele>
        <time>2021-07-29T08:27:57Z</time>
      </trkpt>
      <trkpt lat="47.1294" lon="6.68893">
        <ele>905.8</ele>
        <time>2021-07-29T08:27:58Z</time>
      </trkpt>
      <trkpt lat="47.1294" lon="6.6889">
        <ele>906</ele>
        <time>2021-07-29T08:27:59Z</time>
      </trkpt>
      <trkpt lat="47.1294" lon="6.68887">
        <ele>906.2</ele>
        <time>2021-07-29T08:28:00Z</time>
      </trkpt>
      <trkpt lat="47.1294" lon="6.68885">
        <ele>906.2</ele>
        <time>2021-07-29T08:28:01Z</time>
      </trkpt>
      <trkpt lat="47.12939" lon="6.68882">
        <ele>906.4</ele>
        <time>2021-07-29T08:28:02Z</time>
      </trkpt>
      <trkpt lat="47.12938" lon="6.6888">
        <ele>906.4</ele>
        <time>2021-07-29T08:28:03Z</time>
      </trkpt>
      <trkpt lat="47.12938" lon="6.68877">
        <ele>906.6</ele>
        <time>2021-07-29T08:28:04Z</time>
      </trkpt>
      <trkpt lat="47.12937" lon="6.68875">
        <ele>906.6</ele>
        <time>2021-07-29T08:28:05Z</time>
      </trkpt>
      <trkpt lat="47.12936" lon="6.68872">
        <ele>906.6</ele>
        <time>2021-07-29T08:28:06Z</time>
      </trkpt>
      <trkpt lat="47.12936" lon="6.6887">
        <ele>906.8</ele>
        <time>2021-07-29T08:28:07Z</time>
      </trkpt>
      <trkpt lat="47.12935" lon="6.68867">
        <ele>907</ele>
        <time>2021-07-29T08:28:08Z</time>
      </trkpt>
      <trkpt lat="47.12935" lon="6.68865">
        <ele>907.2</ele>
        <time>2021-07-29T08:28:09Z</time>
      </trkpt>
      <trkpt lat="47.12935" lon="6.68862">
        <ele>907.2</ele>
        <time>2021-07-29T08:28:10Z</time>
      </trkpt>
      <trkpt lat="47.12934" lon="6.6886">
        <ele>907</ele>
        <time>2021-07-29T08:28:11Z</time>
      </trkpt>
      <trkpt lat="47.12933" lon="6.68857">
        <ele>907.2</ele>
        <time>2021-07-29T08:28:12Z</time>
      </trkpt>
      <trkpt lat="47.12932" lon="6.68855">
        <ele>907.2</ele>
        <time>2021-07-29T08:28:13Z</time>
      </trkpt>
      <trkpt lat="47.12931" lon="6.68852">
        <ele>907.4</ele>
        <time>2021-07-29T08:28:14Z</time>
      </trkpt>
      <trkpt lat="47.1293" lon="6.6885">
        <ele>907.4</ele>
        <time>2021-07-29T08:28:15Z</time>
      </trkpt>
      <trkpt lat="47.12929" lon="6.68847">
        <ele>907.4</ele>
        <time>2021-07-29T08:28:16Z</time>
      </trkpt>
      <trkpt lat="47.12928" lon="6.68845">
        <ele>907.6</ele>
        <time>2021-07-29T08:28:17Z</time>
      </trkpt>
      <trkpt lat="47.12928" lon="6.68843">
        <ele>907.6</ele>
        <time>2021-07-29T08:28:18Z</time>
      </trkpt>
      <trkpt lat="47.12927" lon="6.6884">
        <ele>907.6</ele>
        <time>2021-07-29T08:28:19Z</time>
      </trkpt>
      <trkpt lat="47.12926" lon="6.68838">
        <ele>907.8</ele>
        <time>2021-07-29T08:28:20Z</time>
      </trkpt>
      <trkpt lat="47.12925" lon="6.68836">
        <ele>907.8</ele>
        <time>2021-07-29T08:28:21Z</time>
      </trkpt>
      <trkpt lat="47.12924" lon="6.68833">
        <ele>908</ele>
        <time>2021-07-29T08:28:22Z</time>
      </trkpt>
      <trkpt lat="47.12923" lon="6.68831">
        <ele>908.2</ele>
        <time>2021-07-29T08:28:23Z</time>
      </trkpt>
      <trkpt lat="47.12922" lon="6.68828">
        <ele>908.2</ele>
        <time>2021-07-29T08:28:24Z</time>
      </trkpt>
      <trkpt lat="47.12921" lon="6.68825">
        <ele>908.4</ele>
        <time>2021-07-29T08:28:25Z</time>
      </trkpt>
      <trkpt lat="47.1292" lon="6.68823">
        <ele>908.4</ele>
        <time>2021-07-29T08:28:26Z</time>
      </trkpt>
      <trkpt lat="47.12919" lon="6.6882">
        <ele>908.2</ele>
        <time>2021-07-29T08:28:27Z</time>
      </trkpt>
      <trkpt lat="47.12918" lon="6.68817">
        <ele>908.2</ele>
        <time>2021-07-29T08:28:28Z</time>
      </trkpt>
      <trkpt lat="47.12917" lon="6.68814">
        <ele>908.2</ele>
        <time>2021-07-29T08:28:29Z</time>
      </trkpt>
      <trkpt lat="47.12915" lon="6.68811">
        <ele>908.4</ele>
        <time>2021-07-29T08:28:30Z</time>
      </trkpt>
      <trkpt lat="47.12914" lon="6.68808">
        <ele>908.2</ele>
        <time>2021-07-29T08:28:31Z</time>
      </trkpt>
      <trkpt lat="47.12913" lon="6.68805">
        <ele>908</ele>
        <time>2021-07-29T08:28:32Z</time>
      </trkpt>
      <trkpt lat="47.12911" lon="6.68802">
        <ele>907.8</ele>
        <time>2021-07-29T08:28:33Z</time>
      </trkpt>
      <trkpt lat="47.1291" lon="6.68799">
        <ele>907.8</ele>
        <time>2021-07-29T08:28:34Z</time>
      </trkpt>
      <trkpt lat="47.12909" lon="6.68796">
        <ele>907.8</ele>
        <time>2021-07-29T08:28:35Z</time>
      </trkpt>
      <trkpt lat="47.12907" lon="6.68792">
        <ele>908</ele>
        <time>2021-07-29T08:28:36Z</time>
      </trkpt>
      <trkpt lat="47.12906" lon="6.68789">
        <ele>908</ele>
        <time>2021-07-29T08:28:37Z</time>
      </trkpt>
      <trkpt lat="47.12904" lon="6.68786">
        <ele>908</ele>
        <time>2021-07-29T08:28:38Z</time>
      </trkpt>
      <trkpt lat="47.12903" lon="6.68782">
        <ele>908</ele>
        <time>2021-07-29T08:28:39Z</time>
      </trkpt>
      <trkpt lat="47.12901" lon="6.68779">
        <ele>908</ele>
        <time>2021-07-29T08:28:40Z</time>
      </trkpt>
      <trkpt lat="47.129" lon="6.68775">
        <ele>907.8</ele>
        <time>2021-07-29T08:28:41Z</time>
      </trkpt>
      <trkpt lat="47.12898" lon="6.68771">
        <ele>907.8</ele>
        <time>2021-07-29T08:28:42Z</time>
      </trkpt>
      <trkpt lat="47.12897" lon="6.68767">
        <ele>908</ele>
        <time>2021-07-29T08:28:43Z</time>
      </trkpt>
      <trkpt lat="47.12895" lon="6.68764">
        <ele>908</ele>
        <time>2021-07-29T08:28:44Z</time>
      </trkpt>
      <trkpt lat="47.12893" lon="6.6876">
        <ele>908.8</ele>
        <time>2021-07-29T08:28:45Z</time>
      </trkpt>
      <trkpt lat="47.12892" lon="6.68757">
        <ele>908.4</ele>
        <time>2021-07-29T08:28:46Z</time>
      </trkpt>
      <trkpt lat="47.1289" lon="6.68753">
        <ele>908.4</ele>
        <time>2021-07-29T08:28:47Z</time>
      </trkpt>
      <trkpt lat="47.12889" lon="6.6875">
        <ele>908.4</ele>
        <time>2021-07-29T08:28:48Z</time>
      </trkpt>
      <trkpt lat="47.12888" lon="6.68747">
        <ele>908.4</ele>
        <time>2021-07-29T08:28:49Z</time>
      </trkpt>
      <trkpt lat="47.12886" lon="6.68743">
        <ele>908.4</ele>
        <time>2021-07-29T08:28:50Z</time>
      </trkpt>
      <trkpt lat="47.12885" lon="6.6874">
        <ele>908.6</ele>
        <time>2021-07-29T08:28:51Z</time>
      </trkpt>
      <trkpt lat="47.12883" lon="6.68736">
        <ele>908.4</ele>
        <time>2021-07-29T08:28:52Z</time>
      </trkpt>
      <trkpt lat="47.12882" lon="6.68733">
        <ele>908.4</ele>
        <time>2021-07-29T08:28:53Z</time>
      </trkpt>
      <trkpt lat="47.12881" lon="6.68729">
        <ele>908.6</ele>
        <time>2021-07-29T08:28:54Z</time>
      </trkpt>
      <trkpt lat="47.12879" lon="6.68726">
        <ele>908.6</ele>
        <time>2021-07-29T08:28:55Z</time>
      </trkpt>
      <trkpt lat="47.12878" lon="6.68722">
        <ele>908.8</ele>
        <time>2021-07-29T08:28:56Z</time>
      </trkpt>
      <trkpt lat="47.12876" lon="6.68718">
        <ele>908.8</ele>
        <time>2021-07-29T08:28:57Z</time>
      </trkpt>
      <trkpt lat="47.12875" lon="6.68715">
        <ele>908.6</ele>
        <time>2021-07-29T08:28:58Z</time>
      </trkpt>
      <trkpt lat="47.12874" lon="6.68711">
        <ele>908.4</ele>
        <time>2021-07-29T08:28:59Z</time>
      </trkpt>
      <trkpt lat="47.12872" lon="6.68708">
        <ele>908.4</ele>
        <time>2021-07-29T08:29:00Z</time>
      </trkpt>
      <trkpt lat="47.12871" lon="6.68704">
        <ele>908.4</ele>
        <time>2021-07-29T08:29:01Z</time>
      </trkpt>
      <trkpt lat="47.12869" lon="6.687">
        <ele>908.6</ele>
        <time>2021-07-29T08:29:02Z</time>
      </trkpt>
      <trkpt lat="47.12868" lon="6.68696">
        <ele>908.8</ele>
        <time>2021-07-29T08:29:03Z</time>
      </trkpt>
      <trkpt lat="47.12867" lon="6.68692">
        <ele>908.6</ele>
        <time>2021-07-29T08:29:04Z</time>
      </trkpt>
      <trkpt lat="47.12866" lon="6.68689">
        <ele>908.6</ele>
        <time>2021-07-29T08:29:05Z</time>
      </trkpt>
      <trkpt lat="47.12864" lon="6.68685">
        <ele>908.6</ele>
        <time>2021-07-29T08:29:06Z</time>
      </trkpt>
      <trkpt lat="47.12863" lon="6.68681">
        <ele>908.6</ele>
        <time>2021-07-29T08:29:07Z</time>
      </trkpt>
      <trkpt lat="47.12862" lon="6.68678">
        <ele>908.8</ele>
        <time>2021-07-29T08:29:08Z</time>
      </trkpt>
      <trkpt lat="47.12861" lon="6.68674">
        <ele>908.8</ele>
        <time>2021-07-29T08:29:09Z</time>
      </trkpt>
      <trkpt lat="47.12859" lon="6.68671">
        <ele>908.8</ele>
        <time>2021-07-29T08:29:10Z</time>
      </trkpt>
      <trkpt lat="47.12858" lon="6.68668">
        <ele>908.8</ele>
        <time>2021-07-29T08:29:11Z</time>
      </trkpt>
      <trkpt lat="47.12857" lon="6.68665">
        <ele>908.8</ele>
        <time>2021-07-29T08:29:12Z</time>
      </trkpt>
      <trkpt lat="47.12855" lon="6.68662">
        <ele>909</ele>
        <time>2021-07-29T08:29:13Z</time>
      </trkpt>
      <trkpt lat="47.12854" lon="6.68659">
        <ele>909</ele>
        <time>2021-07-29T08:29:14Z</time>
      </trkpt>
      <trkpt lat="47.12852" lon="6.68656">
        <ele>909</ele>
        <time>2021-07-29T08:29:15Z</time>
      </trkpt>
      <trkpt lat="47.12851" lon="6.68653">
        <ele>909</ele>
        <time>2021-07-29T08:29:16Z</time>
      </trkpt>
      <trkpt lat="47.1285" lon="6.6865">
        <ele>909</ele>
        <time>2021-07-29T08:29:17Z</time>
      </trkpt>
      <trkpt lat="47.12849" lon="6.68646">
        <ele>909.2</ele>
        <time>2021-07-29T08:29:18Z</time>
      </trkpt>
      <trkpt lat="47.12848" lon="6.68643">
        <ele>909.2</ele>
        <time>2021-07-29T08:29:19Z</time>
      </trkpt>
      <trkpt lat="47.12847" lon="6.6864">
        <ele>909.4</ele>
        <time>2021-07-29T08:29:20Z</time>
      </trkpt>
      <trkpt lat="47.12845" lon="6.68636">
        <ele>909.4</ele>
        <time>2021-07-29T08:29:21Z</time>
      </trkpt>
      <trkpt lat="47.12844" lon="6.68633">
        <ele>909.4</ele>
        <time>2021-07-29T08:29:22Z</time>
      </trkpt>
      <trkpt lat="47.12843" lon="6.68629">
        <ele>909.4</ele>
        <time>2021-07-29T08:29:23Z</time>
      </trkpt>
      <trkpt lat="47.12841" lon="6.68625">
        <ele>909.2</ele>
        <time>2021-07-29T08:29:24Z</time>
      </trkpt>
      <trkpt lat="47.1284" lon="6.68621">
        <ele>909.2</ele>
        <time>2021-07-29T08:29:25Z</time>
      </trkpt>
      <trkpt lat="47.12839" lon="6.68617">
        <ele>909.2</ele>
        <time>2021-07-29T08:29:26Z</time>
      </trkpt>
      <trkpt lat="47.12837" lon="6.68614">
        <ele>909.2</ele>
        <time>2021-07-29T08:29:27Z</time>
      </trkpt>
      <trkpt lat="47.12836" lon="6.6861">
        <ele>909.2</ele>
        <time>2021-07-29T08:29:28Z</time>
      </trkpt>
      <trkpt lat="47.12834" lon="6.68606">
        <ele>909.4</ele>
        <time>2021-07-29T08:29:29Z</time>
      </trkpt>
      <trkpt lat="47.12833" lon="6.68603">
        <ele>909.6</ele>
        <time>2021-07-29T08:29:30Z</time>
      </trkpt>
      <trkpt lat="47.12832" lon="6.68599">
        <ele>909.6</ele>
        <time>2021-07-29T08:29:31Z</time>
      </trkpt>
      <trkpt lat="47.1283" lon="6.68596">
        <ele>909.6</ele>
        <time>2021-07-29T08:29:32Z</time>
      </trkpt>
      <trkpt lat="47.12829" lon="6.68593">
        <ele>909.6</ele>
        <time>2021-07-29T08:29:33Z</time>
      </trkpt>
      <trkpt lat="47.12827" lon="6.68589">
        <ele>909.6</ele>
        <time>2021-07-29T08:29:34Z</time>
      </trkpt>
      <trkpt lat="47.12826" lon="6.68586">
        <ele>909.6</ele>
        <time>2021-07-29T08:29:35Z</time>
      </trkpt>
      <trkpt lat="47.12825" lon="6.68583">
        <ele>909.6</ele>
        <time>2021-07-29T08:29:36Z</time>
      </trkpt>
      <trkpt lat="47.12824" lon="6.68579">
        <ele>910</ele>
        <time>2021-07-29T08:29:37Z</time>
      </trkpt>
      <trkpt lat="47.12823" lon="6.68576">
        <ele>909.8</ele>
        <time>2021-07-29T08:29:38Z</time>
      </trkpt>
      <trkpt lat="47.12821" lon="6.68572">
        <ele>909.8</ele>
        <time>2021-07-29T08:29:39Z</time>
      </trkpt>
      <trkpt lat="47.1282" lon="6.68569">
        <ele>909.8</ele>
        <time>2021-07-29T08:29:40Z</time>
      </trkpt>
      <trkpt lat="47.12819" lon="6.68565">
        <ele>910</ele>
        <time>2021-07-29T08:29:41Z</time>
      </trkpt>
      <trkpt lat="47.12817" lon="6.68562">
        <ele>910</ele>
        <time>2021-07-29T08:29:42Z</time>
      </trkpt>
      <trkpt lat="47.12816" lon="6.68559">
        <ele>910</ele>
        <time>2021-07-29T08:29:43Z</time>
      </trkpt>
      <trkpt lat="47.12815" lon="6.68555">
        <ele>910</ele>
        <time>2021-07-29T08:29:44Z</time>
      </trkpt>
      <trkpt lat="47.12814" lon="6.68552">
        <ele>910.2</ele>
        <time>2021-07-29T08:29:45Z</time>
      </trkpt>
      <trkpt lat="47.12813" lon="6.68548">
        <ele>910.4</ele>
        <time>2021-07-29T08:29:46Z</time>
      </trkpt>
      <trkpt lat="47.12811" lon="6.68545">
        <ele>910.4</ele>
        <time>2021-07-29T08:29:47Z</time>
      </trkpt>
      <trkpt lat="47.1281" lon="6.68542">
        <ele>910.4</ele>
        <time>2021-07-29T08:29:48Z</time>
      </trkpt>
      <trkpt lat="47.12809" lon="6.68538">
        <ele>910.6</ele>
        <time>2021-07-29T08:29:49Z</time>
      </trkpt>
      <trkpt lat="47.12807" lon="6.68535">
        <ele>910.8</ele>
        <time>2021-07-29T08:29:50Z</time>
      </trkpt>
      <trkpt lat="47.12806" lon="6.68532">
        <ele>910.8</ele>
        <time>2021-07-29T08:29:51Z</time>
      </trkpt>
      <trkpt lat="47.12805" lon="6.68528">
        <ele>910.8</ele>
        <time>2021-07-29T08:29:52Z</time>
      </trkpt>
      <trkpt lat="47.12804" lon="6.68525">
        <ele>911</ele>
        <time>2021-07-29T08:29:53Z</time>
      </trkpt>
      <trkpt lat="47.12803" lon="6.68522">
        <ele>911</ele>
        <time>2021-07-29T08:29:54Z</time>
      </trkpt>
      <trkpt lat="47.12802" lon="6.68519">
        <ele>911.2</ele>
        <time>2021-07-29T08:29:55Z</time>
      </trkpt>
      <trkpt lat="47.128" lon="6.68516">
        <ele>911.2</ele>
        <time>2021-07-29T08:29:56Z</time>
      </trkpt>
      <trkpt lat="47.12799" lon="6.68513">
        <ele>911.2</ele>
        <time>2021-07-29T08:29:57Z</time>
      </trkpt>
      <trkpt lat="47.12798" lon="6.68509">
        <ele>911.4</ele>
        <time>2021-07-29T08:29:58Z</time>
      </trkpt>
      <trkpt lat="47.12797" lon="6.68506">
        <ele>911.6</ele>
        <time>2021-07-29T08:29:59Z</time>
      </trkpt>
      <trkpt lat="47.12796" lon="6.68503">
        <ele>911.6</ele>
        <time>2021-07-29T08:30:00Z</time>
      </trkpt>
      <trkpt lat="47.12795" lon="6.685">
        <ele>911.8</ele>
        <time>2021-07-29T08:30:01Z</time>
      </trkpt>
      <trkpt lat="47.12793" lon="6.68497">
        <ele>911.8</ele>
        <time>2021-07-29T08:30:02Z</time>
      </trkpt>
      <trkpt lat="47.12792" lon="6.68494">
        <ele>911.8</ele>
        <time>2021-07-29T08:30:03Z</time>
      </trkpt>
      <trkpt lat="47.12791" lon="6.68491">
        <ele>911.8</ele>
        <time>2021-07-29T08:30:04Z</time>
      </trkpt>
      <trkpt lat="47.12791" lon="6.68488">
        <ele>912.2</ele>
        <time>2021-07-29T08:30:05Z</time>
      </trkpt>
      <trkpt lat="47.1279" lon="6.68485">
        <ele>912.2</ele>
        <time>2021-07-29T08:30:06Z</time>
      </trkpt>
      <trkpt lat="47.12789" lon="6.68481">
        <ele>912.4</ele>
        <time>2021-07-29T08:30:07Z</time>
      </trkpt>
      <trkpt lat="47.12788" lon="6.68479">
        <ele>912.6</ele>
        <time>2021-07-29T08:30:08Z</time>
      </trkpt>
      <trkpt lat="47.12787" lon="6.68475">
        <ele>912.6</ele>
        <time>2021-07-29T08:30:09Z</time>
      </trkpt>
      <trkpt lat="47.12786" lon="6.68473">
        <ele>912.8</ele>
        <time>2021-07-29T08:30:10Z</time>
      </trkpt>
      <trkpt lat="47.12786" lon="6.6847">
        <ele>913</ele>
        <time>2021-07-29T08:30:11Z</time>
      </trkpt>
      <trkpt lat="47.12785" lon="6.68467">
        <ele>913</ele>
        <time>2021-07-29T08:30:12Z</time>
      </trkpt>
      <trkpt lat="47.12784" lon="6.68464">
        <ele>913.2</ele>
        <time>2021-07-29T08:30:13Z</time>
      </trkpt>
      <trkpt lat="47.12784" lon="6.68461">
        <ele>913.4</ele>
        <time>2021-07-29T08:30:14Z</time>
      </trkpt>
      <trkpt lat="47.12783" lon="6.68459">
        <ele>913.4</ele>
        <time>2021-07-29T08:30:15Z</time>
      </trkpt>
      <trkpt lat="47.12782" lon="6.68456">
        <ele>913.6</ele>
        <time>2021-07-29T08:30:16Z</time>
      </trkpt>
      <trkpt lat="47.12782" lon="6.68453">
        <ele>913.8</ele>
        <time>2021-07-29T08:30:17Z</time>
      </trkpt>
      <trkpt lat="47.12781" lon="6.6845">
        <ele>913.8</ele>
        <time>2021-07-29T08:30:18Z</time>
      </trkpt>
      <trkpt lat="47.12781" lon="6.68447">
        <ele>914</ele>
        <time>2021-07-29T08:30:19Z</time>
      </trkpt>
      <trkpt lat="47.1278" lon="6.68444">
        <ele>914.2</ele>
        <time>2021-07-29T08:30:20Z</time>
      </trkpt>
      <trkpt lat="47.1278" lon="6.68441">
        <ele>914.4</ele>
        <time>2021-07-29T08:30:21Z</time>
      </trkpt>
      <trkpt lat="47.12779" lon="6.68438">
        <ele>914.4</ele>
        <time>2021-07-29T08:30:22Z</time>
      </trkpt>
      <trkpt lat="47.12778" lon="6.68435">
        <ele>914.6</ele>
        <time>2021-07-29T08:30:23Z</time>
      </trkpt>
      <trkpt lat="47.12777" lon="6.68432">
        <ele>914.6</ele>
        <time>2021-07-29T08:30:24Z</time>
      </trkpt>
      <trkpt lat="47.12777" lon="6.68429">
        <ele>914.6</ele>
        <time>2021-07-29T08:30:25Z</time>
      </trkpt>
      <trkpt lat="47.12776" lon="6.68426">
        <ele>914.8</ele>
        <time>2021-07-29T08:30:26Z</time>
      </trkpt>
      <trkpt lat="47.12775" lon="6.68423">
        <ele>914.8</ele>
        <time>2021-07-29T08:30:27Z</time>
      </trkpt>
      <trkpt lat="47.12775" lon="6.68419">
        <ele>915</ele>
        <time>2021-07-29T08:30:28Z</time>
      </trkpt>
      <trkpt lat="47.12774" lon="6.68416">
        <ele>915</ele>
        <time>2021-07-29T08:30:29Z</time>
      </trkpt>
      <trkpt lat="47.12774" lon="6.68413">
        <ele>915</ele>
        <time>2021-07-29T08:30:30Z</time>
      </trkpt>
      <trkpt lat="47.12773" lon="6.6841">
        <ele>915.2</ele>
        <time>2021-07-29T08:30:31Z</time>
      </trkpt>
      <trkpt lat="47.12773" lon="6.68407">
        <ele>915.4</ele>
        <time>2021-07-29T08:30:32Z</time>
      </trkpt>
      <trkpt lat="47.12772" lon="6.68404">
        <ele>915.4</ele>
        <time>2021-07-29T08:30:33Z</time>
      </trkpt>
      <trkpt lat="47.12772" lon="6.684">
        <ele>915.4</ele>
        <time>2021-07-29T08:30:34Z</time>
      </trkpt>
      <trkpt lat="47.12771" lon="6.68397">
        <ele>915.4</ele>
        <time>2021-07-29T08:30:35Z</time>
      </trkpt>
      <trkpt lat="47.1277" lon="6.68394">
        <ele>915.4</ele>
        <time>2021-07-29T08:30:36Z</time>
      </trkpt>
      <trkpt lat="47.1277" lon="6.68391">
        <ele>915.6</ele>
        <time>2021-07-29T08:30:37Z</time>
      </trkpt>
      <trkpt lat="47.12769" lon="6.68388">
        <ele>915.6</ele>
        <time>2021-07-29T08:30:38Z</time>
      </trkpt>
      <trkpt lat="47.12768" lon="6.68384">
        <ele>915.8</ele>
        <time>2021-07-29T08:30:39Z</time>
      </trkpt>
      <trkpt lat="47.12768" lon="6.68381">
        <ele>915.8</ele>
        <time>2021-07-29T08:30:40Z</time>
      </trkpt>
      <trkpt lat="47.12767" lon="6.68378">
        <ele>916</ele>
        <time>2021-07-29T08:30:41Z</time>
      </trkpt>
      <trkpt lat="47.12766" lon="6.68375">
        <ele>916.2</ele>
        <time>2021-07-29T08:30:42Z</time>
      </trkpt>
      <trkpt lat="47.12766" lon="6.68372">
        <ele>916.2</ele>
        <time>2021-07-29T08:30:43Z</time>
      </trkpt>
      <trkpt lat="47.12765" lon="6.68369">
        <ele>916.2</ele>
        <time>2021-07-29T08:30:44Z</time>
      </trkpt>
      <trkpt lat="47.12765" lon="6.68366">
        <ele>916.4</ele>
        <time>2021-07-29T08:30:45Z</time>
      </trkpt>
      <trkpt lat="47.12764" lon="6.68363">
        <ele>916.4</ele>
        <time>2021-07-29T08:30:46Z</time>
      </trkpt>
      <trkpt lat="47.12763" lon="6.6836">
        <ele>916.6</ele>
        <time>2021-07-29T08:30:47Z</time>
      </trkpt>
      <trkpt lat="47.12763" lon="6.68357">
        <ele>916.6</ele>
        <time>2021-07-29T08:30:48Z</time>
      </trkpt>
      <trkpt lat="47.12762" lon="6.68354">
        <ele>916.8</ele>
        <time>2021-07-29T08:30:49Z</time>
      </trkpt>
      <trkpt lat="47.12762" lon="6.68351">
        <ele>917</ele>
        <time>2021-07-29T08:30:50Z</time>
      </trkpt>
      <trkpt lat="47.12761" lon="6.68348">
        <ele>917</ele>
        <time>2021-07-29T08:30:51Z</time>
      </trkpt>
      <trkpt lat="47.1276" lon="6.68345">
        <ele>917.2</ele>
        <time>2021-07-29T08:30:52Z</time>
      </trkpt>
      <trkpt lat="47.1276" lon="6.68342">
        <ele>917.2</ele>
        <time>2021-07-29T08:30:53Z</time>
      </trkpt>
      <trkpt lat="47.12759" lon="6.68339">
        <ele>917.2</ele>
        <time>2021-07-29T08:30:54Z</time>
      </trkpt>
      <trkpt lat="47.12759" lon="6.68336">
        <ele>917.4</ele>
        <time>2021-07-29T08:30:55Z</time>
      </trkpt>
      <trkpt lat="47.12758" lon="6.68333">
        <ele>917.4</ele>
        <time>2021-07-29T08:30:56Z</time>
      </trkpt>
      <trkpt lat="47.12757" lon="6.6833">
        <ele>917.6</ele>
        <time>2021-07-29T08:30:57Z</time>
      </trkpt>
      <trkpt lat="47.12757" lon="6.68327">
        <ele>917.6</ele>
        <time>2021-07-29T08:30:58Z</time>
      </trkpt>
      <trkpt lat="47.12757" lon="6.68323">
        <ele>917.8</ele>
        <time>2021-07-29T08:30:59Z</time>
      </trkpt>
      <trkpt lat="47.12756" lon="6.6832">
        <ele>917.8</ele>
        <time>2021-07-29T08:31:00Z</time>
      </trkpt>
      <trkpt lat="47.12756" lon="6.68317">
        <ele>917.8</ele>
        <time>2021-07-29T08:31:01Z</time>
      </trkpt>
      <trkpt lat="47.12755" lon="6.68314">
        <ele>918</ele>
        <time>2021-07-29T08:31:02Z</time>
      </trkpt>
      <trkpt lat="47.12755" lon="6.68311">
        <ele>918</ele>
        <time>2021-07-29T08:31:03Z</time>
      </trkpt>
      <trkpt lat="47.12755" lon="6.68308">
        <ele>918.2</ele>
        <time>2021-07-29T08:31:04Z</time>
      </trkpt>
      <trkpt lat="47.12754" lon="6.68305">
        <ele>918.4</ele>
        <time>2021-07-29T08:31:05Z</time>
      </trkpt>
      <trkpt lat="47.12754" lon="6.68301">
        <ele>918.4</ele>
        <time>2021-07-29T08:31:06Z</time>
      </trkpt>
      <trkpt lat="47.12754" lon="6.68298">
        <ele>918.6</ele>
        <time>2021-07-29T08:31:07Z</time>
      </trkpt>
      <trkpt lat="47.12754" lon="6.68295">
        <ele>918.6</ele>
        <time>2021-07-29T08:31:08Z</time>
      </trkpt>
      <trkpt lat="47.12754" lon="6.68292">
        <ele>918.8</ele>
        <time>2021-07-29T08:31:09Z</time>
      </trkpt>
      <trkpt lat="47.12754" lon="6.68289">
        <ele>919</ele>
        <time>2021-07-29T08:31:10Z</time>
      </trkpt>
      <trkpt lat="47.12754" lon="6.68286">
        <ele>919</ele>
        <time>2021-07-29T08:31:11Z</time>
      </trkpt>
      <trkpt lat="47.12754" lon="6.68283">
        <ele>919</ele>
        <time>2021-07-29T08:31:12Z</time>
      </trkpt>
      <trkpt lat="47.12754" lon="6.6828">
        <ele>919.2</ele>
        <time>2021-07-29T08:31:13Z</time>
      </trkpt>
      <trkpt lat="47.12754" lon="6.68277">
        <ele>919.4</ele>
        <time>2021-07-29T08:31:14Z</time>
      </trkpt>
      <trkpt lat="47.12755" lon="6.68274">
        <ele>919.4</ele>
        <time>2021-07-29T08:31:15Z</time>
      </trkpt>
      <trkpt lat="47.12755" lon="6.68271">
        <ele>919.6</ele>
        <time>2021-07-29T08:31:16Z</time>
      </trkpt>
      <trkpt lat="47.12755" lon="6.68269">
        <ele>919.6</ele>
        <time>2021-07-29T08:31:17Z</time>
      </trkpt>
      <trkpt lat="47.12756" lon="6.68266">
        <ele>919.8</ele>
        <time>2021-07-29T08:31:18Z</time>
      </trkpt>
      <trkpt lat="47.12756" lon="6.68263">
        <ele>919.8</ele>
        <time>2021-07-29T08:31:19Z</time>
      </trkpt>
      <trkpt lat="47.12757" lon="6.6826">
        <ele>919.8</ele>
        <time>2021-07-29T08:31:20Z</time>
      </trkpt>
      <trkpt lat="47.12757" lon="6.68257">
        <ele>920</ele>
        <time>2021-07-29T08:31:21Z</time>
      </trkpt>
      <trkpt lat="47.12757" lon="6.68255">
        <ele>920.2</ele>
        <time>2021-07-29T08:31:22Z</time>
      </trkpt>
      <trkpt lat="47.12758" lon="6.68252">
        <ele>920.4</ele>
        <time>2021-07-29T08:31:23Z</time>
      </trkpt>
      <trkpt lat="47.12759" lon="6.68249">
        <ele>920.4</ele>
        <time>2021-07-29T08:31:24Z</time>
      </trkpt>
      <trkpt lat="47.12759" lon="6.68246">
        <ele>920.8</ele>
        <time>2021-07-29T08:31:25Z</time>
      </trkpt>
      <trkpt lat="47.1276" lon="6.68243">
        <ele>920.8</ele>
        <time>2021-07-29T08:31:26Z</time>
      </trkpt>
      <trkpt lat="47.1276" lon="6.68241">
        <ele>921</ele>
        <time>2021-07-29T08:31:27Z</time>
      </trkpt>
      <trkpt lat="47.12761" lon="6.68238">
        <ele>921.4</ele>
        <time>2021-07-29T08:31:28Z</time>
      </trkpt>
      <trkpt lat="47.12762" lon="6.68236">
        <ele>921.6</ele>
        <time>2021-07-29T08:31:29Z</time>
      </trkpt>
      <trkpt lat="47.12763" lon="6.68233">
        <ele>921.6</ele>
        <time>2021-07-29T08:31:30Z</time>
      </trkpt>
      <trkpt lat="47.12764" lon="6.68231">
        <ele>921.6</ele>
        <time>2021-07-29T08:31:31Z</time>
      </trkpt>
      <trkpt lat="47.12765" lon="6.68228">
        <ele>921.6</ele>
        <time>2021-07-29T08:31:32Z</time>
      </trkpt>
      <trkpt lat="47.12766" lon="6.68226">
        <ele>921.8</ele>
        <time>2021-07-29T08:31:33Z</time>
      </trkpt>
      <trkpt lat="47.12766" lon="6.68223">
        <ele>922</ele>
        <time>2021-07-29T08:31:34Z</time>
      </trkpt>
      <trkpt lat="47.12767" lon="6.6822">
        <ele>922</ele>
        <time>2021-07-29T08:31:35Z</time>
      </trkpt>
      <trkpt lat="47.12768" lon="6.68218">
        <ele>922</ele>
        <time>2021-07-29T08:31:36Z</time>
      </trkpt>
      <trkpt lat="47.12769" lon="6.68215">
        <ele>922.2</ele>
        <time>2021-07-29T08:31:37Z</time>
      </trkpt>
      <trkpt lat="47.1277" lon="6.68213">
        <ele>922.4</ele>
        <time>2021-07-29T08:31:38Z</time>
      </trkpt>
      <trkpt lat="47.12771" lon="6.6821">
        <ele>922.4</ele>
        <time>2021-07-29T08:31:39Z</time>
      </trkpt>
      <trkpt lat="47.12772" lon="6.68207">
        <ele>922.6</ele>
        <time>2021-07-29T08:31:40Z</time>
      </trkpt>
      <trkpt lat="47.12772" lon="6.68205">
        <ele>922.8</ele>
        <time>2021-07-29T08:31:41Z</time>
      </trkpt>
      <trkpt lat="47.12773" lon="6.68202">
        <ele>922.8</ele>
        <time>2021-07-29T08:31:42Z</time>
      </trkpt>
      <trkpt lat="47.12774" lon="6.682">
        <ele>922.8</ele>
        <time>2021-07-29T08:31:43Z</time>
      </trkpt>
      <trkpt lat="47.12775" lon="6.68197">
        <ele>923</ele>
        <time>2021-07-29T08:31:44Z</time>
      </trkpt>
      <trkpt lat="47.12776" lon="6.68194">
        <ele>923</ele>
        <time>2021-07-29T08:31:45Z</time>
      </trkpt>
      <trkpt lat="47.12776" lon="6.68191">
        <ele>922.8</ele>
        <time>2021-07-29T08:31:46Z</time>
      </trkpt>
      <trkpt lat="47.12777" lon="6.68189">
        <ele>923</ele>
        <time>2021-07-29T08:31:47Z</time>
      </trkpt>
      <trkpt lat="47.12778" lon="6.68186">
        <ele>923.4</ele>
        <time>2021-07-29T08:31:48Z</time>
      </trkpt>
      <trkpt lat="47.12779" lon="6.68184">
        <ele>923.6</ele>
        <time>2021-07-29T08:31:49Z</time>
      </trkpt>
      <trkpt lat="47.1278" lon="6.68181">
        <ele>923.6</ele>
        <time>2021-07-29T08:31:50Z</time>
      </trkpt>
      <trkpt lat="47.12781" lon="6.68179">
        <ele>923.6</ele>
        <time>2021-07-29T08:31:51Z</time>
      </trkpt>
      <trkpt lat="47.12782" lon="6.68177">
        <ele>924</ele>
        <time>2021-07-29T08:31:52Z</time>
      </trkpt>
      <trkpt lat="47.12782" lon="6.68175">
        <ele>923.6</ele>
        <time>2021-07-29T08:31:53Z</time>
      </trkpt>
      <trkpt lat="47.12783" lon="6.68173">
        <ele>923.6</ele>
        <time>2021-07-29T08:31:54Z</time>
      </trkpt>
      <trkpt lat="47.12783" lon="6.68171">
        <ele>923.6</ele>
        <time>2021-07-29T08:31:55Z</time>
      </trkpt>
      <trkpt lat="47.12783" lon="6.68171">
        <ele>923.6</ele>
        <time>2021-07-29T08:31:56Z</time>
      </trkpt>
      <trkpt lat="47.12783" lon="6.68171">
        <ele>923.8</ele>
        <time>2021-07-29T08:31:57Z</time>
      </trkpt>
      <trkpt lat="47.12783" lon="6.68171">
        <ele>923.8</ele>
        <time>2021-07-29T08:31:58Z</time>
      </trkpt>
      <trkpt lat="47.12782" lon="6.68171">
        <ele>923.6</ele>
        <time>2021-07-29T08:31:59Z</time>
      </trkpt>
      <trkpt lat="47.12782" lon="6.68171">
        <ele>923.6</ele>
        <time>2021-07-29T08:32:00Z</time>
      </trkpt>
      <trkpt lat="47.12782" lon="6.68171">
        <ele>923.8</ele>
        <time>2021-07-29T08:32:01Z</time>
      </trkpt>
      <trkpt lat="47.12782" lon="6.68171">
        <ele>923.6</ele>
        <time>2021-07-29T08:32:02Z</time>
      </trkpt>
      <trkpt lat="47.12792" lon="6.68142">
        <ele>923.6</ele>
        <time>2021-07-29T08:32:17Z</time>
      </trkpt>
      <trkpt lat="47.12794" lon="6.68139">
        <ele>923.4</ele>
        <time>2021-07-29T08:32:18Z</time>
      </trkpt>
      <trkpt lat="47.12795" lon="6.68135">
        <ele>923.2</ele>
        <time>2021-07-29T08:32:19Z</time>
      </trkpt>
      <trkpt lat="47.12797" lon="6.68131">
        <ele>923.4</ele>
        <time>2021-07-29T08:32:20Z</time>
      </trkpt>
      <trkpt lat="47.12798" lon="6.68126">
        <ele>923</ele>
        <time>2021-07-29T08:32:21Z</time>
      </trkpt>
      <trkpt lat="47.128" lon="6.68121">
        <ele>923</ele>
        <time>2021-07-29T08:32:22Z</time>
      </trkpt>
      <trkpt lat="47.12802" lon="6.68117">
        <ele>923.2</ele>
        <time>2021-07-29T08:32:23Z</time>
      </trkpt>
      <trkpt lat="47.12803" lon="6.68112">
        <ele>923</ele>
        <time>2021-07-29T08:32:24Z</time>
      </trkpt>
      <trkpt lat="47.12805" lon="6.68106">
        <ele>923.2</ele>
        <time>2021-07-29T08:32:25Z</time>
      </trkpt>
      <trkpt lat="47.12806" lon="6.68101">
        <ele>923.2</ele>
        <time>2021-07-29T08:32:26Z</time>
      </trkpt>
      <trkpt lat="47.12808" lon="6.68096">
        <ele>923.2</ele>
        <time>2021-07-29T08:32:27Z</time>
      </trkpt>
      <trkpt lat="47.1281" lon="6.68091">
        <ele>923.2</ele>
        <time>2021-07-29T08:32:28Z</time>
      </trkpt>
      <trkpt lat="47.12811" lon="6.68086">
        <ele>923.2</ele>
        <time>2021-07-29T08:32:29Z</time>
      </trkpt>
      <trkpt lat="47.12813" lon="6.68081">
        <ele>923</ele>
        <time>2021-07-29T08:32:30Z</time>
      </trkpt>
      <trkpt lat="47.12814" lon="6.68077">
        <ele>923.2</ele>
        <time>2021-07-29T08:32:31Z</time>
      </trkpt>
      <trkpt lat="47.12816" lon="6.68072">
        <ele>923.4</ele>
        <time>2021-07-29T08:32:32Z</time>
      </trkpt>
      <trkpt lat="47.12817" lon="6.68067">
        <ele>923.4</ele>
        <time>2021-07-29T08:32:33Z</time>
      </trkpt>
      <trkpt lat="47.12819" lon="6.68062">
        <ele>923.4</ele>
        <time>2021-07-29T08:32:34Z</time>
      </trkpt>
      <trkpt lat="47.1282" lon="6.68058">
        <ele>923.4</ele>
        <time>2021-07-29T08:32:35Z</time>
      </trkpt>
      <trkpt lat="47.12821" lon="6.68054">
        <ele>923.4</ele>
        <time>2021-07-29T08:32:36Z</time>
      </trkpt>
      <trkpt lat="47.12821" lon="6.68049">
        <ele>923.6</ele>
        <time>2021-07-29T08:32:37Z</time>
      </trkpt>
      <trkpt lat="47.12822" lon="6.68045">
        <ele>923.6</ele>
        <time>2021-07-29T08:32:38Z</time>
      </trkpt>
      <trkpt lat="47.12822" lon="6.68041">
        <ele>923.8</ele>
        <time>2021-07-29T08:32:39Z</time>
      </trkpt>
      <trkpt lat="47.12823" lon="6.68038">
        <ele>923.8</ele>
        <time>2021-07-29T08:32:40Z</time>
      </trkpt>
      <trkpt lat="47.12823" lon="6.68034">
        <ele>924</ele>
        <time>2021-07-29T08:32:41Z</time>
      </trkpt>
      <trkpt lat="47.12824" lon="6.6803">
        <ele>924.2</ele>
        <time>2021-07-29T08:32:42Z</time>
      </trkpt>
      <trkpt lat="47.12824" lon="6.68026">
        <ele>924.2</ele>
        <time>2021-07-29T08:32:43Z</time>
      </trkpt>
      <trkpt lat="47.12824" lon="6.68022">
        <ele>924.4</ele>
        <time>2021-07-29T08:32:44Z</time>
      </trkpt>
      <trkpt lat="47.12824" lon="6.68018">
        <ele>924.4</ele>
        <time>2021-07-29T08:32:45Z</time>
      </trkpt>
      <trkpt lat="47.12825" lon="6.68014">
        <ele>924.4</ele>
        <time>2021-07-29T08:32:46Z</time>
      </trkpt>
      <trkpt lat="47.12825" lon="6.6801">
        <ele>924.6</ele>
        <time>2021-07-29T08:32:47Z</time>
      </trkpt>
      <trkpt lat="47.12825" lon="6.68005">
        <ele>924.8</ele>
        <time>2021-07-29T08:32:48Z</time>
      </trkpt>
      <trkpt lat="47.12824" lon="6.68001">
        <ele>925</ele>
        <time>2021-07-29T08:32:49Z</time>
      </trkpt>
      <trkpt lat="47.12824" lon="6.67997">
        <ele>925.2</ele>
        <time>2021-07-29T08:32:50Z</time>
      </trkpt>
      <trkpt lat="47.12823" lon="6.67992">
        <ele>925</ele>
        <time>2021-07-29T08:32:51Z</time>
      </trkpt>
      <trkpt lat="47.12823" lon="6.67988">
        <ele>925.2</ele>
        <time>2021-07-29T08:32:52Z</time>
      </trkpt>
      <trkpt lat="47.12823" lon="6.67983">
        <ele>925.4</ele>
        <time>2021-07-29T08:32:53Z</time>
      </trkpt>
      <trkpt lat="47.12822" lon="6.67979">
        <ele>925.4</ele>
        <time>2021-07-29T08:32:54Z</time>
      </trkpt>
      <trkpt lat="47.12822" lon="6.67975">
        <ele>925.4</ele>
        <time>2021-07-29T08:32:55Z</time>
      </trkpt>
      <trkpt lat="47.12821" lon="6.67971">
        <ele>925.8</ele>
        <time>2021-07-29T08:32:56Z</time>
      </trkpt>
      <trkpt lat="47.12821" lon="6.67967">
        <ele>925.8</ele>
        <time>2021-07-29T08:32:57Z</time>
      </trkpt>
      <trkpt lat="47.1282" lon="6.67963">
        <ele>926</ele>
        <time>2021-07-29T08:32:58Z</time>
      </trkpt>
      <trkpt lat="47.1282" lon="6.6796">
        <ele>926.2</ele>
        <time>2021-07-29T08:32:59Z</time>
      </trkpt>
      <trkpt lat="47.12819" lon="6.67956">
        <ele>926.4</ele>
        <time>2021-07-29T08:33:00Z</time>
      </trkpt>
      <trkpt lat="47.12819" lon="6.67953">
        <ele>926.6</ele>
        <time>2021-07-29T08:33:01Z</time>
      </trkpt>
      <trkpt lat="47.12819" lon="6.67949">
        <ele>926.8</ele>
        <time>2021-07-29T08:33:02Z</time>
      </trkpt>
      <trkpt lat="47.12818" lon="6.67946">
        <ele>926.8</ele>
        <time>2021-07-29T08:33:03Z</time>
      </trkpt>
      <trkpt lat="47.12818" lon="6.67942">
        <ele>926.8</ele>
        <time>2021-07-29T08:33:04Z</time>
      </trkpt>
      <trkpt lat="47.12817" lon="6.67938">
        <ele>926.8</ele>
        <time>2021-07-29T08:33:05Z</time>
      </trkpt>
      <trkpt lat="47.12817" lon="6.67933">
        <ele>926.6</ele>
        <time>2021-07-29T08:33:06Z</time>
      </trkpt>
      <trkpt lat="47.12816" lon="6.67929">
        <ele>926.6</ele>
        <time>2021-07-29T08:33:07Z</time>
      </trkpt>
      <trkpt lat="47.12816" lon="6.67924">
        <ele>926.6</ele>
        <time>2021-07-29T08:33:08Z</time>
      </trkpt>
      <trkpt lat="47.12815" lon="6.67919">
        <ele>926.6</ele>
        <time>2021-07-29T08:33:09Z</time>
      </trkpt>
      <trkpt lat="47.12814" lon="6.67914">
        <ele>926.6</ele>
        <time>2021-07-29T08:33:10Z</time>
      </trkpt>
      <trkpt lat="47.12814" lon="6.67909">
        <ele>926.6</ele>
        <time>2021-07-29T08:33:11Z</time>
      </trkpt>
      <trkpt lat="47.12813" lon="6.67903">
        <ele>926.6</ele>
        <time>2021-07-29T08:33:12Z</time>
      </trkpt>
      <trkpt lat="47.12812" lon="6.67898">
        <ele>926.4</ele>
        <time>2021-07-29T08:33:13Z</time>
      </trkpt>
      <trkpt lat="47.12812" lon="6.67892">
        <ele>926.4</ele>
        <time>2021-07-29T08:33:14Z</time>
      </trkpt>
      <trkpt lat="47.12811" lon="6.67886">
        <ele>926.2</ele>
        <time>2021-07-29T08:33:15Z</time>
      </trkpt>
      <trkpt lat="47.1281" lon="6.6788">
        <ele>926.4</ele>
        <time>2021-07-29T08:33:16Z</time>
      </trkpt>
      <trkpt lat="47.12809" lon="6.67874">
        <ele>926.2</ele>
        <time>2021-07-29T08:33:17Z</time>
      </trkpt>
      <trkpt lat="47.12808" lon="6.67868">
        <ele>926.2</ele>
        <time>2021-07-29T08:33:18Z</time>
      </trkpt>
      <trkpt lat="47.12807" lon="6.67861">
        <ele>926.2</ele>
        <time>2021-07-29T08:33:19Z</time>
      </trkpt>
      <trkpt lat="47.12807" lon="6.67854">
        <ele>925.8</ele>
        <time>2021-07-29T08:33:20Z</time>
      </trkpt>
      <trkpt lat="47.12806" lon="6.67848">
        <ele>925.8</ele>
        <time>2021-07-29T08:33:21Z</time>
      </trkpt>
      <trkpt lat="47.12805" lon="6.67841">
        <ele>925.8</ele>
        <time>2021-07-29T08:33:22Z</time>
      </trkpt>
      <trkpt lat="47.12804" lon="6.67834">
        <ele>925.8</ele>
        <time>2021-07-29T08:33:23Z</time>
      </trkpt>
      <trkpt lat="47.12803" lon="6.67827">
        <ele>925.6</ele>
        <time>2021-07-29T08:33:24Z</time>
      </trkpt>
      <trkpt lat="47.12802" lon="6.6782">
        <ele>925.4</ele>
        <time>2021-07-29T08:33:25Z</time>
      </trkpt>
      <trkpt lat="47.12801" lon="6.67813">
        <ele>925.2</ele>
        <time>2021-07-29T08:33:26Z</time>
      </trkpt>
      <trkpt lat="47.128" lon="6.67805">
        <ele>925</ele>
        <time>2021-07-29T08:33:27Z</time>
      </trkpt>
      <trkpt lat="47.12799" lon="6.67798">
        <ele>924.6</ele>
        <time>2021-07-29T08:33:28Z</time>
      </trkpt>
      <trkpt lat="47.12798" lon="6.6779">
        <ele>924.6</ele>
        <time>2021-07-29T08:33:29Z</time>
      </trkpt>
      <trkpt lat="47.12797" lon="6.67782">
        <ele>924.8</ele>
        <time>2021-07-29T08:33:30Z</time>
      </trkpt>
      <trkpt lat="47.12797" lon="6.67773">
        <ele>924.2</ele>
        <time>2021-07-29T08:33:31Z</time>
      </trkpt>
      <trkpt lat="47.12797" lon="6.67765">
        <ele>923.8</ele>
        <time>2021-07-29T08:33:32Z</time>
      </trkpt>
      <trkpt lat="47.12796" lon="6.67756">
        <ele>923.8</ele>
        <time>2021-07-29T08:33:33Z</time>
      </trkpt>
      <trkpt lat="47.12796" lon="6.67748">
        <ele>924</ele>
        <time>2021-07-29T08:33:34Z</time>
      </trkpt>
      <trkpt lat="47.12797" lon="6.67739">
        <ele>923.6</ele>
        <time>2021-07-29T08:33:35Z</time>
      </trkpt>
      <trkpt lat="47.12797" lon="6.67731">
        <ele>923.6</ele>
        <time>2021-07-29T08:33:36Z</time>
      </trkpt>
      <trkpt lat="47.12798" lon="6.67722">
        <ele>923.4</ele>
        <time>2021-07-29T08:33:37Z</time>
      </trkpt>
      <trkpt lat="47.12799" lon="6.67713">
        <ele>923</ele>
        <time>2021-07-29T08:33:38Z</time>
      </trkpt>
      <trkpt lat="47.128" lon="6.67704">
        <ele>922.8</ele>
        <time>2021-07-29T08:33:39Z</time>
      </trkpt>
      <trkpt lat="47.12801" lon="6.67696">
        <ele>922.8</ele>
        <time>2021-07-29T08:33:40Z</time>
      </trkpt>
      <trkpt lat="47.12803" lon="6.67687">
        <ele>922.6</ele>
        <time>2021-07-29T08:33:41Z</time>
      </trkpt>
      <trkpt lat="47.12804" lon="6.67679">
        <ele>922.4</ele>
        <time>2021-07-29T08:33:42Z</time>
      </trkpt>
      <trkpt lat="47.12806" lon="6.6767">
        <ele>922.4</ele>
        <time>2021-07-29T08:33:43Z</time>
      </trkpt>
      <trkpt lat="47.12808" lon="6.67662">
        <ele>922.2</ele>
        <time>2021-07-29T08:33:44Z</time>
      </trkpt>
      <trkpt lat="47.1281" lon="6.67653">
        <ele>922</ele>
        <time>2021-07-29T08:33:45Z</time>
      </trkpt>
      <trkpt lat="47.12812" lon="6.67645">
        <ele>921.8</ele>
        <time>2021-07-29T08:33:46Z</time>
      </trkpt>
      <trkpt lat="47.12815" lon="6.67636">
        <ele>921.8</ele>
        <time>2021-07-29T08:33:47Z</time>
      </trkpt>
      <trkpt lat="47.12816" lon="6.67627">
        <ele>921.6</ele>
        <time>2021-07-29T08:33:48Z</time>
      </trkpt>
      <trkpt lat="47.12818" lon="6.67618">
        <ele>921.2</ele>
        <time>2021-07-29T08:33:49Z</time>
      </trkpt>
      <trkpt lat="47.12819" lon="6.67608">
        <ele>920.8</ele>
        <time>2021-07-29T08:33:50Z</time>
      </trkpt>
      <trkpt lat="47.12819" lon="6.67598">
        <ele>920.6</ele>
        <time>2021-07-29T08:33:51Z</time>
      </trkpt>
      <trkpt lat="47.12818" lon="6.67589">
        <ele>920.4</ele>
        <time>2021-07-29T08:33:52Z</time>
      </trkpt>
      <trkpt lat="47.12817" lon="6.6758">
        <ele>920</ele>
        <time>2021-07-29T08:33:53Z</time>
      </trkpt>
      <trkpt lat="47.12815" lon="6.6757">
        <ele>919.8</ele>
        <time>2021-07-29T08:33:54Z</time>
      </trkpt>
      <trkpt lat="47.12812" lon="6.67561">
        <ele>919.6</ele>
        <time>2021-07-29T08:33:55Z</time>
      </trkpt>
      <trkpt lat="47.12809" lon="6.67552">
        <ele>919.4</ele>
        <time>2021-07-29T08:33:56Z</time>
      </trkpt>
      <trkpt lat="47.12805" lon="6.67543">
        <ele>919.4</ele>
        <time>2021-07-29T08:33:57Z</time>
      </trkpt>
      <trkpt lat="47.12801" lon="6.67535">
        <ele>919.2</ele>
        <time>2021-07-29T08:33:58Z</time>
      </trkpt>
      <trkpt lat="47.12797" lon="6.67527">
        <ele>918.8</ele>
        <time>2021-07-29T08:33:59Z</time>
      </trkpt>
      <trkpt lat="47.12792" lon="6.67519">
        <ele>918.4</ele>
        <time>2021-07-29T08:34:00Z</time>
      </trkpt>
      <trkpt lat="47.12788" lon="6.67511">
        <ele>918</ele>
        <time>2021-07-29T08:34:01Z</time>
      </trkpt>
      <trkpt lat="47.12783" lon="6.67503">
        <ele>917.8</ele>
        <time>2021-07-29T08:34:02Z</time>
      </trkpt>
      <trkpt lat="47.12778" lon="6.67495">
        <ele>917.6</ele>
        <time>2021-07-29T08:34:03Z</time>
      </trkpt>
      <trkpt lat="47.12773" lon="6.67487">
        <ele>917.6</ele>
        <time>2021-07-29T08:34:04Z</time>
      </trkpt>
      <trkpt lat="47.12768" lon="6.67479">
        <ele>917.2</ele>
        <time>2021-07-29T08:34:05Z</time>
      </trkpt>
      <trkpt lat="47.12763" lon="6.67471">
        <ele>916.8</ele>
        <time>2021-07-29T08:34:06Z</time>
      </trkpt>
      <trkpt lat="47.12759" lon="6.67462">
        <ele>916.6</ele>
        <time>2021-07-29T08:34:07Z</time>
      </trkpt>
      <trkpt lat="47.12755" lon="6.67454">
        <ele>916.4</ele>
        <time>2021-07-29T08:34:08Z</time>
      </trkpt>
      <trkpt lat="47.12751" lon="6.67445">
        <ele>916</ele>
        <time>2021-07-29T08:34:09Z</time>
      </trkpt>
      <trkpt lat="47.12748" lon="6.67437">
        <ele>916.2</ele>
        <time>2021-07-29T08:34:10Z</time>
      </trkpt>
      <trkpt lat="47.12745" lon="6.67428">
        <ele>916.2</ele>
        <time>2021-07-29T08:34:11Z</time>
      </trkpt>
      <trkpt lat="47.12743" lon="6.6742">
        <ele>916.2</ele>
        <time>2021-07-29T08:34:12Z</time>
      </trkpt>
      <trkpt lat="47.12741" lon="6.67412">
        <ele>916.6</ele>
        <time>2021-07-29T08:34:13Z</time>
      </trkpt>
      <trkpt lat="47.12739" lon="6.67404">
        <ele>916.8</ele>
        <time>2021-07-29T08:34:14Z</time>
      </trkpt>
      <trkpt lat="47.12738" lon="6.67397">
        <ele>916.8</ele>
        <time>2021-07-29T08:34:15Z</time>
      </trkpt>
      <trkpt lat="47.12736" lon="6.6739">
        <ele>917</ele>
        <time>2021-07-29T08:34:16Z</time>
      </trkpt>
      <trkpt lat="47.12735" lon="6.67384">
        <ele>917.4</ele>
        <time>2021-07-29T08:34:17Z</time>
      </trkpt>
      <trkpt lat="47.12734" lon="6.67379">
        <ele>917.8</ele>
        <time>2021-07-29T08:34:18Z</time>
      </trkpt>
      <trkpt lat="47.12733" lon="6.67374">
        <ele>917.8</ele>
        <time>2021-07-29T08:34:19Z</time>
      </trkpt>
      <trkpt lat="47.12732" lon="6.67368">
        <ele>918</ele>
        <time>2021-07-29T08:34:20Z</time>
      </trkpt>
      <trkpt lat="47.12731" lon="6.67363">
        <ele>918</ele>
        <time>2021-07-29T08:34:21Z</time>
      </trkpt>
      <trkpt lat="47.12729" lon="6.67358">
        <ele>918</ele>
        <time>2021-07-29T08:34:22Z</time>
      </trkpt>
      <trkpt lat="47.12728" lon="6.67353">
        <ele>918</ele>
        <time>2021-07-29T08:34:23Z</time>
      </trkpt>
      <trkpt lat="47.12727" lon="6.67348">
        <ele>917.8</ele>
        <time>2021-07-29T08:34:24Z</time>
      </trkpt>
      <trkpt lat="47.12726" lon="6.67343">
        <ele>918</ele>
        <time>2021-07-29T08:34:25Z</time>
      </trkpt>
      <trkpt lat="47.12725" lon="6.67337">
        <ele>918</ele>
        <time>2021-07-29T08:34:26Z</time>
      </trkpt>
      <trkpt lat="47.12724" lon="6.67332">
        <ele>917.8</ele>
        <time>2021-07-29T08:34:27Z</time>
      </trkpt>
      <trkpt lat="47.12722" lon="6.67327">
        <ele>917.8</ele>
        <time>2021-07-29T08:34:28Z</time>
      </trkpt>
      <trkpt lat="47.12721" lon="6.67322">
        <ele>918</ele>
        <time>2021-07-29T08:34:29Z</time>
      </trkpt>
      <trkpt lat="47.12719" lon="6.67317">
        <ele>918.2</ele>
        <time>2021-07-29T08:34:30Z</time>
      </trkpt>
      <trkpt lat="47.12718" lon="6.67313">
        <ele>918.2</ele>
        <time>2021-07-29T08:34:31Z</time>
      </trkpt>
      <trkpt lat="47.12716" lon="6.67308">
        <ele>918.4</ele>
        <time>2021-07-29T08:34:32Z</time>
      </trkpt>
      <trkpt lat="47.12715" lon="6.67303">
        <ele>918.4</ele>
        <time>2021-07-29T08:34:33Z</time>
      </trkpt>
      <trkpt lat="47.12713" lon="6.67298">
        <ele>918.6</ele>
        <time>2021-07-29T08:34:34Z</time>
      </trkpt>
      <trkpt lat="47.12712" lon="6.67294">
        <ele>918.8</ele>
        <time>2021-07-29T08:34:35Z</time>
      </trkpt>
      <trkpt lat="47.1271" lon="6.67289">
        <ele>918.8</ele>
        <time>2021-07-29T08:34:36Z</time>
      </trkpt>
      <trkpt lat="47.12709" lon="6.67284">
        <ele>918.6</ele>
        <time>2021-07-29T08:34:37Z</time>
      </trkpt>
      <trkpt lat="47.12707" lon="6.6728">
        <ele>919</ele>
        <time>2021-07-29T08:34:38Z</time>
      </trkpt>
      <trkpt lat="47.12706" lon="6.67275">
        <ele>918.8</ele>
        <time>2021-07-29T08:34:39Z</time>
      </trkpt>
      <trkpt lat="47.12704" lon="6.6727">
        <ele>919</ele>
        <time>2021-07-29T08:34:40Z</time>
      </trkpt>
      <trkpt lat="47.12703" lon="6.67265">
        <ele>919</ele>
        <time>2021-07-29T08:34:41Z</time>
      </trkpt>
      <trkpt lat="47.12701" lon="6.6726">
        <ele>919</ele>
        <time>2021-07-29T08:34:42Z</time>
      </trkpt>
      <trkpt lat="47.12699" lon="6.67255">
        <ele>919</ele>
        <time>2021-07-29T08:34:43Z</time>
      </trkpt>
      <trkpt lat="47.12697" lon="6.67251">
        <ele>919</ele>
        <time>2021-07-29T08:34:44Z</time>
      </trkpt>
      <trkpt lat="47.12696" lon="6.67246">
        <ele>919</ele>
        <time>2021-07-29T08:34:45Z</time>
      </trkpt>
      <trkpt lat="47.12694" lon="6.67241">
        <ele>919.2</ele>
        <time>2021-07-29T08:34:46Z</time>
      </trkpt>
      <trkpt lat="47.12692" lon="6.67235">
        <ele>919</ele>
        <time>2021-07-29T08:34:47Z</time>
      </trkpt>
      <trkpt lat="47.1269" lon="6.6723">
        <ele>919</ele>
        <time>2021-07-29T08:34:48Z</time>
      </trkpt>
      <trkpt lat="47.12688" lon="6.67225">
        <ele>919</ele>
        <time>2021-07-29T08:34:49Z</time>
      </trkpt>
      <trkpt lat="47.12687" lon="6.6722">
        <ele>919.2</ele>
        <time>2021-07-29T08:34:50Z</time>
      </trkpt>
      <trkpt lat="47.12685" lon="6.67215">
        <ele>919.4</ele>
        <time>2021-07-29T08:34:51Z</time>
      </trkpt>
      <trkpt lat="47.12683" lon="6.67209">
        <ele>919.6</ele>
        <time>2021-07-29T08:34:52Z</time>
      </trkpt>
      <trkpt lat="47.12681" lon="6.67204">
        <ele>919.4</ele>
        <time>2021-07-29T08:34:53Z</time>
      </trkpt>
      <trkpt lat="47.12679" lon="6.67199">
        <ele>919.4</ele>
        <time>2021-07-29T08:34:54Z</time>
      </trkpt>
      <trkpt lat="47.12677" lon="6.67193">
        <ele>919.2</ele>
        <time>2021-07-29T08:34:55Z</time>
      </trkpt>
      <trkpt lat="47.12675" lon="6.67188">
        <ele>919</ele>
        <time>2021-07-29T08:34:56Z</time>
      </trkpt>
      <trkpt lat="47.12673" lon="6.67183">
        <ele>919</ele>
        <time>2021-07-29T08:34:57Z</time>
      </trkpt>
      <trkpt lat="47.12671" lon="6.67177">
        <ele>919</ele>
        <time>2021-07-29T08:34:58Z</time>
      </trkpt>
      <trkpt lat="47.12668" lon="6.67171">
        <ele>919</ele>
        <time>2021-07-29T08:34:59Z</time>
      </trkpt>
      <trkpt lat="47.12666" lon="6.67166">
        <ele>918.8</ele>
        <time>2021-07-29T08:35:00Z</time>
      </trkpt>
      <trkpt lat="47.12663" lon="6.67161">
        <ele>918.8</ele>
        <time>2021-07-29T08:35:01Z</time>
      </trkpt>
      <trkpt lat="47.12661" lon="6.67155">
        <ele>918.8</ele>
        <time>2021-07-29T08:35:02Z</time>
      </trkpt>
      <trkpt lat="47.12658" lon="6.6715">
        <ele>918.8</ele>
        <time>2021-07-29T08:35:03Z</time>
      </trkpt>
      <trkpt lat="47.12656" lon="6.67145">
        <ele>918.8</ele>
        <time>2021-07-29T08:35:04Z</time>
      </trkpt>
      <trkpt lat="47.12653" lon="6.6714">
        <ele>918.8</ele>
        <time>2021-07-29T08:35:05Z</time>
      </trkpt>
      <trkpt lat="47.12651" lon="6.67135">
        <ele>919</ele>
        <time>2021-07-29T08:35:06Z</time>
      </trkpt>
      <trkpt lat="47.12648" lon="6.6713">
        <ele>919</ele>
        <time>2021-07-29T08:35:07Z</time>
      </trkpt>
      <trkpt lat="47.12646" lon="6.67126">
        <ele>919</ele>
        <time>2021-07-29T08:35:08Z</time>
      </trkpt>
      <trkpt lat="47.12643" lon="6.67122">
        <ele>919.2</ele>
        <time>2021-07-29T08:35:09Z</time>
      </trkpt>
      <trkpt lat="47.12641" lon="6.67118">
        <ele>919.4</ele>
        <time>2021-07-29T08:35:10Z</time>
      </trkpt>
      <trkpt lat="47.12638" lon="6.67115">
        <ele>919.4</ele>
        <time>2021-07-29T08:35:11Z</time>
      </trkpt>
      <trkpt lat="47.12635" lon="6.67111">
        <ele>919.4</ele>
        <time>2021-07-29T08:35:12Z</time>
      </trkpt>
      <trkpt lat="47.12633" lon="6.67107">
        <ele>919.6</ele>
        <time>2021-07-29T08:35:13Z</time>
      </trkpt>
      <trkpt lat="47.12631" lon="6.67104">
        <ele>919.8</ele>
        <time>2021-07-29T08:35:14Z</time>
      </trkpt>
      <trkpt lat="47.1263" lon="6.671">
        <ele>920.2</ele>
        <time>2021-07-29T08:35:15Z</time>
      </trkpt>
      <trkpt lat="47.12628" lon="6.67096">
        <ele>920.2</ele>
        <time>2021-07-29T08:35:16Z</time>
      </trkpt>
      <trkpt lat="47.12626" lon="6.67093">
        <ele>920.2</ele>
        <time>2021-07-29T08:35:17Z</time>
      </trkpt>
      <trkpt lat="47.12624" lon="6.67089">
        <ele>920.2</ele>
        <time>2021-07-29T08:35:18Z</time>
      </trkpt>
      <trkpt lat="47.12623" lon="6.67086">
        <ele>920.4</ele>
        <time>2021-07-29T08:35:19Z</time>
      </trkpt>
      <trkpt lat="47.12622" lon="6.67082">
        <ele>920.4</ele>
        <time>2021-07-29T08:35:20Z</time>
      </trkpt>
      <trkpt lat="47.12621" lon="6.67079">
        <ele>920.6</ele>
        <time>2021-07-29T08:35:21Z</time>
      </trkpt>
      <trkpt lat="47.12619" lon="6.67076">
        <ele>920.6</ele>
        <time>2021-07-29T08:35:22Z</time>
      </trkpt>
      <trkpt lat="47.12618" lon="6.67073">
        <ele>920.8</ele>
        <time>2021-07-29T08:35:23Z</time>
      </trkpt>
      <trkpt lat="47.12616" lon="6.67069">
        <ele>921</ele>
        <time>2021-07-29T08:35:24Z</time>
      </trkpt>
      <trkpt lat="47.12615" lon="6.67066">
        <ele>921</ele>
        <time>2021-07-29T08:35:25Z</time>
      </trkpt>
      <trkpt lat="47.12614" lon="6.67063">
        <ele>921</ele>
        <time>2021-07-29T08:35:26Z</time>
      </trkpt>
      <trkpt lat="47.12612" lon="6.6706">
        <ele>921.2</ele>
        <time>2021-07-29T08:35:27Z</time>
      </trkpt>
      <trkpt lat="47.12611" lon="6.67057">
        <ele>921.4</ele>
        <time>2021-07-29T08:35:28Z</time>
      </trkpt>
      <trkpt lat="47.1261" lon="6.67054">
        <ele>921.4</ele>
        <time>2021-07-29T08:35:29Z</time>
      </trkpt>
      <trkpt lat="47.12609" lon="6.67051">
        <ele>921.6</ele>
        <time>2021-07-29T08:35:30Z</time>
      </trkpt>
      <trkpt lat="47.12608" lon="6.67048">
        <ele>921.6</ele>
        <time>2021-07-29T08:35:31Z</time>
      </trkpt>
      <trkpt lat="47.12606" lon="6.67044">
        <ele>921.6</ele>
        <time>2021-07-29T08:35:32Z</time>
      </trkpt>
      <trkpt lat="47.12605" lon="6.67041">
        <ele>921.6</ele>
        <time>2021-07-29T08:35:33Z</time>
      </trkpt>
      <trkpt lat="47.12604" lon="6.67037">
        <ele>921.8</ele>
        <time>2021-07-29T08:35:34Z</time>
      </trkpt>
      <trkpt lat="47.12603" lon="6.67033">
        <ele>921.8</ele>
        <time>2021-07-29T08:35:35Z</time>
      </trkpt>
      <trkpt lat="47.12602" lon="6.67029">
        <ele>921.8</ele>
        <time>2021-07-29T08:35:36Z</time>
      </trkpt>
      <trkpt lat="47.12601" lon="6.67026">
        <ele>921.8</ele>
        <time>2021-07-29T08:35:37Z</time>
      </trkpt>
      <trkpt lat="47.12599" lon="6.67022">
        <ele>922</ele>
        <time>2021-07-29T08:35:38Z</time>
      </trkpt>
      <trkpt lat="47.12598" lon="6.67019">
        <ele>922.2</ele>
        <time>2021-07-29T08:35:39Z</time>
      </trkpt>
      <trkpt lat="47.12597" lon="6.67015">
        <ele>922.2</ele>
        <time>2021-07-29T08:35:40Z</time>
      </trkpt>
      <trkpt lat="47.12596" lon="6.67011">
        <ele>922.4</ele>
        <time>2021-07-29T08:35:41Z</time>
      </trkpt>
      <trkpt lat="47.12595" lon="6.67007">
        <ele>922.4</ele>
        <time>2021-07-29T08:35:42Z</time>
      </trkpt>
      <trkpt lat="47.12594" lon="6.67003">
        <ele>922.4</ele>
        <time>2021-07-29T08:35:43Z</time>
      </trkpt>
      <trkpt lat="47.12592" lon="6.66999">
        <ele>922.4</ele>
        <time>2021-07-29T08:35:44Z</time>
      </trkpt>
      <trkpt lat="47.12591" lon="6.66995">
        <ele>922.4</ele>
        <time>2021-07-29T08:35:45Z</time>
      </trkpt>
      <trkpt lat="47.1259" lon="6.66991">
        <ele>922.6</ele>
        <time>2021-07-29T08:35:46Z</time>
      </trkpt>
      <trkpt lat="47.12589" lon="6.66987">
        <ele>922.8</ele>
        <time>2021-07-29T08:35:47Z</time>
      </trkpt>
      <trkpt lat="47.12588" lon="6.66983">
        <ele>922.8</ele>
        <time>2021-07-29T08:35:48Z</time>
      </trkpt>
      <trkpt lat="47.12586" lon="6.66979">
        <ele>922.8</ele>
        <time>2021-07-29T08:35:49Z</time>
      </trkpt>
      <trkpt lat="47.12585" lon="6.66975">
        <ele>922.8</ele>
        <time>2021-07-29T08:35:50Z</time>
      </trkpt>
      <trkpt lat="47.12584" lon="6.66972">
        <ele>922.8</ele>
        <time>2021-07-29T08:35:51Z</time>
      </trkpt>
      <trkpt lat="47.12583" lon="6.66968">
        <ele>923</ele>
        <time>2021-07-29T08:35:52Z</time>
      </trkpt>
      <trkpt lat="47.12582" lon="6.66964">
        <ele>923</ele>
        <time>2021-07-29T08:35:53Z</time>
      </trkpt>
      <trkpt lat="47.12581" lon="6.6696">
        <ele>923.2</ele>
        <time>2021-07-29T08:35:54Z</time>
      </trkpt>
      <trkpt lat="47.1258" lon="6.66956">
        <ele>923.4</ele>
        <time>2021-07-29T08:35:55Z</time>
      </trkpt>
      <trkpt lat="47.12579" lon="6.66951">
        <ele>923.4</ele>
        <time>2021-07-29T08:35:56Z</time>
      </trkpt>
      <trkpt lat="47.12578" lon="6.66947">
        <ele>923.4</ele>
        <time>2021-07-29T08:35:57Z</time>
      </trkpt>
      <trkpt lat="47.12576" lon="6.66943">
        <ele>923.4</ele>
        <time>2021-07-29T08:35:58Z</time>
      </trkpt>
      <trkpt lat="47.12575" lon="6.66939">
        <ele>923.4</ele>
        <time>2021-07-29T08:35:59Z</time>
      </trkpt>
      <trkpt lat="47.12574" lon="6.66935">
        <ele>923.2</ele>
        <time>2021-07-29T08:36:00Z</time>
      </trkpt>
      <trkpt lat="47.12573" lon="6.66931">
        <ele>923.2</ele>
        <time>2021-07-29T08:36:01Z</time>
      </trkpt>
      <trkpt lat="47.12571" lon="6.66927">
        <ele>923.4</ele>
        <time>2021-07-29T08:36:02Z</time>
      </trkpt>
      <trkpt lat="47.1257" lon="6.66922">
        <ele>923.4</ele>
        <time>2021-07-29T08:36:03Z</time>
      </trkpt>
      <trkpt lat="47.12569" lon="6.66918">
        <ele>923.4</ele>
        <time>2021-07-29T08:36:04Z</time>
      </trkpt>
      <trkpt lat="47.12567" lon="6.66914">
        <ele>923.6</ele>
        <time>2021-07-29T08:36:05Z</time>
      </trkpt>
      <trkpt lat="47.12566" lon="6.66909">
        <ele>923.6</ele>
        <time>2021-07-29T08:36:06Z</time>
      </trkpt>
      <trkpt lat="47.12565" lon="6.66905">
        <ele>923.8</ele>
        <time>2021-07-29T08:36:07Z</time>
      </trkpt>
      <trkpt lat="47.12564" lon="6.66901">
        <ele>923.8</ele>
        <time>2021-07-29T08:36:08Z</time>
      </trkpt>
      <trkpt lat="47.12562" lon="6.66897">
        <ele>923.6</ele>
        <time>2021-07-29T08:36:09Z</time>
      </trkpt>
      <trkpt lat="47.12561" lon="6.66892">
        <ele>923.8</ele>
        <time>2021-07-29T08:36:10Z</time>
      </trkpt>
      <trkpt lat="47.12559" lon="6.66888">
        <ele>923.8</ele>
        <time>2021-07-29T08:36:11Z</time>
      </trkpt>
      <trkpt lat="47.12558" lon="6.66883">
        <ele>923.8</ele>
        <time>2021-07-29T08:36:12Z</time>
      </trkpt>
      <trkpt lat="47.12556" lon="6.66879">
        <ele>923.8</ele>
        <time>2021-07-29T08:36:13Z</time>
      </trkpt>
      <trkpt lat="47.12554" lon="6.66874">
        <ele>923.8</ele>
        <time>2021-07-29T08:36:14Z</time>
      </trkpt>
      <trkpt lat="47.12553" lon="6.6687">
        <ele>923.8</ele>
        <time>2021-07-29T08:36:15Z</time>
      </trkpt>
      <trkpt lat="47.12551" lon="6.66865">
        <ele>923.8</ele>
        <time>2021-07-29T08:36:16Z</time>
      </trkpt>
      <trkpt lat="47.1255" lon="6.66861">
        <ele>923.8</ele>
        <time>2021-07-29T08:36:17Z</time>
      </trkpt>
      <trkpt lat="47.12548" lon="6.66857">
        <ele>924</ele>
        <time>2021-07-29T08:36:18Z</time>
      </trkpt>
      <trkpt lat="47.12547" lon="6.66853">
        <ele>924</ele>
        <time>2021-07-29T08:36:19Z</time>
      </trkpt>
      <trkpt lat="47.12545" lon="6.66849">
        <ele>924</ele>
        <time>2021-07-29T08:36:20Z</time>
      </trkpt>
      <trkpt lat="47.12544" lon="6.66845">
        <ele>923.8</ele>
        <time>2021-07-29T08:36:21Z</time>
      </trkpt>
      <trkpt lat="47.12543" lon="6.66841">
        <ele>923.8</ele>
        <time>2021-07-29T08:36:22Z</time>
      </trkpt>
      <trkpt lat="47.12541" lon="6.66837">
        <ele>923.8</ele>
        <time>2021-07-29T08:36:23Z</time>
      </trkpt>
      <trkpt lat="47.1254" lon="6.66832">
        <ele>923.8</ele>
        <time>2021-07-29T08:36:24Z</time>
      </trkpt>
      <trkpt lat="47.12538" lon="6.66828">
        <ele>923.8</ele>
        <time>2021-07-29T08:36:25Z</time>
      </trkpt>
      <trkpt lat="47.12537" lon="6.66823">
        <ele>923.8</ele>
        <time>2021-07-29T08:36:26Z</time>
      </trkpt>
      <trkpt lat="47.12535" lon="6.66819">
        <ele>924</ele>
        <time>2021-07-29T08:36:27Z</time>
      </trkpt>
      <trkpt lat="47.12534" lon="6.66814">
        <ele>924</ele>
        <time>2021-07-29T08:36:28Z</time>
      </trkpt>
      <trkpt lat="47.12532" lon="6.66809">
        <ele>924</ele>
        <time>2021-07-29T08:36:29Z</time>
      </trkpt>
      <trkpt lat="47.12531" lon="6.66804">
        <ele>924.2</ele>
        <time>2021-07-29T08:36:30Z</time>
      </trkpt>
      <trkpt lat="47.12529" lon="6.66799">
        <ele>924</ele>
        <time>2021-07-29T08:36:31Z</time>
      </trkpt>
      <trkpt lat="47.12528" lon="6.66794">
        <ele>924</ele>
        <time>2021-07-29T08:36:32Z</time>
      </trkpt>
      <trkpt lat="47.12526" lon="6.66788">
        <ele>923.8</ele>
        <time>2021-07-29T08:36:33Z</time>
      </trkpt>
      <trkpt lat="47.12524" lon="6.66782">
        <ele>923.8</ele>
        <time>2021-07-29T08:36:34Z</time>
      </trkpt>
      <trkpt lat="47.12523" lon="6.66776">
        <ele>923.8</ele>
        <time>2021-07-29T08:36:35Z</time>
      </trkpt>
      <trkpt lat="47.12521" lon="6.6677">
        <ele>923.8</ele>
        <time>2021-07-29T08:36:36Z</time>
      </trkpt>
      <trkpt lat="47.1252" lon="6.66763">
        <ele>923.6</ele>
        <time>2021-07-29T08:36:37Z</time>
      </trkpt>
      <trkpt lat="47.12519" lon="6.66758">
        <ele>923.4</ele>
        <time>2021-07-29T08:36:38Z</time>
      </trkpt>
      <trkpt lat="47.12517" lon="6.66752">
        <ele>923.4</ele>
        <time>2021-07-29T08:36:39Z</time>
      </trkpt>
      <trkpt lat="47.12516" lon="6.66745">
        <ele>923.4</ele>
        <time>2021-07-29T08:36:40Z</time>
      </trkpt>
      <trkpt lat="47.12515" lon="6.66739">
        <ele>923.4</ele>
        <time>2021-07-29T08:36:41Z</time>
      </trkpt>
      <trkpt lat="47.12513" lon="6.66732">
        <ele>923.2</ele>
        <time>2021-07-29T08:36:42Z</time>
      </trkpt>
      <trkpt lat="47.12512" lon="6.66726">
        <ele>923.2</ele>
        <time>2021-07-29T08:36:43Z</time>
      </trkpt>
      <trkpt lat="47.12511" lon="6.66719">
        <ele>923.2</ele>
        <time>2021-07-29T08:36:44Z</time>
      </trkpt>
      <trkpt lat="47.1251" lon="6.66713">
        <ele>923</ele>
        <time>2021-07-29T08:36:45Z</time>
      </trkpt>
      <trkpt lat="47.12509" lon="6.66706">
        <ele>923</ele>
        <time>2021-07-29T08:36:46Z</time>
      </trkpt>
      <trkpt lat="47.12509" lon="6.667">
        <ele>923</ele>
        <time>2021-07-29T08:36:47Z</time>
      </trkpt>
      <trkpt lat="47.12508" lon="6.66693">
        <ele>923</ele>
        <time>2021-07-29T08:36:48Z</time>
      </trkpt>
      <trkpt lat="47.12507" lon="6.66686">
        <ele>922.8</ele>
        <time>2021-07-29T08:36:49Z</time>
      </trkpt>
      <trkpt lat="47.12507" lon="6.6668">
        <ele>922.8</ele>
        <time>2021-07-29T08:36:50Z</time>
      </trkpt>
      <trkpt lat="47.12506" lon="6.66673">
        <ele>922.6</ele>
        <time>2021-07-29T08:36:51Z</time>
      </trkpt>
      <trkpt lat="47.12506" lon="6.66666">
        <ele>922.4</ele>
        <time>2021-07-29T08:36:52Z</time>
      </trkpt>
      <trkpt lat="47.12505" lon="6.66659">
        <ele>922.4</ele>
        <time>2021-07-29T08:36:53Z</time>
      </trkpt>
      <trkpt lat="47.12504" lon="6.66653">
        <ele>922.4</ele>
        <time>2021-07-29T08:36:54Z</time>
      </trkpt>
      <trkpt lat="47.12504" lon="6.66646">
        <ele>922.4</ele>
        <time>2021-07-29T08:36:55Z</time>
      </trkpt>
      <trkpt lat="47.12503" lon="6.66639">
        <ele>922.4</ele>
        <time>2021-07-29T08:36:56Z</time>
      </trkpt>
      <trkpt lat="47.12502" lon="6.66632">
        <ele>922.4</ele>
        <time>2021-07-29T08:36:57Z</time>
      </trkpt>
      <trkpt lat="47.12501" lon="6.66625">
        <ele>922.4</ele>
        <time>2021-07-29T08:36:58Z</time>
      </trkpt>
      <trkpt lat="47.12501" lon="6.66619">
        <ele>922.4</ele>
        <time>2021-07-29T08:36:59Z</time>
      </trkpt>
      <trkpt lat="47.125" lon="6.66612">
        <ele>922.2</ele>
        <time>2021-07-29T08:37:00Z</time>
      </trkpt>
      <trkpt lat="47.12499" lon="6.66605">
        <ele>922.2</ele>
        <time>2021-07-29T08:37:01Z</time>
      </trkpt>
      <trkpt lat="47.12499" lon="6.66598">
        <ele>922.2</ele>
        <time>2021-07-29T08:37:02Z</time>
      </trkpt>
      <trkpt lat="47.12498" lon="6.66591">
        <ele>922</ele>
        <time>2021-07-29T08:37:03Z</time>
      </trkpt>
      <trkpt lat="47.12498" lon="6.66584">
        <ele>922</ele>
        <time>2021-07-29T08:37:04Z</time>
      </trkpt>
      <trkpt lat="47.12497" lon="6.66577">
        <ele>922.2</ele>
        <time>2021-07-29T08:37:05Z</time>
      </trkpt>
      <trkpt lat="47.12496" lon="6.6657">
        <ele>922.2</ele>
        <time>2021-07-29T08:37:06Z</time>
      </trkpt>
      <trkpt lat="47.12496" lon="6.66563">
        <ele>922.2</ele>
        <time>2021-07-29T08:37:07Z</time>
      </trkpt>
      <trkpt lat="47.12495" lon="6.66556">
        <ele>922.2</ele>
        <time>2021-07-29T08:37:08Z</time>
      </trkpt>
      <trkpt lat="47.12494" lon="6.66549">
        <ele>922</ele>
        <time>2021-07-29T08:37:09Z</time>
      </trkpt>
      <trkpt lat="47.12494" lon="6.66542">
        <ele>922</ele>
        <time>2021-07-29T08:37:10Z</time>
      </trkpt>
      <trkpt lat="47.12493" lon="6.66536">
        <ele>922</ele>
        <time>2021-07-29T08:37:11Z</time>
      </trkpt>
      <trkpt lat="47.12493" lon="6.66529">
        <ele>922</ele>
        <time>2021-07-29T08:37:12Z</time>
      </trkpt>
      <trkpt lat="47.12492" lon="6.66522">
        <ele>921.8</ele>
        <time>2021-07-29T08:37:13Z</time>
      </trkpt>
      <trkpt lat="47.12492" lon="6.66515">
        <ele>921.8</ele>
        <time>2021-07-29T08:37:14Z</time>
      </trkpt>
      <trkpt lat="47.12491" lon="6.66508">
        <ele>921.8</ele>
        <time>2021-07-29T08:37:15Z</time>
      </trkpt>
      <trkpt lat="47.12491" lon="6.66502">
        <ele>921.8</ele>
        <time>2021-07-29T08:37:16Z</time>
      </trkpt>
      <trkpt lat="47.1249" lon="6.66495">
        <ele>922</ele>
        <time>2021-07-29T08:37:17Z</time>
      </trkpt>
      <trkpt lat="47.12489" lon="6.66489">
        <ele>921.8</ele>
        <time>2021-07-29T08:37:18Z</time>
      </trkpt>
      <trkpt lat="47.12489" lon="6.66483">
        <ele>922</ele>
        <time>2021-07-29T08:37:19Z</time>
      </trkpt>
      <trkpt lat="47.12488" lon="6.66478">
        <ele>922.2</ele>
        <time>2021-07-29T08:37:20Z</time>
      </trkpt>
      <trkpt lat="47.12487" lon="6.66473">
        <ele>922.4</ele>
        <time>2021-07-29T08:37:21Z</time>
      </trkpt>
      <trkpt lat="47.12486" lon="6.66468">
        <ele>922.4</ele>
        <time>2021-07-29T08:37:22Z</time>
      </trkpt>
      <trkpt lat="47.12485" lon="6.66463">
        <ele>922.4</ele>
        <time>2021-07-29T08:37:23Z</time>
      </trkpt>
      <trkpt lat="47.12484" lon="6.66459">
        <ele>923</ele>
        <time>2021-07-29T08:37:24Z</time>
      </trkpt>
      <trkpt lat="47.12482" lon="6.66455">
        <ele>922.8</ele>
        <time>2021-07-29T08:37:25Z</time>
      </trkpt>
      <trkpt lat="47.1248" lon="6.66451">
        <ele>923</ele>
        <time>2021-07-29T08:37:26Z</time>
      </trkpt>
      <trkpt lat="47.12479" lon="6.66448">
        <ele>923</ele>
        <time>2021-07-29T08:37:27Z</time>
      </trkpt>
      <trkpt lat="47.12477" lon="6.66444">
        <ele>923.4</ele>
        <time>2021-07-29T08:37:28Z</time>
      </trkpt>
      <trkpt lat="47.12476" lon="6.6644">
        <ele>923.2</ele>
        <time>2021-07-29T08:37:29Z</time>
      </trkpt>
      <trkpt lat="47.12474" lon="6.66437">
        <ele>923.2</ele>
        <time>2021-07-29T08:37:30Z</time>
      </trkpt>
      <trkpt lat="47.12472" lon="6.66433">
        <ele>923.4</ele>
        <time>2021-07-29T08:37:31Z</time>
      </trkpt>
      <trkpt lat="47.1247" lon="6.66429">
        <ele>923.6</ele>
        <time>2021-07-29T08:37:32Z</time>
      </trkpt>
      <trkpt lat="47.12468" lon="6.66426">
        <ele>923.6</ele>
        <time>2021-07-29T08:37:33Z</time>
      </trkpt>
      <trkpt lat="47.12466" lon="6.66422">
        <ele>923.6</ele>
        <time>2021-07-29T08:37:34Z</time>
      </trkpt>
      <trkpt lat="47.12464" lon="6.66419">
        <ele>923.8</ele>
        <time>2021-07-29T08:37:35Z</time>
      </trkpt>
      <trkpt lat="47.12462" lon="6.66415">
        <ele>923.8</ele>
        <time>2021-07-29T08:37:36Z</time>
      </trkpt>
      <trkpt lat="47.12459" lon="6.66412">
        <ele>924</ele>
        <time>2021-07-29T08:37:37Z</time>
      </trkpt>
      <trkpt lat="47.12457" lon="6.66409">
        <ele>924.2</ele>
        <time>2021-07-29T08:37:38Z</time>
      </trkpt>
      <trkpt lat="47.12455" lon="6.66406">
        <ele>924.2</ele>
        <time>2021-07-29T08:37:39Z</time>
      </trkpt>
      <trkpt lat="47.12453" lon="6.66402">
        <ele>924.4</ele>
        <time>2021-07-29T08:37:40Z</time>
      </trkpt>
      <trkpt lat="47.12452" lon="6.66399">
        <ele>924.4</ele>
        <time>2021-07-29T08:37:41Z</time>
      </trkpt>
      <trkpt lat="47.1245" lon="6.66395">
        <ele>924.4</ele>
        <time>2021-07-29T08:37:42Z</time>
      </trkpt>
      <trkpt lat="47.12448" lon="6.66391">
        <ele>924.6</ele>
        <time>2021-07-29T08:37:43Z</time>
      </trkpt>
      <trkpt lat="47.12447" lon="6.66387">
        <ele>924.6</ele>
        <time>2021-07-29T08:37:44Z</time>
      </trkpt>
      <trkpt lat="47.12446" lon="6.66383">
        <ele>924.6</ele>
        <time>2021-07-29T08:37:45Z</time>
      </trkpt>
      <trkpt lat="47.12444" lon="6.66379">
        <ele>924.6</ele>
        <time>2021-07-29T08:37:46Z</time>
      </trkpt>
      <trkpt lat="47.12443" lon="6.66375">
        <ele>924.8</ele>
        <time>2021-07-29T08:37:47Z</time>
      </trkpt>
      <trkpt lat="47.12442" lon="6.66371">
        <ele>925</ele>
        <time>2021-07-29T08:37:48Z</time>
      </trkpt>
      <trkpt lat="47.1244" lon="6.66367">
        <ele>925</ele>
        <time>2021-07-29T08:37:49Z</time>
      </trkpt>
      <trkpt lat="47.12439" lon="6.66364">
        <ele>925.2</ele>
        <time>2021-07-29T08:37:50Z</time>
      </trkpt>
      <trkpt lat="47.12438" lon="6.6636">
        <ele>925.4</ele>
        <time>2021-07-29T08:37:51Z</time>
      </trkpt>
      <trkpt lat="47.12436" lon="6.66356">
        <ele>925.4</ele>
        <time>2021-07-29T08:37:52Z</time>
      </trkpt>
      <trkpt lat="47.12435" lon="6.66353">
        <ele>925.4</ele>
        <time>2021-07-29T08:37:53Z</time>
      </trkpt>
      <trkpt lat="47.12434" lon="6.66349">
        <ele>925.6</ele>
        <time>2021-07-29T08:37:54Z</time>
      </trkpt>
      <trkpt lat="47.12433" lon="6.66345">
        <ele>925.6</ele>
        <time>2021-07-29T08:37:55Z</time>
      </trkpt>
      <trkpt lat="47.12432" lon="6.66342">
        <ele>925.6</ele>
        <time>2021-07-29T08:37:56Z</time>
      </trkpt>
      <trkpt lat="47.12431" lon="6.66338">
        <ele>925.6</ele>
        <time>2021-07-29T08:37:57Z</time>
      </trkpt>
      <trkpt lat="47.1243" lon="6.66335">
        <ele>925.8</ele>
        <time>2021-07-29T08:37:58Z</time>
      </trkpt>
      <trkpt lat="47.12429" lon="6.66331">
        <ele>926</ele>
        <time>2021-07-29T08:37:59Z</time>
      </trkpt>
      <trkpt lat="47.12428" lon="6.66327">
        <ele>926.2</ele>
        <time>2021-07-29T08:38:00Z</time>
      </trkpt>
      <trkpt lat="47.12427" lon="6.66324">
        <ele>926.4</ele>
        <time>2021-07-29T08:38:01Z</time>
      </trkpt>
      <trkpt lat="47.12426" lon="6.6632">
        <ele>926.4</ele>
        <time>2021-07-29T08:38:02Z</time>
      </trkpt>
      <trkpt lat="47.12424" lon="6.66317">
        <ele>926.6</ele>
        <time>2021-07-29T08:38:03Z</time>
      </trkpt>
      <trkpt lat="47.12423" lon="6.66313">
        <ele>926.8</ele>
        <time>2021-07-29T08:38:04Z</time>
      </trkpt>
      <trkpt lat="47.12422" lon="6.6631">
        <ele>926.8</ele>
        <time>2021-07-29T08:38:05Z</time>
      </trkpt>
      <trkpt lat="47.12421" lon="6.66307">
        <ele>926.8</ele>
        <time>2021-07-29T08:38:06Z</time>
      </trkpt>
      <trkpt lat="47.1242" lon="6.66303">
        <ele>927</ele>
        <time>2021-07-29T08:38:07Z</time>
      </trkpt>
      <trkpt lat="47.12419" lon="6.663">
        <ele>927.2</ele>
        <time>2021-07-29T08:38:08Z</time>
      </trkpt>
      <trkpt lat="47.12417" lon="6.66297">
        <ele>927.4</ele>
        <time>2021-07-29T08:38:09Z</time>
      </trkpt>
      <trkpt lat="47.12416" lon="6.66294">
        <ele>927.4</ele>
        <time>2021-07-29T08:38:10Z</time>
      </trkpt>
      <trkpt lat="47.12415" lon="6.6629">
        <ele>927.4</ele>
        <time>2021-07-29T08:38:11Z</time>
      </trkpt>
      <trkpt lat="47.12414" lon="6.66287">
        <ele>927.4</ele>
        <time>2021-07-29T08:38:12Z</time>
      </trkpt>
      <trkpt lat="47.12413" lon="6.66283">
        <ele>927.6</ele>
        <time>2021-07-29T08:38:13Z</time>
      </trkpt>
      <trkpt lat="47.12412" lon="6.66279">
        <ele>927.6</ele>
        <time>2021-07-29T08:38:14Z</time>
      </trkpt>
      <trkpt lat="47.12411" lon="6.66276">
        <ele>927.6</ele>
        <time>2021-07-29T08:38:15Z</time>
      </trkpt>
      <trkpt lat="47.1241" lon="6.66272">
        <ele>927.6</ele>
        <time>2021-07-29T08:38:16Z</time>
      </trkpt>
      <trkpt lat="47.12409" lon="6.66268">
        <ele>927.6</ele>
        <time>2021-07-29T08:38:17Z</time>
      </trkpt>
      <trkpt lat="47.12407" lon="6.66265">
        <ele>927.6</ele>
        <time>2021-07-29T08:38:18Z</time>
      </trkpt>
      <trkpt lat="47.12406" lon="6.66261">
        <ele>927.8</ele>
        <time>2021-07-29T08:38:19Z</time>
      </trkpt>
      <trkpt lat="47.12405" lon="6.66258">
        <ele>928.2</ele>
        <time>2021-07-29T08:38:20Z</time>
      </trkpt>
      <trkpt lat="47.12404" lon="6.66254">
        <ele>928.2</ele>
        <time>2021-07-29T08:38:21Z</time>
      </trkpt>
      <trkpt lat="47.12403" lon="6.6625">
        <ele>928.2</ele>
        <time>2021-07-29T08:38:22Z</time>
      </trkpt>
      <trkpt lat="47.12402" lon="6.66246">
        <ele>928.2</ele>
        <time>2021-07-29T08:38:23Z</time>
      </trkpt>
      <trkpt lat="47.12401" lon="6.66242">
        <ele>928.2</ele>
        <time>2021-07-29T08:38:24Z</time>
      </trkpt>
      <trkpt lat="47.124" lon="6.66238">
        <ele>928.2</ele>
        <time>2021-07-29T08:38:25Z</time>
      </trkpt>
      <trkpt lat="47.12399" lon="6.66233">
        <ele>928.2</ele>
        <time>2021-07-29T08:38:26Z</time>
      </trkpt>
      <trkpt lat="47.12398" lon="6.66229">
        <ele>928.2</ele>
        <time>2021-07-29T08:38:27Z</time>
      </trkpt>
      <trkpt lat="47.12396" lon="6.66225">
        <ele>928.4</ele>
        <time>2021-07-29T08:38:28Z</time>
      </trkpt>
      <trkpt lat="47.12395" lon="6.6622">
        <ele>928.4</ele>
        <time>2021-07-29T08:38:29Z</time>
      </trkpt>
      <trkpt lat="47.12394" lon="6.66217">
        <ele>928.4</ele>
        <time>2021-07-29T08:38:30Z</time>
      </trkpt>
      <trkpt lat="47.12392" lon="6.66213">
        <ele>928.4</ele>
        <time>2021-07-29T08:38:31Z</time>
      </trkpt>
      <trkpt lat="47.12391" lon="6.66209">
        <ele>928.6</ele>
        <time>2021-07-29T08:38:32Z</time>
      </trkpt>
      <trkpt lat="47.12391" lon="6.66205">
        <ele>929</ele>
        <time>2021-07-29T08:38:33Z</time>
      </trkpt>
      <trkpt lat="47.12391" lon="6.66202">
        <ele>929</ele>
        <time>2021-07-29T08:38:34Z</time>
      </trkpt>
      <trkpt lat="47.1239" lon="6.66198">
        <ele>929</ele>
        <time>2021-07-29T08:38:35Z</time>
      </trkpt>
      <trkpt lat="47.12389" lon="6.66194">
        <ele>929</ele>
        <time>2021-07-29T08:38:36Z</time>
      </trkpt>
      <trkpt lat="47.12388" lon="6.6619">
        <ele>929</ele>
        <time>2021-07-29T08:38:37Z</time>
      </trkpt>
      <trkpt lat="47.12387" lon="6.66186">
        <ele>929.2</ele>
        <time>2021-07-29T08:38:38Z</time>
      </trkpt>
      <trkpt lat="47.12385" lon="6.66183">
        <ele>929.2</ele>
        <time>2021-07-29T08:38:39Z</time>
      </trkpt>
      <trkpt lat="47.12384" lon="6.66179">
        <ele>929.4</ele>
        <time>2021-07-29T08:38:40Z</time>
      </trkpt>
      <trkpt lat="47.12383" lon="6.66175">
        <ele>929.4</ele>
        <time>2021-07-29T08:38:41Z</time>
      </trkpt>
      <trkpt lat="47.12382" lon="6.66171">
        <ele>929.8</ele>
        <time>2021-07-29T08:38:42Z</time>
      </trkpt>
      <trkpt lat="47.12382" lon="6.66167">
        <ele>929.8</ele>
        <time>2021-07-29T08:38:43Z</time>
      </trkpt>
      <trkpt lat="47.12381" lon="6.66164">
        <ele>929.6</ele>
        <time>2021-07-29T08:38:44Z</time>
      </trkpt>
      <trkpt lat="47.1238" lon="6.6616">
        <ele>929.8</ele>
        <time>2021-07-29T08:38:45Z</time>
      </trkpt>
      <trkpt lat="47.12379" lon="6.66156">
        <ele>929.8</ele>
        <time>2021-07-29T08:38:46Z</time>
      </trkpt>
      <trkpt lat="47.12378" lon="6.66152">
        <ele>930</ele>
        <time>2021-07-29T08:38:47Z</time>
      </trkpt>
      <trkpt lat="47.12377" lon="6.66148">
        <ele>930</ele>
        <time>2021-07-29T08:38:48Z</time>
      </trkpt>
      <trkpt lat="47.12376" lon="6.66145">
        <ele>930</ele>
        <time>2021-07-29T08:38:49Z</time>
      </trkpt>
      <trkpt lat="47.12375" lon="6.66141">
        <ele>930</ele>
        <time>2021-07-29T08:38:50Z</time>
      </trkpt>
      <trkpt lat="47.12374" lon="6.66137">
        <ele>930.2</ele>
        <time>2021-07-29T08:38:51Z</time>
      </trkpt>
      <trkpt lat="47.12373" lon="6.66133">
        <ele>930.4</ele>
        <time>2021-07-29T08:38:52Z</time>
      </trkpt>
      <trkpt lat="47.12372" lon="6.66129">
        <ele>930.4</ele>
        <time>2021-07-29T08:38:53Z</time>
      </trkpt>
      <trkpt lat="47.12371" lon="6.66125">
        <ele>930.4</ele>
        <time>2021-07-29T08:38:54Z</time>
      </trkpt>
      <trkpt lat="47.1237" lon="6.66121">
        <ele>930.6</ele>
        <time>2021-07-29T08:38:55Z</time>
      </trkpt>
      <trkpt lat="47.12369" lon="6.66117">
        <ele>930.4</ele>
        <time>2021-07-29T08:38:56Z</time>
      </trkpt>
      <trkpt lat="47.12368" lon="6.66113">
        <ele>930.4</ele>
        <time>2021-07-29T08:38:57Z</time>
      </trkpt>
      <trkpt lat="47.12367" lon="6.66109">
        <ele>930.8</ele>
        <time>2021-07-29T08:38:58Z</time>
      </trkpt>
      <trkpt lat="47.12366" lon="6.66105">
        <ele>930.8</ele>
        <time>2021-07-29T08:38:59Z</time>
      </trkpt>
      <trkpt lat="47.12365" lon="6.661">
        <ele>931</ele>
        <time>2021-07-29T08:39:00Z</time>
      </trkpt>
      <trkpt lat="47.12364" lon="6.66096">
        <ele>931</ele>
        <time>2021-07-29T08:39:01Z</time>
      </trkpt>
      <trkpt lat="47.12363" lon="6.66092">
        <ele>931</ele>
        <time>2021-07-29T08:39:02Z</time>
      </trkpt>
      <trkpt lat="47.12362" lon="6.66088">
        <ele>931</ele>
        <time>2021-07-29T08:39:03Z</time>
      </trkpt>
      <trkpt lat="47.12361" lon="6.66083">
        <ele>931</ele>
        <time>2021-07-29T08:39:04Z</time>
      </trkpt>
      <trkpt lat="47.1236" lon="6.66079">
        <ele>931.2</ele>
        <time>2021-07-29T08:39:05Z</time>
      </trkpt>
      <trkpt lat="47.12359" lon="6.66074">
        <ele>931.2</ele>
        <time>2021-07-29T08:39:06Z</time>
      </trkpt>
      <trkpt lat="47.12357" lon="6.6607">
        <ele>931.2</ele>
        <time>2021-07-29T08:39:07Z</time>
      </trkpt>
      <trkpt lat="47.12356" lon="6.66065">
        <ele>931</ele>
        <time>2021-07-29T08:39:08Z</time>
      </trkpt>
      <trkpt lat="47.12354" lon="6.6606">
        <ele>931</ele>
        <time>2021-07-29T08:39:09Z</time>
      </trkpt>
      <trkpt lat="47.12353" lon="6.66055">
        <ele>931</ele>
        <time>2021-07-29T08:39:10Z</time>
      </trkpt>
      <trkpt lat="47.12352" lon="6.6605">
        <ele>931</ele>
        <time>2021-07-29T08:39:11Z</time>
      </trkpt>
      <trkpt lat="47.1235" lon="6.66045">
        <ele>930.8</ele>
        <time>2021-07-29T08:39:12Z</time>
      </trkpt>
      <trkpt lat="47.12349" lon="6.6604">
        <ele>930.8</ele>
        <time>2021-07-29T08:39:13Z</time>
      </trkpt>
      <trkpt lat="47.12347" lon="6.66034">
        <ele>930.8</ele>
        <time>2021-07-29T08:39:14Z</time>
      </trkpt>
      <trkpt lat="47.12346" lon="6.66029">
        <ele>930.8</ele>
        <time>2021-07-29T08:39:15Z</time>
      </trkpt>
      <trkpt lat="47.12344" lon="6.66023">
        <ele>930.6</ele>
        <time>2021-07-29T08:39:16Z</time>
      </trkpt>
      <trkpt lat="47.12343" lon="6.66017">
        <ele>930.4</ele>
        <time>2021-07-29T08:39:17Z</time>
      </trkpt>
      <trkpt lat="47.12341" lon="6.66012">
        <ele>930.4</ele>
        <time>2021-07-29T08:39:18Z</time>
      </trkpt>
      <trkpt lat="47.12339" lon="6.66006">
        <ele>930.2</ele>
        <time>2021-07-29T08:39:19Z</time>
      </trkpt>
      <trkpt lat="47.12338" lon="6.66">
        <ele>930.4</ele>
        <time>2021-07-29T08:39:20Z</time>
      </trkpt>
      <trkpt lat="47.12336" lon="6.65994">
        <ele>930.4</ele>
        <time>2021-07-29T08:39:21Z</time>
      </trkpt>
      <trkpt lat="47.12335" lon="6.65989">
        <ele>930.4</ele>
        <time>2021-07-29T08:39:22Z</time>
      </trkpt>
      <trkpt lat="47.12333" lon="6.65983">
        <ele>930.2</ele>
        <time>2021-07-29T08:39:23Z</time>
      </trkpt>
      <trkpt lat="47.12331" lon="6.65976">
        <ele>930</ele>
        <time>2021-07-29T08:39:24Z</time>
      </trkpt>
      <trkpt lat="47.1233" lon="6.6597">
        <ele>930</ele>
        <time>2021-07-29T08:39:25Z</time>
      </trkpt>
      <trkpt lat="47.12328" lon="6.65964">
        <ele>930</ele>
        <time>2021-07-29T08:39:26Z</time>
      </trkpt>
      <trkpt lat="47.12326" lon="6.65958">
        <ele>929.8</ele>
        <time>2021-07-29T08:39:27Z</time>
      </trkpt>
      <trkpt lat="47.12324" lon="6.65952">
        <ele>929.6</ele>
        <time>2021-07-29T08:39:28Z</time>
      </trkpt>
      <trkpt lat="47.12323" lon="6.65945">
        <ele>929.8</ele>
        <time>2021-07-29T08:39:29Z</time>
      </trkpt>
      <trkpt lat="47.12321" lon="6.65939">
        <ele>929.6</ele>
        <time>2021-07-29T08:39:30Z</time>
      </trkpt>
      <trkpt lat="47.12319" lon="6.65932">
        <ele>929.6</ele>
        <time>2021-07-29T08:39:31Z</time>
      </trkpt>
      <trkpt lat="47.12318" lon="6.65926">
        <ele>929.6</ele>
        <time>2021-07-29T08:39:32Z</time>
      </trkpt>
      <trkpt lat="47.12316" lon="6.65919">
        <ele>929.4</ele>
        <time>2021-07-29T08:39:33Z</time>
      </trkpt>
      <trkpt lat="47.12314" lon="6.65913">
        <ele>929.2</ele>
        <time>2021-07-29T08:39:34Z</time>
      </trkpt>
      <trkpt lat="47.12312" lon="6.65906">
        <ele>929</ele>
        <time>2021-07-29T08:39:35Z</time>
      </trkpt>
      <trkpt lat="47.1231" lon="6.659">
        <ele>929</ele>
        <time>2021-07-29T08:39:36Z</time>
      </trkpt>
      <trkpt lat="47.12308" lon="6.65893">
        <ele>928.8</ele>
        <time>2021-07-29T08:39:37Z</time>
      </trkpt>
      <trkpt lat="47.12307" lon="6.65886">
        <ele>928.8</ele>
        <time>2021-07-29T08:39:38Z</time>
      </trkpt>
      <trkpt lat="47.12305" lon="6.6588">
        <ele>928.8</ele>
        <time>2021-07-29T08:39:39Z</time>
      </trkpt>
      <trkpt lat="47.12303" lon="6.65873">
        <ele>928.6</ele>
        <time>2021-07-29T08:39:40Z</time>
      </trkpt>
      <trkpt lat="47.12301" lon="6.65866">
        <ele>928.6</ele>
        <time>2021-07-29T08:39:41Z</time>
      </trkpt>
      <trkpt lat="47.12299" lon="6.65859">
        <ele>928.6</ele>
        <time>2021-07-29T08:39:42Z</time>
      </trkpt>
      <trkpt lat="47.12298" lon="6.65853">
        <ele>928.8</ele>
        <time>2021-07-29T08:39:43Z</time>
      </trkpt>
      <trkpt lat="47.12296" lon="6.65846">
        <ele>929</ele>
        <time>2021-07-29T08:39:44Z</time>
      </trkpt>
      <trkpt lat="47.12294" lon="6.6584">
        <ele>928.8</ele>
        <time>2021-07-29T08:39:45Z</time>
      </trkpt>
      <trkpt lat="47.12292" lon="6.65833">
        <ele>928.4</ele>
        <time>2021-07-29T08:39:46Z</time>
      </trkpt>
      <trkpt lat="47.1229" lon="6.65827">
        <ele>928.4</ele>
        <time>2021-07-29T08:39:47Z</time>
      </trkpt>
      <trkpt lat="47.12288" lon="6.65821">
        <ele>928.2</ele>
        <time>2021-07-29T08:39:48Z</time>
      </trkpt>
      <trkpt lat="47.12286" lon="6.65814">
        <ele>928.2</ele>
        <time>2021-07-29T08:39:49Z</time>
      </trkpt>
      <trkpt lat="47.12285" lon="6.65808">
        <ele>928.2</ele>
        <time>2021-07-29T08:39:50Z</time>
      </trkpt>
      <trkpt lat="47.12283" lon="6.65802">
        <ele>928.4</ele>
        <time>2021-07-29T08:39:51Z</time>
      </trkpt>
      <trkpt lat="47.12281" lon="6.65795">
        <ele>928.2</ele>
        <time>2021-07-29T08:39:52Z</time>
      </trkpt>
      <trkpt lat="47.1228" lon="6.65789">
        <ele>928.2</ele>
        <time>2021-07-29T08:39:53Z</time>
      </trkpt>
      <trkpt lat="47.12278" lon="6.65784">
        <ele>928.2</ele>
        <time>2021-07-29T08:39:54Z</time>
      </trkpt>
      <trkpt lat="47.12276" lon="6.65778">
        <ele>928.4</ele>
        <time>2021-07-29T08:39:55Z</time>
      </trkpt>
      <trkpt lat="47.12275" lon="6.65772">
        <ele>928.4</ele>
        <time>2021-07-29T08:39:56Z</time>
      </trkpt>
      <trkpt lat="47.12274" lon="6.65766">
        <ele>928.4</ele>
        <time>2021-07-29T08:39:57Z</time>
      </trkpt>
      <trkpt lat="47.12272" lon="6.65761">
        <ele>928.4</ele>
        <time>2021-07-29T08:39:58Z</time>
      </trkpt>
      <trkpt lat="47.12271" lon="6.65755">
        <ele>928.6</ele>
        <time>2021-07-29T08:39:59Z</time>
      </trkpt>
      <trkpt lat="47.12269" lon="6.6575">
        <ele>928.6</ele>
        <time>2021-07-29T08:40:00Z</time>
      </trkpt>
      <trkpt lat="47.12268" lon="6.65744">
        <ele>928.6</ele>
        <time>2021-07-29T08:40:01Z</time>
      </trkpt>
      <trkpt lat="47.12267" lon="6.65739">
        <ele>928.6</ele>
        <time>2021-07-29T08:40:02Z</time>
      </trkpt>
      <trkpt lat="47.12265" lon="6.65734">
        <ele>928.8</ele>
        <time>2021-07-29T08:40:03Z</time>
      </trkpt>
      <trkpt lat="47.12264" lon="6.65728">
        <ele>928.8</ele>
        <time>2021-07-29T08:40:04Z</time>
      </trkpt>
      <trkpt lat="47.12263" lon="6.65723">
        <ele>928.8</ele>
        <time>2021-07-29T08:40:05Z</time>
      </trkpt>
      <trkpt lat="47.12262" lon="6.65717">
        <ele>928.8</ele>
        <time>2021-07-29T08:40:06Z</time>
      </trkpt>
      <trkpt lat="47.12261" lon="6.65711">
        <ele>928.8</ele>
        <time>2021-07-29T08:40:07Z</time>
      </trkpt>
      <trkpt lat="47.1226" lon="6.65706">
        <ele>929</ele>
        <time>2021-07-29T08:40:08Z</time>
      </trkpt>
      <trkpt lat="47.12258" lon="6.657">
        <ele>928.8</ele>
        <time>2021-07-29T08:40:09Z</time>
      </trkpt>
      <trkpt lat="47.12257" lon="6.65694">
        <ele>929</ele>
        <time>2021-07-29T08:40:10Z</time>
      </trkpt>
      <trkpt lat="47.12255" lon="6.65689">
        <ele>929</ele>
        <time>2021-07-29T08:40:11Z</time>
      </trkpt>
      <trkpt lat="47.12254" lon="6.65683">
        <ele>929</ele>
        <time>2021-07-29T08:40:12Z</time>
      </trkpt>
      <trkpt lat="47.12253" lon="6.65677">
        <ele>929</ele>
        <time>2021-07-29T08:40:13Z</time>
      </trkpt>
      <trkpt lat="47.12252" lon="6.65672">
        <ele>929</ele>
        <time>2021-07-29T08:40:14Z</time>
      </trkpt>
      <trkpt lat="47.12251" lon="6.65666">
        <ele>929</ele>
        <time>2021-07-29T08:40:15Z</time>
      </trkpt>
      <trkpt lat="47.12249" lon="6.6566">
        <ele>929</ele>
        <time>2021-07-29T08:40:16Z</time>
      </trkpt>
      <trkpt lat="47.12248" lon="6.65655">
        <ele>929</ele>
        <time>2021-07-29T08:40:17Z</time>
      </trkpt>
      <trkpt lat="47.12247" lon="6.65649">
        <ele>929.2</ele>
        <time>2021-07-29T08:40:18Z</time>
      </trkpt>
      <trkpt lat="47.12246" lon="6.65643">
        <ele>929.2</ele>
        <time>2021-07-29T08:40:19Z</time>
      </trkpt>
      <trkpt lat="47.12245" lon="6.65638">
        <ele>929.2</ele>
        <time>2021-07-29T08:40:20Z</time>
      </trkpt>
      <trkpt lat="47.12243" lon="6.65632">
        <ele>929.4</ele>
        <time>2021-07-29T08:40:21Z</time>
      </trkpt>
      <trkpt lat="47.12242" lon="6.65627">
        <ele>929.4</ele>
        <time>2021-07-29T08:40:22Z</time>
      </trkpt>
      <trkpt lat="47.12241" lon="6.65622">
        <ele>929.4</ele>
        <time>2021-07-29T08:40:23Z</time>
      </trkpt>
      <trkpt lat="47.1224" lon="6.65617">
        <ele>929.4</ele>
        <time>2021-07-29T08:40:24Z</time>
      </trkpt>
      <trkpt lat="47.12238" lon="6.65612">
        <ele>929.8</ele>
        <time>2021-07-29T08:40:25Z</time>
      </trkpt>
      <trkpt lat="47.12237" lon="6.65607">
        <ele>929.8</ele>
        <time>2021-07-29T08:40:26Z</time>
      </trkpt>
      <trkpt lat="47.12236" lon="6.65602">
        <ele>930</ele>
        <time>2021-07-29T08:40:27Z</time>
      </trkpt>
      <trkpt lat="47.12235" lon="6.65597">
        <ele>930</ele>
        <time>2021-07-29T08:40:28Z</time>
      </trkpt>
      <trkpt lat="47.12234" lon="6.65592">
        <ele>930.2</ele>
        <time>2021-07-29T08:40:29Z</time>
      </trkpt>
      <trkpt lat="47.12233" lon="6.65587">
        <ele>930.2</ele>
        <time>2021-07-29T08:40:30Z</time>
      </trkpt>
      <trkpt lat="47.12232" lon="6.65583">
        <ele>930.2</ele>
        <time>2021-07-29T08:40:31Z</time>
      </trkpt>
      <trkpt lat="47.12231" lon="6.65578">
        <ele>930.4</ele>
        <time>2021-07-29T08:40:32Z</time>
      </trkpt>
      <trkpt lat="47.1223" lon="6.65573">
        <ele>930.4</ele>
        <time>2021-07-29T08:40:33Z</time>
      </trkpt>
      <trkpt lat="47.12229" lon="6.65568">
        <ele>930.4</ele>
        <time>2021-07-29T08:40:34Z</time>
      </trkpt>
      <trkpt lat="47.12228" lon="6.65563">
        <ele>930.6</ele>
        <time>2021-07-29T08:40:35Z</time>
      </trkpt>
      <trkpt lat="47.12227" lon="6.65558">
        <ele>930.6</ele>
        <time>2021-07-29T08:40:36Z</time>
      </trkpt>
      <trkpt lat="47.12227" lon="6.65553">
        <ele>930.8</ele>
        <time>2021-07-29T08:40:37Z</time>
      </trkpt>
      <trkpt lat="47.12226" lon="6.65549">
        <ele>930.8</ele>
        <time>2021-07-29T08:40:38Z</time>
      </trkpt>
      <trkpt lat="47.12225" lon="6.65544">
        <ele>931</ele>
        <time>2021-07-29T08:40:39Z</time>
      </trkpt>
      <trkpt lat="47.12224" lon="6.6554">
        <ele>931</ele>
        <time>2021-07-29T08:40:40Z</time>
      </trkpt>
      <trkpt lat="47.12223" lon="6.65535">
        <ele>931.2</ele>
        <time>2021-07-29T08:40:41Z</time>
      </trkpt>
      <trkpt lat="47.12222" lon="6.6553">
        <ele>931.2</ele>
        <time>2021-07-29T08:40:42Z</time>
      </trkpt>
      <trkpt lat="47.12221" lon="6.65526">
        <ele>931.4</ele>
        <time>2021-07-29T08:40:43Z</time>
      </trkpt>
      <trkpt lat="47.12221" lon="6.65522">
        <ele>931.4</ele>
        <time>2021-07-29T08:40:44Z</time>
      </trkpt>
      <trkpt lat="47.1222" lon="6.65517">
        <ele>931.6</ele>
        <time>2021-07-29T08:40:45Z</time>
      </trkpt>
      <trkpt lat="47.12219" lon="6.65513">
        <ele>931.6</ele>
        <time>2021-07-29T08:40:46Z</time>
      </trkpt>
      <trkpt lat="47.12219" lon="6.65508">
        <ele>931.8</ele>
        <time>2021-07-29T08:40:47Z</time>
      </trkpt>
      <trkpt lat="47.12218" lon="6.65503">
        <ele>931.8</ele>
        <time>2021-07-29T08:40:48Z</time>
      </trkpt>
      <trkpt lat="47.12217" lon="6.65499">
        <ele>931.8</ele>
        <time>2021-07-29T08:40:49Z</time>
      </trkpt>
      <trkpt lat="47.12216" lon="6.65494">
        <ele>932</ele>
        <time>2021-07-29T08:40:50Z</time>
      </trkpt>
      <trkpt lat="47.12216" lon="6.65489">
        <ele>932</ele>
        <time>2021-07-29T08:40:51Z</time>
      </trkpt>
      <trkpt lat="47.12215" lon="6.65485">
        <ele>932.2</ele>
        <time>2021-07-29T08:40:52Z</time>
      </trkpt>
      <trkpt lat="47.12214" lon="6.6548">
        <ele>932.4</ele>
        <time>2021-07-29T08:40:53Z</time>
      </trkpt>
      <trkpt lat="47.12213" lon="6.65476">
        <ele>932.4</ele>
        <time>2021-07-29T08:40:54Z</time>
      </trkpt>
      <trkpt lat="47.12213" lon="6.65471">
        <ele>932.6</ele>
        <time>2021-07-29T08:40:55Z</time>
      </trkpt>
      <trkpt lat="47.12213" lon="6.65467">
        <ele>932.6</ele>
        <time>2021-07-29T08:40:56Z</time>
      </trkpt>
      <trkpt lat="47.12212" lon="6.65462">
        <ele>932.8</ele>
        <time>2021-07-29T08:40:57Z</time>
      </trkpt>
      <trkpt lat="47.12211" lon="6.65457">
        <ele>932.8</ele>
        <time>2021-07-29T08:40:58Z</time>
      </trkpt>
      <trkpt lat="47.12211" lon="6.65452">
        <ele>933</ele>
        <time>2021-07-29T08:40:59Z</time>
      </trkpt>
      <trkpt lat="47.12211" lon="6.65448">
        <ele>933.2</ele>
        <time>2021-07-29T08:41:00Z</time>
      </trkpt>
      <trkpt lat="47.1221" lon="6.65444">
        <ele>933.2</ele>
        <time>2021-07-29T08:41:01Z</time>
      </trkpt>
      <trkpt lat="47.1221" lon="6.65439">
        <ele>933.2</ele>
        <time>2021-07-29T08:41:02Z</time>
      </trkpt>
      <trkpt lat="47.12209" lon="6.65435">
        <ele>933.4</ele>
        <time>2021-07-29T08:41:03Z</time>
      </trkpt>
      <trkpt lat="47.12208" lon="6.65431">
        <ele>933.4</ele>
        <time>2021-07-29T08:41:04Z</time>
      </trkpt>
      <trkpt lat="47.12208" lon="6.65426">
        <ele>933.6</ele>
        <time>2021-07-29T08:41:05Z</time>
      </trkpt>
      <trkpt lat="47.12207" lon="6.65422">
        <ele>933.6</ele>
        <time>2021-07-29T08:41:06Z</time>
      </trkpt>
      <trkpt lat="47.12207" lon="6.65417">
        <ele>933.8</ele>
        <time>2021-07-29T08:41:07Z</time>
      </trkpt>
      <trkpt lat="47.12206" lon="6.65413">
        <ele>934</ele>
        <time>2021-07-29T08:41:08Z</time>
      </trkpt>
      <trkpt lat="47.12206" lon="6.65408">
        <ele>934</ele>
        <time>2021-07-29T08:41:09Z</time>
      </trkpt>
      <trkpt lat="47.12206" lon="6.65404">
        <ele>934</ele>
        <time>2021-07-29T08:41:10Z</time>
      </trkpt>
      <trkpt lat="47.12205" lon="6.654">
        <ele>934.2</ele>
        <time>2021-07-29T08:41:11Z</time>
      </trkpt>
      <trkpt lat="47.12205" lon="6.65396">
        <ele>934.4</ele>
        <time>2021-07-29T08:41:12Z</time>
      </trkpt>
      <trkpt lat="47.12205" lon="6.65392">
        <ele>934.6</ele>
        <time>2021-07-29T08:41:13Z</time>
      </trkpt>
      <trkpt lat="47.12204" lon="6.65388">
        <ele>934.6</ele>
        <time>2021-07-29T08:41:14Z</time>
      </trkpt>
      <trkpt lat="47.12203" lon="6.65384">
        <ele>934.8</ele>
        <time>2021-07-29T08:41:15Z</time>
      </trkpt>
      <trkpt lat="47.12203" lon="6.6538">
        <ele>934.8</ele>
        <time>2021-07-29T08:41:16Z</time>
      </trkpt>
      <trkpt lat="47.12203" lon="6.65375">
        <ele>935</ele>
        <time>2021-07-29T08:41:17Z</time>
      </trkpt>
      <trkpt lat="47.12202" lon="6.65371">
        <ele>935</ele>
        <time>2021-07-29T08:41:18Z</time>
      </trkpt>
      <trkpt lat="47.12202" lon="6.65368">
        <ele>935</ele>
        <time>2021-07-29T08:41:19Z</time>
      </trkpt>
      <trkpt lat="47.12202" lon="6.65364">
        <ele>935.2</ele>
        <time>2021-07-29T08:41:20Z</time>
      </trkpt>
      <trkpt lat="47.12202" lon="6.6536">
        <ele>935.2</ele>
        <time>2021-07-29T08:41:21Z</time>
      </trkpt>
      <trkpt lat="47.12201" lon="6.65356">
        <ele>935.4</ele>
        <time>2021-07-29T08:41:22Z</time>
      </trkpt>
      <trkpt lat="47.12201" lon="6.65352">
        <ele>935.4</ele>
        <time>2021-07-29T08:41:23Z</time>
      </trkpt>
      <trkpt lat="47.12202" lon="6.65348">
        <ele>935.6</ele>
        <time>2021-07-29T08:41:24Z</time>
      </trkpt>
      <trkpt lat="47.12201" lon="6.65343">
        <ele>935.6</ele>
        <time>2021-07-29T08:41:25Z</time>
      </trkpt>
      <trkpt lat="47.12201" lon="6.65339">
        <ele>935.6</ele>
        <time>2021-07-29T08:41:26Z</time>
      </trkpt>
      <trkpt lat="47.12201" lon="6.65336">
        <ele>935.8</ele>
        <time>2021-07-29T08:41:27Z</time>
      </trkpt>
      <trkpt lat="47.12202" lon="6.65332">
        <ele>936</ele>
        <time>2021-07-29T08:41:28Z</time>
      </trkpt>
      <trkpt lat="47.12202" lon="6.65328">
        <ele>936</ele>
        <time>2021-07-29T08:41:29Z</time>
      </trkpt>
      <trkpt lat="47.12202" lon="6.65324">
        <ele>936.2</ele>
        <time>2021-07-29T08:41:30Z</time>
      </trkpt>
      <trkpt lat="47.12202" lon="6.6532">
        <ele>936.2</ele>
        <time>2021-07-29T08:41:31Z</time>
      </trkpt>
      <trkpt lat="47.12202" lon="6.65315">
        <ele>936.2</ele>
        <time>2021-07-29T08:41:32Z</time>
      </trkpt>
      <trkpt lat="47.12202" lon="6.65311">
        <ele>936.2</ele>
        <time>2021-07-29T08:41:33Z</time>
      </trkpt>
      <trkpt lat="47.12202" lon="6.65306">
        <ele>936.4</ele>
        <time>2021-07-29T08:41:34Z</time>
      </trkpt>
      <trkpt lat="47.12202" lon="6.65301">
        <ele>936.4</ele>
        <time>2021-07-29T08:41:35Z</time>
      </trkpt>
      <trkpt lat="47.12202" lon="6.65297">
        <ele>936.4</ele>
        <time>2021-07-29T08:41:36Z</time>
      </trkpt>
      <trkpt lat="47.12202" lon="6.65292">
        <ele>936.4</ele>
        <time>2021-07-29T08:41:37Z</time>
      </trkpt>
      <trkpt lat="47.12201" lon="6.65288">
        <ele>936.6</ele>
        <time>2021-07-29T08:41:38Z</time>
      </trkpt>
      <trkpt lat="47.12201" lon="6.65283">
        <ele>936.6</ele>
        <time>2021-07-29T08:41:39Z</time>
      </trkpt>
      <trkpt lat="47.122" lon="6.65279">
        <ele>936.8</ele>
        <time>2021-07-29T08:41:40Z</time>
      </trkpt>
      <trkpt lat="47.122" lon="6.65274">
        <ele>936.8</ele>
        <time>2021-07-29T08:41:41Z</time>
      </trkpt>
      <trkpt lat="47.12199" lon="6.6527">
        <ele>936.8</ele>
        <time>2021-07-29T08:41:42Z</time>
      </trkpt>
      <trkpt lat="47.12198" lon="6.65265">
        <ele>937</ele>
        <time>2021-07-29T08:41:43Z</time>
      </trkpt>
      <trkpt lat="47.12197" lon="6.65261">
        <ele>937</ele>
        <time>2021-07-29T08:41:44Z</time>
      </trkpt>
      <trkpt lat="47.12196" lon="6.65257">
        <ele>937.2</ele>
        <time>2021-07-29T08:41:45Z</time>
      </trkpt>
      <trkpt lat="47.12195" lon="6.65254">
        <ele>937.4</ele>
        <time>2021-07-29T08:41:46Z</time>
      </trkpt>
      <trkpt lat="47.12194" lon="6.6525">
        <ele>937.6</ele>
        <time>2021-07-29T08:41:47Z</time>
      </trkpt>
      <trkpt lat="47.12192" lon="6.65247">
        <ele>937.8</ele>
        <time>2021-07-29T08:41:48Z</time>
      </trkpt>
      <trkpt lat="47.1219" lon="6.65243">
        <ele>938</ele>
        <time>2021-07-29T08:41:49Z</time>
      </trkpt>
      <trkpt lat="47.12189" lon="6.65241">
        <ele>938.2</ele>
        <time>2021-07-29T08:41:50Z</time>
      </trkpt>
      <trkpt lat="47.12188" lon="6.65237">
        <ele>938.4</ele>
        <time>2021-07-29T08:41:51Z</time>
      </trkpt>
      <trkpt lat="47.12187" lon="6.65235">
        <ele>938.6</ele>
        <time>2021-07-29T08:41:52Z</time>
      </trkpt>
      <trkpt lat="47.12186" lon="6.65232">
        <ele>938.8</ele>
        <time>2021-07-29T08:41:53Z</time>
      </trkpt>
      <trkpt lat="47.12184" lon="6.65229">
        <ele>938.8</ele>
        <time>2021-07-29T08:41:54Z</time>
      </trkpt>
      <trkpt lat="47.12183" lon="6.65227">
        <ele>939</ele>
        <time>2021-07-29T08:41:55Z</time>
      </trkpt>
      <trkpt lat="47.12182" lon="6.65224">
        <ele>939.2</ele>
        <time>2021-07-29T08:41:56Z</time>
      </trkpt>
      <trkpt lat="47.12181" lon="6.65221">
        <ele>939.4</ele>
        <time>2021-07-29T08:41:57Z</time>
      </trkpt>
      <trkpt lat="47.12181" lon="6.65219">
        <ele>939.4</ele>
        <time>2021-07-29T08:41:58Z</time>
      </trkpt>
      <trkpt lat="47.1218" lon="6.65216">
        <ele>939.6</ele>
        <time>2021-07-29T08:41:59Z</time>
      </trkpt>
      <trkpt lat="47.12179" lon="6.65214">
        <ele>939.8</ele>
        <time>2021-07-29T08:42:00Z</time>
      </trkpt>
      <trkpt lat="47.12179" lon="6.65212">
        <ele>940</ele>
        <time>2021-07-29T08:42:01Z</time>
      </trkpt>
      <trkpt lat="47.12178" lon="6.65209">
        <ele>940</ele>
        <time>2021-07-29T08:42:02Z</time>
      </trkpt>
      <trkpt lat="47.12177" lon="6.65207">
        <ele>940.2</ele>
        <time>2021-07-29T08:42:03Z</time>
      </trkpt>
      <trkpt lat="47.12176" lon="6.65205">
        <ele>940.4</ele>
        <time>2021-07-29T08:42:04Z</time>
      </trkpt>
      <trkpt lat="47.12175" lon="6.65202">
        <ele>940.6</ele>
        <time>2021-07-29T08:42:05Z</time>
      </trkpt>
      <trkpt lat="47.12174" lon="6.65199">
        <ele>940.6</ele>
        <time>2021-07-29T08:42:06Z</time>
      </trkpt>
      <trkpt lat="47.12173" lon="6.65196">
        <ele>940.8</ele>
        <time>2021-07-29T08:42:07Z</time>
      </trkpt>
      <trkpt lat="47.12172" lon="6.65194">
        <ele>941</ele>
        <time>2021-07-29T08:42:08Z</time>
      </trkpt>
      <trkpt lat="47.12172" lon="6.65192">
        <ele>941.2</ele>
        <time>2021-07-29T08:42:09Z</time>
      </trkpt>
      <trkpt lat="47.12171" lon="6.6519">
        <ele>941.4</ele>
        <time>2021-07-29T08:42:10Z</time>
      </trkpt>
      <trkpt lat="47.12171" lon="6.65186">
        <ele>941.6</ele>
        <time>2021-07-29T08:42:11Z</time>
      </trkpt>
      <trkpt lat="47.1217" lon="6.65183">
        <ele>941.8</ele>
        <time>2021-07-29T08:42:12Z</time>
      </trkpt>
      <trkpt lat="47.12169" lon="6.65181">
        <ele>942</ele>
        <time>2021-07-29T08:42:13Z</time>
      </trkpt>
      <trkpt lat="47.12169" lon="6.65178">
        <ele>942</ele>
        <time>2021-07-29T08:42:14Z</time>
      </trkpt>
      <trkpt lat="47.12168" lon="6.65176">
        <ele>942.2</ele>
        <time>2021-07-29T08:42:15Z</time>
      </trkpt>
      <trkpt lat="47.12168" lon="6.65174">
        <ele>942.4</ele>
        <time>2021-07-29T08:42:16Z</time>
      </trkpt>
      <trkpt lat="47.12167" lon="6.65172">
        <ele>942.4</ele>
        <time>2021-07-29T08:42:17Z</time>
      </trkpt>
      <trkpt lat="47.12166" lon="6.65169">
        <ele>942.6</ele>
        <time>2021-07-29T08:42:18Z</time>
      </trkpt>
      <trkpt lat="47.12166" lon="6.65167">
        <ele>942.8</ele>
        <time>2021-07-29T08:42:19Z</time>
      </trkpt>
      <trkpt lat="47.12164" lon="6.65164">
        <ele>942.8</ele>
        <time>2021-07-29T08:42:20Z</time>
      </trkpt>
      <trkpt lat="47.12164" lon="6.65162">
        <ele>943</ele>
        <time>2021-07-29T08:42:21Z</time>
      </trkpt>
      <trkpt lat="47.12163" lon="6.6516">
        <ele>943</ele>
        <time>2021-07-29T08:42:22Z</time>
      </trkpt>
      <trkpt lat="47.12163" lon="6.65158">
        <ele>943</ele>
        <time>2021-07-29T08:42:23Z</time>
      </trkpt>
      <trkpt lat="47.12162" lon="6.65156">
        <ele>943.2</ele>
        <time>2021-07-29T08:42:24Z</time>
      </trkpt>
      <trkpt lat="47.12161" lon="6.65153">
        <ele>943.2</ele>
        <time>2021-07-29T08:42:25Z</time>
      </trkpt>
      <trkpt lat="47.1216" lon="6.65151">
        <ele>943.2</ele>
        <time>2021-07-29T08:42:26Z</time>
      </trkpt>
      <trkpt lat="47.12159" lon="6.65149">
        <ele>943.4</ele>
        <time>2021-07-29T08:42:27Z</time>
      </trkpt>
      <trkpt lat="47.12158" lon="6.65147">
        <ele>943.6</ele>
        <time>2021-07-29T08:42:28Z</time>
      </trkpt>
      <trkpt lat="47.12157" lon="6.65145">
        <ele>943.6</ele>
        <time>2021-07-29T08:42:29Z</time>
      </trkpt>
      <trkpt lat="47.12156" lon="6.65142">
        <ele>943.6</ele>
        <time>2021-07-29T08:42:30Z</time>
      </trkpt>
      <trkpt lat="47.12155" lon="6.65139">
        <ele>943.8</ele>
        <time>2021-07-29T08:42:31Z</time>
      </trkpt>
      <trkpt lat="47.12154" lon="6.65137">
        <ele>943.8</ele>
        <time>2021-07-29T08:42:32Z</time>
      </trkpt>
      <trkpt lat="47.12153" lon="6.65135">
        <ele>944</ele>
        <time>2021-07-29T08:42:33Z</time>
      </trkpt>
      <trkpt lat="47.12151" lon="6.65132">
        <ele>944</ele>
        <time>2021-07-29T08:42:34Z</time>
      </trkpt>
      <trkpt lat="47.1215" lon="6.6513">
        <ele>944</ele>
        <time>2021-07-29T08:42:35Z</time>
      </trkpt>
      <trkpt lat="47.12149" lon="6.65128">
        <ele>944.2</ele>
        <time>2021-07-29T08:42:36Z</time>
      </trkpt>
      <trkpt lat="47.12148" lon="6.65126">
        <ele>944.2</ele>
        <time>2021-07-29T08:42:37Z</time>
      </trkpt>
      <trkpt lat="47.12147" lon="6.65123">
        <ele>944.2</ele>
        <time>2021-07-29T08:42:38Z</time>
      </trkpt>
      <trkpt lat="47.12146" lon="6.65121">
        <ele>944.4</ele>
        <time>2021-07-29T08:42:39Z</time>
      </trkpt>
      <trkpt lat="47.12145" lon="6.65119">
        <ele>944.4</ele>
        <time>2021-07-29T08:42:40Z</time>
      </trkpt>
      <trkpt lat="47.12144" lon="6.65116">
        <ele>944.4</ele>
        <time>2021-07-29T08:42:41Z</time>
      </trkpt>
      <trkpt lat="47.12143" lon="6.65114">
        <ele>944.4</ele>
        <time>2021-07-29T08:42:42Z</time>
      </trkpt>
      <trkpt lat="47.12142" lon="6.65112">
        <ele>944.4</ele>
        <time>2021-07-29T08:42:43Z</time>
      </trkpt>
      <trkpt lat="47.12141" lon="6.65109">
        <ele>944.6</ele>
        <time>2021-07-29T08:42:44Z</time>
      </trkpt>
      <trkpt lat="47.12139" lon="6.65107">
        <ele>944.6</ele>
        <time>2021-07-29T08:42:45Z</time>
      </trkpt>
      <trkpt lat="47.12138" lon="6.65104">
        <ele>944.6</ele>
        <time>2021-07-29T08:42:46Z</time>
      </trkpt>
      <trkpt lat="47.12136" lon="6.65101">
        <ele>944.6</ele>
        <time>2021-07-29T08:42:47Z</time>
      </trkpt>
      <trkpt lat="47.12135" lon="6.65098">
        <ele>944.6</ele>
        <time>2021-07-29T08:42:48Z</time>
      </trkpt>
      <trkpt lat="47.12133" lon="6.65096">
        <ele>944.6</ele>
        <time>2021-07-29T08:42:49Z</time>
      </trkpt>
      <trkpt lat="47.12131" lon="6.65093">
        <ele>944.6</ele>
        <time>2021-07-29T08:42:50Z</time>
      </trkpt>
      <trkpt lat="47.1213" lon="6.65091">
        <ele>944.6</ele>
        <time>2021-07-29T08:42:51Z</time>
      </trkpt>
      <trkpt lat="47.12128" lon="6.65087">
        <ele>944.6</ele>
        <time>2021-07-29T08:42:52Z</time>
      </trkpt>
      <trkpt lat="47.12127" lon="6.65085">
        <ele>944.6</ele>
        <time>2021-07-29T08:42:53Z</time>
      </trkpt>
      <trkpt lat="47.12125" lon="6.65081">
        <ele>944.6</ele>
        <time>2021-07-29T08:42:54Z</time>
      </trkpt>
      <trkpt lat="47.12123" lon="6.65077">
        <ele>944.6</ele>
        <time>2021-07-29T08:42:55Z</time>
      </trkpt>
      <trkpt lat="47.12121" lon="6.65073">
        <ele>944.4</ele>
        <time>2021-07-29T08:42:56Z</time>
      </trkpt>
      <trkpt lat="47.12118" lon="6.65069">
        <ele>944.4</ele>
        <time>2021-07-29T08:42:57Z</time>
      </trkpt>
      <trkpt lat="47.12116" lon="6.65063">
        <ele>944.2</ele>
        <time>2021-07-29T08:42:58Z</time>
      </trkpt>
      <trkpt lat="47.12113" lon="6.65058">
        <ele>944</ele>
        <time>2021-07-29T08:42:59Z</time>
      </trkpt>
      <trkpt lat="47.1211" lon="6.65053">
        <ele>943.8</ele>
        <time>2021-07-29T08:43:00Z</time>
      </trkpt>
      <trkpt lat="47.12107" lon="6.65047">
        <ele>943.8</ele>
        <time>2021-07-29T08:43:01Z</time>
      </trkpt>
      <trkpt lat="47.12104" lon="6.6504">
        <ele>943.6</ele>
        <time>2021-07-29T08:43:02Z</time>
      </trkpt>
      <trkpt lat="47.121" lon="6.65033">
        <ele>943.2</ele>
        <time>2021-07-29T08:43:03Z</time>
      </trkpt>
      <trkpt lat="47.12096" lon="6.65026">
        <ele>943</ele>
        <time>2021-07-29T08:43:04Z</time>
      </trkpt>
      <trkpt lat="47.12092" lon="6.65018">
        <ele>942.6</ele>
        <time>2021-07-29T08:43:05Z</time>
      </trkpt>
      <trkpt lat="47.12087" lon="6.65011">
        <ele>942.6</ele>
        <time>2021-07-29T08:43:06Z</time>
      </trkpt>
      <trkpt lat="47.12083" lon="6.65003">
        <ele>942.4</ele>
        <time>2021-07-29T08:43:07Z</time>
      </trkpt>
      <trkpt lat="47.12079" lon="6.64996">
        <ele>942.2</ele>
        <time>2021-07-29T08:43:08Z</time>
      </trkpt>
      <trkpt lat="47.12075" lon="6.64989">
        <ele>942.2</ele>
        <time>2021-07-29T08:43:09Z</time>
      </trkpt>
      <trkpt lat="47.12071" lon="6.64981">
        <ele>942</ele>
        <time>2021-07-29T08:43:10Z</time>
      </trkpt>
      <trkpt lat="47.12067" lon="6.64974">
        <ele>942</ele>
        <time>2021-07-29T08:43:11Z</time>
      </trkpt>
      <trkpt lat="47.12063" lon="6.64967">
        <ele>942</ele>
        <time>2021-07-29T08:43:12Z</time>
      </trkpt>
      <trkpt lat="47.12059" lon="6.64961">
        <ele>942</ele>
        <time>2021-07-29T08:43:13Z</time>
      </trkpt>
      <trkpt lat="47.12055" lon="6.64955">
        <ele>941.8</ele>
        <time>2021-07-29T08:43:14Z</time>
      </trkpt>
      <trkpt lat="47.12051" lon="6.64949">
        <ele>941.8</ele>
        <time>2021-07-29T08:43:15Z</time>
      </trkpt>
      <trkpt lat="47.12047" lon="6.64943">
        <ele>941.8</ele>
        <time>2021-07-29T08:43:16Z</time>
      </trkpt>
      <trkpt lat="47.12043" lon="6.64938">
        <ele>941.8</ele>
        <time>2021-07-29T08:43:17Z</time>
      </trkpt>
      <trkpt lat="47.12039" lon="6.64934">
        <ele>941.8</ele>
        <time>2021-07-29T08:43:18Z</time>
      </trkpt>
      <trkpt lat="47.12034" lon="6.6493">
        <ele>941.6</ele>
        <time>2021-07-29T08:43:19Z</time>
      </trkpt>
      <trkpt lat="47.12029" lon="6.64926">
        <ele>941.6</ele>
        <time>2021-07-29T08:43:20Z</time>
      </trkpt>
      <trkpt lat="47.12025" lon="6.64922">
        <ele>941.4</ele>
        <time>2021-07-29T08:43:21Z</time>
      </trkpt>
      <trkpt lat="47.1202" lon="6.64917">
        <ele>941.2</ele>
        <time>2021-07-29T08:43:22Z</time>
      </trkpt>
      <trkpt lat="47.12015" lon="6.64913">
        <ele>941</ele>
        <time>2021-07-29T08:43:23Z</time>
      </trkpt>
      <trkpt lat="47.1201" lon="6.64908">
        <ele>941</ele>
        <time>2021-07-29T08:43:24Z</time>
      </trkpt>
      <trkpt lat="47.12005" lon="6.64904">
        <ele>940.8</ele>
        <time>2021-07-29T08:43:25Z</time>
      </trkpt>
      <trkpt lat="47.12" lon="6.64899">
        <ele>940.6</ele>
        <time>2021-07-29T08:43:26Z</time>
      </trkpt>
      <trkpt lat="47.11995" lon="6.64894">
        <ele>940.6</ele>
        <time>2021-07-29T08:43:27Z</time>
      </trkpt>
      <trkpt lat="47.1199" lon="6.64889">
        <ele>940.2</ele>
        <time>2021-07-29T08:43:28Z</time>
      </trkpt>
      <trkpt lat="47.11985" lon="6.64884">
        <ele>940.2</ele>
        <time>2021-07-29T08:43:29Z</time>
      </trkpt>
      <trkpt lat="47.11979" lon="6.64878">
        <ele>939.8</ele>
        <time>2021-07-29T08:43:30Z</time>
      </trkpt>
      <trkpt lat="47.11974" lon="6.64873">
        <ele>939.4</ele>
        <time>2021-07-29T08:43:31Z</time>
      </trkpt>
      <trkpt lat="47.11968" lon="6.64868">
        <ele>939</ele>
        <time>2021-07-29T08:43:32Z</time>
      </trkpt>
      <trkpt lat="47.11962" lon="6.64864">
        <ele>938.8</ele>
        <time>2021-07-29T08:43:33Z</time>
      </trkpt>
      <trkpt lat="47.11955" lon="6.64859">
        <ele>938.6</ele>
        <time>2021-07-29T08:43:34Z</time>
      </trkpt>
      <trkpt lat="47.11949" lon="6.64856">
        <ele>938</ele>
        <time>2021-07-29T08:43:35Z</time>
      </trkpt>
      <trkpt lat="47.11942" lon="6.64853">
        <ele>937.8</ele>
        <time>2021-07-29T08:43:36Z</time>
      </trkpt>
      <trkpt lat="47.11935" lon="6.6485">
        <ele>937.2</ele>
        <time>2021-07-29T08:43:37Z</time>
      </trkpt>
      <trkpt lat="47.11929" lon="6.64848">
        <ele>936.8</ele>
        <time>2021-07-29T08:43:38Z</time>
      </trkpt>
      <trkpt lat="47.11922" lon="6.64845">
        <ele>936.4</ele>
        <time>2021-07-29T08:43:39Z</time>
      </trkpt>
      <trkpt lat="47.11915" lon="6.64842">
        <ele>936</ele>
        <time>2021-07-29T08:43:40Z</time>
      </trkpt>
      <trkpt lat="47.11908" lon="6.64839">
        <ele>935.8</ele>
        <time>2021-07-29T08:43:41Z</time>
      </trkpt>
      <trkpt lat="47.11901" lon="6.64835">
        <ele>935.4</ele>
        <time>2021-07-29T08:43:42Z</time>
      </trkpt>
      <trkpt lat="47.11895" lon="6.64831">
        <ele>935.2</ele>
        <time>2021-07-29T08:43:43Z</time>
      </trkpt>
      <trkpt lat="47.11889" lon="6.64826">
        <ele>934.8</ele>
        <time>2021-07-29T08:43:44Z</time>
      </trkpt>
      <trkpt lat="47.11882" lon="6.6482">
        <ele>934.2</ele>
        <time>2021-07-29T08:43:45Z</time>
      </trkpt>
      <trkpt lat="47.11876" lon="6.64814">
        <ele>933.8</ele>
        <time>2021-07-29T08:43:46Z</time>
      </trkpt>
      <trkpt lat="47.1187" lon="6.64807">
        <ele>933.2</ele>
        <time>2021-07-29T08:43:47Z</time>
      </trkpt>
      <trkpt lat="47.11864" lon="6.64801">
        <ele>933</ele>
        <time>2021-07-29T08:43:48Z</time>
      </trkpt>
      <trkpt lat="47.11858" lon="6.64794">
        <ele>932.8</ele>
        <time>2021-07-29T08:43:49Z</time>
      </trkpt>
      <trkpt lat="47.11851" lon="6.64787">
        <ele>932.2</ele>
        <time>2021-07-29T08:43:50Z</time>
      </trkpt>
      <trkpt lat="47.11845" lon="6.64781">
        <ele>931.8</ele>
        <time>2021-07-29T08:43:51Z</time>
      </trkpt>
      <trkpt lat="47.11838" lon="6.64774">
        <ele>931.4</ele>
        <time>2021-07-29T08:43:52Z</time>
      </trkpt>
      <trkpt lat="47.11831" lon="6.64769">
        <ele>931.2</ele>
        <time>2021-07-29T08:43:53Z</time>
      </trkpt>
      <trkpt lat="47.11823" lon="6.64764">
        <ele>931.2</ele>
        <time>2021-07-29T08:43:54Z</time>
      </trkpt>
      <trkpt lat="47.11816" lon="6.64759">
        <ele>930.8</ele>
        <time>2021-07-29T08:43:55Z</time>
      </trkpt>
      <trkpt lat="47.11808" lon="6.64756">
        <ele>930.6</ele>
        <time>2021-07-29T08:43:56Z</time>
      </trkpt>
      <trkpt lat="47.11801" lon="6.64753">
        <ele>930.2</ele>
        <time>2021-07-29T08:43:57Z</time>
      </trkpt>
      <trkpt lat="47.11793" lon="6.64752">
        <ele>930</ele>
        <time>2021-07-29T08:43:58Z</time>
      </trkpt>
      <trkpt lat="47.11786" lon="6.64751">
        <ele>929.8</ele>
        <time>2021-07-29T08:43:59Z</time>
      </trkpt>
      <trkpt lat="47.11779" lon="6.64751">
        <ele>929.6</ele>
        <time>2021-07-29T08:44:00Z</time>
      </trkpt>
      <trkpt lat="47.11772" lon="6.6475">
        <ele>929.4</ele>
        <time>2021-07-29T08:44:01Z</time>
      </trkpt>
      <trkpt lat="47.11765" lon="6.64749">
        <ele>929</ele>
        <time>2021-07-29T08:44:02Z</time>
      </trkpt>
      <trkpt lat="47.11758" lon="6.64748">
        <ele>928.6</ele>
        <time>2021-07-29T08:44:03Z</time>
      </trkpt>
      <trkpt lat="47.11751" lon="6.64746">
        <ele>928</ele>
        <time>2021-07-29T08:44:04Z</time>
      </trkpt>
      <trkpt lat="47.11744" lon="6.64744">
        <ele>927.6</ele>
        <time>2021-07-29T08:44:05Z</time>
      </trkpt>
      <trkpt lat="47.11737" lon="6.64742">
        <ele>927.6</ele>
        <time>2021-07-29T08:44:06Z</time>
      </trkpt>
      <trkpt lat="47.1173" lon="6.64739">
        <ele>927.2</ele>
        <time>2021-07-29T08:44:07Z</time>
      </trkpt>
      <trkpt lat="47.11723" lon="6.64736">
        <ele>927.2</ele>
        <time>2021-07-29T08:44:08Z</time>
      </trkpt>
      <trkpt lat="47.11716" lon="6.64733">
        <ele>926.8</ele>
        <time>2021-07-29T08:44:09Z</time>
      </trkpt>
      <trkpt lat="47.11709" lon="6.6473">
        <ele>926.8</ele>
        <time>2021-07-29T08:44:10Z</time>
      </trkpt>
      <trkpt lat="47.11702" lon="6.64726">
        <ele>926.6</ele>
        <time>2021-07-29T08:44:11Z</time>
      </trkpt>
      <trkpt lat="47.11696" lon="6.64722">
        <ele>926.2</ele>
        <time>2021-07-29T08:44:12Z</time>
      </trkpt>
      <trkpt lat="47.11689" lon="6.64717">
        <ele>926.2</ele>
        <time>2021-07-29T08:44:13Z</time>
      </trkpt>
      <trkpt lat="47.11683" lon="6.64712">
        <ele>926.2</ele>
        <time>2021-07-29T08:44:14Z</time>
      </trkpt>
      <trkpt lat="47.11677" lon="6.64708">
        <ele>926.4</ele>
        <time>2021-07-29T08:44:15Z</time>
      </trkpt>
      <trkpt lat="47.11672" lon="6.64703">
        <ele>926.4</ele>
        <time>2021-07-29T08:44:16Z</time>
      </trkpt>
      <trkpt lat="47.11666" lon="6.64699">
        <ele>926.2</ele>
        <time>2021-07-29T08:44:17Z</time>
      </trkpt>
      <trkpt lat="47.11661" lon="6.64694">
        <ele>926.2</ele>
        <time>2021-07-29T08:44:18Z</time>
      </trkpt>
      <trkpt lat="47.11656" lon="6.6469">
        <ele>926.4</ele>
        <time>2021-07-29T08:44:19Z</time>
      </trkpt>
      <trkpt lat="47.11651" lon="6.64685">
        <ele>926.6</ele>
        <time>2021-07-29T08:44:20Z</time>
      </trkpt>
      <trkpt lat="47.11646" lon="6.64681">
        <ele>926.4</ele>
        <time>2021-07-29T08:44:21Z</time>
      </trkpt>
      <trkpt lat="47.11641" lon="6.64676">
        <ele>926.4</ele>
        <time>2021-07-29T08:44:22Z</time>
      </trkpt>
      <trkpt lat="47.11637" lon="6.64672">
        <ele>926.4</ele>
        <time>2021-07-29T08:44:23Z</time>
      </trkpt>
      <trkpt lat="47.11633" lon="6.64668">
        <ele>926.6</ele>
        <time>2021-07-29T08:44:24Z</time>
      </trkpt>
      <trkpt lat="47.11628" lon="6.64664">
        <ele>926.6</ele>
        <time>2021-07-29T08:44:25Z</time>
      </trkpt>
      <trkpt lat="47.11624" lon="6.6466">
        <ele>926.4</ele>
        <time>2021-07-29T08:44:26Z</time>
      </trkpt>
      <trkpt lat="47.1162" lon="6.64656">
        <ele>926.2</ele>
        <time>2021-07-29T08:44:27Z</time>
      </trkpt>
      <trkpt lat="47.11617" lon="6.64653">
        <ele>926.2</ele>
        <time>2021-07-29T08:44:28Z</time>
      </trkpt>
      <trkpt lat="47.11613" lon="6.64649">
        <ele>926.4</ele>
        <time>2021-07-29T08:44:29Z</time>
      </trkpt>
      <trkpt lat="47.11609" lon="6.64646">
        <ele>926.4</ele>
        <time>2021-07-29T08:44:30Z</time>
      </trkpt>
      <trkpt lat="47.11605" lon="6.64643">
        <ele>926.4</ele>
        <time>2021-07-29T08:44:31Z</time>
      </trkpt>
      <trkpt lat="47.11601" lon="6.64639">
        <ele>926.4</ele>
        <time>2021-07-29T08:44:32Z</time>
      </trkpt>
      <trkpt lat="47.11597" lon="6.64636">
        <ele>926.6</ele>
        <time>2021-07-29T08:44:33Z</time>
      </trkpt>
      <trkpt lat="47.11593" lon="6.64633">
        <ele>926.4</ele>
        <time>2021-07-29T08:44:34Z</time>
      </trkpt>
      <trkpt lat="47.11589" lon="6.64629">
        <ele>926.2</ele>
        <time>2021-07-29T08:44:35Z</time>
      </trkpt>
      <trkpt lat="47.11585" lon="6.64626">
        <ele>926</ele>
        <time>2021-07-29T08:44:36Z</time>
      </trkpt>
      <trkpt lat="47.11581" lon="6.64623">
        <ele>926.2</ele>
        <time>2021-07-29T08:44:37Z</time>
      </trkpt>
      <trkpt lat="47.11577" lon="6.64619">
        <ele>926</ele>
        <time>2021-07-29T08:44:38Z</time>
      </trkpt>
      <trkpt lat="47.11573" lon="6.64616">
        <ele>926.2</ele>
        <time>2021-07-29T08:44:39Z</time>
      </trkpt>
      <trkpt lat="47.11569" lon="6.64612">
        <ele>926.4</ele>
        <time>2021-07-29T08:44:40Z</time>
      </trkpt>
      <trkpt lat="47.11565" lon="6.64609">
        <ele>926.6</ele>
        <time>2021-07-29T08:44:41Z</time>
      </trkpt>
      <trkpt lat="47.11562" lon="6.64605">
        <ele>926.4</ele>
        <time>2021-07-29T08:44:42Z</time>
      </trkpt>
      <trkpt lat="47.11559" lon="6.64601">
        <ele>926.4</ele>
        <time>2021-07-29T08:44:43Z</time>
      </trkpt>
      <trkpt lat="47.11555" lon="6.64596">
        <ele>926.4</ele>
        <time>2021-07-29T08:44:44Z</time>
      </trkpt>
      <trkpt lat="47.11552" lon="6.64592">
        <ele>926.4</ele>
        <time>2021-07-29T08:44:45Z</time>
      </trkpt>
      <trkpt lat="47.1155" lon="6.64587">
        <ele>926.6</ele>
        <time>2021-07-29T08:44:46Z</time>
      </trkpt>
      <trkpt lat="47.11548" lon="6.64581">
        <ele>926.8</ele>
        <time>2021-07-29T08:44:47Z</time>
      </trkpt>
      <trkpt lat="47.11546" lon="6.64576">
        <ele>927</ele>
        <time>2021-07-29T08:44:48Z</time>
      </trkpt>
      <trkpt lat="47.11545" lon="6.64571">
        <ele>927</ele>
        <time>2021-07-29T08:44:49Z</time>
      </trkpt>
      <trkpt lat="47.11543" lon="6.64566">
        <ele>926.8</ele>
        <time>2021-07-29T08:44:50Z</time>
      </trkpt>
      <trkpt lat="47.11542" lon="6.64561">
        <ele>927</ele>
        <time>2021-07-29T08:44:51Z</time>
      </trkpt>
      <trkpt lat="47.11541" lon="6.64556">
        <ele>927</ele>
        <time>2021-07-29T08:44:52Z</time>
      </trkpt>
      <trkpt lat="47.1154" lon="6.64551">
        <ele>927</ele>
        <time>2021-07-29T08:44:53Z</time>
      </trkpt>
      <trkpt lat="47.1154" lon="6.64545">
        <ele>927</ele>
        <time>2021-07-29T08:44:54Z</time>
      </trkpt>
      <trkpt lat="47.11539" lon="6.6454">
        <ele>926.8</ele>
        <time>2021-07-29T08:44:55Z</time>
      </trkpt>
      <trkpt lat="47.11538" lon="6.64535">
        <ele>926.8</ele>
        <time>2021-07-29T08:44:56Z</time>
      </trkpt>
      <trkpt lat="47.11538" lon="6.64529">
        <ele>927</ele>
        <time>2021-07-29T08:44:57Z</time>
      </trkpt>
      <trkpt lat="47.11538" lon="6.64524">
        <ele>927</ele>
        <time>2021-07-29T08:44:58Z</time>
      </trkpt>
      <trkpt lat="47.11537" lon="6.64518">
        <ele>926.8</ele>
        <time>2021-07-29T08:44:59Z</time>
      </trkpt>
      <trkpt lat="47.11537" lon="6.64513">
        <ele>927.2</ele>
        <time>2021-07-29T08:45:00Z</time>
      </trkpt>
      <trkpt lat="47.11536" lon="6.64508">
        <ele>927</ele>
        <time>2021-07-29T08:45:01Z</time>
      </trkpt>
      <trkpt lat="47.11535" lon="6.64502">
        <ele>927</ele>
        <time>2021-07-29T08:45:02Z</time>
      </trkpt>
      <trkpt lat="47.11535" lon="6.64497">
        <ele>927</ele>
        <time>2021-07-29T08:45:03Z</time>
      </trkpt>
      <trkpt lat="47.11534" lon="6.64492">
        <ele>927.2</ele>
        <time>2021-07-29T08:45:04Z</time>
      </trkpt>
      <trkpt lat="47.11533" lon="6.64487">
        <ele>927.4</ele>
        <time>2021-07-29T08:45:05Z</time>
      </trkpt>
      <trkpt lat="47.11533" lon="6.64482">
        <ele>927.4</ele>
        <time>2021-07-29T08:45:06Z</time>
      </trkpt>
      <trkpt lat="47.11532" lon="6.64477">
        <ele>927.6</ele>
        <time>2021-07-29T08:45:07Z</time>
      </trkpt>
      <trkpt lat="47.11531" lon="6.64472">
        <ele>927.6</ele>
        <time>2021-07-29T08:45:08Z</time>
      </trkpt>
      <trkpt lat="47.11531" lon="6.64467">
        <ele>927.8</ele>
        <time>2021-07-29T08:45:09Z</time>
      </trkpt>
      <trkpt lat="47.11531" lon="6.64463">
        <ele>928</ele>
        <time>2021-07-29T08:45:10Z</time>
      </trkpt>
      <trkpt lat="47.1153" lon="6.64458">
        <ele>928.2</ele>
        <time>2021-07-29T08:45:11Z</time>
      </trkpt>
      <trkpt lat="47.1153" lon="6.64454">
        <ele>928.2</ele>
        <time>2021-07-29T08:45:12Z</time>
      </trkpt>
      <trkpt lat="47.11529" lon="6.6445">
        <ele>928.2</ele>
        <time>2021-07-29T08:45:13Z</time>
      </trkpt>
      <trkpt lat="47.11529" lon="6.64446">
        <ele>928.4</ele>
        <time>2021-07-29T08:45:14Z</time>
      </trkpt>
      <trkpt lat="47.11529" lon="6.64442">
        <ele>928.6</ele>
        <time>2021-07-29T08:45:15Z</time>
      </trkpt>
      <trkpt lat="47.11529" lon="6.64438">
        <ele>928.8</ele>
        <time>2021-07-29T08:45:16Z</time>
      </trkpt>
      <trkpt lat="47.11528" lon="6.64435">
        <ele>929</ele>
        <time>2021-07-29T08:45:17Z</time>
      </trkpt>
      <trkpt lat="47.11528" lon="6.64431">
        <ele>929.2</ele>
        <time>2021-07-29T08:45:18Z</time>
      </trkpt>
      <trkpt lat="47.11527" lon="6.64428">
        <ele>929.4</ele>
        <time>2021-07-29T08:45:19Z</time>
      </trkpt>
      <trkpt lat="47.11527" lon="6.64424">
        <ele>929.4</ele>
        <time>2021-07-29T08:45:20Z</time>
      </trkpt>
      <trkpt lat="47.11527" lon="6.6442">
        <ele>929.6</ele>
        <time>2021-07-29T08:45:21Z</time>
      </trkpt>
      <trkpt lat="47.11527" lon="6.64417">
        <ele>929.6</ele>
        <time>2021-07-29T08:45:22Z</time>
      </trkpt>
      <trkpt lat="47.11527" lon="6.64414">
        <ele>929.6</ele>
        <time>2021-07-29T08:45:23Z</time>
      </trkpt>
      <trkpt lat="47.11526" lon="6.6441">
        <ele>929.8</ele>
        <time>2021-07-29T08:45:24Z</time>
      </trkpt>
      <trkpt lat="47.11526" lon="6.64407">
        <ele>930</ele>
        <time>2021-07-29T08:45:25Z</time>
      </trkpt>
      <trkpt lat="47.11525" lon="6.64403">
        <ele>930</ele>
        <time>2021-07-29T08:45:26Z</time>
      </trkpt>
      <trkpt lat="47.11525" lon="6.64399">
        <ele>930.2</ele>
        <time>2021-07-29T08:45:27Z</time>
      </trkpt>
      <trkpt lat="47.11524" lon="6.64396">
        <ele>930.2</ele>
        <time>2021-07-29T08:45:28Z</time>
      </trkpt>
      <trkpt lat="47.11523" lon="6.64392">
        <ele>930.4</ele>
        <time>2021-07-29T08:45:29Z</time>
      </trkpt>
      <trkpt lat="47.11522" lon="6.64389">
        <ele>930.6</ele>
        <time>2021-07-29T08:45:30Z</time>
      </trkpt>
      <trkpt lat="47.11522" lon="6.64385">
        <ele>930.6</ele>
        <time>2021-07-29T08:45:31Z</time>
      </trkpt>
      <trkpt lat="47.11521" lon="6.64382">
        <ele>930.8</ele>
        <time>2021-07-29T08:45:32Z</time>
      </trkpt>
      <trkpt lat="47.11519" lon="6.64378">
        <ele>931</ele>
        <time>2021-07-29T08:45:33Z</time>
      </trkpt>
      <trkpt lat="47.11518" lon="6.64375">
        <ele>931</ele>
        <time>2021-07-29T08:45:34Z</time>
      </trkpt>
      <trkpt lat="47.11516" lon="6.64372">
        <ele>931.2</ele>
        <time>2021-07-29T08:45:35Z</time>
      </trkpt>
      <trkpt lat="47.11516" lon="6.64369">
        <ele>931.4</ele>
        <time>2021-07-29T08:45:36Z</time>
      </trkpt>
      <trkpt lat="47.11515" lon="6.64366">
        <ele>931.4</ele>
        <time>2021-07-29T08:45:37Z</time>
      </trkpt>
      <trkpt lat="47.11513" lon="6.64363">
        <ele>931.6</ele>
        <time>2021-07-29T08:45:38Z</time>
      </trkpt>
      <trkpt lat="47.11512" lon="6.6436">
        <ele>931.6</ele>
        <time>2021-07-29T08:45:39Z</time>
      </trkpt>
      <trkpt lat="47.1151" lon="6.64358">
        <ele>931.6</ele>
        <time>2021-07-29T08:45:40Z</time>
      </trkpt>
      <trkpt lat="47.11509" lon="6.64355">
        <ele>931.6</ele>
        <time>2021-07-29T08:45:41Z</time>
      </trkpt>
      <trkpt lat="47.11507" lon="6.64351">
        <ele>931.6</ele>
        <time>2021-07-29T08:45:42Z</time>
      </trkpt>
      <trkpt lat="47.11505" lon="6.64348">
        <ele>931.4</ele>
        <time>2021-07-29T08:45:43Z</time>
      </trkpt>
      <trkpt lat="47.11504" lon="6.64345">
        <ele>931.4</ele>
        <time>2021-07-29T08:45:44Z</time>
      </trkpt>
      <trkpt lat="47.11502" lon="6.64341">
        <ele>931.2</ele>
        <time>2021-07-29T08:45:45Z</time>
      </trkpt>
      <trkpt lat="47.11499" lon="6.64338">
        <ele>931.2</ele>
        <time>2021-07-29T08:45:46Z</time>
      </trkpt>
      <trkpt lat="47.11497" lon="6.64334">
        <ele>931.2</ele>
        <time>2021-07-29T08:45:47Z</time>
      </trkpt>
      <trkpt lat="47.11495" lon="6.64331">
        <ele>931.2</ele>
        <time>2021-07-29T08:45:48Z</time>
      </trkpt>
      <trkpt lat="47.11493" lon="6.64327">
        <ele>931.2</ele>
        <time>2021-07-29T08:45:49Z</time>
      </trkpt>
      <trkpt lat="47.1149" lon="6.64323">
        <ele>931</ele>
        <time>2021-07-29T08:45:50Z</time>
      </trkpt>
      <trkpt lat="47.11488" lon="6.64319">
        <ele>931.2</ele>
        <time>2021-07-29T08:45:51Z</time>
      </trkpt>
      <trkpt lat="47.11486" lon="6.64315">
        <ele>931</ele>
        <time>2021-07-29T08:45:52Z</time>
      </trkpt>
      <trkpt lat="47.11483" lon="6.64311">
        <ele>931</ele>
        <time>2021-07-29T08:45:53Z</time>
      </trkpt>
      <trkpt lat="47.11481" lon="6.64307">
        <ele>931</ele>
        <time>2021-07-29T08:45:54Z</time>
      </trkpt>
      <trkpt lat="47.11479" lon="6.64303">
        <ele>931.2</ele>
        <time>2021-07-29T08:45:55Z</time>
      </trkpt>
      <trkpt lat="47.11477" lon="6.64299">
        <ele>931.2</ele>
        <time>2021-07-29T08:45:56Z</time>
      </trkpt>
      <trkpt lat="47.11474" lon="6.64295">
        <ele>931.2</ele>
        <time>2021-07-29T08:45:57Z</time>
      </trkpt>
      <trkpt lat="47.11472" lon="6.64291">
        <ele>931.2</ele>
        <time>2021-07-29T08:45:58Z</time>
      </trkpt>
      <trkpt lat="47.1147" lon="6.64287">
        <ele>931.2</ele>
        <time>2021-07-29T08:45:59Z</time>
      </trkpt>
      <trkpt lat="47.11468" lon="6.64283">
        <ele>931.4</ele>
        <time>2021-07-29T08:46:00Z</time>
      </trkpt>
      <trkpt lat="47.11465" lon="6.64279">
        <ele>931.4</ele>
        <time>2021-07-29T08:46:01Z</time>
      </trkpt>
      <trkpt lat="47.11463" lon="6.64275">
        <ele>931.4</ele>
        <time>2021-07-29T08:46:02Z</time>
      </trkpt>
      <trkpt lat="47.11461" lon="6.64271">
        <ele>931.4</ele>
        <time>2021-07-29T08:46:03Z</time>
      </trkpt>
      <trkpt lat="47.11459" lon="6.64267">
        <ele>931.4</ele>
        <time>2021-07-29T08:46:04Z</time>
      </trkpt>
      <trkpt lat="47.11457" lon="6.64263">
        <ele>931.2</ele>
        <time>2021-07-29T08:46:05Z</time>
      </trkpt>
      <trkpt lat="47.11455" lon="6.64259">
        <ele>931.4</ele>
        <time>2021-07-29T08:46:06Z</time>
      </trkpt>
      <trkpt lat="47.11453" lon="6.64255">
        <ele>931.4</ele>
        <time>2021-07-29T08:46:07Z</time>
      </trkpt>
      <trkpt lat="47.11451" lon="6.64251">
        <ele>931.4</ele>
        <time>2021-07-29T08:46:08Z</time>
      </trkpt>
      <trkpt lat="47.11448" lon="6.64248">
        <ele>931.6</ele>
        <time>2021-07-29T08:46:09Z</time>
      </trkpt>
      <trkpt lat="47.11447" lon="6.64244">
        <ele>931.6</ele>
        <time>2021-07-29T08:46:10Z</time>
      </trkpt>
      <trkpt lat="47.11445" lon="6.6424">
        <ele>931.6</ele>
        <time>2021-07-29T08:46:11Z</time>
      </trkpt>
      <trkpt lat="47.11443" lon="6.64236">
        <ele>931.6</ele>
        <time>2021-07-29T08:46:12Z</time>
      </trkpt>
      <trkpt lat="47.11441" lon="6.64232">
        <ele>931.6</ele>
        <time>2021-07-29T08:46:13Z</time>
      </trkpt>
      <trkpt lat="47.11439" lon="6.64229">
        <ele>931.6</ele>
        <time>2021-07-29T08:46:14Z</time>
      </trkpt>
      <trkpt lat="47.11437" lon="6.64226">
        <ele>931.6</ele>
        <time>2021-07-29T08:46:15Z</time>
      </trkpt>
      <trkpt lat="47.11435" lon="6.64222">
        <ele>931.6</ele>
        <time>2021-07-29T08:46:16Z</time>
      </trkpt>
      <trkpt lat="47.11434" lon="6.64219">
        <ele>931.8</ele>
        <time>2021-07-29T08:46:17Z</time>
      </trkpt>
      <trkpt lat="47.11432" lon="6.64216">
        <ele>931.8</ele>
        <time>2021-07-29T08:46:18Z</time>
      </trkpt>
      <trkpt lat="47.1143" lon="6.64213">
        <ele>931.8</ele>
        <time>2021-07-29T08:46:19Z</time>
      </trkpt>
      <trkpt lat="47.11428" lon="6.64209">
        <ele>931.8</ele>
        <time>2021-07-29T08:46:20Z</time>
      </trkpt>
      <trkpt lat="47.11427" lon="6.64206">
        <ele>932</ele>
        <time>2021-07-29T08:46:21Z</time>
      </trkpt>
      <trkpt lat="47.11425" lon="6.64203">
        <ele>932</ele>
        <time>2021-07-29T08:46:22Z</time>
      </trkpt>
      <trkpt lat="47.11423" lon="6.64201">
        <ele>932.2</ele>
        <time>2021-07-29T08:46:23Z</time>
      </trkpt>
      <trkpt lat="47.11421" lon="6.64198">
        <ele>932.2</ele>
        <time>2021-07-29T08:46:24Z</time>
      </trkpt>
      <trkpt lat="47.11419" lon="6.64195">
        <ele>932.2</ele>
        <time>2021-07-29T08:46:25Z</time>
      </trkpt>
      <trkpt lat="47.11417" lon="6.64192">
        <ele>932.2</ele>
        <time>2021-07-29T08:46:26Z</time>
      </trkpt>
      <trkpt lat="47.11415" lon="6.6419">
        <ele>932.2</ele>
        <time>2021-07-29T08:46:27Z</time>
      </trkpt>
      <trkpt lat="47.11413" lon="6.64187">
        <ele>932.2</ele>
        <time>2021-07-29T08:46:28Z</time>
      </trkpt>
      <trkpt lat="47.11411" lon="6.64184">
        <ele>932.2</ele>
        <time>2021-07-29T08:46:29Z</time>
      </trkpt>
      <trkpt lat="47.11409" lon="6.6418">
        <ele>932</ele>
        <time>2021-07-29T08:46:30Z</time>
      </trkpt>
      <trkpt lat="47.11409" lon="6.64175">
        <ele>932</ele>
        <time>2021-07-29T08:46:31Z</time>
      </trkpt>
      <trkpt lat="47.11409" lon="6.6417">
        <ele>932</ele>
        <time>2021-07-29T08:46:32Z</time>
      </trkpt>
      <trkpt lat="47.1141" lon="6.64166">
        <ele>932.2</ele>
        <time>2021-07-29T08:46:33Z</time>
      </trkpt>
      <trkpt lat="47.11412" lon="6.64163">
        <ele>932.4</ele>
        <time>2021-07-29T08:46:34Z</time>
      </trkpt>
      <trkpt lat="47.11414" lon="6.64161">
        <ele>932.4</ele>
        <time>2021-07-29T08:46:35Z</time>
      </trkpt>
      <trkpt lat="47.11417" lon="6.64158">
        <ele>932.6</ele>
        <time>2021-07-29T08:46:36Z</time>
      </trkpt>
      <trkpt lat="47.11419" lon="6.64155">
        <ele>932.6</ele>
        <time>2021-07-29T08:46:37Z</time>
      </trkpt>
      <trkpt lat="47.11421" lon="6.64152">
        <ele>932.6</ele>
        <time>2021-07-29T08:46:38Z</time>
      </trkpt>
      <trkpt lat="47.11422" lon="6.64149">
        <ele>932.8</ele>
        <time>2021-07-29T08:46:39Z</time>
      </trkpt>
      <trkpt lat="47.11424" lon="6.64146">
        <ele>932.8</ele>
        <time>2021-07-29T08:46:40Z</time>
      </trkpt>
      <trkpt lat="47.11426" lon="6.64143">
        <ele>933</ele>
        <time>2021-07-29T08:46:41Z</time>
      </trkpt>
      <trkpt lat="47.11427" lon="6.64139">
        <ele>933.2</ele>
        <time>2021-07-29T08:46:42Z</time>
      </trkpt>
      <trkpt lat="47.11429" lon="6.64136">
        <ele>932.8</ele>
        <time>2021-07-29T08:46:43Z</time>
      </trkpt>
      <trkpt lat="47.1143" lon="6.64132">
        <ele>932.8</ele>
        <time>2021-07-29T08:46:44Z</time>
      </trkpt>
      <trkpt lat="47.11431" lon="6.64128">
        <ele>932.8</ele>
        <time>2021-07-29T08:46:45Z</time>
      </trkpt>
      <trkpt lat="47.11432" lon="6.64124">
        <ele>933</ele>
        <time>2021-07-29T08:46:46Z</time>
      </trkpt>
      <trkpt lat="47.11433" lon="6.6412">
        <ele>933</ele>
        <time>2021-07-29T08:46:47Z</time>
      </trkpt>
      <trkpt lat="47.11434" lon="6.64116">
        <ele>933.2</ele>
        <time>2021-07-29T08:46:48Z</time>
      </trkpt>
      <trkpt lat="47.11435" lon="6.64112">
        <ele>933.2</ele>
        <time>2021-07-29T08:46:49Z</time>
      </trkpt>
      <trkpt lat="47.11436" lon="6.64108">
        <ele>933.2</ele>
        <time>2021-07-29T08:46:50Z</time>
      </trkpt>
      <trkpt lat="47.11437" lon="6.64104">
        <ele>933.2</ele>
        <time>2021-07-29T08:46:51Z</time>
      </trkpt>
      <trkpt lat="47.11438" lon="6.64101">
        <ele>933.4</ele>
        <time>2021-07-29T08:46:52Z</time>
      </trkpt>
      <trkpt lat="47.11439" lon="6.64097">
        <ele>933.4</ele>
        <time>2021-07-29T08:46:53Z</time>
      </trkpt>
      <trkpt lat="47.1144" lon="6.64093">
        <ele>933.4</ele>
        <time>2021-07-29T08:46:54Z</time>
      </trkpt>
      <trkpt lat="47.11441" lon="6.6409">
        <ele>933.4</ele>
        <time>2021-07-29T08:46:55Z</time>
      </trkpt>
      <trkpt lat="47.11442" lon="6.64086">
        <ele>933.8</ele>
        <time>2021-07-29T08:46:56Z</time>
      </trkpt>
      <trkpt lat="47.11444" lon="6.64083">
        <ele>934</ele>
        <time>2021-07-29T08:46:57Z</time>
      </trkpt>
      <trkpt lat="47.11445" lon="6.6408">
        <ele>933.8</ele>
        <time>2021-07-29T08:46:58Z</time>
      </trkpt>
      <trkpt lat="47.11446" lon="6.64076">
        <ele>933.8</ele>
        <time>2021-07-29T08:46:59Z</time>
      </trkpt>
      <trkpt lat="47.11447" lon="6.64073">
        <ele>934</ele>
        <time>2021-07-29T08:47:00Z</time>
      </trkpt>
      <trkpt lat="47.11449" lon="6.6407">
        <ele>934</ele>
        <time>2021-07-29T08:47:01Z</time>
      </trkpt>
      <trkpt lat="47.11451" lon="6.64067">
        <ele>934</ele>
        <time>2021-07-29T08:47:02Z</time>
      </trkpt>
      <trkpt lat="47.11452" lon="6.64064">
        <ele>934</ele>
        <time>2021-07-29T08:47:03Z</time>
      </trkpt>
      <trkpt lat="47.11454" lon="6.6406">
        <ele>934</ele>
        <time>2021-07-29T08:47:04Z</time>
      </trkpt>
      <trkpt lat="47.11456" lon="6.64057">
        <ele>934.2</ele>
        <time>2021-07-29T08:47:05Z</time>
      </trkpt>
      <trkpt lat="47.11458" lon="6.64054">
        <ele>934.2</ele>
        <time>2021-07-29T08:47:06Z</time>
      </trkpt>
      <trkpt lat="47.1146" lon="6.6405">
        <ele>934.4</ele>
        <time>2021-07-29T08:47:07Z</time>
      </trkpt>
      <trkpt lat="47.11462" lon="6.64047">
        <ele>934.4</ele>
        <time>2021-07-29T08:47:08Z</time>
      </trkpt>
      <trkpt lat="47.11463" lon="6.64044">
        <ele>934.4</ele>
        <time>2021-07-29T08:47:09Z</time>
      </trkpt>
      <trkpt lat="47.11465" lon="6.6404">
        <ele>934.6</ele>
        <time>2021-07-29T08:47:10Z</time>
      </trkpt>
      <trkpt lat="47.11467" lon="6.64037">
        <ele>934.6</ele>
        <time>2021-07-29T08:47:11Z</time>
      </trkpt>
      <trkpt lat="47.11469" lon="6.64033">
        <ele>934.6</ele>
        <time>2021-07-29T08:47:12Z</time>
      </trkpt>
      <trkpt lat="47.11471" lon="6.6403">
        <ele>934.8</ele>
        <time>2021-07-29T08:47:13Z</time>
      </trkpt>
      <trkpt lat="47.11473" lon="6.64027">
        <ele>934.8</ele>
        <time>2021-07-29T08:47:14Z</time>
      </trkpt>
      <trkpt lat="47.11474" lon="6.64023">
        <ele>935</ele>
        <time>2021-07-29T08:47:15Z</time>
      </trkpt>
      <trkpt lat="47.11476" lon="6.6402">
        <ele>935</ele>
        <time>2021-07-29T08:47:16Z</time>
      </trkpt>
      <trkpt lat="47.11478" lon="6.64017">
        <ele>935</ele>
        <time>2021-07-29T08:47:17Z</time>
      </trkpt>
      <trkpt lat="47.1148" lon="6.64013">
        <ele>935.2</ele>
        <time>2021-07-29T08:47:18Z</time>
      </trkpt>
      <trkpt lat="47.11482" lon="6.6401">
        <ele>935.2</ele>
        <time>2021-07-29T08:47:19Z</time>
      </trkpt>
      <trkpt lat="47.11484" lon="6.64006">
        <ele>935.2</ele>
        <time>2021-07-29T08:47:20Z</time>
      </trkpt>
      <trkpt lat="47.11486" lon="6.64003">
        <ele>935.2</ele>
        <time>2021-07-29T08:47:21Z</time>
      </trkpt>
      <trkpt lat="47.11488" lon="6.63999">
        <ele>935.2</ele>
        <time>2021-07-29T08:47:22Z</time>
      </trkpt>
      <trkpt lat="47.11489" lon="6.63995">
        <ele>935.2</ele>
        <time>2021-07-29T08:47:23Z</time>
      </trkpt>
      <trkpt lat="47.11491" lon="6.63991">
        <ele>935.2</ele>
        <time>2021-07-29T08:47:24Z</time>
      </trkpt>
      <trkpt lat="47.11493" lon="6.63987">
        <ele>935.2</ele>
        <time>2021-07-29T08:47:25Z</time>
      </trkpt>
      <trkpt lat="47.11496" lon="6.63984">
        <ele>935.2</ele>
        <time>2021-07-29T08:47:26Z</time>
      </trkpt>
      <trkpt lat="47.11498" lon="6.63981">
        <ele>935.2</ele>
        <time>2021-07-29T08:47:27Z</time>
      </trkpt>
      <trkpt lat="47.11501" lon="6.63977">
        <ele>935.4</ele>
        <time>2021-07-29T08:47:28Z</time>
      </trkpt>
      <trkpt lat="47.11503" lon="6.63973">
        <ele>935.4</ele>
        <time>2021-07-29T08:47:29Z</time>
      </trkpt>
      <trkpt lat="47.11505" lon="6.6397">
        <ele>935.4</ele>
        <time>2021-07-29T08:47:30Z</time>
      </trkpt>
      <trkpt lat="47.11507" lon="6.63966">
        <ele>935.6</ele>
        <time>2021-07-29T08:47:31Z</time>
      </trkpt>
      <trkpt lat="47.11509" lon="6.63962">
        <ele>935.6</ele>
        <time>2021-07-29T08:47:32Z</time>
      </trkpt>
      <trkpt lat="47.11511" lon="6.63959">
        <ele>935.8</ele>
        <time>2021-07-29T08:47:33Z</time>
      </trkpt>
      <trkpt lat="47.11513" lon="6.63955">
        <ele>936</ele>
        <time>2021-07-29T08:47:34Z</time>
      </trkpt>
      <trkpt lat="47.11514" lon="6.63952">
        <ele>936</ele>
        <time>2021-07-29T08:47:35Z</time>
      </trkpt>
      <trkpt lat="47.11516" lon="6.63948">
        <ele>936.2</ele>
        <time>2021-07-29T08:47:36Z</time>
      </trkpt>
      <trkpt lat="47.11518" lon="6.63945">
        <ele>936.2</ele>
        <time>2021-07-29T08:47:37Z</time>
      </trkpt>
      <trkpt lat="47.1152" lon="6.63942">
        <ele>936.2</ele>
        <time>2021-07-29T08:47:38Z</time>
      </trkpt>
      <trkpt lat="47.11522" lon="6.63939">
        <ele>936.4</ele>
        <time>2021-07-29T08:47:39Z</time>
      </trkpt>
      <trkpt lat="47.11524" lon="6.63936">
        <ele>936.4</ele>
        <time>2021-07-29T08:47:40Z</time>
      </trkpt>
      <trkpt lat="47.11526" lon="6.63934">
        <ele>936.4</ele>
        <time>2021-07-29T08:47:41Z</time>
      </trkpt>
      <trkpt lat="47.11528" lon="6.63931">
        <ele>936.6</ele>
        <time>2021-07-29T08:47:42Z</time>
      </trkpt>
      <trkpt lat="47.1153" lon="6.63929">
        <ele>936.6</ele>
        <time>2021-07-29T08:47:43Z</time>
      </trkpt>
      <trkpt lat="47.11533" lon="6.63926">
        <ele>936.6</ele>
        <time>2021-07-29T08:47:44Z</time>
      </trkpt>
      <trkpt lat="47.11535" lon="6.63924">
        <ele>936.8</ele>
        <time>2021-07-29T08:47:45Z</time>
      </trkpt>
      <trkpt lat="47.11538" lon="6.63922">
        <ele>936.8</ele>
        <time>2021-07-29T08:47:46Z</time>
      </trkpt>
      <trkpt lat="47.1154" lon="6.6392">
        <ele>936.8</ele>
        <time>2021-07-29T08:47:47Z</time>
      </trkpt>
      <trkpt lat="47.11543" lon="6.63918">
        <ele>937</ele>
        <time>2021-07-29T08:47:48Z</time>
      </trkpt>
      <trkpt lat="47.11545" lon="6.63916">
        <ele>937</ele>
        <time>2021-07-29T08:47:49Z</time>
      </trkpt>
      <trkpt lat="47.11548" lon="6.63914">
        <ele>937</ele>
        <time>2021-07-29T08:47:50Z</time>
      </trkpt>
      <trkpt lat="47.11551" lon="6.63912">
        <ele>937</ele>
        <time>2021-07-29T08:47:51Z</time>
      </trkpt>
      <trkpt lat="47.11553" lon="6.63911">
        <ele>937.2</ele>
        <time>2021-07-29T08:47:52Z</time>
      </trkpt>
      <trkpt lat="47.11556" lon="6.63909">
        <ele>937.2</ele>
        <time>2021-07-29T08:47:53Z</time>
      </trkpt>
      <trkpt lat="47.11559" lon="6.63908">
        <ele>937.2</ele>
        <time>2021-07-29T08:47:54Z</time>
      </trkpt>
      <trkpt lat="47.11561" lon="6.63907">
        <ele>937.4</ele>
        <time>2021-07-29T08:47:55Z</time>
      </trkpt>
      <trkpt lat="47.11564" lon="6.63905">
        <ele>937.4</ele>
        <time>2021-07-29T08:47:56Z</time>
      </trkpt>
      <trkpt lat="47.11567" lon="6.63904">
        <ele>937.6</ele>
        <time>2021-07-29T08:47:57Z</time>
      </trkpt>
      <trkpt lat="47.11569" lon="6.63904">
        <ele>937.6</ele>
        <time>2021-07-29T08:47:58Z</time>
      </trkpt>
      <trkpt lat="47.11572" lon="6.63902">
        <ele>937.8</ele>
        <time>2021-07-29T08:47:59Z</time>
      </trkpt>
      <trkpt lat="47.11575" lon="6.63902">
        <ele>938</ele>
        <time>2021-07-29T08:48:00Z</time>
      </trkpt>
      <trkpt lat="47.11578" lon="6.63902">
        <ele>938.2</ele>
        <time>2021-07-29T08:48:01Z</time>
      </trkpt>
      <trkpt lat="47.1158" lon="6.63901">
        <ele>938.2</ele>
        <time>2021-07-29T08:48:02Z</time>
      </trkpt>
      <trkpt lat="47.11582" lon="6.639">
        <ele>938.4</ele>
        <time>2021-07-29T08:48:03Z</time>
      </trkpt>
      <trkpt lat="47.11584" lon="6.63901">
        <ele>938.4</ele>
        <time>2021-07-29T08:48:04Z</time>
      </trkpt>
      <trkpt lat="47.11587" lon="6.63901">
        <ele>938.6</ele>
        <time>2021-07-29T08:48:05Z</time>
      </trkpt>
      <trkpt lat="47.11589" lon="6.639">
        <ele>938.6</ele>
        <time>2021-07-29T08:48:06Z</time>
      </trkpt>
      <trkpt lat="47.11591" lon="6.63901">
        <ele>938.6</ele>
        <time>2021-07-29T08:48:07Z</time>
      </trkpt>
      <trkpt lat="47.11594" lon="6.63902">
        <ele>938.6</ele>
        <time>2021-07-29T08:48:08Z</time>
      </trkpt>
      <trkpt lat="47.11597" lon="6.63901">
        <ele>938.8</ele>
        <time>2021-07-29T08:48:09Z</time>
      </trkpt>
      <trkpt lat="47.11599" lon="6.63901">
        <ele>938.8</ele>
        <time>2021-07-29T08:48:10Z</time>
      </trkpt>
      <trkpt lat="47.11602" lon="6.639">
        <ele>939</ele>
        <time>2021-07-29T08:48:11Z</time>
      </trkpt>
      <trkpt lat="47.11604" lon="6.63901">
        <ele>939</ele>
        <time>2021-07-29T08:48:12Z</time>
      </trkpt>
      <trkpt lat="47.11607" lon="6.639">
        <ele>939.2</ele>
        <time>2021-07-29T08:48:13Z</time>
      </trkpt>
      <trkpt lat="47.1161" lon="6.639">
        <ele>939.2</ele>
        <time>2021-07-29T08:48:14Z</time>
      </trkpt>
      <trkpt lat="47.11613" lon="6.63898">
        <ele>939.2</ele>
        <time>2021-07-29T08:48:15Z</time>
      </trkpt>
      <trkpt lat="47.11616" lon="6.63897">
        <ele>939.4</ele>
        <time>2021-07-29T08:48:16Z</time>
      </trkpt>
      <trkpt lat="47.11619" lon="6.63896">
        <ele>939.6</ele>
        <time>2021-07-29T08:48:17Z</time>
      </trkpt>
      <trkpt lat="47.11622" lon="6.63895">
        <ele>939.6</ele>
        <time>2021-07-29T08:48:18Z</time>
      </trkpt>
      <trkpt lat="47.11626" lon="6.63894">
        <ele>939.8</ele>
        <time>2021-07-29T08:48:19Z</time>
      </trkpt>
      <trkpt lat="47.11628" lon="6.63893">
        <ele>940</ele>
        <time>2021-07-29T08:48:20Z</time>
      </trkpt>
      <trkpt lat="47.11631" lon="6.63891">
        <ele>940</ele>
        <time>2021-07-29T08:48:21Z</time>
      </trkpt>
      <trkpt lat="47.11634" lon="6.6389">
        <ele>940</ele>
        <time>2021-07-29T08:48:22Z</time>
      </trkpt>
      <trkpt lat="47.11637" lon="6.63887">
        <ele>940.2</ele>
        <time>2021-07-29T08:48:23Z</time>
      </trkpt>
      <trkpt lat="47.11639" lon="6.63886">
        <ele>940.2</ele>
        <time>2021-07-29T08:48:24Z</time>
      </trkpt>
      <trkpt lat="47.11642" lon="6.63885">
        <ele>940.4</ele>
        <time>2021-07-29T08:48:25Z</time>
      </trkpt>
      <trkpt lat="47.11644" lon="6.63884">
        <ele>940.4</ele>
        <time>2021-07-29T08:48:26Z</time>
      </trkpt>
      <trkpt lat="47.11647" lon="6.63883">
        <ele>940.6</ele>
        <time>2021-07-29T08:48:27Z</time>
      </trkpt>
      <trkpt lat="47.11649" lon="6.63881">
        <ele>940.6</ele>
        <time>2021-07-29T08:48:28Z</time>
      </trkpt>
      <trkpt lat="47.11652" lon="6.6388">
        <ele>940.6</ele>
        <time>2021-07-29T08:48:29Z</time>
      </trkpt>
      <trkpt lat="47.11654" lon="6.63879">
        <ele>940.8</ele>
        <time>2021-07-29T08:48:30Z</time>
      </trkpt>
      <trkpt lat="47.11657" lon="6.63878">
        <ele>940.8</ele>
        <time>2021-07-29T08:48:31Z</time>
      </trkpt>
      <trkpt lat="47.11659" lon="6.63877">
        <ele>941</ele>
        <time>2021-07-29T08:48:32Z</time>
      </trkpt>
      <trkpt lat="47.11662" lon="6.63876">
        <ele>941</ele>
        <time>2021-07-29T08:48:33Z</time>
      </trkpt>
      <trkpt lat="47.11665" lon="6.63875">
        <ele>941</ele>
        <time>2021-07-29T08:48:34Z</time>
      </trkpt>
      <trkpt lat="47.11668" lon="6.63873">
        <ele>941.2</ele>
        <time>2021-07-29T08:48:35Z</time>
      </trkpt>
      <trkpt lat="47.1167" lon="6.63873">
        <ele>941.2</ele>
        <time>2021-07-29T08:48:36Z</time>
      </trkpt>
      <trkpt lat="47.11673" lon="6.63872">
        <ele>941.2</ele>
        <time>2021-07-29T08:48:37Z</time>
      </trkpt>
      <trkpt lat="47.11676" lon="6.63871">
        <ele>941.4</ele>
        <time>2021-07-29T08:48:38Z</time>
      </trkpt>
      <trkpt lat="47.11678" lon="6.63871">
        <ele>941.4</ele>
        <time>2021-07-29T08:48:39Z</time>
      </trkpt>
      <trkpt lat="47.11681" lon="6.6387">
        <ele>941.4</ele>
        <time>2021-07-29T08:48:40Z</time>
      </trkpt>
      <trkpt lat="47.11684" lon="6.6387">
        <ele>941.6</ele>
        <time>2021-07-29T08:48:41Z</time>
      </trkpt>
      <trkpt lat="47.11686" lon="6.63869">
        <ele>941.6</ele>
        <time>2021-07-29T08:48:42Z</time>
      </trkpt>
      <trkpt lat="47.11689" lon="6.63869">
        <ele>941.6</ele>
        <time>2021-07-29T08:48:43Z</time>
      </trkpt>
      <trkpt lat="47.11692" lon="6.63868">
        <ele>941.6</ele>
        <time>2021-07-29T08:48:44Z</time>
      </trkpt>
      <trkpt lat="47.11695" lon="6.63867">
        <ele>941.6</ele>
        <time>2021-07-29T08:48:45Z</time>
      </trkpt>
      <trkpt lat="47.11697" lon="6.63866">
        <ele>941.8</ele>
        <time>2021-07-29T08:48:46Z</time>
      </trkpt>
      <trkpt lat="47.117" lon="6.63865">
        <ele>941.8</ele>
        <time>2021-07-29T08:48:47Z</time>
      </trkpt>
      <trkpt lat="47.11703" lon="6.63864">
        <ele>941.8</ele>
        <time>2021-07-29T08:48:48Z</time>
      </trkpt>
      <trkpt lat="47.11705" lon="6.63863">
        <ele>941.8</ele>
        <time>2021-07-29T08:48:49Z</time>
      </trkpt>
      <trkpt lat="47.11708" lon="6.63862">
        <ele>942</ele>
        <time>2021-07-29T08:48:50Z</time>
      </trkpt>
      <trkpt lat="47.11711" lon="6.63861">
        <ele>942</ele>
        <time>2021-07-29T08:48:51Z</time>
      </trkpt>
      <trkpt lat="47.11714" lon="6.63859">
        <ele>942</ele>
        <time>2021-07-29T08:48:52Z</time>
      </trkpt>
      <trkpt lat="47.11718" lon="6.63856">
        <ele>942</ele>
        <time>2021-07-29T08:48:53Z</time>
      </trkpt>
      <trkpt lat="47.11721" lon="6.63854">
        <ele>942</ele>
        <time>2021-07-29T08:48:54Z</time>
      </trkpt>
      <trkpt lat="47.11723" lon="6.63852">
        <ele>942</ele>
        <time>2021-07-29T08:48:55Z</time>
      </trkpt>
      <trkpt lat="47.11726" lon="6.63851">
        <ele>942</ele>
        <time>2021-07-29T08:48:56Z</time>
      </trkpt>
      <trkpt lat="47.11728" lon="6.63847">
        <ele>942</ele>
        <time>2021-07-29T08:48:57Z</time>
      </trkpt>
      <trkpt lat="47.11731" lon="6.63846">
        <ele>942</ele>
        <time>2021-07-29T08:48:58Z</time>
      </trkpt>
      <trkpt lat="47.11734" lon="6.63844">
        <ele>942.2</ele>
        <time>2021-07-29T08:48:59Z</time>
      </trkpt>
      <trkpt lat="47.11736" lon="6.63842">
        <ele>942.2</ele>
        <time>2021-07-29T08:49:00Z</time>
      </trkpt>
      <trkpt lat="47.11739" lon="6.6384">
        <ele>942.2</ele>
        <time>2021-07-29T08:49:01Z</time>
      </trkpt>
      <trkpt lat="47.11742" lon="6.63839">
        <ele>942</ele>
        <time>2021-07-29T08:49:02Z</time>
      </trkpt>
      <trkpt lat="47.11744" lon="6.63837">
        <ele>942</ele>
        <time>2021-07-29T08:49:03Z</time>
      </trkpt>
      <trkpt lat="47.11747" lon="6.63835">
        <ele>942</ele>
        <time>2021-07-29T08:49:04Z</time>
      </trkpt>
      <trkpt lat="47.1175" lon="6.63833">
        <ele>942</ele>
        <time>2021-07-29T08:49:05Z</time>
      </trkpt>
      <trkpt lat="47.11753" lon="6.63831">
        <ele>942.2</ele>
        <time>2021-07-29T08:49:06Z</time>
      </trkpt>
      <trkpt lat="47.11756" lon="6.63828">
        <ele>942.4</ele>
        <time>2021-07-29T08:49:07Z</time>
      </trkpt>
      <trkpt lat="47.11759" lon="6.63826">
        <ele>942.6</ele>
        <time>2021-07-29T08:49:08Z</time>
      </trkpt>
      <trkpt lat="47.11762" lon="6.63824">
        <ele>942.8</ele>
        <time>2021-07-29T08:49:09Z</time>
      </trkpt>
      <trkpt lat="47.11764" lon="6.63822">
        <ele>943</ele>
        <time>2021-07-29T08:49:10Z</time>
      </trkpt>
      <trkpt lat="47.11767" lon="6.6382">
        <ele>943.2</ele>
        <time>2021-07-29T08:49:11Z</time>
      </trkpt>
      <trkpt lat="47.1177" lon="6.63818">
        <ele>943.4</ele>
        <time>2021-07-29T08:49:12Z</time>
      </trkpt>
      <trkpt lat="47.11773" lon="6.63816">
        <ele>943.4</ele>
        <time>2021-07-29T08:49:13Z</time>
      </trkpt>
      <trkpt lat="47.11776" lon="6.63815">
        <ele>943.6</ele>
        <time>2021-07-29T08:49:14Z</time>
      </trkpt>
      <trkpt lat="47.11779" lon="6.63814">
        <ele>943.8</ele>
        <time>2021-07-29T08:49:15Z</time>
      </trkpt>
      <trkpt lat="47.11782" lon="6.63813">
        <ele>943.8</ele>
        <time>2021-07-29T08:49:16Z</time>
      </trkpt>
      <trkpt lat="47.11785" lon="6.63813">
        <ele>943.8</ele>
        <time>2021-07-29T08:49:17Z</time>
      </trkpt>
      <trkpt lat="47.11787" lon="6.63812">
        <ele>943.8</ele>
        <time>2021-07-29T08:49:18Z</time>
      </trkpt>
      <trkpt lat="47.11789" lon="6.63812">
        <ele>944</ele>
        <time>2021-07-29T08:49:19Z</time>
      </trkpt>
      <trkpt lat="47.11792" lon="6.63812">
        <ele>944</ele>
        <time>2021-07-29T08:49:20Z</time>
      </trkpt>
      <trkpt lat="47.11794" lon="6.63812">
        <ele>944.2</ele>
        <time>2021-07-29T08:49:21Z</time>
      </trkpt>
      <trkpt lat="47.11796" lon="6.63812">
        <ele>944.4</ele>
        <time>2021-07-29T08:49:22Z</time>
      </trkpt>
      <trkpt lat="47.11798" lon="6.63812">
        <ele>944.4</ele>
        <time>2021-07-29T08:49:23Z</time>
      </trkpt>
      <trkpt lat="47.11801" lon="6.63813">
        <ele>944.6</ele>
        <time>2021-07-29T08:49:24Z</time>
      </trkpt>
      <trkpt lat="47.11803" lon="6.63814">
        <ele>944.8</ele>
        <time>2021-07-29T08:49:25Z</time>
      </trkpt>
      <trkpt lat="47.11805" lon="6.63815">
        <ele>945</ele>
        <time>2021-07-29T08:49:26Z</time>
      </trkpt>
      <trkpt lat="47.11807" lon="6.63817">
        <ele>945</ele>
        <time>2021-07-29T08:49:27Z</time>
      </trkpt>
      <trkpt lat="47.11808" lon="6.63818">
        <ele>945.2</ele>
        <time>2021-07-29T08:49:28Z</time>
      </trkpt>
      <trkpt lat="47.1181" lon="6.63818">
        <ele>945.4</ele>
        <time>2021-07-29T08:49:29Z</time>
      </trkpt>
      <trkpt lat="47.11812" lon="6.63819">
        <ele>945.6</ele>
        <time>2021-07-29T08:49:30Z</time>
      </trkpt>
      <trkpt lat="47.11814" lon="6.6382">
        <ele>945.8</ele>
        <time>2021-07-29T08:49:31Z</time>
      </trkpt>
      <trkpt lat="47.11815" lon="6.63821">
        <ele>946</ele>
        <time>2021-07-29T08:49:32Z</time>
      </trkpt>
      <trkpt lat="47.11818" lon="6.63821">
        <ele>946</ele>
        <time>2021-07-29T08:49:33Z</time>
      </trkpt>
      <trkpt lat="47.11819" lon="6.63822">
        <ele>946.2</ele>
        <time>2021-07-29T08:49:34Z</time>
      </trkpt>
      <trkpt lat="47.11821" lon="6.63823">
        <ele>946.2</ele>
        <time>2021-07-29T08:49:35Z</time>
      </trkpt>
      <trkpt lat="47.11823" lon="6.63824">
        <ele>946.4</ele>
        <time>2021-07-29T08:49:36Z</time>
      </trkpt>
      <trkpt lat="47.11825" lon="6.63825">
        <ele>946.4</ele>
        <time>2021-07-29T08:49:37Z</time>
      </trkpt>
      <trkpt lat="47.11826" lon="6.63827">
        <ele>946.6</ele>
        <time>2021-07-29T08:49:38Z</time>
      </trkpt>
      <trkpt lat="47.11828" lon="6.63828">
        <ele>946.6</ele>
        <time>2021-07-29T08:49:39Z</time>
      </trkpt>
      <trkpt lat="47.1183" lon="6.63829">
        <ele>946.8</ele>
        <time>2021-07-29T08:49:40Z</time>
      </trkpt>
      <trkpt lat="47.11831" lon="6.6383">
        <ele>946.8</ele>
        <time>2021-07-29T08:49:41Z</time>
      </trkpt>
      <trkpt lat="47.11833" lon="6.63831">
        <ele>946.8</ele>
        <time>2021-07-29T08:49:42Z</time>
      </trkpt>
      <trkpt lat="47.11835" lon="6.63833">
        <ele>947</ele>
        <time>2021-07-29T08:49:43Z</time>
      </trkpt>
      <trkpt lat="47.11836" lon="6.63834">
        <ele>947</ele>
        <time>2021-07-29T08:49:44Z</time>
      </trkpt>
      <trkpt lat="47.11838" lon="6.63835">
        <ele>947.2</ele>
        <time>2021-07-29T08:49:45Z</time>
      </trkpt>
      <trkpt lat="47.1184" lon="6.63836">
        <ele>947.4</ele>
        <time>2021-07-29T08:49:46Z</time>
      </trkpt>
      <trkpt lat="47.11841" lon="6.63838">
        <ele>947.4</ele>
        <time>2021-07-29T08:49:47Z</time>
      </trkpt>
      <trkpt lat="47.11843" lon="6.63839">
        <ele>947.6</ele>
        <time>2021-07-29T08:49:48Z</time>
      </trkpt>
      <trkpt lat="47.11845" lon="6.63841">
        <ele>947.6</ele>
        <time>2021-07-29T08:49:49Z</time>
      </trkpt>
      <trkpt lat="47.11846" lon="6.63842">
        <ele>947.8</ele>
        <time>2021-07-29T08:49:50Z</time>
      </trkpt>
      <trkpt lat="47.11848" lon="6.63843">
        <ele>947.8</ele>
        <time>2021-07-29T08:49:51Z</time>
      </trkpt>
      <trkpt lat="47.11849" lon="6.63844">
        <ele>947.8</ele>
        <time>2021-07-29T08:49:52Z</time>
      </trkpt>
      <trkpt lat="47.11851" lon="6.63845">
        <ele>948</ele>
        <time>2021-07-29T08:49:53Z</time>
      </trkpt>
      <trkpt lat="47.11853" lon="6.63846">
        <ele>948</ele>
        <time>2021-07-29T08:49:54Z</time>
      </trkpt>
      <trkpt lat="47.11854" lon="6.63847">
        <ele>948.2</ele>
        <time>2021-07-29T08:49:55Z</time>
      </trkpt>
      <trkpt lat="47.11856" lon="6.63848">
        <ele>948.2</ele>
        <time>2021-07-29T08:49:56Z</time>
      </trkpt>
      <trkpt lat="47.11858" lon="6.63849">
        <ele>948.2</ele>
        <time>2021-07-29T08:49:57Z</time>
      </trkpt>
      <trkpt lat="47.11859" lon="6.63851">
        <ele>948.4</ele>
        <time>2021-07-29T08:49:58Z</time>
      </trkpt>
      <trkpt lat="47.11861" lon="6.63852">
        <ele>948.6</ele>
        <time>2021-07-29T08:49:59Z</time>
      </trkpt>
      <trkpt lat="47.11862" lon="6.63853">
        <ele>948.6</ele>
        <time>2021-07-29T08:50:00Z</time>
      </trkpt>
      <trkpt lat="47.11863" lon="6.63854">
        <ele>948.8</ele>
        <time>2021-07-29T08:50:01Z</time>
      </trkpt>
      <trkpt lat="47.11865" lon="6.63855">
        <ele>949</ele>
        <time>2021-07-29T08:50:02Z</time>
      </trkpt>
      <trkpt lat="47.11866" lon="6.63856">
        <ele>949</ele>
        <time>2021-07-29T08:50:03Z</time>
      </trkpt>
      <trkpt lat="47.11867" lon="6.63857">
        <ele>949.2</ele>
        <time>2021-07-29T08:50:04Z</time>
      </trkpt>
      <trkpt lat="47.11868" lon="6.63857">
        <ele>949.4</ele>
        <time>2021-07-29T08:50:05Z</time>
      </trkpt>
      <trkpt lat="47.1187" lon="6.63858">
        <ele>949.4</ele>
        <time>2021-07-29T08:50:06Z</time>
      </trkpt>
      <trkpt lat="47.11871" lon="6.63858">
        <ele>949.6</ele>
        <time>2021-07-29T08:50:07Z</time>
      </trkpt>
      <trkpt lat="47.11873" lon="6.63859">
        <ele>949.8</ele>
        <time>2021-07-29T08:50:08Z</time>
      </trkpt>
      <trkpt lat="47.11874" lon="6.63859">
        <ele>949.8</ele>
        <time>2021-07-29T08:50:09Z</time>
      </trkpt>
      <trkpt lat="47.11876" lon="6.6386">
        <ele>950</ele>
        <time>2021-07-29T08:50:10Z</time>
      </trkpt>
      <trkpt lat="47.11877" lon="6.63862">
        <ele>950.2</ele>
        <time>2021-07-29T08:50:11Z</time>
      </trkpt>
      <trkpt lat="47.11879" lon="6.63863">
        <ele>950.2</ele>
        <time>2021-07-29T08:50:12Z</time>
      </trkpt>
      <trkpt lat="47.1188" lon="6.63864">
        <ele>950.4</ele>
        <time>2021-07-29T08:50:13Z</time>
      </trkpt>
      <trkpt lat="47.11882" lon="6.63865">
        <ele>950.4</ele>
        <time>2021-07-29T08:50:14Z</time>
      </trkpt>
      <trkpt lat="47.11883" lon="6.63866">
        <ele>950.6</ele>
        <time>2021-07-29T08:50:15Z</time>
      </trkpt>
      <trkpt lat="47.11884" lon="6.63866">
        <ele>950.8</ele>
        <time>2021-07-29T08:50:16Z</time>
      </trkpt>
      <trkpt lat="47.11886" lon="6.63867">
        <ele>950.8</ele>
        <time>2021-07-29T08:50:17Z</time>
      </trkpt>
      <trkpt lat="47.11887" lon="6.63869">
        <ele>951</ele>
        <time>2021-07-29T08:50:18Z</time>
      </trkpt>
      <trkpt lat="47.11888" lon="6.6387">
        <ele>951.2</ele>
        <time>2021-07-29T08:50:19Z</time>
      </trkpt>
      <trkpt lat="47.1189" lon="6.63872">
        <ele>951.4</ele>
        <time>2021-07-29T08:50:20Z</time>
      </trkpt>
      <trkpt lat="47.11891" lon="6.63874">
        <ele>951.4</ele>
        <time>2021-07-29T08:50:21Z</time>
      </trkpt>
      <trkpt lat="47.11893" lon="6.63875">
        <ele>951.6</ele>
        <time>2021-07-29T08:50:22Z</time>
      </trkpt>
      <trkpt lat="47.11895" lon="6.63876">
        <ele>951.8</ele>
        <time>2021-07-29T08:50:23Z</time>
      </trkpt>
      <trkpt lat="47.11897" lon="6.63877">
        <ele>951.8</ele>
        <time>2021-07-29T08:50:24Z</time>
      </trkpt>
      <trkpt lat="47.11898" lon="6.63879">
        <ele>952</ele>
        <time>2021-07-29T08:50:25Z</time>
      </trkpt>
      <trkpt lat="47.119" lon="6.63881">
        <ele>952</ele>
        <time>2021-07-29T08:50:26Z</time>
      </trkpt>
      <trkpt lat="47.11901" lon="6.63882">
        <ele>952.2</ele>
        <time>2021-07-29T08:50:27Z</time>
      </trkpt>
      <trkpt lat="47.11902" lon="6.63884">
        <ele>952.2</ele>
        <time>2021-07-29T08:50:28Z</time>
      </trkpt>
      <trkpt lat="47.11903" lon="6.63886">
        <ele>952.4</ele>
        <time>2021-07-29T08:50:29Z</time>
      </trkpt>
      <trkpt lat="47.11904" lon="6.63888">
        <ele>952.6</ele>
        <time>2021-07-29T08:50:30Z</time>
      </trkpt>
      <trkpt lat="47.11906" lon="6.6389">
        <ele>952.6</ele>
        <time>2021-07-29T08:50:31Z</time>
      </trkpt>
      <trkpt lat="47.11907" lon="6.63891">
        <ele>952.8</ele>
        <time>2021-07-29T08:50:32Z</time>
      </trkpt>
      <trkpt lat="47.11909" lon="6.63893">
        <ele>952.8</ele>
        <time>2021-07-29T08:50:33Z</time>
      </trkpt>
      <trkpt lat="47.11911" lon="6.63895">
        <ele>953</ele>
        <time>2021-07-29T08:50:34Z</time>
      </trkpt>
      <trkpt lat="47.11912" lon="6.63897">
        <ele>953</ele>
        <time>2021-07-29T08:50:35Z</time>
      </trkpt>
      <trkpt lat="47.11913" lon="6.63899">
        <ele>953.2</ele>
        <time>2021-07-29T08:50:36Z</time>
      </trkpt>
      <trkpt lat="47.11914" lon="6.63901">
        <ele>953.4</ele>
        <time>2021-07-29T08:50:37Z</time>
      </trkpt>
      <trkpt lat="47.11916" lon="6.63902">
        <ele>953.4</ele>
        <time>2021-07-29T08:50:38Z</time>
      </trkpt>
      <trkpt lat="47.11917" lon="6.63904">
        <ele>953.6</ele>
        <time>2021-07-29T08:50:39Z</time>
      </trkpt>
      <trkpt lat="47.11918" lon="6.63906">
        <ele>953.6</ele>
        <time>2021-07-29T08:50:40Z</time>
      </trkpt>
      <trkpt lat="47.11919" lon="6.63907">
        <ele>953.8</ele>
        <time>2021-07-29T08:50:41Z</time>
      </trkpt>
      <trkpt lat="47.1192" lon="6.63909">
        <ele>953.8</ele>
        <time>2021-07-29T08:50:42Z</time>
      </trkpt>
      <trkpt lat="47.11922" lon="6.63911">
        <ele>954</ele>
        <time>2021-07-29T08:50:43Z</time>
      </trkpt>
      <trkpt lat="47.11923" lon="6.63913">
        <ele>954</ele>
        <time>2021-07-29T08:50:44Z</time>
      </trkpt>
      <trkpt lat="47.11925" lon="6.63914">
        <ele>954.2</ele>
        <time>2021-07-29T08:50:45Z</time>
      </trkpt>
      <trkpt lat="47.11926" lon="6.63916">
        <ele>954.2</ele>
        <time>2021-07-29T08:50:46Z</time>
      </trkpt>
      <trkpt lat="47.11927" lon="6.63918">
        <ele>954.4</ele>
        <time>2021-07-29T08:50:47Z</time>
      </trkpt>
      <trkpt lat="47.11928" lon="6.6392">
        <ele>954.4</ele>
        <time>2021-07-29T08:50:48Z</time>
      </trkpt>
      <trkpt lat="47.11929" lon="6.63921">
        <ele>954.6</ele>
        <time>2021-07-29T08:50:49Z</time>
      </trkpt>
      <trkpt lat="47.11931" lon="6.63923">
        <ele>954.6</ele>
        <time>2021-07-29T08:50:50Z</time>
      </trkpt>
      <trkpt lat="47.11932" lon="6.63925">
        <ele>954.8</ele>
        <time>2021-07-29T08:50:51Z</time>
      </trkpt>
      <trkpt lat="47.11933" lon="6.63926">
        <ele>954.8</ele>
        <time>2021-07-29T08:50:52Z</time>
      </trkpt>
      <trkpt lat="47.11934" lon="6.63927">
        <ele>954.8</ele>
        <time>2021-07-29T08:50:53Z</time>
      </trkpt>
      <trkpt lat="47.11936" lon="6.63929">
        <ele>955</ele>
        <time>2021-07-29T08:50:54Z</time>
      </trkpt>
      <trkpt lat="47.11938" lon="6.63931">
        <ele>955</ele>
        <time>2021-07-29T08:50:55Z</time>
      </trkpt>
      <trkpt lat="47.11939" lon="6.63933">
        <ele>955.2</ele>
        <time>2021-07-29T08:50:56Z</time>
      </trkpt>
      <trkpt lat="47.11941" lon="6.63935">
        <ele>955.4</ele>
        <time>2021-07-29T08:50:57Z</time>
      </trkpt>
      <trkpt lat="47.11942" lon="6.63937">
        <ele>955.4</ele>
        <time>2021-07-29T08:50:58Z</time>
      </trkpt>
      <trkpt lat="47.11943" lon="6.63939">
        <ele>955.6</ele>
        <time>2021-07-29T08:50:59Z</time>
      </trkpt>
      <trkpt lat="47.11945" lon="6.6394">
        <ele>955.6</ele>
        <time>2021-07-29T08:51:00Z</time>
      </trkpt>
      <trkpt lat="47.11946" lon="6.63942">
        <ele>955.8</ele>
        <time>2021-07-29T08:51:01Z</time>
      </trkpt>
      <trkpt lat="47.11947" lon="6.63944">
        <ele>956</ele>
        <time>2021-07-29T08:51:02Z</time>
      </trkpt>
      <trkpt lat="47.11949" lon="6.63945">
        <ele>956</ele>
        <time>2021-07-29T08:51:03Z</time>
      </trkpt>
      <trkpt lat="47.11951" lon="6.63947">
        <ele>956.2</ele>
        <time>2021-07-29T08:51:04Z</time>
      </trkpt>
      <trkpt lat="47.11952" lon="6.63948">
        <ele>956.4</ele>
        <time>2021-07-29T08:51:05Z</time>
      </trkpt>
      <trkpt lat="47.11954" lon="6.6395">
        <ele>956.6</ele>
        <time>2021-07-29T08:51:06Z</time>
      </trkpt>
      <trkpt lat="47.11956" lon="6.63952">
        <ele>956.8</ele>
        <time>2021-07-29T08:51:07Z</time>
      </trkpt>
      <trkpt lat="47.11957" lon="6.63954">
        <ele>956.8</ele>
        <time>2021-07-29T08:51:08Z</time>
      </trkpt>
      <trkpt lat="47.11958" lon="6.63956">
        <ele>957</ele>
        <time>2021-07-29T08:51:09Z</time>
      </trkpt>
      <trkpt lat="47.1196" lon="6.63957">
        <ele>957.2</ele>
        <time>2021-07-29T08:51:10Z</time>
      </trkpt>
      <trkpt lat="47.11962" lon="6.63959">
        <ele>957.4</ele>
        <time>2021-07-29T08:51:11Z</time>
      </trkpt>
      <trkpt lat="47.11963" lon="6.63961">
        <ele>957.4</ele>
        <time>2021-07-29T08:51:12Z</time>
      </trkpt>
      <trkpt lat="47.11964" lon="6.63963">
        <ele>957.6</ele>
        <time>2021-07-29T08:51:13Z</time>
      </trkpt>
      <trkpt lat="47.11966" lon="6.63965">
        <ele>957.8</ele>
        <time>2021-07-29T08:51:14Z</time>
      </trkpt>
      <trkpt lat="47.11967" lon="6.63967">
        <ele>957.8</ele>
        <time>2021-07-29T08:51:15Z</time>
      </trkpt>
      <trkpt lat="47.11969" lon="6.63969">
        <ele>957.8</ele>
        <time>2021-07-29T08:51:16Z</time>
      </trkpt>
      <trkpt lat="47.1197" lon="6.63971">
        <ele>958</ele>
        <time>2021-07-29T08:51:17Z</time>
      </trkpt>
      <trkpt lat="47.11972" lon="6.63973">
        <ele>958.2</ele>
        <time>2021-07-29T08:51:18Z</time>
      </trkpt>
      <trkpt lat="47.11973" lon="6.63975">
        <ele>958.2</ele>
        <time>2021-07-29T08:51:19Z</time>
      </trkpt>
      <trkpt lat="47.11975" lon="6.63977">
        <ele>958.4</ele>
        <time>2021-07-29T08:51:20Z</time>
      </trkpt>
      <trkpt lat="47.11976" lon="6.63979">
        <ele>958.6</ele>
        <time>2021-07-29T08:51:21Z</time>
      </trkpt>
      <trkpt lat="47.11978" lon="6.6398">
        <ele>958.6</ele>
        <time>2021-07-29T08:51:22Z</time>
      </trkpt>
      <trkpt lat="47.1198" lon="6.63982">
        <ele>958.8</ele>
        <time>2021-07-29T08:51:23Z</time>
      </trkpt>
      <trkpt lat="47.11982" lon="6.63984">
        <ele>958.8</ele>
        <time>2021-07-29T08:51:24Z</time>
      </trkpt>
      <trkpt lat="47.11983" lon="6.63986">
        <ele>959</ele>
        <time>2021-07-29T08:51:25Z</time>
      </trkpt>
      <trkpt lat="47.11985" lon="6.63988">
        <ele>959</ele>
        <time>2021-07-29T08:51:26Z</time>
      </trkpt>
      <trkpt lat="47.11987" lon="6.6399">
        <ele>959.2</ele>
        <time>2021-07-29T08:51:27Z</time>
      </trkpt>
      <trkpt lat="47.11988" lon="6.63992">
        <ele>959.2</ele>
        <time>2021-07-29T08:51:28Z</time>
      </trkpt>
      <trkpt lat="47.11989" lon="6.63994">
        <ele>959.4</ele>
        <time>2021-07-29T08:51:29Z</time>
      </trkpt>
      <trkpt lat="47.1199" lon="6.63997">
        <ele>959.4</ele>
        <time>2021-07-29T08:51:30Z</time>
      </trkpt>
      <trkpt lat="47.11992" lon="6.63999">
        <ele>959.6</ele>
        <time>2021-07-29T08:51:31Z</time>
      </trkpt>
      <trkpt lat="47.11993" lon="6.64001">
        <ele>959.6</ele>
        <time>2021-07-29T08:51:32Z</time>
      </trkpt>
      <trkpt lat="47.11995" lon="6.64003">
        <ele>959.6</ele>
        <time>2021-07-29T08:51:33Z</time>
      </trkpt>
      <trkpt lat="47.11996" lon="6.64005">
        <ele>959.8</ele>
        <time>2021-07-29T08:51:34Z</time>
      </trkpt>
      <trkpt lat="47.11998" lon="6.64006">
        <ele>960</ele>
        <time>2021-07-29T08:51:35Z</time>
      </trkpt>
      <trkpt lat="47.12" lon="6.64008">
        <ele>960</ele>
        <time>2021-07-29T08:51:36Z</time>
      </trkpt>
      <trkpt lat="47.12001" lon="6.6401">
        <ele>960.2</ele>
        <time>2021-07-29T08:51:37Z</time>
      </trkpt>
      <trkpt lat="47.12003" lon="6.64012">
        <ele>960.2</ele>
        <time>2021-07-29T08:51:38Z</time>
      </trkpt>
      <trkpt lat="47.12004" lon="6.64014">
        <ele>960.2</ele>
        <time>2021-07-29T08:51:39Z</time>
      </trkpt>
      <trkpt lat="47.12005" lon="6.64015">
        <ele>960.4</ele>
        <time>2021-07-29T08:51:40Z</time>
      </trkpt>
      <trkpt lat="47.12007" lon="6.64017">
        <ele>960.4</ele>
        <time>2021-07-29T08:51:41Z</time>
      </trkpt>
      <trkpt lat="47.12008" lon="6.64018">
        <ele>960.4</ele>
        <time>2021-07-29T08:51:42Z</time>
      </trkpt>
      <trkpt lat="47.1201" lon="6.6402">
        <ele>960.6</ele>
        <time>2021-07-29T08:51:43Z</time>
      </trkpt>
      <trkpt lat="47.12012" lon="6.64021">
        <ele>960.8</ele>
        <time>2021-07-29T08:51:44Z</time>
      </trkpt>
      <trkpt lat="47.12013" lon="6.64023">
        <ele>960.8</ele>
        <time>2021-07-29T08:51:45Z</time>
      </trkpt>
      <trkpt lat="47.12015" lon="6.64024">
        <ele>961</ele>
        <time>2021-07-29T08:51:46Z</time>
      </trkpt>
      <trkpt lat="47.12017" lon="6.64025">
        <ele>961</ele>
        <time>2021-07-29T08:51:47Z</time>
      </trkpt>
      <trkpt lat="47.12018" lon="6.64027">
        <ele>961.2</ele>
        <time>2021-07-29T08:51:48Z</time>
      </trkpt>
      <trkpt lat="47.1202" lon="6.64027">
        <ele>961.4</ele>
        <time>2021-07-29T08:51:49Z</time>
      </trkpt>
      <trkpt lat="47.12022" lon="6.64028">
        <ele>961.4</ele>
        <time>2021-07-29T08:51:50Z</time>
      </trkpt>
      <trkpt lat="47.12024" lon="6.64029">
        <ele>961.4</ele>
        <time>2021-07-29T08:51:51Z</time>
      </trkpt>
      <trkpt lat="47.12026" lon="6.64029">
        <ele>961.6</ele>
        <time>2021-07-29T08:51:52Z</time>
      </trkpt>
      <trkpt lat="47.12028" lon="6.64029">
        <ele>961.6</ele>
        <time>2021-07-29T08:51:53Z</time>
      </trkpt>
      <trkpt lat="47.1203" lon="6.6403">
        <ele>961.6</ele>
        <time>2021-07-29T08:51:54Z</time>
      </trkpt>
      <trkpt lat="47.12032" lon="6.6403">
        <ele>961.6</ele>
        <time>2021-07-29T08:51:55Z</time>
      </trkpt>
      <trkpt lat="47.12034" lon="6.6403">
        <ele>961.6</ele>
        <time>2021-07-29T08:51:56Z</time>
      </trkpt>
      <trkpt lat="47.12037" lon="6.6403">
        <ele>961.6</ele>
        <time>2021-07-29T08:51:57Z</time>
      </trkpt>
      <trkpt lat="47.12039" lon="6.6403">
        <ele>961.8</ele>
        <time>2021-07-29T08:51:58Z</time>
      </trkpt>
      <trkpt lat="47.12041" lon="6.6403">
        <ele>961.6</ele>
        <time>2021-07-29T08:51:59Z</time>
      </trkpt>
      <trkpt lat="47.12043" lon="6.6403">
        <ele>961.8</ele>
        <time>2021-07-29T08:52:00Z</time>
      </trkpt>
      <trkpt lat="47.12045" lon="6.64029">
        <ele>961.8</ele>
        <time>2021-07-29T08:52:01Z</time>
      </trkpt>
      <trkpt lat="47.12046" lon="6.6403">
        <ele>961.8</ele>
        <time>2021-07-29T08:52:02Z</time>
      </trkpt>
      <trkpt lat="47.12047" lon="6.6403">
        <ele>961.6</ele>
        <time>2021-07-29T08:52:03Z</time>
      </trkpt>
      <trkpt lat="47.12047" lon="6.6403">
        <ele>961.8</ele>
        <time>2021-07-29T08:52:04Z</time>
      </trkpt>
      <trkpt lat="47.12047" lon="6.6403">
        <ele>961.8</ele>
        <time>2021-07-29T08:52:05Z</time>
      </trkpt>
      <trkpt lat="47.12047" lon="6.6403">
        <ele>961.8</ele>
        <time>2021-07-29T08:52:06Z</time>
      </trkpt>
      <trkpt lat="47.12047" lon="6.64029">
        <ele>961.8</ele>
        <time>2021-07-29T08:52:07Z</time>
      </trkpt>
      <trkpt lat="47.12047" lon="6.64029">
        <ele>962</ele>
        <time>2021-07-29T08:52:08Z</time>
      </trkpt>
      <trkpt lat="47.12047" lon="6.64029">
        <ele>962</ele>
        <time>2021-07-29T08:52:09Z</time>
      </trkpt>
      <trkpt lat="47.12047" lon="6.64029">
        <ele>962</ele>
        <time>2021-07-29T08:52:10Z</time>
      </trkpt>
      <trkpt lat="47.12039" lon="6.6402">
        <ele>962.6</ele>
        <time>2021-07-29T08:52:57Z</time>
      </trkpt>
      <trkpt lat="47.12039" lon="6.64017">
        <ele>962.6</ele>
        <time>2021-07-29T08:52:58Z</time>
      </trkpt>
      <trkpt lat="47.1204" lon="6.64014">
        <ele>962.6</ele>
        <time>2021-07-29T08:52:59Z</time>
      </trkpt>
      <trkpt lat="47.12041" lon="6.64012">
        <ele>962.8</ele>
        <time>2021-07-29T08:53:00Z</time>
      </trkpt>
      <trkpt lat="47.12043" lon="6.6401">
        <ele>962.8</ele>
        <time>2021-07-29T08:53:01Z</time>
      </trkpt>
      <trkpt lat="47.12044" lon="6.64008">
        <ele>963</ele>
        <time>2021-07-29T08:53:02Z</time>
      </trkpt>
      <trkpt lat="47.12045" lon="6.64006">
        <ele>963.4</ele>
        <time>2021-07-29T08:53:03Z</time>
      </trkpt>
      <trkpt lat="47.12046" lon="6.64004">
        <ele>963.6</ele>
        <time>2021-07-29T08:53:04Z</time>
      </trkpt>
      <trkpt lat="47.12046" lon="6.64002">
        <ele>963.6</ele>
        <time>2021-07-29T08:53:05Z</time>
      </trkpt>
      <trkpt lat="47.12045" lon="6.63998">
        <ele>963.6</ele>
        <time>2021-07-29T08:53:06Z</time>
      </trkpt>
      <trkpt lat="47.12045" lon="6.63995">
        <ele>963.6</ele>
        <time>2021-07-29T08:53:07Z</time>
      </trkpt>
      <trkpt lat="47.12045" lon="6.63993">
        <ele>963.8</ele>
        <time>2021-07-29T08:53:08Z</time>
      </trkpt>
      <trkpt lat="47.12045" lon="6.6399">
        <ele>963.8</ele>
        <time>2021-07-29T08:53:09Z</time>
      </trkpt>
      <trkpt lat="47.12044" lon="6.63987">
        <ele>964</ele>
        <time>2021-07-29T08:53:10Z</time>
      </trkpt>
      <trkpt lat="47.12044" lon="6.63985">
        <ele>964</ele>
        <time>2021-07-29T08:53:11Z</time>
      </trkpt>
      <trkpt lat="47.12042" lon="6.63981">
        <ele>964.2</ele>
        <time>2021-07-29T08:53:12Z</time>
      </trkpt>
      <trkpt lat="47.12041" lon="6.63978">
        <ele>964.2</ele>
        <time>2021-07-29T08:53:13Z</time>
      </trkpt>
      <trkpt lat="47.12041" lon="6.63975">
        <ele>964.4</ele>
        <time>2021-07-29T08:53:14Z</time>
      </trkpt>
      <trkpt lat="47.1204" lon="6.63972">
        <ele>964.4</ele>
        <time>2021-07-29T08:53:15Z</time>
      </trkpt>
      <trkpt lat="47.1204" lon="6.63969">
        <ele>964.6</ele>
        <time>2021-07-29T08:53:16Z</time>
      </trkpt>
      <trkpt lat="47.12039" lon="6.63966">
        <ele>964.6</ele>
        <time>2021-07-29T08:53:17Z</time>
      </trkpt>
      <trkpt lat="47.12038" lon="6.63963">
        <ele>964.6</ele>
        <time>2021-07-29T08:53:18Z</time>
      </trkpt>
      <trkpt lat="47.12037" lon="6.6396">
        <ele>964.8</ele>
        <time>2021-07-29T08:53:19Z</time>
      </trkpt>
      <trkpt lat="47.12036" lon="6.63957">
        <ele>965</ele>
        <time>2021-07-29T08:53:20Z</time>
      </trkpt>
      <trkpt lat="47.12036" lon="6.63954">
        <ele>965.2</ele>
        <time>2021-07-29T08:53:21Z</time>
      </trkpt>
      <trkpt lat="47.12035" lon="6.63951">
        <ele>965.2</ele>
        <time>2021-07-29T08:53:22Z</time>
      </trkpt>
      <trkpt lat="47.12034" lon="6.63947">
        <ele>965.4</ele>
        <time>2021-07-29T08:53:23Z</time>
      </trkpt>
      <trkpt lat="47.12033" lon="6.63944">
        <ele>965.4</ele>
        <time>2021-07-29T08:53:24Z</time>
      </trkpt>
      <trkpt lat="47.12032" lon="6.6394">
        <ele>965.6</ele>
        <time>2021-07-29T08:53:25Z</time>
      </trkpt>
      <trkpt lat="47.12031" lon="6.63936">
        <ele>965.6</ele>
        <time>2021-07-29T08:53:26Z</time>
      </trkpt>
      <trkpt lat="47.1203" lon="6.63931">
        <ele>965.8</ele>
        <time>2021-07-29T08:53:27Z</time>
      </trkpt>
      <trkpt lat="47.12028" lon="6.63927">
        <ele>966</ele>
        <time>2021-07-29T08:53:28Z</time>
      </trkpt>
      <trkpt lat="47.12027" lon="6.63923">
        <ele>966.2</ele>
        <time>2021-07-29T08:53:29Z</time>
      </trkpt>
      <trkpt lat="47.12026" lon="6.63918">
        <ele>966.4</ele>
        <time>2021-07-29T08:53:30Z</time>
      </trkpt>
      <trkpt lat="47.12025" lon="6.63914">
        <ele>966.4</ele>
        <time>2021-07-29T08:53:31Z</time>
      </trkpt>
      <trkpt lat="47.12024" lon="6.6391">
        <ele>966.6</ele>
        <time>2021-07-29T08:53:32Z</time>
      </trkpt>
      <trkpt lat="47.12023" lon="6.63906">
        <ele>966.8</ele>
        <time>2021-07-29T08:53:33Z</time>
      </trkpt>
      <trkpt lat="47.12022" lon="6.63902">
        <ele>967</ele>
        <time>2021-07-29T08:53:34Z</time>
      </trkpt>
      <trkpt lat="47.12021" lon="6.63897">
        <ele>967</ele>
        <time>2021-07-29T08:53:35Z</time>
      </trkpt>
      <trkpt lat="47.1202" lon="6.63893">
        <ele>967.2</ele>
        <time>2021-07-29T08:53:36Z</time>
      </trkpt>
      <trkpt lat="47.12019" lon="6.63889">
        <ele>967.4</ele>
        <time>2021-07-29T08:53:37Z</time>
      </trkpt>
      <trkpt lat="47.12018" lon="6.63885">
        <ele>967.6</ele>
        <time>2021-07-29T08:53:38Z</time>
      </trkpt>
      <trkpt lat="47.12017" lon="6.63881">
        <ele>967.6</ele>
        <time>2021-07-29T08:53:39Z</time>
      </trkpt>
      <trkpt lat="47.12016" lon="6.63876">
        <ele>967.8</ele>
        <time>2021-07-29T08:53:40Z</time>
      </trkpt>
      <trkpt lat="47.12015" lon="6.63872">
        <ele>968</ele>
        <time>2021-07-29T08:53:41Z</time>
      </trkpt>
      <trkpt lat="47.12014" lon="6.63868">
        <ele>968.2</ele>
        <time>2021-07-29T08:53:42Z</time>
      </trkpt>
      <trkpt lat="47.12012" lon="6.63863">
        <ele>968.2</ele>
        <time>2021-07-29T08:53:43Z</time>
      </trkpt>
      <trkpt lat="47.12011" lon="6.63859">
        <ele>968.4</ele>
        <time>2021-07-29T08:53:44Z</time>
      </trkpt>
      <trkpt lat="47.1201" lon="6.63855">
        <ele>968.4</ele>
        <time>2021-07-29T08:53:45Z</time>
      </trkpt>
      <trkpt lat="47.12009" lon="6.6385">
        <ele>968.6</ele>
        <time>2021-07-29T08:53:46Z</time>
      </trkpt>
      <trkpt lat="47.12008" lon="6.63846">
        <ele>968.6</ele>
        <time>2021-07-29T08:53:47Z</time>
      </trkpt>
      <trkpt lat="47.12007" lon="6.63842">
        <ele>968.8</ele>
        <time>2021-07-29T08:53:48Z</time>
      </trkpt>
      <trkpt lat="47.12006" lon="6.63837">
        <ele>968.8</ele>
        <time>2021-07-29T08:53:49Z</time>
      </trkpt>
      <trkpt lat="47.12005" lon="6.63833">
        <ele>968.8</ele>
        <time>2021-07-29T08:53:50Z</time>
      </trkpt>
      <trkpt lat="47.12004" lon="6.63829">
        <ele>969</ele>
        <time>2021-07-29T08:53:51Z</time>
      </trkpt>
      <trkpt lat="47.12003" lon="6.63825">
        <ele>969.2</ele>
        <time>2021-07-29T08:53:52Z</time>
      </trkpt>
      <trkpt lat="47.12002" lon="6.63821">
        <ele>969.2</ele>
        <time>2021-07-29T08:53:53Z</time>
      </trkpt>
      <trkpt lat="47.12001" lon="6.63817">
        <ele>969.4</ele>
        <time>2021-07-29T08:53:54Z</time>
      </trkpt>
      <trkpt lat="47.11999" lon="6.63814">
        <ele>969.4</ele>
        <time>2021-07-29T08:53:55Z</time>
      </trkpt>
      <trkpt lat="47.11998" lon="6.6381">
        <ele>969.6</ele>
        <time>2021-07-29T08:53:56Z</time>
      </trkpt>
      <trkpt lat="47.11997" lon="6.63807">
        <ele>969.6</ele>
        <time>2021-07-29T08:53:57Z</time>
      </trkpt>
      <trkpt lat="47.11995" lon="6.63803">
        <ele>969.8</ele>
        <time>2021-07-29T08:53:58Z</time>
      </trkpt>
      <trkpt lat="47.11994" lon="6.638">
        <ele>969.8</ele>
        <time>2021-07-29T08:53:59Z</time>
      </trkpt>
      <trkpt lat="47.11993" lon="6.63796">
        <ele>970</ele>
        <time>2021-07-29T08:54:00Z</time>
      </trkpt>
      <trkpt lat="47.11992" lon="6.63793">
        <ele>970.2</ele>
        <time>2021-07-29T08:54:01Z</time>
      </trkpt>
      <trkpt lat="47.11991" lon="6.63789">
        <ele>970.2</ele>
        <time>2021-07-29T08:54:02Z</time>
      </trkpt>
      <trkpt lat="47.1199" lon="6.63786">
        <ele>970.4</ele>
        <time>2021-07-29T08:54:03Z</time>
      </trkpt>
      <trkpt lat="47.11989" lon="6.63782">
        <ele>970.4</ele>
        <time>2021-07-29T08:54:04Z</time>
      </trkpt>
      <trkpt lat="47.11987" lon="6.63778">
        <ele>970.6</ele>
        <time>2021-07-29T08:54:05Z</time>
      </trkpt>
      <trkpt lat="47.11986" lon="6.63774">
        <ele>970.8</ele>
        <time>2021-07-29T08:54:06Z</time>
      </trkpt>
      <trkpt lat="47.11985" lon="6.63771">
        <ele>971</ele>
        <time>2021-07-29T08:54:07Z</time>
      </trkpt>
      <trkpt lat="47.11984" lon="6.63767">
        <ele>971.2</ele>
        <time>2021-07-29T08:54:08Z</time>
      </trkpt>
      <trkpt lat="47.11983" lon="6.63763">
        <ele>971.4</ele>
        <time>2021-07-29T08:54:09Z</time>
      </trkpt>
      <trkpt lat="47.11982" lon="6.63759">
        <ele>971.4</ele>
        <time>2021-07-29T08:54:10Z</time>
      </trkpt>
      <trkpt lat="47.1198" lon="6.63755">
        <ele>971.4</ele>
        <time>2021-07-29T08:54:11Z</time>
      </trkpt>
      <trkpt lat="47.11979" lon="6.63751">
        <ele>971.6</ele>
        <time>2021-07-29T08:54:12Z</time>
      </trkpt>
      <trkpt lat="47.11978" lon="6.63747">
        <ele>971.8</ele>
        <time>2021-07-29T08:54:13Z</time>
      </trkpt>
      <trkpt lat="47.11977" lon="6.63743">
        <ele>972</ele>
        <time>2021-07-29T08:54:14Z</time>
      </trkpt>
      <trkpt lat="47.11976" lon="6.63739">
        <ele>972.2</ele>
        <time>2021-07-29T08:54:15Z</time>
      </trkpt>
      <trkpt lat="47.11975" lon="6.63736">
        <ele>972.2</ele>
        <time>2021-07-29T08:54:16Z</time>
      </trkpt>
      <trkpt lat="47.11973" lon="6.63732">
        <ele>972.4</ele>
        <time>2021-07-29T08:54:17Z</time>
      </trkpt>
      <trkpt lat="47.11972" lon="6.63729">
        <ele>972.6</ele>
        <time>2021-07-29T08:54:18Z</time>
      </trkpt>
      <trkpt lat="47.11971" lon="6.63725">
        <ele>972.6</ele>
        <time>2021-07-29T08:54:19Z</time>
      </trkpt>
      <trkpt lat="47.1197" lon="6.63722">
        <ele>972.6</ele>
        <time>2021-07-29T08:54:20Z</time>
      </trkpt>
      <trkpt lat="47.11968" lon="6.63719">
        <ele>972.8</ele>
        <time>2021-07-29T08:54:21Z</time>
      </trkpt>
      <trkpt lat="47.11967" lon="6.63716">
        <ele>973</ele>
        <time>2021-07-29T08:54:22Z</time>
      </trkpt>
      <trkpt lat="47.11965" lon="6.63712">
        <ele>973.2</ele>
        <time>2021-07-29T08:54:23Z</time>
      </trkpt>
      <trkpt lat="47.11964" lon="6.63709">
        <ele>973.2</ele>
        <time>2021-07-29T08:54:24Z</time>
      </trkpt>
      <trkpt lat="47.11962" lon="6.63706">
        <ele>973.2</ele>
        <time>2021-07-29T08:54:25Z</time>
      </trkpt>
      <trkpt lat="47.11961" lon="6.63703">
        <ele>973.4</ele>
        <time>2021-07-29T08:54:26Z</time>
      </trkpt>
      <trkpt lat="47.11959" lon="6.637">
        <ele>973.6</ele>
        <time>2021-07-29T08:54:27Z</time>
      </trkpt>
      <trkpt lat="47.11958" lon="6.63697">
        <ele>973.8</ele>
        <time>2021-07-29T08:54:28Z</time>
      </trkpt>
      <trkpt lat="47.11955" lon="6.63694">
        <ele>973.8</ele>
        <time>2021-07-29T08:54:29Z</time>
      </trkpt>
      <trkpt lat="47.11953" lon="6.63691">
        <ele>974</ele>
        <time>2021-07-29T08:54:30Z</time>
      </trkpt>
      <trkpt lat="47.1195" lon="6.63689">
        <ele>974</ele>
        <time>2021-07-29T08:54:31Z</time>
      </trkpt>
      <trkpt lat="47.11948" lon="6.63687">
        <ele>974</ele>
        <time>2021-07-29T08:54:32Z</time>
      </trkpt>
      <trkpt lat="47.11946" lon="6.63685">
        <ele>974.2</ele>
        <time>2021-07-29T08:54:33Z</time>
      </trkpt>
      <trkpt lat="47.11943" lon="6.63683">
        <ele>974.4</ele>
        <time>2021-07-29T08:54:34Z</time>
      </trkpt>
      <trkpt lat="47.1194" lon="6.6368">
        <ele>974.6</ele>
        <time>2021-07-29T08:54:35Z</time>
      </trkpt>
      <trkpt lat="47.11938" lon="6.63679">
        <ele>974.6</ele>
        <time>2021-07-29T08:54:36Z</time>
      </trkpt>
      <trkpt lat="47.11935" lon="6.63677">
        <ele>974.8</ele>
        <time>2021-07-29T08:54:37Z</time>
      </trkpt>
      <trkpt lat="47.11933" lon="6.63675">
        <ele>974.8</ele>
        <time>2021-07-29T08:54:38Z</time>
      </trkpt>
      <trkpt lat="47.1193" lon="6.63673">
        <ele>975</ele>
        <time>2021-07-29T08:54:39Z</time>
      </trkpt>
      <trkpt lat="47.11928" lon="6.63671">
        <ele>975.2</ele>
        <time>2021-07-29T08:54:40Z</time>
      </trkpt>
      <trkpt lat="47.11926" lon="6.63668">
        <ele>975.4</ele>
        <time>2021-07-29T08:54:41Z</time>
      </trkpt>
      <trkpt lat="47.11923" lon="6.63666">
        <ele>975.6</ele>
        <time>2021-07-29T08:54:42Z</time>
      </trkpt>
      <trkpt lat="47.11921" lon="6.63664">
        <ele>975.8</ele>
        <time>2021-07-29T08:54:43Z</time>
      </trkpt>
      <trkpt lat="47.11918" lon="6.63662">
        <ele>976</ele>
        <time>2021-07-29T08:54:44Z</time>
      </trkpt>
      <trkpt lat="47.11916" lon="6.6366">
        <ele>976.2</ele>
        <time>2021-07-29T08:54:45Z</time>
      </trkpt>
      <trkpt lat="47.11914" lon="6.63658">
        <ele>976.4</ele>
        <time>2021-07-29T08:54:46Z</time>
      </trkpt>
      <trkpt lat="47.11911" lon="6.63656">
        <ele>976.4</ele>
        <time>2021-07-29T08:54:47Z</time>
      </trkpt>
      <trkpt lat="47.11909" lon="6.63654">
        <ele>976.8</ele>
        <time>2021-07-29T08:54:48Z</time>
      </trkpt>
      <trkpt lat="47.11907" lon="6.63651">
        <ele>977</ele>
        <time>2021-07-29T08:54:49Z</time>
      </trkpt>
      <trkpt lat="47.11905" lon="6.63649">
        <ele>977</ele>
        <time>2021-07-29T08:54:50Z</time>
      </trkpt>
      <trkpt lat="47.11903" lon="6.63647">
        <ele>977.2</ele>
        <time>2021-07-29T08:54:51Z</time>
      </trkpt>
      <trkpt lat="47.119" lon="6.63645">
        <ele>977.2</ele>
        <time>2021-07-29T08:54:52Z</time>
      </trkpt>
      <trkpt lat="47.11898" lon="6.63643">
        <ele>977.4</ele>
        <time>2021-07-29T08:54:53Z</time>
      </trkpt>
      <trkpt lat="47.11895" lon="6.63641">
        <ele>977.6</ele>
        <time>2021-07-29T08:54:54Z</time>
      </trkpt>
      <trkpt lat="47.11893" lon="6.63639">
        <ele>977.8</ele>
        <time>2021-07-29T08:54:55Z</time>
      </trkpt>
      <trkpt lat="47.11891" lon="6.63637">
        <ele>978</ele>
        <time>2021-07-29T08:54:56Z</time>
      </trkpt>
      <trkpt lat="47.11888" lon="6.63635">
        <ele>978</ele>
        <time>2021-07-29T08:54:57Z</time>
      </trkpt>
      <trkpt lat="47.11886" lon="6.63632">
        <ele>978.4</ele>
        <time>2021-07-29T08:54:58Z</time>
      </trkpt>
      <trkpt lat="47.11884" lon="6.63631">
        <ele>978.8</ele>
        <time>2021-07-29T08:54:59Z</time>
      </trkpt>
      <trkpt lat="47.11881" lon="6.63629">
        <ele>979</ele>
        <time>2021-07-29T08:55:00Z</time>
      </trkpt>
      <trkpt lat="47.1188" lon="6.63627">
        <ele>979</ele>
        <time>2021-07-29T08:55:01Z</time>
      </trkpt>
      <trkpt lat="47.11878" lon="6.63625">
        <ele>979</ele>
        <time>2021-07-29T08:55:02Z</time>
      </trkpt>
      <trkpt lat="47.11876" lon="6.63623">
        <ele>979.2</ele>
        <time>2021-07-29T08:55:03Z</time>
      </trkpt>
      <trkpt lat="47.11874" lon="6.63621">
        <ele>979.2</ele>
        <time>2021-07-29T08:55:04Z</time>
      </trkpt>
      <trkpt lat="47.11873" lon="6.63619">
        <ele>979.4</ele>
        <time>2021-07-29T08:55:05Z</time>
      </trkpt>
      <trkpt lat="47.11871" lon="6.63618">
        <ele>979.6</ele>
        <time>2021-07-29T08:55:06Z</time>
      </trkpt>
      <trkpt lat="47.1187" lon="6.63617">
        <ele>979.6</ele>
        <time>2021-07-29T08:55:07Z</time>
      </trkpt>
      <trkpt lat="47.11868" lon="6.63615">
        <ele>979.8</ele>
        <time>2021-07-29T08:55:08Z</time>
      </trkpt>
      <trkpt lat="47.11866" lon="6.63614">
        <ele>979.8</ele>
        <time>2021-07-29T08:55:09Z</time>
      </trkpt>
      <trkpt lat="47.11865" lon="6.63612">
        <ele>980</ele>
        <time>2021-07-29T08:55:10Z</time>
      </trkpt>
      <trkpt lat="47.11863" lon="6.63611">
        <ele>980.2</ele>
        <time>2021-07-29T08:55:11Z</time>
      </trkpt>
      <trkpt lat="47.11861" lon="6.63609">
        <ele>980.4</ele>
        <time>2021-07-29T08:55:12Z</time>
      </trkpt>
      <trkpt lat="47.11859" lon="6.63608">
        <ele>980.4</ele>
        <time>2021-07-29T08:55:13Z</time>
      </trkpt>
      <trkpt lat="47.11857" lon="6.63607">
        <ele>980.6</ele>
        <time>2021-07-29T08:55:14Z</time>
      </trkpt>
      <trkpt lat="47.11855" lon="6.63606">
        <ele>980.6</ele>
        <time>2021-07-29T08:55:15Z</time>
      </trkpt>
      <trkpt lat="47.11853" lon="6.63604">
        <ele>980.8</ele>
        <time>2021-07-29T08:55:16Z</time>
      </trkpt>
      <trkpt lat="47.11851" lon="6.63603">
        <ele>981</ele>
        <time>2021-07-29T08:55:17Z</time>
      </trkpt>
      <trkpt lat="47.11849" lon="6.63601">
        <ele>981.2</ele>
        <time>2021-07-29T08:55:18Z</time>
      </trkpt>
      <trkpt lat="47.11846" lon="6.636">
        <ele>981.4</ele>
        <time>2021-07-29T08:55:19Z</time>
      </trkpt>
      <trkpt lat="47.11844" lon="6.63598">
        <ele>981.6</ele>
        <time>2021-07-29T08:55:20Z</time>
      </trkpt>
      <trkpt lat="47.11842" lon="6.63596">
        <ele>981.6</ele>
        <time>2021-07-29T08:55:21Z</time>
      </trkpt>
      <trkpt lat="47.1184" lon="6.63593">
        <ele>981.8</ele>
        <time>2021-07-29T08:55:22Z</time>
      </trkpt>
      <trkpt lat="47.11838" lon="6.63591">
        <ele>982</ele>
        <time>2021-07-29T08:55:23Z</time>
      </trkpt>
      <trkpt lat="47.11837" lon="6.63588">
        <ele>982</ele>
        <time>2021-07-29T08:55:24Z</time>
      </trkpt>
      <trkpt lat="47.11836" lon="6.63585">
        <ele>982.2</ele>
        <time>2021-07-29T08:55:25Z</time>
      </trkpt>
      <trkpt lat="47.11835" lon="6.63582">
        <ele>982.4</ele>
        <time>2021-07-29T08:55:26Z</time>
      </trkpt>
      <trkpt lat="47.11834" lon="6.63579">
        <ele>982.4</ele>
        <time>2021-07-29T08:55:27Z</time>
      </trkpt>
      <trkpt lat="47.11834" lon="6.63576">
        <ele>982.6</ele>
        <time>2021-07-29T08:55:28Z</time>
      </trkpt>
      <trkpt lat="47.11835" lon="6.63573">
        <ele>982.6</ele>
        <time>2021-07-29T08:55:29Z</time>
      </trkpt>
      <trkpt lat="47.11836" lon="6.6357">
        <ele>982.6</ele>
        <time>2021-07-29T08:55:30Z</time>
      </trkpt>
      <trkpt lat="47.11836" lon="6.63568">
        <ele>982.8</ele>
        <time>2021-07-29T08:55:31Z</time>
      </trkpt>
      <trkpt lat="47.11838" lon="6.63565">
        <ele>982.8</ele>
        <time>2021-07-29T08:55:32Z</time>
      </trkpt>
      <trkpt lat="47.1184" lon="6.63564">
        <ele>983</ele>
        <time>2021-07-29T08:55:33Z</time>
      </trkpt>
      <trkpt lat="47.11842" lon="6.63562">
        <ele>983</ele>
        <time>2021-07-29T08:55:34Z</time>
      </trkpt>
      <trkpt lat="47.11843" lon="6.6356">
        <ele>983.4</ele>
        <time>2021-07-29T08:55:35Z</time>
      </trkpt>
      <trkpt lat="47.11845" lon="6.63558">
        <ele>983.6</ele>
        <time>2021-07-29T08:55:36Z</time>
      </trkpt>
      <trkpt lat="47.11846" lon="6.63556">
        <ele>983.8</ele>
        <time>2021-07-29T08:55:37Z</time>
      </trkpt>
      <trkpt lat="47.11848" lon="6.63555">
        <ele>983.8</ele>
        <time>2021-07-29T08:55:38Z</time>
      </trkpt>
      <trkpt lat="47.1185" lon="6.63555">
        <ele>984</ele>
        <time>2021-07-29T08:55:39Z</time>
      </trkpt>
      <trkpt lat="47.11852" lon="6.63555">
        <ele>984.2</ele>
        <time>2021-07-29T08:55:40Z</time>
      </trkpt>
      <trkpt lat="47.11854" lon="6.63554">
        <ele>984.2</ele>
        <time>2021-07-29T08:55:41Z</time>
      </trkpt>
      <trkpt lat="47.11855" lon="6.63554">
        <ele>984.2</ele>
        <time>2021-07-29T08:55:42Z</time>
      </trkpt>
      <trkpt lat="47.11857" lon="6.63553">
        <ele>984.2</ele>
        <time>2021-07-29T08:55:43Z</time>
      </trkpt>
      <trkpt lat="47.11859" lon="6.63553">
        <ele>984.4</ele>
        <time>2021-07-29T08:55:44Z</time>
      </trkpt>
      <trkpt lat="47.11861" lon="6.63553">
        <ele>984.4</ele>
        <time>2021-07-29T08:55:45Z</time>
      </trkpt>
      <trkpt lat="47.11862" lon="6.63552">
        <ele>984.4</ele>
        <time>2021-07-29T08:55:46Z</time>
      </trkpt>
      <trkpt lat="47.11864" lon="6.63551">
        <ele>984.6</ele>
        <time>2021-07-29T08:55:47Z</time>
      </trkpt>
      <trkpt lat="47.11866" lon="6.6355">
        <ele>984.8</ele>
        <time>2021-07-29T08:55:48Z</time>
      </trkpt>
      <trkpt lat="47.11867" lon="6.63549">
        <ele>985</ele>
        <time>2021-07-29T08:55:49Z</time>
      </trkpt>
      <trkpt lat="47.11869" lon="6.63548">
        <ele>985.4</ele>
        <time>2021-07-29T08:55:50Z</time>
      </trkpt>
      <trkpt lat="47.11871" lon="6.63546">
        <ele>985.4</ele>
        <time>2021-07-29T08:55:51Z</time>
      </trkpt>
      <trkpt lat="47.11873" lon="6.63545">
        <ele>985.6</ele>
        <time>2021-07-29T08:55:52Z</time>
      </trkpt>
      <trkpt lat="47.11874" lon="6.63544">
        <ele>985.8</ele>
        <time>2021-07-29T08:55:53Z</time>
      </trkpt>
      <trkpt lat="47.11876" lon="6.63542">
        <ele>985.8</ele>
        <time>2021-07-29T08:55:54Z</time>
      </trkpt>
      <trkpt lat="47.11877" lon="6.63541">
        <ele>985.8</ele>
        <time>2021-07-29T08:55:55Z</time>
      </trkpt>
      <trkpt lat="47.11879" lon="6.63539">
        <ele>986</ele>
        <time>2021-07-29T08:55:56Z</time>
      </trkpt>
      <trkpt lat="47.1188" lon="6.63538">
        <ele>986.4</ele>
        <time>2021-07-29T08:55:57Z</time>
      </trkpt>
      <trkpt lat="47.11882" lon="6.63537">
        <ele>986.2</ele>
        <time>2021-07-29T08:55:58Z</time>
      </trkpt>
      <trkpt lat="47.11883" lon="6.63536">
        <ele>986.4</ele>
        <time>2021-07-29T08:55:59Z</time>
      </trkpt>
      <trkpt lat="47.11885" lon="6.63535">
        <ele>986.4</ele>
        <time>2021-07-29T08:56:00Z</time>
      </trkpt>
      <trkpt lat="47.11887" lon="6.63535">
        <ele>986.6</ele>
        <time>2021-07-29T08:56:01Z</time>
      </trkpt>
      <trkpt lat="47.11888" lon="6.63534">
        <ele>986.8</ele>
        <time>2021-07-29T08:56:02Z</time>
      </trkpt>
      <trkpt lat="47.1189" lon="6.63533">
        <ele>986.8</ele>
        <time>2021-07-29T08:56:03Z</time>
      </trkpt>
      <trkpt lat="47.11892" lon="6.63533">
        <ele>987</ele>
        <time>2021-07-29T08:56:04Z</time>
      </trkpt>
      <trkpt lat="47.11893" lon="6.63531">
        <ele>987.2</ele>
        <time>2021-07-29T08:56:05Z</time>
      </trkpt>
      <trkpt lat="47.11894" lon="6.6353">
        <ele>987.2</ele>
        <time>2021-07-29T08:56:06Z</time>
      </trkpt>
      <trkpt lat="47.11896" lon="6.63528">
        <ele>987.4</ele>
        <time>2021-07-29T08:56:07Z</time>
      </trkpt>
      <trkpt lat="47.11897" lon="6.63527">
        <ele>987.4</ele>
        <time>2021-07-29T08:56:08Z</time>
      </trkpt>
      <trkpt lat="47.11898" lon="6.63525">
        <ele>987.6</ele>
        <time>2021-07-29T08:56:09Z</time>
      </trkpt>
      <trkpt lat="47.119" lon="6.63523">
        <ele>987.8</ele>
        <time>2021-07-29T08:56:10Z</time>
      </trkpt>
      <trkpt lat="47.11902" lon="6.63522">
        <ele>988</ele>
        <time>2021-07-29T08:56:11Z</time>
      </trkpt>
      <trkpt lat="47.11903" lon="6.63521">
        <ele>988</ele>
        <time>2021-07-29T08:56:12Z</time>
      </trkpt>
      <trkpt lat="47.11905" lon="6.6352">
        <ele>988.2</ele>
        <time>2021-07-29T08:56:13Z</time>
      </trkpt>
      <trkpt lat="47.11907" lon="6.63519">
        <ele>988.2</ele>
        <time>2021-07-29T08:56:14Z</time>
      </trkpt>
      <trkpt lat="47.11908" lon="6.63517">
        <ele>988.4</ele>
        <time>2021-07-29T08:56:15Z</time>
      </trkpt>
      <trkpt lat="47.1191" lon="6.63516">
        <ele>988.4</ele>
        <time>2021-07-29T08:56:16Z</time>
      </trkpt>
      <trkpt lat="47.11911" lon="6.63514">
        <ele>988.4</ele>
        <time>2021-07-29T08:56:17Z</time>
      </trkpt>
      <trkpt lat="47.11913" lon="6.63512">
        <ele>988.6</ele>
        <time>2021-07-29T08:56:18Z</time>
      </trkpt>
      <trkpt lat="47.11914" lon="6.6351">
        <ele>988.6</ele>
        <time>2021-07-29T08:56:19Z</time>
      </trkpt>
      <trkpt lat="47.11915" lon="6.63507">
        <ele>988.6</ele>
        <time>2021-07-29T08:56:20Z</time>
      </trkpt>
      <trkpt lat="47.11917" lon="6.63505">
        <ele>988.6</ele>
        <time>2021-07-29T08:56:21Z</time>
      </trkpt>
      <trkpt lat="47.11918" lon="6.63503">
        <ele>988.6</ele>
        <time>2021-07-29T08:56:22Z</time>
      </trkpt>
      <trkpt lat="47.1192" lon="6.63502">
        <ele>988.8</ele>
        <time>2021-07-29T08:56:23Z</time>
      </trkpt>
      <trkpt lat="47.11921" lon="6.635">
        <ele>988.8</ele>
        <time>2021-07-29T08:56:24Z</time>
      </trkpt>
      <trkpt lat="47.11923" lon="6.635">
        <ele>988.8</ele>
        <time>2021-07-29T08:56:25Z</time>
      </trkpt>
      <trkpt lat="47.11925" lon="6.63498">
        <ele>988.8</ele>
        <time>2021-07-29T08:56:26Z</time>
      </trkpt>
      <trkpt lat="47.11926" lon="6.63497">
        <ele>989</ele>
        <time>2021-07-29T08:56:27Z</time>
      </trkpt>
      <trkpt lat="47.11927" lon="6.63495">
        <ele>989</ele>
        <time>2021-07-29T08:56:28Z</time>
      </trkpt>
      <trkpt lat="47.11928" lon="6.63493">
        <ele>989</ele>
        <time>2021-07-29T08:56:29Z</time>
      </trkpt>
      <trkpt lat="47.1193" lon="6.63491">
        <ele>989</ele>
        <time>2021-07-29T08:56:30Z</time>
      </trkpt>
      <trkpt lat="47.11932" lon="6.63489">
        <ele>989</ele>
        <time>2021-07-29T08:56:31Z</time>
      </trkpt>
      <trkpt lat="47.11934" lon="6.63488">
        <ele>989</ele>
        <time>2021-07-29T08:56:32Z</time>
      </trkpt>
      <trkpt lat="47.11935" lon="6.63486">
        <ele>989.2</ele>
        <time>2021-07-29T08:56:33Z</time>
      </trkpt>
      <trkpt lat="47.11937" lon="6.63484">
        <ele>989.4</ele>
        <time>2021-07-29T08:56:34Z</time>
      </trkpt>
      <trkpt lat="47.11939" lon="6.63481">
        <ele>989.4</ele>
        <time>2021-07-29T08:56:35Z</time>
      </trkpt>
      <trkpt lat="47.1194" lon="6.63479">
        <ele>989.6</ele>
        <time>2021-07-29T08:56:36Z</time>
      </trkpt>
      <trkpt lat="47.11942" lon="6.63478">
        <ele>989.6</ele>
        <time>2021-07-29T08:56:37Z</time>
      </trkpt>
      <trkpt lat="47.11943" lon="6.63479">
        <ele>989.6</ele>
        <time>2021-07-29T08:56:38Z</time>
      </trkpt>
      <trkpt lat="47.11945" lon="6.63481">
        <ele>989.6</ele>
        <time>2021-07-29T08:56:39Z</time>
      </trkpt>
      <trkpt lat="47.11945" lon="6.63481">
        <ele>989.6</ele>
        <time>2021-07-29T08:56:40Z</time>
      </trkpt>
      <trkpt lat="47.11946" lon="6.63482">
        <ele>989.8</ele>
        <time>2021-07-29T08:56:41Z</time>
      </trkpt>
      <trkpt lat="47.11947" lon="6.63483">
        <ele>989.8</ele>
        <time>2021-07-29T08:56:42Z</time>
      </trkpt>
      <trkpt lat="47.11947" lon="6.63483">
        <ele>989.8</ele>
        <time>2021-07-29T08:56:43Z</time>
      </trkpt>
      <trkpt lat="47.11947" lon="6.63483">
        <ele>989.6</ele>
        <time>2021-07-29T08:56:44Z</time>
      </trkpt>
      <trkpt lat="47.11947" lon="6.63484">
        <ele>989.6</ele>
        <time>2021-07-29T08:56:45Z</time>
      </trkpt>
      <trkpt lat="47.11948" lon="6.63484">
        <ele>989.6</ele>
        <time>2021-07-29T08:56:46Z</time>
      </trkpt>
      <trkpt lat="47.11948" lon="6.63484">
        <ele>989.6</ele>
        <time>2021-07-29T08:56:47Z</time>
      </trkpt>
      <trkpt lat="47.11948" lon="6.63484">
        <ele>989.6</ele>
        <time>2021-07-29T08:56:48Z</time>
      </trkpt>
      <trkpt lat="47.11948" lon="6.63484">
        <ele>989.8</ele>
        <time>2021-07-29T08:56:49Z</time>
      </trkpt>
      <trkpt lat="47.11948" lon="6.63484">
        <ele>990</ele>
        <time>2021-07-29T08:56:50Z</time>
      </trkpt>
      <trkpt lat="47.1195" lon="6.63462">
        <ele>991.2</ele>
        <time>2021-07-29T09:01:00Z</time>
      </trkpt>
      <trkpt lat="47.11951" lon="6.6346">
        <ele>991</ele>
        <time>2021-07-29T09:01:01Z</time>
      </trkpt>
      <trkpt lat="47.11953" lon="6.63458">
        <ele>991</ele>
        <time>2021-07-29T09:01:02Z</time>
      </trkpt>
      <trkpt lat="47.11954" lon="6.63456">
        <ele>990.2</ele>
        <time>2021-07-29T09:01:03Z</time>
      </trkpt>
      <trkpt lat="47.11955" lon="6.63454">
        <ele>990.2</ele>
        <time>2021-07-29T09:01:04Z</time>
      </trkpt>
      <trkpt lat="47.11956" lon="6.63452">
        <ele>991.8</ele>
        <time>2021-07-29T09:01:05Z</time>
      </trkpt>
      <trkpt lat="47.11957" lon="6.63449">
        <ele>991.8</ele>
        <time>2021-07-29T09:01:06Z</time>
      </trkpt>
      <trkpt lat="47.11957" lon="6.63447">
        <ele>991.8</ele>
        <time>2021-07-29T09:01:07Z</time>
      </trkpt>
      <trkpt lat="47.11957" lon="6.63444">
        <ele>992</ele>
        <time>2021-07-29T09:01:08Z</time>
      </trkpt>
      <trkpt lat="47.11958" lon="6.63442">
        <ele>992.2</ele>
        <time>2021-07-29T09:01:09Z</time>
      </trkpt>
      <trkpt lat="47.11958" lon="6.63439">
        <ele>992</ele>
        <time>2021-07-29T09:01:10Z</time>
      </trkpt>
      <trkpt lat="47.11959" lon="6.63436">
        <ele>991.8</ele>
        <time>2021-07-29T09:01:11Z</time>
      </trkpt>
      <trkpt lat="47.1196" lon="6.63433">
        <ele>992</ele>
        <time>2021-07-29T09:01:12Z</time>
      </trkpt>
      <trkpt lat="47.1196" lon="6.6343">
        <ele>992.2</ele>
        <time>2021-07-29T09:01:13Z</time>
      </trkpt>
      <trkpt lat="47.11961" lon="6.63426">
        <ele>992.4</ele>
        <time>2021-07-29T09:01:14Z</time>
      </trkpt>
      <trkpt lat="47.11961" lon="6.63423">
        <ele>992.4</ele>
        <time>2021-07-29T09:01:15Z</time>
      </trkpt>
      <trkpt lat="47.11961" lon="6.6342">
        <ele>992.6</ele>
        <time>2021-07-29T09:01:16Z</time>
      </trkpt>
      <trkpt lat="47.11962" lon="6.63416">
        <ele>992.4</ele>
        <time>2021-07-29T09:01:17Z</time>
      </trkpt>
      <trkpt lat="47.11962" lon="6.63413">
        <ele>992.6</ele>
        <time>2021-07-29T09:01:18Z</time>
      </trkpt>
      <trkpt lat="47.11962" lon="6.63409">
        <ele>992.6</ele>
        <time>2021-07-29T09:01:19Z</time>
      </trkpt>
      <trkpt lat="47.11961" lon="6.63405">
        <ele>992.6</ele>
        <time>2021-07-29T09:01:20Z</time>
      </trkpt>
      <trkpt lat="47.11961" lon="6.63401">
        <ele>992.6</ele>
        <time>2021-07-29T09:01:21Z</time>
      </trkpt>
      <trkpt lat="47.1196" lon="6.63397">
        <ele>992.6</ele>
        <time>2021-07-29T09:01:22Z</time>
      </trkpt>
      <trkpt lat="47.11959" lon="6.63394">
        <ele>992.8</ele>
        <time>2021-07-29T09:01:23Z</time>
      </trkpt>
      <trkpt lat="47.11958" lon="6.6339">
        <ele>993</ele>
        <time>2021-07-29T09:01:24Z</time>
      </trkpt>
      <trkpt lat="47.11957" lon="6.63387">
        <ele>993</ele>
        <time>2021-07-29T09:01:25Z</time>
      </trkpt>
      <trkpt lat="47.11956" lon="6.63383">
        <ele>993</ele>
        <time>2021-07-29T09:01:26Z</time>
      </trkpt>
      <trkpt lat="47.11955" lon="6.63379">
        <ele>993.2</ele>
        <time>2021-07-29T09:01:27Z</time>
      </trkpt>
      <trkpt lat="47.11954" lon="6.63376">
        <ele>993.2</ele>
        <time>2021-07-29T09:01:28Z</time>
      </trkpt>
      <trkpt lat="47.11952" lon="6.63373">
        <ele>993.4</ele>
        <time>2021-07-29T09:01:29Z</time>
      </trkpt>
      <trkpt lat="47.11951" lon="6.6337">
        <ele>993.4</ele>
        <time>2021-07-29T09:01:30Z</time>
      </trkpt>
      <trkpt lat="47.1195" lon="6.63366">
        <ele>993.6</ele>
        <time>2021-07-29T09:01:31Z</time>
      </trkpt>
      <trkpt lat="47.11949" lon="6.63363">
        <ele>993.6</ele>
        <time>2021-07-29T09:01:32Z</time>
      </trkpt>
      <trkpt lat="47.11948" lon="6.6336">
        <ele>993.8</ele>
        <time>2021-07-29T09:01:33Z</time>
      </trkpt>
      <trkpt lat="47.11946" lon="6.63356">
        <ele>993.8</ele>
        <time>2021-07-29T09:01:34Z</time>
      </trkpt>
      <trkpt lat="47.11945" lon="6.63353">
        <ele>994</ele>
        <time>2021-07-29T09:01:35Z</time>
      </trkpt>
      <trkpt lat="47.11944" lon="6.6335">
        <ele>994</ele>
        <time>2021-07-29T09:01:36Z</time>
      </trkpt>
      <trkpt lat="47.11942" lon="6.63347">
        <ele>994.2</ele>
        <time>2021-07-29T09:01:37Z</time>
      </trkpt>
      <trkpt lat="47.11941" lon="6.63344">
        <ele>994.4</ele>
        <time>2021-07-29T09:01:38Z</time>
      </trkpt>
      <trkpt lat="47.1194" lon="6.63341">
        <ele>994.4</ele>
        <time>2021-07-29T09:01:39Z</time>
      </trkpt>
      <trkpt lat="47.1194" lon="6.63339">
        <ele>994.6</ele>
        <time>2021-07-29T09:01:40Z</time>
      </trkpt>
      <trkpt lat="47.11938" lon="6.63336">
        <ele>994.8</ele>
        <time>2021-07-29T09:01:41Z</time>
      </trkpt>
      <trkpt lat="47.11937" lon="6.63333">
        <ele>994.8</ele>
        <time>2021-07-29T09:01:42Z</time>
      </trkpt>
      <trkpt lat="47.11936" lon="6.63331">
        <ele>995</ele>
        <time>2021-07-29T09:01:43Z</time>
      </trkpt>
      <trkpt lat="47.11935" lon="6.63328">
        <ele>995.2</ele>
        <time>2021-07-29T09:01:44Z</time>
      </trkpt>
      <trkpt lat="47.11934" lon="6.63325">
        <ele>995.4</ele>
        <time>2021-07-29T09:01:45Z</time>
      </trkpt>
      <trkpt lat="47.11933" lon="6.63322">
        <ele>995.4</ele>
        <time>2021-07-29T09:01:46Z</time>
      </trkpt>
      <trkpt lat="47.11932" lon="6.6332">
        <ele>995.6</ele>
        <time>2021-07-29T09:01:47Z</time>
      </trkpt>
      <trkpt lat="47.11931" lon="6.63317">
        <ele>995.6</ele>
        <time>2021-07-29T09:01:48Z</time>
      </trkpt>
      <trkpt lat="47.1193" lon="6.63314">
        <ele>995.8</ele>
        <time>2021-07-29T09:01:49Z</time>
      </trkpt>
      <trkpt lat="47.11929" lon="6.63311">
        <ele>995.8</ele>
        <time>2021-07-29T09:01:50Z</time>
      </trkpt>
      <trkpt lat="47.11929" lon="6.63309">
        <ele>996</ele>
        <time>2021-07-29T09:01:51Z</time>
      </trkpt>
      <trkpt lat="47.11928" lon="6.63306">
        <ele>996.2</ele>
        <time>2021-07-29T09:01:52Z</time>
      </trkpt>
      <trkpt lat="47.11927" lon="6.63303">
        <ele>996.2</ele>
        <time>2021-07-29T09:01:53Z</time>
      </trkpt>
      <trkpt lat="47.11926" lon="6.633">
        <ele>996.4</ele>
        <time>2021-07-29T09:01:54Z</time>
      </trkpt>
      <trkpt lat="47.11925" lon="6.63297">
        <ele>996.4</ele>
        <time>2021-07-29T09:01:55Z</time>
      </trkpt>
      <trkpt lat="47.11925" lon="6.63294">
        <ele>996.6</ele>
        <time>2021-07-29T09:01:56Z</time>
      </trkpt>
      <trkpt lat="47.11924" lon="6.63291">
        <ele>996.8</ele>
        <time>2021-07-29T09:01:57Z</time>
      </trkpt>
      <trkpt lat="47.11924" lon="6.63288">
        <ele>996.8</ele>
        <time>2021-07-29T09:01:58Z</time>
      </trkpt>
      <trkpt lat="47.11924" lon="6.63286">
        <ele>997</ele>
        <time>2021-07-29T09:01:59Z</time>
      </trkpt>
      <trkpt lat="47.11923" lon="6.63282">
        <ele>997</ele>
        <time>2021-07-29T09:02:00Z</time>
      </trkpt>
      <trkpt lat="47.11923" lon="6.63279">
        <ele>997</ele>
        <time>2021-07-29T09:02:01Z</time>
      </trkpt>
      <trkpt lat="47.11923" lon="6.63275">
        <ele>997.2</ele>
        <time>2021-07-29T09:02:02Z</time>
      </trkpt>
      <trkpt lat="47.11923" lon="6.63272">
        <ele>997.2</ele>
        <time>2021-07-29T09:02:03Z</time>
      </trkpt>
      <trkpt lat="47.11922" lon="6.63268">
        <ele>997.4</ele>
        <time>2021-07-29T09:02:04Z</time>
      </trkpt>
      <trkpt lat="47.11922" lon="6.63265">
        <ele>997.4</ele>
        <time>2021-07-29T09:02:05Z</time>
      </trkpt>
      <trkpt lat="47.11922" lon="6.63261">
        <ele>997.6</ele>
        <time>2021-07-29T09:02:06Z</time>
      </trkpt>
      <trkpt lat="47.11922" lon="6.63257">
        <ele>997.6</ele>
        <time>2021-07-29T09:02:07Z</time>
      </trkpt>
      <trkpt lat="47.11922" lon="6.63253">
        <ele>997.8</ele>
        <time>2021-07-29T09:02:08Z</time>
      </trkpt>
      <trkpt lat="47.11922" lon="6.63248">
        <ele>997.8</ele>
        <time>2021-07-29T09:02:09Z</time>
      </trkpt>
      <trkpt lat="47.11923" lon="6.63244">
        <ele>997.6</ele>
        <time>2021-07-29T09:02:10Z</time>
      </trkpt>
      <trkpt lat="47.11923" lon="6.63239">
        <ele>997.8</ele>
        <time>2021-07-29T09:02:11Z</time>
      </trkpt>
      <trkpt lat="47.11923" lon="6.63235">
        <ele>997.8</ele>
        <time>2021-07-29T09:02:12Z</time>
      </trkpt>
      <trkpt lat="47.11923" lon="6.6323">
        <ele>997.8</ele>
        <time>2021-07-29T09:02:13Z</time>
      </trkpt>
      <trkpt lat="47.11923" lon="6.63224">
        <ele>997.8</ele>
        <time>2021-07-29T09:02:14Z</time>
      </trkpt>
      <trkpt lat="47.11923" lon="6.63219">
        <ele>997.8</ele>
        <time>2021-07-29T09:02:15Z</time>
      </trkpt>
      <trkpt lat="47.11923" lon="6.63214">
        <ele>997.8</ele>
        <time>2021-07-29T09:02:16Z</time>
      </trkpt>
      <trkpt lat="47.11923" lon="6.63208">
        <ele>997.8</ele>
        <time>2021-07-29T09:02:17Z</time>
      </trkpt>
      <trkpt lat="47.11923" lon="6.63202">
        <ele>997.8</ele>
        <time>2021-07-29T09:02:18Z</time>
      </trkpt>
      <trkpt lat="47.11923" lon="6.63196">
        <ele>997.6</ele>
        <time>2021-07-29T09:02:19Z</time>
      </trkpt>
      <trkpt lat="47.11923" lon="6.6319">
        <ele>997.6</ele>
        <time>2021-07-29T09:02:20Z</time>
      </trkpt>
      <trkpt lat="47.11923" lon="6.63183">
        <ele>997.6</ele>
        <time>2021-07-29T09:02:21Z</time>
      </trkpt>
      <trkpt lat="47.11923" lon="6.63176">
        <ele>997.4</ele>
        <time>2021-07-29T09:02:22Z</time>
      </trkpt>
      <trkpt lat="47.11923" lon="6.6317">
        <ele>997.4</ele>
        <time>2021-07-29T09:02:23Z</time>
      </trkpt>
      <trkpt lat="47.11923" lon="6.63163">
        <ele>997.2</ele>
        <time>2021-07-29T09:02:24Z</time>
      </trkpt>
      <trkpt lat="47.11923" lon="6.63157">
        <ele>997.2</ele>
        <time>2021-07-29T09:02:25Z</time>
      </trkpt>
      <trkpt lat="47.11922" lon="6.6315">
        <ele>997.4</ele>
        <time>2021-07-29T09:02:26Z</time>
      </trkpt>
      <trkpt lat="47.11922" lon="6.63143">
        <ele>997.2</ele>
        <time>2021-07-29T09:02:27Z</time>
      </trkpt>
      <trkpt lat="47.11922" lon="6.63137">
        <ele>997.2</ele>
        <time>2021-07-29T09:02:28Z</time>
      </trkpt>
      <trkpt lat="47.11921" lon="6.6313">
        <ele>997</ele>
        <time>2021-07-29T09:02:29Z</time>
      </trkpt>
      <trkpt lat="47.11921" lon="6.63124">
        <ele>997.2</ele>
        <time>2021-07-29T09:02:30Z</time>
      </trkpt>
      <trkpt lat="47.1192" lon="6.63117">
        <ele>997.2</ele>
        <time>2021-07-29T09:02:31Z</time>
      </trkpt>
      <trkpt lat="47.1192" lon="6.6311">
        <ele>997.2</ele>
        <time>2021-07-29T09:02:32Z</time>
      </trkpt>
      <trkpt lat="47.11919" lon="6.63104">
        <ele>997.2</ele>
        <time>2021-07-29T09:02:33Z</time>
      </trkpt>
      <trkpt lat="47.11919" lon="6.63098">
        <ele>997.2</ele>
        <time>2021-07-29T09:02:34Z</time>
      </trkpt>
      <trkpt lat="47.11919" lon="6.63092">
        <ele>997</ele>
        <time>2021-07-29T09:02:35Z</time>
      </trkpt>
      <trkpt lat="47.11918" lon="6.63086">
        <ele>997</ele>
        <time>2021-07-29T09:02:36Z</time>
      </trkpt>
      <trkpt lat="47.11918" lon="6.6308">
        <ele>996.8</ele>
        <time>2021-07-29T09:02:37Z</time>
      </trkpt>
      <trkpt lat="47.11918" lon="6.63073">
        <ele>996.8</ele>
        <time>2021-07-29T09:02:38Z</time>
      </trkpt>
      <trkpt lat="47.11917" lon="6.63067">
        <ele>997</ele>
        <time>2021-07-29T09:02:39Z</time>
      </trkpt>
      <trkpt lat="47.11917" lon="6.6306">
        <ele>997</ele>
        <time>2021-07-29T09:02:40Z</time>
      </trkpt>
      <trkpt lat="47.11917" lon="6.63054">
        <ele>997</ele>
        <time>2021-07-29T09:02:41Z</time>
      </trkpt>
      <trkpt lat="47.11916" lon="6.63047">
        <ele>997.2</ele>
        <time>2021-07-29T09:02:42Z</time>
      </trkpt>
      <trkpt lat="47.11916" lon="6.63041">
        <ele>997</ele>
        <time>2021-07-29T09:02:43Z</time>
      </trkpt>
      <trkpt lat="47.11916" lon="6.63034">
        <ele>997</ele>
        <time>2021-07-29T09:02:44Z</time>
      </trkpt>
      <trkpt lat="47.11915" lon="6.63028">
        <ele>997</ele>
        <time>2021-07-29T09:02:45Z</time>
      </trkpt>
      <trkpt lat="47.11915" lon="6.63021">
        <ele>997</ele>
        <time>2021-07-29T09:02:46Z</time>
      </trkpt>
      <trkpt lat="47.11915" lon="6.63014">
        <ele>997</ele>
        <time>2021-07-29T09:02:47Z</time>
      </trkpt>
      <trkpt lat="47.11915" lon="6.63007">
        <ele>996.8</ele>
        <time>2021-07-29T09:02:48Z</time>
      </trkpt>
      <trkpt lat="47.11914" lon="6.63">
        <ele>996.6</ele>
        <time>2021-07-29T09:02:49Z</time>
      </trkpt>
      <trkpt lat="47.11914" lon="6.62993">
        <ele>996.4</ele>
        <time>2021-07-29T09:02:50Z</time>
      </trkpt>
      <trkpt lat="47.11914" lon="6.62987">
        <ele>996.4</ele>
        <time>2021-07-29T09:02:51Z</time>
      </trkpt>
      <trkpt lat="47.11914" lon="6.62979">
        <ele>996.4</ele>
        <time>2021-07-29T09:02:52Z</time>
      </trkpt>
      <trkpt lat="47.11913" lon="6.62972">
        <ele>996.2</ele>
        <time>2021-07-29T09:02:53Z</time>
      </trkpt>
      <trkpt lat="47.11913" lon="6.62965">
        <ele>996.2</ele>
        <time>2021-07-29T09:02:54Z</time>
      </trkpt>
      <trkpt lat="47.11913" lon="6.62958">
        <ele>996</ele>
        <time>2021-07-29T09:02:55Z</time>
      </trkpt>
      <trkpt lat="47.11913" lon="6.62951">
        <ele>996</ele>
        <time>2021-07-29T09:02:56Z</time>
      </trkpt>
      <trkpt lat="47.11913" lon="6.62943">
        <ele>996</ele>
        <time>2021-07-29T09:02:57Z</time>
      </trkpt>
      <trkpt lat="47.11912" lon="6.62936">
        <ele>995.8</ele>
        <time>2021-07-29T09:02:58Z</time>
      </trkpt>
      <trkpt lat="47.11912" lon="6.62929">
        <ele>996</ele>
        <time>2021-07-29T09:02:59Z</time>
      </trkpt>
      <trkpt lat="47.11912" lon="6.62922">
        <ele>995.8</ele>
        <time>2021-07-29T09:03:00Z</time>
      </trkpt>
      <trkpt lat="47.11912" lon="6.62914">
        <ele>995.8</ele>
        <time>2021-07-29T09:03:01Z</time>
      </trkpt>
      <trkpt lat="47.11912" lon="6.62907">
        <ele>995.8</ele>
        <time>2021-07-29T09:03:02Z</time>
      </trkpt>
      <trkpt lat="47.11911" lon="6.629">
        <ele>995.6</ele>
        <time>2021-07-29T09:03:03Z</time>
      </trkpt>
      <trkpt lat="47.11911" lon="6.62893">
        <ele>995.6</ele>
        <time>2021-07-29T09:03:04Z</time>
      </trkpt>
      <trkpt lat="47.11911" lon="6.62885">
        <ele>995.4</ele>
        <time>2021-07-29T09:03:05Z</time>
      </trkpt>
      <trkpt lat="47.11911" lon="6.62878">
        <ele>995.4</ele>
        <time>2021-07-29T09:03:06Z</time>
      </trkpt>
      <trkpt lat="47.11911" lon="6.6287">
        <ele>995.2</ele>
        <time>2021-07-29T09:03:07Z</time>
      </trkpt>
      <trkpt lat="47.11911" lon="6.62862">
        <ele>995.2</ele>
        <time>2021-07-29T09:03:08Z</time>
      </trkpt>
      <trkpt lat="47.11911" lon="6.62854">
        <ele>995</ele>
        <time>2021-07-29T09:03:09Z</time>
      </trkpt>
      <trkpt lat="47.11911" lon="6.62845">
        <ele>994.8</ele>
        <time>2021-07-29T09:03:10Z</time>
      </trkpt>
      <trkpt lat="47.11911" lon="6.62837">
        <ele>994.8</ele>
        <time>2021-07-29T09:03:11Z</time>
      </trkpt>
      <trkpt lat="47.11911" lon="6.62828">
        <ele>994.6</ele>
        <time>2021-07-29T09:03:12Z</time>
      </trkpt>
      <trkpt lat="47.11911" lon="6.6282">
        <ele>994.6</ele>
        <time>2021-07-29T09:03:13Z</time>
      </trkpt>
      <trkpt lat="47.11911" lon="6.62811">
        <ele>994.6</ele>
        <time>2021-07-29T09:03:14Z</time>
      </trkpt>
      <trkpt lat="47.1191" lon="6.62802">
        <ele>994.4</ele>
        <time>2021-07-29T09:03:15Z</time>
      </trkpt>
      <trkpt lat="47.11909" lon="6.62793">
        <ele>994.4</ele>
        <time>2021-07-29T09:03:16Z</time>
      </trkpt>
      <trkpt lat="47.11909" lon="6.62785">
        <ele>994.4</ele>
        <time>2021-07-29T09:03:17Z</time>
      </trkpt>
      <trkpt lat="47.11909" lon="6.62777">
        <ele>994.6</ele>
        <time>2021-07-29T09:03:18Z</time>
      </trkpt>
      <trkpt lat="47.11909" lon="6.62769">
        <ele>994.6</ele>
        <time>2021-07-29T09:03:19Z</time>
      </trkpt>
      <trkpt lat="47.11908" lon="6.62761">
        <ele>994.6</ele>
        <time>2021-07-29T09:03:20Z</time>
      </trkpt>
      <trkpt lat="47.11908" lon="6.62754">
        <ele>994.6</ele>
        <time>2021-07-29T09:03:21Z</time>
      </trkpt>
      <trkpt lat="47.11908" lon="6.62748">
        <ele>994.6</ele>
        <time>2021-07-29T09:03:22Z</time>
      </trkpt>
      <trkpt lat="47.11908" lon="6.62741">
        <ele>994.6</ele>
        <time>2021-07-29T09:03:23Z</time>
      </trkpt>
      <trkpt lat="47.11908" lon="6.62735">
        <ele>994.8</ele>
        <time>2021-07-29T09:03:24Z</time>
      </trkpt>
      <trkpt lat="47.11908" lon="6.62728">
        <ele>995</ele>
        <time>2021-07-29T09:03:25Z</time>
      </trkpt>
      <trkpt lat="47.11908" lon="6.62721">
        <ele>995</ele>
        <time>2021-07-29T09:03:26Z</time>
      </trkpt>
      <trkpt lat="47.11907" lon="6.62714">
        <ele>995</ele>
        <time>2021-07-29T09:03:27Z</time>
      </trkpt>
      <trkpt lat="47.11907" lon="6.62707">
        <ele>995.2</ele>
        <time>2021-07-29T09:03:28Z</time>
      </trkpt>
      <trkpt lat="47.11908" lon="6.62701">
        <ele>995.2</ele>
        <time>2021-07-29T09:03:29Z</time>
      </trkpt>
      <trkpt lat="47.11908" lon="6.62694">
        <ele>995.2</ele>
        <time>2021-07-29T09:03:30Z</time>
      </trkpt>
      <trkpt lat="47.11909" lon="6.62687">
        <ele>995.2</ele>
        <time>2021-07-29T09:03:31Z</time>
      </trkpt>
      <trkpt lat="47.1191" lon="6.62681">
        <ele>995.2</ele>
        <time>2021-07-29T09:03:32Z</time>
      </trkpt>
      <trkpt lat="47.11911" lon="6.62674">
        <ele>995.4</ele>
        <time>2021-07-29T09:03:33Z</time>
      </trkpt>
      <trkpt lat="47.11913" lon="6.62668">
        <ele>995.4</ele>
        <time>2021-07-29T09:03:34Z</time>
      </trkpt>
      <trkpt lat="47.11914" lon="6.62662">
        <ele>995.4</ele>
        <time>2021-07-29T09:03:35Z</time>
      </trkpt>
      <trkpt lat="47.11916" lon="6.62656">
        <ele>995.6</ele>
        <time>2021-07-29T09:03:36Z</time>
      </trkpt>
      <trkpt lat="47.11919" lon="6.62651">
        <ele>995.6</ele>
        <time>2021-07-29T09:03:37Z</time>
      </trkpt>
      <trkpt lat="47.11921" lon="6.62646">
        <ele>995.6</ele>
        <time>2021-07-29T09:03:38Z</time>
      </trkpt>
      <trkpt lat="47.11923" lon="6.62641">
        <ele>995.6</ele>
        <time>2021-07-29T09:03:39Z</time>
      </trkpt>
      <trkpt lat="47.11926" lon="6.62636">
        <ele>995.6</ele>
        <time>2021-07-29T09:03:40Z</time>
      </trkpt>
      <trkpt lat="47.11929" lon="6.6263">
        <ele>995.4</ele>
        <time>2021-07-29T09:03:41Z</time>
      </trkpt>
      <trkpt lat="47.11932" lon="6.62625">
        <ele>995.4</ele>
        <time>2021-07-29T09:03:42Z</time>
      </trkpt>
      <trkpt lat="47.11936" lon="6.6262">
        <ele>995</ele>
        <time>2021-07-29T09:03:43Z</time>
      </trkpt>
      <trkpt lat="47.1194" lon="6.62614">
        <ele>994.8</ele>
        <time>2021-07-29T09:03:44Z</time>
      </trkpt>
      <trkpt lat="47.11944" lon="6.62609">
        <ele>994.8</ele>
        <time>2021-07-29T09:03:45Z</time>
      </trkpt>
      <trkpt lat="47.11948" lon="6.62604">
        <ele>994.6</ele>
        <time>2021-07-29T09:03:46Z</time>
      </trkpt>
      <trkpt lat="47.11953" lon="6.62599">
        <ele>994.2</ele>
        <time>2021-07-29T09:03:47Z</time>
      </trkpt>
      <trkpt lat="47.11958" lon="6.62593">
        <ele>994</ele>
        <time>2021-07-29T09:03:48Z</time>
      </trkpt>
      <trkpt lat="47.11962" lon="6.62588">
        <ele>993.8</ele>
        <time>2021-07-29T09:03:49Z</time>
      </trkpt>
      <trkpt lat="47.11968" lon="6.62582">
        <ele>993.4</ele>
        <time>2021-07-29T09:03:50Z</time>
      </trkpt>
      <trkpt lat="47.11973" lon="6.62576">
        <ele>993</ele>
        <time>2021-07-29T09:03:51Z</time>
      </trkpt>
      <trkpt lat="47.11979" lon="6.6257">
        <ele>992.6</ele>
        <time>2021-07-29T09:03:52Z</time>
      </trkpt>
      <trkpt lat="47.11984" lon="6.62563">
        <ele>992.4</ele>
        <time>2021-07-29T09:03:53Z</time>
      </trkpt>
      <trkpt lat="47.1199" lon="6.62557">
        <ele>992.2</ele>
        <time>2021-07-29T09:03:54Z</time>
      </trkpt>
      <trkpt lat="47.11995" lon="6.6255">
        <ele>992</ele>
        <time>2021-07-29T09:03:55Z</time>
      </trkpt>
      <trkpt lat="47.12001" lon="6.62544">
        <ele>991.6</ele>
        <time>2021-07-29T09:03:56Z</time>
      </trkpt>
      <trkpt lat="47.12007" lon="6.62538">
        <ele>991.4</ele>
        <time>2021-07-29T09:03:57Z</time>
      </trkpt>
      <trkpt lat="47.12013" lon="6.62531">
        <ele>991</ele>
        <time>2021-07-29T09:03:58Z</time>
      </trkpt>
      <trkpt lat="47.12019" lon="6.62525">
        <ele>990.6</ele>
        <time>2021-07-29T09:03:59Z</time>
      </trkpt>
      <trkpt lat="47.12025" lon="6.62518">
        <ele>990.2</ele>
        <time>2021-07-29T09:04:00Z</time>
      </trkpt>
      <trkpt lat="47.12032" lon="6.62511">
        <ele>990</ele>
        <time>2021-07-29T09:04:01Z</time>
      </trkpt>
      <trkpt lat="47.12038" lon="6.62505">
        <ele>989.6</ele>
        <time>2021-07-29T09:04:02Z</time>
      </trkpt>
      <trkpt lat="47.12044" lon="6.62499">
        <ele>989.2</ele>
        <time>2021-07-29T09:04:03Z</time>
      </trkpt>
      <trkpt lat="47.12051" lon="6.62492">
        <ele>989</ele>
        <time>2021-07-29T09:04:04Z</time>
      </trkpt>
      <trkpt lat="47.12057" lon="6.62485">
        <ele>988.8</ele>
        <time>2021-07-29T09:04:05Z</time>
      </trkpt>
      <trkpt lat="47.12063" lon="6.62479">
        <ele>988.4</ele>
        <time>2021-07-29T09:04:06Z</time>
      </trkpt>
      <trkpt lat="47.1207" lon="6.62472">
        <ele>987.8</ele>
        <time>2021-07-29T09:04:07Z</time>
      </trkpt>
      <trkpt lat="47.12076" lon="6.62466">
        <ele>987.6</ele>
        <time>2021-07-29T09:04:08Z</time>
      </trkpt>
      <trkpt lat="47.12083" lon="6.62461">
        <ele>987</ele>
        <time>2021-07-29T09:04:09Z</time>
      </trkpt>
      <trkpt lat="47.12091" lon="6.62457">
        <ele>986.6</ele>
        <time>2021-07-29T09:04:10Z</time>
      </trkpt>
      <trkpt lat="47.12098" lon="6.62453">
        <ele>986.2</ele>
        <time>2021-07-29T09:04:11Z</time>
      </trkpt>
      <trkpt lat="47.12106" lon="6.6245">
        <ele>985.8</ele>
        <time>2021-07-29T09:04:12Z</time>
      </trkpt>
      <trkpt lat="47.12114" lon="6.62448">
        <ele>985</ele>
        <time>2021-07-29T09:04:13Z</time>
      </trkpt>
      <trkpt lat="47.12122" lon="6.62446">
        <ele>984.8</ele>
        <time>2021-07-29T09:04:14Z</time>
      </trkpt>
      <trkpt lat="47.12131" lon="6.62445">
        <ele>984.4</ele>
        <time>2021-07-29T09:04:15Z</time>
      </trkpt>
      <trkpt lat="47.12139" lon="6.62445">
        <ele>984</ele>
        <time>2021-07-29T09:04:16Z</time>
      </trkpt>
      <trkpt lat="47.12148" lon="6.62445">
        <ele>983.6</ele>
        <time>2021-07-29T09:04:17Z</time>
      </trkpt>
      <trkpt lat="47.12157" lon="6.62446">
        <ele>983.2</ele>
        <time>2021-07-29T09:04:18Z</time>
      </trkpt>
      <trkpt lat="47.12166" lon="6.62448">
        <ele>982.6</ele>
        <time>2021-07-29T09:04:19Z</time>
      </trkpt>
      <trkpt lat="47.12174" lon="6.6245">
        <ele>982</ele>
        <time>2021-07-29T09:04:20Z</time>
      </trkpt>
      <trkpt lat="47.12183" lon="6.62453">
        <ele>982.2</ele>
        <time>2021-07-29T09:04:21Z</time>
      </trkpt>
      <trkpt lat="47.12192" lon="6.62456">
        <ele>981.6</ele>
        <time>2021-07-29T09:04:22Z</time>
      </trkpt>
      <trkpt lat="47.122" lon="6.62459">
        <ele>981</ele>
        <time>2021-07-29T09:04:23Z</time>
      </trkpt>
      <trkpt lat="47.12209" lon="6.62463">
        <ele>980.4</ele>
        <time>2021-07-29T09:04:24Z</time>
      </trkpt>
      <trkpt lat="47.12218" lon="6.62466">
        <ele>980</ele>
        <time>2021-07-29T09:04:25Z</time>
      </trkpt>
      <trkpt lat="47.12226" lon="6.62467">
        <ele>979.4</ele>
        <time>2021-07-29T09:04:26Z</time>
      </trkpt>
      <trkpt lat="47.12233" lon="6.62466">
        <ele>979.2</ele>
        <time>2021-07-29T09:04:27Z</time>
      </trkpt>
      <trkpt lat="47.12239" lon="6.62464">
        <ele>978.6</ele>
        <time>2021-07-29T09:04:28Z</time>
      </trkpt>
      <trkpt lat="47.12244" lon="6.6246">
        <ele>978.4</ele>
        <time>2021-07-29T09:04:29Z</time>
      </trkpt>
      <trkpt lat="47.12247" lon="6.62457">
        <ele>978.2</ele>
        <time>2021-07-29T09:04:30Z</time>
      </trkpt>
      <trkpt lat="47.12249" lon="6.62455">
        <ele>978</ele>
        <time>2021-07-29T09:04:31Z</time>
      </trkpt>
      <trkpt lat="47.12251" lon="6.62454">
        <ele>977.8</ele>
        <time>2021-07-29T09:04:32Z</time>
      </trkpt>
      <trkpt lat="47.12251" lon="6.62453">
        <ele>977.8</ele>
        <time>2021-07-29T09:04:33Z</time>
      </trkpt>
      <trkpt lat="47.12251" lon="6.62454">
        <ele>977.6</ele>
        <time>2021-07-29T09:04:34Z</time>
      </trkpt>
      <trkpt lat="47.12251" lon="6.62454">
        <ele>977.6</ele>
        <time>2021-07-29T09:04:35Z</time>
      </trkpt>
      <trkpt lat="47.12251" lon="6.62454">
        <ele>977.6</ele>
        <time>2021-07-29T09:04:36Z</time>
      </trkpt>
      <trkpt lat="47.12251" lon="6.62454">
        <ele>977.6</ele>
        <time>2021-07-29T09:04:37Z</time>
      </trkpt>
      <trkpt lat="47.12251" lon="6.62454">
        <ele>977.6</ele>
        <time>2021-07-29T09:04:38Z</time>
      </trkpt>
      <trkpt lat="47.1225" lon="6.62454">
        <ele>977.6</ele>
        <time>2021-07-29T09:04:39Z</time>
      </trkpt>
      <trkpt lat="47.1225" lon="6.62454">
        <ele>977.6</ele>
        <time>2021-07-29T09:04:40Z</time>
      </trkpt>
      <trkpt lat="47.12278" lon="6.62435">
        <ele>976.8</ele>
        <time>2021-07-29T09:04:54Z</time>
      </trkpt>
      <trkpt lat="47.12282" lon="6.62432">
        <ele>976.6</ele>
        <time>2021-07-29T09:04:55Z</time>
      </trkpt>
      <trkpt lat="47.12288" lon="6.62429">
        <ele>976.4</ele>
        <time>2021-07-29T09:04:56Z</time>
      </trkpt>
      <trkpt lat="47.12293" lon="6.62427">
        <ele>976.2</ele>
        <time>2021-07-29T09:04:57Z</time>
      </trkpt>
      <trkpt lat="47.12299" lon="6.62423">
        <ele>975.8</ele>
        <time>2021-07-29T09:04:58Z</time>
      </trkpt>
      <trkpt lat="47.12305" lon="6.6242">
        <ele>975.4</ele>
        <time>2021-07-29T09:04:59Z</time>
      </trkpt>
      <trkpt lat="47.12311" lon="6.62417">
        <ele>975.2</ele>
        <time>2021-07-29T09:05:00Z</time>
      </trkpt>
      <trkpt lat="47.12317" lon="6.62415">
        <ele>974.8</ele>
        <time>2021-07-29T09:05:01Z</time>
      </trkpt>
      <trkpt lat="47.12324" lon="6.62412">
        <ele>974.4</ele>
        <time>2021-07-29T09:05:02Z</time>
      </trkpt>
      <trkpt lat="47.12331" lon="6.6241">
        <ele>974</ele>
        <time>2021-07-29T09:05:03Z</time>
      </trkpt>
      <trkpt lat="47.12338" lon="6.62409">
        <ele>973.8</ele>
        <time>2021-07-29T09:05:04Z</time>
      </trkpt>
      <trkpt lat="47.12346" lon="6.62408">
        <ele>973.4</ele>
        <time>2021-07-29T09:05:05Z</time>
      </trkpt>
      <trkpt lat="47.12353" lon="6.62409">
        <ele>973</ele>
        <time>2021-07-29T09:05:06Z</time>
      </trkpt>
      <trkpt lat="47.1236" lon="6.62411">
        <ele>972.8</ele>
        <time>2021-07-29T09:05:07Z</time>
      </trkpt>
      <trkpt lat="47.12367" lon="6.62414">
        <ele>972.6</ele>
        <time>2021-07-29T09:05:08Z</time>
      </trkpt>
      <trkpt lat="47.12374" lon="6.62417">
        <ele>972.2</ele>
        <time>2021-07-29T09:05:09Z</time>
      </trkpt>
      <trkpt lat="47.12381" lon="6.6242">
        <ele>971.8</ele>
        <time>2021-07-29T09:05:10Z</time>
      </trkpt>
      <trkpt lat="47.12389" lon="6.62423">
        <ele>971.6</ele>
        <time>2021-07-29T09:05:11Z</time>
      </trkpt>
      <trkpt lat="47.12396" lon="6.62426">
        <ele>971.2</ele>
        <time>2021-07-29T09:05:12Z</time>
      </trkpt>
      <trkpt lat="47.12403" lon="6.62429">
        <ele>971</ele>
        <time>2021-07-29T09:05:13Z</time>
      </trkpt>
      <trkpt lat="47.12411" lon="6.62432">
        <ele>970.6</ele>
        <time>2021-07-29T09:05:14Z</time>
      </trkpt>
      <trkpt lat="47.12419" lon="6.62434">
        <ele>970.4</ele>
        <time>2021-07-29T09:05:15Z</time>
      </trkpt>
      <trkpt lat="47.12426" lon="6.62436">
        <ele>970</ele>
        <time>2021-07-29T09:05:16Z</time>
      </trkpt>
      <trkpt lat="47.12435" lon="6.62438">
        <ele>969.6</ele>
        <time>2021-07-29T09:05:17Z</time>
      </trkpt>
      <trkpt lat="47.12443" lon="6.6244">
        <ele>969.2</ele>
        <time>2021-07-29T09:05:18Z</time>
      </trkpt>
      <trkpt lat="47.12451" lon="6.62442">
        <ele>969</ele>
        <time>2021-07-29T09:05:19Z</time>
      </trkpt>
      <trkpt lat="47.1246" lon="6.62444">
        <ele>968.8</ele>
        <time>2021-07-29T09:05:20Z</time>
      </trkpt>
      <trkpt lat="47.12468" lon="6.62445">
        <ele>968.4</ele>
        <time>2021-07-29T09:05:21Z</time>
      </trkpt>
      <trkpt lat="47.12477" lon="6.62447">
        <ele>968.4</ele>
        <time>2021-07-29T09:05:22Z</time>
      </trkpt>
      <trkpt lat="47.12485" lon="6.62449">
        <ele>968.2</ele>
        <time>2021-07-29T09:05:23Z</time>
      </trkpt>
      <trkpt lat="47.12494" lon="6.6245">
        <ele>967.8</ele>
        <time>2021-07-29T09:05:24Z</time>
      </trkpt>
      <trkpt lat="47.12502" lon="6.62452">
        <ele>967.6</ele>
        <time>2021-07-29T09:05:25Z</time>
      </trkpt>
      <trkpt lat="47.12511" lon="6.62453">
        <ele>967.2</ele>
        <time>2021-07-29T09:05:26Z</time>
      </trkpt>
      <trkpt lat="47.12519" lon="6.62453">
        <ele>967.2</ele>
        <time>2021-07-29T09:05:27Z</time>
      </trkpt>
      <trkpt lat="47.12527" lon="6.62454">
        <ele>966.8</ele>
        <time>2021-07-29T09:05:28Z</time>
      </trkpt>
      <trkpt lat="47.12536" lon="6.62454">
        <ele>966.6</ele>
        <time>2021-07-29T09:05:29Z</time>
      </trkpt>
      <trkpt lat="47.12543" lon="6.62454">
        <ele>966.4</ele>
        <time>2021-07-29T09:05:30Z</time>
      </trkpt>
      <trkpt lat="47.12551" lon="6.62454">
        <ele>966.2</ele>
        <time>2021-07-29T09:05:31Z</time>
      </trkpt>
      <trkpt lat="47.12559" lon="6.62453">
        <ele>966</ele>
        <time>2021-07-29T09:05:32Z</time>
      </trkpt>
      <trkpt lat="47.12567" lon="6.62453">
        <ele>965.8</ele>
        <time>2021-07-29T09:05:33Z</time>
      </trkpt>
      <trkpt lat="47.12574" lon="6.62452">
        <ele>965.6</ele>
        <time>2021-07-29T09:05:34Z</time>
      </trkpt>
      <trkpt lat="47.12582" lon="6.62451">
        <ele>965</ele>
        <time>2021-07-29T09:05:35Z</time>
      </trkpt>
      <trkpt lat="47.1259" lon="6.6245">
        <ele>964.6</ele>
        <time>2021-07-29T09:05:36Z</time>
      </trkpt>
      <trkpt lat="47.12599" lon="6.62449">
        <ele>964</ele>
        <time>2021-07-29T09:05:37Z</time>
      </trkpt>
      <trkpt lat="47.12607" lon="6.62448">
        <ele>963.4</ele>
        <time>2021-07-29T09:05:38Z</time>
      </trkpt>
      <trkpt lat="47.12615" lon="6.62447">
        <ele>963</ele>
        <time>2021-07-29T09:05:39Z</time>
      </trkpt>
      <trkpt lat="47.12624" lon="6.62445">
        <ele>962.4</ele>
        <time>2021-07-29T09:05:40Z</time>
      </trkpt>
      <trkpt lat="47.12633" lon="6.62445">
        <ele>961.6</ele>
        <time>2021-07-29T09:05:41Z</time>
      </trkpt>
      <trkpt lat="47.12642" lon="6.62444">
        <ele>961</ele>
        <time>2021-07-29T09:05:42Z</time>
      </trkpt>
      <trkpt lat="47.12651" lon="6.62442">
        <ele>960.6</ele>
        <time>2021-07-29T09:05:43Z</time>
      </trkpt>
      <trkpt lat="47.1266" lon="6.62441">
        <ele>960.2</ele>
        <time>2021-07-29T09:05:44Z</time>
      </trkpt>
      <trkpt lat="47.12668" lon="6.6244">
        <ele>960</ele>
        <time>2021-07-29T09:05:45Z</time>
      </trkpt>
      <trkpt lat="47.12675" lon="6.6244">
        <ele>959.4</ele>
        <time>2021-07-29T09:05:46Z</time>
      </trkpt>
      <trkpt lat="47.12683" lon="6.62438">
        <ele>959</ele>
        <time>2021-07-29T09:05:47Z</time>
      </trkpt>
      <trkpt lat="47.12691" lon="6.62437">
        <ele>958.6</ele>
        <time>2021-07-29T09:05:48Z</time>
      </trkpt>
      <trkpt lat="47.12698" lon="6.62436">
        <ele>958.2</ele>
        <time>2021-07-29T09:05:49Z</time>
      </trkpt>
      <trkpt lat="47.12706" lon="6.62435">
        <ele>957.6</ele>
        <time>2021-07-29T09:05:50Z</time>
      </trkpt>
      <trkpt lat="47.12714" lon="6.62434">
        <ele>957.4</ele>
        <time>2021-07-29T09:05:51Z</time>
      </trkpt>
      <trkpt lat="47.12722" lon="6.62433">
        <ele>956.8</ele>
        <time>2021-07-29T09:05:52Z</time>
      </trkpt>
      <trkpt lat="47.1273" lon="6.62433">
        <ele>956.2</ele>
        <time>2021-07-29T09:05:53Z</time>
      </trkpt>
      <trkpt lat="47.12739" lon="6.62433">
        <ele>955.4</ele>
        <time>2021-07-29T09:05:54Z</time>
      </trkpt>
      <trkpt lat="47.12747" lon="6.62433">
        <ele>955</ele>
        <time>2021-07-29T09:05:55Z</time>
      </trkpt>
      <trkpt lat="47.12755" lon="6.62434">
        <ele>954.4</ele>
        <time>2021-07-29T09:05:56Z</time>
      </trkpt>
      <trkpt lat="47.12763" lon="6.62434">
        <ele>953.6</ele>
        <time>2021-07-29T09:05:57Z</time>
      </trkpt>
      <trkpt lat="47.12772" lon="6.62434">
        <ele>953.2</ele>
        <time>2021-07-29T09:05:58Z</time>
      </trkpt>
      <trkpt lat="47.12779" lon="6.62435">
        <ele>952.6</ele>
        <time>2021-07-29T09:05:59Z</time>
      </trkpt>
      <trkpt lat="47.12786" lon="6.62435">
        <ele>952</ele>
        <time>2021-07-29T09:06:00Z</time>
      </trkpt>
      <trkpt lat="47.12793" lon="6.62437">
        <ele>951.6</ele>
        <time>2021-07-29T09:06:01Z</time>
      </trkpt>
      <trkpt lat="47.128" lon="6.62438">
        <ele>951.2</ele>
        <time>2021-07-29T09:06:02Z</time>
      </trkpt>
      <trkpt lat="47.12806" lon="6.62439">
        <ele>950.8</ele>
        <time>2021-07-29T09:06:03Z</time>
      </trkpt>
      <trkpt lat="47.12814" lon="6.6244">
        <ele>950.4</ele>
        <time>2021-07-29T09:06:04Z</time>
      </trkpt>
      <trkpt lat="47.12821" lon="6.6244">
        <ele>950</ele>
        <time>2021-07-29T09:06:05Z</time>
      </trkpt>
      <trkpt lat="47.12829" lon="6.62441">
        <ele>949.6</ele>
        <time>2021-07-29T09:06:06Z</time>
      </trkpt>
      <trkpt lat="47.12836" lon="6.62442">
        <ele>949</ele>
        <time>2021-07-29T09:06:07Z</time>
      </trkpt>
      <trkpt lat="47.12844" lon="6.62443">
        <ele>948.4</ele>
        <time>2021-07-29T09:06:08Z</time>
      </trkpt>
      <trkpt lat="47.12852" lon="6.62444">
        <ele>948</ele>
        <time>2021-07-29T09:06:09Z</time>
      </trkpt>
      <trkpt lat="47.1286" lon="6.62444">
        <ele>947.2</ele>
        <time>2021-07-29T09:06:10Z</time>
      </trkpt>
      <trkpt lat="47.1287" lon="6.62445">
        <ele>946.4</ele>
        <time>2021-07-29T09:06:11Z</time>
      </trkpt>
      <trkpt lat="47.12879" lon="6.62446">
        <ele>945.8</ele>
        <time>2021-07-29T09:06:12Z</time>
      </trkpt>
      <trkpt lat="47.12888" lon="6.62446">
        <ele>945</ele>
        <time>2021-07-29T09:06:13Z</time>
      </trkpt>
      <trkpt lat="47.12898" lon="6.62447">
        <ele>944.2</ele>
        <time>2021-07-29T09:06:14Z</time>
      </trkpt>
      <trkpt lat="47.12907" lon="6.62449">
        <ele>943.2</ele>
        <time>2021-07-29T09:06:15Z</time>
      </trkpt>
      <trkpt lat="47.12917" lon="6.62449">
        <ele>942.4</ele>
        <time>2021-07-29T09:06:16Z</time>
      </trkpt>
      <trkpt lat="47.12928" lon="6.6245">
        <ele>941.4</ele>
        <time>2021-07-29T09:06:17Z</time>
      </trkpt>
      <trkpt lat="47.12938" lon="6.62451">
        <ele>941</ele>
        <time>2021-07-29T09:06:18Z</time>
      </trkpt>
      <trkpt lat="47.12949" lon="6.62451">
        <ele>940.4</ele>
        <time>2021-07-29T09:06:19Z</time>
      </trkpt>
      <trkpt lat="47.12959" lon="6.62452">
        <ele>939.2</ele>
        <time>2021-07-29T09:06:20Z</time>
      </trkpt>
      <trkpt lat="47.1297" lon="6.62453">
        <ele>938.4</ele>
        <time>2021-07-29T09:06:21Z</time>
      </trkpt>
      <trkpt lat="47.1298" lon="6.62454">
        <ele>938</ele>
        <time>2021-07-29T09:06:22Z</time>
      </trkpt>
      <trkpt lat="47.1299" lon="6.62456">
        <ele>937.6</ele>
        <time>2021-07-29T09:06:23Z</time>
      </trkpt>
      <trkpt lat="47.12998" lon="6.62458">
        <ele>936.8</ele>
        <time>2021-07-29T09:06:24Z</time>
      </trkpt>
      <trkpt lat="47.13006" lon="6.62462">
        <ele>936.2</ele>
        <time>2021-07-29T09:06:25Z</time>
      </trkpt>
      <trkpt lat="47.13016" lon="6.62466">
        <ele>935.4</ele>
        <time>2021-07-29T09:06:26Z</time>
      </trkpt>
      <trkpt lat="47.13025" lon="6.62471">
        <ele>934.6</ele>
        <time>2021-07-29T09:06:27Z</time>
      </trkpt>
      <trkpt lat="47.13035" lon="6.62477">
        <ele>933.8</ele>
        <time>2021-07-29T09:06:28Z</time>
      </trkpt>
      <trkpt lat="47.13045" lon="6.62483">
        <ele>933.2</ele>
        <time>2021-07-29T09:06:29Z</time>
      </trkpt>
      <trkpt lat="47.13055" lon="6.62489">
        <ele>932.6</ele>
        <time>2021-07-29T09:06:30Z</time>
      </trkpt>
      <trkpt lat="47.13065" lon="6.62495">
        <ele>932.4</ele>
        <time>2021-07-29T09:06:31Z</time>
      </trkpt>
      <trkpt lat="47.13076" lon="6.625">
        <ele>932</ele>
        <time>2021-07-29T09:06:32Z</time>
      </trkpt>
      <trkpt lat="47.13086" lon="6.62505">
        <ele>931.6</ele>
        <time>2021-07-29T09:06:33Z</time>
      </trkpt>
      <trkpt lat="47.13096" lon="6.6251">
        <ele>931.2</ele>
        <time>2021-07-29T09:06:34Z</time>
      </trkpt>
      <trkpt lat="47.13107" lon="6.62514">
        <ele>930.6</ele>
        <time>2021-07-29T09:06:35Z</time>
      </trkpt>
      <trkpt lat="47.13118" lon="6.62517">
        <ele>930</ele>
        <time>2021-07-29T09:06:36Z</time>
      </trkpt>
      <trkpt lat="47.13129" lon="6.62519">
        <ele>929.6</ele>
        <time>2021-07-29T09:06:37Z</time>
      </trkpt>
      <trkpt lat="47.1314" lon="6.62521">
        <ele>929.4</ele>
        <time>2021-07-29T09:06:38Z</time>
      </trkpt>
      <trkpt lat="47.13151" lon="6.62523">
        <ele>929</ele>
        <time>2021-07-29T09:06:39Z</time>
      </trkpt>
      <trkpt lat="47.13162" lon="6.62525">
        <ele>928.6</ele>
        <time>2021-07-29T09:06:40Z</time>
      </trkpt>
      <trkpt lat="47.13171" lon="6.62527">
        <ele>928.4</ele>
        <time>2021-07-29T09:06:41Z</time>
      </trkpt>
      <trkpt lat="47.1318" lon="6.6253">
        <ele>928.6</ele>
        <time>2021-07-29T09:06:42Z</time>
      </trkpt>
      <trkpt lat="47.13189" lon="6.62534">
        <ele>928.6</ele>
        <time>2021-07-29T09:06:43Z</time>
      </trkpt>
      <trkpt lat="47.13197" lon="6.62537">
        <ele>928.2</ele>
        <time>2021-07-29T09:06:44Z</time>
      </trkpt>
      <trkpt lat="47.13206" lon="6.62539">
        <ele>927.8</ele>
        <time>2021-07-29T09:06:45Z</time>
      </trkpt>
      <trkpt lat="47.13214" lon="6.6254">
        <ele>927.6</ele>
        <time>2021-07-29T09:06:46Z</time>
      </trkpt>
      <trkpt lat="47.13222" lon="6.6254">
        <ele>927.2</ele>
        <time>2021-07-29T09:06:47Z</time>
      </trkpt>
      <trkpt lat="47.1323" lon="6.6254">
        <ele>926.8</ele>
        <time>2021-07-29T09:06:48Z</time>
      </trkpt>
      <trkpt lat="47.13239" lon="6.6254">
        <ele>926.4</ele>
        <time>2021-07-29T09:06:49Z</time>
      </trkpt>
      <trkpt lat="47.13249" lon="6.6254">
        <ele>925.8</ele>
        <time>2021-07-29T09:06:50Z</time>
      </trkpt>
      <trkpt lat="47.13258" lon="6.62543">
        <ele>925.8</ele>
        <time>2021-07-29T09:06:51Z</time>
      </trkpt>
      <trkpt lat="47.13267" lon="6.62548">
        <ele>925</ele>
        <time>2021-07-29T09:06:52Z</time>
      </trkpt>
      <trkpt lat="47.13275" lon="6.62553">
        <ele>924.4</ele>
        <time>2021-07-29T09:06:53Z</time>
      </trkpt>
      <trkpt lat="47.13282" lon="6.6256">
        <ele>923.6</ele>
        <time>2021-07-29T09:06:54Z</time>
      </trkpt>
      <trkpt lat="47.1329" lon="6.62567">
        <ele>923.2</ele>
        <time>2021-07-29T09:06:55Z</time>
      </trkpt>
      <trkpt lat="47.13299" lon="6.62571">
        <ele>922.6</ele>
        <time>2021-07-29T09:06:56Z</time>
      </trkpt>
      <trkpt lat="47.13308" lon="6.62574">
        <ele>922.4</ele>
        <time>2021-07-29T09:06:57Z</time>
      </trkpt>
      <trkpt lat="47.13317" lon="6.62573">
        <ele>922.2</ele>
        <time>2021-07-29T09:06:58Z</time>
      </trkpt>
      <trkpt lat="47.13325" lon="6.62568">
        <ele>922</ele>
        <time>2021-07-29T09:06:59Z</time>
      </trkpt>
      <trkpt lat="47.13333" lon="6.62562">
        <ele>921.8</ele>
        <time>2021-07-29T09:07:00Z</time>
      </trkpt>
      <trkpt lat="47.1334" lon="6.62555">
        <ele>921.6</ele>
        <time>2021-07-29T09:07:01Z</time>
      </trkpt>
      <trkpt lat="47.13347" lon="6.62547">
        <ele>921.8</ele>
        <time>2021-07-29T09:07:02Z</time>
      </trkpt>
      <trkpt lat="47.13353" lon="6.62539">
        <ele>921.8</ele>
        <time>2021-07-29T09:07:03Z</time>
      </trkpt>
      <trkpt lat="47.13358" lon="6.62532">
        <ele>921.6</ele>
        <time>2021-07-29T09:07:04Z</time>
      </trkpt>
      <trkpt lat="47.13363" lon="6.62526">
        <ele>921.8</ele>
        <time>2021-07-29T09:07:05Z</time>
      </trkpt>
      <trkpt lat="47.13368" lon="6.6252">
        <ele>921.8</ele>
        <time>2021-07-29T09:07:06Z</time>
      </trkpt>
      <trkpt lat="47.13372" lon="6.62513">
        <ele>922</ele>
        <time>2021-07-29T09:07:07Z</time>
      </trkpt>
      <trkpt lat="47.13376" lon="6.62507">
        <ele>922.2</ele>
        <time>2021-07-29T09:07:08Z</time>
      </trkpt>
      <trkpt lat="47.13379" lon="6.625">
        <ele>922.2</ele>
        <time>2021-07-29T09:07:09Z</time>
      </trkpt>
      <trkpt lat="47.13382" lon="6.62493">
        <ele>922</ele>
        <time>2021-07-29T09:07:10Z</time>
      </trkpt>
      <trkpt lat="47.13385" lon="6.62486">
        <ele>922</ele>
        <time>2021-07-29T09:07:11Z</time>
      </trkpt>
      <trkpt lat="47.13388" lon="6.62479">
        <ele>922</ele>
        <time>2021-07-29T09:07:12Z</time>
      </trkpt>
      <trkpt lat="47.13391" lon="6.62472">
        <ele>922</ele>
        <time>2021-07-29T09:07:13Z</time>
      </trkpt>
      <trkpt lat="47.13393" lon="6.62465">
        <ele>921.8</ele>
        <time>2021-07-29T09:07:14Z</time>
      </trkpt>
      <trkpt lat="47.13396" lon="6.62458">
        <ele>921.6</ele>
        <time>2021-07-29T09:07:15Z</time>
      </trkpt>
      <trkpt lat="47.13399" lon="6.6245">
        <ele>921.6</ele>
        <time>2021-07-29T09:07:16Z</time>
      </trkpt>
      <trkpt lat="47.13402" lon="6.62442">
        <ele>921.6</ele>
        <time>2021-07-29T09:07:17Z</time>
      </trkpt>
      <trkpt lat="47.13405" lon="6.62435">
        <ele>921.6</ele>
        <time>2021-07-29T09:07:18Z</time>
      </trkpt>
      <trkpt lat="47.13408" lon="6.62428">
        <ele>921.6</ele>
        <time>2021-07-29T09:07:19Z</time>
      </trkpt>
      <trkpt lat="47.13412" lon="6.62421">
        <ele>921.6</ele>
        <time>2021-07-29T09:07:20Z</time>
      </trkpt>
      <trkpt lat="47.13415" lon="6.62415">
        <ele>921.6</ele>
        <time>2021-07-29T09:07:21Z</time>
      </trkpt>
      <trkpt lat="47.13419" lon="6.62409">
        <ele>921.2</ele>
        <time>2021-07-29T09:07:22Z</time>
      </trkpt>
      <trkpt lat="47.13423" lon="6.62402">
        <ele>921</ele>
        <time>2021-07-29T09:07:23Z</time>
      </trkpt>
      <trkpt lat="47.13427" lon="6.62396">
        <ele>920.8</ele>
        <time>2021-07-29T09:07:24Z</time>
      </trkpt>
      <trkpt lat="47.13431" lon="6.6239">
        <ele>921</ele>
        <time>2021-07-29T09:07:25Z</time>
      </trkpt>
      <trkpt lat="47.13435" lon="6.62385">
        <ele>921</ele>
        <time>2021-07-29T09:07:26Z</time>
      </trkpt>
      <trkpt lat="47.13439" lon="6.6238">
        <ele>921.4</ele>
        <time>2021-07-29T09:07:27Z</time>
      </trkpt>
      <trkpt lat="47.13443" lon="6.62375">
        <ele>921.6</ele>
        <time>2021-07-29T09:07:28Z</time>
      </trkpt>
      <trkpt lat="47.13446" lon="6.6237">
        <ele>922.2</ele>
        <time>2021-07-29T09:07:29Z</time>
      </trkpt>
      <trkpt lat="47.13449" lon="6.62367">
        <ele>922.2</ele>
        <time>2021-07-29T09:07:30Z</time>
      </trkpt>
      <trkpt lat="47.13452" lon="6.62363">
        <ele>922.2</ele>
        <time>2021-07-29T09:07:31Z</time>
      </trkpt>
      <trkpt lat="47.13455" lon="6.62359">
        <ele>922.2</ele>
        <time>2021-07-29T09:07:32Z</time>
      </trkpt>
      <trkpt lat="47.13458" lon="6.62355">
        <ele>922.6</ele>
        <time>2021-07-29T09:07:33Z</time>
      </trkpt>
      <trkpt lat="47.13461" lon="6.62352">
        <ele>922.4</ele>
        <time>2021-07-29T09:07:34Z</time>
      </trkpt>
      <trkpt lat="47.13464" lon="6.62349">
        <ele>922.4</ele>
        <time>2021-07-29T09:07:35Z</time>
      </trkpt>
      <trkpt lat="47.13467" lon="6.62347">
        <ele>922.6</ele>
        <time>2021-07-29T09:07:36Z</time>
      </trkpt>
      <trkpt lat="47.1347" lon="6.62344">
        <ele>922.6</ele>
        <time>2021-07-29T09:07:37Z</time>
      </trkpt>
      <trkpt lat="47.13473" lon="6.62341">
        <ele>922.6</ele>
        <time>2021-07-29T09:07:38Z</time>
      </trkpt>
      <trkpt lat="47.13475" lon="6.62338">
        <ele>922.8</ele>
        <time>2021-07-29T09:07:39Z</time>
      </trkpt>
      <trkpt lat="47.13478" lon="6.62336">
        <ele>922.8</ele>
        <time>2021-07-29T09:07:40Z</time>
      </trkpt>
      <trkpt lat="47.13481" lon="6.62334">
        <ele>922.8</ele>
        <time>2021-07-29T09:07:41Z</time>
      </trkpt>
      <trkpt lat="47.13484" lon="6.62332">
        <ele>922.8</ele>
        <time>2021-07-29T09:07:42Z</time>
      </trkpt>
      <trkpt lat="47.13488" lon="6.6233">
        <ele>922.8</ele>
        <time>2021-07-29T09:07:43Z</time>
      </trkpt>
      <trkpt lat="47.13491" lon="6.62329">
        <ele>922.6</ele>
        <time>2021-07-29T09:07:44Z</time>
      </trkpt>
      <trkpt lat="47.13495" lon="6.62328">
        <ele>922.6</ele>
        <time>2021-07-29T09:07:45Z</time>
      </trkpt>
      <trkpt lat="47.13499" lon="6.62328">
        <ele>922.6</ele>
        <time>2021-07-29T09:07:46Z</time>
      </trkpt>
      <trkpt lat="47.13503" lon="6.62328">
        <ele>922.6</ele>
        <time>2021-07-29T09:07:47Z</time>
      </trkpt>
      <trkpt lat="47.13506" lon="6.62329">
        <ele>922.6</ele>
        <time>2021-07-29T09:07:48Z</time>
      </trkpt>
      <trkpt lat="47.13508" lon="6.62329">
        <ele>922.4</ele>
        <time>2021-07-29T09:07:49Z</time>
      </trkpt>
      <trkpt lat="47.13512" lon="6.6233">
        <ele>922.4</ele>
        <time>2021-07-29T09:07:50Z</time>
      </trkpt>
      <trkpt lat="47.13516" lon="6.62331">
        <ele>922.2</ele>
        <time>2021-07-29T09:07:51Z</time>
      </trkpt>
      <trkpt lat="47.13521" lon="6.62332">
        <ele>922.2</ele>
        <time>2021-07-29T09:07:52Z</time>
      </trkpt>
      <trkpt lat="47.13525" lon="6.62334">
        <ele>922</ele>
        <time>2021-07-29T09:07:53Z</time>
      </trkpt>
      <trkpt lat="47.1353" lon="6.62335">
        <ele>922</ele>
        <time>2021-07-29T09:07:54Z</time>
      </trkpt>
      <trkpt lat="47.13534" lon="6.62337">
        <ele>922</ele>
        <time>2021-07-29T09:07:55Z</time>
      </trkpt>
      <trkpt lat="47.13538" lon="6.62338">
        <ele>922</ele>
        <time>2021-07-29T09:07:56Z</time>
      </trkpt>
      <trkpt lat="47.13543" lon="6.6234">
        <ele>922</ele>
        <time>2021-07-29T09:07:57Z</time>
      </trkpt>
      <trkpt lat="47.13548" lon="6.62342">
        <ele>922</ele>
        <time>2021-07-29T09:07:58Z</time>
      </trkpt>
      <trkpt lat="47.13552" lon="6.62344">
        <ele>922.2</ele>
        <time>2021-07-29T09:07:59Z</time>
      </trkpt>
      <trkpt lat="47.13557" lon="6.62347">
        <ele>922.2</ele>
        <time>2021-07-29T09:08:00Z</time>
      </trkpt>
      <trkpt lat="47.13561" lon="6.6235">
        <ele>922.4</ele>
        <time>2021-07-29T09:08:01Z</time>
      </trkpt>
      <trkpt lat="47.13565" lon="6.62353">
        <ele>922.4</ele>
        <time>2021-07-29T09:08:02Z</time>
      </trkpt>
      <trkpt lat="47.13569" lon="6.62357">
        <ele>922.4</ele>
        <time>2021-07-29T09:08:03Z</time>
      </trkpt>
      <trkpt lat="47.13573" lon="6.62361">
        <ele>922.6</ele>
        <time>2021-07-29T09:08:04Z</time>
      </trkpt>
      <trkpt lat="47.13577" lon="6.62364">
        <ele>922.6</ele>
        <time>2021-07-29T09:08:05Z</time>
      </trkpt>
      <trkpt lat="47.13581" lon="6.62367">
        <ele>922.6</ele>
        <time>2021-07-29T09:08:06Z</time>
      </trkpt>
      <trkpt lat="47.13584" lon="6.6237">
        <ele>922.8</ele>
        <time>2021-07-29T09:08:07Z</time>
      </trkpt>
      <trkpt lat="47.13587" lon="6.62373">
        <ele>922.8</ele>
        <time>2021-07-29T09:08:08Z</time>
      </trkpt>
      <trkpt lat="47.13591" lon="6.62377">
        <ele>923</ele>
        <time>2021-07-29T09:08:09Z</time>
      </trkpt>
      <trkpt lat="47.13594" lon="6.62381">
        <ele>923</ele>
        <time>2021-07-29T09:08:10Z</time>
      </trkpt>
      <trkpt lat="47.13597" lon="6.62385">
        <ele>923</ele>
        <time>2021-07-29T09:08:11Z</time>
      </trkpt>
      <trkpt lat="47.13601" lon="6.62388">
        <ele>923.2</ele>
        <time>2021-07-29T09:08:12Z</time>
      </trkpt>
      <trkpt lat="47.13604" lon="6.62391">
        <ele>923.2</ele>
        <time>2021-07-29T09:08:13Z</time>
      </trkpt>
      <trkpt lat="47.13608" lon="6.62393">
        <ele>923.2</ele>
        <time>2021-07-29T09:08:14Z</time>
      </trkpt>
      <trkpt lat="47.13611" lon="6.62396">
        <ele>923.2</ele>
        <time>2021-07-29T09:08:15Z</time>
      </trkpt>
      <trkpt lat="47.13615" lon="6.62399">
        <ele>923.2</ele>
        <time>2021-07-29T09:08:16Z</time>
      </trkpt>
      <trkpt lat="47.13619" lon="6.62401">
        <ele>923.2</ele>
        <time>2021-07-29T09:08:17Z</time>
      </trkpt>
      <trkpt lat="47.13623" lon="6.62404">
        <ele>923</ele>
        <time>2021-07-29T09:08:18Z</time>
      </trkpt>
      <trkpt lat="47.13627" lon="6.62407">
        <ele>922.8</ele>
        <time>2021-07-29T09:08:19Z</time>
      </trkpt>
      <trkpt lat="47.13632" lon="6.62409">
        <ele>922.8</ele>
        <time>2021-07-29T09:08:20Z</time>
      </trkpt>
      <trkpt lat="47.13636" lon="6.62411">
        <ele>922.6</ele>
        <time>2021-07-29T09:08:21Z</time>
      </trkpt>
      <trkpt lat="47.13641" lon="6.62413">
        <ele>922.4</ele>
        <time>2021-07-29T09:08:22Z</time>
      </trkpt>
      <trkpt lat="47.13646" lon="6.62416">
        <ele>922.2</ele>
        <time>2021-07-29T09:08:23Z</time>
      </trkpt>
      <trkpt lat="47.13651" lon="6.62418">
        <ele>922</ele>
        <time>2021-07-29T09:08:24Z</time>
      </trkpt>
      <trkpt lat="47.13656" lon="6.62421">
        <ele>921.8</ele>
        <time>2021-07-29T09:08:25Z</time>
      </trkpt>
      <trkpt lat="47.13662" lon="6.62423">
        <ele>921.4</ele>
        <time>2021-07-29T09:08:26Z</time>
      </trkpt>
      <trkpt lat="47.13668" lon="6.62426">
        <ele>920.8</ele>
        <time>2021-07-29T09:08:27Z</time>
      </trkpt>
      <trkpt lat="47.13674" lon="6.62429">
        <ele>920.6</ele>
        <time>2021-07-29T09:08:28Z</time>
      </trkpt>
      <trkpt lat="47.1368" lon="6.62432">
        <ele>920.2</ele>
        <time>2021-07-29T09:08:29Z</time>
      </trkpt>
      <trkpt lat="47.13687" lon="6.62436">
        <ele>919.6</ele>
        <time>2021-07-29T09:08:30Z</time>
      </trkpt>
      <trkpt lat="47.13693" lon="6.6244">
        <ele>919.2</ele>
        <time>2021-07-29T09:08:31Z</time>
      </trkpt>
      <trkpt lat="47.13699" lon="6.62443">
        <ele>918.8</ele>
        <time>2021-07-29T09:08:32Z</time>
      </trkpt>
      <trkpt lat="47.13705" lon="6.62445">
        <ele>918.2</ele>
        <time>2021-07-29T09:08:33Z</time>
      </trkpt>
      <trkpt lat="47.13713" lon="6.62446">
        <ele>917.8</ele>
        <time>2021-07-29T09:08:34Z</time>
      </trkpt>
      <trkpt lat="47.13721" lon="6.62445">
        <ele>917.6</ele>
        <time>2021-07-29T09:08:35Z</time>
      </trkpt>
      <trkpt lat="47.1373" lon="6.62443">
        <ele>917.2</ele>
        <time>2021-07-29T09:08:36Z</time>
      </trkpt>
      <trkpt lat="47.13739" lon="6.6244">
        <ele>917</ele>
        <time>2021-07-29T09:08:37Z</time>
      </trkpt>
      <trkpt lat="47.13747" lon="6.62437">
        <ele>916.8</ele>
        <time>2021-07-29T09:08:38Z</time>
      </trkpt>
      <trkpt lat="47.13755" lon="6.62435">
        <ele>916.8</ele>
        <time>2021-07-29T09:08:39Z</time>
      </trkpt>
      <trkpt lat="47.13763" lon="6.62433">
        <ele>916.8</ele>
        <time>2021-07-29T09:08:40Z</time>
      </trkpt>
      <trkpt lat="47.1377" lon="6.62432">
        <ele>917</ele>
        <time>2021-07-29T09:08:41Z</time>
      </trkpt>
      <trkpt lat="47.13777" lon="6.62432">
        <ele>917</ele>
        <time>2021-07-29T09:08:42Z</time>
      </trkpt>
      <trkpt lat="47.13784" lon="6.62432">
        <ele>917.2</ele>
        <time>2021-07-29T09:08:43Z</time>
      </trkpt>
      <trkpt lat="47.1379" lon="6.62432">
        <ele>917.2</ele>
        <time>2021-07-29T09:08:44Z</time>
      </trkpt>
      <trkpt lat="47.13797" lon="6.62432">
        <ele>917.2</ele>
        <time>2021-07-29T09:08:45Z</time>
      </trkpt>
      <trkpt lat="47.13802" lon="6.62432">
        <ele>917.4</ele>
        <time>2021-07-29T09:08:46Z</time>
      </trkpt>
      <trkpt lat="47.13808" lon="6.62433">
        <ele>917.4</ele>
        <time>2021-07-29T09:08:47Z</time>
      </trkpt>
      <trkpt lat="47.13814" lon="6.62433">
        <ele>917.6</ele>
        <time>2021-07-29T09:08:48Z</time>
      </trkpt>
      <trkpt lat="47.13819" lon="6.62433">
        <ele>917.6</ele>
        <time>2021-07-29T09:08:49Z</time>
      </trkpt>
      <trkpt lat="47.13824" lon="6.62433">
        <ele>917.6</ele>
        <time>2021-07-29T09:08:50Z</time>
      </trkpt>
      <trkpt lat="47.13829" lon="6.62434">
        <ele>917.6</ele>
        <time>2021-07-29T09:08:51Z</time>
      </trkpt>
      <trkpt lat="47.13834" lon="6.62434">
        <ele>917.6</ele>
        <time>2021-07-29T09:08:52Z</time>
      </trkpt>
      <trkpt lat="47.13838" lon="6.62434">
        <ele>917.6</ele>
        <time>2021-07-29T09:08:53Z</time>
      </trkpt>
      <trkpt lat="47.13843" lon="6.62434">
        <ele>917.6</ele>
        <time>2021-07-29T09:08:54Z</time>
      </trkpt>
      <trkpt lat="47.13848" lon="6.62435">
        <ele>917.6</ele>
        <time>2021-07-29T09:08:55Z</time>
      </trkpt>
      <trkpt lat="47.13852" lon="6.62435">
        <ele>917.8</ele>
        <time>2021-07-29T09:08:56Z</time>
      </trkpt>
      <trkpt lat="47.13856" lon="6.62435">
        <ele>917.8</ele>
        <time>2021-07-29T09:08:57Z</time>
      </trkpt>
      <trkpt lat="47.13861" lon="6.62435">
        <ele>917.8</ele>
        <time>2021-07-29T09:08:58Z</time>
      </trkpt>
      <trkpt lat="47.13865" lon="6.62436">
        <ele>918</ele>
        <time>2021-07-29T09:08:59Z</time>
      </trkpt>
      <trkpt lat="47.1387" lon="6.62436">
        <ele>918</ele>
        <time>2021-07-29T09:09:00Z</time>
      </trkpt>
      <trkpt lat="47.13874" lon="6.62436">
        <ele>918.2</ele>
        <time>2021-07-29T09:09:01Z</time>
      </trkpt>
      <trkpt lat="47.13878" lon="6.62436">
        <ele>918.2</ele>
        <time>2021-07-29T09:09:02Z</time>
      </trkpt>
      <trkpt lat="47.13882" lon="6.62436">
        <ele>918.2</ele>
        <time>2021-07-29T09:09:03Z</time>
      </trkpt>
      <trkpt lat="47.13886" lon="6.62436">
        <ele>918.2</ele>
        <time>2021-07-29T09:09:04Z</time>
      </trkpt>
      <trkpt lat="47.1389" lon="6.62436">
        <ele>918.2</ele>
        <time>2021-07-29T09:09:05Z</time>
      </trkpt>
      <trkpt lat="47.13894" lon="6.62436">
        <ele>918.2</ele>
        <time>2021-07-29T09:09:06Z</time>
      </trkpt>
      <trkpt lat="47.13898" lon="6.62437">
        <ele>918.2</ele>
        <time>2021-07-29T09:09:07Z</time>
      </trkpt>
      <trkpt lat="47.13902" lon="6.62437">
        <ele>918.2</ele>
        <time>2021-07-29T09:09:08Z</time>
      </trkpt>
      <trkpt lat="47.13906" lon="6.62437">
        <ele>918</ele>
        <time>2021-07-29T09:09:09Z</time>
      </trkpt>
      <trkpt lat="47.13911" lon="6.62438">
        <ele>918</ele>
        <time>2021-07-29T09:09:10Z</time>
      </trkpt>
      <trkpt lat="47.13915" lon="6.6244">
        <ele>918</ele>
        <time>2021-07-29T09:09:11Z</time>
      </trkpt>
      <trkpt lat="47.13919" lon="6.62441">
        <ele>918</ele>
        <time>2021-07-29T09:09:12Z</time>
      </trkpt>
      <trkpt lat="47.13922" lon="6.62444">
        <ele>918</ele>
        <time>2021-07-29T09:09:13Z</time>
      </trkpt>
      <trkpt lat="47.13924" lon="6.62446">
        <ele>918</ele>
        <time>2021-07-29T09:09:14Z</time>
      </trkpt>
      <trkpt lat="47.13926" lon="6.62448">
        <ele>918</ele>
        <time>2021-07-29T09:09:15Z</time>
      </trkpt>
      <trkpt lat="47.13928" lon="6.6245">
        <ele>918</ele>
        <time>2021-07-29T09:09:16Z</time>
      </trkpt>
      <trkpt lat="47.13929" lon="6.6245">
        <ele>918</ele>
        <time>2021-07-29T09:09:17Z</time>
      </trkpt>
      <trkpt lat="47.13929" lon="6.62449">
        <ele>918.2</ele>
        <time>2021-07-29T09:09:18Z</time>
      </trkpt>
      <trkpt lat="47.13929" lon="6.62449">
        <ele>918.2</ele>
        <time>2021-07-29T09:09:19Z</time>
      </trkpt>
      <trkpt lat="47.1393" lon="6.62449">
        <ele>918.2</ele>
        <time>2021-07-29T09:09:20Z</time>
      </trkpt>
      <trkpt lat="47.1393" lon="6.62449">
        <ele>918.2</ele>
        <time>2021-07-29T09:09:21Z</time>
      </trkpt>
      <trkpt lat="47.1393" lon="6.62449">
        <ele>918.2</ele>
        <time>2021-07-29T09:09:22Z</time>
      </trkpt>
      <trkpt lat="47.1393" lon="6.62449">
        <ele>918.2</ele>
        <time>2021-07-29T09:09:23Z</time>
      </trkpt>
      <trkpt lat="47.1393" lon="6.62449">
        <ele>918.2</ele>
        <time>2021-07-29T09:09:24Z</time>
      </trkpt>
      <trkpt lat="47.13941" lon="6.62456">
        <ele>918.4</ele>
        <time>2021-07-29T09:09:52Z</time>
      </trkpt>
      <trkpt lat="47.13941" lon="6.62456">
        <ele>918.4</ele>
        <time>2021-07-29T09:09:53Z</time>
      </trkpt>
      <trkpt lat="47.13941" lon="6.62456">
        <ele>918.4</ele>
        <time>2021-07-29T09:09:54Z</time>
      </trkpt>
      <trkpt lat="47.13941" lon="6.62456">
        <ele>918.4</ele>
        <time>2021-07-29T09:09:55Z</time>
      </trkpt>
      <trkpt lat="47.13941" lon="6.62457">
        <ele>918.4</ele>
        <time>2021-07-29T09:09:56Z</time>
      </trkpt>
      <trkpt lat="47.13941" lon="6.62457">
        <ele>918.4</ele>
        <time>2021-07-29T09:09:57Z</time>
      </trkpt>
      <trkpt lat="47.13936" lon="6.62433">
        <ele>917</ele>
        <time>2021-07-29T09:13:02Z</time>
      </trkpt>
      <trkpt lat="47.13937" lon="6.62428">
        <ele>916.8</ele>
        <time>2021-07-29T09:13:03Z</time>
      </trkpt>
      <trkpt lat="47.13938" lon="6.62423">
        <ele>916.8</ele>
        <time>2021-07-29T09:13:04Z</time>
      </trkpt>
      <trkpt lat="47.13939" lon="6.62418">
        <ele>916.6</ele>
        <time>2021-07-29T09:13:05Z</time>
      </trkpt>
      <trkpt lat="47.1394" lon="6.62412">
        <ele>916.4</ele>
        <time>2021-07-29T09:13:06Z</time>
      </trkpt>
      <trkpt lat="47.13941" lon="6.62405">
        <ele>916.2</ele>
        <time>2021-07-29T09:13:07Z</time>
      </trkpt>
      <trkpt lat="47.13943" lon="6.62398">
        <ele>916</ele>
        <time>2021-07-29T09:13:08Z</time>
      </trkpt>
      <trkpt lat="47.13945" lon="6.62391">
        <ele>915.6</ele>
        <time>2021-07-29T09:13:09Z</time>
      </trkpt>
      <trkpt lat="47.13947" lon="6.62384">
        <ele>915.2</ele>
        <time>2021-07-29T09:13:10Z</time>
      </trkpt>
      <trkpt lat="47.13949" lon="6.62377">
        <ele>914.8</ele>
        <time>2021-07-29T09:13:11Z</time>
      </trkpt>
      <trkpt lat="47.13952" lon="6.62369">
        <ele>914.2</ele>
        <time>2021-07-29T09:13:12Z</time>
      </trkpt>
      <trkpt lat="47.13955" lon="6.6236">
        <ele>913.8</ele>
        <time>2021-07-29T09:13:13Z</time>
      </trkpt>
      <trkpt lat="47.13957" lon="6.62352">
        <ele>913.2</ele>
        <time>2021-07-29T09:13:14Z</time>
      </trkpt>
      <trkpt lat="47.13961" lon="6.62344">
        <ele>912.8</ele>
        <time>2021-07-29T09:13:15Z</time>
      </trkpt>
      <trkpt lat="47.13964" lon="6.62336">
        <ele>912.2</ele>
        <time>2021-07-29T09:13:16Z</time>
      </trkpt>
      <trkpt lat="47.13967" lon="6.62328">
        <ele>911.8</ele>
        <time>2021-07-29T09:13:17Z</time>
      </trkpt>
      <trkpt lat="47.13971" lon="6.62319">
        <ele>911.4</ele>
        <time>2021-07-29T09:13:18Z</time>
      </trkpt>
      <trkpt lat="47.13974" lon="6.62309">
        <ele>911</ele>
        <time>2021-07-29T09:13:19Z</time>
      </trkpt>
      <trkpt lat="47.13977" lon="6.62299">
        <ele>910.4</ele>
        <time>2021-07-29T09:13:20Z</time>
      </trkpt>
      <trkpt lat="47.1398" lon="6.62289">
        <ele>910</ele>
        <time>2021-07-29T09:13:21Z</time>
      </trkpt>
      <trkpt lat="47.13983" lon="6.62278">
        <ele>909.4</ele>
        <time>2021-07-29T09:13:22Z</time>
      </trkpt>
      <trkpt lat="47.13985" lon="6.62268">
        <ele>909</ele>
        <time>2021-07-29T09:13:23Z</time>
      </trkpt>
      <trkpt lat="47.13987" lon="6.62258">
        <ele>908.6</ele>
        <time>2021-07-29T09:13:24Z</time>
      </trkpt>
      <trkpt lat="47.13988" lon="6.62248">
        <ele>908</ele>
        <time>2021-07-29T09:13:25Z</time>
      </trkpt>
      <trkpt lat="47.13989" lon="6.62238">
        <ele>907.8</ele>
        <time>2021-07-29T09:13:26Z</time>
      </trkpt>
      <trkpt lat="47.13988" lon="6.62228">
        <ele>907.4</ele>
        <time>2021-07-29T09:13:27Z</time>
      </trkpt>
      <trkpt lat="47.13988" lon="6.62219">
        <ele>907</ele>
        <time>2021-07-29T09:13:28Z</time>
      </trkpt>
      <trkpt lat="47.13987" lon="6.62209">
        <ele>906.4</ele>
        <time>2021-07-29T09:13:29Z</time>
      </trkpt>
      <trkpt lat="47.13989" lon="6.62206">
        <ele>906</ele>
        <time>2021-07-29T09:13:30Z</time>
      </trkpt>
      <trkpt lat="47.13987" lon="6.62198">
        <ele>905.4</ele>
        <time>2021-07-29T09:13:31Z</time>
      </trkpt>
      <trkpt lat="47.13985" lon="6.62191">
        <ele>904.8</ele>
        <time>2021-07-29T09:13:32Z</time>
      </trkpt>
      <trkpt lat="47.13981" lon="6.62181">
        <ele>904.2</ele>
        <time>2021-07-29T09:13:33Z</time>
      </trkpt>
      <trkpt lat="47.13977" lon="6.62173">
        <ele>903.4</ele>
        <time>2021-07-29T09:13:34Z</time>
      </trkpt>
      <trkpt lat="47.13973" lon="6.62167">
        <ele>903</ele>
        <time>2021-07-29T09:13:35Z</time>
      </trkpt>
      <trkpt lat="47.13968" lon="6.62159">
        <ele>902.6</ele>
        <time>2021-07-29T09:13:36Z</time>
      </trkpt>
      <trkpt lat="47.13963" lon="6.62152">
        <ele>902.2</ele>
        <time>2021-07-29T09:13:37Z</time>
      </trkpt>
      <trkpt lat="47.13958" lon="6.62143">
        <ele>901.6</ele>
        <time>2021-07-29T09:13:38Z</time>
      </trkpt>
      <trkpt lat="47.13951" lon="6.62137">
        <ele>901</ele>
        <time>2021-07-29T09:13:39Z</time>
      </trkpt>
      <trkpt lat="47.13945" lon="6.6213">
        <ele>900.4</ele>
        <time>2021-07-29T09:13:40Z</time>
      </trkpt>
      <trkpt lat="47.13939" lon="6.62121">
        <ele>900</ele>
        <time>2021-07-29T09:13:41Z</time>
      </trkpt>
      <trkpt lat="47.13934" lon="6.62114">
        <ele>899</ele>
        <time>2021-07-29T09:13:42Z</time>
      </trkpt>
      <trkpt lat="47.13929" lon="6.62106">
        <ele>898.6</ele>
        <time>2021-07-29T09:13:43Z</time>
      </trkpt>
      <trkpt lat="47.13922" lon="6.62096">
        <ele>898</ele>
        <time>2021-07-29T09:13:44Z</time>
      </trkpt>
      <trkpt lat="47.13917" lon="6.62089">
        <ele>897.2</ele>
        <time>2021-07-29T09:13:45Z</time>
      </trkpt>
      <trkpt lat="47.1391" lon="6.62081">
        <ele>896.6</ele>
        <time>2021-07-29T09:13:46Z</time>
      </trkpt>
      <trkpt lat="47.13905" lon="6.62074">
        <ele>895.8</ele>
        <time>2021-07-29T09:13:47Z</time>
      </trkpt>
      <trkpt lat="47.13898" lon="6.62065">
        <ele>895.4</ele>
        <time>2021-07-29T09:13:48Z</time>
      </trkpt>
      <trkpt lat="47.13893" lon="6.62058">
        <ele>894.6</ele>
        <time>2021-07-29T09:13:49Z</time>
      </trkpt>
      <trkpt lat="47.13888" lon="6.62051">
        <ele>894</ele>
        <time>2021-07-29T09:13:50Z</time>
      </trkpt>
      <trkpt lat="47.13881" lon="6.62044">
        <ele>893.4</ele>
        <time>2021-07-29T09:13:51Z</time>
      </trkpt>
      <trkpt lat="47.13874" lon="6.62035">
        <ele>893</ele>
        <time>2021-07-29T09:13:52Z</time>
      </trkpt>
      <trkpt lat="47.13866" lon="6.62024">
        <ele>892</ele>
        <time>2021-07-29T09:13:53Z</time>
      </trkpt>
      <trkpt lat="47.13859" lon="6.62017">
        <ele>891.4</ele>
        <time>2021-07-29T09:13:54Z</time>
      </trkpt>
      <trkpt lat="47.13853" lon="6.62011">
        <ele>890.8</ele>
        <time>2021-07-29T09:13:55Z</time>
      </trkpt>
      <trkpt lat="47.13847" lon="6.62004">
        <ele>890.4</ele>
        <time>2021-07-29T09:13:56Z</time>
      </trkpt>
      <trkpt lat="47.1384" lon="6.61993">
        <ele>889.4</ele>
        <time>2021-07-29T09:13:57Z</time>
      </trkpt>
      <trkpt lat="47.13832" lon="6.61982">
        <ele>888.8</ele>
        <time>2021-07-29T09:13:58Z</time>
      </trkpt>
      <trkpt lat="47.13823" lon="6.61971">
        <ele>888.2</ele>
        <time>2021-07-29T09:13:59Z</time>
      </trkpt>
      <trkpt lat="47.13815" lon="6.61961">
        <ele>887.2</ele>
        <time>2021-07-29T09:14:00Z</time>
      </trkpt>
      <trkpt lat="47.13807" lon="6.61951">
        <ele>886.6</ele>
        <time>2021-07-29T09:14:01Z</time>
      </trkpt>
      <trkpt lat="47.13799" lon="6.61943">
        <ele>885.8</ele>
        <time>2021-07-29T09:14:02Z</time>
      </trkpt>
      <trkpt lat="47.13793" lon="6.61934">
        <ele>885.2</ele>
        <time>2021-07-29T09:14:03Z</time>
      </trkpt>
      <trkpt lat="47.13785" lon="6.61926">
        <ele>884</ele>
        <time>2021-07-29T09:14:04Z</time>
      </trkpt>
      <trkpt lat="47.13778" lon="6.61914">
        <ele>883.2</ele>
        <time>2021-07-29T09:14:05Z</time>
      </trkpt>
      <trkpt lat="47.1377" lon="6.61903">
        <ele>882.4</ele>
        <time>2021-07-29T09:14:06Z</time>
      </trkpt>
      <trkpt lat="47.13761" lon="6.61892">
        <ele>881.4</ele>
        <time>2021-07-29T09:14:07Z</time>
      </trkpt>
      <trkpt lat="47.13753" lon="6.61881">
        <ele>880.8</ele>
        <time>2021-07-29T09:14:08Z</time>
      </trkpt>
      <trkpt lat="47.13746" lon="6.61869">
        <ele>880</ele>
        <time>2021-07-29T09:14:09Z</time>
      </trkpt>
      <trkpt lat="47.1374" lon="6.61859">
        <ele>879.4</ele>
        <time>2021-07-29T09:14:10Z</time>
      </trkpt>
      <trkpt lat="47.13734" lon="6.61848">
        <ele>878.4</ele>
        <time>2021-07-29T09:14:11Z</time>
      </trkpt>
      <trkpt lat="47.13729" lon="6.61837">
        <ele>877.4</ele>
        <time>2021-07-29T09:14:12Z</time>
      </trkpt>
      <trkpt lat="47.13724" lon="6.61827">
        <ele>876.8</ele>
        <time>2021-07-29T09:14:13Z</time>
      </trkpt>
      <trkpt lat="47.13718" lon="6.61818">
        <ele>876.2</ele>
        <time>2021-07-29T09:14:14Z</time>
      </trkpt>
      <trkpt lat="47.13712" lon="6.61808">
        <ele>875.4</ele>
        <time>2021-07-29T09:14:15Z</time>
      </trkpt>
      <trkpt lat="47.13706" lon="6.61798">
        <ele>875</ele>
        <time>2021-07-29T09:14:16Z</time>
      </trkpt>
      <trkpt lat="47.13699" lon="6.61788">
        <ele>874.2</ele>
        <time>2021-07-29T09:14:17Z</time>
      </trkpt>
      <trkpt lat="47.13693" lon="6.61776">
        <ele>873.6</ele>
        <time>2021-07-29T09:14:18Z</time>
      </trkpt>
      <trkpt lat="47.13688" lon="6.61765">
        <ele>873</ele>
        <time>2021-07-29T09:14:19Z</time>
      </trkpt>
      <trkpt lat="47.13682" lon="6.61755">
        <ele>872.4</ele>
        <time>2021-07-29T09:14:20Z</time>
      </trkpt>
      <trkpt lat="47.13677" lon="6.61745">
        <ele>871.8</ele>
        <time>2021-07-29T09:14:21Z</time>
      </trkpt>
      <trkpt lat="47.13673" lon="6.61737">
        <ele>871</ele>
        <time>2021-07-29T09:14:22Z</time>
      </trkpt>
      <trkpt lat="47.13669" lon="6.61727">
        <ele>870.6</ele>
        <time>2021-07-29T09:14:23Z</time>
      </trkpt>
      <trkpt lat="47.13664" lon="6.61717">
        <ele>869.8</ele>
        <time>2021-07-29T09:14:24Z</time>
      </trkpt>
      <trkpt lat="47.13659" lon="6.61709">
        <ele>869.2</ele>
        <time>2021-07-29T09:14:25Z</time>
      </trkpt>
      <trkpt lat="47.13654" lon="6.61699">
        <ele>868.6</ele>
        <time>2021-07-29T09:14:26Z</time>
      </trkpt>
      <trkpt lat="47.1365" lon="6.61689">
        <ele>868.2</ele>
        <time>2021-07-29T09:14:27Z</time>
      </trkpt>
      <trkpt lat="47.13646" lon="6.61679">
        <ele>867.8</ele>
        <time>2021-07-29T09:14:28Z</time>
      </trkpt>
      <trkpt lat="47.13642" lon="6.61669">
        <ele>867.4</ele>
        <time>2021-07-29T09:14:29Z</time>
      </trkpt>
      <trkpt lat="47.1364" lon="6.6166">
        <ele>867</ele>
        <time>2021-07-29T09:14:30Z</time>
      </trkpt>
      <trkpt lat="47.13639" lon="6.61651">
        <ele>866.8</ele>
        <time>2021-07-29T09:14:31Z</time>
      </trkpt>
      <trkpt lat="47.13639" lon="6.61642">
        <ele>866.6</ele>
        <time>2021-07-29T09:14:32Z</time>
      </trkpt>
      <trkpt lat="47.13639" lon="6.61633">
        <ele>866.2</ele>
        <time>2021-07-29T09:14:33Z</time>
      </trkpt>
      <trkpt lat="47.1364" lon="6.61625">
        <ele>865.8</ele>
        <time>2021-07-29T09:14:34Z</time>
      </trkpt>
      <trkpt lat="47.13641" lon="6.61617">
        <ele>865.6</ele>
        <time>2021-07-29T09:14:35Z</time>
      </trkpt>
      <trkpt lat="47.13643" lon="6.6161">
        <ele>865.6</ele>
        <time>2021-07-29T09:14:36Z</time>
      </trkpt>
      <trkpt lat="47.13646" lon="6.61604">
        <ele>865.4</ele>
        <time>2021-07-29T09:14:37Z</time>
      </trkpt>
      <trkpt lat="47.1365" lon="6.61599">
        <ele>865.2</ele>
        <time>2021-07-29T09:14:38Z</time>
      </trkpt>
      <trkpt lat="47.13654" lon="6.61594">
        <ele>865</ele>
        <time>2021-07-29T09:14:39Z</time>
      </trkpt>
      <trkpt lat="47.13658" lon="6.61588">
        <ele>864.8</ele>
        <time>2021-07-29T09:14:40Z</time>
      </trkpt>
      <trkpt lat="47.13662" lon="6.61582">
        <ele>864.6</ele>
        <time>2021-07-29T09:14:41Z</time>
      </trkpt>
      <trkpt lat="47.13665" lon="6.61576">
        <ele>864.4</ele>
        <time>2021-07-29T09:14:42Z</time>
      </trkpt>
      <trkpt lat="47.13669" lon="6.6157">
        <ele>864.2</ele>
        <time>2021-07-29T09:14:43Z</time>
      </trkpt>
      <trkpt lat="47.13673" lon="6.61564">
        <ele>864.2</ele>
        <time>2021-07-29T09:14:44Z</time>
      </trkpt>
      <trkpt lat="47.13677" lon="6.61558">
        <ele>864</ele>
        <time>2021-07-29T09:14:45Z</time>
      </trkpt>
      <trkpt lat="47.13681" lon="6.61552">
        <ele>863.8</ele>
        <time>2021-07-29T09:14:46Z</time>
      </trkpt>
      <trkpt lat="47.13686" lon="6.61547">
        <ele>863.6</ele>
        <time>2021-07-29T09:14:47Z</time>
      </trkpt>
      <trkpt lat="47.1369" lon="6.61542">
        <ele>863.4</ele>
        <time>2021-07-29T09:14:48Z</time>
      </trkpt>
      <trkpt lat="47.13695" lon="6.61538">
        <ele>863.4</ele>
        <time>2021-07-29T09:14:49Z</time>
      </trkpt>
      <trkpt lat="47.137" lon="6.61533">
        <ele>862.8</ele>
        <time>2021-07-29T09:14:50Z</time>
      </trkpt>
      <trkpt lat="47.13706" lon="6.6153">
        <ele>862.6</ele>
        <time>2021-07-29T09:14:51Z</time>
      </trkpt>
      <trkpt lat="47.13712" lon="6.61526">
        <ele>862.4</ele>
        <time>2021-07-29T09:14:52Z</time>
      </trkpt>
      <trkpt lat="47.13718" lon="6.61523">
        <ele>862.2</ele>
        <time>2021-07-29T09:14:53Z</time>
      </trkpt>
      <trkpt lat="47.13724" lon="6.61521">
        <ele>861.8</ele>
        <time>2021-07-29T09:14:54Z</time>
      </trkpt>
      <trkpt lat="47.13731" lon="6.61519">
        <ele>861.6</ele>
        <time>2021-07-29T09:14:55Z</time>
      </trkpt>
      <trkpt lat="47.13737" lon="6.61517">
        <ele>861.4</ele>
        <time>2021-07-29T09:14:56Z</time>
      </trkpt>
      <trkpt lat="47.13744" lon="6.61515">
        <ele>861.2</ele>
        <time>2021-07-29T09:14:57Z</time>
      </trkpt>
      <trkpt lat="47.1375" lon="6.61514">
        <ele>860.8</ele>
        <time>2021-07-29T09:14:58Z</time>
      </trkpt>
      <trkpt lat="47.13757" lon="6.61513">
        <ele>860.6</ele>
        <time>2021-07-29T09:14:59Z</time>
      </trkpt>
      <trkpt lat="47.13764" lon="6.61512">
        <ele>860.4</ele>
        <time>2021-07-29T09:15:00Z</time>
      </trkpt>
      <trkpt lat="47.13771" lon="6.61511">
        <ele>859.8</ele>
        <time>2021-07-29T09:15:01Z</time>
      </trkpt>
      <trkpt lat="47.13778" lon="6.6151">
        <ele>859.8</ele>
        <time>2021-07-29T09:15:02Z</time>
      </trkpt>
      <trkpt lat="47.13785" lon="6.61509">
        <ele>859.6</ele>
        <time>2021-07-29T09:15:03Z</time>
      </trkpt>
      <trkpt lat="47.13793" lon="6.61507">
        <ele>859.4</ele>
        <time>2021-07-29T09:15:04Z</time>
      </trkpt>
      <trkpt lat="47.138" lon="6.61505">
        <ele>859</ele>
        <time>2021-07-29T09:15:05Z</time>
      </trkpt>
      <trkpt lat="47.13807" lon="6.61503">
        <ele>858.8</ele>
        <time>2021-07-29T09:15:06Z</time>
      </trkpt>
      <trkpt lat="47.13815" lon="6.61499">
        <ele>858.6</ele>
        <time>2021-07-29T09:15:07Z</time>
      </trkpt>
      <trkpt lat="47.13822" lon="6.61494">
        <ele>858.2</ele>
        <time>2021-07-29T09:15:08Z</time>
      </trkpt>
      <trkpt lat="47.13829" lon="6.61488">
        <ele>858</ele>
        <time>2021-07-29T09:15:09Z</time>
      </trkpt>
      <trkpt lat="47.13835" lon="6.6148">
        <ele>857.8</ele>
        <time>2021-07-29T09:15:10Z</time>
      </trkpt>
      <trkpt lat="47.1384" lon="6.61471">
        <ele>857.8</ele>
        <time>2021-07-29T09:15:11Z</time>
      </trkpt>
      <trkpt lat="47.13845" lon="6.61461">
        <ele>857</ele>
        <time>2021-07-29T09:15:12Z</time>
      </trkpt>
      <trkpt lat="47.13849" lon="6.61451">
        <ele>856.8</ele>
        <time>2021-07-29T09:15:13Z</time>
      </trkpt>
      <trkpt lat="47.13852" lon="6.61439">
        <ele>856.6</ele>
        <time>2021-07-29T09:15:14Z</time>
      </trkpt>
      <trkpt lat="47.13855" lon="6.61428">
        <ele>856.4</ele>
        <time>2021-07-29T09:15:15Z</time>
      </trkpt>
      <trkpt lat="47.13856" lon="6.61416">
        <ele>856.2</ele>
        <time>2021-07-29T09:15:16Z</time>
      </trkpt>
      <trkpt lat="47.13856" lon="6.61405">
        <ele>855.6</ele>
        <time>2021-07-29T09:15:17Z</time>
      </trkpt>
      <trkpt lat="47.13856" lon="6.61393">
        <ele>855.4</ele>
        <time>2021-07-29T09:15:18Z</time>
      </trkpt>
      <trkpt lat="47.13854" lon="6.61381">
        <ele>855.2</ele>
        <time>2021-07-29T09:15:19Z</time>
      </trkpt>
      <trkpt lat="47.13852" lon="6.61369">
        <ele>854.8</ele>
        <time>2021-07-29T09:15:20Z</time>
      </trkpt>
      <trkpt lat="47.13851" lon="6.61358">
        <ele>854.2</ele>
        <time>2021-07-29T09:15:21Z</time>
      </trkpt>
      <trkpt lat="47.13849" lon="6.61346">
        <ele>853.8</ele>
        <time>2021-07-29T09:15:22Z</time>
      </trkpt>
      <trkpt lat="47.13848" lon="6.61334">
        <ele>853.4</ele>
        <time>2021-07-29T09:15:23Z</time>
      </trkpt>
      <trkpt lat="47.13847" lon="6.61322">
        <ele>853.2</ele>
        <time>2021-07-29T09:15:24Z</time>
      </trkpt>
      <trkpt lat="47.13847" lon="6.6131">
        <ele>853</ele>
        <time>2021-07-29T09:15:25Z</time>
      </trkpt>
      <trkpt lat="47.13848" lon="6.61298">
        <ele>852.6</ele>
        <time>2021-07-29T09:15:26Z</time>
      </trkpt>
      <trkpt lat="47.1385" lon="6.61286">
        <ele>852.2</ele>
        <time>2021-07-29T09:15:27Z</time>
      </trkpt>
      <trkpt lat="47.13851" lon="6.61274">
        <ele>852</ele>
        <time>2021-07-29T09:15:28Z</time>
      </trkpt>
      <trkpt lat="47.13854" lon="6.61263">
        <ele>851.6</ele>
        <time>2021-07-29T09:15:29Z</time>
      </trkpt>
      <trkpt lat="47.13858" lon="6.61252">
        <ele>851.2</ele>
        <time>2021-07-29T09:15:30Z</time>
      </trkpt>
      <trkpt lat="47.13863" lon="6.61242">
        <ele>851</ele>
        <time>2021-07-29T09:15:31Z</time>
      </trkpt>
      <trkpt lat="47.13868" lon="6.61232">
        <ele>850.6</ele>
        <time>2021-07-29T09:15:32Z</time>
      </trkpt>
      <trkpt lat="47.13873" lon="6.61222">
        <ele>850.2</ele>
        <time>2021-07-29T09:15:33Z</time>
      </trkpt>
      <trkpt lat="47.13879" lon="6.61214">
        <ele>850</ele>
        <time>2021-07-29T09:15:34Z</time>
      </trkpt>
      <trkpt lat="47.13885" lon="6.61206">
        <ele>849.8</ele>
        <time>2021-07-29T09:15:35Z</time>
      </trkpt>
      <trkpt lat="47.13892" lon="6.612">
        <ele>849.6</ele>
        <time>2021-07-29T09:15:36Z</time>
      </trkpt>
      <trkpt lat="47.13898" lon="6.61195">
        <ele>849.2</ele>
        <time>2021-07-29T09:15:37Z</time>
      </trkpt>
      <trkpt lat="47.13905" lon="6.61188">
        <ele>849</ele>
        <time>2021-07-29T09:15:38Z</time>
      </trkpt>
      <trkpt lat="47.13911" lon="6.61182">
        <ele>848.8</ele>
        <time>2021-07-29T09:15:39Z</time>
      </trkpt>
      <trkpt lat="47.13918" lon="6.61175">
        <ele>848.2</ele>
        <time>2021-07-29T09:15:40Z</time>
      </trkpt>
      <trkpt lat="47.13925" lon="6.61168">
        <ele>848</ele>
        <time>2021-07-29T09:15:41Z</time>
      </trkpt>
      <trkpt lat="47.13932" lon="6.61161">
        <ele>847.8</ele>
        <time>2021-07-29T09:15:42Z</time>
      </trkpt>
      <trkpt lat="47.13939" lon="6.61154">
        <ele>847.4</ele>
        <time>2021-07-29T09:15:43Z</time>
      </trkpt>
      <trkpt lat="47.13946" lon="6.61147">
        <ele>847</ele>
        <time>2021-07-29T09:15:44Z</time>
      </trkpt>
      <trkpt lat="47.13953" lon="6.6114">
        <ele>846.8</ele>
        <time>2021-07-29T09:15:45Z</time>
      </trkpt>
      <trkpt lat="47.1396" lon="6.61133">
        <ele>846.4</ele>
        <time>2021-07-29T09:15:46Z</time>
      </trkpt>
      <trkpt lat="47.13967" lon="6.61126">
        <ele>846.2</ele>
        <time>2021-07-29T09:15:47Z</time>
      </trkpt>
      <trkpt lat="47.13974" lon="6.61118">
        <ele>846</ele>
        <time>2021-07-29T09:15:48Z</time>
      </trkpt>
      <trkpt lat="47.13981" lon="6.6111">
        <ele>845.8</ele>
        <time>2021-07-29T09:15:49Z</time>
      </trkpt>
      <trkpt lat="47.13987" lon="6.61102">
        <ele>846</ele>
        <time>2021-07-29T09:15:50Z</time>
      </trkpt>
      <trkpt lat="47.13993" lon="6.61095">
        <ele>846</ele>
        <time>2021-07-29T09:15:51Z</time>
      </trkpt>
      <trkpt lat="47.13999" lon="6.61089">
        <ele>846.2</ele>
        <time>2021-07-29T09:15:52Z</time>
      </trkpt>
      <trkpt lat="47.14006" lon="6.61083">
        <ele>846</ele>
        <time>2021-07-29T09:15:53Z</time>
      </trkpt>
      <trkpt lat="47.14013" lon="6.61078">
        <ele>846</ele>
        <time>2021-07-29T09:15:54Z</time>
      </trkpt>
      <trkpt lat="47.14019" lon="6.61073">
        <ele>846.2</ele>
        <time>2021-07-29T09:15:55Z</time>
      </trkpt>
      <trkpt lat="47.14025" lon="6.61069">
        <ele>846.2</ele>
        <time>2021-07-29T09:15:56Z</time>
      </trkpt>
      <trkpt lat="47.14032" lon="6.61066">
        <ele>846.2</ele>
        <time>2021-07-29T09:15:57Z</time>
      </trkpt>
      <trkpt lat="47.14038" lon="6.61064">
        <ele>846.4</ele>
        <time>2021-07-29T09:15:58Z</time>
      </trkpt>
      <trkpt lat="47.14045" lon="6.61064">
        <ele>846.4</ele>
        <time>2021-07-29T09:15:59Z</time>
      </trkpt>
      <trkpt lat="47.14052" lon="6.61064">
        <ele>846.4</ele>
        <time>2021-07-29T09:16:00Z</time>
      </trkpt>
      <trkpt lat="47.14058" lon="6.61065">
        <ele>846.4</ele>
        <time>2021-07-29T09:16:01Z</time>
      </trkpt>
      <trkpt lat="47.14063" lon="6.61066">
        <ele>846.6</ele>
        <time>2021-07-29T09:16:02Z</time>
      </trkpt>
      <trkpt lat="47.14068" lon="6.61067">
        <ele>846.6</ele>
        <time>2021-07-29T09:16:03Z</time>
      </trkpt>
      <trkpt lat="47.14074" lon="6.61069">
        <ele>846.6</ele>
        <time>2021-07-29T09:16:04Z</time>
      </trkpt>
      <trkpt lat="47.1408" lon="6.61072">
        <ele>846.8</ele>
        <time>2021-07-29T09:16:05Z</time>
      </trkpt>
      <trkpt lat="47.14086" lon="6.61074">
        <ele>846.8</ele>
        <time>2021-07-29T09:16:06Z</time>
      </trkpt>
      <trkpt lat="47.14091" lon="6.61075">
        <ele>847</ele>
        <time>2021-07-29T09:16:07Z</time>
      </trkpt>
      <trkpt lat="47.14097" lon="6.61076">
        <ele>847.2</ele>
        <time>2021-07-29T09:16:08Z</time>
      </trkpt>
      <trkpt lat="47.14102" lon="6.61078">
        <ele>847.4</ele>
        <time>2021-07-29T09:16:09Z</time>
      </trkpt>
      <trkpt lat="47.14107" lon="6.61078">
        <ele>847.6</ele>
        <time>2021-07-29T09:16:10Z</time>
      </trkpt>
      <trkpt lat="47.14112" lon="6.61079">
        <ele>847.6</ele>
        <time>2021-07-29T09:16:11Z</time>
      </trkpt>
      <trkpt lat="47.14117" lon="6.6108">
        <ele>848</ele>
        <time>2021-07-29T09:16:12Z</time>
      </trkpt>
      <trkpt lat="47.14122" lon="6.6108">
        <ele>848.2</ele>
        <time>2021-07-29T09:16:13Z</time>
      </trkpt>
      <trkpt lat="47.14126" lon="6.6108">
        <ele>848.4</ele>
        <time>2021-07-29T09:16:14Z</time>
      </trkpt>
      <trkpt lat="47.1413" lon="6.6108">
        <ele>848.8</ele>
        <time>2021-07-29T09:16:15Z</time>
      </trkpt>
      <trkpt lat="47.14134" lon="6.61079">
        <ele>849</ele>
        <time>2021-07-29T09:16:16Z</time>
      </trkpt>
      <trkpt lat="47.14138" lon="6.61079">
        <ele>849</ele>
        <time>2021-07-29T09:16:17Z</time>
      </trkpt>
      <trkpt lat="47.14141" lon="6.61079">
        <ele>849.2</ele>
        <time>2021-07-29T09:16:18Z</time>
      </trkpt>
      <trkpt lat="47.14145" lon="6.61078">
        <ele>849.4</ele>
        <time>2021-07-29T09:16:19Z</time>
      </trkpt>
      <trkpt lat="47.14148" lon="6.61077">
        <ele>849.4</ele>
        <time>2021-07-29T09:16:20Z</time>
      </trkpt>
      <trkpt lat="47.14151" lon="6.61076">
        <ele>849.6</ele>
        <time>2021-07-29T09:16:21Z</time>
      </trkpt>
      <trkpt lat="47.14155" lon="6.61076">
        <ele>849.8</ele>
        <time>2021-07-29T09:16:22Z</time>
      </trkpt>
      <trkpt lat="47.14158" lon="6.61074">
        <ele>849.8</ele>
        <time>2021-07-29T09:16:23Z</time>
      </trkpt>
      <trkpt lat="47.1416" lon="6.61072">
        <ele>850</ele>
        <time>2021-07-29T09:16:24Z</time>
      </trkpt>
      <trkpt lat="47.14163" lon="6.61071">
        <ele>850.2</ele>
        <time>2021-07-29T09:16:25Z</time>
      </trkpt>
      <trkpt lat="47.14166" lon="6.61069">
        <ele>850.4</ele>
        <time>2021-07-29T09:16:26Z</time>
      </trkpt>
      <trkpt lat="47.14168" lon="6.61068">
        <ele>850.4</ele>
        <time>2021-07-29T09:16:27Z</time>
      </trkpt>
      <trkpt lat="47.14171" lon="6.61066">
        <ele>850.4</ele>
        <time>2021-07-29T09:16:28Z</time>
      </trkpt>
      <trkpt lat="47.14173" lon="6.61065">
        <ele>850.6</ele>
        <time>2021-07-29T09:16:29Z</time>
      </trkpt>
      <trkpt lat="47.14176" lon="6.61063">
        <ele>850.8</ele>
        <time>2021-07-29T09:16:30Z</time>
      </trkpt>
      <trkpt lat="47.14179" lon="6.61062">
        <ele>851</ele>
        <time>2021-07-29T09:16:31Z</time>
      </trkpt>
      <trkpt lat="47.14181" lon="6.61061">
        <ele>851</ele>
        <time>2021-07-29T09:16:32Z</time>
      </trkpt>
      <trkpt lat="47.14183" lon="6.61058">
        <ele>851</ele>
        <time>2021-07-29T09:16:33Z</time>
      </trkpt>
      <trkpt lat="47.14185" lon="6.61057">
        <ele>851.4</ele>
        <time>2021-07-29T09:16:34Z</time>
      </trkpt>
      <trkpt lat="47.14188" lon="6.61056">
        <ele>851.4</ele>
        <time>2021-07-29T09:16:35Z</time>
      </trkpt>
      <trkpt lat="47.1419" lon="6.61055">
        <ele>851.6</ele>
        <time>2021-07-29T09:16:36Z</time>
      </trkpt>
      <trkpt lat="47.14192" lon="6.61054">
        <ele>851.6</ele>
        <time>2021-07-29T09:16:37Z</time>
      </trkpt>
      <trkpt lat="47.14195" lon="6.61053">
        <ele>851.8</ele>
        <time>2021-07-29T09:16:38Z</time>
      </trkpt>
      <trkpt lat="47.14197" lon="6.61051">
        <ele>852</ele>
        <time>2021-07-29T09:16:39Z</time>
      </trkpt>
      <trkpt lat="47.142" lon="6.61051">
        <ele>852</ele>
        <time>2021-07-29T09:16:40Z</time>
      </trkpt>
      <trkpt lat="47.14202" lon="6.6105">
        <ele>852.2</ele>
        <time>2021-07-29T09:16:41Z</time>
      </trkpt>
      <trkpt lat="47.14204" lon="6.6105">
        <ele>852.2</ele>
        <time>2021-07-29T09:16:42Z</time>
      </trkpt>
      <trkpt lat="47.14207" lon="6.61051">
        <ele>852.4</ele>
        <time>2021-07-29T09:16:43Z</time>
      </trkpt>
      <trkpt lat="47.14209" lon="6.61052">
        <ele>852.6</ele>
        <time>2021-07-29T09:16:44Z</time>
      </trkpt>
      <trkpt lat="47.14211" lon="6.61054">
        <ele>852.6</ele>
        <time>2021-07-29T09:16:45Z</time>
      </trkpt>
      <trkpt lat="47.14213" lon="6.61056">
        <ele>852.6</ele>
        <time>2021-07-29T09:16:46Z</time>
      </trkpt>
      <trkpt lat="47.14215" lon="6.61059">
        <ele>852.6</ele>
        <time>2021-07-29T09:16:47Z</time>
      </trkpt>
      <trkpt lat="47.14216" lon="6.61062">
        <ele>852.8</ele>
        <time>2021-07-29T09:16:48Z</time>
      </trkpt>
      <trkpt lat="47.14218" lon="6.61065">
        <ele>852.8</ele>
        <time>2021-07-29T09:16:49Z</time>
      </trkpt>
      <trkpt lat="47.14219" lon="6.61068">
        <ele>852.8</ele>
        <time>2021-07-29T09:16:50Z</time>
      </trkpt>
      <trkpt lat="47.14221" lon="6.61071">
        <ele>853</ele>
        <time>2021-07-29T09:16:51Z</time>
      </trkpt>
      <trkpt lat="47.14222" lon="6.61074">
        <ele>853</ele>
        <time>2021-07-29T09:16:52Z</time>
      </trkpt>
      <trkpt lat="47.14224" lon="6.61077">
        <ele>853.2</ele>
        <time>2021-07-29T09:16:53Z</time>
      </trkpt>
      <trkpt lat="47.14225" lon="6.6108">
        <ele>853.4</ele>
        <time>2021-07-29T09:16:54Z</time>
      </trkpt>
      <trkpt lat="47.14227" lon="6.61083">
        <ele>853.4</ele>
        <time>2021-07-29T09:16:55Z</time>
      </trkpt>
      <trkpt lat="47.14228" lon="6.61087">
        <ele>853.6</ele>
        <time>2021-07-29T09:16:56Z</time>
      </trkpt>
      <trkpt lat="47.1423" lon="6.6109">
        <ele>853.6</ele>
        <time>2021-07-29T09:16:57Z</time>
      </trkpt>
      <trkpt lat="47.14232" lon="6.61093">
        <ele>853.6</ele>
        <time>2021-07-29T09:16:58Z</time>
      </trkpt>
      <trkpt lat="47.14233" lon="6.61095">
        <ele>853.8</ele>
        <time>2021-07-29T09:16:59Z</time>
      </trkpt>
      <trkpt lat="47.14235" lon="6.61098">
        <ele>854</ele>
        <time>2021-07-29T09:17:00Z</time>
      </trkpt>
      <trkpt lat="47.14237" lon="6.61101">
        <ele>854</ele>
        <time>2021-07-29T09:17:01Z</time>
      </trkpt>
      <trkpt lat="47.14239" lon="6.61104">
        <ele>854</ele>
        <time>2021-07-29T09:17:02Z</time>
      </trkpt>
      <trkpt lat="47.1424" lon="6.61107">
        <ele>854.2</ele>
        <time>2021-07-29T09:17:03Z</time>
      </trkpt>
      <trkpt lat="47.14242" lon="6.6111">
        <ele>854.2</ele>
        <time>2021-07-29T09:17:04Z</time>
      </trkpt>
      <trkpt lat="47.14244" lon="6.61112">
        <ele>854.4</ele>
        <time>2021-07-29T09:17:05Z</time>
      </trkpt>
      <trkpt lat="47.14245" lon="6.61115">
        <ele>854.6</ele>
        <time>2021-07-29T09:17:06Z</time>
      </trkpt>
      <trkpt lat="47.14247" lon="6.61118">
        <ele>854.6</ele>
        <time>2021-07-29T09:17:07Z</time>
      </trkpt>
      <trkpt lat="47.14249" lon="6.61121">
        <ele>854.8</ele>
        <time>2021-07-29T09:17:08Z</time>
      </trkpt>
      <trkpt lat="47.14251" lon="6.61124">
        <ele>854.8</ele>
        <time>2021-07-29T09:17:09Z</time>
      </trkpt>
      <trkpt lat="47.14252" lon="6.61127">
        <ele>855</ele>
        <time>2021-07-29T09:17:10Z</time>
      </trkpt>
      <trkpt lat="47.14254" lon="6.61129">
        <ele>855</ele>
        <time>2021-07-29T09:17:11Z</time>
      </trkpt>
      <trkpt lat="47.14256" lon="6.61132">
        <ele>855.2</ele>
        <time>2021-07-29T09:17:12Z</time>
      </trkpt>
      <trkpt lat="47.14257" lon="6.61135">
        <ele>855.2</ele>
        <time>2021-07-29T09:17:13Z</time>
      </trkpt>
      <trkpt lat="47.14259" lon="6.61137">
        <ele>855.4</ele>
        <time>2021-07-29T09:17:14Z</time>
      </trkpt>
      <trkpt lat="47.14261" lon="6.61139">
        <ele>855.4</ele>
        <time>2021-07-29T09:17:15Z</time>
      </trkpt>
      <trkpt lat="47.14263" lon="6.61141">
        <ele>855.6</ele>
        <time>2021-07-29T09:17:16Z</time>
      </trkpt>
      <trkpt lat="47.14265" lon="6.61143">
        <ele>855.8</ele>
        <time>2021-07-29T09:17:17Z</time>
      </trkpt>
      <trkpt lat="47.14268" lon="6.61144">
        <ele>856</ele>
        <time>2021-07-29T09:17:18Z</time>
      </trkpt>
      <trkpt lat="47.1427" lon="6.61144">
        <ele>856</ele>
        <time>2021-07-29T09:17:19Z</time>
      </trkpt>
      <trkpt lat="47.14273" lon="6.61145">
        <ele>856.2</ele>
        <time>2021-07-29T09:17:20Z</time>
      </trkpt>
      <trkpt lat="47.14276" lon="6.61146">
        <ele>856.2</ele>
        <time>2021-07-29T09:17:21Z</time>
      </trkpt>
      <trkpt lat="47.14278" lon="6.61148">
        <ele>856.4</ele>
        <time>2021-07-29T09:17:22Z</time>
      </trkpt>
      <trkpt lat="47.14281" lon="6.61149">
        <ele>856.6</ele>
        <time>2021-07-29T09:17:23Z</time>
      </trkpt>
      <trkpt lat="47.14283" lon="6.6115">
        <ele>856.6</ele>
        <time>2021-07-29T09:17:24Z</time>
      </trkpt>
      <trkpt lat="47.14285" lon="6.61151">
        <ele>856.8</ele>
        <time>2021-07-29T09:17:25Z</time>
      </trkpt>
      <trkpt lat="47.14287" lon="6.61152">
        <ele>857</ele>
        <time>2021-07-29T09:17:26Z</time>
      </trkpt>
      <trkpt lat="47.1429" lon="6.61153">
        <ele>857.2</ele>
        <time>2021-07-29T09:17:27Z</time>
      </trkpt>
      <trkpt lat="47.14292" lon="6.61154">
        <ele>857.4</ele>
        <time>2021-07-29T09:17:28Z</time>
      </trkpt>
      <trkpt lat="47.14294" lon="6.61155">
        <ele>857.6</ele>
        <time>2021-07-29T09:17:29Z</time>
      </trkpt>
      <trkpt lat="47.14296" lon="6.61155">
        <ele>857.6</ele>
        <time>2021-07-29T09:17:30Z</time>
      </trkpt>
      <trkpt lat="47.14298" lon="6.61155">
        <ele>857.8</ele>
        <time>2021-07-29T09:17:31Z</time>
      </trkpt>
      <trkpt lat="47.14299" lon="6.61155">
        <ele>858</ele>
        <time>2021-07-29T09:17:32Z</time>
      </trkpt>
      <trkpt lat="47.14301" lon="6.61155">
        <ele>858.2</ele>
        <time>2021-07-29T09:17:33Z</time>
      </trkpt>
      <trkpt lat="47.14303" lon="6.61155">
        <ele>858.4</ele>
        <time>2021-07-29T09:17:34Z</time>
      </trkpt>
      <trkpt lat="47.14304" lon="6.61156">
        <ele>858.6</ele>
        <time>2021-07-29T09:17:35Z</time>
      </trkpt>
      <trkpt lat="47.14306" lon="6.61156">
        <ele>858.8</ele>
        <time>2021-07-29T09:17:36Z</time>
      </trkpt>
      <trkpt lat="47.14308" lon="6.61156">
        <ele>859</ele>
        <time>2021-07-29T09:17:37Z</time>
      </trkpt>
      <trkpt lat="47.14309" lon="6.61156">
        <ele>859.2</ele>
        <time>2021-07-29T09:17:38Z</time>
      </trkpt>
      <trkpt lat="47.14311" lon="6.61156">
        <ele>859.4</ele>
        <time>2021-07-29T09:17:39Z</time>
      </trkpt>
      <trkpt lat="47.14313" lon="6.61156">
        <ele>859.6</ele>
        <time>2021-07-29T09:17:40Z</time>
      </trkpt>
      <trkpt lat="47.14314" lon="6.61156">
        <ele>859.8</ele>
        <time>2021-07-29T09:17:41Z</time>
      </trkpt>
      <trkpt lat="47.14316" lon="6.61156">
        <ele>860.2</ele>
        <time>2021-07-29T09:17:42Z</time>
      </trkpt>
      <trkpt lat="47.14318" lon="6.61155">
        <ele>860.4</ele>
        <time>2021-07-29T09:17:43Z</time>
      </trkpt>
      <trkpt lat="47.14319" lon="6.61154">
        <ele>860.6</ele>
        <time>2021-07-29T09:17:44Z</time>
      </trkpt>
      <trkpt lat="47.1432" lon="6.61154">
        <ele>860.6</ele>
        <time>2021-07-29T09:17:45Z</time>
      </trkpt>
      <trkpt lat="47.14322" lon="6.61153">
        <ele>860.8</ele>
        <time>2021-07-29T09:17:46Z</time>
      </trkpt>
      <trkpt lat="47.14325" lon="6.61152">
        <ele>861</ele>
        <time>2021-07-29T09:17:47Z</time>
      </trkpt>
      <trkpt lat="47.14327" lon="6.61152">
        <ele>861.2</ele>
        <time>2021-07-29T09:17:48Z</time>
      </trkpt>
      <trkpt lat="47.14329" lon="6.6115">
        <ele>861.4</ele>
        <time>2021-07-29T09:17:49Z</time>
      </trkpt>
      <trkpt lat="47.14332" lon="6.61149">
        <ele>861.4</ele>
        <time>2021-07-29T09:17:50Z</time>
      </trkpt>
      <trkpt lat="47.14334" lon="6.61148">
        <ele>861.6</ele>
        <time>2021-07-29T09:17:51Z</time>
      </trkpt>
      <trkpt lat="47.14337" lon="6.61147">
        <ele>862</ele>
        <time>2021-07-29T09:17:52Z</time>
      </trkpt>
      <trkpt lat="47.14339" lon="6.61145">
        <ele>862</ele>
        <time>2021-07-29T09:17:53Z</time>
      </trkpt>
      <trkpt lat="47.14342" lon="6.61144">
        <ele>862.2</ele>
        <time>2021-07-29T09:17:54Z</time>
      </trkpt>
      <trkpt lat="47.14345" lon="6.61141">
        <ele>862.4</ele>
        <time>2021-07-29T09:17:55Z</time>
      </trkpt>
      <trkpt lat="47.14347" lon="6.61138">
        <ele>862.4</ele>
        <time>2021-07-29T09:17:56Z</time>
      </trkpt>
      <trkpt lat="47.14349" lon="6.61135">
        <ele>862.6</ele>
        <time>2021-07-29T09:17:57Z</time>
      </trkpt>
      <trkpt lat="47.1435" lon="6.61132">
        <ele>862.6</ele>
        <time>2021-07-29T09:17:58Z</time>
      </trkpt>
      <trkpt lat="47.14351" lon="6.61129">
        <ele>862.6</ele>
        <time>2021-07-29T09:17:59Z</time>
      </trkpt>
      <trkpt lat="47.14353" lon="6.61126">
        <ele>862.6</ele>
        <time>2021-07-29T09:18:00Z</time>
      </trkpt>
      <trkpt lat="47.14353" lon="6.61123">
        <ele>862.8</ele>
        <time>2021-07-29T09:18:01Z</time>
      </trkpt>
      <trkpt lat="47.14354" lon="6.6112">
        <ele>862.8</ele>
        <time>2021-07-29T09:18:02Z</time>
      </trkpt>
      <trkpt lat="47.14354" lon="6.61117">
        <ele>862.8</ele>
        <time>2021-07-29T09:18:03Z</time>
      </trkpt>
      <trkpt lat="47.14355" lon="6.61114">
        <ele>862.8</ele>
        <time>2021-07-29T09:18:04Z</time>
      </trkpt>
      <trkpt lat="47.14356" lon="6.6111">
        <ele>862.8</ele>
        <time>2021-07-29T09:18:05Z</time>
      </trkpt>
      <trkpt lat="47.14357" lon="6.61107">
        <ele>862.8</ele>
        <time>2021-07-29T09:18:06Z</time>
      </trkpt>
      <trkpt lat="47.14357" lon="6.61103">
        <ele>862.8</ele>
        <time>2021-07-29T09:18:07Z</time>
      </trkpt>
      <trkpt lat="47.14358" lon="6.611">
        <ele>862.8</ele>
        <time>2021-07-29T09:18:08Z</time>
      </trkpt>
      <trkpt lat="47.14358" lon="6.61096">
        <ele>862.8</ele>
        <time>2021-07-29T09:18:09Z</time>
      </trkpt>
      <trkpt lat="47.14359" lon="6.61092">
        <ele>862.8</ele>
        <time>2021-07-29T09:18:10Z</time>
      </trkpt>
      <trkpt lat="47.14359" lon="6.61089">
        <ele>862.8</ele>
        <time>2021-07-29T09:18:11Z</time>
      </trkpt>
      <trkpt lat="47.1436" lon="6.61085">
        <ele>863</ele>
        <time>2021-07-29T09:18:12Z</time>
      </trkpt>
      <trkpt lat="47.14361" lon="6.61082">
        <ele>863</ele>
        <time>2021-07-29T09:18:13Z</time>
      </trkpt>
      <trkpt lat="47.14362" lon="6.61079">
        <ele>863.2</ele>
        <time>2021-07-29T09:18:14Z</time>
      </trkpt>
      <trkpt lat="47.14362" lon="6.61076">
        <ele>863.2</ele>
        <time>2021-07-29T09:18:15Z</time>
      </trkpt>
      <trkpt lat="47.14363" lon="6.61073">
        <ele>863.2</ele>
        <time>2021-07-29T09:18:16Z</time>
      </trkpt>
      <trkpt lat="47.14364" lon="6.61071">
        <ele>863.2</ele>
        <time>2021-07-29T09:18:17Z</time>
      </trkpt>
      <trkpt lat="47.14366" lon="6.61068">
        <ele>863.4</ele>
        <time>2021-07-29T09:18:18Z</time>
      </trkpt>
      <trkpt lat="47.14367" lon="6.61065">
        <ele>863.4</ele>
        <time>2021-07-29T09:18:19Z</time>
      </trkpt>
      <trkpt lat="47.14368" lon="6.61062">
        <ele>863.6</ele>
        <time>2021-07-29T09:18:20Z</time>
      </trkpt>
      <trkpt lat="47.14369" lon="6.61059">
        <ele>863.6</ele>
        <time>2021-07-29T09:18:21Z</time>
      </trkpt>
      <trkpt lat="47.1437" lon="6.61056">
        <ele>863.8</ele>
        <time>2021-07-29T09:18:22Z</time>
      </trkpt>
      <trkpt lat="47.14371" lon="6.61054">
        <ele>863.8</ele>
        <time>2021-07-29T09:18:23Z</time>
      </trkpt>
      <trkpt lat="47.14372" lon="6.61051">
        <ele>864</ele>
        <time>2021-07-29T09:18:24Z</time>
      </trkpt>
      <trkpt lat="47.14374" lon="6.61049">
        <ele>864.2</ele>
        <time>2021-07-29T09:18:25Z</time>
      </trkpt>
      <trkpt lat="47.14375" lon="6.61047">
        <ele>864.2</ele>
        <time>2021-07-29T09:18:26Z</time>
      </trkpt>
      <trkpt lat="47.14376" lon="6.61045">
        <ele>864.4</ele>
        <time>2021-07-29T09:18:27Z</time>
      </trkpt>
      <trkpt lat="47.14377" lon="6.61043">
        <ele>864.6</ele>
        <time>2021-07-29T09:18:28Z</time>
      </trkpt>
      <trkpt lat="47.14378" lon="6.61041">
        <ele>864.6</ele>
        <time>2021-07-29T09:18:29Z</time>
      </trkpt>
      <trkpt lat="47.1438" lon="6.6104">
        <ele>864.8</ele>
        <time>2021-07-29T09:18:30Z</time>
      </trkpt>
      <trkpt lat="47.14381" lon="6.61038">
        <ele>865</ele>
        <time>2021-07-29T09:18:31Z</time>
      </trkpt>
      <trkpt lat="47.14383" lon="6.61036">
        <ele>865</ele>
        <time>2021-07-29T09:18:32Z</time>
      </trkpt>
      <trkpt lat="47.14384" lon="6.61034">
        <ele>865.2</ele>
        <time>2021-07-29T09:18:33Z</time>
      </trkpt>
      <trkpt lat="47.14385" lon="6.61032">
        <ele>865.2</ele>
        <time>2021-07-29T09:18:34Z</time>
      </trkpt>
      <trkpt lat="47.14386" lon="6.6103">
        <ele>865.4</ele>
        <time>2021-07-29T09:18:35Z</time>
      </trkpt>
      <trkpt lat="47.14388" lon="6.61028">
        <ele>865.6</ele>
        <time>2021-07-29T09:18:36Z</time>
      </trkpt>
      <trkpt lat="47.1439" lon="6.61026">
        <ele>865.6</ele>
        <time>2021-07-29T09:18:37Z</time>
      </trkpt>
      <trkpt lat="47.14391" lon="6.61024">
        <ele>865.8</ele>
        <time>2021-07-29T09:18:38Z</time>
      </trkpt>
      <trkpt lat="47.14392" lon="6.61022">
        <ele>865.8</ele>
        <time>2021-07-29T09:18:39Z</time>
      </trkpt>
      <trkpt lat="47.14393" lon="6.6102">
        <ele>866</ele>
        <time>2021-07-29T09:18:40Z</time>
      </trkpt>
      <trkpt lat="47.14394" lon="6.61019">
        <ele>866</ele>
        <time>2021-07-29T09:18:41Z</time>
      </trkpt>
      <trkpt lat="47.14395" lon="6.61018">
        <ele>866.2</ele>
        <time>2021-07-29T09:18:42Z</time>
      </trkpt>
      <trkpt lat="47.14396" lon="6.61016">
        <ele>866.2</ele>
        <time>2021-07-29T09:18:43Z</time>
      </trkpt>
      <trkpt lat="47.14397" lon="6.61014">
        <ele>866.2</ele>
        <time>2021-07-29T09:18:44Z</time>
      </trkpt>
      <trkpt lat="47.14398" lon="6.61013">
        <ele>866.4</ele>
        <time>2021-07-29T09:18:45Z</time>
      </trkpt>
      <trkpt lat="47.14399" lon="6.61011">
        <ele>866.4</ele>
        <time>2021-07-29T09:18:46Z</time>
      </trkpt>
      <trkpt lat="47.144" lon="6.6101">
        <ele>866.4</ele>
        <time>2021-07-29T09:18:47Z</time>
      </trkpt>
      <trkpt lat="47.14402" lon="6.61008">
        <ele>866.6</ele>
        <time>2021-07-29T09:18:48Z</time>
      </trkpt>
      <trkpt lat="47.14403" lon="6.61006">
        <ele>866.6</ele>
        <time>2021-07-29T09:18:49Z</time>
      </trkpt>
      <trkpt lat="47.14404" lon="6.61005">
        <ele>866.6</ele>
        <time>2021-07-29T09:18:50Z</time>
      </trkpt>
      <trkpt lat="47.14405" lon="6.61002">
        <ele>866.6</ele>
        <time>2021-07-29T09:18:51Z</time>
      </trkpt>
      <trkpt lat="47.14406" lon="6.61">
        <ele>866.6</ele>
        <time>2021-07-29T09:18:52Z</time>
      </trkpt>
      <trkpt lat="47.14407" lon="6.60998">
        <ele>866.6</ele>
        <time>2021-07-29T09:18:53Z</time>
      </trkpt>
      <trkpt lat="47.14408" lon="6.60995">
        <ele>866.6</ele>
        <time>2021-07-29T09:18:54Z</time>
      </trkpt>
      <trkpt lat="47.1441" lon="6.60993">
        <ele>866.6</ele>
        <time>2021-07-29T09:18:55Z</time>
      </trkpt>
      <trkpt lat="47.14411" lon="6.6099">
        <ele>866.6</ele>
        <time>2021-07-29T09:18:56Z</time>
      </trkpt>
      <trkpt lat="47.14412" lon="6.60987">
        <ele>866.6</ele>
        <time>2021-07-29T09:18:57Z</time>
      </trkpt>
      <trkpt lat="47.14413" lon="6.60984">
        <ele>866.6</ele>
        <time>2021-07-29T09:18:58Z</time>
      </trkpt>
      <trkpt lat="47.14414" lon="6.60981">
        <ele>866.6</ele>
        <time>2021-07-29T09:18:59Z</time>
      </trkpt>
      <trkpt lat="47.14415" lon="6.60977">
        <ele>866.6</ele>
        <time>2021-07-29T09:19:00Z</time>
      </trkpt>
      <trkpt lat="47.14415" lon="6.60974">
        <ele>866.6</ele>
        <time>2021-07-29T09:19:01Z</time>
      </trkpt>
      <trkpt lat="47.14416" lon="6.60969">
        <ele>866.6</ele>
        <time>2021-07-29T09:19:02Z</time>
      </trkpt>
      <trkpt lat="47.14416" lon="6.60965">
        <ele>866.4</ele>
        <time>2021-07-29T09:19:03Z</time>
      </trkpt>
      <trkpt lat="47.14416" lon="6.6096">
        <ele>866.4</ele>
        <time>2021-07-29T09:19:04Z</time>
      </trkpt>
      <trkpt lat="47.14416" lon="6.60956">
        <ele>866.4</ele>
        <time>2021-07-29T09:19:05Z</time>
      </trkpt>
      <trkpt lat="47.14416" lon="6.60952">
        <ele>866.4</ele>
        <time>2021-07-29T09:19:06Z</time>
      </trkpt>
      <trkpt lat="47.14415" lon="6.60948">
        <ele>866.4</ele>
        <time>2021-07-29T09:19:07Z</time>
      </trkpt>
      <trkpt lat="47.14415" lon="6.60945">
        <ele>866.6</ele>
        <time>2021-07-29T09:19:08Z</time>
      </trkpt>
      <trkpt lat="47.14414" lon="6.60941">
        <ele>866.6</ele>
        <time>2021-07-29T09:19:09Z</time>
      </trkpt>
      <trkpt lat="47.14413" lon="6.60937">
        <ele>866.6</ele>
        <time>2021-07-29T09:19:10Z</time>
      </trkpt>
      <trkpt lat="47.14413" lon="6.60934">
        <ele>866.6</ele>
        <time>2021-07-29T09:19:11Z</time>
      </trkpt>
      <trkpt lat="47.14412" lon="6.60931">
        <ele>866.6</ele>
        <time>2021-07-29T09:19:12Z</time>
      </trkpt>
      <trkpt lat="47.14411" lon="6.60928">
        <ele>866.6</ele>
        <time>2021-07-29T09:19:13Z</time>
      </trkpt>
      <trkpt lat="47.14411" lon="6.60925">
        <ele>866.6</ele>
        <time>2021-07-29T09:19:14Z</time>
      </trkpt>
      <trkpt lat="47.1441" lon="6.60922">
        <ele>866.6</ele>
        <time>2021-07-29T09:19:15Z</time>
      </trkpt>
      <trkpt lat="47.14409" lon="6.60919">
        <ele>866.6</ele>
        <time>2021-07-29T09:19:16Z</time>
      </trkpt>
      <trkpt lat="47.14409" lon="6.60916">
        <ele>866.8</ele>
        <time>2021-07-29T09:19:17Z</time>
      </trkpt>
      <trkpt lat="47.14408" lon="6.60913">
        <ele>866.8</ele>
        <time>2021-07-29T09:19:18Z</time>
      </trkpt>
      <trkpt lat="47.14408" lon="6.60909">
        <ele>866.8</ele>
        <time>2021-07-29T09:19:19Z</time>
      </trkpt>
      <trkpt lat="47.14407" lon="6.60906">
        <ele>866.8</ele>
        <time>2021-07-29T09:19:20Z</time>
      </trkpt>
      <trkpt lat="47.14407" lon="6.60903">
        <ele>866.8</ele>
        <time>2021-07-29T09:19:21Z</time>
      </trkpt>
      <trkpt lat="47.14407" lon="6.60901">
        <ele>866.8</ele>
        <time>2021-07-29T09:19:22Z</time>
      </trkpt>
      <trkpt lat="47.14407" lon="6.60898">
        <ele>866.8</ele>
        <time>2021-07-29T09:19:23Z</time>
      </trkpt>
      <trkpt lat="47.14407" lon="6.60896">
        <ele>867</ele>
        <time>2021-07-29T09:19:24Z</time>
      </trkpt>
      <trkpt lat="47.14407" lon="6.60893">
        <ele>867</ele>
        <time>2021-07-29T09:19:25Z</time>
      </trkpt>
      <trkpt lat="47.14407" lon="6.60891">
        <ele>867.2</ele>
        <time>2021-07-29T09:19:26Z</time>
      </trkpt>
      <trkpt lat="47.14408" lon="6.60888">
        <ele>867.2</ele>
        <time>2021-07-29T09:19:27Z</time>
      </trkpt>
      <trkpt lat="47.14408" lon="6.60886">
        <ele>867</ele>
        <time>2021-07-29T09:19:28Z</time>
      </trkpt>
      <trkpt lat="47.14409" lon="6.60884">
        <ele>867.2</ele>
        <time>2021-07-29T09:19:29Z</time>
      </trkpt>
      <trkpt lat="47.14409" lon="6.60881">
        <ele>867</ele>
        <time>2021-07-29T09:19:30Z</time>
      </trkpt>
      <trkpt lat="47.1441" lon="6.60878">
        <ele>867</ele>
        <time>2021-07-29T09:19:31Z</time>
      </trkpt>
      <trkpt lat="47.14411" lon="6.60876">
        <ele>867</ele>
        <time>2021-07-29T09:19:32Z</time>
      </trkpt>
      <trkpt lat="47.14412" lon="6.60873">
        <ele>867</ele>
        <time>2021-07-29T09:19:33Z</time>
      </trkpt>
      <trkpt lat="47.14412" lon="6.60871">
        <ele>867</ele>
        <time>2021-07-29T09:19:34Z</time>
      </trkpt>
      <trkpt lat="47.14413" lon="6.60869">
        <ele>866.8</ele>
        <time>2021-07-29T09:19:35Z</time>
      </trkpt>
      <trkpt lat="47.14414" lon="6.60868">
        <ele>866.8</ele>
        <time>2021-07-29T09:19:36Z</time>
      </trkpt>
      <trkpt lat="47.14414" lon="6.60866">
        <ele>866.8</ele>
        <time>2021-07-29T09:19:37Z</time>
      </trkpt>
      <trkpt lat="47.14415" lon="6.60865">
        <ele>866.8</ele>
        <time>2021-07-29T09:19:38Z</time>
      </trkpt>
      <trkpt lat="47.14416" lon="6.60864">
        <ele>866.8</ele>
        <time>2021-07-29T09:19:39Z</time>
      </trkpt>
      <trkpt lat="47.14416" lon="6.60862">
        <ele>866.8</ele>
        <time>2021-07-29T09:19:40Z</time>
      </trkpt>
      <trkpt lat="47.14417" lon="6.60861">
        <ele>866.6</ele>
        <time>2021-07-29T09:19:41Z</time>
      </trkpt>
      <trkpt lat="47.14418" lon="6.6086">
        <ele>866.6</ele>
        <time>2021-07-29T09:19:42Z</time>
      </trkpt>
      <trkpt lat="47.14418" lon="6.60859">
        <ele>866.6</ele>
        <time>2021-07-29T09:19:43Z</time>
      </trkpt>
      <trkpt lat="47.14419" lon="6.60858">
        <ele>866.6</ele>
        <time>2021-07-29T09:19:44Z</time>
      </trkpt>
      <trkpt lat="47.1442" lon="6.60856">
        <ele>866.6</ele>
        <time>2021-07-29T09:19:45Z</time>
      </trkpt>
      <trkpt lat="47.14421" lon="6.60854">
        <ele>866.6</ele>
        <time>2021-07-29T09:19:46Z</time>
      </trkpt>
      <trkpt lat="47.14422" lon="6.60853">
        <ele>866.6</ele>
        <time>2021-07-29T09:19:47Z</time>
      </trkpt>
      <trkpt lat="47.14422" lon="6.60851">
        <ele>866.6</ele>
        <time>2021-07-29T09:19:48Z</time>
      </trkpt>
      <trkpt lat="47.14423" lon="6.60849">
        <ele>866.6</ele>
        <time>2021-07-29T09:19:49Z</time>
      </trkpt>
      <trkpt lat="47.14424" lon="6.60847">
        <ele>866.6</ele>
        <time>2021-07-29T09:19:50Z</time>
      </trkpt>
      <trkpt lat="47.14426" lon="6.60845">
        <ele>866.6</ele>
        <time>2021-07-29T09:19:51Z</time>
      </trkpt>
      <trkpt lat="47.14427" lon="6.60843">
        <ele>866.6</ele>
        <time>2021-07-29T09:19:52Z</time>
      </trkpt>
      <trkpt lat="47.14429" lon="6.60839">
        <ele>866.6</ele>
        <time>2021-07-29T09:19:53Z</time>
      </trkpt>
      <trkpt lat="47.14431" lon="6.60836">
        <ele>866.4</ele>
        <time>2021-07-29T09:19:54Z</time>
      </trkpt>
      <trkpt lat="47.14433" lon="6.60833">
        <ele>866.4</ele>
        <time>2021-07-29T09:19:55Z</time>
      </trkpt>
      <trkpt lat="47.14435" lon="6.60829">
        <ele>866.4</ele>
        <time>2021-07-29T09:19:56Z</time>
      </trkpt>
      <trkpt lat="47.14438" lon="6.60826">
        <ele>866.4</ele>
        <time>2021-07-29T09:19:57Z</time>
      </trkpt>
      <trkpt lat="47.14441" lon="6.60823">
        <ele>866.4</ele>
        <time>2021-07-29T09:19:58Z</time>
      </trkpt>
      <trkpt lat="47.14444" lon="6.60819">
        <ele>866.2</ele>
        <time>2021-07-29T09:19:59Z</time>
      </trkpt>
      <trkpt lat="47.14447" lon="6.60816">
        <ele>866.2</ele>
        <time>2021-07-29T09:20:00Z</time>
      </trkpt>
      <trkpt lat="47.1445" lon="6.60813">
        <ele>866.4</ele>
        <time>2021-07-29T09:20:01Z</time>
      </trkpt>
      <trkpt lat="47.14453" lon="6.60809">
        <ele>866.2</ele>
        <time>2021-07-29T09:20:02Z</time>
      </trkpt>
      <trkpt lat="47.14456" lon="6.60806">
        <ele>866.2</ele>
        <time>2021-07-29T09:20:03Z</time>
      </trkpt>
      <trkpt lat="47.14459" lon="6.60803">
        <ele>866.2</ele>
        <time>2021-07-29T09:20:04Z</time>
      </trkpt>
      <trkpt lat="47.14462" lon="6.608">
        <ele>866.2</ele>
        <time>2021-07-29T09:20:05Z</time>
      </trkpt>
      <trkpt lat="47.14465" lon="6.60797">
        <ele>866</ele>
        <time>2021-07-29T09:20:06Z</time>
      </trkpt>
      <trkpt lat="47.14468" lon="6.60794">
        <ele>866</ele>
        <time>2021-07-29T09:20:07Z</time>
      </trkpt>
      <trkpt lat="47.14471" lon="6.60791">
        <ele>865.8</ele>
        <time>2021-07-29T09:20:08Z</time>
      </trkpt>
      <trkpt lat="47.14475" lon="6.60788">
        <ele>865.6</ele>
        <time>2021-07-29T09:20:09Z</time>
      </trkpt>
      <trkpt lat="47.14478" lon="6.60785">
        <ele>865.6</ele>
        <time>2021-07-29T09:20:10Z</time>
      </trkpt>
      <trkpt lat="47.14482" lon="6.60781">
        <ele>865.6</ele>
        <time>2021-07-29T09:20:11Z</time>
      </trkpt>
      <trkpt lat="47.14485" lon="6.60778">
        <ele>865.4</ele>
        <time>2021-07-29T09:20:12Z</time>
      </trkpt>
      <trkpt lat="47.14489" lon="6.60775">
        <ele>865.4</ele>
        <time>2021-07-29T09:20:13Z</time>
      </trkpt>
      <trkpt lat="47.14492" lon="6.60772">
        <ele>865.2</ele>
        <time>2021-07-29T09:20:14Z</time>
      </trkpt>
      <trkpt lat="47.14496" lon="6.60768">
        <ele>865.2</ele>
        <time>2021-07-29T09:20:15Z</time>
      </trkpt>
      <trkpt lat="47.145" lon="6.60766">
        <ele>865.2</ele>
        <time>2021-07-29T09:20:16Z</time>
      </trkpt>
      <trkpt lat="47.14504" lon="6.60762">
        <ele>865</ele>
        <time>2021-07-29T09:20:17Z</time>
      </trkpt>
      <trkpt lat="47.14508" lon="6.6076">
        <ele>864.8</ele>
        <time>2021-07-29T09:20:18Z</time>
      </trkpt>
      <trkpt lat="47.14512" lon="6.60758">
        <ele>864.6</ele>
        <time>2021-07-29T09:20:19Z</time>
      </trkpt>
      <trkpt lat="47.14517" lon="6.60757">
        <ele>864.2</ele>
        <time>2021-07-29T09:20:20Z</time>
      </trkpt>
      <trkpt lat="47.14522" lon="6.60757">
        <ele>863.6</ele>
        <time>2021-07-29T09:20:21Z</time>
      </trkpt>
      <trkpt lat="47.14527" lon="6.60755">
        <ele>863.2</ele>
        <time>2021-07-29T09:20:22Z</time>
      </trkpt>
      <trkpt lat="47.14533" lon="6.60757">
        <ele>862.8</ele>
        <time>2021-07-29T09:20:23Z</time>
      </trkpt>
      <trkpt lat="47.14539" lon="6.60757">
        <ele>862</ele>
        <time>2021-07-29T09:20:24Z</time>
      </trkpt>
      <trkpt lat="47.14546" lon="6.60759">
        <ele>861.4</ele>
        <time>2021-07-29T09:20:25Z</time>
      </trkpt>
      <trkpt lat="47.14553" lon="6.6076">
        <ele>860.6</ele>
        <time>2021-07-29T09:20:26Z</time>
      </trkpt>
      <trkpt lat="47.14561" lon="6.60762">
        <ele>860</ele>
        <time>2021-07-29T09:20:27Z</time>
      </trkpt>
      <trkpt lat="47.1457" lon="6.60762">
        <ele>859.6</ele>
        <time>2021-07-29T09:20:28Z</time>
      </trkpt>
      <trkpt lat="47.14578" lon="6.60762">
        <ele>859.2</ele>
        <time>2021-07-29T09:20:29Z</time>
      </trkpt>
      <trkpt lat="47.14587" lon="6.60763">
        <ele>858.4</ele>
        <time>2021-07-29T09:20:30Z</time>
      </trkpt>
      <trkpt lat="47.14596" lon="6.60764">
        <ele>857.4</ele>
        <time>2021-07-29T09:20:31Z</time>
      </trkpt>
      <trkpt lat="47.14606" lon="6.60765">
        <ele>856.6</ele>
        <time>2021-07-29T09:20:32Z</time>
      </trkpt>
      <trkpt lat="47.14616" lon="6.60768">
        <ele>856</ele>
        <time>2021-07-29T09:20:33Z</time>
      </trkpt>
      <trkpt lat="47.14626" lon="6.60769">
        <ele>855.4</ele>
        <time>2021-07-29T09:20:34Z</time>
      </trkpt>
      <trkpt lat="47.14636" lon="6.60771">
        <ele>854.6</ele>
        <time>2021-07-29T09:20:35Z</time>
      </trkpt>
      <trkpt lat="47.14646" lon="6.60772">
        <ele>854.4</ele>
        <time>2021-07-29T09:20:36Z</time>
      </trkpt>
      <trkpt lat="47.14655" lon="6.60772">
        <ele>853.8</ele>
        <time>2021-07-29T09:20:37Z</time>
      </trkpt>
      <trkpt lat="47.14665" lon="6.6077">
        <ele>853.6</ele>
        <time>2021-07-29T09:20:38Z</time>
      </trkpt>
      <trkpt lat="47.14674" lon="6.60768">
        <ele>853.2</ele>
        <time>2021-07-29T09:20:39Z</time>
      </trkpt>
      <trkpt lat="47.14683" lon="6.60763">
        <ele>853</ele>
        <time>2021-07-29T09:20:40Z</time>
      </trkpt>
      <trkpt lat="47.14692" lon="6.60759">
        <ele>852.8</ele>
        <time>2021-07-29T09:20:41Z</time>
      </trkpt>
      <trkpt lat="47.14701" lon="6.60755">
        <ele>852.6</ele>
        <time>2021-07-29T09:20:42Z</time>
      </trkpt>
      <trkpt lat="47.14709" lon="6.60751">
        <ele>852.6</ele>
        <time>2021-07-29T09:20:43Z</time>
      </trkpt>
      <trkpt lat="47.14717" lon="6.60748">
        <ele>852.6</ele>
        <time>2021-07-29T09:20:44Z</time>
      </trkpt>
      <trkpt lat="47.14724" lon="6.60744">
        <ele>852.8</ele>
        <time>2021-07-29T09:20:45Z</time>
      </trkpt>
      <trkpt lat="47.14731" lon="6.60741">
        <ele>853</ele>
        <time>2021-07-29T09:20:46Z</time>
      </trkpt>
      <trkpt lat="47.14737" lon="6.60738">
        <ele>853.2</ele>
        <time>2021-07-29T09:20:47Z</time>
      </trkpt>
      <trkpt lat="47.14743" lon="6.60735">
        <ele>853.2</ele>
        <time>2021-07-29T09:20:48Z</time>
      </trkpt>
      <trkpt lat="47.14749" lon="6.60733">
        <ele>853.2</ele>
        <time>2021-07-29T09:20:49Z</time>
      </trkpt>
      <trkpt lat="47.14755" lon="6.6073">
        <ele>852.8</ele>
        <time>2021-07-29T09:20:50Z</time>
      </trkpt>
      <trkpt lat="47.14761" lon="6.60726">
        <ele>852.4</ele>
        <time>2021-07-29T09:20:51Z</time>
      </trkpt>
      <trkpt lat="47.14768" lon="6.60722">
        <ele>851.8</ele>
        <time>2021-07-29T09:20:52Z</time>
      </trkpt>
      <trkpt lat="47.14774" lon="6.60717">
        <ele>851.6</ele>
        <time>2021-07-29T09:20:53Z</time>
      </trkpt>
      <trkpt lat="47.14781" lon="6.60712">
        <ele>851</ele>
        <time>2021-07-29T09:20:54Z</time>
      </trkpt>
      <trkpt lat="47.14788" lon="6.60707">
        <ele>851</ele>
        <time>2021-07-29T09:20:55Z</time>
      </trkpt>
      <trkpt lat="47.14795" lon="6.60702">
        <ele>851</ele>
        <time>2021-07-29T09:20:56Z</time>
      </trkpt>
      <trkpt lat="47.14801" lon="6.60698">
        <ele>851</ele>
        <time>2021-07-29T09:20:57Z</time>
      </trkpt>
      <trkpt lat="47.14807" lon="6.60697">
        <ele>851.4</ele>
        <time>2021-07-29T09:20:58Z</time>
      </trkpt>
      <trkpt lat="47.14813" lon="6.60698">
        <ele>851.8</ele>
        <time>2021-07-29T09:20:59Z</time>
      </trkpt>
      <trkpt lat="47.14817" lon="6.607">
        <ele>852.2</ele>
        <time>2021-07-29T09:21:00Z</time>
      </trkpt>
      <trkpt lat="47.14821" lon="6.60703">
        <ele>852.6</ele>
        <time>2021-07-29T09:21:01Z</time>
      </trkpt>
      <trkpt lat="47.14825" lon="6.60707">
        <ele>853</ele>
        <time>2021-07-29T09:21:02Z</time>
      </trkpt>
      <trkpt lat="47.14829" lon="6.60711">
        <ele>853.4</ele>
        <time>2021-07-29T09:21:03Z</time>
      </trkpt>
      <trkpt lat="47.14832" lon="6.60714">
        <ele>853.8</ele>
        <time>2021-07-29T09:21:04Z</time>
      </trkpt>
      <trkpt lat="47.14834" lon="6.60718">
        <ele>854.2</ele>
        <time>2021-07-29T09:21:05Z</time>
      </trkpt>
      <trkpt lat="47.14837" lon="6.60721">
        <ele>854.6</ele>
        <time>2021-07-29T09:21:06Z</time>
      </trkpt>
      <trkpt lat="47.1484" lon="6.60724">
        <ele>854.8</ele>
        <time>2021-07-29T09:21:07Z</time>
      </trkpt>
      <trkpt lat="47.14843" lon="6.60726">
        <ele>855</ele>
        <time>2021-07-29T09:21:08Z</time>
      </trkpt>
      <trkpt lat="47.14845" lon="6.60729">
        <ele>855.2</ele>
        <time>2021-07-29T09:21:09Z</time>
      </trkpt>
      <trkpt lat="47.14847" lon="6.60731">
        <ele>855.4</ele>
        <time>2021-07-29T09:21:10Z</time>
      </trkpt>
      <trkpt lat="47.14848" lon="6.60734">
        <ele>855.6</ele>
        <time>2021-07-29T09:21:11Z</time>
      </trkpt>
      <trkpt lat="47.1485" lon="6.60737">
        <ele>855.8</ele>
        <time>2021-07-29T09:21:12Z</time>
      </trkpt>
      <trkpt lat="47.14851" lon="6.60739">
        <ele>855.8</ele>
        <time>2021-07-29T09:21:13Z</time>
      </trkpt>
      <trkpt lat="47.14853" lon="6.60742">
        <ele>856</ele>
        <time>2021-07-29T09:21:14Z</time>
      </trkpt>
      <trkpt lat="47.14854" lon="6.60743">
        <ele>856.2</ele>
        <time>2021-07-29T09:21:15Z</time>
      </trkpt>
      <trkpt lat="47.14855" lon="6.60746">
        <ele>856.4</ele>
        <time>2021-07-29T09:21:16Z</time>
      </trkpt>
      <trkpt lat="47.14856" lon="6.60747">
        <ele>856.4</ele>
        <time>2021-07-29T09:21:17Z</time>
      </trkpt>
      <trkpt lat="47.14857" lon="6.60749">
        <ele>856.4</ele>
        <time>2021-07-29T09:21:18Z</time>
      </trkpt>
      <trkpt lat="47.14858" lon="6.60751">
        <ele>856.6</ele>
        <time>2021-07-29T09:21:19Z</time>
      </trkpt>
      <trkpt lat="47.14858" lon="6.60753">
        <ele>856.8</ele>
        <time>2021-07-29T09:21:20Z</time>
      </trkpt>
      <trkpt lat="47.14859" lon="6.60755">
        <ele>857</ele>
        <time>2021-07-29T09:21:21Z</time>
      </trkpt>
      <trkpt lat="47.1486" lon="6.60756">
        <ele>857</ele>
        <time>2021-07-29T09:21:22Z</time>
      </trkpt>
      <trkpt lat="47.14862" lon="6.60758">
        <ele>857.2</ele>
        <time>2021-07-29T09:21:23Z</time>
      </trkpt>
      <trkpt lat="47.14863" lon="6.60759">
        <ele>857.2</ele>
        <time>2021-07-29T09:21:24Z</time>
      </trkpt>
      <trkpt lat="47.14865" lon="6.6076">
        <ele>857.2</ele>
        <time>2021-07-29T09:21:25Z</time>
      </trkpt>
      <trkpt lat="47.14867" lon="6.60761">
        <ele>857.2</ele>
        <time>2021-07-29T09:21:26Z</time>
      </trkpt>
      <trkpt lat="47.14868" lon="6.60762">
        <ele>857.2</ele>
        <time>2021-07-29T09:21:27Z</time>
      </trkpt>
      <trkpt lat="47.14869" lon="6.60762">
        <ele>857.2</ele>
        <time>2021-07-29T09:21:28Z</time>
      </trkpt>
      <trkpt lat="47.14871" lon="6.60763">
        <ele>857.2</ele>
        <time>2021-07-29T09:21:29Z</time>
      </trkpt>
      <trkpt lat="47.14872" lon="6.60764">
        <ele>857.2</ele>
        <time>2021-07-29T09:21:30Z</time>
      </trkpt>
      <trkpt lat="47.14873" lon="6.60764">
        <ele>857.2</ele>
        <time>2021-07-29T09:21:31Z</time>
      </trkpt>
      <trkpt lat="47.14875" lon="6.60765">
        <ele>857.2</ele>
        <time>2021-07-29T09:21:32Z</time>
      </trkpt>
      <trkpt lat="47.14876" lon="6.60765">
        <ele>857.2</ele>
        <time>2021-07-29T09:21:33Z</time>
      </trkpt>
      <trkpt lat="47.14877" lon="6.60766">
        <ele>857.2</ele>
        <time>2021-07-29T09:21:34Z</time>
      </trkpt>
      <trkpt lat="47.14878" lon="6.60767">
        <ele>857.2</ele>
        <time>2021-07-29T09:21:35Z</time>
      </trkpt>
      <trkpt lat="47.1488" lon="6.60768">
        <ele>857.2</ele>
        <time>2021-07-29T09:21:36Z</time>
      </trkpt>
      <trkpt lat="47.14881" lon="6.60769">
        <ele>857.2</ele>
        <time>2021-07-29T09:21:37Z</time>
      </trkpt>
      <trkpt lat="47.14883" lon="6.6077">
        <ele>857</ele>
        <time>2021-07-29T09:21:38Z</time>
      </trkpt>
      <trkpt lat="47.14885" lon="6.60771">
        <ele>857</ele>
        <time>2021-07-29T09:21:39Z</time>
      </trkpt>
      <trkpt lat="47.14886" lon="6.60771">
        <ele>857</ele>
        <time>2021-07-29T09:21:40Z</time>
      </trkpt>
      <trkpt lat="47.14887" lon="6.60772">
        <ele>857</ele>
        <time>2021-07-29T09:21:41Z</time>
      </trkpt>
      <trkpt lat="47.14888" lon="6.60772">
        <ele>856.8</ele>
        <time>2021-07-29T09:21:42Z</time>
      </trkpt>
      <trkpt lat="47.1489" lon="6.60772">
        <ele>856.8</ele>
        <time>2021-07-29T09:21:43Z</time>
      </trkpt>
      <trkpt lat="47.14891" lon="6.60772">
        <ele>856.6</ele>
        <time>2021-07-29T09:21:44Z</time>
      </trkpt>
      <trkpt lat="47.14893" lon="6.60772">
        <ele>856.4</ele>
        <time>2021-07-29T09:21:45Z</time>
      </trkpt>
      <trkpt lat="47.14894" lon="6.60772">
        <ele>856.4</ele>
        <time>2021-07-29T09:21:46Z</time>
      </trkpt>
      <trkpt lat="47.14895" lon="6.60771">
        <ele>856.2</ele>
        <time>2021-07-29T09:21:47Z</time>
      </trkpt>
      <trkpt lat="47.14896" lon="6.6077">
        <ele>856.2</ele>
        <time>2021-07-29T09:21:48Z</time>
      </trkpt>
      <trkpt lat="47.14898" lon="6.60769">
        <ele>856</ele>
        <time>2021-07-29T09:21:49Z</time>
      </trkpt>
      <trkpt lat="47.14898" lon="6.60769">
        <ele>855.8</ele>
        <time>2021-07-29T09:21:50Z</time>
      </trkpt>
      <trkpt lat="47.149" lon="6.60768">
        <ele>855.8</ele>
        <time>2021-07-29T09:21:51Z</time>
      </trkpt>
      <trkpt lat="47.14901" lon="6.60768">
        <ele>855.6</ele>
        <time>2021-07-29T09:21:52Z</time>
      </trkpt>
      <trkpt lat="47.14902" lon="6.60768">
        <ele>855.6</ele>
        <time>2021-07-29T09:21:53Z</time>
      </trkpt>
      <trkpt lat="47.14902" lon="6.60768">
        <ele>855.6</ele>
        <time>2021-07-29T09:21:54Z</time>
      </trkpt>
      <trkpt lat="47.14903" lon="6.60768">
        <ele>855.6</ele>
        <time>2021-07-29T09:21:55Z</time>
      </trkpt>
      <trkpt lat="47.14903" lon="6.60768">
        <ele>855.6</ele>
        <time>2021-07-29T09:21:56Z</time>
      </trkpt>
      <trkpt lat="47.14904" lon="6.60768">
        <ele>855.6</ele>
        <time>2021-07-29T09:21:57Z</time>
      </trkpt>
      <trkpt lat="47.14904" lon="6.60768">
        <ele>855.6</ele>
        <time>2021-07-29T09:21:58Z</time>
      </trkpt>
      <trkpt lat="47.14904" lon="6.60768">
        <ele>855.6</ele>
        <time>2021-07-29T09:21:59Z</time>
      </trkpt>
      <trkpt lat="47.14904" lon="6.60768">
        <ele>855.6</ele>
        <time>2021-07-29T09:22:00Z</time>
      </trkpt>
      <trkpt lat="47.14904" lon="6.60768">
        <ele>855.6</ele>
        <time>2021-07-29T09:22:01Z</time>
      </trkpt>
      <trkpt lat="47.14896" lon="6.60772">
        <ele>857.6</ele>
        <time>2021-07-29T09:41:56Z</time>
      </trkpt>
      <trkpt lat="47.14895" lon="6.60772">
        <ele>857.8</ele>
        <time>2021-07-29T09:41:57Z</time>
      </trkpt>
      <trkpt lat="47.14894" lon="6.60772">
        <ele>857.8</ele>
        <time>2021-07-29T09:41:58Z</time>
      </trkpt>
      <trkpt lat="47.14893" lon="6.60772">
        <ele>857.8</ele>
        <time>2021-07-29T09:41:59Z</time>
      </trkpt>
      <trkpt lat="47.14892" lon="6.60772">
        <ele>858</ele>
        <time>2021-07-29T09:42:00Z</time>
      </trkpt>
      <trkpt lat="47.14891" lon="6.60772">
        <ele>858</ele>
        <time>2021-07-29T09:42:01Z</time>
      </trkpt>
      <trkpt lat="47.1489" lon="6.60771">
        <ele>858.2</ele>
        <time>2021-07-29T09:42:02Z</time>
      </trkpt>
      <trkpt lat="47.14889" lon="6.60772">
        <ele>858.2</ele>
        <time>2021-07-29T09:42:03Z</time>
      </trkpt>
      <trkpt lat="47.14889" lon="6.60772">
        <ele>858.2</ele>
        <time>2021-07-29T09:42:04Z</time>
      </trkpt>
      <trkpt lat="47.14889" lon="6.60772">
        <ele>858.2</ele>
        <time>2021-07-29T09:42:05Z</time>
      </trkpt>
      <trkpt lat="47.14889" lon="6.60771">
        <ele>858.2</ele>
        <time>2021-07-29T09:42:06Z</time>
      </trkpt>
      <trkpt lat="47.14888" lon="6.6077">
        <ele>858.2</ele>
        <time>2021-07-29T09:42:07Z</time>
      </trkpt>
      <trkpt lat="47.14887" lon="6.6077">
        <ele>858.2</ele>
        <time>2021-07-29T09:42:08Z</time>
      </trkpt>
      <trkpt lat="47.14886" lon="6.60769">
        <ele>858.2</ele>
        <time>2021-07-29T09:42:09Z</time>
      </trkpt>
      <trkpt lat="47.14885" lon="6.60769">
        <ele>858.2</ele>
        <time>2021-07-29T09:42:10Z</time>
      </trkpt>
      <trkpt lat="47.14877" lon="6.60765">
        <ele>858.4</ele>
        <time>2021-07-29T09:42:15Z</time>
      </trkpt>
      <trkpt lat="47.14875" lon="6.60764">
        <ele>858.6</ele>
        <time>2021-07-29T09:42:16Z</time>
      </trkpt>
      <trkpt lat="47.14873" lon="6.60763">
        <ele>858.6</ele>
        <time>2021-07-29T09:42:17Z</time>
      </trkpt>
      <trkpt lat="47.14871" lon="6.60762">
        <ele>858.4</ele>
        <time>2021-07-29T09:42:18Z</time>
      </trkpt>
      <trkpt lat="47.14869" lon="6.60762">
        <ele>858.4</ele>
        <time>2021-07-29T09:42:19Z</time>
      </trkpt>
      <trkpt lat="47.14867" lon="6.60761">
        <ele>858.4</ele>
        <time>2021-07-29T09:42:20Z</time>
      </trkpt>
      <trkpt lat="47.14864" lon="6.60759">
        <ele>858.4</ele>
        <time>2021-07-29T09:42:21Z</time>
      </trkpt>
      <trkpt lat="47.14862" lon="6.60758">
        <ele>858.4</ele>
        <time>2021-07-29T09:42:22Z</time>
      </trkpt>
      <trkpt lat="47.1486" lon="6.60756">
        <ele>858.2</ele>
        <time>2021-07-29T09:42:23Z</time>
      </trkpt>
      <trkpt lat="47.14858" lon="6.60753">
        <ele>858</ele>
        <time>2021-07-29T09:42:24Z</time>
      </trkpt>
      <trkpt lat="47.14856" lon="6.6075">
        <ele>857.8</ele>
        <time>2021-07-29T09:42:25Z</time>
      </trkpt>
      <trkpt lat="47.14854" lon="6.60746">
        <ele>857.6</ele>
        <time>2021-07-29T09:42:26Z</time>
      </trkpt>
      <trkpt lat="47.14852" lon="6.60743">
        <ele>857.4</ele>
        <time>2021-07-29T09:42:27Z</time>
      </trkpt>
      <trkpt lat="47.1485" lon="6.6074">
        <ele>857.2</ele>
        <time>2021-07-29T09:42:28Z</time>
      </trkpt>
      <trkpt lat="47.14848" lon="6.60737">
        <ele>857</ele>
        <time>2021-07-29T09:42:29Z</time>
      </trkpt>
      <trkpt lat="47.14846" lon="6.60733">
        <ele>856.8</ele>
        <time>2021-07-29T09:42:30Z</time>
      </trkpt>
      <trkpt lat="47.14844" lon="6.6073">
        <ele>856.6</ele>
        <time>2021-07-29T09:42:31Z</time>
      </trkpt>
      <trkpt lat="47.14842" lon="6.60726">
        <ele>856.4</ele>
        <time>2021-07-29T09:42:32Z</time>
      </trkpt>
      <trkpt lat="47.14839" lon="6.60722">
        <ele>856.2</ele>
        <time>2021-07-29T09:42:33Z</time>
      </trkpt>
      <trkpt lat="47.14836" lon="6.60719">
        <ele>856</ele>
        <time>2021-07-29T09:42:34Z</time>
      </trkpt>
      <trkpt lat="47.14833" lon="6.60716">
        <ele>855.6</ele>
        <time>2021-07-29T09:42:35Z</time>
      </trkpt>
      <trkpt lat="47.1483" lon="6.60712">
        <ele>855.4</ele>
        <time>2021-07-29T09:42:36Z</time>
      </trkpt>
      <trkpt lat="47.14826" lon="6.60707">
        <ele>854.8</ele>
        <time>2021-07-29T09:42:37Z</time>
      </trkpt>
      <trkpt lat="47.14822" lon="6.60702">
        <ele>854.2</ele>
        <time>2021-07-29T09:42:38Z</time>
      </trkpt>
      <trkpt lat="47.14818" lon="6.60697">
        <ele>853.8</ele>
        <time>2021-07-29T09:42:39Z</time>
      </trkpt>
      <trkpt lat="47.14812" lon="6.60695">
        <ele>853.6</ele>
        <time>2021-07-29T09:42:40Z</time>
      </trkpt>
      <trkpt lat="47.14805" lon="6.60695">
        <ele>853.2</ele>
        <time>2021-07-29T09:42:41Z</time>
      </trkpt>
      <trkpt lat="47.14799" lon="6.60697">
        <ele>852.8</ele>
        <time>2021-07-29T09:42:42Z</time>
      </trkpt>
      <trkpt lat="47.14793" lon="6.60701">
        <ele>852.6</ele>
        <time>2021-07-29T09:42:43Z</time>
      </trkpt>
      <trkpt lat="47.14787" lon="6.60706">
        <ele>852.8</ele>
        <time>2021-07-29T09:42:44Z</time>
      </trkpt>
      <trkpt lat="47.14781" lon="6.6071">
        <ele>852.6</ele>
        <time>2021-07-29T09:42:45Z</time>
      </trkpt>
      <trkpt lat="47.14776" lon="6.60714">
        <ele>852.6</ele>
        <time>2021-07-29T09:42:46Z</time>
      </trkpt>
      <trkpt lat="47.14772" lon="6.60718">
        <ele>852.8</ele>
        <time>2021-07-29T09:42:47Z</time>
      </trkpt>
      <trkpt lat="47.14768" lon="6.60721">
        <ele>853</ele>
        <time>2021-07-29T09:42:48Z</time>
      </trkpt>
      <trkpt lat="47.14764" lon="6.60723">
        <ele>853.2</ele>
        <time>2021-07-29T09:42:49Z</time>
      </trkpt>
      <trkpt lat="47.1476" lon="6.60725">
        <ele>853.6</ele>
        <time>2021-07-29T09:42:50Z</time>
      </trkpt>
      <trkpt lat="47.14756" lon="6.60727">
        <ele>853.8</ele>
        <time>2021-07-29T09:42:51Z</time>
      </trkpt>
      <trkpt lat="47.14753" lon="6.60729">
        <ele>854.2</ele>
        <time>2021-07-29T09:42:52Z</time>
      </trkpt>
      <trkpt lat="47.14749" lon="6.6073">
        <ele>854.2</ele>
        <time>2021-07-29T09:42:53Z</time>
      </trkpt>
      <trkpt lat="47.14746" lon="6.60732">
        <ele>854.4</ele>
        <time>2021-07-29T09:42:54Z</time>
      </trkpt>
      <trkpt lat="47.14742" lon="6.60734">
        <ele>854.6</ele>
        <time>2021-07-29T09:42:55Z</time>
      </trkpt>
      <trkpt lat="47.14739" lon="6.60736">
        <ele>854.6</ele>
        <time>2021-07-29T09:42:56Z</time>
      </trkpt>
      <trkpt lat="47.14735" lon="6.60737">
        <ele>854.6</ele>
        <time>2021-07-29T09:42:57Z</time>
      </trkpt>
      <trkpt lat="47.14731" lon="6.60739">
        <ele>854.4</ele>
        <time>2021-07-29T09:42:58Z</time>
      </trkpt>
      <trkpt lat="47.14726" lon="6.60741">
        <ele>854.4</ele>
        <time>2021-07-29T09:42:59Z</time>
      </trkpt>
      <trkpt lat="47.14722" lon="6.60743">
        <ele>854.2</ele>
        <time>2021-07-29T09:43:00Z</time>
      </trkpt>
      <trkpt lat="47.14717" lon="6.60746">
        <ele>854.4</ele>
        <time>2021-07-29T09:43:01Z</time>
      </trkpt>
      <trkpt lat="47.14712" lon="6.60748">
        <ele>854</ele>
        <time>2021-07-29T09:43:02Z</time>
      </trkpt>
      <trkpt lat="47.14707" lon="6.6075">
        <ele>853.8</ele>
        <time>2021-07-29T09:43:03Z</time>
      </trkpt>
      <trkpt lat="47.14702" lon="6.60752">
        <ele>854</ele>
        <time>2021-07-29T09:43:04Z</time>
      </trkpt>
      <trkpt lat="47.14697" lon="6.60754">
        <ele>854</ele>
        <time>2021-07-29T09:43:05Z</time>
      </trkpt>
      <trkpt lat="47.14692" lon="6.60756">
        <ele>854</ele>
        <time>2021-07-29T09:43:06Z</time>
      </trkpt>
      <trkpt lat="47.14688" lon="6.60759">
        <ele>854</ele>
        <time>2021-07-29T09:43:07Z</time>
      </trkpt>
      <trkpt lat="47.14683" lon="6.60761">
        <ele>854</ele>
        <time>2021-07-29T09:43:08Z</time>
      </trkpt>
      <trkpt lat="47.14678" lon="6.60763">
        <ele>854</ele>
        <time>2021-07-29T09:43:09Z</time>
      </trkpt>
      <trkpt lat="47.14674" lon="6.60764">
        <ele>854.2</ele>
        <time>2021-07-29T09:43:10Z</time>
      </trkpt>
      <trkpt lat="47.1467" lon="6.60766">
        <ele>854.2</ele>
        <time>2021-07-29T09:43:11Z</time>
      </trkpt>
      <trkpt lat="47.14665" lon="6.60767">
        <ele>854.2</ele>
        <time>2021-07-29T09:43:12Z</time>
      </trkpt>
      <trkpt lat="47.14661" lon="6.60768">
        <ele>854.4</ele>
        <time>2021-07-29T09:43:13Z</time>
      </trkpt>
      <trkpt lat="47.14657" lon="6.60769">
        <ele>854.4</ele>
        <time>2021-07-29T09:43:14Z</time>
      </trkpt>
      <trkpt lat="47.14653" lon="6.60769">
        <ele>854.6</ele>
        <time>2021-07-29T09:43:15Z</time>
      </trkpt>
      <trkpt lat="47.14649" lon="6.60769">
        <ele>854.6</ele>
        <time>2021-07-29T09:43:16Z</time>
      </trkpt>
      <trkpt lat="47.14645" lon="6.60768">
        <ele>854.8</ele>
        <time>2021-07-29T09:43:17Z</time>
      </trkpt>
      <trkpt lat="47.14642" lon="6.60768">
        <ele>855</ele>
        <time>2021-07-29T09:43:18Z</time>
      </trkpt>
      <trkpt lat="47.14638" lon="6.60768">
        <ele>855.2</ele>
        <time>2021-07-29T09:43:19Z</time>
      </trkpt>
      <trkpt lat="47.14635" lon="6.60767">
        <ele>855.4</ele>
        <time>2021-07-29T09:43:20Z</time>
      </trkpt>
      <trkpt lat="47.14632" lon="6.60767">
        <ele>855.6</ele>
        <time>2021-07-29T09:43:21Z</time>
      </trkpt>
      <trkpt lat="47.14629" lon="6.60767">
        <ele>855.6</ele>
        <time>2021-07-29T09:43:22Z</time>
      </trkpt>
      <trkpt lat="47.14627" lon="6.60766">
        <ele>855.8</ele>
        <time>2021-07-29T09:43:23Z</time>
      </trkpt>
      <trkpt lat="47.14624" lon="6.60765">
        <ele>856</ele>
        <time>2021-07-29T09:43:24Z</time>
      </trkpt>
      <trkpt lat="47.14622" lon="6.60765">
        <ele>856.2</ele>
        <time>2021-07-29T09:43:25Z</time>
      </trkpt>
      <trkpt lat="47.1462" lon="6.60764">
        <ele>856.4</ele>
        <time>2021-07-29T09:43:26Z</time>
      </trkpt>
      <trkpt lat="47.14618" lon="6.60764">
        <ele>856.4</ele>
        <time>2021-07-29T09:43:27Z</time>
      </trkpt>
      <trkpt lat="47.14616" lon="6.60764">
        <ele>856.6</ele>
        <time>2021-07-29T09:43:28Z</time>
      </trkpt>
      <trkpt lat="47.14614" lon="6.60763">
        <ele>856.8</ele>
        <time>2021-07-29T09:43:29Z</time>
      </trkpt>
      <trkpt lat="47.14612" lon="6.60763">
        <ele>856.8</ele>
        <time>2021-07-29T09:43:30Z</time>
      </trkpt>
      <trkpt lat="47.1461" lon="6.60762">
        <ele>857</ele>
        <time>2021-07-29T09:43:31Z</time>
      </trkpt>
      <trkpt lat="47.14608" lon="6.60762">
        <ele>857</ele>
        <time>2021-07-29T09:43:32Z</time>
      </trkpt>
      <trkpt lat="47.14606" lon="6.60761">
        <ele>857.2</ele>
        <time>2021-07-29T09:43:33Z</time>
      </trkpt>
      <trkpt lat="47.14604" lon="6.60761">
        <ele>857.4</ele>
        <time>2021-07-29T09:43:34Z</time>
      </trkpt>
      <trkpt lat="47.14602" lon="6.60761">
        <ele>857.4</ele>
        <time>2021-07-29T09:43:35Z</time>
      </trkpt>
      <trkpt lat="47.146" lon="6.6076">
        <ele>857.6</ele>
        <time>2021-07-29T09:43:36Z</time>
      </trkpt>
      <trkpt lat="47.14598" lon="6.6076">
        <ele>857.8</ele>
        <time>2021-07-29T09:43:37Z</time>
      </trkpt>
      <trkpt lat="47.14596" lon="6.6076">
        <ele>858</ele>
        <time>2021-07-29T09:43:38Z</time>
      </trkpt>
      <trkpt lat="47.14595" lon="6.60759">
        <ele>858.2</ele>
        <time>2021-07-29T09:43:39Z</time>
      </trkpt>
      <trkpt lat="47.14593" lon="6.60758">
        <ele>858.2</ele>
        <time>2021-07-29T09:43:40Z</time>
      </trkpt>
      <trkpt lat="47.14592" lon="6.60757">
        <ele>858.4</ele>
        <time>2021-07-29T09:43:41Z</time>
      </trkpt>
      <trkpt lat="47.1459" lon="6.60756">
        <ele>858.4</ele>
        <time>2021-07-29T09:43:42Z</time>
      </trkpt>
      <trkpt lat="47.14589" lon="6.60756">
        <ele>858.6</ele>
        <time>2021-07-29T09:43:43Z</time>
      </trkpt>
      <trkpt lat="47.14587" lon="6.60755">
        <ele>858.8</ele>
        <time>2021-07-29T09:43:44Z</time>
      </trkpt>
      <trkpt lat="47.14585" lon="6.60755">
        <ele>858.8</ele>
        <time>2021-07-29T09:43:45Z</time>
      </trkpt>
      <trkpt lat="47.14584" lon="6.60755">
        <ele>859</ele>
        <time>2021-07-29T09:43:46Z</time>
      </trkpt>
      <trkpt lat="47.14582" lon="6.60755">
        <ele>859.2</ele>
        <time>2021-07-29T09:43:47Z</time>
      </trkpt>
      <trkpt lat="47.1458" lon="6.60755">
        <ele>859.2</ele>
        <time>2021-07-29T09:43:48Z</time>
      </trkpt>
      <trkpt lat="47.14579" lon="6.60755">
        <ele>859.4</ele>
        <time>2021-07-29T09:43:49Z</time>
      </trkpt>
      <trkpt lat="47.14578" lon="6.60754">
        <ele>859.6</ele>
        <time>2021-07-29T09:43:50Z</time>
      </trkpt>
      <trkpt lat="47.14576" lon="6.60754">
        <ele>859.8</ele>
        <time>2021-07-29T09:43:51Z</time>
      </trkpt>
      <trkpt lat="47.14575" lon="6.60755">
        <ele>859.8</ele>
        <time>2021-07-29T09:43:52Z</time>
      </trkpt>
      <trkpt lat="47.14573" lon="6.60755">
        <ele>859.8</ele>
        <time>2021-07-29T09:43:53Z</time>
      </trkpt>
      <trkpt lat="47.14572" lon="6.60755">
        <ele>860</ele>
        <time>2021-07-29T09:43:54Z</time>
      </trkpt>
      <trkpt lat="47.1457" lon="6.60754">
        <ele>860</ele>
        <time>2021-07-29T09:43:55Z</time>
      </trkpt>
      <trkpt lat="47.14568" lon="6.60753">
        <ele>860</ele>
        <time>2021-07-29T09:43:56Z</time>
      </trkpt>
      <trkpt lat="47.14567" lon="6.60753">
        <ele>860</ele>
        <time>2021-07-29T09:43:57Z</time>
      </trkpt>
      <trkpt lat="47.14565" lon="6.60752">
        <ele>860</ele>
        <time>2021-07-29T09:43:58Z</time>
      </trkpt>
      <trkpt lat="47.14563" lon="6.60752">
        <ele>860.2</ele>
        <time>2021-07-29T09:43:59Z</time>
      </trkpt>
      <trkpt lat="47.14562" lon="6.60752">
        <ele>860.4</ele>
        <time>2021-07-29T09:44:00Z</time>
      </trkpt>
      <trkpt lat="47.1456" lon="6.60752">
        <ele>860.4</ele>
        <time>2021-07-29T09:44:01Z</time>
      </trkpt>
      <trkpt lat="47.14558" lon="6.60752">
        <ele>860.6</ele>
        <time>2021-07-29T09:44:02Z</time>
      </trkpt>
      <trkpt lat="47.14557" lon="6.60752">
        <ele>860.8</ele>
        <time>2021-07-29T09:44:03Z</time>
      </trkpt>
      <trkpt lat="47.14555" lon="6.6075">
        <ele>861</ele>
        <time>2021-07-29T09:44:04Z</time>
      </trkpt>
      <trkpt lat="47.14554" lon="6.60749">
        <ele>861</ele>
        <time>2021-07-29T09:44:05Z</time>
      </trkpt>
      <trkpt lat="47.14553" lon="6.60748">
        <ele>861.2</ele>
        <time>2021-07-29T09:44:06Z</time>
      </trkpt>
      <trkpt lat="47.14551" lon="6.60748">
        <ele>861.4</ele>
        <time>2021-07-29T09:44:07Z</time>
      </trkpt>
      <trkpt lat="47.14549" lon="6.60747">
        <ele>861.4</ele>
        <time>2021-07-29T09:44:08Z</time>
      </trkpt>
      <trkpt lat="47.14548" lon="6.60747">
        <ele>861.6</ele>
        <time>2021-07-29T09:44:09Z</time>
      </trkpt>
      <trkpt lat="47.14546" lon="6.60746">
        <ele>861.8</ele>
        <time>2021-07-29T09:44:10Z</time>
      </trkpt>
      <trkpt lat="47.14545" lon="6.60746">
        <ele>862</ele>
        <time>2021-07-29T09:44:11Z</time>
      </trkpt>
      <trkpt lat="47.14543" lon="6.60745">
        <ele>862</ele>
        <time>2021-07-29T09:44:12Z</time>
      </trkpt>
      <trkpt lat="47.14542" lon="6.60745">
        <ele>862.2</ele>
        <time>2021-07-29T09:44:13Z</time>
      </trkpt>
      <trkpt lat="47.1454" lon="6.60744">
        <ele>862.4</ele>
        <time>2021-07-29T09:44:14Z</time>
      </trkpt>
      <trkpt lat="47.14539" lon="6.60744">
        <ele>862.4</ele>
        <time>2021-07-29T09:44:15Z</time>
      </trkpt>
      <trkpt lat="47.14537" lon="6.60743">
        <ele>862.6</ele>
        <time>2021-07-29T09:44:16Z</time>
      </trkpt>
      <trkpt lat="47.14535" lon="6.60742">
        <ele>862.6</ele>
        <time>2021-07-29T09:44:17Z</time>
      </trkpt>
      <trkpt lat="47.14534" lon="6.60742">
        <ele>863</ele>
        <time>2021-07-29T09:44:18Z</time>
      </trkpt>
      <trkpt lat="47.14532" lon="6.60742">
        <ele>863</ele>
        <time>2021-07-29T09:44:19Z</time>
      </trkpt>
      <trkpt lat="47.14531" lon="6.60741">
        <ele>863.2</ele>
        <time>2021-07-29T09:44:20Z</time>
      </trkpt>
      <trkpt lat="47.14529" lon="6.60741">
        <ele>863.4</ele>
        <time>2021-07-29T09:44:21Z</time>
      </trkpt>
      <trkpt lat="47.14527" lon="6.60741">
        <ele>863.6</ele>
        <time>2021-07-29T09:44:22Z</time>
      </trkpt>
      <trkpt lat="47.14526" lon="6.60741">
        <ele>863.6</ele>
        <time>2021-07-29T09:44:23Z</time>
      </trkpt>
      <trkpt lat="47.14525" lon="6.60741">
        <ele>863.8</ele>
        <time>2021-07-29T09:44:24Z</time>
      </trkpt>
      <trkpt lat="47.14523" lon="6.60741">
        <ele>863.8</ele>
        <time>2021-07-29T09:44:25Z</time>
      </trkpt>
      <trkpt lat="47.14522" lon="6.60742">
        <ele>864</ele>
        <time>2021-07-29T09:44:26Z</time>
      </trkpt>
      <trkpt lat="47.1452" lon="6.60742">
        <ele>864.2</ele>
        <time>2021-07-29T09:44:27Z</time>
      </trkpt>
      <trkpt lat="47.14518" lon="6.60742">
        <ele>864.2</ele>
        <time>2021-07-29T09:44:28Z</time>
      </trkpt>
      <trkpt lat="47.14517" lon="6.60742">
        <ele>864.4</ele>
        <time>2021-07-29T09:44:29Z</time>
      </trkpt>
      <trkpt lat="47.14516" lon="6.60742">
        <ele>864.6</ele>
        <time>2021-07-29T09:44:30Z</time>
      </trkpt>
      <trkpt lat="47.14515" lon="6.60743">
        <ele>864.6</ele>
        <time>2021-07-29T09:44:31Z</time>
      </trkpt>
      <trkpt lat="47.14513" lon="6.60744">
        <ele>864.8</ele>
        <time>2021-07-29T09:44:32Z</time>
      </trkpt>
      <trkpt lat="47.14512" lon="6.60745">
        <ele>864.8</ele>
        <time>2021-07-29T09:44:33Z</time>
      </trkpt>
      <trkpt lat="47.1451" lon="6.60746">
        <ele>865</ele>
        <time>2021-07-29T09:44:34Z</time>
      </trkpt>
      <trkpt lat="47.14509" lon="6.60746">
        <ele>865</ele>
        <time>2021-07-29T09:44:35Z</time>
      </trkpt>
      <trkpt lat="47.14508" lon="6.60747">
        <ele>865</ele>
        <time>2021-07-29T09:44:36Z</time>
      </trkpt>
      <trkpt lat="47.14506" lon="6.60748">
        <ele>865.2</ele>
        <time>2021-07-29T09:44:37Z</time>
      </trkpt>
      <trkpt lat="47.14505" lon="6.6075">
        <ele>865.2</ele>
        <time>2021-07-29T09:44:38Z</time>
      </trkpt>
      <trkpt lat="47.14503" lon="6.60751">
        <ele>865.4</ele>
        <time>2021-07-29T09:44:39Z</time>
      </trkpt>
      <trkpt lat="47.14502" lon="6.60753">
        <ele>865.4</ele>
        <time>2021-07-29T09:44:40Z</time>
      </trkpt>
      <trkpt lat="47.145" lon="6.60754">
        <ele>865.4</ele>
        <time>2021-07-29T09:44:41Z</time>
      </trkpt>
      <trkpt lat="47.14499" lon="6.60755">
        <ele>865.4</ele>
        <time>2021-07-29T09:44:42Z</time>
      </trkpt>
      <trkpt lat="47.14497" lon="6.60756">
        <ele>865.6</ele>
        <time>2021-07-29T09:44:43Z</time>
      </trkpt>
      <trkpt lat="47.14496" lon="6.60758">
        <ele>865.6</ele>
        <time>2021-07-29T09:44:44Z</time>
      </trkpt>
      <trkpt lat="47.14494" lon="6.6076">
        <ele>865.6</ele>
        <time>2021-07-29T09:44:45Z</time>
      </trkpt>
      <trkpt lat="47.14492" lon="6.60762">
        <ele>865.8</ele>
        <time>2021-07-29T09:44:46Z</time>
      </trkpt>
      <trkpt lat="47.14491" lon="6.60764">
        <ele>865.8</ele>
        <time>2021-07-29T09:44:47Z</time>
      </trkpt>
      <trkpt lat="47.14489" lon="6.60766">
        <ele>865.6</ele>
        <time>2021-07-29T09:44:48Z</time>
      </trkpt>
      <trkpt lat="47.14487" lon="6.60768">
        <ele>865.6</ele>
        <time>2021-07-29T09:44:49Z</time>
      </trkpt>
      <trkpt lat="47.14486" lon="6.6077">
        <ele>865.8</ele>
        <time>2021-07-29T09:44:50Z</time>
      </trkpt>
      <trkpt lat="47.14484" lon="6.60772">
        <ele>866</ele>
        <time>2021-07-29T09:44:51Z</time>
      </trkpt>
      <trkpt lat="47.14482" lon="6.60774">
        <ele>866</ele>
        <time>2021-07-29T09:44:52Z</time>
      </trkpt>
      <trkpt lat="47.1448" lon="6.60776">
        <ele>866</ele>
        <time>2021-07-29T09:44:53Z</time>
      </trkpt>
      <trkpt lat="47.14478" lon="6.60778">
        <ele>865.8</ele>
        <time>2021-07-29T09:44:54Z</time>
      </trkpt>
      <trkpt lat="47.14477" lon="6.60781">
        <ele>865.8</ele>
        <time>2021-07-29T09:44:55Z</time>
      </trkpt>
      <trkpt lat="47.14475" lon="6.60783">
        <ele>866</ele>
        <time>2021-07-29T09:44:56Z</time>
      </trkpt>
      <trkpt lat="47.14473" lon="6.60784">
        <ele>866</ele>
        <time>2021-07-29T09:44:57Z</time>
      </trkpt>
      <trkpt lat="47.14471" lon="6.60786">
        <ele>866</ele>
        <time>2021-07-29T09:44:58Z</time>
      </trkpt>
      <trkpt lat="47.1447" lon="6.60788">
        <ele>866</ele>
        <time>2021-07-29T09:44:59Z</time>
      </trkpt>
      <trkpt lat="47.14468" lon="6.6079">
        <ele>866.2</ele>
        <time>2021-07-29T09:45:00Z</time>
      </trkpt>
      <trkpt lat="47.14466" lon="6.60792">
        <ele>866.2</ele>
        <time>2021-07-29T09:45:01Z</time>
      </trkpt>
      <trkpt lat="47.14465" lon="6.60794">
        <ele>866.2</ele>
        <time>2021-07-29T09:45:02Z</time>
      </trkpt>
      <trkpt lat="47.14463" lon="6.60796">
        <ele>866.2</ele>
        <time>2021-07-29T09:45:03Z</time>
      </trkpt>
      <trkpt lat="47.14461" lon="6.60798">
        <ele>866.4</ele>
        <time>2021-07-29T09:45:04Z</time>
      </trkpt>
      <trkpt lat="47.14459" lon="6.608">
        <ele>866.4</ele>
        <time>2021-07-29T09:45:05Z</time>
      </trkpt>
      <trkpt lat="47.14458" lon="6.60802">
        <ele>866.4</ele>
        <time>2021-07-29T09:45:06Z</time>
      </trkpt>
      <trkpt lat="47.14456" lon="6.60804">
        <ele>866.4</ele>
        <time>2021-07-29T09:45:07Z</time>
      </trkpt>
      <trkpt lat="47.14454" lon="6.60805">
        <ele>866.4</ele>
        <time>2021-07-29T09:45:08Z</time>
      </trkpt>
      <trkpt lat="47.14452" lon="6.60807">
        <ele>866.4</ele>
        <time>2021-07-29T09:45:09Z</time>
      </trkpt>
      <trkpt lat="47.1445" lon="6.60809">
        <ele>866.4</ele>
        <time>2021-07-29T09:45:10Z</time>
      </trkpt>
      <trkpt lat="47.14449" lon="6.60812">
        <ele>866.6</ele>
        <time>2021-07-29T09:45:11Z</time>
      </trkpt>
      <trkpt lat="47.14447" lon="6.60813">
        <ele>866.6</ele>
        <time>2021-07-29T09:45:12Z</time>
      </trkpt>
      <trkpt lat="47.14445" lon="6.60815">
        <ele>866.6</ele>
        <time>2021-07-29T09:45:13Z</time>
      </trkpt>
      <trkpt lat="47.14443" lon="6.60817">
        <ele>866.6</ele>
        <time>2021-07-29T09:45:14Z</time>
      </trkpt>
      <trkpt lat="47.14441" lon="6.60819">
        <ele>866.6</ele>
        <time>2021-07-29T09:45:15Z</time>
      </trkpt>
      <trkpt lat="47.14439" lon="6.60822">
        <ele>866.6</ele>
        <time>2021-07-29T09:45:16Z</time>
      </trkpt>
      <trkpt lat="47.14437" lon="6.60823">
        <ele>866.6</ele>
        <time>2021-07-29T09:45:17Z</time>
      </trkpt>
      <trkpt lat="47.14436" lon="6.60825">
        <ele>866.8</ele>
        <time>2021-07-29T09:45:18Z</time>
      </trkpt>
      <trkpt lat="47.14434" lon="6.60827">
        <ele>866.8</ele>
        <time>2021-07-29T09:45:19Z</time>
      </trkpt>
      <trkpt lat="47.14432" lon="6.60829">
        <ele>866.8</ele>
        <time>2021-07-29T09:45:20Z</time>
      </trkpt>
      <trkpt lat="47.14431" lon="6.60831">
        <ele>866.8</ele>
        <time>2021-07-29T09:45:21Z</time>
      </trkpt>
      <trkpt lat="47.1443" lon="6.60832">
        <ele>866.8</ele>
        <time>2021-07-29T09:45:22Z</time>
      </trkpt>
      <trkpt lat="47.1443" lon="6.60832">
        <ele>866.8</ele>
        <time>2021-07-29T09:45:23Z</time>
      </trkpt>
      <trkpt lat="47.1443" lon="6.60832">
        <ele>866.6</ele>
        <time>2021-07-29T09:45:24Z</time>
      </trkpt>
      <trkpt lat="47.1443" lon="6.60832">
        <ele>866.8</ele>
        <time>2021-07-29T09:45:25Z</time>
      </trkpt>
      <trkpt lat="47.1443" lon="6.60832">
        <ele>866.8</ele>
        <time>2021-07-29T09:45:26Z</time>
      </trkpt>
      <trkpt lat="47.1443" lon="6.60832">
        <ele>866.8</ele>
        <time>2021-07-29T09:45:27Z</time>
      </trkpt>
      <trkpt lat="47.1443" lon="6.60831">
        <ele>866.6</ele>
        <time>2021-07-29T09:45:28Z</time>
      </trkpt>
      <trkpt lat="47.1443" lon="6.60831">
        <ele>866.8</ele>
        <time>2021-07-29T09:45:29Z</time>
      </trkpt>
      <trkpt lat="47.1443" lon="6.60831">
        <ele>866.8</ele>
        <time>2021-07-29T09:45:30Z</time>
      </trkpt>
      <trkpt lat="47.14414" lon="6.60859">
        <ele>867</ele>
        <time>2021-07-29T09:46:44Z</time>
      </trkpt>
      <trkpt lat="47.14413" lon="6.60862">
        <ele>867</ele>
        <time>2021-07-29T09:46:45Z</time>
      </trkpt>
      <trkpt lat="47.14411" lon="6.60866">
        <ele>867</ele>
        <time>2021-07-29T09:46:46Z</time>
      </trkpt>
      <trkpt lat="47.14409" lon="6.6087">
        <ele>867.2</ele>
        <time>2021-07-29T09:46:47Z</time>
      </trkpt>
      <trkpt lat="47.14408" lon="6.60874">
        <ele>867.2</ele>
        <time>2021-07-29T09:46:48Z</time>
      </trkpt>
      <trkpt lat="47.14407" lon="6.60877">
        <ele>867.2</ele>
        <time>2021-07-29T09:46:49Z</time>
      </trkpt>
      <trkpt lat="47.14406" lon="6.60881">
        <ele>867.2</ele>
        <time>2021-07-29T09:46:50Z</time>
      </trkpt>
      <trkpt lat="47.14405" lon="6.60886">
        <ele>867.2</ele>
        <time>2021-07-29T09:46:51Z</time>
      </trkpt>
      <trkpt lat="47.14405" lon="6.60891">
        <ele>867.2</ele>
        <time>2021-07-29T09:46:52Z</time>
      </trkpt>
      <trkpt lat="47.14405" lon="6.60897">
        <ele>867.2</ele>
        <time>2021-07-29T09:46:53Z</time>
      </trkpt>
      <trkpt lat="47.14405" lon="6.60903">
        <ele>867.2</ele>
        <time>2021-07-29T09:46:54Z</time>
      </trkpt>
      <trkpt lat="47.14405" lon="6.60908">
        <ele>867</ele>
        <time>2021-07-29T09:46:55Z</time>
      </trkpt>
      <trkpt lat="47.14406" lon="6.60914">
        <ele>867</ele>
        <time>2021-07-29T09:46:56Z</time>
      </trkpt>
      <trkpt lat="47.14407" lon="6.6092">
        <ele>867</ele>
        <time>2021-07-29T09:46:57Z</time>
      </trkpt>
      <trkpt lat="47.14409" lon="6.60926">
        <ele>867</ele>
        <time>2021-07-29T09:46:58Z</time>
      </trkpt>
      <trkpt lat="47.1441" lon="6.60931">
        <ele>866.8</ele>
        <time>2021-07-29T09:46:59Z</time>
      </trkpt>
      <trkpt lat="47.14412" lon="6.60937">
        <ele>866.8</ele>
        <time>2021-07-29T09:47:00Z</time>
      </trkpt>
      <trkpt lat="47.14413" lon="6.60944">
        <ele>866.8</ele>
        <time>2021-07-29T09:47:01Z</time>
      </trkpt>
      <trkpt lat="47.14413" lon="6.6095">
        <ele>866.6</ele>
        <time>2021-07-29T09:47:02Z</time>
      </trkpt>
      <trkpt lat="47.14412" lon="6.60957">
        <ele>866.6</ele>
        <time>2021-07-29T09:47:03Z</time>
      </trkpt>
      <trkpt lat="47.14411" lon="6.60964">
        <ele>866.6</ele>
        <time>2021-07-29T09:47:04Z</time>
      </trkpt>
      <trkpt lat="47.14409" lon="6.6097">
        <ele>866.6</ele>
        <time>2021-07-29T09:47:05Z</time>
      </trkpt>
      <trkpt lat="47.14408" lon="6.60976">
        <ele>866.6</ele>
        <time>2021-07-29T09:47:06Z</time>
      </trkpt>
      <trkpt lat="47.14407" lon="6.60982">
        <ele>866.8</ele>
        <time>2021-07-29T09:47:07Z</time>
      </trkpt>
      <trkpt lat="47.14405" lon="6.60986">
        <ele>866.8</ele>
        <time>2021-07-29T09:47:08Z</time>
      </trkpt>
      <trkpt lat="47.14403" lon="6.60991">
        <ele>866.8</ele>
        <time>2021-07-29T09:47:09Z</time>
      </trkpt>
      <trkpt lat="47.14401" lon="6.60996">
        <ele>866.8</ele>
        <time>2021-07-29T09:47:10Z</time>
      </trkpt>
      <trkpt lat="47.14398" lon="6.61">
        <ele>866.6</ele>
        <time>2021-07-29T09:47:11Z</time>
      </trkpt>
      <trkpt lat="47.14396" lon="6.61004">
        <ele>866.6</ele>
        <time>2021-07-29T09:47:12Z</time>
      </trkpt>
      <trkpt lat="47.14393" lon="6.61008">
        <ele>866.4</ele>
        <time>2021-07-29T09:47:13Z</time>
      </trkpt>
      <trkpt lat="47.1439" lon="6.61012">
        <ele>866</ele>
        <time>2021-07-29T09:47:14Z</time>
      </trkpt>
      <trkpt lat="47.14386" lon="6.61017">
        <ele>865.8</ele>
        <time>2021-07-29T09:47:15Z</time>
      </trkpt>
      <trkpt lat="47.14382" lon="6.61021">
        <ele>865.6</ele>
        <time>2021-07-29T09:47:16Z</time>
      </trkpt>
      <trkpt lat="47.14378" lon="6.61025">
        <ele>865.2</ele>
        <time>2021-07-29T09:47:17Z</time>
      </trkpt>
      <trkpt lat="47.14374" lon="6.61031">
        <ele>865</ele>
        <time>2021-07-29T09:47:18Z</time>
      </trkpt>
      <trkpt lat="47.1437" lon="6.61038">
        <ele>864.6</ele>
        <time>2021-07-29T09:47:19Z</time>
      </trkpt>
      <trkpt lat="47.14367" lon="6.61046">
        <ele>864.2</ele>
        <time>2021-07-29T09:47:20Z</time>
      </trkpt>
      <trkpt lat="47.14364" lon="6.61055">
        <ele>864</ele>
        <time>2021-07-29T09:47:21Z</time>
      </trkpt>
      <trkpt lat="47.14361" lon="6.61065">
        <ele>863.8</ele>
        <time>2021-07-29T09:47:22Z</time>
      </trkpt>
      <trkpt lat="47.1436" lon="6.61076">
        <ele>863.4</ele>
        <time>2021-07-29T09:47:23Z</time>
      </trkpt>
      <trkpt lat="47.14358" lon="6.61086">
        <ele>863.4</ele>
        <time>2021-07-29T09:47:24Z</time>
      </trkpt>
      <trkpt lat="47.14357" lon="6.61096">
        <ele>863.2</ele>
        <time>2021-07-29T09:47:25Z</time>
      </trkpt>
      <trkpt lat="47.14356" lon="6.61107">
        <ele>863.2</ele>
        <time>2021-07-29T09:47:26Z</time>
      </trkpt>
      <trkpt lat="47.14354" lon="6.61117">
        <ele>863</ele>
        <time>2021-07-29T09:47:27Z</time>
      </trkpt>
      <trkpt lat="47.14352" lon="6.61125">
        <ele>863</ele>
        <time>2021-07-29T09:47:28Z</time>
      </trkpt>
      <trkpt lat="47.14349" lon="6.61133">
        <ele>862.8</ele>
        <time>2021-07-29T09:47:29Z</time>
      </trkpt>
      <trkpt lat="47.14345" lon="6.6114">
        <ele>862.6</ele>
        <time>2021-07-29T09:47:30Z</time>
      </trkpt>
      <trkpt lat="47.1434" lon="6.61144">
        <ele>862</ele>
        <time>2021-07-29T09:47:31Z</time>
      </trkpt>
      <trkpt lat="47.14334" lon="6.61147">
        <ele>861.6</ele>
        <time>2021-07-29T09:47:32Z</time>
      </trkpt>
      <trkpt lat="47.1433" lon="6.61149">
        <ele>861.2</ele>
        <time>2021-07-29T09:47:33Z</time>
      </trkpt>
      <trkpt lat="47.14325" lon="6.6115">
        <ele>860.6</ele>
        <time>2021-07-29T09:47:34Z</time>
      </trkpt>
      <trkpt lat="47.14319" lon="6.6115">
        <ele>860.2</ele>
        <time>2021-07-29T09:47:35Z</time>
      </trkpt>
      <trkpt lat="47.14313" lon="6.61149">
        <ele>859.4</ele>
        <time>2021-07-29T09:47:36Z</time>
      </trkpt>
      <trkpt lat="47.14307" lon="6.61148">
        <ele>858.8</ele>
        <time>2021-07-29T09:47:37Z</time>
      </trkpt>
      <trkpt lat="47.14301" lon="6.61147">
        <ele>858</ele>
        <time>2021-07-29T09:47:38Z</time>
      </trkpt>
      <trkpt lat="47.14295" lon="6.61146">
        <ele>857.6</ele>
        <time>2021-07-29T09:47:39Z</time>
      </trkpt>
      <trkpt lat="47.1429" lon="6.61144">
        <ele>857.2</ele>
        <time>2021-07-29T09:47:40Z</time>
      </trkpt>
      <trkpt lat="47.14286" lon="6.61142">
        <ele>856.8</ele>
        <time>2021-07-29T09:47:41Z</time>
      </trkpt>
      <trkpt lat="47.14283" lon="6.6114">
        <ele>856.6</ele>
        <time>2021-07-29T09:47:42Z</time>
      </trkpt>
      <trkpt lat="47.14279" lon="6.61135">
        <ele>856.4</ele>
        <time>2021-07-29T09:47:43Z</time>
      </trkpt>
      <trkpt lat="47.14277" lon="6.61132">
        <ele>856.2</ele>
        <time>2021-07-29T09:47:44Z</time>
      </trkpt>
      <trkpt lat="47.14275" lon="6.6113">
        <ele>856.2</ele>
        <time>2021-07-29T09:47:45Z</time>
      </trkpt>
      <trkpt lat="47.14272" lon="6.61127">
        <ele>856.2</ele>
        <time>2021-07-29T09:47:46Z</time>
      </trkpt>
      <trkpt lat="47.1427" lon="6.61124">
        <ele>856.2</ele>
        <time>2021-07-29T09:47:47Z</time>
      </trkpt>
      <trkpt lat="47.14268" lon="6.61121">
        <ele>856.2</ele>
        <time>2021-07-29T09:47:48Z</time>
      </trkpt>
      <trkpt lat="47.14265" lon="6.61118">
        <ele>856.2</ele>
        <time>2021-07-29T09:47:49Z</time>
      </trkpt>
      <trkpt lat="47.14263" lon="6.61115">
        <ele>856.2</ele>
        <time>2021-07-29T09:47:50Z</time>
      </trkpt>
      <trkpt lat="47.1426" lon="6.61113">
        <ele>856.2</ele>
        <time>2021-07-29T09:47:51Z</time>
      </trkpt>
      <trkpt lat="47.14258" lon="6.6111">
        <ele>855.6</ele>
        <time>2021-07-29T09:48:22Z</time>
      </trkpt>
      <trkpt lat="47.14256" lon="6.61107">
        <ele>855.6</ele>
        <time>2021-07-29T09:48:23Z</time>
      </trkpt>
      <trkpt lat="47.14253" lon="6.61104">
        <ele>855.6</ele>
        <time>2021-07-29T09:48:24Z</time>
      </trkpt>
      <trkpt lat="47.14251" lon="6.61101">
        <ele>855.8</ele>
        <time>2021-07-29T09:48:25Z</time>
      </trkpt>
      <trkpt lat="47.14249" lon="6.61098">
        <ele>855.8</ele>
        <time>2021-07-29T09:48:26Z</time>
      </trkpt>
      <trkpt lat="47.14246" lon="6.61096">
        <ele>855</ele>
        <time>2021-07-29T09:48:55Z</time>
      </trkpt>
      <trkpt lat="47.14244" lon="6.61093">
        <ele>854.8</ele>
        <time>2021-07-29T09:48:56Z</time>
      </trkpt>
      <trkpt lat="47.14241" lon="6.61087">
        <ele>854.6</ele>
        <time>2021-07-29T09:48:57Z</time>
      </trkpt>
      <trkpt lat="47.14237" lon="6.61081">
        <ele>854.2</ele>
        <time>2021-07-29T09:48:58Z</time>
      </trkpt>
      <trkpt lat="47.14234" lon="6.61074">
        <ele>854</ele>
        <time>2021-07-29T09:48:59Z</time>
      </trkpt>
      <trkpt lat="47.1423" lon="6.61067">
        <ele>853.6</ele>
        <time>2021-07-29T09:49:00Z</time>
      </trkpt>
      <trkpt lat="47.14226" lon="6.6106">
        <ele>853.4</ele>
        <time>2021-07-29T09:49:01Z</time>
      </trkpt>
      <trkpt lat="47.14223" lon="6.61052">
        <ele>853</ele>
        <time>2021-07-29T09:49:02Z</time>
      </trkpt>
      <trkpt lat="47.14219" lon="6.61043">
        <ele>852.6</ele>
        <time>2021-07-29T09:49:03Z</time>
      </trkpt>
      <trkpt lat="47.14215" lon="6.61035">
        <ele>852.6</ele>
        <time>2021-07-29T09:49:04Z</time>
      </trkpt>
      <trkpt lat="47.14212" lon="6.61026">
        <ele>852.2</ele>
        <time>2021-07-29T09:49:05Z</time>
      </trkpt>
      <trkpt lat="47.14209" lon="6.61017">
        <ele>851.8</ele>
        <time>2021-07-29T09:49:06Z</time>
      </trkpt>
      <trkpt lat="47.14206" lon="6.61007">
        <ele>851.6</ele>
        <time>2021-07-29T09:49:07Z</time>
      </trkpt>
      <trkpt lat="47.14202" lon="6.60997">
        <ele>851.4</ele>
        <time>2021-07-29T09:49:08Z</time>
      </trkpt>
      <trkpt lat="47.14199" lon="6.60987">
        <ele>851</ele>
        <time>2021-07-29T09:49:09Z</time>
      </trkpt>
      <trkpt lat="47.14196" lon="6.60977">
        <ele>850.6</ele>
        <time>2021-07-29T09:49:10Z</time>
      </trkpt>
      <trkpt lat="47.14194" lon="6.60967">
        <ele>850.4</ele>
        <time>2021-07-29T09:49:11Z</time>
      </trkpt>
      <trkpt lat="47.14191" lon="6.60956">
        <ele>850.2</ele>
        <time>2021-07-29T09:49:12Z</time>
      </trkpt>
      <trkpt lat="47.14188" lon="6.60946">
        <ele>849.8</ele>
        <time>2021-07-29T09:49:13Z</time>
      </trkpt>
      <trkpt lat="47.14185" lon="6.60936">
        <ele>849.6</ele>
        <time>2021-07-29T09:49:14Z</time>
      </trkpt>
      <trkpt lat="47.14182" lon="6.60925">
        <ele>849.4</ele>
        <time>2021-07-29T09:49:15Z</time>
      </trkpt>
      <trkpt lat="47.14179" lon="6.60915">
        <ele>849</ele>
        <time>2021-07-29T09:49:16Z</time>
      </trkpt>
      <trkpt lat="47.14176" lon="6.60905">
        <ele>848.8</ele>
        <time>2021-07-29T09:49:17Z</time>
      </trkpt>
      <trkpt lat="47.14173" lon="6.60895">
        <ele>848.6</ele>
        <time>2021-07-29T09:49:18Z</time>
      </trkpt>
      <trkpt lat="47.14171" lon="6.60885">
        <ele>848.4</ele>
        <time>2021-07-29T09:49:19Z</time>
      </trkpt>
      <trkpt lat="47.14168" lon="6.60874">
        <ele>848</ele>
        <time>2021-07-29T09:49:20Z</time>
      </trkpt>
      <trkpt lat="47.14165" lon="6.60864">
        <ele>847.6</ele>
        <time>2021-07-29T09:49:21Z</time>
      </trkpt>
      <trkpt lat="47.14162" lon="6.60854">
        <ele>847.4</ele>
        <time>2021-07-29T09:49:22Z</time>
      </trkpt>
      <trkpt lat="47.14159" lon="6.60843">
        <ele>847.2</ele>
        <time>2021-07-29T09:49:23Z</time>
      </trkpt>
      <trkpt lat="47.14157" lon="6.60833">
        <ele>847</ele>
        <time>2021-07-29T09:49:24Z</time>
      </trkpt>
      <trkpt lat="47.14154" lon="6.60823">
        <ele>846.8</ele>
        <time>2021-07-29T09:49:25Z</time>
      </trkpt>
      <trkpt lat="47.14152" lon="6.60812">
        <ele>846.4</ele>
        <time>2021-07-29T09:49:26Z</time>
      </trkpt>
      <trkpt lat="47.14149" lon="6.60802">
        <ele>846.2</ele>
        <time>2021-07-29T09:49:27Z</time>
      </trkpt>
      <trkpt lat="47.14147" lon="6.60791">
        <ele>846</ele>
        <time>2021-07-29T09:49:28Z</time>
      </trkpt>
      <trkpt lat="47.14146" lon="6.6078">
        <ele>846</ele>
        <time>2021-07-29T09:49:29Z</time>
      </trkpt>
      <trkpt lat="47.14145" lon="6.6077">
        <ele>845.6</ele>
        <time>2021-07-29T09:49:30Z</time>
      </trkpt>
      <trkpt lat="47.14144" lon="6.60759">
        <ele>845.4</ele>
        <time>2021-07-29T09:49:31Z</time>
      </trkpt>
      <trkpt lat="47.14144" lon="6.60748">
        <ele>845.2</ele>
        <time>2021-07-29T09:49:32Z</time>
      </trkpt>
      <trkpt lat="47.14144" lon="6.60738">
        <ele>845</ele>
        <time>2021-07-29T09:49:33Z</time>
      </trkpt>
      <trkpt lat="47.14145" lon="6.60727">
        <ele>844.8</ele>
        <time>2021-07-29T09:49:34Z</time>
      </trkpt>
      <trkpt lat="47.14146" lon="6.60717">
        <ele>844.6</ele>
        <time>2021-07-29T09:49:35Z</time>
      </trkpt>
      <trkpt lat="47.14148" lon="6.60706">
        <ele>844.4</ele>
        <time>2021-07-29T09:49:36Z</time>
      </trkpt>
      <trkpt lat="47.14149" lon="6.60696">
        <ele>844.2</ele>
        <time>2021-07-29T09:49:37Z</time>
      </trkpt>
      <trkpt lat="47.14152" lon="6.60687">
        <ele>844</ele>
        <time>2021-07-29T09:49:38Z</time>
      </trkpt>
      <trkpt lat="47.14154" lon="6.60678">
        <ele>843.8</ele>
        <time>2021-07-29T09:49:39Z</time>
      </trkpt>
      <trkpt lat="47.14156" lon="6.60669">
        <ele>843.6</ele>
        <time>2021-07-29T09:49:40Z</time>
      </trkpt>
      <trkpt lat="47.14159" lon="6.60661">
        <ele>843.4</ele>
        <time>2021-07-29T09:49:41Z</time>
      </trkpt>
      <trkpt lat="47.14161" lon="6.60655">
        <ele>843.2</ele>
        <time>2021-07-29T09:49:42Z</time>
      </trkpt>
      <trkpt lat="47.14163" lon="6.60651">
        <ele>843</ele>
        <time>2021-07-29T09:49:43Z</time>
      </trkpt>
      <trkpt lat="47.14164" lon="6.60648">
        <ele>842.8</ele>
        <time>2021-07-29T09:49:44Z</time>
      </trkpt>
      <trkpt lat="47.14165" lon="6.60647">
        <ele>842.6</ele>
        <time>2021-07-29T09:49:45Z</time>
      </trkpt>
      <trkpt lat="47.14165" lon="6.60646">
        <ele>842.8</ele>
        <time>2021-07-29T09:49:46Z</time>
      </trkpt>
      <trkpt lat="47.14165" lon="6.60646">
        <ele>842.6</ele>
        <time>2021-07-29T09:49:47Z</time>
      </trkpt>
      <trkpt lat="47.14165" lon="6.60646">
        <ele>842.6</ele>
        <time>2021-07-29T09:49:48Z</time>
      </trkpt>
      <trkpt lat="47.14165" lon="6.60646">
        <ele>842.6</ele>
        <time>2021-07-29T09:49:49Z</time>
      </trkpt>
      <trkpt lat="47.14165" lon="6.60646">
        <ele>842.6</ele>
        <time>2021-07-29T09:49:50Z</time>
      </trkpt>
      <trkpt lat="47.14165" lon="6.60646">
        <ele>842.6</ele>
        <time>2021-07-29T09:49:51Z</time>
      </trkpt>
      <trkpt lat="47.14165" lon="6.60646">
        <ele>842.6</ele>
        <time>2021-07-29T09:49:52Z</time>
      </trkpt>
      <trkpt lat="47.14165" lon="6.60646">
        <ele>842.6</ele>
        <time>2021-07-29T09:49:53Z</time>
      </trkpt>
      <trkpt lat="47.14173" lon="6.60618">
        <ele>842.2</ele>
        <time>2021-07-29T09:50:02Z</time>
      </trkpt>
      <trkpt lat="47.14174" lon="6.60614">
        <ele>842.2</ele>
        <time>2021-07-29T09:50:03Z</time>
      </trkpt>
      <trkpt lat="47.14175" lon="6.60609">
        <ele>842.2</ele>
        <time>2021-07-29T09:50:04Z</time>
      </trkpt>
      <trkpt lat="47.14177" lon="6.60605">
        <ele>842.2</ele>
        <time>2021-07-29T09:50:05Z</time>
      </trkpt>
      <trkpt lat="47.14178" lon="6.606">
        <ele>842</ele>
        <time>2021-07-29T09:50:06Z</time>
      </trkpt>
      <trkpt lat="47.1418" lon="6.60594">
        <ele>841.8</ele>
        <time>2021-07-29T09:50:07Z</time>
      </trkpt>
      <trkpt lat="47.14182" lon="6.60588">
        <ele>841.8</ele>
        <time>2021-07-29T09:50:08Z</time>
      </trkpt>
      <trkpt lat="47.14184" lon="6.60582">
        <ele>841.6</ele>
        <time>2021-07-29T09:50:09Z</time>
      </trkpt>
      <trkpt lat="47.14186" lon="6.60575">
        <ele>841.6</ele>
        <time>2021-07-29T09:50:10Z</time>
      </trkpt>
      <trkpt lat="47.14187" lon="6.60569">
        <ele>841.4</ele>
        <time>2021-07-29T09:50:11Z</time>
      </trkpt>
      <trkpt lat="47.14189" lon="6.60562">
        <ele>841.4</ele>
        <time>2021-07-29T09:50:12Z</time>
      </trkpt>
      <trkpt lat="47.14191" lon="6.60555">
        <ele>841.2</ele>
        <time>2021-07-29T09:50:13Z</time>
      </trkpt>
      <trkpt lat="47.14193" lon="6.60548">
        <ele>841</ele>
        <time>2021-07-29T09:50:14Z</time>
      </trkpt>
      <trkpt lat="47.14195" lon="6.6054">
        <ele>841.2</ele>
        <time>2021-07-29T09:50:15Z</time>
      </trkpt>
      <trkpt lat="47.14197" lon="6.60533">
        <ele>840.8</ele>
        <time>2021-07-29T09:50:16Z</time>
      </trkpt>
      <trkpt lat="47.14199" lon="6.60525">
        <ele>840.6</ele>
        <time>2021-07-29T09:50:17Z</time>
      </trkpt>
      <trkpt lat="47.142" lon="6.60517">
        <ele>840.6</ele>
        <time>2021-07-29T09:50:18Z</time>
      </trkpt>
      <trkpt lat="47.14201" lon="6.60508">
        <ele>840.6</ele>
        <time>2021-07-29T09:50:19Z</time>
      </trkpt>
      <trkpt lat="47.14202" lon="6.605">
        <ele>840.4</ele>
        <time>2021-07-29T09:50:20Z</time>
      </trkpt>
      <trkpt lat="47.14203" lon="6.60491">
        <ele>840</ele>
        <time>2021-07-29T09:50:21Z</time>
      </trkpt>
      <trkpt lat="47.14203" lon="6.60483">
        <ele>839.8</ele>
        <time>2021-07-29T09:50:22Z</time>
      </trkpt>
      <trkpt lat="47.14203" lon="6.60473">
        <ele>839.8</ele>
        <time>2021-07-29T09:50:23Z</time>
      </trkpt>
      <trkpt lat="47.14203" lon="6.60464">
        <ele>839.6</ele>
        <time>2021-07-29T09:50:24Z</time>
      </trkpt>
      <trkpt lat="47.14202" lon="6.60455">
        <ele>839.4</ele>
        <time>2021-07-29T09:50:25Z</time>
      </trkpt>
      <trkpt lat="47.142" lon="6.60446">
        <ele>839.2</ele>
        <time>2021-07-29T09:50:26Z</time>
      </trkpt>
      <trkpt lat="47.14199" lon="6.60436">
        <ele>838.8</ele>
        <time>2021-07-29T09:50:27Z</time>
      </trkpt>
      <trkpt lat="47.14198" lon="6.60427">
        <ele>838.8</ele>
        <time>2021-07-29T09:50:28Z</time>
      </trkpt>
      <trkpt lat="47.14196" lon="6.60418">
        <ele>838.6</ele>
        <time>2021-07-29T09:50:29Z</time>
      </trkpt>
      <trkpt lat="47.14194" lon="6.60408">
        <ele>838.4</ele>
        <time>2021-07-29T09:50:30Z</time>
      </trkpt>
      <trkpt lat="47.14192" lon="6.60399">
        <ele>838.2</ele>
        <time>2021-07-29T09:50:31Z</time>
      </trkpt>
      <trkpt lat="47.1419" lon="6.60389">
        <ele>837.8</ele>
        <time>2021-07-29T09:50:32Z</time>
      </trkpt>
      <trkpt lat="47.14189" lon="6.60379">
        <ele>837.8</ele>
        <time>2021-07-29T09:50:33Z</time>
      </trkpt>
      <trkpt lat="47.14187" lon="6.60369">
        <ele>837.4</ele>
        <time>2021-07-29T09:50:34Z</time>
      </trkpt>
      <trkpt lat="47.14186" lon="6.60359">
        <ele>837.2</ele>
        <time>2021-07-29T09:50:35Z</time>
      </trkpt>
      <trkpt lat="47.14186" lon="6.60349">
        <ele>836.8</ele>
        <time>2021-07-29T09:50:36Z</time>
      </trkpt>
      <trkpt lat="47.14185" lon="6.60339">
        <ele>836.8</ele>
        <time>2021-07-29T09:50:37Z</time>
      </trkpt>
      <trkpt lat="47.14186" lon="6.60328">
        <ele>836.4</ele>
        <time>2021-07-29T09:50:38Z</time>
      </trkpt>
      <trkpt lat="47.14186" lon="6.60318">
        <ele>836.2</ele>
        <time>2021-07-29T09:50:39Z</time>
      </trkpt>
      <trkpt lat="47.14187" lon="6.60308">
        <ele>836</ele>
        <time>2021-07-29T09:50:40Z</time>
      </trkpt>
      <trkpt lat="47.14189" lon="6.60298">
        <ele>836</ele>
        <time>2021-07-29T09:50:41Z</time>
      </trkpt>
      <trkpt lat="47.14191" lon="6.60288">
        <ele>835.8</ele>
        <time>2021-07-29T09:50:42Z</time>
      </trkpt>
      <trkpt lat="47.14193" lon="6.60279">
        <ele>835.6</ele>
        <time>2021-07-29T09:50:43Z</time>
      </trkpt>
      <trkpt lat="47.14196" lon="6.60269">
        <ele>835.6</ele>
        <time>2021-07-29T09:50:44Z</time>
      </trkpt>
      <trkpt lat="47.142" lon="6.6026">
        <ele>835.4</ele>
        <time>2021-07-29T09:50:45Z</time>
      </trkpt>
      <trkpt lat="47.14203" lon="6.60251">
        <ele>835.2</ele>
        <time>2021-07-29T09:50:46Z</time>
      </trkpt>
      <trkpt lat="47.14206" lon="6.60242">
        <ele>835</ele>
        <time>2021-07-29T09:50:47Z</time>
      </trkpt>
      <trkpt lat="47.1421" lon="6.60233">
        <ele>834.8</ele>
        <time>2021-07-29T09:50:48Z</time>
      </trkpt>
      <trkpt lat="47.14214" lon="6.60225">
        <ele>834.8</ele>
        <time>2021-07-29T09:50:49Z</time>
      </trkpt>
      <trkpt lat="47.14217" lon="6.60216">
        <ele>834.6</ele>
        <time>2021-07-29T09:50:50Z</time>
      </trkpt>
      <trkpt lat="47.14221" lon="6.60208">
        <ele>834.4</ele>
        <time>2021-07-29T09:50:51Z</time>
      </trkpt>
      <trkpt lat="47.14224" lon="6.60199">
        <ele>834.2</ele>
        <time>2021-07-29T09:50:52Z</time>
      </trkpt>
      <trkpt lat="47.14227" lon="6.6019">
        <ele>834.6</ele>
        <time>2021-07-29T09:50:53Z</time>
      </trkpt>
      <trkpt lat="47.1423" lon="6.60181">
        <ele>834.2</ele>
        <time>2021-07-29T09:50:54Z</time>
      </trkpt>
      <trkpt lat="47.14233" lon="6.60171">
        <ele>833.6</ele>
        <time>2021-07-29T09:50:55Z</time>
      </trkpt>
      <trkpt lat="47.14235" lon="6.60162">
        <ele>833.6</ele>
        <time>2021-07-29T09:50:56Z</time>
      </trkpt>
      <trkpt lat="47.14238" lon="6.60153">
        <ele>833.4</ele>
        <time>2021-07-29T09:50:57Z</time>
      </trkpt>
      <trkpt lat="47.14239" lon="6.60146">
        <ele>833</ele>
        <time>2021-07-29T09:50:58Z</time>
      </trkpt>
      <trkpt lat="47.1424" lon="6.60139">
        <ele>832.8</ele>
        <time>2021-07-29T09:50:59Z</time>
      </trkpt>
      <trkpt lat="47.14241" lon="6.60133">
        <ele>832.6</ele>
        <time>2021-07-29T09:51:00Z</time>
      </trkpt>
      <trkpt lat="47.14241" lon="6.60127">
        <ele>832.6</ele>
        <time>2021-07-29T09:51:01Z</time>
      </trkpt>
      <trkpt lat="47.14242" lon="6.60123">
        <ele>832.4</ele>
        <time>2021-07-29T09:51:02Z</time>
      </trkpt>
      <trkpt lat="47.14242" lon="6.60119">
        <ele>832.2</ele>
        <time>2021-07-29T09:51:03Z</time>
      </trkpt>
      <trkpt lat="47.14243" lon="6.60117">
        <ele>832.2</ele>
        <time>2021-07-29T09:51:04Z</time>
      </trkpt>
      <trkpt lat="47.14243" lon="6.60116">
        <ele>832</ele>
        <time>2021-07-29T09:51:05Z</time>
      </trkpt>
      <trkpt lat="47.14243" lon="6.60115">
        <ele>832</ele>
        <time>2021-07-29T09:51:06Z</time>
      </trkpt>
      <trkpt lat="47.14243" lon="6.60114">
        <ele>832</ele>
        <time>2021-07-29T09:51:07Z</time>
      </trkpt>
      <trkpt lat="47.14242" lon="6.60114">
        <ele>831.8</ele>
        <time>2021-07-29T09:51:08Z</time>
      </trkpt>
      <trkpt lat="47.14242" lon="6.60114">
        <ele>831.8</ele>
        <time>2021-07-29T09:51:09Z</time>
      </trkpt>
      <trkpt lat="47.14242" lon="6.60113">
        <ele>831.6</ele>
        <time>2021-07-29T09:51:10Z</time>
      </trkpt>
      <trkpt lat="47.14242" lon="6.60113">
        <ele>832</ele>
        <time>2021-07-29T09:51:11Z</time>
      </trkpt>
      <trkpt lat="47.14241" lon="6.60112">
        <ele>831.8</ele>
        <time>2021-07-29T09:51:12Z</time>
      </trkpt>
      <trkpt lat="47.14238" lon="6.60091">
        <ele>831.8</ele>
        <time>2021-07-29T09:51:55Z</time>
      </trkpt>
      <trkpt lat="47.14238" lon="6.6009">
        <ele>831.8</ele>
        <time>2021-07-29T09:51:56Z</time>
      </trkpt>
      <trkpt lat="47.14238" lon="6.6009">
        <ele>831.8</ele>
        <time>2021-07-29T09:51:57Z</time>
      </trkpt>
      <trkpt lat="47.14238" lon="6.6009">
        <ele>831.8</ele>
        <time>2021-07-29T09:51:58Z</time>
      </trkpt>
      <trkpt lat="47.14238" lon="6.6009">
        <ele>831.6</ele>
        <time>2021-07-29T09:51:59Z</time>
      </trkpt>
      <trkpt lat="47.14231" lon="6.60048">
        <ele>830.8</ele>
        <time>2021-07-29T09:52:22Z</time>
      </trkpt>
      <trkpt lat="47.1423" lon="6.60042">
        <ele>830.4</ele>
        <time>2021-07-29T09:52:23Z</time>
      </trkpt>
      <trkpt lat="47.14228" lon="6.60035">
        <ele>830.4</ele>
        <time>2021-07-29T09:52:24Z</time>
      </trkpt>
      <trkpt lat="47.14225" lon="6.60029">
        <ele>830.4</ele>
        <time>2021-07-29T09:52:25Z</time>
      </trkpt>
      <trkpt lat="47.14223" lon="6.60022">
        <ele>830.2</ele>
        <time>2021-07-29T09:52:26Z</time>
      </trkpt>
      <trkpt lat="47.1422" lon="6.60015">
        <ele>830</ele>
        <time>2021-07-29T09:52:27Z</time>
      </trkpt>
      <trkpt lat="47.14217" lon="6.60008">
        <ele>830</ele>
        <time>2021-07-29T09:52:28Z</time>
      </trkpt>
      <trkpt lat="47.14214" lon="6.60001">
        <ele>829.6</ele>
        <time>2021-07-29T09:52:29Z</time>
      </trkpt>
      <trkpt lat="47.14211" lon="6.59994">
        <ele>829.4</ele>
        <time>2021-07-29T09:52:30Z</time>
      </trkpt>
      <trkpt lat="47.14208" lon="6.59987">
        <ele>829</ele>
        <time>2021-07-29T09:52:31Z</time>
      </trkpt>
      <trkpt lat="47.14205" lon="6.59981">
        <ele>829</ele>
        <time>2021-07-29T09:52:32Z</time>
      </trkpt>
      <trkpt lat="47.14203" lon="6.59975">
        <ele>828.8</ele>
        <time>2021-07-29T09:52:33Z</time>
      </trkpt>
      <trkpt lat="47.14201" lon="6.59971">
        <ele>828.6</ele>
        <time>2021-07-29T09:52:34Z</time>
      </trkpt>
      <trkpt lat="47.142" lon="6.59966">
        <ele>828.4</ele>
        <time>2021-07-29T09:52:35Z</time>
      </trkpt>
      <trkpt lat="47.14199" lon="6.59963">
        <ele>828.4</ele>
        <time>2021-07-29T09:52:36Z</time>
      </trkpt>
      <trkpt lat="47.14199" lon="6.59961">
        <ele>828.2</ele>
        <time>2021-07-29T09:52:37Z</time>
      </trkpt>
      <trkpt lat="47.14199" lon="6.59959">
        <ele>828</ele>
        <time>2021-07-29T09:52:38Z</time>
      </trkpt>
      <trkpt lat="47.142" lon="6.59957">
        <ele>828</ele>
        <time>2021-07-29T09:52:39Z</time>
      </trkpt>
      <trkpt lat="47.14203" lon="6.59957">
        <ele>828</ele>
        <time>2021-07-29T09:52:40Z</time>
      </trkpt>
      <trkpt lat="47.14205" lon="6.59956">
        <ele>828</ele>
        <time>2021-07-29T09:52:41Z</time>
      </trkpt>
      <trkpt lat="47.14205" lon="6.59951">
        <ele>828</ele>
        <time>2021-07-29T09:52:42Z</time>
      </trkpt>
      <trkpt lat="47.14204" lon="6.59947">
        <ele>828</ele>
        <time>2021-07-29T09:52:43Z</time>
      </trkpt>
      <trkpt lat="47.14203" lon="6.59943">
        <ele>827.8</ele>
        <time>2021-07-29T09:52:44Z</time>
      </trkpt>
      <trkpt lat="47.14202" lon="6.59938">
        <ele>828</ele>
        <time>2021-07-29T09:52:45Z</time>
      </trkpt>
      <trkpt lat="47.14201" lon="6.59934">
        <ele>827.8</ele>
        <time>2021-07-29T09:52:46Z</time>
      </trkpt>
      <trkpt lat="47.142" lon="6.5993">
        <ele>827.8</ele>
        <time>2021-07-29T09:52:47Z</time>
      </trkpt>
      <trkpt lat="47.14199" lon="6.59925">
        <ele>827.8</ele>
        <time>2021-07-29T09:52:48Z</time>
      </trkpt>
      <trkpt lat="47.14198" lon="6.59921">
        <ele>827.8</ele>
        <time>2021-07-29T09:52:49Z</time>
      </trkpt>
      <trkpt lat="47.14197" lon="6.59917">
        <ele>827.8</ele>
        <time>2021-07-29T09:52:50Z</time>
      </trkpt>
      <trkpt lat="47.14196" lon="6.59912">
        <ele>827.8</ele>
        <time>2021-07-29T09:52:51Z</time>
      </trkpt>
      <trkpt lat="47.14195" lon="6.59908">
        <ele>825.6</ele>
        <time>2021-07-29T09:54:04Z</time>
      </trkpt>
      <trkpt lat="47.14194" lon="6.59904">
        <ele>825</ele>
        <time>2021-07-29T09:54:05Z</time>
      </trkpt>
      <trkpt lat="47.1419" lon="6.59895">
        <ele>824.2</ele>
        <time>2021-07-29T09:54:06Z</time>
      </trkpt>
      <trkpt lat="47.14187" lon="6.59886">
        <ele>823.6</ele>
        <time>2021-07-29T09:54:07Z</time>
      </trkpt>
      <trkpt lat="47.14183" lon="6.59876">
        <ele>823</ele>
        <time>2021-07-29T09:54:08Z</time>
      </trkpt>
      <trkpt lat="47.1418" lon="6.59864">
        <ele>821.6</ele>
        <time>2021-07-29T09:54:09Z</time>
      </trkpt>
      <trkpt lat="47.14179" lon="6.59852">
        <ele>820.8</ele>
        <time>2021-07-29T09:54:10Z</time>
      </trkpt>
      <trkpt lat="47.14178" lon="6.59838">
        <ele>819.4</ele>
        <time>2021-07-29T09:54:11Z</time>
      </trkpt>
      <trkpt lat="47.14177" lon="6.59824">
        <ele>818.4</ele>
        <time>2021-07-29T09:54:12Z</time>
      </trkpt>
      <trkpt lat="47.14175" lon="6.59809">
        <ele>817.4</ele>
        <time>2021-07-29T09:54:13Z</time>
      </trkpt>
      <trkpt lat="47.14173" lon="6.59794">
        <ele>815.8</ele>
        <time>2021-07-29T09:54:14Z</time>
      </trkpt>
      <trkpt lat="47.14171" lon="6.59779">
        <ele>814.6</ele>
        <time>2021-07-29T09:54:15Z</time>
      </trkpt>
      <trkpt lat="47.14168" lon="6.59764">
        <ele>813.6</ele>
        <time>2021-07-29T09:54:16Z</time>
      </trkpt>
      <trkpt lat="47.14164" lon="6.5975">
        <ele>812.4</ele>
        <time>2021-07-29T09:54:17Z</time>
      </trkpt>
      <trkpt lat="47.14159" lon="6.59737">
        <ele>811.4</ele>
        <time>2021-07-29T09:54:18Z</time>
      </trkpt>
      <trkpt lat="47.14152" lon="6.59726">
        <ele>811</ele>
        <time>2021-07-29T09:54:19Z</time>
      </trkpt>
      <trkpt lat="47.14144" lon="6.59716">
        <ele>810</ele>
        <time>2021-07-29T09:54:20Z</time>
      </trkpt>
      <trkpt lat="47.14137" lon="6.59707">
        <ele>809</ele>
        <time>2021-07-29T09:54:21Z</time>
      </trkpt>
      <trkpt lat="47.1413" lon="6.59697">
        <ele>807.8</ele>
        <time>2021-07-29T09:54:22Z</time>
      </trkpt>
      <trkpt lat="47.14123" lon="6.59687">
        <ele>806.6</ele>
        <time>2021-07-29T09:54:23Z</time>
      </trkpt>
      <trkpt lat="47.14116" lon="6.59678">
        <ele>805</ele>
        <time>2021-07-29T09:54:24Z</time>
      </trkpt>
      <trkpt lat="47.1411" lon="6.59669">
        <ele>803.8</ele>
        <time>2021-07-29T09:54:25Z</time>
      </trkpt>
      <trkpt lat="47.14102" lon="6.5966">
        <ele>802.4</ele>
        <time>2021-07-29T09:54:26Z</time>
      </trkpt>
      <trkpt lat="47.14096" lon="6.59651">
        <ele>801.2</ele>
        <time>2021-07-29T09:54:27Z</time>
      </trkpt>
      <trkpt lat="47.14088" lon="6.59643">
        <ele>800.2</ele>
        <time>2021-07-29T09:54:28Z</time>
      </trkpt>
      <trkpt lat="47.14081" lon="6.59636">
        <ele>799.2</ele>
        <time>2021-07-29T09:54:29Z</time>
      </trkpt>
      <trkpt lat="47.14074" lon="6.59628">
        <ele>798.2</ele>
        <time>2021-07-29T09:54:30Z</time>
      </trkpt>
      <trkpt lat="47.14068" lon="6.59621">
        <ele>797</ele>
        <time>2021-07-29T09:54:31Z</time>
      </trkpt>
      <trkpt lat="47.14061" lon="6.59615">
        <ele>796.2</ele>
        <time>2021-07-29T09:54:32Z</time>
      </trkpt>
      <trkpt lat="47.14055" lon="6.5961">
        <ele>795.4</ele>
        <time>2021-07-29T09:54:33Z</time>
      </trkpt>
      <trkpt lat="47.14049" lon="6.59605">
        <ele>794.4</ele>
        <time>2021-07-29T09:54:34Z</time>
      </trkpt>
      <trkpt lat="47.14043" lon="6.59602">
        <ele>793.4</ele>
        <time>2021-07-29T09:54:35Z</time>
      </trkpt>
      <trkpt lat="47.14038" lon="6.59598">
        <ele>792.6</ele>
        <time>2021-07-29T09:54:36Z</time>
      </trkpt>
      <trkpt lat="47.14034" lon="6.59594">
        <ele>791.6</ele>
        <time>2021-07-29T09:54:37Z</time>
      </trkpt>
      <trkpt lat="47.14032" lon="6.59589">
        <ele>790.8</ele>
        <time>2021-07-29T09:54:38Z</time>
      </trkpt>
      <trkpt lat="47.1403" lon="6.59583">
        <ele>789.8</ele>
        <time>2021-07-29T09:54:39Z</time>
      </trkpt>
      <trkpt lat="47.14031" lon="6.59576">
        <ele>788.8</ele>
        <time>2021-07-29T09:54:40Z</time>
      </trkpt>
      <trkpt lat="47.14034" lon="6.5957">
        <ele>788</ele>
        <time>2021-07-29T09:54:41Z</time>
      </trkpt>
      <trkpt lat="47.14038" lon="6.59566">
        <ele>787.4</ele>
        <time>2021-07-29T09:54:42Z</time>
      </trkpt>
      <trkpt lat="47.14044" lon="6.59563">
        <ele>786.8</ele>
        <time>2021-07-29T09:54:43Z</time>
      </trkpt>
      <trkpt lat="47.14051" lon="6.59561">
        <ele>786</ele>
        <time>2021-07-29T09:54:44Z</time>
      </trkpt>
      <trkpt lat="47.14058" lon="6.59559">
        <ele>785.4</ele>
        <time>2021-07-29T09:54:45Z</time>
      </trkpt>
      <trkpt lat="47.14066" lon="6.59558">
        <ele>784.8</ele>
        <time>2021-07-29T09:54:46Z</time>
      </trkpt>
      <trkpt lat="47.14074" lon="6.59556">
        <ele>784</ele>
        <time>2021-07-29T09:54:47Z</time>
      </trkpt>
      <trkpt lat="47.14083" lon="6.59554">
        <ele>783.4</ele>
        <time>2021-07-29T09:54:48Z</time>
      </trkpt>
      <trkpt lat="47.14091" lon="6.59551">
        <ele>782.8</ele>
        <time>2021-07-29T09:54:49Z</time>
      </trkpt>
      <trkpt lat="47.141" lon="6.59548">
        <ele>781.8</ele>
        <time>2021-07-29T09:54:50Z</time>
      </trkpt>
      <trkpt lat="47.1411" lon="6.59546">
        <ele>781</ele>
        <time>2021-07-29T09:54:51Z</time>
      </trkpt>
      <trkpt lat="47.1412" lon="6.59545">
        <ele>780.2</ele>
        <time>2021-07-29T09:54:52Z</time>
      </trkpt>
      <trkpt lat="47.1413" lon="6.59544">
        <ele>779.4</ele>
        <time>2021-07-29T09:54:53Z</time>
      </trkpt>
      <trkpt lat="47.1414" lon="6.59544">
        <ele>778.6</ele>
        <time>2021-07-29T09:54:54Z</time>
      </trkpt>
      <trkpt lat="47.1415" lon="6.59544">
        <ele>778.2</ele>
        <time>2021-07-29T09:54:55Z</time>
      </trkpt>
      <trkpt lat="47.1416" lon="6.59545">
        <ele>777.8</ele>
        <time>2021-07-29T09:54:56Z</time>
      </trkpt>
      <trkpt lat="47.1417" lon="6.59547">
        <ele>777.2</ele>
        <time>2021-07-29T09:54:57Z</time>
      </trkpt>
      <trkpt lat="47.1418" lon="6.59548">
        <ele>776.8</ele>
        <time>2021-07-29T09:54:58Z</time>
      </trkpt>
      <trkpt lat="47.1419" lon="6.5955">
        <ele>776.2</ele>
        <time>2021-07-29T09:54:59Z</time>
      </trkpt>
      <trkpt lat="47.142" lon="6.59551">
        <ele>775.4</ele>
        <time>2021-07-29T09:55:00Z</time>
      </trkpt>
      <trkpt lat="47.1421" lon="6.59553">
        <ele>774.8</ele>
        <time>2021-07-29T09:55:01Z</time>
      </trkpt>
      <trkpt lat="47.1422" lon="6.59554">
        <ele>773.6</ele>
        <time>2021-07-29T09:55:02Z</time>
      </trkpt>
      <trkpt lat="47.14229" lon="6.59554">
        <ele>772.8</ele>
        <time>2021-07-29T09:55:03Z</time>
      </trkpt>
      <trkpt lat="47.14238" lon="6.59555">
        <ele>771.6</ele>
        <time>2021-07-29T09:55:04Z</time>
      </trkpt>
      <trkpt lat="47.14246" lon="6.59556">
        <ele>770.4</ele>
        <time>2021-07-29T09:55:05Z</time>
      </trkpt>
      <trkpt lat="47.14254" lon="6.59558">
        <ele>769.6</ele>
        <time>2021-07-29T09:55:06Z</time>
      </trkpt>
      <trkpt lat="47.14261" lon="6.59559">
        <ele>768.6</ele>
        <time>2021-07-29T09:55:07Z</time>
      </trkpt>
      <trkpt lat="47.14267" lon="6.59561">
        <ele>767.8</ele>
        <time>2021-07-29T09:55:08Z</time>
      </trkpt>
      <trkpt lat="47.14273" lon="6.59563">
        <ele>767.2</ele>
        <time>2021-07-29T09:55:09Z</time>
      </trkpt>
      <trkpt lat="47.14278" lon="6.59563">
        <ele>766.6</ele>
        <time>2021-07-29T09:55:10Z</time>
      </trkpt>
      <trkpt lat="47.14283" lon="6.5956">
        <ele>766</ele>
        <time>2021-07-29T09:55:11Z</time>
      </trkpt>
      <trkpt lat="47.14287" lon="6.59554">
        <ele>765.2</ele>
        <time>2021-07-29T09:55:12Z</time>
      </trkpt>
      <trkpt lat="47.14287" lon="6.59546">
        <ele>764.4</ele>
        <time>2021-07-29T09:55:13Z</time>
      </trkpt>
      <trkpt lat="47.14283" lon="6.59538">
        <ele>763.8</ele>
        <time>2021-07-29T09:55:14Z</time>
      </trkpt>
      <trkpt lat="47.14278" lon="6.59532">
        <ele>762.8</ele>
        <time>2021-07-29T09:55:15Z</time>
      </trkpt>
      <trkpt lat="47.14272" lon="6.59526">
        <ele>762.2</ele>
        <time>2021-07-29T09:55:16Z</time>
      </trkpt>
      <trkpt lat="47.14265" lon="6.59521">
        <ele>761.8</ele>
        <time>2021-07-29T09:55:17Z</time>
      </trkpt>
      <trkpt lat="47.14258" lon="6.59515">
        <ele>761.4</ele>
        <time>2021-07-29T09:55:18Z</time>
      </trkpt>
      <trkpt lat="47.14251" lon="6.59509">
        <ele>761</ele>
        <time>2021-07-29T09:55:19Z</time>
      </trkpt>
      <trkpt lat="47.14243" lon="6.59503">
        <ele>760.4</ele>
        <time>2021-07-29T09:55:20Z</time>
      </trkpt>
      <trkpt lat="47.14236" lon="6.59497">
        <ele>760.2</ele>
        <time>2021-07-29T09:55:21Z</time>
      </trkpt>
      <trkpt lat="47.14229" lon="6.59492">
        <ele>759.8</ele>
        <time>2021-07-29T09:55:22Z</time>
      </trkpt>
      <trkpt lat="47.14221" lon="6.59486">
        <ele>759.2</ele>
        <time>2021-07-29T09:55:23Z</time>
      </trkpt>
      <trkpt lat="47.14214" lon="6.5948">
        <ele>758.8</ele>
        <time>2021-07-29T09:55:24Z</time>
      </trkpt>
      <trkpt lat="47.14206" lon="6.59473">
        <ele>758.4</ele>
        <time>2021-07-29T09:55:25Z</time>
      </trkpt>
      <trkpt lat="47.14199" lon="6.59465">
        <ele>757.8</ele>
        <time>2021-07-29T09:55:26Z</time>
      </trkpt>
      <trkpt lat="47.14192" lon="6.59457">
        <ele>757.2</ele>
        <time>2021-07-29T09:55:27Z</time>
      </trkpt>
      <trkpt lat="47.14185" lon="6.59449">
        <ele>756.6</ele>
        <time>2021-07-29T09:55:28Z</time>
      </trkpt>
      <trkpt lat="47.14178" lon="6.5944">
        <ele>756.2</ele>
        <time>2021-07-29T09:55:29Z</time>
      </trkpt>
      <trkpt lat="47.14171" lon="6.59432">
        <ele>755.6</ele>
        <time>2021-07-29T09:55:30Z</time>
      </trkpt>
      <trkpt lat="47.14164" lon="6.59424">
        <ele>755.2</ele>
        <time>2021-07-29T09:55:31Z</time>
      </trkpt>
      <trkpt lat="47.14157" lon="6.59415">
        <ele>754.4</ele>
        <time>2021-07-29T09:55:32Z</time>
      </trkpt>
      <trkpt lat="47.1415" lon="6.59406">
        <ele>754</ele>
        <time>2021-07-29T09:55:33Z</time>
      </trkpt>
      <trkpt lat="47.14142" lon="6.59397">
        <ele>753</ele>
        <time>2021-07-29T09:55:34Z</time>
      </trkpt>
      <trkpt lat="47.14135" lon="6.59387">
        <ele>751.8</ele>
        <time>2021-07-29T09:55:35Z</time>
      </trkpt>
      <trkpt lat="47.14127" lon="6.59377">
        <ele>750.8</ele>
        <time>2021-07-29T09:55:36Z</time>
      </trkpt>
      <trkpt lat="47.1412" lon="6.59366">
        <ele>750</ele>
        <time>2021-07-29T09:55:37Z</time>
      </trkpt>
      <trkpt lat="47.14113" lon="6.59355">
        <ele>748.4</ele>
        <time>2021-07-29T09:55:38Z</time>
      </trkpt>
      <trkpt lat="47.14106" lon="6.59343">
        <ele>747.6</ele>
        <time>2021-07-29T09:55:39Z</time>
      </trkpt>
      <trkpt lat="47.141" lon="6.59332">
        <ele>746.2</ele>
        <time>2021-07-29T09:55:40Z</time>
      </trkpt>
      <trkpt lat="47.14094" lon="6.59321">
        <ele>745.4</ele>
        <time>2021-07-29T09:55:41Z</time>
      </trkpt>
      <trkpt lat="47.14089" lon="6.5931">
        <ele>743.8</ele>
        <time>2021-07-29T09:55:42Z</time>
      </trkpt>
      <trkpt lat="47.14083" lon="6.59299">
        <ele>743.2</ele>
        <time>2021-07-29T09:55:43Z</time>
      </trkpt>
      <trkpt lat="47.14078" lon="6.59288">
        <ele>741.8</ele>
        <time>2021-07-29T09:55:44Z</time>
      </trkpt>
      <trkpt lat="47.14073" lon="6.59279">
        <ele>741</ele>
        <time>2021-07-29T09:55:45Z</time>
      </trkpt>
      <trkpt lat="47.14068" lon="6.59271">
        <ele>740</ele>
        <time>2021-07-29T09:55:46Z</time>
      </trkpt>
      <trkpt lat="47.14061" lon="6.59265">
        <ele>739</ele>
        <time>2021-07-29T09:55:47Z</time>
      </trkpt>
      <trkpt lat="47.14054" lon="6.59262">
        <ele>738.2</ele>
        <time>2021-07-29T09:55:48Z</time>
      </trkpt>
      <trkpt lat="47.14045" lon="6.59264">
        <ele>737.4</ele>
        <time>2021-07-29T09:55:49Z</time>
      </trkpt>
      <trkpt lat="47.14038" lon="6.59269">
        <ele>736.8</ele>
        <time>2021-07-29T09:55:50Z</time>
      </trkpt>
      <trkpt lat="47.14031" lon="6.59277">
        <ele>735.8</ele>
        <time>2021-07-29T09:55:51Z</time>
      </trkpt>
      <trkpt lat="47.14024" lon="6.59285">
        <ele>734.8</ele>
        <time>2021-07-29T09:55:52Z</time>
      </trkpt>
      <trkpt lat="47.14017" lon="6.5929">
        <ele>733.6</ele>
        <time>2021-07-29T09:55:53Z</time>
      </trkpt>
      <trkpt lat="47.14009" lon="6.59291">
        <ele>732.8</ele>
        <time>2021-07-29T09:55:54Z</time>
      </trkpt>
      <trkpt lat="47.14002" lon="6.59286">
        <ele>731.6</ele>
        <time>2021-07-29T09:55:55Z</time>
      </trkpt>
      <trkpt lat="47.13997" lon="6.59278">
        <ele>731</ele>
        <time>2021-07-29T09:55:56Z</time>
      </trkpt>
      <trkpt lat="47.13994" lon="6.59267">
        <ele>730</ele>
        <time>2021-07-29T09:55:57Z</time>
      </trkpt>
      <trkpt lat="47.13994" lon="6.59254">
        <ele>729.6</ele>
        <time>2021-07-29T09:55:58Z</time>
      </trkpt>
      <trkpt lat="47.13995" lon="6.59241">
        <ele>728.6</ele>
        <time>2021-07-29T09:55:59Z</time>
      </trkpt>
      <trkpt lat="47.13998" lon="6.59227">
        <ele>727.8</ele>
        <time>2021-07-29T09:56:00Z</time>
      </trkpt>
      <trkpt lat="47.14" lon="6.59213">
        <ele>726.8</ele>
        <time>2021-07-29T09:56:01Z</time>
      </trkpt>
      <trkpt lat="47.14003" lon="6.59198">
        <ele>726</ele>
        <time>2021-07-29T09:56:02Z</time>
      </trkpt>
      <trkpt lat="47.14007" lon="6.59184">
        <ele>725.2</ele>
        <time>2021-07-29T09:56:03Z</time>
      </trkpt>
      <trkpt lat="47.1401" lon="6.59171">
        <ele>724.2</ele>
        <time>2021-07-29T09:56:04Z</time>
      </trkpt>
      <trkpt lat="47.14014" lon="6.59159">
        <ele>723</ele>
        <time>2021-07-29T09:56:05Z</time>
      </trkpt>
      <trkpt lat="47.14019" lon="6.59148">
        <ele>722</ele>
        <time>2021-07-29T09:56:06Z</time>
      </trkpt>
      <trkpt lat="47.14025" lon="6.59137">
        <ele>721.2</ele>
        <time>2021-07-29T09:56:07Z</time>
      </trkpt>
      <trkpt lat="47.14031" lon="6.59127">
        <ele>720</ele>
        <time>2021-07-29T09:56:08Z</time>
      </trkpt>
      <trkpt lat="47.14038" lon="6.59118">
        <ele>719</ele>
        <time>2021-07-29T09:56:09Z</time>
      </trkpt>
      <trkpt lat="47.14046" lon="6.5911">
        <ele>718</ele>
        <time>2021-07-29T09:56:10Z</time>
      </trkpt>
      <trkpt lat="47.14053" lon="6.59103">
        <ele>716.8</ele>
        <time>2021-07-29T09:56:11Z</time>
      </trkpt>
      <trkpt lat="47.14061" lon="6.59096">
        <ele>716</ele>
        <time>2021-07-29T09:56:12Z</time>
      </trkpt>
      <trkpt lat="47.14067" lon="6.5909">
        <ele>715.2</ele>
        <time>2021-07-29T09:56:13Z</time>
      </trkpt>
      <trkpt lat="47.14073" lon="6.59082">
        <ele>714.4</ele>
        <time>2021-07-29T09:56:14Z</time>
      </trkpt>
      <trkpt lat="47.14078" lon="6.59074">
        <ele>713.4</ele>
        <time>2021-07-29T09:56:15Z</time>
      </trkpt>
      <trkpt lat="47.14083" lon="6.59066">
        <ele>712.6</ele>
        <time>2021-07-29T09:56:16Z</time>
      </trkpt>
      <trkpt lat="47.14086" lon="6.59056">
        <ele>711.4</ele>
        <time>2021-07-29T09:56:17Z</time>
      </trkpt>
      <trkpt lat="47.14088" lon="6.59045">
        <ele>710.4</ele>
        <time>2021-07-29T09:56:18Z</time>
      </trkpt>
      <trkpt lat="47.14087" lon="6.59033">
        <ele>709.4</ele>
        <time>2021-07-29T09:56:19Z</time>
      </trkpt>
      <trkpt lat="47.14084" lon="6.5902">
        <ele>708.4</ele>
        <time>2021-07-29T09:56:20Z</time>
      </trkpt>
      <trkpt lat="47.14079" lon="6.59008">
        <ele>707.6</ele>
        <time>2021-07-29T09:56:21Z</time>
      </trkpt>
      <trkpt lat="47.14075" lon="6.58996">
        <ele>707</ele>
        <time>2021-07-29T09:56:22Z</time>
      </trkpt>
      <trkpt lat="47.1407" lon="6.58984">
        <ele>705.8</ele>
        <time>2021-07-29T09:56:23Z</time>
      </trkpt>
      <trkpt lat="47.14067" lon="6.58973">
        <ele>704.8</ele>
        <time>2021-07-29T09:56:24Z</time>
      </trkpt>
      <trkpt lat="47.14065" lon="6.58963">
        <ele>703.6</ele>
        <time>2021-07-29T09:56:25Z</time>
      </trkpt>
      <trkpt lat="47.14066" lon="6.58953">
        <ele>702.6</ele>
        <time>2021-07-29T09:56:26Z</time>
      </trkpt>
      <trkpt lat="47.14069" lon="6.58943">
        <ele>701.6</ele>
        <time>2021-07-29T09:56:27Z</time>
      </trkpt>
      <trkpt lat="47.14075" lon="6.58935">
        <ele>700.8</ele>
        <time>2021-07-29T09:56:28Z</time>
      </trkpt>
      <trkpt lat="47.14081" lon="6.5893">
        <ele>700.2</ele>
        <time>2021-07-29T09:56:29Z</time>
      </trkpt>
      <trkpt lat="47.1409" lon="6.58928">
        <ele>699.4</ele>
        <time>2021-07-29T09:56:30Z</time>
      </trkpt>
      <trkpt lat="47.14099" lon="6.58927">
        <ele>698.4</ele>
        <time>2021-07-29T09:56:31Z</time>
      </trkpt>
      <trkpt lat="47.14108" lon="6.58928">
        <ele>697.4</ele>
        <time>2021-07-29T09:56:32Z</time>
      </trkpt>
      <trkpt lat="47.14118" lon="6.5893">
        <ele>696.4</ele>
        <time>2021-07-29T09:56:33Z</time>
      </trkpt>
      <trkpt lat="47.14127" lon="6.58931">
        <ele>695.8</ele>
        <time>2021-07-29T09:56:34Z</time>
      </trkpt>
      <trkpt lat="47.14134" lon="6.58931">
        <ele>694.8</ele>
        <time>2021-07-29T09:56:35Z</time>
      </trkpt>
      <trkpt lat="47.14141" lon="6.58931">
        <ele>694.4</ele>
        <time>2021-07-29T09:56:36Z</time>
      </trkpt>
      <trkpt lat="47.14145" lon="6.58931">
        <ele>694</ele>
        <time>2021-07-29T09:56:37Z</time>
      </trkpt>
      <trkpt lat="47.14149" lon="6.58931">
        <ele>694</ele>
        <time>2021-07-29T09:56:38Z</time>
      </trkpt>
      <trkpt lat="47.14153" lon="6.5893">
        <ele>693.8</ele>
        <time>2021-07-29T09:56:39Z</time>
      </trkpt>
      <trkpt lat="47.14155" lon="6.5893">
        <ele>693.6</ele>
        <time>2021-07-29T09:56:40Z</time>
      </trkpt>
      <trkpt lat="47.14157" lon="6.5893">
        <ele>693.6</ele>
        <time>2021-07-29T09:56:41Z</time>
      </trkpt>
      <trkpt lat="47.14159" lon="6.5893">
        <ele>693.6</ele>
        <time>2021-07-29T09:56:42Z</time>
      </trkpt>
      <trkpt lat="47.14159" lon="6.5893">
        <ele>693.6</ele>
        <time>2021-07-29T09:56:43Z</time>
      </trkpt>
      <trkpt lat="47.1416" lon="6.5893">
        <ele>693.6</ele>
        <time>2021-07-29T09:56:44Z</time>
      </trkpt>
      <trkpt lat="47.1416" lon="6.58931">
        <ele>693.6</ele>
        <time>2021-07-29T09:56:45Z</time>
      </trkpt>
      <trkpt lat="47.1416" lon="6.5893">
        <ele>693.6</ele>
        <time>2021-07-29T09:56:46Z</time>
      </trkpt>
      <trkpt lat="47.14161" lon="6.5893">
        <ele>693.6</ele>
        <time>2021-07-29T09:56:47Z</time>
      </trkpt>
      <trkpt lat="47.14163" lon="6.58931">
        <ele>693.6</ele>
        <time>2021-07-29T09:56:48Z</time>
      </trkpt>
      <trkpt lat="47.14164" lon="6.58933">
        <ele>693.6</ele>
        <time>2021-07-29T09:56:49Z</time>
      </trkpt>
      <trkpt lat="47.14166" lon="6.58935">
        <ele>693.6</ele>
        <time>2021-07-29T09:56:50Z</time>
      </trkpt>
      <trkpt lat="47.14169" lon="6.58938">
        <ele>693.6</ele>
        <time>2021-07-29T09:56:51Z</time>
      </trkpt>
      <trkpt lat="47.14171" lon="6.58941">
        <ele>693.6</ele>
        <time>2021-07-29T09:56:52Z</time>
      </trkpt>
      <trkpt lat="47.14174" lon="6.58945">
        <ele>693.6</ele>
        <time>2021-07-29T09:56:53Z</time>
      </trkpt>
      <trkpt lat="47.14177" lon="6.58949">
        <ele>693.6</ele>
        <time>2021-07-29T09:56:54Z</time>
      </trkpt>
      <trkpt lat="47.1418" lon="6.58954">
        <ele>693.4</ele>
        <time>2021-07-29T09:56:55Z</time>
      </trkpt>
      <trkpt lat="47.14182" lon="6.5896">
        <ele>693.2</ele>
        <time>2021-07-29T09:56:56Z</time>
      </trkpt>
      <trkpt lat="47.14185" lon="6.58965">
        <ele>693.2</ele>
        <time>2021-07-29T09:56:57Z</time>
      </trkpt>
      <trkpt lat="47.14187" lon="6.58972">
        <ele>693.2</ele>
        <time>2021-07-29T09:56:58Z</time>
      </trkpt>
      <trkpt lat="47.14189" lon="6.58977">
        <ele>693.4</ele>
        <time>2021-07-29T09:56:59Z</time>
      </trkpt>
      <trkpt lat="47.14192" lon="6.58983">
        <ele>693.4</ele>
        <time>2021-07-29T09:57:00Z</time>
      </trkpt>
      <trkpt lat="47.14195" lon="6.5899">
        <ele>693.2</ele>
        <time>2021-07-29T09:57:01Z</time>
      </trkpt>
      <trkpt lat="47.14197" lon="6.58996">
        <ele>693.2</ele>
        <time>2021-07-29T09:57:02Z</time>
      </trkpt>
      <trkpt lat="47.142" lon="6.59003">
        <ele>693</ele>
        <time>2021-07-29T09:57:03Z</time>
      </trkpt>
      <trkpt lat="47.14203" lon="6.59009">
        <ele>693.2</ele>
        <time>2021-07-29T09:57:04Z</time>
      </trkpt>
      <trkpt lat="47.14206" lon="6.59015">
        <ele>693</ele>
        <time>2021-07-29T09:57:05Z</time>
      </trkpt>
      <trkpt lat="47.14209" lon="6.59021">
        <ele>693</ele>
        <time>2021-07-29T09:57:06Z</time>
      </trkpt>
      <trkpt lat="47.14212" lon="6.59028">
        <ele>693</ele>
        <time>2021-07-29T09:57:07Z</time>
      </trkpt>
      <trkpt lat="47.14216" lon="6.59035">
        <ele>693</ele>
        <time>2021-07-29T09:57:08Z</time>
      </trkpt>
      <trkpt lat="47.14219" lon="6.59041">
        <ele>692.8</ele>
        <time>2021-07-29T09:57:09Z</time>
      </trkpt>
      <trkpt lat="47.14223" lon="6.59048">
        <ele>692.6</ele>
        <time>2021-07-29T09:57:10Z</time>
      </trkpt>
      <trkpt lat="47.14226" lon="6.59055">
        <ele>692.4</ele>
        <time>2021-07-29T09:57:11Z</time>
      </trkpt>
      <trkpt lat="47.1423" lon="6.59062">
        <ele>692.4</ele>
        <time>2021-07-29T09:57:12Z</time>
      </trkpt>
      <trkpt lat="47.14234" lon="6.59069">
        <ele>692.2</ele>
        <time>2021-07-29T09:57:13Z</time>
      </trkpt>
      <trkpt lat="47.14239" lon="6.59076">
        <ele>692.2</ele>
        <time>2021-07-29T09:57:14Z</time>
      </trkpt>
      <trkpt lat="47.14243" lon="6.59083">
        <ele>692.2</ele>
        <time>2021-07-29T09:57:15Z</time>
      </trkpt>
      <trkpt lat="47.14248" lon="6.5909">
        <ele>692</ele>
        <time>2021-07-29T09:57:16Z</time>
      </trkpt>
      <trkpt lat="47.14252" lon="6.59097">
        <ele>692</ele>
        <time>2021-07-29T09:57:17Z</time>
      </trkpt>
      <trkpt lat="47.14256" lon="6.59103">
        <ele>691.8</ele>
        <time>2021-07-29T09:57:18Z</time>
      </trkpt>
      <trkpt lat="47.14261" lon="6.5911">
        <ele>691.8</ele>
        <time>2021-07-29T09:57:19Z</time>
      </trkpt>
      <trkpt lat="47.14265" lon="6.59116">
        <ele>691.8</ele>
        <time>2021-07-29T09:57:20Z</time>
      </trkpt>
      <trkpt lat="47.1427" lon="6.59122">
        <ele>691.6</ele>
        <time>2021-07-29T09:57:21Z</time>
      </trkpt>
      <trkpt lat="47.14275" lon="6.59128">
        <ele>691.6</ele>
        <time>2021-07-29T09:57:22Z</time>
      </trkpt>
      <trkpt lat="47.14281" lon="6.59134">
        <ele>691.6</ele>
        <time>2021-07-29T09:57:23Z</time>
      </trkpt>
      <trkpt lat="47.14286" lon="6.5914">
        <ele>691.6</ele>
        <time>2021-07-29T09:57:24Z</time>
      </trkpt>
      <trkpt lat="47.14291" lon="6.59146">
        <ele>691.4</ele>
        <time>2021-07-29T09:57:25Z</time>
      </trkpt>
      <trkpt lat="47.14297" lon="6.59152">
        <ele>691.2</ele>
        <time>2021-07-29T09:57:26Z</time>
      </trkpt>
      <trkpt lat="47.14302" lon="6.59157">
        <ele>691</ele>
        <time>2021-07-29T09:57:27Z</time>
      </trkpt>
      <trkpt lat="47.14308" lon="6.59163">
        <ele>691</ele>
        <time>2021-07-29T09:57:28Z</time>
      </trkpt>
      <trkpt lat="47.14314" lon="6.59168">
        <ele>690.8</ele>
        <time>2021-07-29T09:57:29Z</time>
      </trkpt>
      <trkpt lat="47.14319" lon="6.59174">
        <ele>690.8</ele>
        <time>2021-07-29T09:57:30Z</time>
      </trkpt>
      <trkpt lat="47.14325" lon="6.59179">
        <ele>690.6</ele>
        <time>2021-07-29T09:57:31Z</time>
      </trkpt>
      <trkpt lat="47.14332" lon="6.59184">
        <ele>690.6</ele>
        <time>2021-07-29T09:57:32Z</time>
      </trkpt>
      <trkpt lat="47.14338" lon="6.59189">
        <ele>690.4</ele>
        <time>2021-07-29T09:57:33Z</time>
      </trkpt>
      <trkpt lat="47.14345" lon="6.59194">
        <ele>690.4</ele>
        <time>2021-07-29T09:57:34Z</time>
      </trkpt>
      <trkpt lat="47.14351" lon="6.59199">
        <ele>690.2</ele>
        <time>2021-07-29T09:57:35Z</time>
      </trkpt>
      <trkpt lat="47.14358" lon="6.59203">
        <ele>690.2</ele>
        <time>2021-07-29T09:57:36Z</time>
      </trkpt>
      <trkpt lat="47.14364" lon="6.59207">
        <ele>690</ele>
        <time>2021-07-29T09:57:37Z</time>
      </trkpt>
      <trkpt lat="47.14371" lon="6.59211">
        <ele>689.8</ele>
        <time>2021-07-29T09:57:38Z</time>
      </trkpt>
      <trkpt lat="47.14377" lon="6.59215">
        <ele>689.8</ele>
        <time>2021-07-29T09:57:39Z</time>
      </trkpt>
      <trkpt lat="47.14384" lon="6.59218">
        <ele>689.6</ele>
        <time>2021-07-29T09:57:40Z</time>
      </trkpt>
      <trkpt lat="47.14391" lon="6.59222">
        <ele>689.4</ele>
        <time>2021-07-29T09:57:41Z</time>
      </trkpt>
      <trkpt lat="47.14398" lon="6.59225">
        <ele>689.4</ele>
        <time>2021-07-29T09:57:42Z</time>
      </trkpt>
      <trkpt lat="47.14405" lon="6.59229">
        <ele>689.4</ele>
        <time>2021-07-29T09:57:43Z</time>
      </trkpt>
      <trkpt lat="47.14412" lon="6.59232">
        <ele>689.2</ele>
        <time>2021-07-29T09:57:44Z</time>
      </trkpt>
      <trkpt lat="47.14418" lon="6.59235">
        <ele>689.2</ele>
        <time>2021-07-29T09:57:45Z</time>
      </trkpt>
      <trkpt lat="47.14425" lon="6.59239">
        <ele>689</ele>
        <time>2021-07-29T09:57:46Z</time>
      </trkpt>
      <trkpt lat="47.14432" lon="6.59242">
        <ele>689</ele>
        <time>2021-07-29T09:57:47Z</time>
      </trkpt>
      <trkpt lat="47.14438" lon="6.59246">
        <ele>688.8</ele>
        <time>2021-07-29T09:57:48Z</time>
      </trkpt>
      <trkpt lat="47.14445" lon="6.59249">
        <ele>688.8</ele>
        <time>2021-07-29T09:57:49Z</time>
      </trkpt>
      <trkpt lat="47.14451" lon="6.59252">
        <ele>688.8</ele>
        <time>2021-07-29T09:57:50Z</time>
      </trkpt>
      <trkpt lat="47.14458" lon="6.59256">
        <ele>688.6</ele>
        <time>2021-07-29T09:57:51Z</time>
      </trkpt>
      <trkpt lat="47.14464" lon="6.59259">
        <ele>688.6</ele>
        <time>2021-07-29T09:57:52Z</time>
      </trkpt>
      <trkpt lat="47.14471" lon="6.59262">
        <ele>688.4</ele>
        <time>2021-07-29T09:57:53Z</time>
      </trkpt>
      <trkpt lat="47.14478" lon="6.59266">
        <ele>688.4</ele>
        <time>2021-07-29T09:57:54Z</time>
      </trkpt>
      <trkpt lat="47.14484" lon="6.59269">
        <ele>688.2</ele>
        <time>2021-07-29T09:57:55Z</time>
      </trkpt>
      <trkpt lat="47.14491" lon="6.59273">
        <ele>688.2</ele>
        <time>2021-07-29T09:57:56Z</time>
      </trkpt>
      <trkpt lat="47.14497" lon="6.59277">
        <ele>688</ele>
        <time>2021-07-29T09:57:57Z</time>
      </trkpt>
      <trkpt lat="47.14504" lon="6.5928">
        <ele>688</ele>
        <time>2021-07-29T09:57:58Z</time>
      </trkpt>
      <trkpt lat="47.1451" lon="6.59284">
        <ele>687.8</ele>
        <time>2021-07-29T09:57:59Z</time>
      </trkpt>
      <trkpt lat="47.14516" lon="6.59288">
        <ele>687.8</ele>
        <time>2021-07-29T09:58:00Z</time>
      </trkpt>
      <trkpt lat="47.14522" lon="6.59293">
        <ele>687.8</ele>
        <time>2021-07-29T09:58:01Z</time>
      </trkpt>
      <trkpt lat="47.14528" lon="6.59297">
        <ele>687.8</ele>
        <time>2021-07-29T09:58:02Z</time>
      </trkpt>
      <trkpt lat="47.14535" lon="6.593">
        <ele>687.8</ele>
        <time>2021-07-29T09:58:03Z</time>
      </trkpt>
      <trkpt lat="47.14541" lon="6.59304">
        <ele>687.8</ele>
        <time>2021-07-29T09:58:04Z</time>
      </trkpt>
      <trkpt lat="47.14547" lon="6.59307">
        <ele>687.6</ele>
        <time>2021-07-29T09:58:05Z</time>
      </trkpt>
      <trkpt lat="47.14553" lon="6.5931">
        <ele>687.6</ele>
        <time>2021-07-29T09:58:06Z</time>
      </trkpt>
      <trkpt lat="47.14559" lon="6.59312">
        <ele>687.6</ele>
        <time>2021-07-29T09:58:07Z</time>
      </trkpt>
      <trkpt lat="47.14565" lon="6.59315">
        <ele>687.6</ele>
        <time>2021-07-29T09:58:08Z</time>
      </trkpt>
      <trkpt lat="47.14572" lon="6.59318">
        <ele>687.6</ele>
        <time>2021-07-29T09:58:09Z</time>
      </trkpt>
      <trkpt lat="47.14578" lon="6.5932">
        <ele>687.6</ele>
        <time>2021-07-29T09:58:10Z</time>
      </trkpt>
      <trkpt lat="47.14584" lon="6.59322">
        <ele>687.6</ele>
        <time>2021-07-29T09:58:11Z</time>
      </trkpt>
      <trkpt lat="47.1459" lon="6.59324">
        <ele>687.6</ele>
        <time>2021-07-29T09:58:12Z</time>
      </trkpt>
      <trkpt lat="47.14596" lon="6.59327">
        <ele>687.8</ele>
        <time>2021-07-29T09:58:13Z</time>
      </trkpt>
      <trkpt lat="47.14602" lon="6.59329">
        <ele>688</ele>
        <time>2021-07-29T09:58:14Z</time>
      </trkpt>
      <trkpt lat="47.14608" lon="6.59331">
        <ele>688</ele>
        <time>2021-07-29T09:58:15Z</time>
      </trkpt>
      <trkpt lat="47.14613" lon="6.59333">
        <ele>688</ele>
        <time>2021-07-29T09:58:16Z</time>
      </trkpt>
      <trkpt lat="47.14619" lon="6.59335">
        <ele>688</ele>
        <time>2021-07-29T09:58:17Z</time>
      </trkpt>
      <trkpt lat="47.14624" lon="6.59337">
        <ele>688.2</ele>
        <time>2021-07-29T09:58:18Z</time>
      </trkpt>
      <trkpt lat="47.14629" lon="6.59339">
        <ele>688.2</ele>
        <time>2021-07-29T09:58:19Z</time>
      </trkpt>
      <trkpt lat="47.14634" lon="6.59341">
        <ele>688.4</ele>
        <time>2021-07-29T09:58:20Z</time>
      </trkpt>
      <trkpt lat="47.14639" lon="6.59344">
        <ele>688.4</ele>
        <time>2021-07-29T09:58:21Z</time>
      </trkpt>
      <trkpt lat="47.14644" lon="6.59346">
        <ele>688.4</ele>
        <time>2021-07-29T09:58:22Z</time>
      </trkpt>
      <trkpt lat="47.14649" lon="6.59349">
        <ele>688.4</ele>
        <time>2021-07-29T09:58:23Z</time>
      </trkpt>
      <trkpt lat="47.14653" lon="6.59352">
        <ele>688.4</ele>
        <time>2021-07-29T09:58:24Z</time>
      </trkpt>
      <trkpt lat="47.14658" lon="6.59355">
        <ele>688.6</ele>
        <time>2021-07-29T09:58:25Z</time>
      </trkpt>
      <trkpt lat="47.14662" lon="6.59359">
        <ele>688.6</ele>
        <time>2021-07-29T09:58:26Z</time>
      </trkpt>
      <trkpt lat="47.14667" lon="6.59362">
        <ele>688.6</ele>
        <time>2021-07-29T09:58:27Z</time>
      </trkpt>
      <trkpt lat="47.14671" lon="6.59367">
        <ele>688.6</ele>
        <time>2021-07-29T09:58:28Z</time>
      </trkpt>
      <trkpt lat="47.14675" lon="6.59371">
        <ele>688.8</ele>
        <time>2021-07-29T09:58:29Z</time>
      </trkpt>
      <trkpt lat="47.14678" lon="6.59375">
        <ele>688.8</ele>
        <time>2021-07-29T09:58:30Z</time>
      </trkpt>
      <trkpt lat="47.14682" lon="6.5938">
        <ele>689</ele>
        <time>2021-07-29T09:58:31Z</time>
      </trkpt>
      <trkpt lat="47.14685" lon="6.59384">
        <ele>689.2</ele>
        <time>2021-07-29T09:58:32Z</time>
      </trkpt>
      <trkpt lat="47.14688" lon="6.59389">
        <ele>689</ele>
        <time>2021-07-29T09:58:33Z</time>
      </trkpt>
      <trkpt lat="47.14692" lon="6.59394">
        <ele>689.2</ele>
        <time>2021-07-29T09:58:34Z</time>
      </trkpt>
      <trkpt lat="47.14695" lon="6.59398">
        <ele>689.2</ele>
        <time>2021-07-29T09:58:35Z</time>
      </trkpt>
      <trkpt lat="47.14698" lon="6.59403">
        <ele>689.2</ele>
        <time>2021-07-29T09:58:36Z</time>
      </trkpt>
      <trkpt lat="47.147" lon="6.59408">
        <ele>689.4</ele>
        <time>2021-07-29T09:58:37Z</time>
      </trkpt>
      <trkpt lat="47.14703" lon="6.59413">
        <ele>689.4</ele>
        <time>2021-07-29T09:58:38Z</time>
      </trkpt>
      <trkpt lat="47.14706" lon="6.59418">
        <ele>689.6</ele>
        <time>2021-07-29T09:58:39Z</time>
      </trkpt>
      <trkpt lat="47.14708" lon="6.59423">
        <ele>689.6</ele>
        <time>2021-07-29T09:58:40Z</time>
      </trkpt>
      <trkpt lat="47.14711" lon="6.59429">
        <ele>689.6</ele>
        <time>2021-07-29T09:58:41Z</time>
      </trkpt>
      <trkpt lat="47.14713" lon="6.59434">
        <ele>689.6</ele>
        <time>2021-07-29T09:58:42Z</time>
      </trkpt>
      <trkpt lat="47.14715" lon="6.5944">
        <ele>689.8</ele>
        <time>2021-07-29T09:58:43Z</time>
      </trkpt>
      <trkpt lat="47.14718" lon="6.59445">
        <ele>689.6</ele>
        <time>2021-07-29T09:58:44Z</time>
      </trkpt>
      <trkpt lat="47.1472" lon="6.59451">
        <ele>689.6</ele>
        <time>2021-07-29T09:58:45Z</time>
      </trkpt>
      <trkpt lat="47.14722" lon="6.59457">
        <ele>689.6</ele>
        <time>2021-07-29T09:58:46Z</time>
      </trkpt>
      <trkpt lat="47.14725" lon="6.59464">
        <ele>689.6</ele>
        <time>2021-07-29T09:58:47Z</time>
      </trkpt>
      <trkpt lat="47.14727" lon="6.5947">
        <ele>689.4</ele>
        <time>2021-07-29T09:58:48Z</time>
      </trkpt>
      <trkpt lat="47.1473" lon="6.59478">
        <ele>689.2</ele>
        <time>2021-07-29T09:58:49Z</time>
      </trkpt>
      <trkpt lat="47.14732" lon="6.59485">
        <ele>689</ele>
        <time>2021-07-29T09:58:50Z</time>
      </trkpt>
      <trkpt lat="47.14734" lon="6.59492">
        <ele>688.8</ele>
        <time>2021-07-29T09:58:51Z</time>
      </trkpt>
      <trkpt lat="47.14737" lon="6.595">
        <ele>688.8</ele>
        <time>2021-07-29T09:58:52Z</time>
      </trkpt>
      <trkpt lat="47.14739" lon="6.59508">
        <ele>688.6</ele>
        <time>2021-07-29T09:58:53Z</time>
      </trkpt>
      <trkpt lat="47.14741" lon="6.59515">
        <ele>688.6</ele>
        <time>2021-07-29T09:58:54Z</time>
      </trkpt>
      <trkpt lat="47.14743" lon="6.59523">
        <ele>688.6</ele>
        <time>2021-07-29T09:58:55Z</time>
      </trkpt>
      <trkpt lat="47.14746" lon="6.59531">
        <ele>688.6</ele>
        <time>2021-07-29T09:58:56Z</time>
      </trkpt>
      <trkpt lat="47.14748" lon="6.59539">
        <ele>688.4</ele>
        <time>2021-07-29T09:58:57Z</time>
      </trkpt>
      <trkpt lat="47.1475" lon="6.59547">
        <ele>688.4</ele>
        <time>2021-07-29T09:58:58Z</time>
      </trkpt>
      <trkpt lat="47.14752" lon="6.59555">
        <ele>688.4</ele>
        <time>2021-07-29T09:58:59Z</time>
      </trkpt>
      <trkpt lat="47.14754" lon="6.59563">
        <ele>688.2</ele>
        <time>2021-07-29T09:59:00Z</time>
      </trkpt>
      <trkpt lat="47.14756" lon="6.59572">
        <ele>688.2</ele>
        <time>2021-07-29T09:59:01Z</time>
      </trkpt>
      <trkpt lat="47.14758" lon="6.5958">
        <ele>688</ele>
        <time>2021-07-29T09:59:02Z</time>
      </trkpt>
      <trkpt lat="47.1476" lon="6.59588">
        <ele>688</ele>
        <time>2021-07-29T09:59:03Z</time>
      </trkpt>
      <trkpt lat="47.14763" lon="6.59596">
        <ele>688</ele>
        <time>2021-07-29T09:59:04Z</time>
      </trkpt>
      <trkpt lat="47.14765" lon="6.59604">
        <ele>687.8</ele>
        <time>2021-07-29T09:59:05Z</time>
      </trkpt>
      <trkpt lat="47.14768" lon="6.59613">
        <ele>687.6</ele>
        <time>2021-07-29T09:59:06Z</time>
      </trkpt>
      <trkpt lat="47.14771" lon="6.59621">
        <ele>687.4</ele>
        <time>2021-07-29T09:59:07Z</time>
      </trkpt>
      <trkpt lat="47.14774" lon="6.59629">
        <ele>687.4</ele>
        <time>2021-07-29T09:59:08Z</time>
      </trkpt>
      <trkpt lat="47.14777" lon="6.59638">
        <ele>687</ele>
        <time>2021-07-29T09:59:09Z</time>
      </trkpt>
      <trkpt lat="47.1478" lon="6.59647">
        <ele>687</ele>
        <time>2021-07-29T09:59:10Z</time>
      </trkpt>
      <trkpt lat="47.14783" lon="6.59655">
        <ele>686.6</ele>
        <time>2021-07-29T09:59:11Z</time>
      </trkpt>
      <trkpt lat="47.14786" lon="6.59664">
        <ele>686.6</ele>
        <time>2021-07-29T09:59:12Z</time>
      </trkpt>
      <trkpt lat="47.1479" lon="6.59674">
        <ele>686.2</ele>
        <time>2021-07-29T09:59:13Z</time>
      </trkpt>
      <trkpt lat="47.14793" lon="6.59683">
        <ele>686</ele>
        <time>2021-07-29T09:59:14Z</time>
      </trkpt>
      <trkpt lat="47.14796" lon="6.59693">
        <ele>685.8</ele>
        <time>2021-07-29T09:59:15Z</time>
      </trkpt>
      <trkpt lat="47.14799" lon="6.59702">
        <ele>685.8</ele>
        <time>2021-07-29T09:59:16Z</time>
      </trkpt>
      <trkpt lat="47.14803" lon="6.59712">
        <ele>685.8</ele>
        <time>2021-07-29T09:59:17Z</time>
      </trkpt>
      <trkpt lat="47.14806" lon="6.59722">
        <ele>685.6</ele>
        <time>2021-07-29T09:59:18Z</time>
      </trkpt>
      <trkpt lat="47.14809" lon="6.59732">
        <ele>685.4</ele>
        <time>2021-07-29T09:59:19Z</time>
      </trkpt>
      <trkpt lat="47.14813" lon="6.59742">
        <ele>685.2</ele>
        <time>2021-07-29T09:59:20Z</time>
      </trkpt>
      <trkpt lat="47.14816" lon="6.59752">
        <ele>685.2</ele>
        <time>2021-07-29T09:59:21Z</time>
      </trkpt>
      <trkpt lat="47.14819" lon="6.59762">
        <ele>685.2</ele>
        <time>2021-07-29T09:59:22Z</time>
      </trkpt>
      <trkpt lat="47.14822" lon="6.59772">
        <ele>685</ele>
        <time>2021-07-29T09:59:23Z</time>
      </trkpt>
      <trkpt lat="47.14825" lon="6.59782">
        <ele>684.8</ele>
        <time>2021-07-29T09:59:24Z</time>
      </trkpt>
      <trkpt lat="47.14828" lon="6.59792">
        <ele>684.6</ele>
        <time>2021-07-29T09:59:25Z</time>
      </trkpt>
      <trkpt lat="47.14831" lon="6.59802">
        <ele>684.6</ele>
        <time>2021-07-29T09:59:26Z</time>
      </trkpt>
      <trkpt lat="47.14834" lon="6.59813">
        <ele>684.4</ele>
        <time>2021-07-29T09:59:27Z</time>
      </trkpt>
      <trkpt lat="47.14837" lon="6.59823">
        <ele>684.4</ele>
        <time>2021-07-29T09:59:28Z</time>
      </trkpt>
      <trkpt lat="47.1484" lon="6.59833">
        <ele>684.2</ele>
        <time>2021-07-29T09:59:29Z</time>
      </trkpt>
      <trkpt lat="47.14844" lon="6.59843">
        <ele>684.2</ele>
        <time>2021-07-29T09:59:30Z</time>
      </trkpt>
      <trkpt lat="47.14847" lon="6.59853">
        <ele>684</ele>
        <time>2021-07-29T09:59:31Z</time>
      </trkpt>
      <trkpt lat="47.14851" lon="6.59862">
        <ele>683.8</ele>
        <time>2021-07-29T09:59:32Z</time>
      </trkpt>
      <trkpt lat="47.14855" lon="6.59871">
        <ele>683.8</ele>
        <time>2021-07-29T09:59:33Z</time>
      </trkpt>
      <trkpt lat="47.1486" lon="6.5988">
        <ele>683.6</ele>
        <time>2021-07-29T09:59:34Z</time>
      </trkpt>
      <trkpt lat="47.14864" lon="6.59888">
        <ele>683.4</ele>
        <time>2021-07-29T09:59:35Z</time>
      </trkpt>
      <trkpt lat="47.14869" lon="6.59896">
        <ele>683.2</ele>
        <time>2021-07-29T09:59:36Z</time>
      </trkpt>
      <trkpt lat="47.14874" lon="6.59904">
        <ele>683.2</ele>
        <time>2021-07-29T09:59:37Z</time>
      </trkpt>
      <trkpt lat="47.1488" lon="6.59911">
        <ele>683</ele>
        <time>2021-07-29T09:59:38Z</time>
      </trkpt>
      <trkpt lat="47.14885" lon="6.59918">
        <ele>683</ele>
        <time>2021-07-29T09:59:39Z</time>
      </trkpt>
      <trkpt lat="47.1489" lon="6.59923">
        <ele>683</ele>
        <time>2021-07-29T09:59:40Z</time>
      </trkpt>
      <trkpt lat="47.14896" lon="6.59927">
        <ele>682.8</ele>
        <time>2021-07-29T09:59:41Z</time>
      </trkpt>
      <trkpt lat="47.14903" lon="6.5993">
        <ele>682.6</ele>
        <time>2021-07-29T09:59:42Z</time>
      </trkpt>
      <trkpt lat="47.14909" lon="6.59931">
        <ele>682.6</ele>
        <time>2021-07-29T09:59:43Z</time>
      </trkpt>
      <trkpt lat="47.14915" lon="6.59931">
        <ele>682.4</ele>
        <time>2021-07-29T09:59:44Z</time>
      </trkpt>
      <trkpt lat="47.14921" lon="6.5993">
        <ele>682.4</ele>
        <time>2021-07-29T09:59:45Z</time>
      </trkpt>
      <trkpt lat="47.14927" lon="6.59928">
        <ele>682.2</ele>
        <time>2021-07-29T09:59:46Z</time>
      </trkpt>
      <trkpt lat="47.14933" lon="6.59925">
        <ele>682.2</ele>
        <time>2021-07-29T09:59:47Z</time>
      </trkpt>
      <trkpt lat="47.1494" lon="6.59922">
        <ele>682</ele>
        <time>2021-07-29T09:59:48Z</time>
      </trkpt>
      <trkpt lat="47.14946" lon="6.5992">
        <ele>682</ele>
        <time>2021-07-29T09:59:49Z</time>
      </trkpt>
      <trkpt lat="47.14954" lon="6.59918">
        <ele>682</ele>
        <time>2021-07-29T09:59:50Z</time>
      </trkpt>
      <trkpt lat="47.1496" lon="6.59916">
        <ele>681.8</ele>
        <time>2021-07-29T09:59:51Z</time>
      </trkpt>
      <trkpt lat="47.14966" lon="6.59914">
        <ele>681.8</ele>
        <time>2021-07-29T09:59:52Z</time>
      </trkpt>
      <trkpt lat="47.14973" lon="6.59912">
        <ele>681.8</ele>
        <time>2021-07-29T09:59:53Z</time>
      </trkpt>
      <trkpt lat="47.14979" lon="6.59911">
        <ele>681.6</ele>
        <time>2021-07-29T09:59:54Z</time>
      </trkpt>
      <trkpt lat="47.14986" lon="6.59909">
        <ele>681.6</ele>
        <time>2021-07-29T09:59:55Z</time>
      </trkpt>
      <trkpt lat="47.14993" lon="6.59907">
        <ele>681.6</ele>
        <time>2021-07-29T09:59:56Z</time>
      </trkpt>
      <trkpt lat="47.15" lon="6.59905">
        <ele>681.4</ele>
        <time>2021-07-29T09:59:57Z</time>
      </trkpt>
      <trkpt lat="47.15008" lon="6.59903">
        <ele>681.4</ele>
        <time>2021-07-29T09:59:58Z</time>
      </trkpt>
      <trkpt lat="47.15015" lon="6.59901">
        <ele>681.4</ele>
        <time>2021-07-29T09:59:59Z</time>
      </trkpt>
      <trkpt lat="47.15021" lon="6.59898">
        <ele>681.4</ele>
        <time>2021-07-29T10:00:00Z</time>
      </trkpt>
      <trkpt lat="47.15028" lon="6.59894">
        <ele>681.4</ele>
        <time>2021-07-29T10:00:01Z</time>
      </trkpt>
      <trkpt lat="47.15036" lon="6.5989">
        <ele>681.4</ele>
        <time>2021-07-29T10:00:02Z</time>
      </trkpt>
      <trkpt lat="47.15042" lon="6.59885">
        <ele>681.4</ele>
        <time>2021-07-29T10:00:03Z</time>
      </trkpt>
      <trkpt lat="47.15049" lon="6.59879">
        <ele>681.4</ele>
        <time>2021-07-29T10:00:04Z</time>
      </trkpt>
      <trkpt lat="47.15054" lon="6.59872">
        <ele>681.4</ele>
        <time>2021-07-29T10:00:05Z</time>
      </trkpt>
      <trkpt lat="47.15058" lon="6.59865">
        <ele>681.2</ele>
        <time>2021-07-29T10:00:06Z</time>
      </trkpt>
      <trkpt lat="47.15063" lon="6.59859">
        <ele>681</ele>
        <time>2021-07-29T10:00:07Z</time>
      </trkpt>
      <trkpt lat="47.15068" lon="6.59852">
        <ele>681</ele>
        <time>2021-07-29T10:00:08Z</time>
      </trkpt>
      <trkpt lat="47.15072" lon="6.59845">
        <ele>681</ele>
        <time>2021-07-29T10:00:09Z</time>
      </trkpt>
      <trkpt lat="47.15076" lon="6.59838">
        <ele>680.8</ele>
        <time>2021-07-29T10:00:10Z</time>
      </trkpt>
      <trkpt lat="47.15081" lon="6.59832">
        <ele>680.8</ele>
        <time>2021-07-29T10:00:11Z</time>
      </trkpt>
      <trkpt lat="47.15086" lon="6.59826">
        <ele>680.8</ele>
        <time>2021-07-29T10:00:12Z</time>
      </trkpt>
      <trkpt lat="47.1509" lon="6.5982">
        <ele>680.8</ele>
        <time>2021-07-29T10:00:13Z</time>
      </trkpt>
      <trkpt lat="47.15094" lon="6.59814">
        <ele>680.8</ele>
        <time>2021-07-29T10:00:14Z</time>
      </trkpt>
      <trkpt lat="47.15098" lon="6.59808">
        <ele>681</ele>
        <time>2021-07-29T10:00:15Z</time>
      </trkpt>
      <trkpt lat="47.15103" lon="6.59804">
        <ele>680.8</ele>
        <time>2021-07-29T10:00:16Z</time>
      </trkpt>
      <trkpt lat="47.15108" lon="6.59799">
        <ele>680.8</ele>
        <time>2021-07-29T10:00:17Z</time>
      </trkpt>
      <trkpt lat="47.15113" lon="6.59794">
        <ele>680.8</ele>
        <time>2021-07-29T10:00:18Z</time>
      </trkpt>
      <trkpt lat="47.15118" lon="6.59789">
        <ele>680.6</ele>
        <time>2021-07-29T10:00:19Z</time>
      </trkpt>
      <trkpt lat="47.15123" lon="6.59784">
        <ele>680.4</ele>
        <time>2021-07-29T10:00:20Z</time>
      </trkpt>
      <trkpt lat="47.15129" lon="6.59779">
        <ele>680.2</ele>
        <time>2021-07-29T10:00:21Z</time>
      </trkpt>
      <trkpt lat="47.15134" lon="6.59774">
        <ele>680</ele>
        <time>2021-07-29T10:00:22Z</time>
      </trkpt>
      <trkpt lat="47.15139" lon="6.59768">
        <ele>679.6</ele>
        <time>2021-07-29T10:00:23Z</time>
      </trkpt>
      <trkpt lat="47.15144" lon="6.59761">
        <ele>679.6</ele>
        <time>2021-07-29T10:00:24Z</time>
      </trkpt>
      <trkpt lat="47.15149" lon="6.59754">
        <ele>679.2</ele>
        <time>2021-07-29T10:00:25Z</time>
      </trkpt>
      <trkpt lat="47.15154" lon="6.59746">
        <ele>679</ele>
        <time>2021-07-29T10:00:26Z</time>
      </trkpt>
      <trkpt lat="47.15158" lon="6.59738">
        <ele>678.8</ele>
        <time>2021-07-29T10:00:27Z</time>
      </trkpt>
      <trkpt lat="47.15161" lon="6.59728">
        <ele>678.4</ele>
        <time>2021-07-29T10:00:28Z</time>
      </trkpt>
      <trkpt lat="47.15165" lon="6.59719">
        <ele>677.8</ele>
        <time>2021-07-29T10:00:29Z</time>
      </trkpt>
      <trkpt lat="47.15169" lon="6.5971">
        <ele>677.4</ele>
        <time>2021-07-29T10:00:30Z</time>
      </trkpt>
      <trkpt lat="47.15174" lon="6.59701">
        <ele>677.2</ele>
        <time>2021-07-29T10:00:31Z</time>
      </trkpt>
      <trkpt lat="47.15177" lon="6.59691">
        <ele>677</ele>
        <time>2021-07-29T10:00:32Z</time>
      </trkpt>
      <trkpt lat="47.15181" lon="6.5968">
        <ele>676.6</ele>
        <time>2021-07-29T10:00:33Z</time>
      </trkpt>
      <trkpt lat="47.15185" lon="6.5967">
        <ele>676.4</ele>
        <time>2021-07-29T10:00:34Z</time>
      </trkpt>
      <trkpt lat="47.15189" lon="6.59661">
        <ele>676.2</ele>
        <time>2021-07-29T10:00:35Z</time>
      </trkpt>
      <trkpt lat="47.15193" lon="6.59652">
        <ele>675.8</ele>
        <time>2021-07-29T10:00:36Z</time>
      </trkpt>
      <trkpt lat="47.15197" lon="6.59643">
        <ele>675.6</ele>
        <time>2021-07-29T10:00:37Z</time>
      </trkpt>
      <trkpt lat="47.15201" lon="6.59633">
        <ele>675.4</ele>
        <time>2021-07-29T10:00:38Z</time>
      </trkpt>
      <trkpt lat="47.15206" lon="6.59625">
        <ele>675.2</ele>
        <time>2021-07-29T10:00:39Z</time>
      </trkpt>
      <trkpt lat="47.15212" lon="6.59619">
        <ele>675</ele>
        <time>2021-07-29T10:00:40Z</time>
      </trkpt>
      <trkpt lat="47.15218" lon="6.59614">
        <ele>674.6</ele>
        <time>2021-07-29T10:00:41Z</time>
      </trkpt>
      <trkpt lat="47.15226" lon="6.59609">
        <ele>674.4</ele>
        <time>2021-07-29T10:00:42Z</time>
      </trkpt>
      <trkpt lat="47.15235" lon="6.59603">
        <ele>674.2</ele>
        <time>2021-07-29T10:00:43Z</time>
      </trkpt>
      <trkpt lat="47.15244" lon="6.59598">
        <ele>674.2</ele>
        <time>2021-07-29T10:00:44Z</time>
      </trkpt>
      <trkpt lat="47.1525" lon="6.59593">
        <ele>674</ele>
        <time>2021-07-29T10:00:45Z</time>
      </trkpt>
      <trkpt lat="47.15256" lon="6.59587">
        <ele>673.4</ele>
        <time>2021-07-29T10:00:46Z</time>
      </trkpt>
      <trkpt lat="47.15263" lon="6.59582">
        <ele>673</ele>
        <time>2021-07-29T10:00:47Z</time>
      </trkpt>
      <trkpt lat="47.1527" lon="6.59578">
        <ele>672.8</ele>
        <time>2021-07-29T10:00:48Z</time>
      </trkpt>
      <trkpt lat="47.15278" lon="6.59579">
        <ele>672.6</ele>
        <time>2021-07-29T10:00:49Z</time>
      </trkpt>
      <trkpt lat="47.15285" lon="6.5958">
        <ele>672.4</ele>
        <time>2021-07-29T10:00:50Z</time>
      </trkpt>
      <trkpt lat="47.15292" lon="6.59578">
        <ele>672.2</ele>
        <time>2021-07-29T10:00:51Z</time>
      </trkpt>
      <trkpt lat="47.15301" lon="6.59578">
        <ele>672</ele>
        <time>2021-07-29T10:00:52Z</time>
      </trkpt>
      <trkpt lat="47.15308" lon="6.59578">
        <ele>671.6</ele>
        <time>2021-07-29T10:00:53Z</time>
      </trkpt>
      <trkpt lat="47.15315" lon="6.59578">
        <ele>671.2</ele>
        <time>2021-07-29T10:00:54Z</time>
      </trkpt>
      <trkpt lat="47.15323" lon="6.5958">
        <ele>671</ele>
        <time>2021-07-29T10:00:55Z</time>
      </trkpt>
      <trkpt lat="47.15331" lon="6.59584">
        <ele>670.8</ele>
        <time>2021-07-29T10:00:56Z</time>
      </trkpt>
      <trkpt lat="47.15338" lon="6.59588">
        <ele>670.4</ele>
        <time>2021-07-29T10:00:57Z</time>
      </trkpt>
      <trkpt lat="47.15346" lon="6.59592">
        <ele>670.2</ele>
        <time>2021-07-29T10:00:58Z</time>
      </trkpt>
      <trkpt lat="47.15353" lon="6.59599">
        <ele>669.8</ele>
        <time>2021-07-29T10:00:59Z</time>
      </trkpt>
      <trkpt lat="47.1536" lon="6.59605">
        <ele>669.4</ele>
        <time>2021-07-29T10:01:00Z</time>
      </trkpt>
      <trkpt lat="47.15366" lon="6.59611">
        <ele>669.2</ele>
        <time>2021-07-29T10:01:01Z</time>
      </trkpt>
      <trkpt lat="47.15374" lon="6.59618">
        <ele>669</ele>
        <time>2021-07-29T10:01:02Z</time>
      </trkpt>
      <trkpt lat="47.15381" lon="6.59624">
        <ele>668.6</ele>
        <time>2021-07-29T10:01:03Z</time>
      </trkpt>
      <trkpt lat="47.1539" lon="6.59629">
        <ele>668.4</ele>
        <time>2021-07-29T10:01:04Z</time>
      </trkpt>
      <trkpt lat="47.15399" lon="6.59635">
        <ele>668</ele>
        <time>2021-07-29T10:01:05Z</time>
      </trkpt>
      <trkpt lat="47.15407" lon="6.5964">
        <ele>667.8</ele>
        <time>2021-07-29T10:01:06Z</time>
      </trkpt>
      <trkpt lat="47.15415" lon="6.59646">
        <ele>667.2</ele>
        <time>2021-07-29T10:01:07Z</time>
      </trkpt>
      <trkpt lat="47.15422" lon="6.59653">
        <ele>667</ele>
        <time>2021-07-29T10:01:08Z</time>
      </trkpt>
      <trkpt lat="47.15429" lon="6.59661">
        <ele>666.4</ele>
        <time>2021-07-29T10:01:09Z</time>
      </trkpt>
      <trkpt lat="47.15434" lon="6.59668">
        <ele>666.2</ele>
        <time>2021-07-29T10:01:10Z</time>
      </trkpt>
      <trkpt lat="47.15438" lon="6.59677">
        <ele>665.8</ele>
        <time>2021-07-29T10:01:11Z</time>
      </trkpt>
      <trkpt lat="47.15443" lon="6.59689">
        <ele>665.6</ele>
        <time>2021-07-29T10:01:12Z</time>
      </trkpt>
      <trkpt lat="47.15446" lon="6.597">
        <ele>665.2</ele>
        <time>2021-07-29T10:01:13Z</time>
      </trkpt>
      <trkpt lat="47.15448" lon="6.59712">
        <ele>664.8</ele>
        <time>2021-07-29T10:01:14Z</time>
      </trkpt>
      <trkpt lat="47.15449" lon="6.59721">
        <ele>664.4</ele>
        <time>2021-07-29T10:01:15Z</time>
      </trkpt>
      <trkpt lat="47.15451" lon="6.59734">
        <ele>663.8</ele>
        <time>2021-07-29T10:01:16Z</time>
      </trkpt>
      <trkpt lat="47.15453" lon="6.59747">
        <ele>663.4</ele>
        <time>2021-07-29T10:01:17Z</time>
      </trkpt>
      <trkpt lat="47.15454" lon="6.59761">
        <ele>663</ele>
        <time>2021-07-29T10:01:18Z</time>
      </trkpt>
      <trkpt lat="47.15455" lon="6.59775">
        <ele>662.4</ele>
        <time>2021-07-29T10:01:19Z</time>
      </trkpt>
      <trkpt lat="47.15455" lon="6.59789">
        <ele>661.8</ele>
        <time>2021-07-29T10:01:20Z</time>
      </trkpt>
      <trkpt lat="47.15454" lon="6.59803">
        <ele>661.2</ele>
        <time>2021-07-29T10:01:21Z</time>
      </trkpt>
      <trkpt lat="47.15452" lon="6.59816">
        <ele>660.6</ele>
        <time>2021-07-29T10:01:22Z</time>
      </trkpt>
      <trkpt lat="47.1545" lon="6.5983">
        <ele>659.6</ele>
        <time>2021-07-29T10:01:23Z</time>
      </trkpt>
      <trkpt lat="47.15446" lon="6.59843">
        <ele>659</ele>
        <time>2021-07-29T10:01:24Z</time>
      </trkpt>
      <trkpt lat="47.15441" lon="6.59855">
        <ele>658.4</ele>
        <time>2021-07-29T10:01:25Z</time>
      </trkpt>
      <trkpt lat="47.15435" lon="6.59867">
        <ele>657.8</ele>
        <time>2021-07-29T10:01:26Z</time>
      </trkpt>
      <trkpt lat="47.1543" lon="6.59879">
        <ele>657</ele>
        <time>2021-07-29T10:01:27Z</time>
      </trkpt>
      <trkpt lat="47.15423" lon="6.5989">
        <ele>656.4</ele>
        <time>2021-07-29T10:01:28Z</time>
      </trkpt>
      <trkpt lat="47.15416" lon="6.59901">
        <ele>656</ele>
        <time>2021-07-29T10:01:29Z</time>
      </trkpt>
      <trkpt lat="47.1541" lon="6.59912">
        <ele>655.4</ele>
        <time>2021-07-29T10:01:30Z</time>
      </trkpt>
      <trkpt lat="47.15402" lon="6.59923">
        <ele>654.8</ele>
        <time>2021-07-29T10:01:31Z</time>
      </trkpt>
      <trkpt lat="47.15396" lon="6.59933">
        <ele>653.8</ele>
        <time>2021-07-29T10:01:32Z</time>
      </trkpt>
      <trkpt lat="47.15388" lon="6.59943">
        <ele>653.6</ele>
        <time>2021-07-29T10:01:33Z</time>
      </trkpt>
      <trkpt lat="47.1538" lon="6.59952">
        <ele>652.8</ele>
        <time>2021-07-29T10:01:34Z</time>
      </trkpt>
      <trkpt lat="47.1537" lon="6.59957">
        <ele>652</ele>
        <time>2021-07-29T10:01:35Z</time>
      </trkpt>
      <trkpt lat="47.15361" lon="6.59961">
        <ele>651.6</ele>
        <time>2021-07-29T10:01:36Z</time>
      </trkpt>
      <trkpt lat="47.15352" lon="6.59965">
        <ele>651.2</ele>
        <time>2021-07-29T10:01:37Z</time>
      </trkpt>
      <trkpt lat="47.15344" lon="6.59971">
        <ele>650.8</ele>
        <time>2021-07-29T10:01:38Z</time>
      </trkpt>
      <trkpt lat="47.15337" lon="6.59981">
        <ele>650</ele>
        <time>2021-07-29T10:01:39Z</time>
      </trkpt>
      <trkpt lat="47.15334" lon="6.59992">
        <ele>649.4</ele>
        <time>2021-07-29T10:01:40Z</time>
      </trkpt>
      <trkpt lat="47.15333" lon="6.60004">
        <ele>649</ele>
        <time>2021-07-29T10:01:41Z</time>
      </trkpt>
      <trkpt lat="47.15335" lon="6.60015">
        <ele>648.6</ele>
        <time>2021-07-29T10:01:42Z</time>
      </trkpt>
      <trkpt lat="47.15339" lon="6.60024">
        <ele>648</ele>
        <time>2021-07-29T10:01:43Z</time>
      </trkpt>
      <trkpt lat="47.15345" lon="6.6003">
        <ele>647.4</ele>
        <time>2021-07-29T10:01:44Z</time>
      </trkpt>
      <trkpt lat="47.15352" lon="6.60034">
        <ele>646.8</ele>
        <time>2021-07-29T10:01:45Z</time>
      </trkpt>
      <trkpt lat="47.1536" lon="6.60037">
        <ele>646.4</ele>
        <time>2021-07-29T10:01:46Z</time>
      </trkpt>
      <trkpt lat="47.15368" lon="6.60039">
        <ele>646</ele>
        <time>2021-07-29T10:01:47Z</time>
      </trkpt>
      <trkpt lat="47.15377" lon="6.60044">
        <ele>645.4</ele>
        <time>2021-07-29T10:01:48Z</time>
      </trkpt>
      <trkpt lat="47.15385" lon="6.60047">
        <ele>644.8</ele>
        <time>2021-07-29T10:01:49Z</time>
      </trkpt>
      <trkpt lat="47.15392" lon="6.6005">
        <ele>644.2</ele>
        <time>2021-07-29T10:01:50Z</time>
      </trkpt>
      <trkpt lat="47.15399" lon="6.60053">
        <ele>643.6</ele>
        <time>2021-07-29T10:01:51Z</time>
      </trkpt>
      <trkpt lat="47.15405" lon="6.60057">
        <ele>643</ele>
        <time>2021-07-29T10:01:52Z</time>
      </trkpt>
      <trkpt lat="47.1541" lon="6.6006">
        <ele>642.6</ele>
        <time>2021-07-29T10:01:53Z</time>
      </trkpt>
      <trkpt lat="47.15415" lon="6.60062">
        <ele>642</ele>
        <time>2021-07-29T10:01:54Z</time>
      </trkpt>
      <trkpt lat="47.15417" lon="6.60065">
        <ele>641.8</ele>
        <time>2021-07-29T10:01:55Z</time>
      </trkpt>
      <trkpt lat="47.1542" lon="6.60066">
        <ele>641.6</ele>
        <time>2021-07-29T10:01:56Z</time>
      </trkpt>
      <trkpt lat="47.15423" lon="6.60068">
        <ele>641.4</ele>
        <time>2021-07-29T10:01:57Z</time>
      </trkpt>
      <trkpt lat="47.15424" lon="6.6007">
        <ele>641.2</ele>
        <time>2021-07-29T10:01:58Z</time>
      </trkpt>
      <trkpt lat="47.15426" lon="6.6007">
        <ele>641</ele>
        <time>2021-07-29T10:01:59Z</time>
      </trkpt>
      <trkpt lat="47.15427" lon="6.60071">
        <ele>641</ele>
        <time>2021-07-29T10:02:00Z</time>
      </trkpt>
      <trkpt lat="47.15427" lon="6.60071">
        <ele>641</ele>
        <time>2021-07-29T10:02:01Z</time>
      </trkpt>
      <trkpt lat="47.15428" lon="6.60071">
        <ele>641</ele>
        <time>2021-07-29T10:02:02Z</time>
      </trkpt>
      <trkpt lat="47.15429" lon="6.60071">
        <ele>640.8</ele>
        <time>2021-07-29T10:02:03Z</time>
      </trkpt>
      <trkpt lat="47.1543" lon="6.60072">
        <ele>640.6</ele>
        <time>2021-07-29T10:02:04Z</time>
      </trkpt>
      <trkpt lat="47.15432" lon="6.60072">
        <ele>640.6</ele>
        <time>2021-07-29T10:02:05Z</time>
      </trkpt>
      <trkpt lat="47.15435" lon="6.60073">
        <ele>640.4</ele>
        <time>2021-07-29T10:02:06Z</time>
      </trkpt>
      <trkpt lat="47.15439" lon="6.60076">
        <ele>640.4</ele>
        <time>2021-07-29T10:02:07Z</time>
      </trkpt>
      <trkpt lat="47.15443" lon="6.60078">
        <ele>640.2</ele>
        <time>2021-07-29T10:02:08Z</time>
      </trkpt>
      <trkpt lat="47.15447" lon="6.60079">
        <ele>640</ele>
        <time>2021-07-29T10:02:09Z</time>
      </trkpt>
      <trkpt lat="47.15451" lon="6.60082">
        <ele>639.8</ele>
        <time>2021-07-29T10:02:10Z</time>
      </trkpt>
      <trkpt lat="47.15456" lon="6.60084">
        <ele>639.6</ele>
        <time>2021-07-29T10:02:11Z</time>
      </trkpt>
      <trkpt lat="47.15462" lon="6.60088">
        <ele>639.4</ele>
        <time>2021-07-29T10:02:12Z</time>
      </trkpt>
      <trkpt lat="47.15467" lon="6.60093">
        <ele>639.2</ele>
        <time>2021-07-29T10:02:13Z</time>
      </trkpt>
      <trkpt lat="47.15472" lon="6.60095">
        <ele>639</ele>
        <time>2021-07-29T10:02:14Z</time>
      </trkpt>
      <trkpt lat="47.15478" lon="6.60098">
        <ele>638.6</ele>
        <time>2021-07-29T10:02:15Z</time>
      </trkpt>
      <trkpt lat="47.15484" lon="6.60101">
        <ele>638.2</ele>
        <time>2021-07-29T10:02:16Z</time>
      </trkpt>
      <trkpt lat="47.1549" lon="6.60105">
        <ele>637.8</ele>
        <time>2021-07-29T10:02:17Z</time>
      </trkpt>
      <trkpt lat="47.15497" lon="6.60112">
        <ele>637.6</ele>
        <time>2021-07-29T10:02:18Z</time>
      </trkpt>
      <trkpt lat="47.15504" lon="6.60117">
        <ele>637</ele>
        <time>2021-07-29T10:02:19Z</time>
      </trkpt>
      <trkpt lat="47.15512" lon="6.60121">
        <ele>636.6</ele>
        <time>2021-07-29T10:02:20Z</time>
      </trkpt>
      <trkpt lat="47.15518" lon="6.60126">
        <ele>636.2</ele>
        <time>2021-07-29T10:02:21Z</time>
      </trkpt>
      <trkpt lat="47.15526" lon="6.60132">
        <ele>635.8</ele>
        <time>2021-07-29T10:02:22Z</time>
      </trkpt>
      <trkpt lat="47.15534" lon="6.60137">
        <ele>635.2</ele>
        <time>2021-07-29T10:02:23Z</time>
      </trkpt>
      <trkpt lat="47.15542" lon="6.60143">
        <ele>634.8</ele>
        <time>2021-07-29T10:02:24Z</time>
      </trkpt>
      <trkpt lat="47.15551" lon="6.6015">
        <ele>634.2</ele>
        <time>2021-07-29T10:02:25Z</time>
      </trkpt>
      <trkpt lat="47.15559" lon="6.60156">
        <ele>633.6</ele>
        <time>2021-07-29T10:02:26Z</time>
      </trkpt>
      <trkpt lat="47.15568" lon="6.60162">
        <ele>633.2</ele>
        <time>2021-07-29T10:02:27Z</time>
      </trkpt>
      <trkpt lat="47.15576" lon="6.60169">
        <ele>632.8</ele>
        <time>2021-07-29T10:02:28Z</time>
      </trkpt>
      <trkpt lat="47.15584" lon="6.60176">
        <ele>632.4</ele>
        <time>2021-07-29T10:02:29Z</time>
      </trkpt>
      <trkpt lat="47.15593" lon="6.60183">
        <ele>631.6</ele>
        <time>2021-07-29T10:02:30Z</time>
      </trkpt>
      <trkpt lat="47.15601" lon="6.6019">
        <ele>631</ele>
        <time>2021-07-29T10:02:31Z</time>
      </trkpt>
      <trkpt lat="47.1561" lon="6.60197">
        <ele>630.6</ele>
        <time>2021-07-29T10:02:32Z</time>
      </trkpt>
      <trkpt lat="47.15619" lon="6.60202">
        <ele>630</ele>
        <time>2021-07-29T10:02:33Z</time>
      </trkpt>
      <trkpt lat="47.15627" lon="6.60207">
        <ele>629.4</ele>
        <time>2021-07-29T10:02:34Z</time>
      </trkpt>
      <trkpt lat="47.15635" lon="6.60212">
        <ele>628.8</ele>
        <time>2021-07-29T10:02:35Z</time>
      </trkpt>
      <trkpt lat="47.15644" lon="6.60218">
        <ele>628</ele>
        <time>2021-07-29T10:02:36Z</time>
      </trkpt>
      <trkpt lat="47.15653" lon="6.60221">
        <ele>627.4</ele>
        <time>2021-07-29T10:02:37Z</time>
      </trkpt>
      <trkpt lat="47.15662" lon="6.60225">
        <ele>626.6</ele>
        <time>2021-07-29T10:02:38Z</time>
      </trkpt>
      <trkpt lat="47.15671" lon="6.6023">
        <ele>626.2</ele>
        <time>2021-07-29T10:02:39Z</time>
      </trkpt>
      <trkpt lat="47.15681" lon="6.60234">
        <ele>625.6</ele>
        <time>2021-07-29T10:02:40Z</time>
      </trkpt>
      <trkpt lat="47.15691" lon="6.6024">
        <ele>624.8</ele>
        <time>2021-07-29T10:02:41Z</time>
      </trkpt>
      <trkpt lat="47.157" lon="6.60246">
        <ele>624.2</ele>
        <time>2021-07-29T10:02:42Z</time>
      </trkpt>
      <trkpt lat="47.1571" lon="6.60253">
        <ele>623.6</ele>
        <time>2021-07-29T10:02:43Z</time>
      </trkpt>
      <trkpt lat="47.1572" lon="6.60261">
        <ele>623</ele>
        <time>2021-07-29T10:02:44Z</time>
      </trkpt>
      <trkpt lat="47.15729" lon="6.60268">
        <ele>622.4</ele>
        <time>2021-07-29T10:02:45Z</time>
      </trkpt>
      <trkpt lat="47.15738" lon="6.60276">
        <ele>621.6</ele>
        <time>2021-07-29T10:02:46Z</time>
      </trkpt>
      <trkpt lat="47.15746" lon="6.60283">
        <ele>621</ele>
        <time>2021-07-29T10:02:47Z</time>
      </trkpt>
      <trkpt lat="47.15753" lon="6.60289">
        <ele>620.4</ele>
        <time>2021-07-29T10:02:48Z</time>
      </trkpt>
      <trkpt lat="47.15761" lon="6.60294">
        <ele>620</ele>
        <time>2021-07-29T10:02:49Z</time>
      </trkpt>
      <trkpt lat="47.15768" lon="6.60297">
        <ele>619.6</ele>
        <time>2021-07-29T10:02:50Z</time>
      </trkpt>
      <trkpt lat="47.15774" lon="6.603">
        <ele>619.2</ele>
        <time>2021-07-29T10:02:51Z</time>
      </trkpt>
      <trkpt lat="47.15781" lon="6.60301">
        <ele>618.6</ele>
        <time>2021-07-29T10:02:52Z</time>
      </trkpt>
      <trkpt lat="47.15787" lon="6.60303">
        <ele>618.2</ele>
        <time>2021-07-29T10:02:53Z</time>
      </trkpt>
      <trkpt lat="47.15792" lon="6.60304">
        <ele>617.8</ele>
        <time>2021-07-29T10:02:54Z</time>
      </trkpt>
      <trkpt lat="47.15795" lon="6.60307">
        <ele>617.4</ele>
        <time>2021-07-29T10:02:55Z</time>
      </trkpt>
      <trkpt lat="47.15796" lon="6.6031">
        <ele>617.2</ele>
        <time>2021-07-29T10:02:56Z</time>
      </trkpt>
      <trkpt lat="47.15796" lon="6.60313">
        <ele>616.8</ele>
        <time>2021-07-29T10:02:57Z</time>
      </trkpt>
      <trkpt lat="47.15796" lon="6.60315">
        <ele>616.6</ele>
        <time>2021-07-29T10:02:58Z</time>
      </trkpt>
      <trkpt lat="47.15796" lon="6.60317">
        <ele>616.4</ele>
        <time>2021-07-29T10:02:59Z</time>
      </trkpt>
      <trkpt lat="47.15795" lon="6.60319">
        <ele>616.2</ele>
        <time>2021-07-29T10:03:00Z</time>
      </trkpt>
      <trkpt lat="47.15793" lon="6.6032">
        <ele>615.8</ele>
        <time>2021-07-29T10:03:01Z</time>
      </trkpt>
      <trkpt lat="47.15791" lon="6.60318">
        <ele>615.8</ele>
        <time>2021-07-29T10:03:02Z</time>
      </trkpt>
      <trkpt lat="47.15789" lon="6.60317">
        <ele>615.6</ele>
        <time>2021-07-29T10:03:03Z</time>
      </trkpt>
      <trkpt lat="47.15787" lon="6.60316">
        <ele>615.4</ele>
        <time>2021-07-29T10:03:04Z</time>
      </trkpt>
      <trkpt lat="47.15786" lon="6.60315">
        <ele>615.2</ele>
        <time>2021-07-29T10:03:05Z</time>
      </trkpt>
      <trkpt lat="47.15784" lon="6.60315">
        <ele>615.2</ele>
        <time>2021-07-29T10:03:06Z</time>
      </trkpt>
      <trkpt lat="47.15783" lon="6.60313">
        <ele>615</ele>
        <time>2021-07-29T10:03:07Z</time>
      </trkpt>
      <trkpt lat="47.15781" lon="6.60312">
        <ele>615</ele>
        <time>2021-07-29T10:03:08Z</time>
      </trkpt>
      <trkpt lat="47.15779" lon="6.60311">
        <ele>615</ele>
        <time>2021-07-29T10:03:09Z</time>
      </trkpt>
      <trkpt lat="47.15776" lon="6.60309">
        <ele>614.8</ele>
        <time>2021-07-29T10:03:10Z</time>
      </trkpt>
      <trkpt lat="47.15773" lon="6.60307">
        <ele>614.6</ele>
        <time>2021-07-29T10:03:11Z</time>
      </trkpt>
      <trkpt lat="47.1577" lon="6.60305">
        <ele>614.4</ele>
        <time>2021-07-29T10:03:12Z</time>
      </trkpt>
      <trkpt lat="47.15767" lon="6.60304">
        <ele>614.2</ele>
        <time>2021-07-29T10:03:13Z</time>
      </trkpt>
      <trkpt lat="47.15764" lon="6.60302">
        <ele>614</ele>
        <time>2021-07-29T10:03:14Z</time>
      </trkpt>
      <trkpt lat="47.15761" lon="6.603">
        <ele>613.6</ele>
        <time>2021-07-29T10:03:15Z</time>
      </trkpt>
      <trkpt lat="47.15757" lon="6.60297">
        <ele>613.2</ele>
        <time>2021-07-29T10:03:16Z</time>
      </trkpt>
      <trkpt lat="47.15753" lon="6.60291">
        <ele>612.8</ele>
        <time>2021-07-29T10:03:17Z</time>
      </trkpt>
      <trkpt lat="47.15748" lon="6.60288">
        <ele>612.4</ele>
        <time>2021-07-29T10:03:18Z</time>
      </trkpt>
      <trkpt lat="47.15743" lon="6.60283">
        <ele>612</ele>
        <time>2021-07-29T10:03:19Z</time>
      </trkpt>
      <trkpt lat="47.15737" lon="6.6028">
        <ele>611.6</ele>
        <time>2021-07-29T10:03:20Z</time>
      </trkpt>
      <trkpt lat="47.15731" lon="6.60277">
        <ele>611.2</ele>
        <time>2021-07-29T10:03:21Z</time>
      </trkpt>
      <trkpt lat="47.15725" lon="6.60274">
        <ele>611</ele>
        <time>2021-07-29T10:03:22Z</time>
      </trkpt>
      <trkpt lat="47.1572" lon="6.60272">
        <ele>610.4</ele>
        <time>2021-07-29T10:03:23Z</time>
      </trkpt>
      <trkpt lat="47.15713" lon="6.60269">
        <ele>610</ele>
        <time>2021-07-29T10:03:24Z</time>
      </trkpt>
      <trkpt lat="47.15707" lon="6.60264">
        <ele>609.4</ele>
        <time>2021-07-29T10:03:25Z</time>
      </trkpt>
      <trkpt lat="47.15701" lon="6.6026">
        <ele>608.8</ele>
        <time>2021-07-29T10:03:26Z</time>
      </trkpt>
      <trkpt lat="47.15694" lon="6.60257">
        <ele>608</ele>
        <time>2021-07-29T10:03:27Z</time>
      </trkpt>
      <trkpt lat="47.15686" lon="6.60255">
        <ele>607.4</ele>
        <time>2021-07-29T10:03:28Z</time>
      </trkpt>
      <trkpt lat="47.15677" lon="6.60254">
        <ele>606.8</ele>
        <time>2021-07-29T10:03:29Z</time>
      </trkpt>
      <trkpt lat="47.1567" lon="6.60253">
        <ele>606.2</ele>
        <time>2021-07-29T10:03:30Z</time>
      </trkpt>
      <trkpt lat="47.15664" lon="6.60249">
        <ele>605.8</ele>
        <time>2021-07-29T10:03:31Z</time>
      </trkpt>
      <trkpt lat="47.15656" lon="6.60247">
        <ele>605.2</ele>
        <time>2021-07-29T10:03:32Z</time>
      </trkpt>
      <trkpt lat="47.1565" lon="6.60242">
        <ele>604.6</ele>
        <time>2021-07-29T10:03:33Z</time>
      </trkpt>
      <trkpt lat="47.15644" lon="6.60237">
        <ele>603.8</ele>
        <time>2021-07-29T10:03:34Z</time>
      </trkpt>
      <trkpt lat="47.15637" lon="6.60234">
        <ele>603.2</ele>
        <time>2021-07-29T10:03:35Z</time>
      </trkpt>
      <trkpt lat="47.15629" lon="6.60231">
        <ele>602.8</ele>
        <time>2021-07-29T10:03:36Z</time>
      </trkpt>
      <trkpt lat="47.15622" lon="6.60227">
        <ele>602.4</ele>
        <time>2021-07-29T10:03:37Z</time>
      </trkpt>
      <trkpt lat="47.15615" lon="6.60221">
        <ele>601.8</ele>
        <time>2021-07-29T10:03:38Z</time>
      </trkpt>
      <trkpt lat="47.15608" lon="6.60217">
        <ele>601.2</ele>
        <time>2021-07-29T10:03:39Z</time>
      </trkpt>
      <trkpt lat="47.15601" lon="6.60212">
        <ele>600.6</ele>
        <time>2021-07-29T10:03:40Z</time>
      </trkpt>
      <trkpt lat="47.15593" lon="6.60207">
        <ele>600.2</ele>
        <time>2021-07-29T10:03:41Z</time>
      </trkpt>
      <trkpt lat="47.15585" lon="6.60203">
        <ele>599.6</ele>
        <time>2021-07-29T10:03:42Z</time>
      </trkpt>
      <trkpt lat="47.15578" lon="6.60199">
        <ele>599.4</ele>
        <time>2021-07-29T10:03:43Z</time>
      </trkpt>
      <trkpt lat="47.15571" lon="6.60196">
        <ele>598.8</ele>
        <time>2021-07-29T10:03:44Z</time>
      </trkpt>
      <trkpt lat="47.15565" lon="6.60194">
        <ele>598.8</ele>
        <time>2021-07-29T10:03:45Z</time>
      </trkpt>
      <trkpt lat="47.15558" lon="6.60193">
        <ele>598.6</ele>
        <time>2021-07-29T10:03:46Z</time>
      </trkpt>
      <trkpt lat="47.15551" lon="6.60192">
        <ele>598.2</ele>
        <time>2021-07-29T10:03:47Z</time>
      </trkpt>
      <trkpt lat="47.15545" lon="6.60189">
        <ele>597.8</ele>
        <time>2021-07-29T10:03:48Z</time>
      </trkpt>
      <trkpt lat="47.15538" lon="6.60187">
        <ele>597.6</ele>
        <time>2021-07-29T10:03:49Z</time>
      </trkpt>
      <trkpt lat="47.15532" lon="6.60185">
        <ele>597</ele>
        <time>2021-07-29T10:03:50Z</time>
      </trkpt>
      <trkpt lat="47.15527" lon="6.60182">
        <ele>596.6</ele>
        <time>2021-07-29T10:03:51Z</time>
      </trkpt>
      <trkpt lat="47.15522" lon="6.60177">
        <ele>596</ele>
        <time>2021-07-29T10:03:52Z</time>
      </trkpt>
      <trkpt lat="47.15516" lon="6.60173">
        <ele>595.8</ele>
        <time>2021-07-29T10:03:53Z</time>
      </trkpt>
      <trkpt lat="47.1551" lon="6.60169">
        <ele>595</ele>
        <time>2021-07-29T10:03:54Z</time>
      </trkpt>
      <trkpt lat="47.15504" lon="6.60163">
        <ele>594.6</ele>
        <time>2021-07-29T10:03:55Z</time>
      </trkpt>
      <trkpt lat="47.15499" lon="6.60157">
        <ele>594.2</ele>
        <time>2021-07-29T10:03:56Z</time>
      </trkpt>
      <trkpt lat="47.15493" lon="6.60151">
        <ele>593.8</ele>
        <time>2021-07-29T10:03:57Z</time>
      </trkpt>
      <trkpt lat="47.15487" lon="6.60145">
        <ele>593.4</ele>
        <time>2021-07-29T10:03:58Z</time>
      </trkpt>
      <trkpt lat="47.15481" lon="6.60141">
        <ele>593</ele>
        <time>2021-07-29T10:03:59Z</time>
      </trkpt>
      <trkpt lat="47.15475" lon="6.60137">
        <ele>592.8</ele>
        <time>2021-07-29T10:04:00Z</time>
      </trkpt>
      <trkpt lat="47.15468" lon="6.60134">
        <ele>592.2</ele>
        <time>2021-07-29T10:04:01Z</time>
      </trkpt>
      <trkpt lat="47.15462" lon="6.60131">
        <ele>592</ele>
        <time>2021-07-29T10:04:02Z</time>
      </trkpt>
      <trkpt lat="47.15456" lon="6.60129">
        <ele>591.6</ele>
        <time>2021-07-29T10:04:03Z</time>
      </trkpt>
      <trkpt lat="47.15449" lon="6.60129">
        <ele>591.4</ele>
        <time>2021-07-29T10:04:04Z</time>
      </trkpt>
      <trkpt lat="47.15442" lon="6.60132">
        <ele>591</ele>
        <time>2021-07-29T10:04:05Z</time>
      </trkpt>
      <trkpt lat="47.15436" lon="6.60135">
        <ele>590.8</ele>
        <time>2021-07-29T10:04:06Z</time>
      </trkpt>
      <trkpt lat="47.15432" lon="6.60139">
        <ele>590.8</ele>
        <time>2021-07-29T10:04:07Z</time>
      </trkpt>
      <trkpt lat="47.15428" lon="6.60144">
        <ele>590.6</ele>
        <time>2021-07-29T10:04:08Z</time>
      </trkpt>
      <trkpt lat="47.15424" lon="6.6015">
        <ele>590.2</ele>
        <time>2021-07-29T10:04:09Z</time>
      </trkpt>
      <trkpt lat="47.1542" lon="6.60156">
        <ele>589.4</ele>
        <time>2021-07-29T10:04:10Z</time>
      </trkpt>
      <trkpt lat="47.15417" lon="6.60161">
        <ele>588.8</ele>
        <time>2021-07-29T10:04:11Z</time>
      </trkpt>
      <trkpt lat="47.15414" lon="6.60166">
        <ele>588.6</ele>
        <time>2021-07-29T10:04:12Z</time>
      </trkpt>
      <trkpt lat="47.15412" lon="6.60171">
        <ele>588.2</ele>
        <time>2021-07-29T10:04:13Z</time>
      </trkpt>
      <trkpt lat="47.15411" lon="6.60175">
        <ele>587.8</ele>
        <time>2021-07-29T10:04:14Z</time>
      </trkpt>
      <trkpt lat="47.1541" lon="6.60178">
        <ele>587.6</ele>
        <time>2021-07-29T10:04:15Z</time>
      </trkpt>
      <trkpt lat="47.15409" lon="6.60184">
        <ele>587.6</ele>
        <time>2021-07-29T10:04:16Z</time>
      </trkpt>
      <trkpt lat="47.15409" lon="6.6019">
        <ele>587.4</ele>
        <time>2021-07-29T10:04:17Z</time>
      </trkpt>
      <trkpt lat="47.15409" lon="6.60196">
        <ele>587.4</ele>
        <time>2021-07-29T10:04:18Z</time>
      </trkpt>
      <trkpt lat="47.15409" lon="6.60201">
        <ele>587.4</ele>
        <time>2021-07-29T10:04:19Z</time>
      </trkpt>
      <trkpt lat="47.15409" lon="6.60207">
        <ele>587.4</ele>
        <time>2021-07-29T10:04:20Z</time>
      </trkpt>
      <trkpt lat="47.15409" lon="6.60212">
        <ele>587.4</ele>
        <time>2021-07-29T10:04:21Z</time>
      </trkpt>
      <trkpt lat="47.15408" lon="6.60218">
        <ele>587.4</ele>
        <time>2021-07-29T10:04:22Z</time>
      </trkpt>
      <trkpt lat="47.15408" lon="6.60223">
        <ele>587.6</ele>
        <time>2021-07-29T10:04:23Z</time>
      </trkpt>
      <trkpt lat="47.15408" lon="6.60229">
        <ele>585.4</ele>
        <time>2021-07-29T10:06:27Z</time>
      </trkpt>
      <trkpt lat="47.15408" lon="6.60234">
        <ele>585</ele>
        <time>2021-07-29T10:06:28Z</time>
      </trkpt>
      <trkpt lat="47.15413" lon="6.60241">
        <ele>584</ele>
        <time>2021-07-29T10:06:29Z</time>
      </trkpt>
      <trkpt lat="47.15418" lon="6.6025">
        <ele>583.2</ele>
        <time>2021-07-29T10:06:30Z</time>
      </trkpt>
      <trkpt lat="47.15423" lon="6.6026">
        <ele>582</ele>
        <time>2021-07-29T10:06:31Z</time>
      </trkpt>
      <trkpt lat="47.15427" lon="6.60272">
        <ele>580.8</ele>
        <time>2021-07-29T10:06:32Z</time>
      </trkpt>
      <trkpt lat="47.15432" lon="6.60284">
        <ele>579.6</ele>
        <time>2021-07-29T10:06:33Z</time>
      </trkpt>
      <trkpt lat="47.15437" lon="6.60297">
        <ele>578.6</ele>
        <time>2021-07-29T10:06:34Z</time>
      </trkpt>
      <trkpt lat="47.15444" lon="6.60308">
        <ele>577.6</ele>
        <time>2021-07-29T10:06:35Z</time>
      </trkpt>
      <trkpt lat="47.15451" lon="6.60318">
        <ele>576.6</ele>
        <time>2021-07-29T10:06:36Z</time>
      </trkpt>
      <trkpt lat="47.15458" lon="6.60328">
        <ele>575.8</ele>
        <time>2021-07-29T10:06:37Z</time>
      </trkpt>
      <trkpt lat="47.15466" lon="6.60338">
        <ele>574.8</ele>
        <time>2021-07-29T10:06:38Z</time>
      </trkpt>
      <trkpt lat="47.15474" lon="6.60348">
        <ele>573.8</ele>
        <time>2021-07-29T10:06:39Z</time>
      </trkpt>
      <trkpt lat="47.15481" lon="6.60358">
        <ele>572.2</ele>
        <time>2021-07-29T10:06:40Z</time>
      </trkpt>
      <trkpt lat="47.15488" lon="6.60369">
        <ele>571.2</ele>
        <time>2021-07-29T10:06:41Z</time>
      </trkpt>
      <trkpt lat="47.15495" lon="6.6038">
        <ele>570.2</ele>
        <time>2021-07-29T10:06:42Z</time>
      </trkpt>
      <trkpt lat="47.15501" lon="6.6039">
        <ele>568.8</ele>
        <time>2021-07-29T10:06:43Z</time>
      </trkpt>
      <trkpt lat="47.15508" lon="6.60401">
        <ele>567.4</ele>
        <time>2021-07-29T10:06:44Z</time>
      </trkpt>
      <trkpt lat="47.15514" lon="6.60412">
        <ele>566</ele>
        <time>2021-07-29T10:06:45Z</time>
      </trkpt>
      <trkpt lat="47.15522" lon="6.60422">
        <ele>564.6</ele>
        <time>2021-07-29T10:06:46Z</time>
      </trkpt>
      <trkpt lat="47.15527" lon="6.60432">
        <ele>563.6</ele>
        <time>2021-07-29T10:06:47Z</time>
      </trkpt>
      <trkpt lat="47.15534" lon="6.60441">
        <ele>562.6</ele>
        <time>2021-07-29T10:06:48Z</time>
      </trkpt>
      <trkpt lat="47.15542" lon="6.60448">
        <ele>561.4</ele>
        <time>2021-07-29T10:06:49Z</time>
      </trkpt>
      <trkpt lat="47.15549" lon="6.60455">
        <ele>560.8</ele>
        <time>2021-07-29T10:06:50Z</time>
      </trkpt>
      <trkpt lat="47.15554" lon="6.60462">
        <ele>560</ele>
        <time>2021-07-29T10:06:51Z</time>
      </trkpt>
      <trkpt lat="47.15559" lon="6.60467">
        <ele>559.2</ele>
        <time>2021-07-29T10:06:52Z</time>
      </trkpt>
      <trkpt lat="47.15564" lon="6.60473">
        <ele>558.4</ele>
        <time>2021-07-29T10:06:53Z</time>
      </trkpt>
      <trkpt lat="47.15569" lon="6.60478">
        <ele>557.6</ele>
        <time>2021-07-29T10:06:54Z</time>
      </trkpt>
      <trkpt lat="47.15573" lon="6.60482">
        <ele>557</ele>
        <time>2021-07-29T10:06:55Z</time>
      </trkpt>
      <trkpt lat="47.15577" lon="6.60483">
        <ele>556.6</ele>
        <time>2021-07-29T10:06:56Z</time>
      </trkpt>
      <trkpt lat="47.15581" lon="6.60482">
        <ele>556.2</ele>
        <time>2021-07-29T10:06:57Z</time>
      </trkpt>
      <trkpt lat="47.15584" lon="6.60478">
        <ele>555.6</ele>
        <time>2021-07-29T10:06:58Z</time>
      </trkpt>
      <trkpt lat="47.15586" lon="6.60474">
        <ele>555.2</ele>
        <time>2021-07-29T10:06:59Z</time>
      </trkpt>
      <trkpt lat="47.15587" lon="6.6047">
        <ele>554.6</ele>
        <time>2021-07-29T10:07:00Z</time>
      </trkpt>
      <trkpt lat="47.15586" lon="6.60467">
        <ele>554.4</ele>
        <time>2021-07-29T10:07:01Z</time>
      </trkpt>
      <trkpt lat="47.15584" lon="6.60466">
        <ele>554</ele>
        <time>2021-07-29T10:07:02Z</time>
      </trkpt>
      <trkpt lat="47.15582" lon="6.60463">
        <ele>553.6</ele>
        <time>2021-07-29T10:07:03Z</time>
      </trkpt>
      <trkpt lat="47.15579" lon="6.60459">
        <ele>553.2</ele>
        <time>2021-07-29T10:07:04Z</time>
      </trkpt>
      <trkpt lat="47.15575" lon="6.60455">
        <ele>553</ele>
        <time>2021-07-29T10:07:05Z</time>
      </trkpt>
      <trkpt lat="47.15572" lon="6.60451">
        <ele>552.6</ele>
        <time>2021-07-29T10:07:06Z</time>
      </trkpt>
      <trkpt lat="47.15568" lon="6.60446">
        <ele>552.2</ele>
        <time>2021-07-29T10:07:07Z</time>
      </trkpt>
      <trkpt lat="47.15565" lon="6.60441">
        <ele>551.8</ele>
        <time>2021-07-29T10:07:08Z</time>
      </trkpt>
      <trkpt lat="47.15561" lon="6.60436">
        <ele>551.2</ele>
        <time>2021-07-29T10:07:09Z</time>
      </trkpt>
      <trkpt lat="47.15557" lon="6.60432">
        <ele>550.8</ele>
        <time>2021-07-29T10:07:10Z</time>
      </trkpt>
      <trkpt lat="47.15554" lon="6.60428">
        <ele>550.2</ele>
        <time>2021-07-29T10:07:11Z</time>
      </trkpt>
      <trkpt lat="47.1555" lon="6.60423">
        <ele>549.6</ele>
        <time>2021-07-29T10:07:12Z</time>
      </trkpt>
      <trkpt lat="47.15546" lon="6.60416">
        <ele>549.2</ele>
        <time>2021-07-29T10:07:13Z</time>
      </trkpt>
      <trkpt lat="47.15543" lon="6.60408">
        <ele>548.6</ele>
        <time>2021-07-29T10:07:14Z</time>
      </trkpt>
      <trkpt lat="47.15541" lon="6.604">
        <ele>548.2</ele>
        <time>2021-07-29T10:07:15Z</time>
      </trkpt>
      <trkpt lat="47.15541" lon="6.60393">
        <ele>547.8</ele>
        <time>2021-07-29T10:07:16Z</time>
      </trkpt>
      <trkpt lat="47.15539" lon="6.60386">
        <ele>547.4</ele>
        <time>2021-07-29T10:07:17Z</time>
      </trkpt>
      <trkpt lat="47.1554" lon="6.60378">
        <ele>546.8</ele>
        <time>2021-07-29T10:07:18Z</time>
      </trkpt>
      <trkpt lat="47.15539" lon="6.60368">
        <ele>546.2</ele>
        <time>2021-07-29T10:07:19Z</time>
      </trkpt>
      <trkpt lat="47.15541" lon="6.6036">
        <ele>545.6</ele>
        <time>2021-07-29T10:07:20Z</time>
      </trkpt>
      <trkpt lat="47.15545" lon="6.60352">
        <ele>545</ele>
        <time>2021-07-29T10:07:21Z</time>
      </trkpt>
      <trkpt lat="47.1555" lon="6.60347">
        <ele>544.6</ele>
        <time>2021-07-29T10:07:22Z</time>
      </trkpt>
      <trkpt lat="47.15556" lon="6.60345">
        <ele>544</ele>
        <time>2021-07-29T10:07:23Z</time>
      </trkpt>
      <trkpt lat="47.15561" lon="6.60343">
        <ele>543.2</ele>
        <time>2021-07-29T10:07:24Z</time>
      </trkpt>
      <trkpt lat="47.15566" lon="6.60345">
        <ele>542.4</ele>
        <time>2021-07-29T10:07:25Z</time>
      </trkpt>
      <trkpt lat="47.1557" lon="6.60344">
        <ele>541.8</ele>
        <time>2021-07-29T10:07:26Z</time>
      </trkpt>
      <trkpt lat="47.15574" lon="6.60346">
        <ele>541</ele>
        <time>2021-07-29T10:07:27Z</time>
      </trkpt>
      <trkpt lat="47.15579" lon="6.60349">
        <ele>540.2</ele>
        <time>2021-07-29T10:07:28Z</time>
      </trkpt>
      <trkpt lat="47.15586" lon="6.60355">
        <ele>539.6</ele>
        <time>2021-07-29T10:07:29Z</time>
      </trkpt>
      <trkpt lat="47.1559" lon="6.60356">
        <ele>539.2</ele>
        <time>2021-07-29T10:07:30Z</time>
      </trkpt>
      <trkpt lat="47.15594" lon="6.60359">
        <ele>538.2</ele>
        <time>2021-07-29T10:07:31Z</time>
      </trkpt>
      <trkpt lat="47.156" lon="6.60363">
        <ele>537.4</ele>
        <time>2021-07-29T10:07:32Z</time>
      </trkpt>
      <trkpt lat="47.15605" lon="6.60365">
        <ele>536.4</ele>
        <time>2021-07-29T10:07:33Z</time>
      </trkpt>
      <trkpt lat="47.15611" lon="6.60366">
        <ele>535.4</ele>
        <time>2021-07-29T10:07:34Z</time>
      </trkpt>
      <trkpt lat="47.15618" lon="6.60368">
        <ele>534.6</ele>
        <time>2021-07-29T10:07:35Z</time>
      </trkpt>
      <trkpt lat="47.15625" lon="6.60372">
        <ele>533.8</ele>
        <time>2021-07-29T10:07:36Z</time>
      </trkpt>
      <trkpt lat="47.15631" lon="6.60374">
        <ele>533</ele>
        <time>2021-07-29T10:07:37Z</time>
      </trkpt>
      <trkpt lat="47.15637" lon="6.60376">
        <ele>532.4</ele>
        <time>2021-07-29T10:07:38Z</time>
      </trkpt>
      <trkpt lat="47.15643" lon="6.60378">
        <ele>531.6</ele>
        <time>2021-07-29T10:07:39Z</time>
      </trkpt>
      <trkpt lat="47.15649" lon="6.6038">
        <ele>531</ele>
        <time>2021-07-29T10:07:40Z</time>
      </trkpt>
      <trkpt lat="47.15655" lon="6.60383">
        <ele>530.2</ele>
        <time>2021-07-29T10:07:41Z</time>
      </trkpt>
      <trkpt lat="47.15659" lon="6.60384">
        <ele>529.8</ele>
        <time>2021-07-29T10:07:42Z</time>
      </trkpt>
      <trkpt lat="47.15664" lon="6.60385">
        <ele>529.2</ele>
        <time>2021-07-29T10:07:43Z</time>
      </trkpt>
      <trkpt lat="47.15669" lon="6.60387">
        <ele>528.8</ele>
        <time>2021-07-29T10:07:44Z</time>
      </trkpt>
      <trkpt lat="47.15674" lon="6.6039">
        <ele>528.2</ele>
        <time>2021-07-29T10:07:45Z</time>
      </trkpt>
      <trkpt lat="47.1568" lon="6.60395">
        <ele>528</ele>
        <time>2021-07-29T10:07:46Z</time>
      </trkpt>
      <trkpt lat="47.15684" lon="6.604">
        <ele>527.8</ele>
        <time>2021-07-29T10:07:47Z</time>
      </trkpt>
      <trkpt lat="47.15688" lon="6.60407">
        <ele>527.8</ele>
        <time>2021-07-29T10:07:48Z</time>
      </trkpt>
      <trkpt lat="47.15691" lon="6.60415">
        <ele>527.6</ele>
        <time>2021-07-29T10:07:49Z</time>
      </trkpt>
      <trkpt lat="47.15695" lon="6.60421">
        <ele>527.4</ele>
        <time>2021-07-29T10:07:50Z</time>
      </trkpt>
      <trkpt lat="47.15698" lon="6.60428">
        <ele>526.8</ele>
        <time>2021-07-29T10:07:51Z</time>
      </trkpt>
      <trkpt lat="47.15703" lon="6.60438">
        <ele>526.2</ele>
        <time>2021-07-29T10:07:52Z</time>
      </trkpt>
      <trkpt lat="47.15708" lon="6.60446">
        <ele>526</ele>
        <time>2021-07-29T10:07:53Z</time>
      </trkpt>
      <trkpt lat="47.15712" lon="6.60453">
        <ele>525.2</ele>
        <time>2021-07-29T10:07:54Z</time>
      </trkpt>
      <trkpt lat="47.15716" lon="6.60459">
        <ele>524.6</ele>
        <time>2021-07-29T10:07:55Z</time>
      </trkpt>
      <trkpt lat="47.15721" lon="6.60465">
        <ele>524</ele>
        <time>2021-07-29T10:07:56Z</time>
      </trkpt>
      <trkpt lat="47.15724" lon="6.6047">
        <ele>523.6</ele>
        <time>2021-07-29T10:07:57Z</time>
      </trkpt>
      <trkpt lat="47.15726" lon="6.60474">
        <ele>523.4</ele>
        <time>2021-07-29T10:07:58Z</time>
      </trkpt>
      <trkpt lat="47.15728" lon="6.60479">
        <ele>523.2</ele>
        <time>2021-07-29T10:07:59Z</time>
      </trkpt>
      <trkpt lat="47.15729" lon="6.60483">
        <ele>523</ele>
        <time>2021-07-29T10:08:00Z</time>
      </trkpt>
      <trkpt lat="47.15731" lon="6.60488">
        <ele>522.8</ele>
        <time>2021-07-29T10:08:01Z</time>
      </trkpt>
      <trkpt lat="47.15731" lon="6.60491">
        <ele>522.6</ele>
        <time>2021-07-29T10:08:02Z</time>
      </trkpt>
      <trkpt lat="47.15731" lon="6.60494">
        <ele>522.4</ele>
        <time>2021-07-29T10:08:03Z</time>
      </trkpt>
      <trkpt lat="47.1573" lon="6.60497">
        <ele>522.2</ele>
        <time>2021-07-29T10:08:04Z</time>
      </trkpt>
      <trkpt lat="47.1573" lon="6.605">
        <ele>522</ele>
        <time>2021-07-29T10:08:05Z</time>
      </trkpt>
      <trkpt lat="47.15729" lon="6.60504">
        <ele>521.6</ele>
        <time>2021-07-29T10:08:06Z</time>
      </trkpt>
      <trkpt lat="47.15729" lon="6.60507">
        <ele>521.6</ele>
        <time>2021-07-29T10:08:07Z</time>
      </trkpt>
      <trkpt lat="47.15729" lon="6.6051">
        <ele>521.4</ele>
        <time>2021-07-29T10:08:08Z</time>
      </trkpt>
      <trkpt lat="47.15729" lon="6.60513">
        <ele>521.4</ele>
        <time>2021-07-29T10:08:09Z</time>
      </trkpt>
      <trkpt lat="47.1573" lon="6.60518">
        <ele>521.2</ele>
        <time>2021-07-29T10:08:10Z</time>
      </trkpt>
      <trkpt lat="47.1573" lon="6.60521">
        <ele>521.2</ele>
        <time>2021-07-29T10:08:11Z</time>
      </trkpt>
      <trkpt lat="47.15731" lon="6.60525">
        <ele>521.2</ele>
        <time>2021-07-29T10:08:12Z</time>
      </trkpt>
      <trkpt lat="47.15731" lon="6.60529">
        <ele>521.2</ele>
        <time>2021-07-29T10:08:13Z</time>
      </trkpt>
      <trkpt lat="47.15731" lon="6.60533">
        <ele>521.2</ele>
        <time>2021-07-29T10:08:14Z</time>
      </trkpt>
      <trkpt lat="47.15732" lon="6.60536">
        <ele>521.2</ele>
        <time>2021-07-29T10:08:15Z</time>
      </trkpt>
      <trkpt lat="47.15732" lon="6.60539">
        <ele>521.2</ele>
        <time>2021-07-29T10:08:16Z</time>
      </trkpt>
      <trkpt lat="47.15732" lon="6.60543">
        <ele>521.2</ele>
        <time>2021-07-29T10:08:17Z</time>
      </trkpt>
      <trkpt lat="47.15733" lon="6.60546">
        <ele>521.4</ele>
        <time>2021-07-29T10:08:18Z</time>
      </trkpt>
      <trkpt lat="47.15733" lon="6.60549">
        <ele>521.4</ele>
        <time>2021-07-29T10:08:19Z</time>
      </trkpt>
      <trkpt lat="47.15734" lon="6.60552">
        <ele>521.4</ele>
        <time>2021-07-29T10:08:20Z</time>
      </trkpt>
      <trkpt lat="47.15735" lon="6.60555">
        <ele>521.4</ele>
        <time>2021-07-29T10:08:21Z</time>
      </trkpt>
      <trkpt lat="47.15736" lon="6.60558">
        <ele>521.4</ele>
        <time>2021-07-29T10:08:22Z</time>
      </trkpt>
      <trkpt lat="47.15737" lon="6.60561">
        <ele>521.4</ele>
        <time>2021-07-29T10:08:23Z</time>
      </trkpt>
      <trkpt lat="47.15738" lon="6.60563">
        <ele>521.6</ele>
        <time>2021-07-29T10:08:24Z</time>
      </trkpt>
      <trkpt lat="47.15738" lon="6.60566">
        <ele>521.6</ele>
        <time>2021-07-29T10:08:25Z</time>
      </trkpt>
      <trkpt lat="47.15739" lon="6.60568">
        <ele>521.6</ele>
        <time>2021-07-29T10:08:26Z</time>
      </trkpt>
      <trkpt lat="47.1574" lon="6.6057">
        <ele>521.6</ele>
        <time>2021-07-29T10:08:27Z</time>
      </trkpt>
      <trkpt lat="47.15741" lon="6.60572">
        <ele>521.8</ele>
        <time>2021-07-29T10:08:28Z</time>
      </trkpt>
      <trkpt lat="47.15742" lon="6.60574">
        <ele>521.8</ele>
        <time>2021-07-29T10:08:29Z</time>
      </trkpt>
      <trkpt lat="47.15743" lon="6.60576">
        <ele>521.8</ele>
        <time>2021-07-29T10:08:30Z</time>
      </trkpt>
      <trkpt lat="47.15744" lon="6.60578">
        <ele>522</ele>
        <time>2021-07-29T10:08:31Z</time>
      </trkpt>
      <trkpt lat="47.15746" lon="6.6058">
        <ele>522</ele>
        <time>2021-07-29T10:08:32Z</time>
      </trkpt>
      <trkpt lat="47.15747" lon="6.60582">
        <ele>522</ele>
        <time>2021-07-29T10:08:33Z</time>
      </trkpt>
      <trkpt lat="47.15747" lon="6.60583">
        <ele>522</ele>
        <time>2021-07-29T10:08:34Z</time>
      </trkpt>
      <trkpt lat="47.15748" lon="6.60584">
        <ele>522</ele>
        <time>2021-07-29T10:08:35Z</time>
      </trkpt>
      <trkpt lat="47.15749" lon="6.60586">
        <ele>522</ele>
        <time>2021-07-29T10:08:36Z</time>
      </trkpt>
      <trkpt lat="47.15749" lon="6.60588">
        <ele>522</ele>
        <time>2021-07-29T10:08:37Z</time>
      </trkpt>
      <trkpt lat="47.15749" lon="6.6059">
        <ele>522</ele>
        <time>2021-07-29T10:08:38Z</time>
      </trkpt>
      <trkpt lat="47.15749" lon="6.60592">
        <ele>522.2</ele>
        <time>2021-07-29T10:08:39Z</time>
      </trkpt>
      <trkpt lat="47.1575" lon="6.60594">
        <ele>522.2</ele>
        <time>2021-07-29T10:08:40Z</time>
      </trkpt>
      <trkpt lat="47.1575" lon="6.60596">
        <ele>522.2</ele>
        <time>2021-07-29T10:08:41Z</time>
      </trkpt>
      <trkpt lat="47.1575" lon="6.60598">
        <ele>522.2</ele>
        <time>2021-07-29T10:08:42Z</time>
      </trkpt>
      <trkpt lat="47.1575" lon="6.606">
        <ele>522.2</ele>
        <time>2021-07-29T10:08:43Z</time>
      </trkpt>
      <trkpt lat="47.15751" lon="6.60602">
        <ele>522.4</ele>
        <time>2021-07-29T10:08:44Z</time>
      </trkpt>
      <trkpt lat="47.15751" lon="6.60603">
        <ele>522.2</ele>
        <time>2021-07-29T10:08:45Z</time>
      </trkpt>
      <trkpt lat="47.15751" lon="6.60605">
        <ele>522.4</ele>
        <time>2021-07-29T10:08:46Z</time>
      </trkpt>
      <trkpt lat="47.15751" lon="6.60607">
        <ele>522.4</ele>
        <time>2021-07-29T10:08:47Z</time>
      </trkpt>
      <trkpt lat="47.15752" lon="6.60609">
        <ele>522.4</ele>
        <time>2021-07-29T10:08:48Z</time>
      </trkpt>
      <trkpt lat="47.15752" lon="6.60611">
        <ele>522.4</ele>
        <time>2021-07-29T10:08:49Z</time>
      </trkpt>
      <trkpt lat="47.15752" lon="6.60613">
        <ele>522.4</ele>
        <time>2021-07-29T10:08:50Z</time>
      </trkpt>
      <trkpt lat="47.15752" lon="6.60614">
        <ele>522.6</ele>
        <time>2021-07-29T10:08:51Z</time>
      </trkpt>
      <trkpt lat="47.15753" lon="6.60616">
        <ele>522.6</ele>
        <time>2021-07-29T10:08:52Z</time>
      </trkpt>
      <trkpt lat="47.15753" lon="6.60617">
        <ele>522.6</ele>
        <time>2021-07-29T10:08:53Z</time>
      </trkpt>
      <trkpt lat="47.15754" lon="6.60618">
        <ele>522.6</ele>
        <time>2021-07-29T10:08:54Z</time>
      </trkpt>
      <trkpt lat="47.15754" lon="6.6062">
        <ele>522.6</ele>
        <time>2021-07-29T10:08:55Z</time>
      </trkpt>
      <trkpt lat="47.15755" lon="6.60622">
        <ele>522.6</ele>
        <time>2021-07-29T10:08:56Z</time>
      </trkpt>
      <trkpt lat="47.15756" lon="6.60623">
        <ele>522.8</ele>
        <time>2021-07-29T10:08:57Z</time>
      </trkpt>
      <trkpt lat="47.15757" lon="6.60625">
        <ele>522.8</ele>
        <time>2021-07-29T10:08:58Z</time>
      </trkpt>
      <trkpt lat="47.15757" lon="6.60626">
        <ele>522.8</ele>
        <time>2021-07-29T10:08:59Z</time>
      </trkpt>
      <trkpt lat="47.15758" lon="6.60628">
        <ele>522.8</ele>
        <time>2021-07-29T10:09:00Z</time>
      </trkpt>
      <trkpt lat="47.15758" lon="6.6063">
        <ele>523</ele>
        <time>2021-07-29T10:09:01Z</time>
      </trkpt>
      <trkpt lat="47.15759" lon="6.60631">
        <ele>523</ele>
        <time>2021-07-29T10:09:02Z</time>
      </trkpt>
      <trkpt lat="47.15759" lon="6.60633">
        <ele>523</ele>
        <time>2021-07-29T10:09:03Z</time>
      </trkpt>
      <trkpt lat="47.1576" lon="6.60635">
        <ele>523</ele>
        <time>2021-07-29T10:09:04Z</time>
      </trkpt>
      <trkpt lat="47.1576" lon="6.60637">
        <ele>523</ele>
        <time>2021-07-29T10:09:05Z</time>
      </trkpt>
      <trkpt lat="47.15761" lon="6.60638">
        <ele>523</ele>
        <time>2021-07-29T10:09:06Z</time>
      </trkpt>
      <trkpt lat="47.15761" lon="6.6064">
        <ele>523</ele>
        <time>2021-07-29T10:09:07Z</time>
      </trkpt>
      <trkpt lat="47.15762" lon="6.60641">
        <ele>523</ele>
        <time>2021-07-29T10:09:08Z</time>
      </trkpt>
      <trkpt lat="47.15762" lon="6.60643">
        <ele>523</ele>
        <time>2021-07-29T10:09:09Z</time>
      </trkpt>
      <trkpt lat="47.15763" lon="6.60644">
        <ele>523</ele>
        <time>2021-07-29T10:09:10Z</time>
      </trkpt>
      <trkpt lat="47.15764" lon="6.60645">
        <ele>523</ele>
        <time>2021-07-29T10:09:11Z</time>
      </trkpt>
      <trkpt lat="47.15765" lon="6.60647">
        <ele>523</ele>
        <time>2021-07-29T10:09:12Z</time>
      </trkpt>
      <trkpt lat="47.15765" lon="6.60647">
        <ele>523</ele>
        <time>2021-07-29T10:09:13Z</time>
      </trkpt>
      <trkpt lat="47.15766" lon="6.60648">
        <ele>523</ele>
        <time>2021-07-29T10:09:14Z</time>
      </trkpt>
      <trkpt lat="47.15768" lon="6.6065">
        <ele>523</ele>
        <time>2021-07-29T10:09:15Z</time>
      </trkpt>
      <trkpt lat="47.15769" lon="6.60651">
        <ele>523</ele>
        <time>2021-07-29T10:09:16Z</time>
      </trkpt>
      <trkpt lat="47.1577" lon="6.60652">
        <ele>523</ele>
        <time>2021-07-29T10:09:17Z</time>
      </trkpt>
      <trkpt lat="47.1577" lon="6.60654">
        <ele>523</ele>
        <time>2021-07-29T10:09:18Z</time>
      </trkpt>
      <trkpt lat="47.15771" lon="6.60656">
        <ele>523</ele>
        <time>2021-07-29T10:09:19Z</time>
      </trkpt>
      <trkpt lat="47.15776" lon="6.60666">
        <ele>523.2</ele>
        <time>2021-07-29T10:09:26Z</time>
      </trkpt>
      <trkpt lat="47.15777" lon="6.60667">
        <ele>523.2</ele>
        <time>2021-07-29T10:09:27Z</time>
      </trkpt>
      <trkpt lat="47.15777" lon="6.60668">
        <ele>523.2</ele>
        <time>2021-07-29T10:09:28Z</time>
      </trkpt>
      <trkpt lat="47.15778" lon="6.60669">
        <ele>523.2</ele>
        <time>2021-07-29T10:09:29Z</time>
      </trkpt>
      <trkpt lat="47.15779" lon="6.6067">
        <ele>523.2</ele>
        <time>2021-07-29T10:09:30Z</time>
      </trkpt>
      <trkpt lat="47.1578" lon="6.6067">
        <ele>523.2</ele>
        <time>2021-07-29T10:09:31Z</time>
      </trkpt>
      <trkpt lat="47.15781" lon="6.6067">
        <ele>523.2</ele>
        <time>2021-07-29T10:09:32Z</time>
      </trkpt>
      <trkpt lat="47.15782" lon="6.6067">
        <ele>523.2</ele>
        <time>2021-07-29T10:09:33Z</time>
      </trkpt>
      <trkpt lat="47.15783" lon="6.6067">
        <ele>523.2</ele>
        <time>2021-07-29T10:09:34Z</time>
      </trkpt>
      <trkpt lat="47.15783" lon="6.60671">
        <ele>523.2</ele>
        <time>2021-07-29T10:09:35Z</time>
      </trkpt>
      <trkpt lat="47.15783" lon="6.6067">
        <ele>523.2</ele>
        <time>2021-07-29T10:09:36Z</time>
      </trkpt>
      <trkpt lat="47.15784" lon="6.6067">
        <ele>523.2</ele>
        <time>2021-07-29T10:09:37Z</time>
      </trkpt>
      <trkpt lat="47.15785" lon="6.6067">
        <ele>523.2</ele>
        <time>2021-07-29T10:09:38Z</time>
      </trkpt>
      <trkpt lat="47.15786" lon="6.6067">
        <ele>523.2</ele>
        <time>2021-07-29T10:09:39Z</time>
      </trkpt>
      <trkpt lat="47.15786" lon="6.6067">
        <ele>523.2</ele>
        <time>2021-07-29T10:09:40Z</time>
      </trkpt>
      <trkpt lat="47.15761" lon="6.60665">
        <ele>524.6</ele>
        <time>2021-07-29T10:20:27Z</time>
      </trkpt>
      <trkpt lat="47.15761" lon="6.60663">
        <ele>524.6</ele>
        <time>2021-07-29T10:20:28Z</time>
      </trkpt>
      <trkpt lat="47.15761" lon="6.60662">
        <ele>524.4</ele>
        <time>2021-07-29T10:20:29Z</time>
      </trkpt>
      <trkpt lat="47.15761" lon="6.60659">
        <ele>524.4</ele>
        <time>2021-07-29T10:20:30Z</time>
      </trkpt>
      <trkpt lat="47.1576" lon="6.60658">
        <ele>524.6</ele>
        <time>2021-07-29T10:20:31Z</time>
      </trkpt>
      <trkpt lat="47.15759" lon="6.60658">
        <ele>524.6</ele>
        <time>2021-07-29T10:20:32Z</time>
      </trkpt>
      <trkpt lat="47.15758" lon="6.60657">
        <ele>524.4</ele>
        <time>2021-07-29T10:20:33Z</time>
      </trkpt>
      <trkpt lat="47.15758" lon="6.60655">
        <ele>524.4</ele>
        <time>2021-07-29T10:20:34Z</time>
      </trkpt>
      <trkpt lat="47.15758" lon="6.60654">
        <ele>524.4</ele>
        <time>2021-07-29T10:20:35Z</time>
      </trkpt>
      <trkpt lat="47.15758" lon="6.60653">
        <ele>524.4</ele>
        <time>2021-07-29T10:20:36Z</time>
      </trkpt>
      <trkpt lat="47.15758" lon="6.60652">
        <ele>524.4</ele>
        <time>2021-07-29T10:20:37Z</time>
      </trkpt>
      <trkpt lat="47.15757" lon="6.60652">
        <ele>524.4</ele>
        <time>2021-07-29T10:20:38Z</time>
      </trkpt>
      <trkpt lat="47.15757" lon="6.60652">
        <ele>524.4</ele>
        <time>2021-07-29T10:20:39Z</time>
      </trkpt>
      <trkpt lat="47.15757" lon="6.60652">
        <ele>524.4</ele>
        <time>2021-07-29T10:20:40Z</time>
      </trkpt>
      <trkpt lat="47.15756" lon="6.60652">
        <ele>524.2</ele>
        <time>2021-07-29T10:20:41Z</time>
      </trkpt>
      <trkpt lat="47.15756" lon="6.60652">
        <ele>524.2</ele>
        <time>2021-07-29T10:20:42Z</time>
      </trkpt>
      <trkpt lat="47.15756" lon="6.60652">
        <ele>524.2</ele>
        <time>2021-07-29T10:20:43Z</time>
      </trkpt>
      <trkpt lat="47.15749" lon="6.60665">
        <ele>526.8</ele>
        <time>2021-07-29T10:46:22Z</time>
      </trkpt>
      <trkpt lat="47.15749" lon="6.60666">
        <ele>526.8</ele>
        <time>2021-07-29T10:46:23Z</time>
      </trkpt>
      <trkpt lat="47.15748" lon="6.60666">
        <ele>526.8</ele>
        <time>2021-07-29T10:46:24Z</time>
      </trkpt>
      <trkpt lat="47.15747" lon="6.60667">
        <ele>526.8</ele>
        <time>2021-07-29T10:46:25Z</time>
      </trkpt>
      <trkpt lat="47.15746" lon="6.60667">
        <ele>526.6</ele>
        <time>2021-07-29T10:46:26Z</time>
      </trkpt>
      <trkpt lat="47.15745" lon="6.60667">
        <ele>526.6</ele>
        <time>2021-07-29T10:46:27Z</time>
      </trkpt>
      <trkpt lat="47.15744" lon="6.60666">
        <ele>526.6</ele>
        <time>2021-07-29T10:46:28Z</time>
      </trkpt>
      <trkpt lat="47.15744" lon="6.60666">
        <ele>526.6</ele>
        <time>2021-07-29T10:46:29Z</time>
      </trkpt>
      <trkpt lat="47.15744" lon="6.60665">
        <ele>526.6</ele>
        <time>2021-07-29T10:46:30Z</time>
      </trkpt>
      <trkpt lat="47.15743" lon="6.60665">
        <ele>526.6</ele>
        <time>2021-07-29T10:46:31Z</time>
      </trkpt>
      <trkpt lat="47.15742" lon="6.60664">
        <ele>526.4</ele>
        <time>2021-07-29T10:46:32Z</time>
      </trkpt>
      <trkpt lat="47.15742" lon="6.60664">
        <ele>526.6</ele>
        <time>2021-07-29T10:46:33Z</time>
      </trkpt>
      <trkpt lat="47.15742" lon="6.60663">
        <ele>526.6</ele>
        <time>2021-07-29T10:46:34Z</time>
      </trkpt>
      <trkpt lat="47.15742" lon="6.60663">
        <ele>526.4</ele>
        <time>2021-07-29T10:46:35Z</time>
      </trkpt>
      <trkpt lat="47.15743" lon="6.60662">
        <ele>526.4</ele>
        <time>2021-07-29T10:46:36Z</time>
      </trkpt>
      <trkpt lat="47.15743" lon="6.60662">
        <ele>526.6</ele>
        <time>2021-07-29T10:46:37Z</time>
      </trkpt>
      <trkpt lat="47.15744" lon="6.6066">
        <ele>526.6</ele>
        <time>2021-07-29T10:46:38Z</time>
      </trkpt>
      <trkpt lat="47.15743" lon="6.6066">
        <ele>526.6</ele>
        <time>2021-07-29T10:46:39Z</time>
      </trkpt>
      <trkpt lat="47.15755" lon="6.60661">
        <ele>528.4</ele>
        <time>2021-07-29T11:05:21Z</time>
      </trkpt>
      <trkpt lat="47.15756" lon="6.6066">
        <ele>528.4</ele>
        <time>2021-07-29T11:05:22Z</time>
      </trkpt>
      <trkpt lat="47.15757" lon="6.60659">
        <ele>528.4</ele>
        <time>2021-07-29T11:05:23Z</time>
      </trkpt>
      <trkpt lat="47.15758" lon="6.60659">
        <ele>528.4</ele>
        <time>2021-07-29T11:05:24Z</time>
      </trkpt>
      <trkpt lat="47.15759" lon="6.60658">
        <ele>528.4</ele>
        <time>2021-07-29T11:05:25Z</time>
      </trkpt>
      <trkpt lat="47.1576" lon="6.60657">
        <ele>528.4</ele>
        <time>2021-07-29T11:05:26Z</time>
      </trkpt>
      <trkpt lat="47.15761" lon="6.60656">
        <ele>528.4</ele>
        <time>2021-07-29T11:05:27Z</time>
      </trkpt>
      <trkpt lat="47.15762" lon="6.60655">
        <ele>528.4</ele>
        <time>2021-07-29T11:05:28Z</time>
      </trkpt>
      <trkpt lat="47.15763" lon="6.60654">
        <ele>528.4</ele>
        <time>2021-07-29T11:05:29Z</time>
      </trkpt>
      <trkpt lat="47.15764" lon="6.60652">
        <ele>528.6</ele>
        <time>2021-07-29T11:05:30Z</time>
      </trkpt>
      <trkpt lat="47.15765" lon="6.60651">
        <ele>528.6</ele>
        <time>2021-07-29T11:05:31Z</time>
      </trkpt>
      <trkpt lat="47.15765" lon="6.60649">
        <ele>528.6</ele>
        <time>2021-07-29T11:05:32Z</time>
      </trkpt>
      <trkpt lat="47.15766" lon="6.60648">
        <ele>528.6</ele>
        <time>2021-07-29T11:05:33Z</time>
      </trkpt>
      <trkpt lat="47.15766" lon="6.60647">
        <ele>528.6</ele>
        <time>2021-07-29T11:05:34Z</time>
      </trkpt>
      <trkpt lat="47.15767" lon="6.60645">
        <ele>528.4</ele>
        <time>2021-07-29T11:05:35Z</time>
      </trkpt>
      <trkpt lat="47.15768" lon="6.60644">
        <ele>528.4</ele>
        <time>2021-07-29T11:05:36Z</time>
      </trkpt>
      <trkpt lat="47.15769" lon="6.60643">
        <ele>528.4</ele>
        <time>2021-07-29T11:05:37Z</time>
      </trkpt>
      <trkpt lat="47.1577" lon="6.60642">
        <ele>528.4</ele>
        <time>2021-07-29T11:05:38Z</time>
      </trkpt>
      <trkpt lat="47.15771" lon="6.60641">
        <ele>528.4</ele>
        <time>2021-07-29T11:05:39Z</time>
      </trkpt>
      <trkpt lat="47.15772" lon="6.6064">
        <ele>528.4</ele>
        <time>2021-07-29T11:05:40Z</time>
      </trkpt>
      <trkpt lat="47.15773" lon="6.60639">
        <ele>528.4</ele>
        <time>2021-07-29T11:05:41Z</time>
      </trkpt>
      <trkpt lat="47.15774" lon="6.60638">
        <ele>528.4</ele>
        <time>2021-07-29T11:05:42Z</time>
      </trkpt>
      <trkpt lat="47.15775" lon="6.60637">
        <ele>528.4</ele>
        <time>2021-07-29T11:05:43Z</time>
      </trkpt>
      <trkpt lat="47.15776" lon="6.60636">
        <ele>528.4</ele>
        <time>2021-07-29T11:05:44Z</time>
      </trkpt>
      <trkpt lat="47.15777" lon="6.60636">
        <ele>528.4</ele>
        <time>2021-07-29T11:05:45Z</time>
      </trkpt>
      <trkpt lat="47.15777" lon="6.60635">
        <ele>528.2</ele>
        <time>2021-07-29T11:05:46Z</time>
      </trkpt>
      <trkpt lat="47.15778" lon="6.60634">
        <ele>528.2</ele>
        <time>2021-07-29T11:05:47Z</time>
      </trkpt>
      <trkpt lat="47.15779" lon="6.60633">
        <ele>528.2</ele>
        <time>2021-07-29T11:05:48Z</time>
      </trkpt>
      <trkpt lat="47.1578" lon="6.60632">
        <ele>528.2</ele>
        <time>2021-07-29T11:05:49Z</time>
      </trkpt>
      <trkpt lat="47.1578" lon="6.60631">
        <ele>528.2</ele>
        <time>2021-07-29T11:05:50Z</time>
      </trkpt>
      <trkpt lat="47.15781" lon="6.6063">
        <ele>528.2</ele>
        <time>2021-07-29T11:05:51Z</time>
      </trkpt>
      <trkpt lat="47.15782" lon="6.60629">
        <ele>528</ele>
        <time>2021-07-29T11:05:52Z</time>
      </trkpt>
      <trkpt lat="47.15783" lon="6.60629">
        <ele>528</ele>
        <time>2021-07-29T11:05:53Z</time>
      </trkpt>
      <trkpt lat="47.15784" lon="6.60628">
        <ele>528</ele>
        <time>2021-07-29T11:05:54Z</time>
      </trkpt>
      <trkpt lat="47.15785" lon="6.60628">
        <ele>528</ele>
        <time>2021-07-29T11:05:55Z</time>
      </trkpt>
      <trkpt lat="47.15785" lon="6.60628">
        <ele>528</ele>
        <time>2021-07-29T11:05:56Z</time>
      </trkpt>
      <trkpt lat="47.15786" lon="6.60628">
        <ele>528</ele>
        <time>2021-07-29T11:05:57Z</time>
      </trkpt>
      <trkpt lat="47.15786" lon="6.60628">
        <ele>528</ele>
        <time>2021-07-29T11:05:58Z</time>
      </trkpt>
      <trkpt lat="47.15786" lon="6.60628">
        <ele>528</ele>
        <time>2021-07-29T11:05:59Z</time>
      </trkpt>
      <trkpt lat="47.15786" lon="6.60627">
        <ele>528</ele>
        <time>2021-07-29T11:06:00Z</time>
      </trkpt>
      <trkpt lat="47.15786" lon="6.60628">
        <ele>527.8</ele>
        <time>2021-07-29T11:06:01Z</time>
      </trkpt>
      <trkpt lat="47.15786" lon="6.60628">
        <ele>528</ele>
        <time>2021-07-29T11:06:02Z</time>
      </trkpt>
      <trkpt lat="47.15772" lon="6.60639">
        <ele>531</ele>
        <time>2021-07-29T11:35:01Z</time>
      </trkpt>
      <trkpt lat="47.15771" lon="6.60637">
        <ele>530.8</ele>
        <time>2021-07-29T11:35:02Z</time>
      </trkpt>
      <trkpt lat="47.1577" lon="6.60634">
        <ele>530.8</ele>
        <time>2021-07-29T11:35:03Z</time>
      </trkpt>
      <trkpt lat="47.15768" lon="6.60632">
        <ele>530.8</ele>
        <time>2021-07-29T11:35:04Z</time>
      </trkpt>
      <trkpt lat="47.15767" lon="6.6063">
        <ele>530.8</ele>
        <time>2021-07-29T11:35:05Z</time>
      </trkpt>
      <trkpt lat="47.15766" lon="6.60627">
        <ele>530.8</ele>
        <time>2021-07-29T11:35:06Z</time>
      </trkpt>
      <trkpt lat="47.15764" lon="6.60625">
        <ele>530.6</ele>
        <time>2021-07-29T11:35:07Z</time>
      </trkpt>
      <trkpt lat="47.15763" lon="6.60624">
        <ele>530.6</ele>
        <time>2021-07-29T11:35:08Z</time>
      </trkpt>
      <trkpt lat="47.15761" lon="6.60624">
        <ele>530.6</ele>
        <time>2021-07-29T11:35:09Z</time>
      </trkpt>
      <trkpt lat="47.15759" lon="6.60624">
        <ele>530.8</ele>
        <time>2021-07-29T11:35:10Z</time>
      </trkpt>
      <trkpt lat="47.15757" lon="6.60624">
        <ele>531</ele>
        <time>2021-07-29T11:35:11Z</time>
      </trkpt>
      <trkpt lat="47.15754" lon="6.60624">
        <ele>531.2</ele>
        <time>2021-07-29T11:35:12Z</time>
      </trkpt>
      <trkpt lat="47.15753" lon="6.60623">
        <ele>531.2</ele>
        <time>2021-07-29T11:35:13Z</time>
      </trkpt>
      <trkpt lat="47.15751" lon="6.60623">
        <ele>531.2</ele>
        <time>2021-07-29T11:35:14Z</time>
      </trkpt>
      <trkpt lat="47.1575" lon="6.60622">
        <ele>531.2</ele>
        <time>2021-07-29T11:35:15Z</time>
      </trkpt>
      <trkpt lat="47.1575" lon="6.60622">
        <ele>531.2</ele>
        <time>2021-07-29T11:35:16Z</time>
      </trkpt>
      <trkpt lat="47.1575" lon="6.60622">
        <ele>531.4</ele>
        <time>2021-07-29T11:35:17Z</time>
      </trkpt>
      <trkpt lat="47.1575" lon="6.60621">
        <ele>531.4</ele>
        <time>2021-07-29T11:35:18Z</time>
      </trkpt>
      <trkpt lat="47.1575" lon="6.60621">
        <ele>531.2</ele>
        <time>2021-07-29T11:35:19Z</time>
      </trkpt>
      <trkpt lat="47.15749" lon="6.6062">
        <ele>531.2</ele>
        <time>2021-07-29T11:35:20Z</time>
      </trkpt>
      <trkpt lat="47.15749" lon="6.60619">
        <ele>531.2</ele>
        <time>2021-07-29T11:35:21Z</time>
      </trkpt>
      <trkpt lat="47.15749" lon="6.60619">
        <ele>531.2</ele>
        <time>2021-07-29T11:35:22Z</time>
      </trkpt>
      <trkpt lat="47.15726" lon="6.60649">
        <ele>532</ele>
        <time>2021-07-29T11:36:10Z</time>
      </trkpt>
      <trkpt lat="47.15725" lon="6.60652">
        <ele>532</ele>
        <time>2021-07-29T11:36:11Z</time>
      </trkpt>
      <trkpt lat="47.15724" lon="6.60654">
        <ele>532</ele>
        <time>2021-07-29T11:36:12Z</time>
      </trkpt>
      <trkpt lat="47.15723" lon="6.60657">
        <ele>532</ele>
        <time>2021-07-29T11:36:13Z</time>
      </trkpt>
      <trkpt lat="47.15721" lon="6.6066">
        <ele>531.8</ele>
        <time>2021-07-29T11:36:14Z</time>
      </trkpt>
      <trkpt lat="47.15721" lon="6.60662">
        <ele>531.8</ele>
        <time>2021-07-29T11:36:15Z</time>
      </trkpt>
      <trkpt lat="47.1572" lon="6.60665">
        <ele>531.8</ele>
        <time>2021-07-29T11:36:16Z</time>
      </trkpt>
      <trkpt lat="47.15719" lon="6.60668">
        <ele>531.8</ele>
        <time>2021-07-29T11:36:17Z</time>
      </trkpt>
      <trkpt lat="47.15718" lon="6.60671">
        <ele>531.8</ele>
        <time>2021-07-29T11:36:18Z</time>
      </trkpt>
      <trkpt lat="47.15716" lon="6.60674">
        <ele>531.8</ele>
        <time>2021-07-29T11:36:19Z</time>
      </trkpt>
      <trkpt lat="47.15714" lon="6.60677">
        <ele>531.8</ele>
        <time>2021-07-29T11:36:20Z</time>
      </trkpt>
      <trkpt lat="47.15712" lon="6.6068">
        <ele>531.6</ele>
        <time>2021-07-29T11:36:21Z</time>
      </trkpt>
      <trkpt lat="47.1571" lon="6.60683">
        <ele>531.6</ele>
        <time>2021-07-29T11:36:22Z</time>
      </trkpt>
      <trkpt lat="47.15709" lon="6.60685">
        <ele>531.6</ele>
        <time>2021-07-29T11:36:23Z</time>
      </trkpt>
      <trkpt lat="47.15707" lon="6.60688">
        <ele>531.4</ele>
        <time>2021-07-29T11:36:24Z</time>
      </trkpt>
      <trkpt lat="47.15705" lon="6.6069">
        <ele>531.4</ele>
        <time>2021-07-29T11:36:25Z</time>
      </trkpt>
      <trkpt lat="47.15703" lon="6.60693">
        <ele>531.2</ele>
        <time>2021-07-29T11:36:26Z</time>
      </trkpt>
      <trkpt lat="47.15701" lon="6.60697">
        <ele>531</ele>
        <time>2021-07-29T11:36:27Z</time>
      </trkpt>
      <trkpt lat="47.15699" lon="6.607">
        <ele>531</ele>
        <time>2021-07-29T11:36:28Z</time>
      </trkpt>
      <trkpt lat="47.15697" lon="6.60703">
        <ele>531</ele>
        <time>2021-07-29T11:36:29Z</time>
      </trkpt>
      <trkpt lat="47.15695" lon="6.60706">
        <ele>530.8</ele>
        <time>2021-07-29T11:36:30Z</time>
      </trkpt>
      <trkpt lat="47.15693" lon="6.6071">
        <ele>530.8</ele>
        <time>2021-07-29T11:36:31Z</time>
      </trkpt>
      <trkpt lat="47.15691" lon="6.60713">
        <ele>530.6</ele>
        <time>2021-07-29T11:36:32Z</time>
      </trkpt>
      <trkpt lat="47.15689" lon="6.60715">
        <ele>530.6</ele>
        <time>2021-07-29T11:36:33Z</time>
      </trkpt>
      <trkpt lat="47.15687" lon="6.60718">
        <ele>530.4</ele>
        <time>2021-07-29T11:36:34Z</time>
      </trkpt>
      <trkpt lat="47.15685" lon="6.60721">
        <ele>530.4</ele>
        <time>2021-07-29T11:36:35Z</time>
      </trkpt>
      <trkpt lat="47.15683" lon="6.60724">
        <ele>530.2</ele>
        <time>2021-07-29T11:36:36Z</time>
      </trkpt>
      <trkpt lat="47.15681" lon="6.60727">
        <ele>530.2</ele>
        <time>2021-07-29T11:36:37Z</time>
      </trkpt>
      <trkpt lat="47.15679" lon="6.60731">
        <ele>530</ele>
        <time>2021-07-29T11:36:38Z</time>
      </trkpt>
      <trkpt lat="47.15678" lon="6.60735">
        <ele>530</ele>
        <time>2021-07-29T11:36:39Z</time>
      </trkpt>
      <trkpt lat="47.15676" lon="6.60739">
        <ele>530</ele>
        <time>2021-07-29T11:36:40Z</time>
      </trkpt>
      <trkpt lat="47.15674" lon="6.60743">
        <ele>529.8</ele>
        <time>2021-07-29T11:36:41Z</time>
      </trkpt>
      <trkpt lat="47.15673" lon="6.60746">
        <ele>529.8</ele>
        <time>2021-07-29T11:36:42Z</time>
      </trkpt>
      <trkpt lat="47.15671" lon="6.6075">
        <ele>529.6</ele>
        <time>2021-07-29T11:36:43Z</time>
      </trkpt>
      <trkpt lat="47.15669" lon="6.60753">
        <ele>529.6</ele>
        <time>2021-07-29T11:36:44Z</time>
      </trkpt>
      <trkpt lat="47.15668" lon="6.60757">
        <ele>529.4</ele>
        <time>2021-07-29T11:36:45Z</time>
      </trkpt>
      <trkpt lat="47.15666" lon="6.60761">
        <ele>529.4</ele>
        <time>2021-07-29T11:36:46Z</time>
      </trkpt>
      <trkpt lat="47.15664" lon="6.60763">
        <ele>529.4</ele>
        <time>2021-07-29T11:36:47Z</time>
      </trkpt>
      <trkpt lat="47.15662" lon="6.60767">
        <ele>529.4</ele>
        <time>2021-07-29T11:36:48Z</time>
      </trkpt>
      <trkpt lat="47.1566" lon="6.60772">
        <ele>529.2</ele>
        <time>2021-07-29T11:36:49Z</time>
      </trkpt>
      <trkpt lat="47.15656" lon="6.60775">
        <ele>529.2</ele>
        <time>2021-07-29T11:36:50Z</time>
      </trkpt>
      <trkpt lat="47.15654" lon="6.60778">
        <ele>529.2</ele>
        <time>2021-07-29T11:36:51Z</time>
      </trkpt>
      <trkpt lat="47.15653" lon="6.6078">
        <ele>529.2</ele>
        <time>2021-07-29T11:36:52Z</time>
      </trkpt>
      <trkpt lat="47.15651" lon="6.60782">
        <ele>529.2</ele>
        <time>2021-07-29T11:36:53Z</time>
      </trkpt>
      <trkpt lat="47.15649" lon="6.60784">
        <ele>529.2</ele>
        <time>2021-07-29T11:36:54Z</time>
      </trkpt>
      <trkpt lat="47.15647" lon="6.60786">
        <ele>529</ele>
        <time>2021-07-29T11:36:55Z</time>
      </trkpt>
      <trkpt lat="47.15645" lon="6.60788">
        <ele>529</ele>
        <time>2021-07-29T11:36:56Z</time>
      </trkpt>
      <trkpt lat="47.15644" lon="6.60791">
        <ele>529</ele>
        <time>2021-07-29T11:36:57Z</time>
      </trkpt>
      <trkpt lat="47.15642" lon="6.60794">
        <ele>529</ele>
        <time>2021-07-29T11:36:58Z</time>
      </trkpt>
      <trkpt lat="47.15639" lon="6.60795">
        <ele>528.8</ele>
        <time>2021-07-29T11:36:59Z</time>
      </trkpt>
      <trkpt lat="47.15637" lon="6.60797">
        <ele>528.6</ele>
        <time>2021-07-29T11:37:00Z</time>
      </trkpt>
      <trkpt lat="47.15634" lon="6.60798">
        <ele>528.4</ele>
        <time>2021-07-29T11:37:01Z</time>
      </trkpt>
      <trkpt lat="47.15633" lon="6.608">
        <ele>528.4</ele>
        <time>2021-07-29T11:37:02Z</time>
      </trkpt>
      <trkpt lat="47.1563" lon="6.60801">
        <ele>528.2</ele>
        <time>2021-07-29T11:37:03Z</time>
      </trkpt>
      <trkpt lat="47.15628" lon="6.60801">
        <ele>528</ele>
        <time>2021-07-29T11:37:04Z</time>
      </trkpt>
      <trkpt lat="47.15626" lon="6.60802">
        <ele>528</ele>
        <time>2021-07-29T11:37:05Z</time>
      </trkpt>
      <trkpt lat="47.15623" lon="6.60804">
        <ele>527.8</ele>
        <time>2021-07-29T11:37:06Z</time>
      </trkpt>
      <trkpt lat="47.15621" lon="6.60805">
        <ele>527.8</ele>
        <time>2021-07-29T11:37:07Z</time>
      </trkpt>
      <trkpt lat="47.15619" lon="6.60807">
        <ele>527.8</ele>
        <time>2021-07-29T11:37:08Z</time>
      </trkpt>
      <trkpt lat="47.15617" lon="6.60807">
        <ele>527.8</ele>
        <time>2021-07-29T11:37:09Z</time>
      </trkpt>
      <trkpt lat="47.15614" lon="6.60808">
        <ele>527.6</ele>
        <time>2021-07-29T11:37:10Z</time>
      </trkpt>
      <trkpt lat="47.15612" lon="6.60808">
        <ele>527.6</ele>
        <time>2021-07-29T11:37:11Z</time>
      </trkpt>
      <trkpt lat="47.15609" lon="6.60809">
        <ele>527.4</ele>
        <time>2021-07-29T11:37:12Z</time>
      </trkpt>
      <trkpt lat="47.15606" lon="6.6081">
        <ele>527.4</ele>
        <time>2021-07-29T11:37:13Z</time>
      </trkpt>
      <trkpt lat="47.15603" lon="6.6081">
        <ele>527.6</ele>
        <time>2021-07-29T11:37:14Z</time>
      </trkpt>
      <trkpt lat="47.156" lon="6.60811">
        <ele>527.6</ele>
        <time>2021-07-29T11:37:15Z</time>
      </trkpt>
      <trkpt lat="47.15598" lon="6.60811">
        <ele>527.6</ele>
        <time>2021-07-29T11:37:16Z</time>
      </trkpt>
      <trkpt lat="47.15596" lon="6.60811">
        <ele>527.8</ele>
        <time>2021-07-29T11:37:17Z</time>
      </trkpt>
      <trkpt lat="47.15594" lon="6.60811">
        <ele>527.8</ele>
        <time>2021-07-29T11:37:18Z</time>
      </trkpt>
      <trkpt lat="47.15592" lon="6.60812">
        <ele>527.8</ele>
        <time>2021-07-29T11:37:19Z</time>
      </trkpt>
      <trkpt lat="47.1559" lon="6.60812">
        <ele>528</ele>
        <time>2021-07-29T11:37:20Z</time>
      </trkpt>
      <trkpt lat="47.15589" lon="6.60813">
        <ele>528</ele>
        <time>2021-07-29T11:37:21Z</time>
      </trkpt>
      <trkpt lat="47.15587" lon="6.60813">
        <ele>528.2</ele>
        <time>2021-07-29T11:37:22Z</time>
      </trkpt>
      <trkpt lat="47.15586" lon="6.60814">
        <ele>528.2</ele>
        <time>2021-07-29T11:37:23Z</time>
      </trkpt>
      <trkpt lat="47.15584" lon="6.60814">
        <ele>528.2</ele>
        <time>2021-07-29T11:37:24Z</time>
      </trkpt>
      <trkpt lat="47.15582" lon="6.60813">
        <ele>528.2</ele>
        <time>2021-07-29T11:37:25Z</time>
      </trkpt>
      <trkpt lat="47.15581" lon="6.60814">
        <ele>528.2</ele>
        <time>2021-07-29T11:37:26Z</time>
      </trkpt>
      <trkpt lat="47.15579" lon="6.60814">
        <ele>528.4</ele>
        <time>2021-07-29T11:37:27Z</time>
      </trkpt>
      <trkpt lat="47.15578" lon="6.60815">
        <ele>528.4</ele>
        <time>2021-07-29T11:37:28Z</time>
      </trkpt>
      <trkpt lat="47.15577" lon="6.60817">
        <ele>528.4</ele>
        <time>2021-07-29T11:37:29Z</time>
      </trkpt>
      <trkpt lat="47.15576" lon="6.60819">
        <ele>528.4</ele>
        <time>2021-07-29T11:37:30Z</time>
      </trkpt>
      <trkpt lat="47.15576" lon="6.60819">
        <ele>528.8</ele>
        <time>2021-07-29T11:37:31Z</time>
      </trkpt>
      <trkpt lat="47.15576" lon="6.6082">
        <ele>528.8</ele>
        <time>2021-07-29T11:37:32Z</time>
      </trkpt>
      <trkpt lat="47.15576" lon="6.6082">
        <ele>528.8</ele>
        <time>2021-07-29T11:37:33Z</time>
      </trkpt>
      <trkpt lat="47.15575" lon="6.60821">
        <ele>528.8</ele>
        <time>2021-07-29T11:37:34Z</time>
      </trkpt>
      <trkpt lat="47.15575" lon="6.60821">
        <ele>528.8</ele>
        <time>2021-07-29T11:37:35Z</time>
      </trkpt>
      <trkpt lat="47.15576" lon="6.60822">
        <ele>528.8</ele>
        <time>2021-07-29T11:37:36Z</time>
      </trkpt>
      <trkpt lat="47.15576" lon="6.60824">
        <ele>529</ele>
        <time>2021-07-29T11:37:37Z</time>
      </trkpt>
      <trkpt lat="47.15576" lon="6.60826">
        <ele>529</ele>
        <time>2021-07-29T11:37:38Z</time>
      </trkpt>
      <trkpt lat="47.156" lon="6.60884">
        <ele>535</ele>
        <time>2021-07-29T11:55:14Z</time>
      </trkpt>
      <trkpt lat="47.15599" lon="6.60886">
        <ele>535.2</ele>
        <time>2021-07-29T11:55:15Z</time>
      </trkpt>
      <trkpt lat="47.15598" lon="6.60887">
        <ele>535.4</ele>
        <time>2021-07-29T11:55:16Z</time>
      </trkpt>
      <trkpt lat="47.15597" lon="6.60889">
        <ele>535.6</ele>
        <time>2021-07-29T11:55:17Z</time>
      </trkpt>
      <trkpt lat="47.15596" lon="6.6089">
        <ele>536</ele>
        <time>2021-07-29T11:55:18Z</time>
      </trkpt>
      <trkpt lat="47.15595" lon="6.60891">
        <ele>536.2</ele>
        <time>2021-07-29T11:55:19Z</time>
      </trkpt>
      <trkpt lat="47.15593" lon="6.60892">
        <ele>536.4</ele>
        <time>2021-07-29T11:55:20Z</time>
      </trkpt>
      <trkpt lat="47.15592" lon="6.60893">
        <ele>536.8</ele>
        <time>2021-07-29T11:55:21Z</time>
      </trkpt>
      <trkpt lat="47.15591" lon="6.60893">
        <ele>536.8</ele>
        <time>2021-07-29T11:55:22Z</time>
      </trkpt>
      <trkpt lat="47.15589" lon="6.60894">
        <ele>537.2</ele>
        <time>2021-07-29T11:55:23Z</time>
      </trkpt>
      <trkpt lat="47.15588" lon="6.60894">
        <ele>537.4</ele>
        <time>2021-07-29T11:55:24Z</time>
      </trkpt>
      <trkpt lat="47.15587" lon="6.60895">
        <ele>537.6</ele>
        <time>2021-07-29T11:55:25Z</time>
      </trkpt>
      <trkpt lat="47.15586" lon="6.60896">
        <ele>537.6</ele>
        <time>2021-07-29T11:55:26Z</time>
      </trkpt>
      <trkpt lat="47.15585" lon="6.60896">
        <ele>537.8</ele>
        <time>2021-07-29T11:55:27Z</time>
      </trkpt>
      <trkpt lat="47.15584" lon="6.60897">
        <ele>538</ele>
        <time>2021-07-29T11:55:28Z</time>
      </trkpt>
      <trkpt lat="47.15582" lon="6.60897">
        <ele>538.4</ele>
        <time>2021-07-29T11:55:29Z</time>
      </trkpt>
      <trkpt lat="47.15581" lon="6.60898">
        <ele>538.4</ele>
        <time>2021-07-29T11:55:30Z</time>
      </trkpt>
      <trkpt lat="47.1558" lon="6.60899">
        <ele>538.6</ele>
        <time>2021-07-29T11:55:31Z</time>
      </trkpt>
      <trkpt lat="47.15578" lon="6.60899">
        <ele>538.8</ele>
        <time>2021-07-29T11:55:32Z</time>
      </trkpt>
      <trkpt lat="47.15577" lon="6.60899">
        <ele>539.2</ele>
        <time>2021-07-29T11:55:33Z</time>
      </trkpt>
      <trkpt lat="47.15576" lon="6.60898">
        <ele>539.4</ele>
        <time>2021-07-29T11:55:34Z</time>
      </trkpt>
      <trkpt lat="47.15575" lon="6.60898">
        <ele>539.6</ele>
        <time>2021-07-29T11:55:35Z</time>
      </trkpt>
      <trkpt lat="47.15574" lon="6.60898">
        <ele>539.6</ele>
        <time>2021-07-29T11:55:36Z</time>
      </trkpt>
      <trkpt lat="47.15573" lon="6.60898">
        <ele>539.8</ele>
        <time>2021-07-29T11:55:37Z</time>
      </trkpt>
      <trkpt lat="47.15572" lon="6.60898">
        <ele>540</ele>
        <time>2021-07-29T11:55:38Z</time>
      </trkpt>
      <trkpt lat="47.15572" lon="6.60898">
        <ele>540.2</ele>
        <time>2021-07-29T11:55:39Z</time>
      </trkpt>
      <trkpt lat="47.15571" lon="6.60898">
        <ele>540.4</ele>
        <time>2021-07-29T11:55:40Z</time>
      </trkpt>
      <trkpt lat="47.15569" lon="6.60899">
        <ele>540.4</ele>
        <time>2021-07-29T11:55:41Z</time>
      </trkpt>
      <trkpt lat="47.15569" lon="6.60899">
        <ele>540.4</ele>
        <time>2021-07-29T11:55:42Z</time>
      </trkpt>
      <trkpt lat="47.15567" lon="6.609">
        <ele>540.6</ele>
        <time>2021-07-29T11:55:43Z</time>
      </trkpt>
      <trkpt lat="47.15567" lon="6.60901">
        <ele>540.8</ele>
        <time>2021-07-29T11:55:44Z</time>
      </trkpt>
      <trkpt lat="47.15566" lon="6.60901">
        <ele>540.8</ele>
        <time>2021-07-29T11:55:45Z</time>
      </trkpt>
      <trkpt lat="47.15565" lon="6.60901">
        <ele>540.8</ele>
        <time>2021-07-29T11:55:46Z</time>
      </trkpt>
      <trkpt lat="47.15563" lon="6.60901">
        <ele>540.8</ele>
        <time>2021-07-29T11:55:47Z</time>
      </trkpt>
      <trkpt lat="47.15562" lon="6.60902">
        <ele>540.8</ele>
        <time>2021-07-29T11:55:48Z</time>
      </trkpt>
      <trkpt lat="47.15561" lon="6.60901">
        <ele>540.6</ele>
        <time>2021-07-29T11:55:49Z</time>
      </trkpt>
      <trkpt lat="47.15559" lon="6.60901">
        <ele>540.6</ele>
        <time>2021-07-29T11:55:50Z</time>
      </trkpt>
      <trkpt lat="47.15558" lon="6.60902">
        <ele>540.4</ele>
        <time>2021-07-29T11:55:51Z</time>
      </trkpt>
      <trkpt lat="47.15555" lon="6.60903">
        <ele>540.4</ele>
        <time>2021-07-29T11:55:52Z</time>
      </trkpt>
      <trkpt lat="47.15553" lon="6.60904">
        <ele>540.2</ele>
        <time>2021-07-29T11:55:53Z</time>
      </trkpt>
      <trkpt lat="47.1555" lon="6.60904">
        <ele>540.2</ele>
        <time>2021-07-29T11:55:54Z</time>
      </trkpt>
      <trkpt lat="47.15548" lon="6.60904">
        <ele>540.2</ele>
        <time>2021-07-29T11:55:55Z</time>
      </trkpt>
      <trkpt lat="47.15546" lon="6.60905">
        <ele>540.2</ele>
        <time>2021-07-29T11:55:56Z</time>
      </trkpt>
      <trkpt lat="47.15545" lon="6.60906">
        <ele>540.2</ele>
        <time>2021-07-29T11:55:57Z</time>
      </trkpt>
      <trkpt lat="47.15542" lon="6.60907">
        <ele>540.2</ele>
        <time>2021-07-29T11:55:58Z</time>
      </trkpt>
      <trkpt lat="47.15541" lon="6.60909">
        <ele>540.4</ele>
        <time>2021-07-29T11:55:59Z</time>
      </trkpt>
      <trkpt lat="47.15539" lon="6.6091">
        <ele>540.4</ele>
        <time>2021-07-29T11:56:00Z</time>
      </trkpt>
      <trkpt lat="47.15536" lon="6.6091">
        <ele>540.4</ele>
        <time>2021-07-29T11:56:01Z</time>
      </trkpt>
      <trkpt lat="47.15535" lon="6.6091">
        <ele>540.4</ele>
        <time>2021-07-29T11:56:02Z</time>
      </trkpt>
      <trkpt lat="47.15533" lon="6.60911">
        <ele>540.4</ele>
        <time>2021-07-29T11:56:03Z</time>
      </trkpt>
      <trkpt lat="47.15532" lon="6.60913">
        <ele>540.4</ele>
        <time>2021-07-29T11:56:04Z</time>
      </trkpt>
      <trkpt lat="47.1553" lon="6.60914">
        <ele>540.4</ele>
        <time>2021-07-29T11:56:05Z</time>
      </trkpt>
      <trkpt lat="47.15528" lon="6.60916">
        <ele>540.4</ele>
        <time>2021-07-29T11:56:06Z</time>
      </trkpt>
      <trkpt lat="47.15526" lon="6.60918">
        <ele>540.4</ele>
        <time>2021-07-29T11:56:07Z</time>
      </trkpt>
      <trkpt lat="47.15525" lon="6.60919">
        <ele>540.4</ele>
        <time>2021-07-29T11:56:08Z</time>
      </trkpt>
      <trkpt lat="47.15523" lon="6.60921">
        <ele>540.6</ele>
        <time>2021-07-29T11:56:09Z</time>
      </trkpt>
      <trkpt lat="47.15522" lon="6.60922">
        <ele>540.6</ele>
        <time>2021-07-29T11:56:10Z</time>
      </trkpt>
      <trkpt lat="47.15521" lon="6.60923">
        <ele>540.8</ele>
        <time>2021-07-29T11:56:11Z</time>
      </trkpt>
      <trkpt lat="47.1552" lon="6.60924">
        <ele>540.8</ele>
        <time>2021-07-29T11:56:12Z</time>
      </trkpt>
      <trkpt lat="47.15518" lon="6.60924">
        <ele>540.8</ele>
        <time>2021-07-29T11:56:13Z</time>
      </trkpt>
      <trkpt lat="47.15516" lon="6.60925">
        <ele>540.8</ele>
        <time>2021-07-29T11:56:14Z</time>
      </trkpt>
      <trkpt lat="47.15515" lon="6.60925">
        <ele>540.8</ele>
        <time>2021-07-29T11:56:15Z</time>
      </trkpt>
      <trkpt lat="47.15513" lon="6.60926">
        <ele>540.8</ele>
        <time>2021-07-29T11:56:16Z</time>
      </trkpt>
      <trkpt lat="47.15512" lon="6.60927">
        <ele>540.8</ele>
        <time>2021-07-29T11:56:17Z</time>
      </trkpt>
      <trkpt lat="47.1551" lon="6.60929">
        <ele>540.8</ele>
        <time>2021-07-29T11:56:18Z</time>
      </trkpt>
      <trkpt lat="47.15509" lon="6.60929">
        <ele>540.8</ele>
        <time>2021-07-29T11:56:19Z</time>
      </trkpt>
      <trkpt lat="47.15507" lon="6.6093">
        <ele>541</ele>
        <time>2021-07-29T11:56:20Z</time>
      </trkpt>
      <trkpt lat="47.15506" lon="6.6093">
        <ele>541</ele>
        <time>2021-07-29T11:56:21Z</time>
      </trkpt>
      <trkpt lat="47.15504" lon="6.60931">
        <ele>541</ele>
        <time>2021-07-29T11:56:22Z</time>
      </trkpt>
      <trkpt lat="47.15503" lon="6.60931">
        <ele>541</ele>
        <time>2021-07-29T11:56:23Z</time>
      </trkpt>
      <trkpt lat="47.15501" lon="6.60931">
        <ele>540.8</ele>
        <time>2021-07-29T11:56:24Z</time>
      </trkpt>
      <trkpt lat="47.15499" lon="6.60932">
        <ele>540.8</ele>
        <time>2021-07-29T11:56:25Z</time>
      </trkpt>
      <trkpt lat="47.15497" lon="6.60932">
        <ele>540.6</ele>
        <time>2021-07-29T11:56:26Z</time>
      </trkpt>
      <trkpt lat="47.15495" lon="6.60933">
        <ele>540.6</ele>
        <time>2021-07-29T11:56:27Z</time>
      </trkpt>
      <trkpt lat="47.15493" lon="6.60933">
        <ele>540.4</ele>
        <time>2021-07-29T11:56:28Z</time>
      </trkpt>
      <trkpt lat="47.15491" lon="6.60934">
        <ele>540.2</ele>
        <time>2021-07-29T11:56:29Z</time>
      </trkpt>
      <trkpt lat="47.15489" lon="6.60935">
        <ele>539.8</ele>
        <time>2021-07-29T11:56:30Z</time>
      </trkpt>
      <trkpt lat="47.15488" lon="6.60936">
        <ele>539.6</ele>
        <time>2021-07-29T11:56:31Z</time>
      </trkpt>
      <trkpt lat="47.15485" lon="6.60937">
        <ele>539.2</ele>
        <time>2021-07-29T11:56:32Z</time>
      </trkpt>
      <trkpt lat="47.15482" lon="6.60937">
        <ele>539</ele>
        <time>2021-07-29T11:56:33Z</time>
      </trkpt>
      <trkpt lat="47.15479" lon="6.60937">
        <ele>539</ele>
        <time>2021-07-29T11:56:34Z</time>
      </trkpt>
      <trkpt lat="47.15477" lon="6.60939">
        <ele>539</ele>
        <time>2021-07-29T11:56:35Z</time>
      </trkpt>
      <trkpt lat="47.15474" lon="6.60939">
        <ele>538.8</ele>
        <time>2021-07-29T11:56:36Z</time>
      </trkpt>
      <trkpt lat="47.15472" lon="6.60938">
        <ele>538.6</ele>
        <time>2021-07-29T11:56:37Z</time>
      </trkpt>
      <trkpt lat="47.15469" lon="6.60939">
        <ele>538.4</ele>
        <time>2021-07-29T11:56:38Z</time>
      </trkpt>
      <trkpt lat="47.15468" lon="6.60939">
        <ele>538.2</ele>
        <time>2021-07-29T11:56:39Z</time>
      </trkpt>
      <trkpt lat="47.15465" lon="6.6094">
        <ele>538.2</ele>
        <time>2021-07-29T11:56:40Z</time>
      </trkpt>
      <trkpt lat="47.15463" lon="6.60939">
        <ele>538.2</ele>
        <time>2021-07-29T11:56:41Z</time>
      </trkpt>
      <trkpt lat="47.1546" lon="6.60937">
        <ele>538.2</ele>
        <time>2021-07-29T11:56:42Z</time>
      </trkpt>
      <trkpt lat="47.15458" lon="6.60935">
        <ele>538.2</ele>
        <time>2021-07-29T11:56:43Z</time>
      </trkpt>
      <trkpt lat="47.15456" lon="6.60934">
        <ele>538.2</ele>
        <time>2021-07-29T11:56:44Z</time>
      </trkpt>
      <trkpt lat="47.15454" lon="6.60933">
        <ele>538.2</ele>
        <time>2021-07-29T11:56:45Z</time>
      </trkpt>
      <trkpt lat="47.15452" lon="6.60933">
        <ele>538.2</ele>
        <time>2021-07-29T11:56:46Z</time>
      </trkpt>
      <trkpt lat="47.15451" lon="6.60932">
        <ele>538.2</ele>
        <time>2021-07-29T11:56:47Z</time>
      </trkpt>
      <trkpt lat="47.1545" lon="6.60932">
        <ele>538.2</ele>
        <time>2021-07-29T11:56:48Z</time>
      </trkpt>
      <trkpt lat="47.15448" lon="6.60931">
        <ele>538.2</ele>
        <time>2021-07-29T11:56:49Z</time>
      </trkpt>
      <trkpt lat="47.15447" lon="6.60931">
        <ele>538</ele>
        <time>2021-07-29T11:56:50Z</time>
      </trkpt>
      <trkpt lat="47.15447" lon="6.60931">
        <ele>538</ele>
        <time>2021-07-29T11:56:51Z</time>
      </trkpt>
      <trkpt lat="47.15446" lon="6.60931">
        <ele>537.8</ele>
        <time>2021-07-29T11:56:52Z</time>
      </trkpt>
      <trkpt lat="47.15446" lon="6.60931">
        <ele>537.8</ele>
        <time>2021-07-29T11:56:53Z</time>
      </trkpt>
      <trkpt lat="47.15446" lon="6.60931">
        <ele>537.8</ele>
        <time>2021-07-29T11:56:54Z</time>
      </trkpt>
      <trkpt lat="47.15446" lon="6.60932">
        <ele>537.8</ele>
        <time>2021-07-29T11:56:55Z</time>
      </trkpt>
      <trkpt lat="47.15446" lon="6.60932">
        <ele>537.8</ele>
        <time>2021-07-29T11:56:56Z</time>
      </trkpt>
      <trkpt lat="47.15445" lon="6.60932">
        <ele>537.8</ele>
        <time>2021-07-29T11:56:57Z</time>
      </trkpt>
      <trkpt lat="47.15445" lon="6.60932">
        <ele>537.8</ele>
        <time>2021-07-29T11:56:58Z</time>
      </trkpt>
      <trkpt lat="47.15433" lon="6.60927">
        <ele>538.2</ele>
        <time>2021-07-29T11:57:12Z</time>
      </trkpt>
      <trkpt lat="47.15432" lon="6.60927">
        <ele>538.4</ele>
        <time>2021-07-29T11:57:13Z</time>
      </trkpt>
      <trkpt lat="47.15431" lon="6.60927">
        <ele>538.4</ele>
        <time>2021-07-29T11:57:14Z</time>
      </trkpt>
      <trkpt lat="47.1543" lon="6.60926">
        <ele>538.4</ele>
        <time>2021-07-29T11:57:15Z</time>
      </trkpt>
      <trkpt lat="47.15427" lon="6.60925">
        <ele>538.4</ele>
        <time>2021-07-29T11:57:16Z</time>
      </trkpt>
      <trkpt lat="47.15426" lon="6.60925">
        <ele>538.4</ele>
        <time>2021-07-29T11:57:17Z</time>
      </trkpt>
      <trkpt lat="47.15424" lon="6.60925">
        <ele>538.4</ele>
        <time>2021-07-29T11:57:18Z</time>
      </trkpt>
      <trkpt lat="47.15422" lon="6.60924">
        <ele>538.4</ele>
        <time>2021-07-29T11:57:19Z</time>
      </trkpt>
      <trkpt lat="47.1542" lon="6.60925">
        <ele>538.4</ele>
        <time>2021-07-29T11:57:20Z</time>
      </trkpt>
      <trkpt lat="47.15419" lon="6.60925">
        <ele>538.4</ele>
        <time>2021-07-29T11:57:21Z</time>
      </trkpt>
      <trkpt lat="47.15417" lon="6.60925">
        <ele>538.4</ele>
        <time>2021-07-29T11:57:22Z</time>
      </trkpt>
      <trkpt lat="47.15415" lon="6.60925">
        <ele>538.4</ele>
        <time>2021-07-29T11:57:23Z</time>
      </trkpt>
      <trkpt lat="47.15412" lon="6.60925">
        <ele>538.2</ele>
        <time>2021-07-29T11:57:24Z</time>
      </trkpt>
      <trkpt lat="47.15409" lon="6.60925">
        <ele>538.2</ele>
        <time>2021-07-29T11:57:25Z</time>
      </trkpt>
      <trkpt lat="47.15407" lon="6.60924">
        <ele>538.2</ele>
        <time>2021-07-29T11:57:26Z</time>
      </trkpt>
      <trkpt lat="47.15404" lon="6.60924">
        <ele>538.2</ele>
        <time>2021-07-29T11:57:27Z</time>
      </trkpt>
      <trkpt lat="47.15403" lon="6.60924">
        <ele>538.2</ele>
        <time>2021-07-29T11:57:28Z</time>
      </trkpt>
      <trkpt lat="47.15401" lon="6.60925">
        <ele>538.2</ele>
        <time>2021-07-29T11:57:29Z</time>
      </trkpt>
      <trkpt lat="47.15399" lon="6.60925">
        <ele>538.4</ele>
        <time>2021-07-29T11:57:30Z</time>
      </trkpt>
      <trkpt lat="47.15397" lon="6.60927">
        <ele>538.4</ele>
        <time>2021-07-29T11:57:31Z</time>
      </trkpt>
      <trkpt lat="47.15396" lon="6.60928">
        <ele>538.4</ele>
        <time>2021-07-29T11:57:32Z</time>
      </trkpt>
      <trkpt lat="47.15395" lon="6.60929">
        <ele>538.4</ele>
        <time>2021-07-29T11:57:33Z</time>
      </trkpt>
      <trkpt lat="47.15393" lon="6.6093">
        <ele>538.6</ele>
        <time>2021-07-29T11:57:34Z</time>
      </trkpt>
      <trkpt lat="47.15391" lon="6.60931">
        <ele>538.6</ele>
        <time>2021-07-29T11:57:35Z</time>
      </trkpt>
      <trkpt lat="47.15389" lon="6.60934">
        <ele>538.8</ele>
        <time>2021-07-29T11:57:36Z</time>
      </trkpt>
      <trkpt lat="47.15388" lon="6.60936">
        <ele>539</ele>
        <time>2021-07-29T11:57:37Z</time>
      </trkpt>
      <trkpt lat="47.15386" lon="6.60939">
        <ele>539.4</ele>
        <time>2021-07-29T11:57:38Z</time>
      </trkpt>
      <trkpt lat="47.15384" lon="6.60941">
        <ele>539.8</ele>
        <time>2021-07-29T11:57:39Z</time>
      </trkpt>
      <trkpt lat="47.15383" lon="6.60943">
        <ele>540.4</ele>
        <time>2021-07-29T11:57:40Z</time>
      </trkpt>
      <trkpt lat="47.1538" lon="6.60945">
        <ele>540.6</ele>
        <time>2021-07-29T11:57:41Z</time>
      </trkpt>
      <trkpt lat="47.15379" lon="6.60946">
        <ele>540.8</ele>
        <time>2021-07-29T11:57:42Z</time>
      </trkpt>
      <trkpt lat="47.15377" lon="6.60946">
        <ele>541</ele>
        <time>2021-07-29T11:57:43Z</time>
      </trkpt>
      <trkpt lat="47.15375" lon="6.60947">
        <ele>541.2</ele>
        <time>2021-07-29T11:57:44Z</time>
      </trkpt>
      <trkpt lat="47.15374" lon="6.60947">
        <ele>541.2</ele>
        <time>2021-07-29T11:57:45Z</time>
      </trkpt>
      <trkpt lat="47.15373" lon="6.60947">
        <ele>541.2</ele>
        <time>2021-07-29T11:57:46Z</time>
      </trkpt>
      <trkpt lat="47.15371" lon="6.60947">
        <ele>541.2</ele>
        <time>2021-07-29T11:57:47Z</time>
      </trkpt>
      <trkpt lat="47.1537" lon="6.60948">
        <ele>541.2</ele>
        <time>2021-07-29T11:57:48Z</time>
      </trkpt>
      <trkpt lat="47.15368" lon="6.60947">
        <ele>541.2</ele>
        <time>2021-07-29T11:57:49Z</time>
      </trkpt>
      <trkpt lat="47.15366" lon="6.60947">
        <ele>541</ele>
        <time>2021-07-29T11:57:50Z</time>
      </trkpt>
      <trkpt lat="47.15365" lon="6.60947">
        <ele>541</ele>
        <time>2021-07-29T11:57:51Z</time>
      </trkpt>
      <trkpt lat="47.15364" lon="6.60947">
        <ele>541</ele>
        <time>2021-07-29T11:57:52Z</time>
      </trkpt>
      <trkpt lat="47.15364" lon="6.60946">
        <ele>541</ele>
        <time>2021-07-29T11:57:53Z</time>
      </trkpt>
      <trkpt lat="47.15363" lon="6.60946">
        <ele>541</ele>
        <time>2021-07-29T11:57:54Z</time>
      </trkpt>
      <trkpt lat="47.15362" lon="6.60946">
        <ele>541</ele>
        <time>2021-07-29T11:57:55Z</time>
      </trkpt>
      <trkpt lat="47.15361" lon="6.60945">
        <ele>541</ele>
        <time>2021-07-29T11:57:56Z</time>
      </trkpt>
      <trkpt lat="47.1536" lon="6.60945">
        <ele>541</ele>
        <time>2021-07-29T11:57:57Z</time>
      </trkpt>
      <trkpt lat="47.15359" lon="6.60945">
        <ele>541</ele>
        <time>2021-07-29T11:57:58Z</time>
      </trkpt>
      <trkpt lat="47.15339" lon="6.60948">
        <ele>539.6</ele>
        <time>2021-07-29T11:58:18Z</time>
      </trkpt>
      <trkpt lat="47.15337" lon="6.60948">
        <ele>539.6</ele>
        <time>2021-07-29T11:58:19Z</time>
      </trkpt>
      <trkpt lat="47.15335" lon="6.60948">
        <ele>539.8</ele>
        <time>2021-07-29T11:58:20Z</time>
      </trkpt>
      <trkpt lat="47.15334" lon="6.60948">
        <ele>539.8</ele>
        <time>2021-07-29T11:58:21Z</time>
      </trkpt>
      <trkpt lat="47.15332" lon="6.60947">
        <ele>540</ele>
        <time>2021-07-29T11:58:22Z</time>
      </trkpt>
      <trkpt lat="47.1533" lon="6.60947">
        <ele>540.2</ele>
        <time>2021-07-29T11:58:23Z</time>
      </trkpt>
      <trkpt lat="47.15329" lon="6.60946">
        <ele>540.4</ele>
        <time>2021-07-29T11:58:24Z</time>
      </trkpt>
      <trkpt lat="47.15327" lon="6.60945">
        <ele>540.6</ele>
        <time>2021-07-29T11:58:25Z</time>
      </trkpt>
      <trkpt lat="47.15326" lon="6.60944">
        <ele>540.6</ele>
        <time>2021-07-29T11:58:26Z</time>
      </trkpt>
      <trkpt lat="47.15325" lon="6.60944">
        <ele>540.8</ele>
        <time>2021-07-29T11:58:27Z</time>
      </trkpt>
      <trkpt lat="47.15324" lon="6.60944">
        <ele>541</ele>
        <time>2021-07-29T11:58:28Z</time>
      </trkpt>
      <trkpt lat="47.15322" lon="6.60944">
        <ele>541.2</ele>
        <time>2021-07-29T11:58:29Z</time>
      </trkpt>
      <trkpt lat="47.15321" lon="6.60945">
        <ele>541.4</ele>
        <time>2021-07-29T11:58:30Z</time>
      </trkpt>
      <trkpt lat="47.15319" lon="6.60946">
        <ele>541.4</ele>
        <time>2021-07-29T11:58:31Z</time>
      </trkpt>
      <trkpt lat="47.15317" lon="6.60947">
        <ele>541.8</ele>
        <time>2021-07-29T11:58:32Z</time>
      </trkpt>
      <trkpt lat="47.15315" lon="6.60949">
        <ele>542.4</ele>
        <time>2021-07-29T11:58:33Z</time>
      </trkpt>
      <trkpt lat="47.15313" lon="6.60949">
        <ele>542.8</ele>
        <time>2021-07-29T11:58:34Z</time>
      </trkpt>
      <trkpt lat="47.15311" lon="6.6095">
        <ele>543.4</ele>
        <time>2021-07-29T11:58:35Z</time>
      </trkpt>
      <trkpt lat="47.1531" lon="6.60951">
        <ele>543.8</ele>
        <time>2021-07-29T11:58:36Z</time>
      </trkpt>
      <trkpt lat="47.15309" lon="6.60951">
        <ele>544.2</ele>
        <time>2021-07-29T11:58:37Z</time>
      </trkpt>
      <trkpt lat="47.15308" lon="6.6095">
        <ele>544.4</ele>
        <time>2021-07-29T11:58:38Z</time>
      </trkpt>
      <trkpt lat="47.15308" lon="6.60951">
        <ele>544.4</ele>
        <time>2021-07-29T11:58:39Z</time>
      </trkpt>
      <trkpt lat="47.15307" lon="6.6095">
        <ele>544.6</ele>
        <time>2021-07-29T11:58:40Z</time>
      </trkpt>
      <trkpt lat="47.15307" lon="6.6095">
        <ele>544.6</ele>
        <time>2021-07-29T11:58:41Z</time>
      </trkpt>
      <trkpt lat="47.15306" lon="6.60951">
        <ele>544.8</ele>
        <time>2021-07-29T11:58:42Z</time>
      </trkpt>
      <trkpt lat="47.15306" lon="6.60951">
        <ele>545</ele>
        <time>2021-07-29T11:58:43Z</time>
      </trkpt>
      <trkpt lat="47.15306" lon="6.60952">
        <ele>545</ele>
        <time>2021-07-29T11:58:44Z</time>
      </trkpt>
      <trkpt lat="47.15305" lon="6.60952">
        <ele>545.2</ele>
        <time>2021-07-29T11:58:45Z</time>
      </trkpt>
      <trkpt lat="47.15289" lon="6.60961">
        <ele>546.8</ele>
        <time>2021-07-29T11:58:59Z</time>
      </trkpt>
      <trkpt lat="47.15288" lon="6.60962">
        <ele>547</ele>
        <time>2021-07-29T11:59:00Z</time>
      </trkpt>
      <trkpt lat="47.15286" lon="6.60962">
        <ele>547.2</ele>
        <time>2021-07-29T11:59:01Z</time>
      </trkpt>
      <trkpt lat="47.15285" lon="6.60963">
        <ele>547.4</ele>
        <time>2021-07-29T11:59:02Z</time>
      </trkpt>
      <trkpt lat="47.15284" lon="6.60963">
        <ele>547.4</ele>
        <time>2021-07-29T11:59:03Z</time>
      </trkpt>
      <trkpt lat="47.15283" lon="6.60964">
        <ele>547.6</ele>
        <time>2021-07-29T11:59:04Z</time>
      </trkpt>
      <trkpt lat="47.15281" lon="6.60964">
        <ele>547.8</ele>
        <time>2021-07-29T11:59:05Z</time>
      </trkpt>
      <trkpt lat="47.1528" lon="6.60964">
        <ele>547.8</ele>
        <time>2021-07-29T11:59:06Z</time>
      </trkpt>
      <trkpt lat="47.15279" lon="6.60965">
        <ele>548</ele>
        <time>2021-07-29T11:59:07Z</time>
      </trkpt>
      <trkpt lat="47.15277" lon="6.60966">
        <ele>548.2</ele>
        <time>2021-07-29T11:59:08Z</time>
      </trkpt>
      <trkpt lat="47.15276" lon="6.60966">
        <ele>548.2</ele>
        <time>2021-07-29T11:59:09Z</time>
      </trkpt>
      <trkpt lat="47.15275" lon="6.60967">
        <ele>548.4</ele>
        <time>2021-07-29T11:59:10Z</time>
      </trkpt>
      <trkpt lat="47.15273" lon="6.60968">
        <ele>548.6</ele>
        <time>2021-07-29T11:59:11Z</time>
      </trkpt>
      <trkpt lat="47.15272" lon="6.60969">
        <ele>548.6</ele>
        <time>2021-07-29T11:59:12Z</time>
      </trkpt>
      <trkpt lat="47.15271" lon="6.6097">
        <ele>548.8</ele>
        <time>2021-07-29T11:59:13Z</time>
      </trkpt>
      <trkpt lat="47.1527" lon="6.60972">
        <ele>549</ele>
        <time>2021-07-29T11:59:14Z</time>
      </trkpt>
      <trkpt lat="47.15269" lon="6.60974">
        <ele>549.2</ele>
        <time>2021-07-29T11:59:15Z</time>
      </trkpt>
      <trkpt lat="47.15267" lon="6.60975">
        <ele>549.4</ele>
        <time>2021-07-29T11:59:16Z</time>
      </trkpt>
      <trkpt lat="47.15266" lon="6.60976">
        <ele>549.6</ele>
        <time>2021-07-29T11:59:17Z</time>
      </trkpt>
      <trkpt lat="47.15265" lon="6.60977">
        <ele>549.6</ele>
        <time>2021-07-29T11:59:18Z</time>
      </trkpt>
      <trkpt lat="47.15264" lon="6.60978">
        <ele>549.8</ele>
        <time>2021-07-29T11:59:19Z</time>
      </trkpt>
      <trkpt lat="47.15262" lon="6.60978">
        <ele>549.8</ele>
        <time>2021-07-29T11:59:20Z</time>
      </trkpt>
      <trkpt lat="47.15261" lon="6.6098">
        <ele>549.8</ele>
        <time>2021-07-29T11:59:21Z</time>
      </trkpt>
      <trkpt lat="47.1526" lon="6.6098">
        <ele>550</ele>
        <time>2021-07-29T11:59:22Z</time>
      </trkpt>
      <trkpt lat="47.1526" lon="6.60981">
        <ele>550</ele>
        <time>2021-07-29T11:59:23Z</time>
      </trkpt>
      <trkpt lat="47.1526" lon="6.60981">
        <ele>550</ele>
        <time>2021-07-29T11:59:24Z</time>
      </trkpt>
      <trkpt lat="47.1526" lon="6.60981">
        <ele>550</ele>
        <time>2021-07-29T11:59:25Z</time>
      </trkpt>
      <trkpt lat="47.15259" lon="6.60982">
        <ele>550</ele>
        <time>2021-07-29T11:59:26Z</time>
      </trkpt>
      <trkpt lat="47.15259" lon="6.60982">
        <ele>550</ele>
        <time>2021-07-29T11:59:27Z</time>
      </trkpt>
      <trkpt lat="47.15259" lon="6.60983">
        <ele>550</ele>
        <time>2021-07-29T11:59:28Z</time>
      </trkpt>
      <trkpt lat="47.15259" lon="6.60983">
        <ele>550</ele>
        <time>2021-07-29T11:59:29Z</time>
      </trkpt>
      <trkpt lat="47.15258" lon="6.60983">
        <ele>550</ele>
        <time>2021-07-29T11:59:30Z</time>
      </trkpt>
      <trkpt lat="47.15253" lon="6.61003">
        <ele>550.6</ele>
        <time>2021-07-29T11:59:56Z</time>
      </trkpt>
      <trkpt lat="47.15252" lon="6.61004">
        <ele>550.8</ele>
        <time>2021-07-29T11:59:57Z</time>
      </trkpt>
      <trkpt lat="47.15251" lon="6.61005">
        <ele>551</ele>
        <time>2021-07-29T11:59:58Z</time>
      </trkpt>
      <trkpt lat="47.15249" lon="6.61005">
        <ele>551.2</ele>
        <time>2021-07-29T11:59:59Z</time>
      </trkpt>
      <trkpt lat="47.15248" lon="6.61007">
        <ele>551.4</ele>
        <time>2021-07-29T12:00:00Z</time>
      </trkpt>
      <trkpt lat="47.15246" lon="6.61007">
        <ele>551.6</ele>
        <time>2021-07-29T12:00:01Z</time>
      </trkpt>
      <trkpt lat="47.15245" lon="6.6101">
        <ele>551.8</ele>
        <time>2021-07-29T12:00:02Z</time>
      </trkpt>
      <trkpt lat="47.15244" lon="6.61011">
        <ele>552</ele>
        <time>2021-07-29T12:00:03Z</time>
      </trkpt>
      <trkpt lat="47.15243" lon="6.61011">
        <ele>552.2</ele>
        <time>2021-07-29T12:00:04Z</time>
      </trkpt>
      <trkpt lat="47.15242" lon="6.61012">
        <ele>552.2</ele>
        <time>2021-07-29T12:00:05Z</time>
      </trkpt>
      <trkpt lat="47.15241" lon="6.61013">
        <ele>552.4</ele>
        <time>2021-07-29T12:00:06Z</time>
      </trkpt>
      <trkpt lat="47.1524" lon="6.61014">
        <ele>552.4</ele>
        <time>2021-07-29T12:00:07Z</time>
      </trkpt>
      <trkpt lat="47.15239" lon="6.61015">
        <ele>552.6</ele>
        <time>2021-07-29T12:00:08Z</time>
      </trkpt>
      <trkpt lat="47.15238" lon="6.61017">
        <ele>552.6</ele>
        <time>2021-07-29T12:00:09Z</time>
      </trkpt>
      <trkpt lat="47.15237" lon="6.61018">
        <ele>552.8</ele>
        <time>2021-07-29T12:00:10Z</time>
      </trkpt>
      <trkpt lat="47.15236" lon="6.61019">
        <ele>553</ele>
        <time>2021-07-29T12:00:11Z</time>
      </trkpt>
      <trkpt lat="47.15235" lon="6.61019">
        <ele>553</ele>
        <time>2021-07-29T12:00:12Z</time>
      </trkpt>
      <trkpt lat="47.15234" lon="6.6102">
        <ele>553.2</ele>
        <time>2021-07-29T12:00:13Z</time>
      </trkpt>
      <trkpt lat="47.15234" lon="6.6102">
        <ele>553.4</ele>
        <time>2021-07-29T12:00:14Z</time>
      </trkpt>
      <trkpt lat="47.15232" lon="6.61021">
        <ele>553.4</ele>
        <time>2021-07-29T12:00:15Z</time>
      </trkpt>
      <trkpt lat="47.15231" lon="6.61021">
        <ele>553.4</ele>
        <time>2021-07-29T12:00:16Z</time>
      </trkpt>
      <trkpt lat="47.15229" lon="6.61021">
        <ele>553.6</ele>
        <time>2021-07-29T12:00:17Z</time>
      </trkpt>
      <trkpt lat="47.15228" lon="6.61022">
        <ele>553.6</ele>
        <time>2021-07-29T12:00:18Z</time>
      </trkpt>
      <trkpt lat="47.15227" lon="6.61022">
        <ele>553.6</ele>
        <time>2021-07-29T12:00:19Z</time>
      </trkpt>
      <trkpt lat="47.15226" lon="6.61021">
        <ele>553.8</ele>
        <time>2021-07-29T12:00:20Z</time>
      </trkpt>
      <trkpt lat="47.15224" lon="6.61022">
        <ele>553.8</ele>
        <time>2021-07-29T12:00:21Z</time>
      </trkpt>
      <trkpt lat="47.15223" lon="6.61022">
        <ele>554</ele>
        <time>2021-07-29T12:00:22Z</time>
      </trkpt>
      <trkpt lat="47.15221" lon="6.61022">
        <ele>554</ele>
        <time>2021-07-29T12:00:23Z</time>
      </trkpt>
      <trkpt lat="47.1522" lon="6.61022">
        <ele>554.2</ele>
        <time>2021-07-29T12:00:24Z</time>
      </trkpt>
      <trkpt lat="47.15219" lon="6.61022">
        <ele>554.4</ele>
        <time>2021-07-29T12:00:25Z</time>
      </trkpt>
      <trkpt lat="47.15218" lon="6.61022">
        <ele>554.4</ele>
        <time>2021-07-29T12:00:26Z</time>
      </trkpt>
      <trkpt lat="47.15217" lon="6.61022">
        <ele>554.4</ele>
        <time>2021-07-29T12:00:27Z</time>
      </trkpt>
      <trkpt lat="47.15215" lon="6.61022">
        <ele>554.4</ele>
        <time>2021-07-29T12:00:28Z</time>
      </trkpt>
      <trkpt lat="47.15214" lon="6.61022">
        <ele>554.4</ele>
        <time>2021-07-29T12:00:29Z</time>
      </trkpt>
      <trkpt lat="47.15213" lon="6.61022">
        <ele>554.6</ele>
        <time>2021-07-29T12:00:30Z</time>
      </trkpt>
      <trkpt lat="47.15211" lon="6.61022">
        <ele>554.6</ele>
        <time>2021-07-29T12:00:31Z</time>
      </trkpt>
      <trkpt lat="47.1521" lon="6.61022">
        <ele>554.6</ele>
        <time>2021-07-29T12:00:32Z</time>
      </trkpt>
      <trkpt lat="47.15209" lon="6.61022">
        <ele>554.6</ele>
        <time>2021-07-29T12:00:33Z</time>
      </trkpt>
      <trkpt lat="47.15208" lon="6.61022">
        <ele>554.8</ele>
        <time>2021-07-29T12:00:34Z</time>
      </trkpt>
      <trkpt lat="47.15207" lon="6.61022">
        <ele>554.6</ele>
        <time>2021-07-29T12:00:35Z</time>
      </trkpt>
      <trkpt lat="47.15205" lon="6.61022">
        <ele>554.6</ele>
        <time>2021-07-29T12:00:36Z</time>
      </trkpt>
      <trkpt lat="47.15205" lon="6.61022">
        <ele>554.6</ele>
        <time>2021-07-29T12:00:37Z</time>
      </trkpt>
      <trkpt lat="47.15204" lon="6.61022">
        <ele>554.4</ele>
        <time>2021-07-29T12:00:38Z</time>
      </trkpt>
      <trkpt lat="47.15203" lon="6.61022">
        <ele>554.6</ele>
        <time>2021-07-29T12:00:39Z</time>
      </trkpt>
      <trkpt lat="47.15201" lon="6.61023">
        <ele>554.6</ele>
        <time>2021-07-29T12:00:40Z</time>
      </trkpt>
      <trkpt lat="47.15199" lon="6.61023">
        <ele>554.8</ele>
        <time>2021-07-29T12:00:41Z</time>
      </trkpt>
      <trkpt lat="47.15198" lon="6.61023">
        <ele>555</ele>
        <time>2021-07-29T12:00:42Z</time>
      </trkpt>
      <trkpt lat="47.15196" lon="6.61024">
        <ele>555</ele>
        <time>2021-07-29T12:00:43Z</time>
      </trkpt>
      <trkpt lat="47.15194" lon="6.61024">
        <ele>555.2</ele>
        <time>2021-07-29T12:00:44Z</time>
      </trkpt>
      <trkpt lat="47.15193" lon="6.61023">
        <ele>555.2</ele>
        <time>2021-07-29T12:00:45Z</time>
      </trkpt>
      <trkpt lat="47.15192" lon="6.61023">
        <ele>555.4</ele>
        <time>2021-07-29T12:00:46Z</time>
      </trkpt>
      <trkpt lat="47.15191" lon="6.61023">
        <ele>555.4</ele>
        <time>2021-07-29T12:00:47Z</time>
      </trkpt>
      <trkpt lat="47.15189" lon="6.61023">
        <ele>555.6</ele>
        <time>2021-07-29T12:00:48Z</time>
      </trkpt>
      <trkpt lat="47.15188" lon="6.61023">
        <ele>555.6</ele>
        <time>2021-07-29T12:00:49Z</time>
      </trkpt>
      <trkpt lat="47.15187" lon="6.61023">
        <ele>555.6</ele>
        <time>2021-07-29T12:00:50Z</time>
      </trkpt>
      <trkpt lat="47.15185" lon="6.61023">
        <ele>555.6</ele>
        <time>2021-07-29T12:00:51Z</time>
      </trkpt>
      <trkpt lat="47.15183" lon="6.61023">
        <ele>555.4</ele>
        <time>2021-07-29T12:00:52Z</time>
      </trkpt>
      <trkpt lat="47.15181" lon="6.61023">
        <ele>555.4</ele>
        <time>2021-07-29T12:00:53Z</time>
      </trkpt>
      <trkpt lat="47.15179" lon="6.61024">
        <ele>555.4</ele>
        <time>2021-07-29T12:00:54Z</time>
      </trkpt>
      <trkpt lat="47.15177" lon="6.61024">
        <ele>555.4</ele>
        <time>2021-07-29T12:00:55Z</time>
      </trkpt>
      <trkpt lat="47.15175" lon="6.61024">
        <ele>555.4</ele>
        <time>2021-07-29T12:00:56Z</time>
      </trkpt>
      <trkpt lat="47.15174" lon="6.61024">
        <ele>555.6</ele>
        <time>2021-07-29T12:00:57Z</time>
      </trkpt>
      <trkpt lat="47.15172" lon="6.61024">
        <ele>555.8</ele>
        <time>2021-07-29T12:00:58Z</time>
      </trkpt>
      <trkpt lat="47.1517" lon="6.61024">
        <ele>556</ele>
        <time>2021-07-29T12:00:59Z</time>
      </trkpt>
      <trkpt lat="47.15168" lon="6.61024">
        <ele>556.2</ele>
        <time>2021-07-29T12:01:00Z</time>
      </trkpt>
      <trkpt lat="47.15167" lon="6.61024">
        <ele>556.4</ele>
        <time>2021-07-29T12:01:01Z</time>
      </trkpt>
      <trkpt lat="47.15165" lon="6.61023">
        <ele>556.6</ele>
        <time>2021-07-29T12:01:02Z</time>
      </trkpt>
      <trkpt lat="47.15163" lon="6.61023">
        <ele>556.8</ele>
        <time>2021-07-29T12:01:03Z</time>
      </trkpt>
      <trkpt lat="47.15162" lon="6.61023">
        <ele>556.8</ele>
        <time>2021-07-29T12:01:04Z</time>
      </trkpt>
      <trkpt lat="47.15161" lon="6.61023">
        <ele>557</ele>
        <time>2021-07-29T12:01:05Z</time>
      </trkpt>
      <trkpt lat="47.15161" lon="6.61023">
        <ele>557</ele>
        <time>2021-07-29T12:01:06Z</time>
      </trkpt>
      <trkpt lat="47.15158" lon="6.61023">
        <ele>557</ele>
        <time>2021-07-29T12:01:07Z</time>
      </trkpt>
      <trkpt lat="47.15157" lon="6.61023">
        <ele>557</ele>
        <time>2021-07-29T12:01:08Z</time>
      </trkpt>
      <trkpt lat="47.15155" lon="6.61023">
        <ele>557</ele>
        <time>2021-07-29T12:01:09Z</time>
      </trkpt>
      <trkpt lat="47.15154" lon="6.61023">
        <ele>557.2</ele>
        <time>2021-07-29T12:01:10Z</time>
      </trkpt>
      <trkpt lat="47.15152" lon="6.61023">
        <ele>557.2</ele>
        <time>2021-07-29T12:01:11Z</time>
      </trkpt>
      <trkpt lat="47.1515" lon="6.61022">
        <ele>557.2</ele>
        <time>2021-07-29T12:01:12Z</time>
      </trkpt>
      <trkpt lat="47.15149" lon="6.61022">
        <ele>557.2</ele>
        <time>2021-07-29T12:01:13Z</time>
      </trkpt>
      <trkpt lat="47.15147" lon="6.61021">
        <ele>557.2</ele>
        <time>2021-07-29T12:01:14Z</time>
      </trkpt>
      <trkpt lat="47.15145" lon="6.61021">
        <ele>557.4</ele>
        <time>2021-07-29T12:01:15Z</time>
      </trkpt>
      <trkpt lat="47.15144" lon="6.61021">
        <ele>557.6</ele>
        <time>2021-07-29T12:01:16Z</time>
      </trkpt>
      <trkpt lat="47.15142" lon="6.6102">
        <ele>557.6</ele>
        <time>2021-07-29T12:01:17Z</time>
      </trkpt>
      <trkpt lat="47.1514" lon="6.6102">
        <ele>557.8</ele>
        <time>2021-07-29T12:01:18Z</time>
      </trkpt>
      <trkpt lat="47.15139" lon="6.6102">
        <ele>557.8</ele>
        <time>2021-07-29T12:01:19Z</time>
      </trkpt>
      <trkpt lat="47.15137" lon="6.61019">
        <ele>558</ele>
        <time>2021-07-29T12:01:20Z</time>
      </trkpt>
      <trkpt lat="47.15136" lon="6.61019">
        <ele>558.2</ele>
        <time>2021-07-29T12:01:21Z</time>
      </trkpt>
      <trkpt lat="47.15135" lon="6.61018">
        <ele>558.2</ele>
        <time>2021-07-29T12:01:22Z</time>
      </trkpt>
      <trkpt lat="47.15134" lon="6.61018">
        <ele>558.4</ele>
        <time>2021-07-29T12:01:23Z</time>
      </trkpt>
      <trkpt lat="47.15133" lon="6.61017">
        <ele>558.4</ele>
        <time>2021-07-29T12:01:24Z</time>
      </trkpt>
      <trkpt lat="47.15132" lon="6.61017">
        <ele>558.4</ele>
        <time>2021-07-29T12:01:25Z</time>
      </trkpt>
      <trkpt lat="47.15131" lon="6.61016">
        <ele>558.6</ele>
        <time>2021-07-29T12:01:26Z</time>
      </trkpt>
      <trkpt lat="47.1513" lon="6.61016">
        <ele>558.6</ele>
        <time>2021-07-29T12:01:27Z</time>
      </trkpt>
      <trkpt lat="47.15129" lon="6.61016">
        <ele>558.8</ele>
        <time>2021-07-29T12:01:28Z</time>
      </trkpt>
      <trkpt lat="47.15128" lon="6.61017">
        <ele>559</ele>
        <time>2021-07-29T12:01:29Z</time>
      </trkpt>
      <trkpt lat="47.15128" lon="6.61017">
        <ele>559</ele>
        <time>2021-07-29T12:01:30Z</time>
      </trkpt>
      <trkpt lat="47.15128" lon="6.61017">
        <ele>559</ele>
        <time>2021-07-29T12:01:31Z</time>
      </trkpt>
      <trkpt lat="47.15128" lon="6.61017">
        <ele>559</ele>
        <time>2021-07-29T12:01:32Z</time>
      </trkpt>
      <trkpt lat="47.15128" lon="6.61017">
        <ele>559</ele>
        <time>2021-07-29T12:01:33Z</time>
      </trkpt>
      <trkpt lat="47.15128" lon="6.61017">
        <ele>559</ele>
        <time>2021-07-29T12:01:34Z</time>
      </trkpt>
      <trkpt lat="47.15129" lon="6.61017">
        <ele>559</ele>
        <time>2021-07-29T12:01:35Z</time>
      </trkpt>
      <trkpt lat="47.15129" lon="6.61018">
        <ele>559</ele>
        <time>2021-07-29T12:01:36Z</time>
      </trkpt>
      <trkpt lat="47.15133" lon="6.61023">
        <ele>557.4</ele>
        <time>2021-07-29T12:14:06Z</time>
      </trkpt>
      <trkpt lat="47.15136" lon="6.61023">
        <ele>557.4</ele>
        <time>2021-07-29T12:14:07Z</time>
      </trkpt>
      <trkpt lat="47.15138" lon="6.61023">
        <ele>557.2</ele>
        <time>2021-07-29T12:14:08Z</time>
      </trkpt>
      <trkpt lat="47.1514" lon="6.61023">
        <ele>557.2</ele>
        <time>2021-07-29T12:14:09Z</time>
      </trkpt>
      <trkpt lat="47.15142" lon="6.61023">
        <ele>557.2</ele>
        <time>2021-07-29T12:14:10Z</time>
      </trkpt>
      <trkpt lat="47.15145" lon="6.61024">
        <ele>557</ele>
        <time>2021-07-29T12:14:11Z</time>
      </trkpt>
      <trkpt lat="47.15147" lon="6.61023">
        <ele>556.6</ele>
        <time>2021-07-29T12:14:12Z</time>
      </trkpt>
      <trkpt lat="47.15149" lon="6.61024">
        <ele>556.2</ele>
        <time>2021-07-29T12:14:13Z</time>
      </trkpt>
      <trkpt lat="47.15151" lon="6.61024">
        <ele>556</ele>
        <time>2021-07-29T12:14:14Z</time>
      </trkpt>
      <trkpt lat="47.15153" lon="6.61025">
        <ele>555.8</ele>
        <time>2021-07-29T12:14:15Z</time>
      </trkpt>
      <trkpt lat="47.15155" lon="6.61024">
        <ele>555.6</ele>
        <time>2021-07-29T12:14:16Z</time>
      </trkpt>
      <trkpt lat="47.15156" lon="6.61024">
        <ele>555.6</ele>
        <time>2021-07-29T12:14:17Z</time>
      </trkpt>
      <trkpt lat="47.15156" lon="6.61024">
        <ele>555.6</ele>
        <time>2021-07-29T12:14:18Z</time>
      </trkpt>
      <trkpt lat="47.15156" lon="6.61024">
        <ele>555.4</ele>
        <time>2021-07-29T12:14:19Z</time>
      </trkpt>
      <trkpt lat="47.15156" lon="6.61024">
        <ele>555.6</ele>
        <time>2021-07-29T12:14:20Z</time>
      </trkpt>
      <trkpt lat="47.15156" lon="6.61024">
        <ele>555.6</ele>
        <time>2021-07-29T12:14:21Z</time>
      </trkpt>
      <trkpt lat="47.15156" lon="6.61025">
        <ele>555.6</ele>
        <time>2021-07-29T12:14:22Z</time>
      </trkpt>
      <trkpt lat="47.15156" lon="6.61025">
        <ele>555.6</ele>
        <time>2021-07-29T12:14:23Z</time>
      </trkpt>
      <trkpt lat="47.15157" lon="6.61024">
        <ele>555.4</ele>
        <time>2021-07-29T12:14:24Z</time>
      </trkpt>
      <trkpt lat="47.15157" lon="6.61024">
        <ele>555.4</ele>
        <time>2021-07-29T12:14:25Z</time>
      </trkpt>
      <trkpt lat="47.15176" lon="6.61028">
        <ele>552.4</ele>
        <time>2021-07-29T12:17:47Z</time>
      </trkpt>
      <trkpt lat="47.15179" lon="6.61028">
        <ele>552.2</ele>
        <time>2021-07-29T12:17:48Z</time>
      </trkpt>
      <trkpt lat="47.15182" lon="6.61028">
        <ele>552</ele>
        <time>2021-07-29T12:17:49Z</time>
      </trkpt>
      <trkpt lat="47.15185" lon="6.61028">
        <ele>552</ele>
        <time>2021-07-29T12:17:50Z</time>
      </trkpt>
      <trkpt lat="47.15188" lon="6.61028">
        <ele>552</ele>
        <time>2021-07-29T12:17:51Z</time>
      </trkpt>
      <trkpt lat="47.15191" lon="6.61028">
        <ele>552</ele>
        <time>2021-07-29T12:17:52Z</time>
      </trkpt>
      <trkpt lat="47.15193" lon="6.61029">
        <ele>552.2</ele>
        <time>2021-07-29T12:17:53Z</time>
      </trkpt>
      <trkpt lat="47.15196" lon="6.61029">
        <ele>552</ele>
        <time>2021-07-29T12:17:54Z</time>
      </trkpt>
      <trkpt lat="47.15198" lon="6.61028">
        <ele>551.8</ele>
        <time>2021-07-29T12:17:55Z</time>
      </trkpt>
      <trkpt lat="47.15201" lon="6.61028">
        <ele>551.8</ele>
        <time>2021-07-29T12:17:56Z</time>
      </trkpt>
      <trkpt lat="47.15204" lon="6.61026">
        <ele>551.6</ele>
        <time>2021-07-29T12:17:57Z</time>
      </trkpt>
      <trkpt lat="47.15207" lon="6.61025">
        <ele>551.6</ele>
        <time>2021-07-29T12:17:58Z</time>
      </trkpt>
      <trkpt lat="47.1521" lon="6.61024">
        <ele>551.2</ele>
        <time>2021-07-29T12:17:59Z</time>
      </trkpt>
      <trkpt lat="47.15214" lon="6.61023">
        <ele>551</ele>
        <time>2021-07-29T12:18:00Z</time>
      </trkpt>
      <trkpt lat="47.15217" lon="6.61022">
        <ele>551</ele>
        <time>2021-07-29T12:18:01Z</time>
      </trkpt>
      <trkpt lat="47.15219" lon="6.6102">
        <ele>550.8</ele>
        <time>2021-07-29T12:18:02Z</time>
      </trkpt>
      <trkpt lat="47.15222" lon="6.61018">
        <ele>550.4</ele>
        <time>2021-07-29T12:18:03Z</time>
      </trkpt>
      <trkpt lat="47.15224" lon="6.61015">
        <ele>550.2</ele>
        <time>2021-07-29T12:18:04Z</time>
      </trkpt>
      <trkpt lat="47.15227" lon="6.61014">
        <ele>549.8</ele>
        <time>2021-07-29T12:18:05Z</time>
      </trkpt>
      <trkpt lat="47.15228" lon="6.61013">
        <ele>549.6</ele>
        <time>2021-07-29T12:18:06Z</time>
      </trkpt>
      <trkpt lat="47.1523" lon="6.61009">
        <ele>549.4</ele>
        <time>2021-07-29T12:18:07Z</time>
      </trkpt>
      <trkpt lat="47.15233" lon="6.61006">
        <ele>548.8</ele>
        <time>2021-07-29T12:18:08Z</time>
      </trkpt>
      <trkpt lat="47.15235" lon="6.61002">
        <ele>548.2</ele>
        <time>2021-07-29T12:18:09Z</time>
      </trkpt>
      <trkpt lat="47.15238" lon="6.60999">
        <ele>547.8</ele>
        <time>2021-07-29T12:18:10Z</time>
      </trkpt>
      <trkpt lat="47.1524" lon="6.60995">
        <ele>547.6</ele>
        <time>2021-07-29T12:18:11Z</time>
      </trkpt>
      <trkpt lat="47.15242" lon="6.60992">
        <ele>547.6</ele>
        <time>2021-07-29T12:18:12Z</time>
      </trkpt>
      <trkpt lat="47.15244" lon="6.60989">
        <ele>547.6</ele>
        <time>2021-07-29T12:18:13Z</time>
      </trkpt>
      <trkpt lat="47.15245" lon="6.60987">
        <ele>547.4</ele>
        <time>2021-07-29T12:18:14Z</time>
      </trkpt>
      <trkpt lat="47.15247" lon="6.60985">
        <ele>547.2</ele>
        <time>2021-07-29T12:18:15Z</time>
      </trkpt>
      <trkpt lat="47.15249" lon="6.60982">
        <ele>546.6</ele>
        <time>2021-07-29T12:18:16Z</time>
      </trkpt>
      <trkpt lat="47.15253" lon="6.6098">
        <ele>546.4</ele>
        <time>2021-07-29T12:18:17Z</time>
      </trkpt>
      <trkpt lat="47.15256" lon="6.60978">
        <ele>546</ele>
        <time>2021-07-29T12:18:18Z</time>
      </trkpt>
      <trkpt lat="47.15259" lon="6.60977">
        <ele>545.6</ele>
        <time>2021-07-29T12:18:19Z</time>
      </trkpt>
      <trkpt lat="47.15261" lon="6.60976">
        <ele>545.4</ele>
        <time>2021-07-29T12:18:20Z</time>
      </trkpt>
      <trkpt lat="47.15264" lon="6.60975">
        <ele>544.8</ele>
        <time>2021-07-29T12:18:21Z</time>
      </trkpt>
      <trkpt lat="47.15268" lon="6.60974">
        <ele>544.6</ele>
        <time>2021-07-29T12:18:22Z</time>
      </trkpt>
      <trkpt lat="47.1527" lon="6.60973">
        <ele>544.4</ele>
        <time>2021-07-29T12:18:23Z</time>
      </trkpt>
      <trkpt lat="47.15273" lon="6.60972">
        <ele>544.2</ele>
        <time>2021-07-29T12:18:24Z</time>
      </trkpt>
      <trkpt lat="47.15275" lon="6.60971">
        <ele>543.8</ele>
        <time>2021-07-29T12:18:25Z</time>
      </trkpt>
      <trkpt lat="47.15277" lon="6.6097">
        <ele>543.4</ele>
        <time>2021-07-29T12:18:26Z</time>
      </trkpt>
      <trkpt lat="47.15279" lon="6.60969">
        <ele>543.2</ele>
        <time>2021-07-29T12:18:27Z</time>
      </trkpt>
      <trkpt lat="47.1528" lon="6.60968">
        <ele>542.8</ele>
        <time>2021-07-29T12:18:28Z</time>
      </trkpt>
      <trkpt lat="47.15282" lon="6.60968">
        <ele>542.4</ele>
        <time>2021-07-29T12:18:29Z</time>
      </trkpt>
      <trkpt lat="47.15283" lon="6.60967">
        <ele>542</ele>
        <time>2021-07-29T12:18:30Z</time>
      </trkpt>
      <trkpt lat="47.15285" lon="6.60965">
        <ele>541.6</ele>
        <time>2021-07-29T12:18:31Z</time>
      </trkpt>
      <trkpt lat="47.15288" lon="6.60963">
        <ele>541</ele>
        <time>2021-07-29T12:18:32Z</time>
      </trkpt>
      <trkpt lat="47.15291" lon="6.60962">
        <ele>540.6</ele>
        <time>2021-07-29T12:18:33Z</time>
      </trkpt>
      <trkpt lat="47.15293" lon="6.6096">
        <ele>540</ele>
        <time>2021-07-29T12:18:34Z</time>
      </trkpt>
      <trkpt lat="47.15295" lon="6.60958">
        <ele>539.6</ele>
        <time>2021-07-29T12:18:35Z</time>
      </trkpt>
      <trkpt lat="47.15297" lon="6.60957">
        <ele>539.4</ele>
        <time>2021-07-29T12:18:36Z</time>
      </trkpt>
      <trkpt lat="47.153" lon="6.60956">
        <ele>539.2</ele>
        <time>2021-07-29T12:18:37Z</time>
      </trkpt>
      <trkpt lat="47.15302" lon="6.60955">
        <ele>539</ele>
        <time>2021-07-29T12:18:38Z</time>
      </trkpt>
      <trkpt lat="47.15305" lon="6.60955">
        <ele>538.8</ele>
        <time>2021-07-29T12:18:39Z</time>
      </trkpt>
      <trkpt lat="47.15307" lon="6.60956">
        <ele>538.6</ele>
        <time>2021-07-29T12:18:40Z</time>
      </trkpt>
      <trkpt lat="47.15309" lon="6.60956">
        <ele>538.4</ele>
        <time>2021-07-29T12:18:41Z</time>
      </trkpt>
      <trkpt lat="47.1531" lon="6.60957">
        <ele>538.4</ele>
        <time>2021-07-29T12:18:42Z</time>
      </trkpt>
      <trkpt lat="47.15312" lon="6.60958">
        <ele>538.2</ele>
        <time>2021-07-29T12:18:43Z</time>
      </trkpt>
      <trkpt lat="47.15313" lon="6.60958">
        <ele>538</ele>
        <time>2021-07-29T12:18:44Z</time>
      </trkpt>
      <trkpt lat="47.15315" lon="6.60959">
        <ele>538</ele>
        <time>2021-07-29T12:18:45Z</time>
      </trkpt>
      <trkpt lat="47.15317" lon="6.60959">
        <ele>537.8</ele>
        <time>2021-07-29T12:18:46Z</time>
      </trkpt>
      <trkpt lat="47.15319" lon="6.60959">
        <ele>537.6</ele>
        <time>2021-07-29T12:18:47Z</time>
      </trkpt>
      <trkpt lat="47.15321" lon="6.60958">
        <ele>537.6</ele>
        <time>2021-07-29T12:18:48Z</time>
      </trkpt>
      <trkpt lat="47.15323" lon="6.60958">
        <ele>537.4</ele>
        <time>2021-07-29T12:18:49Z</time>
      </trkpt>
      <trkpt lat="47.15325" lon="6.60958">
        <ele>537.4</ele>
        <time>2021-07-29T12:18:50Z</time>
      </trkpt>
      <trkpt lat="47.15328" lon="6.60958">
        <ele>537.4</ele>
        <time>2021-07-29T12:18:51Z</time>
      </trkpt>
      <trkpt lat="47.15329" lon="6.60957">
        <ele>537.4</ele>
        <time>2021-07-29T12:18:52Z</time>
      </trkpt>
      <trkpt lat="47.1533" lon="6.60956">
        <ele>537.4</ele>
        <time>2021-07-29T12:18:53Z</time>
      </trkpt>
      <trkpt lat="47.15331" lon="6.60956">
        <ele>537.4</ele>
        <time>2021-07-29T12:18:54Z</time>
      </trkpt>
      <trkpt lat="47.15333" lon="6.60956">
        <ele>537.6</ele>
        <time>2021-07-29T12:18:55Z</time>
      </trkpt>
      <trkpt lat="47.15335" lon="6.60955">
        <ele>537.8</ele>
        <time>2021-07-29T12:18:56Z</time>
      </trkpt>
      <trkpt lat="47.15337" lon="6.60955">
        <ele>538</ele>
        <time>2021-07-29T12:18:57Z</time>
      </trkpt>
      <trkpt lat="47.15339" lon="6.60954">
        <ele>538.4</ele>
        <time>2021-07-29T12:18:58Z</time>
      </trkpt>
      <trkpt lat="47.15341" lon="6.60953">
        <ele>538.6</ele>
        <time>2021-07-29T12:18:59Z</time>
      </trkpt>
      <trkpt lat="47.15343" lon="6.60952">
        <ele>538.8</ele>
        <time>2021-07-29T12:19:00Z</time>
      </trkpt>
      <trkpt lat="47.15344" lon="6.60951">
        <ele>539</ele>
        <time>2021-07-29T12:19:01Z</time>
      </trkpt>
      <trkpt lat="47.15345" lon="6.60951">
        <ele>539</ele>
        <time>2021-07-29T12:19:02Z</time>
      </trkpt>
      <trkpt lat="47.15347" lon="6.60951">
        <ele>539</ele>
        <time>2021-07-29T12:19:03Z</time>
      </trkpt>
      <trkpt lat="47.15348" lon="6.60951">
        <ele>539</ele>
        <time>2021-07-29T12:19:04Z</time>
      </trkpt>
      <trkpt lat="47.15349" lon="6.60951">
        <ele>539.2</ele>
        <time>2021-07-29T12:19:05Z</time>
      </trkpt>
      <trkpt lat="47.1535" lon="6.6095">
        <ele>539</ele>
        <time>2021-07-29T12:19:06Z</time>
      </trkpt>
      <trkpt lat="47.15351" lon="6.6095">
        <ele>539.2</ele>
        <time>2021-07-29T12:19:07Z</time>
      </trkpt>
      <trkpt lat="47.15352" lon="6.60949">
        <ele>539.2</ele>
        <time>2021-07-29T12:19:08Z</time>
      </trkpt>
      <trkpt lat="47.15353" lon="6.60948">
        <ele>539.2</ele>
        <time>2021-07-29T12:19:09Z</time>
      </trkpt>
      <trkpt lat="47.15353" lon="6.60947">
        <ele>539</ele>
        <time>2021-07-29T12:19:10Z</time>
      </trkpt>
      <trkpt lat="47.15353" lon="6.60948">
        <ele>539</ele>
        <time>2021-07-29T12:19:11Z</time>
      </trkpt>
      <trkpt lat="47.15353" lon="6.60949">
        <ele>539</ele>
        <time>2021-07-29T12:19:12Z</time>
      </trkpt>
      <trkpt lat="47.15353" lon="6.60949">
        <ele>539</ele>
        <time>2021-07-29T12:19:13Z</time>
      </trkpt>
      <trkpt lat="47.15353" lon="6.6095">
        <ele>539</ele>
        <time>2021-07-29T12:19:14Z</time>
      </trkpt>
      <trkpt lat="47.15353" lon="6.6095">
        <ele>539.2</ele>
        <time>2021-07-29T12:19:15Z</time>
      </trkpt>
      <trkpt lat="47.15353" lon="6.60951">
        <ele>539</ele>
        <time>2021-07-29T12:19:16Z</time>
      </trkpt>
      <trkpt lat="47.15377" lon="6.60933">
        <ele>536.8</ele>
        <time>2021-07-29T12:19:51Z</time>
      </trkpt>
      <trkpt lat="47.1538" lon="6.60932">
        <ele>536.6</ele>
        <time>2021-07-29T12:19:52Z</time>
      </trkpt>
      <trkpt lat="47.15384" lon="6.60931">
        <ele>536.6</ele>
        <time>2021-07-29T12:19:53Z</time>
      </trkpt>
      <trkpt lat="47.15386" lon="6.6093">
        <ele>536.6</ele>
        <time>2021-07-29T12:19:54Z</time>
      </trkpt>
      <trkpt lat="47.15389" lon="6.6093">
        <ele>536.6</ele>
        <time>2021-07-29T12:19:55Z</time>
      </trkpt>
      <trkpt lat="47.15391" lon="6.6093">
        <ele>536.8</ele>
        <time>2021-07-29T12:19:56Z</time>
      </trkpt>
      <trkpt lat="47.15392" lon="6.60931">
        <ele>536.8</ele>
        <time>2021-07-29T12:19:57Z</time>
      </trkpt>
      <trkpt lat="47.15394" lon="6.60931">
        <ele>536.8</ele>
        <time>2021-07-29T12:19:58Z</time>
      </trkpt>
      <trkpt lat="47.15396" lon="6.6093">
        <ele>536.6</ele>
        <time>2021-07-29T12:19:59Z</time>
      </trkpt>
      <trkpt lat="47.15397" lon="6.6093">
        <ele>536.6</ele>
        <time>2021-07-29T12:20:00Z</time>
      </trkpt>
      <trkpt lat="47.15399" lon="6.6093">
        <ele>536.6</ele>
        <time>2021-07-29T12:20:01Z</time>
      </trkpt>
      <trkpt lat="47.15401" lon="6.60931">
        <ele>536.6</ele>
        <time>2021-07-29T12:20:02Z</time>
      </trkpt>
      <trkpt lat="47.15402" lon="6.60932">
        <ele>536.6</ele>
        <time>2021-07-29T12:20:03Z</time>
      </trkpt>
      <trkpt lat="47.15403" lon="6.60932">
        <ele>536.8</ele>
        <time>2021-07-29T12:20:04Z</time>
      </trkpt>
      <trkpt lat="47.15403" lon="6.60932">
        <ele>536.6</ele>
        <time>2021-07-29T12:20:05Z</time>
      </trkpt>
      <trkpt lat="47.15404" lon="6.60932">
        <ele>536.4</ele>
        <time>2021-07-29T12:20:06Z</time>
      </trkpt>
      <trkpt lat="47.15408" lon="6.60932">
        <ele>536.2</ele>
        <time>2021-07-29T12:20:07Z</time>
      </trkpt>
      <trkpt lat="47.15411" lon="6.60932">
        <ele>536</ele>
        <time>2021-07-29T12:20:08Z</time>
      </trkpt>
      <trkpt lat="47.15415" lon="6.60933">
        <ele>536</ele>
        <time>2021-07-29T12:20:09Z</time>
      </trkpt>
      <trkpt lat="47.15418" lon="6.60934">
        <ele>536.2</ele>
        <time>2021-07-29T12:20:10Z</time>
      </trkpt>
      <trkpt lat="47.1542" lon="6.60936">
        <ele>536.4</ele>
        <time>2021-07-29T12:20:11Z</time>
      </trkpt>
      <trkpt lat="47.15422" lon="6.60937">
        <ele>536.4</ele>
        <time>2021-07-29T12:20:12Z</time>
      </trkpt>
      <trkpt lat="47.15424" lon="6.60937">
        <ele>536.6</ele>
        <time>2021-07-29T12:20:13Z</time>
      </trkpt>
      <trkpt lat="47.15426" lon="6.60937">
        <ele>536.4</ele>
        <time>2021-07-29T12:20:14Z</time>
      </trkpt>
      <trkpt lat="47.15428" lon="6.60937">
        <ele>536.4</ele>
        <time>2021-07-29T12:20:15Z</time>
      </trkpt>
      <trkpt lat="47.1543" lon="6.60937">
        <ele>536.4</ele>
        <time>2021-07-29T12:20:16Z</time>
      </trkpt>
      <trkpt lat="47.15432" lon="6.60937">
        <ele>536.4</ele>
        <time>2021-07-29T12:20:17Z</time>
      </trkpt>
      <trkpt lat="47.15434" lon="6.60937">
        <ele>536.4</ele>
        <time>2021-07-29T12:20:18Z</time>
      </trkpt>
      <trkpt lat="47.15436" lon="6.60938">
        <ele>536.4</ele>
        <time>2021-07-29T12:20:19Z</time>
      </trkpt>
      <trkpt lat="47.15438" lon="6.60937">
        <ele>536.4</ele>
        <time>2021-07-29T12:20:20Z</time>
      </trkpt>
      <trkpt lat="47.15441" lon="6.60936">
        <ele>536.4</ele>
        <time>2021-07-29T12:20:21Z</time>
      </trkpt>
      <trkpt lat="47.15444" lon="6.60936">
        <ele>536.4</ele>
        <time>2021-07-29T12:20:22Z</time>
      </trkpt>
      <trkpt lat="47.15447" lon="6.60936">
        <ele>536.6</ele>
        <time>2021-07-29T12:20:23Z</time>
      </trkpt>
      <trkpt lat="47.15449" lon="6.60936">
        <ele>537</ele>
        <time>2021-07-29T12:20:24Z</time>
      </trkpt>
      <trkpt lat="47.15451" lon="6.60936">
        <ele>537</ele>
        <time>2021-07-29T12:20:25Z</time>
      </trkpt>
      <trkpt lat="47.15453" lon="6.60936">
        <ele>537.2</ele>
        <time>2021-07-29T12:20:26Z</time>
      </trkpt>
      <trkpt lat="47.15455" lon="6.60936">
        <ele>537.2</ele>
        <time>2021-07-29T12:20:27Z</time>
      </trkpt>
      <trkpt lat="47.15457" lon="6.60937">
        <ele>537.2</ele>
        <time>2021-07-29T12:20:28Z</time>
      </trkpt>
      <trkpt lat="47.15459" lon="6.60937">
        <ele>537.4</ele>
        <time>2021-07-29T12:20:29Z</time>
      </trkpt>
      <trkpt lat="47.15461" lon="6.60937">
        <ele>537.6</ele>
        <time>2021-07-29T12:20:30Z</time>
      </trkpt>
      <trkpt lat="47.15463" lon="6.60937">
        <ele>537.8</ele>
        <time>2021-07-29T12:20:31Z</time>
      </trkpt>
      <trkpt lat="47.15465" lon="6.60937">
        <ele>538</ele>
        <time>2021-07-29T12:20:32Z</time>
      </trkpt>
      <trkpt lat="47.15468" lon="6.60936">
        <ele>538.2</ele>
        <time>2021-07-29T12:20:33Z</time>
      </trkpt>
      <trkpt lat="47.1547" lon="6.60935">
        <ele>538.4</ele>
        <time>2021-07-29T12:20:34Z</time>
      </trkpt>
      <trkpt lat="47.15472" lon="6.60934">
        <ele>538.6</ele>
        <time>2021-07-29T12:20:35Z</time>
      </trkpt>
      <trkpt lat="47.15474" lon="6.60934">
        <ele>539</ele>
        <time>2021-07-29T12:20:36Z</time>
      </trkpt>
      <trkpt lat="47.15476" lon="6.60934">
        <ele>539</ele>
        <time>2021-07-29T12:20:37Z</time>
      </trkpt>
      <trkpt lat="47.15478" lon="6.60934">
        <ele>539.2</ele>
        <time>2021-07-29T12:20:38Z</time>
      </trkpt>
      <trkpt lat="47.1548" lon="6.60933">
        <ele>539.4</ele>
        <time>2021-07-29T12:20:39Z</time>
      </trkpt>
      <trkpt lat="47.15482" lon="6.60933">
        <ele>539.4</ele>
        <time>2021-07-29T12:20:40Z</time>
      </trkpt>
      <trkpt lat="47.15483" lon="6.60933">
        <ele>539.6</ele>
        <time>2021-07-29T12:20:41Z</time>
      </trkpt>
      <trkpt lat="47.15485" lon="6.60932">
        <ele>539.6</ele>
        <time>2021-07-29T12:20:42Z</time>
      </trkpt>
      <trkpt lat="47.15487" lon="6.60932">
        <ele>539.6</ele>
        <time>2021-07-29T12:20:43Z</time>
      </trkpt>
      <trkpt lat="47.15489" lon="6.60931">
        <ele>539.8</ele>
        <time>2021-07-29T12:20:44Z</time>
      </trkpt>
      <trkpt lat="47.1549" lon="6.6093">
        <ele>539.6</ele>
        <time>2021-07-29T12:20:45Z</time>
      </trkpt>
      <trkpt lat="47.15492" lon="6.60929">
        <ele>539.6</ele>
        <time>2021-07-29T12:20:46Z</time>
      </trkpt>
      <trkpt lat="47.15494" lon="6.60927">
        <ele>539.6</ele>
        <time>2021-07-29T12:20:47Z</time>
      </trkpt>
      <trkpt lat="47.15496" lon="6.60926">
        <ele>539.6</ele>
        <time>2021-07-29T12:20:48Z</time>
      </trkpt>
      <trkpt lat="47.15498" lon="6.60925">
        <ele>539.6</ele>
        <time>2021-07-29T12:20:49Z</time>
      </trkpt>
      <trkpt lat="47.155" lon="6.60924">
        <ele>539.6</ele>
        <time>2021-07-29T12:20:50Z</time>
      </trkpt>
      <trkpt lat="47.15502" lon="6.60923">
        <ele>539.6</ele>
        <time>2021-07-29T12:20:51Z</time>
      </trkpt>
      <trkpt lat="47.15504" lon="6.60922">
        <ele>539.6</ele>
        <time>2021-07-29T12:20:52Z</time>
      </trkpt>
      <trkpt lat="47.15506" lon="6.60922">
        <ele>539.6</ele>
        <time>2021-07-29T12:20:53Z</time>
      </trkpt>
      <trkpt lat="47.15508" lon="6.6092">
        <ele>539.4</ele>
        <time>2021-07-29T12:20:54Z</time>
      </trkpt>
      <trkpt lat="47.1551" lon="6.60918">
        <ele>539.4</ele>
        <time>2021-07-29T12:20:55Z</time>
      </trkpt>
      <trkpt lat="47.15512" lon="6.60916">
        <ele>539.4</ele>
        <time>2021-07-29T12:20:56Z</time>
      </trkpt>
      <trkpt lat="47.15515" lon="6.60914">
        <ele>539.2</ele>
        <time>2021-07-29T12:20:57Z</time>
      </trkpt>
      <trkpt lat="47.15517" lon="6.60913">
        <ele>539.2</ele>
        <time>2021-07-29T12:20:58Z</time>
      </trkpt>
      <trkpt lat="47.1552" lon="6.6091">
        <ele>539.4</ele>
        <time>2021-07-29T12:20:59Z</time>
      </trkpt>
      <trkpt lat="47.15522" lon="6.60909">
        <ele>539.2</ele>
        <time>2021-07-29T12:21:00Z</time>
      </trkpt>
      <trkpt lat="47.15524" lon="6.60907">
        <ele>539.2</ele>
        <time>2021-07-29T12:21:01Z</time>
      </trkpt>
      <trkpt lat="47.15526" lon="6.60906">
        <ele>539.2</ele>
        <time>2021-07-29T12:21:02Z</time>
      </trkpt>
      <trkpt lat="47.15529" lon="6.60906">
        <ele>539.2</ele>
        <time>2021-07-29T12:21:03Z</time>
      </trkpt>
      <trkpt lat="47.15531" lon="6.60905">
        <ele>539.2</ele>
        <time>2021-07-29T12:21:04Z</time>
      </trkpt>
      <trkpt lat="47.15534" lon="6.60904">
        <ele>539.2</ele>
        <time>2021-07-29T12:21:05Z</time>
      </trkpt>
      <trkpt lat="47.15536" lon="6.60904">
        <ele>539.2</ele>
        <time>2021-07-29T12:21:06Z</time>
      </trkpt>
      <trkpt lat="47.15539" lon="6.60902">
        <ele>539.2</ele>
        <time>2021-07-29T12:21:07Z</time>
      </trkpt>
      <trkpt lat="47.15541" lon="6.60901">
        <ele>539.4</ele>
        <time>2021-07-29T12:21:08Z</time>
      </trkpt>
      <trkpt lat="47.15543" lon="6.609">
        <ele>539.6</ele>
        <time>2021-07-29T12:21:09Z</time>
      </trkpt>
      <trkpt lat="47.15545" lon="6.609">
        <ele>539.6</ele>
        <time>2021-07-29T12:21:10Z</time>
      </trkpt>
      <trkpt lat="47.15546" lon="6.609">
        <ele>539.8</ele>
        <time>2021-07-29T12:21:11Z</time>
      </trkpt>
      <trkpt lat="47.15548" lon="6.60899">
        <ele>539.8</ele>
        <time>2021-07-29T12:21:12Z</time>
      </trkpt>
      <trkpt lat="47.15549" lon="6.60899">
        <ele>540</ele>
        <time>2021-07-29T12:21:13Z</time>
      </trkpt>
      <trkpt lat="47.1555" lon="6.60898">
        <ele>540</ele>
        <time>2021-07-29T12:21:14Z</time>
      </trkpt>
      <trkpt lat="47.15552" lon="6.60898">
        <ele>540</ele>
        <time>2021-07-29T12:21:15Z</time>
      </trkpt>
      <trkpt lat="47.15553" lon="6.60897">
        <ele>540</ele>
        <time>2021-07-29T12:21:16Z</time>
      </trkpt>
      <trkpt lat="47.15554" lon="6.60897">
        <ele>540</ele>
        <time>2021-07-29T12:21:17Z</time>
      </trkpt>
      <trkpt lat="47.15556" lon="6.60897">
        <ele>539.8</ele>
        <time>2021-07-29T12:21:18Z</time>
      </trkpt>
      <trkpt lat="47.15558" lon="6.60897">
        <ele>539.6</ele>
        <time>2021-07-29T12:21:19Z</time>
      </trkpt>
      <trkpt lat="47.15559" lon="6.60896">
        <ele>539.4</ele>
        <time>2021-07-29T12:21:20Z</time>
      </trkpt>
      <trkpt lat="47.15562" lon="6.60896">
        <ele>539</ele>
        <time>2021-07-29T12:21:21Z</time>
      </trkpt>
      <trkpt lat="47.15564" lon="6.60896">
        <ele>538.6</ele>
        <time>2021-07-29T12:21:22Z</time>
      </trkpt>
      <trkpt lat="47.15566" lon="6.60894">
        <ele>538.2</ele>
        <time>2021-07-29T12:21:23Z</time>
      </trkpt>
      <trkpt lat="47.15568" lon="6.60893">
        <ele>537.8</ele>
        <time>2021-07-29T12:21:24Z</time>
      </trkpt>
      <trkpt lat="47.1557" lon="6.60891">
        <ele>537.6</ele>
        <time>2021-07-29T12:21:25Z</time>
      </trkpt>
      <trkpt lat="47.15572" lon="6.6089">
        <ele>537.2</ele>
        <time>2021-07-29T12:21:26Z</time>
      </trkpt>
      <trkpt lat="47.15575" lon="6.60888">
        <ele>536.8</ele>
        <time>2021-07-29T12:21:27Z</time>
      </trkpt>
      <trkpt lat="47.15578" lon="6.60888">
        <ele>536.4</ele>
        <time>2021-07-29T12:21:28Z</time>
      </trkpt>
      <trkpt lat="47.1558" lon="6.60887">
        <ele>536</ele>
        <time>2021-07-29T12:21:29Z</time>
      </trkpt>
      <trkpt lat="47.15582" lon="6.60885">
        <ele>535.4</ele>
        <time>2021-07-29T12:21:30Z</time>
      </trkpt>
      <trkpt lat="47.15585" lon="6.60882">
        <ele>535.2</ele>
        <time>2021-07-29T12:21:31Z</time>
      </trkpt>
      <trkpt lat="47.15587" lon="6.60879">
        <ele>534.8</ele>
        <time>2021-07-29T12:21:32Z</time>
      </trkpt>
      <trkpt lat="47.15589" lon="6.60876">
        <ele>534.4</ele>
        <time>2021-07-29T12:21:33Z</time>
      </trkpt>
      <trkpt lat="47.15591" lon="6.60872">
        <ele>534</ele>
        <time>2021-07-29T12:21:34Z</time>
      </trkpt>
      <trkpt lat="47.15592" lon="6.60869">
        <ele>533.6</ele>
        <time>2021-07-29T12:21:35Z</time>
      </trkpt>
      <trkpt lat="47.15592" lon="6.60867">
        <ele>533.2</ele>
        <time>2021-07-29T12:21:36Z</time>
      </trkpt>
      <trkpt lat="47.15591" lon="6.60865">
        <ele>533</ele>
        <time>2021-07-29T12:21:37Z</time>
      </trkpt>
      <trkpt lat="47.1559" lon="6.60863">
        <ele>532.8</ele>
        <time>2021-07-29T12:21:38Z</time>
      </trkpt>
      <trkpt lat="47.15588" lon="6.60861">
        <ele>532.4</ele>
        <time>2021-07-29T12:21:39Z</time>
      </trkpt>
      <trkpt lat="47.15586" lon="6.6086">
        <ele>531.8</ele>
        <time>2021-07-29T12:21:40Z</time>
      </trkpt>
      <trkpt lat="47.15584" lon="6.60857">
        <ele>531.4</ele>
        <time>2021-07-29T12:21:41Z</time>
      </trkpt>
      <trkpt lat="47.15581" lon="6.60856">
        <ele>531</ele>
        <time>2021-07-29T12:21:42Z</time>
      </trkpt>
      <trkpt lat="47.15578" lon="6.60856">
        <ele>530.6</ele>
        <time>2021-07-29T12:21:43Z</time>
      </trkpt>
      <trkpt lat="47.15575" lon="6.60855">
        <ele>530.4</ele>
        <time>2021-07-29T12:21:44Z</time>
      </trkpt>
      <trkpt lat="47.15573" lon="6.60853">
        <ele>530.2</ele>
        <time>2021-07-29T12:21:45Z</time>
      </trkpt>
      <trkpt lat="47.15572" lon="6.6085">
        <ele>530</ele>
        <time>2021-07-29T12:21:46Z</time>
      </trkpt>
      <trkpt lat="47.15571" lon="6.60846">
        <ele>529.8</ele>
        <time>2021-07-29T12:21:47Z</time>
      </trkpt>
      <trkpt lat="47.15571" lon="6.60842">
        <ele>529.6</ele>
        <time>2021-07-29T12:21:48Z</time>
      </trkpt>
      <trkpt lat="47.15572" lon="6.60839">
        <ele>529.6</ele>
        <time>2021-07-29T12:21:49Z</time>
      </trkpt>
      <trkpt lat="47.15574" lon="6.60836">
        <ele>529.4</ele>
        <time>2021-07-29T12:21:50Z</time>
      </trkpt>
      <trkpt lat="47.15576" lon="6.60834">
        <ele>529.4</ele>
        <time>2021-07-29T12:21:51Z</time>
      </trkpt>
      <trkpt lat="47.15579" lon="6.60833">
        <ele>529.4</ele>
        <time>2021-07-29T12:21:52Z</time>
      </trkpt>
      <trkpt lat="47.15581" lon="6.60832">
        <ele>529.4</ele>
        <time>2021-07-29T12:21:53Z</time>
      </trkpt>
      <trkpt lat="47.15583" lon="6.60831">
        <ele>529.4</ele>
        <time>2021-07-29T12:21:54Z</time>
      </trkpt>
      <trkpt lat="47.15586" lon="6.6083">
        <ele>529.2</ele>
        <time>2021-07-29T12:21:55Z</time>
      </trkpt>
      <trkpt lat="47.15589" lon="6.6083">
        <ele>529.2</ele>
        <time>2021-07-29T12:21:56Z</time>
      </trkpt>
      <trkpt lat="47.15592" lon="6.60829">
        <ele>529.2</ele>
        <time>2021-07-29T12:21:57Z</time>
      </trkpt>
      <trkpt lat="47.15595" lon="6.60828">
        <ele>529</ele>
        <time>2021-07-29T12:21:58Z</time>
      </trkpt>
      <trkpt lat="47.15598" lon="6.60827">
        <ele>529</ele>
        <time>2021-07-29T12:21:59Z</time>
      </trkpt>
      <trkpt lat="47.15601" lon="6.60827">
        <ele>529</ele>
        <time>2021-07-29T12:22:00Z</time>
      </trkpt>
      <trkpt lat="47.15604" lon="6.60827">
        <ele>529</ele>
        <time>2021-07-29T12:22:01Z</time>
      </trkpt>
      <trkpt lat="47.15606" lon="6.60827">
        <ele>529</ele>
        <time>2021-07-29T12:22:02Z</time>
      </trkpt>
      <trkpt lat="47.15608" lon="6.60827">
        <ele>529.2</ele>
        <time>2021-07-29T12:22:03Z</time>
      </trkpt>
      <trkpt lat="47.1561" lon="6.60826">
        <ele>529.2</ele>
        <time>2021-07-29T12:22:04Z</time>
      </trkpt>
      <trkpt lat="47.15612" lon="6.60825">
        <ele>529.4</ele>
        <time>2021-07-29T12:22:05Z</time>
      </trkpt>
      <trkpt lat="47.15614" lon="6.60825">
        <ele>529.6</ele>
        <time>2021-07-29T12:22:06Z</time>
      </trkpt>
      <trkpt lat="47.15616" lon="6.60824">
        <ele>529.6</ele>
        <time>2021-07-29T12:22:07Z</time>
      </trkpt>
      <trkpt lat="47.15619" lon="6.60822">
        <ele>529.6</ele>
        <time>2021-07-29T12:22:08Z</time>
      </trkpt>
      <trkpt lat="47.15621" lon="6.6082">
        <ele>529.8</ele>
        <time>2021-07-29T12:22:09Z</time>
      </trkpt>
      <trkpt lat="47.15623" lon="6.60818">
        <ele>529.8</ele>
        <time>2021-07-29T12:22:10Z</time>
      </trkpt>
      <trkpt lat="47.15624" lon="6.60816">
        <ele>530</ele>
        <time>2021-07-29T12:22:11Z</time>
      </trkpt>
      <trkpt lat="47.15625" lon="6.60816">
        <ele>530.2</ele>
        <time>2021-07-29T12:22:12Z</time>
      </trkpt>
      <trkpt lat="47.15626" lon="6.60814">
        <ele>530.4</ele>
        <time>2021-07-29T12:22:13Z</time>
      </trkpt>
      <trkpt lat="47.15628" lon="6.60813">
        <ele>530.4</ele>
        <time>2021-07-29T12:22:14Z</time>
      </trkpt>
      <trkpt lat="47.15629" lon="6.60811">
        <ele>530.6</ele>
        <time>2021-07-29T12:22:15Z</time>
      </trkpt>
      <trkpt lat="47.1563" lon="6.60809">
        <ele>530.6</ele>
        <time>2021-07-29T12:22:16Z</time>
      </trkpt>
      <trkpt lat="47.15632" lon="6.60808">
        <ele>530.8</ele>
        <time>2021-07-29T12:22:17Z</time>
      </trkpt>
      <trkpt lat="47.15634" lon="6.60806">
        <ele>530.8</ele>
        <time>2021-07-29T12:22:18Z</time>
      </trkpt>
      <trkpt lat="47.15636" lon="6.60804">
        <ele>530.8</ele>
        <time>2021-07-29T12:22:19Z</time>
      </trkpt>
      <trkpt lat="47.15638" lon="6.60802">
        <ele>531</ele>
        <time>2021-07-29T12:22:20Z</time>
      </trkpt>
      <trkpt lat="47.1564" lon="6.608">
        <ele>531</ele>
        <time>2021-07-29T12:22:21Z</time>
      </trkpt>
      <trkpt lat="47.15642" lon="6.60798">
        <ele>531</ele>
        <time>2021-07-29T12:22:22Z</time>
      </trkpt>
      <trkpt lat="47.15643" lon="6.60796">
        <ele>531</ele>
        <time>2021-07-29T12:22:23Z</time>
      </trkpt>
      <trkpt lat="47.15645" lon="6.60794">
        <ele>531</ele>
        <time>2021-07-29T12:22:24Z</time>
      </trkpt>
      <trkpt lat="47.15647" lon="6.60792">
        <ele>531</ele>
        <time>2021-07-29T12:22:25Z</time>
      </trkpt>
      <trkpt lat="47.15649" lon="6.60791">
        <ele>531</ele>
        <time>2021-07-29T12:22:26Z</time>
      </trkpt>
      <trkpt lat="47.1565" lon="6.60788">
        <ele>531.2</ele>
        <time>2021-07-29T12:22:27Z</time>
      </trkpt>
      <trkpt lat="47.15652" lon="6.60786">
        <ele>531.2</ele>
        <time>2021-07-29T12:22:28Z</time>
      </trkpt>
      <trkpt lat="47.15654" lon="6.60784">
        <ele>531.2</ele>
        <time>2021-07-29T12:22:29Z</time>
      </trkpt>
      <trkpt lat="47.15656" lon="6.60781">
        <ele>531.2</ele>
        <time>2021-07-29T12:22:30Z</time>
      </trkpt>
      <trkpt lat="47.15657" lon="6.60778">
        <ele>531.4</ele>
        <time>2021-07-29T12:22:31Z</time>
      </trkpt>
      <trkpt lat="47.15659" lon="6.60775">
        <ele>531.4</ele>
        <time>2021-07-29T12:22:32Z</time>
      </trkpt>
      <trkpt lat="47.15661" lon="6.60772">
        <ele>531.6</ele>
        <time>2021-07-29T12:22:33Z</time>
      </trkpt>
      <trkpt lat="47.15662" lon="6.6077">
        <ele>531.6</ele>
        <time>2021-07-29T12:22:34Z</time>
      </trkpt>
      <trkpt lat="47.15663" lon="6.60767">
        <ele>531.8</ele>
        <time>2021-07-29T12:22:35Z</time>
      </trkpt>
      <trkpt lat="47.15665" lon="6.60765">
        <ele>531.8</ele>
        <time>2021-07-29T12:22:36Z</time>
      </trkpt>
      <trkpt lat="47.15666" lon="6.60762">
        <ele>531.8</ele>
        <time>2021-07-29T12:22:37Z</time>
      </trkpt>
      <trkpt lat="47.15667" lon="6.60759">
        <ele>532</ele>
        <time>2021-07-29T12:22:38Z</time>
      </trkpt>
      <trkpt lat="47.15669" lon="6.60756">
        <ele>532</ele>
        <time>2021-07-29T12:22:39Z</time>
      </trkpt>
      <trkpt lat="47.15671" lon="6.60754">
        <ele>532.2</ele>
        <time>2021-07-29T12:22:40Z</time>
      </trkpt>
      <trkpt lat="47.15672" lon="6.60751">
        <ele>532.2</ele>
        <time>2021-07-29T12:22:41Z</time>
      </trkpt>
      <trkpt lat="47.15674" lon="6.60748">
        <ele>532.4</ele>
        <time>2021-07-29T12:22:42Z</time>
      </trkpt>
      <trkpt lat="47.15675" lon="6.60746">
        <ele>532.4</ele>
        <time>2021-07-29T12:22:43Z</time>
      </trkpt>
      <trkpt lat="47.15676" lon="6.60743">
        <ele>532.4</ele>
        <time>2021-07-29T12:22:44Z</time>
      </trkpt>
      <trkpt lat="47.15678" lon="6.6074">
        <ele>532.6</ele>
        <time>2021-07-29T12:22:45Z</time>
      </trkpt>
      <trkpt lat="47.15679" lon="6.60737">
        <ele>532.6</ele>
        <time>2021-07-29T12:22:46Z</time>
      </trkpt>
      <trkpt lat="47.1568" lon="6.60735">
        <ele>532.8</ele>
        <time>2021-07-29T12:22:47Z</time>
      </trkpt>
      <trkpt lat="47.15682" lon="6.60733">
        <ele>532.8</ele>
        <time>2021-07-29T12:22:48Z</time>
      </trkpt>
      <trkpt lat="47.15683" lon="6.60731">
        <ele>532.8</ele>
        <time>2021-07-29T12:22:49Z</time>
      </trkpt>
      <trkpt lat="47.15684" lon="6.6073">
        <ele>533</ele>
        <time>2021-07-29T12:22:50Z</time>
      </trkpt>
      <trkpt lat="47.15686" lon="6.60728">
        <ele>533</ele>
        <time>2021-07-29T12:22:51Z</time>
      </trkpt>
      <trkpt lat="47.15687" lon="6.60726">
        <ele>533.2</ele>
        <time>2021-07-29T12:22:52Z</time>
      </trkpt>
      <trkpt lat="47.15688" lon="6.60724">
        <ele>533.2</ele>
        <time>2021-07-29T12:22:53Z</time>
      </trkpt>
      <trkpt lat="47.1569" lon="6.60721">
        <ele>533.2</ele>
        <time>2021-07-29T12:22:54Z</time>
      </trkpt>
      <trkpt lat="47.15691" lon="6.60719">
        <ele>533.4</ele>
        <time>2021-07-29T12:22:55Z</time>
      </trkpt>
      <trkpt lat="47.15692" lon="6.60717">
        <ele>533.4</ele>
        <time>2021-07-29T12:22:56Z</time>
      </trkpt>
      <trkpt lat="47.15694" lon="6.60715">
        <ele>533.6</ele>
        <time>2021-07-29T12:22:57Z</time>
      </trkpt>
      <trkpt lat="47.15695" lon="6.60712">
        <ele>533.6</ele>
        <time>2021-07-29T12:22:58Z</time>
      </trkpt>
      <trkpt lat="47.15696" lon="6.60711">
        <ele>533.6</ele>
        <time>2021-07-29T12:22:59Z</time>
      </trkpt>
      <trkpt lat="47.15697" lon="6.60709">
        <ele>533.8</ele>
        <time>2021-07-29T12:23:00Z</time>
      </trkpt>
      <trkpt lat="47.15698" lon="6.60707">
        <ele>533.8</ele>
        <time>2021-07-29T12:23:01Z</time>
      </trkpt>
      <trkpt lat="47.15699" lon="6.60704">
        <ele>534</ele>
        <time>2021-07-29T12:23:02Z</time>
      </trkpt>
      <trkpt lat="47.157" lon="6.60702">
        <ele>534</ele>
        <time>2021-07-29T12:23:03Z</time>
      </trkpt>
      <trkpt lat="47.15702" lon="6.607">
        <ele>534.2</ele>
        <time>2021-07-29T12:23:04Z</time>
      </trkpt>
      <trkpt lat="47.15703" lon="6.60697">
        <ele>534.2</ele>
        <time>2021-07-29T12:23:05Z</time>
      </trkpt>
      <trkpt lat="47.15704" lon="6.60695">
        <ele>534.4</ele>
        <time>2021-07-29T12:23:06Z</time>
      </trkpt>
      <trkpt lat="47.15705" lon="6.60693">
        <ele>534.4</ele>
        <time>2021-07-29T12:23:07Z</time>
      </trkpt>
      <trkpt lat="47.15706" lon="6.60691">
        <ele>534.4</ele>
        <time>2021-07-29T12:23:08Z</time>
      </trkpt>
      <trkpt lat="47.15707" lon="6.60689">
        <ele>534.4</ele>
        <time>2021-07-29T12:23:09Z</time>
      </trkpt>
      <trkpt lat="47.15708" lon="6.60687">
        <ele>534.6</ele>
        <time>2021-07-29T12:23:10Z</time>
      </trkpt>
      <trkpt lat="47.15709" lon="6.60685">
        <ele>534.6</ele>
        <time>2021-07-29T12:23:11Z</time>
      </trkpt>
      <trkpt lat="47.1571" lon="6.60682">
        <ele>534.6</ele>
        <time>2021-07-29T12:23:12Z</time>
      </trkpt>
      <trkpt lat="47.15711" lon="6.6068">
        <ele>534.6</ele>
        <time>2021-07-29T12:23:13Z</time>
      </trkpt>
      <trkpt lat="47.15712" lon="6.60678">
        <ele>534.6</ele>
        <time>2021-07-29T12:23:14Z</time>
      </trkpt>
      <trkpt lat="47.15714" lon="6.60676">
        <ele>534.8</ele>
        <time>2021-07-29T12:23:15Z</time>
      </trkpt>
      <trkpt lat="47.15715" lon="6.60673">
        <ele>534.8</ele>
        <time>2021-07-29T12:23:16Z</time>
      </trkpt>
      <trkpt lat="47.15716" lon="6.60671">
        <ele>534.8</ele>
        <time>2021-07-29T12:23:17Z</time>
      </trkpt>
      <trkpt lat="47.15717" lon="6.60669">
        <ele>534.8</ele>
        <time>2021-07-29T12:23:18Z</time>
      </trkpt>
      <trkpt lat="47.15718" lon="6.60666">
        <ele>535</ele>
        <time>2021-07-29T12:23:19Z</time>
      </trkpt>
      <trkpt lat="47.15719" lon="6.60664">
        <ele>535</ele>
        <time>2021-07-29T12:23:20Z</time>
      </trkpt>
      <trkpt lat="47.1572" lon="6.60662">
        <ele>535</ele>
        <time>2021-07-29T12:23:21Z</time>
      </trkpt>
      <trkpt lat="47.15721" lon="6.60659">
        <ele>535</ele>
        <time>2021-07-29T12:23:22Z</time>
      </trkpt>
      <trkpt lat="47.15722" lon="6.60657">
        <ele>535.2</ele>
        <time>2021-07-29T12:23:23Z</time>
      </trkpt>
      <trkpt lat="47.15723" lon="6.60655">
        <ele>535.2</ele>
        <time>2021-07-29T12:23:24Z</time>
      </trkpt>
      <trkpt lat="47.15724" lon="6.60652">
        <ele>535.2</ele>
        <time>2021-07-29T12:23:25Z</time>
      </trkpt>
      <trkpt lat="47.15725" lon="6.60649">
        <ele>535.2</ele>
        <time>2021-07-29T12:23:26Z</time>
      </trkpt>
      <trkpt lat="47.15726" lon="6.60646">
        <ele>535.4</ele>
        <time>2021-07-29T12:23:27Z</time>
      </trkpt>
      <trkpt lat="47.15727" lon="6.60645">
        <ele>535.4</ele>
        <time>2021-07-29T12:23:28Z</time>
      </trkpt>
      <trkpt lat="47.15729" lon="6.60643">
        <ele>535.4</ele>
        <time>2021-07-29T12:23:29Z</time>
      </trkpt>
      <trkpt lat="47.1573" lon="6.60641">
        <ele>535.4</ele>
        <time>2021-07-29T12:23:30Z</time>
      </trkpt>
      <trkpt lat="47.15732" lon="6.60639">
        <ele>535.4</ele>
        <time>2021-07-29T12:23:31Z</time>
      </trkpt>
      <trkpt lat="47.15733" lon="6.60637">
        <ele>535.4</ele>
        <time>2021-07-29T12:23:32Z</time>
      </trkpt>
      <trkpt lat="47.15735" lon="6.60635">
        <ele>535.4</ele>
        <time>2021-07-29T12:23:33Z</time>
      </trkpt>
      <trkpt lat="47.15737" lon="6.60634">
        <ele>535.2</ele>
        <time>2021-07-29T12:23:34Z</time>
      </trkpt>
      <trkpt lat="47.15739" lon="6.60634">
        <ele>535.2</ele>
        <time>2021-07-29T12:23:35Z</time>
      </trkpt>
      <trkpt lat="47.15741" lon="6.60635">
        <ele>535.2</ele>
        <time>2021-07-29T12:23:36Z</time>
      </trkpt>
      <trkpt lat="47.15742" lon="6.60637">
        <ele>535.2</ele>
        <time>2021-07-29T12:23:37Z</time>
      </trkpt>
      <trkpt lat="47.15744" lon="6.60637">
        <ele>535.2</ele>
        <time>2021-07-29T12:23:38Z</time>
      </trkpt>
      <trkpt lat="47.15746" lon="6.60637">
        <ele>535.2</ele>
        <time>2021-07-29T12:23:39Z</time>
      </trkpt>
      <trkpt lat="47.15748" lon="6.60636">
        <ele>535.2</ele>
        <time>2021-07-29T12:23:40Z</time>
      </trkpt>
      <trkpt lat="47.15751" lon="6.60636">
        <ele>535</ele>
        <time>2021-07-29T12:23:41Z</time>
      </trkpt>
      <trkpt lat="47.15753" lon="6.60636">
        <ele>535</ele>
        <time>2021-07-29T12:23:42Z</time>
      </trkpt>
      <trkpt lat="47.15756" lon="6.60637">
        <ele>535</ele>
        <time>2021-07-29T12:23:43Z</time>
      </trkpt>
      <trkpt lat="47.15759" lon="6.60637">
        <ele>534.8</ele>
        <time>2021-07-29T12:23:44Z</time>
      </trkpt>
      <trkpt lat="47.15761" lon="6.60637">
        <ele>534.8</ele>
        <time>2021-07-29T12:23:45Z</time>
      </trkpt>
      <trkpt lat="47.15764" lon="6.60636">
        <ele>534.8</ele>
        <time>2021-07-29T12:23:46Z</time>
      </trkpt>
      <trkpt lat="47.15766" lon="6.60635">
        <ele>534.8</ele>
        <time>2021-07-29T12:23:47Z</time>
      </trkpt>
      <trkpt lat="47.15768" lon="6.60635">
        <ele>534.8</ele>
        <time>2021-07-29T12:23:48Z</time>
      </trkpt>
      <trkpt lat="47.1577" lon="6.60635">
        <ele>534.8</ele>
        <time>2021-07-29T12:23:49Z</time>
      </trkpt>
      <trkpt lat="47.15772" lon="6.60635">
        <ele>534.8</ele>
        <time>2021-07-29T12:23:50Z</time>
      </trkpt>
      <trkpt lat="47.15774" lon="6.60633">
        <ele>534.8</ele>
        <time>2021-07-29T12:23:51Z</time>
      </trkpt>
      <trkpt lat="47.15774" lon="6.60631">
        <ele>534.8</ele>
        <time>2021-07-29T12:23:52Z</time>
      </trkpt>
      <trkpt lat="47.15775" lon="6.60631">
        <ele>534.8</ele>
        <time>2021-07-29T12:23:53Z</time>
      </trkpt>
      <trkpt lat="47.15776" lon="6.6063">
        <ele>534.8</ele>
        <time>2021-07-29T12:23:54Z</time>
      </trkpt>
      <trkpt lat="47.15776" lon="6.60629">
        <ele>534.8</ele>
        <time>2021-07-29T12:23:55Z</time>
      </trkpt>
      <trkpt lat="47.15776" lon="6.60629">
        <ele>534.8</ele>
        <time>2021-07-29T12:23:56Z</time>
      </trkpt>
      <trkpt lat="47.15776" lon="6.60629">
        <ele>534.8</ele>
        <time>2021-07-29T12:23:57Z</time>
      </trkpt>
      <trkpt lat="47.15776" lon="6.60629">
        <ele>534.8</ele>
        <time>2021-07-29T12:23:58Z</time>
      </trkpt>
      <trkpt lat="47.15776" lon="6.60629">
        <ele>534.8</ele>
        <time>2021-07-29T12:23:59Z</time>
      </trkpt>
      <trkpt lat="47.15776" lon="6.60629">
        <ele>534.8</ele>
        <time>2021-07-29T12:24:00Z</time>
      </trkpt>
      <trkpt lat="47.15777" lon="6.60628">
        <ele>534.8</ele>
        <time>2021-07-29T12:24:01Z</time>
      </trkpt>
      <trkpt lat="47.15777" lon="6.60628">
        <ele>534.8</ele>
        <time>2021-07-29T12:24:02Z</time>
      </trkpt>
      <trkpt lat="47.15766" lon="6.60613">
        <ele>535.4</ele>
        <time>2021-07-29T12:32:48Z</time>
      </trkpt>
      <trkpt lat="47.15766" lon="6.60612">
        <ele>535.2</ele>
        <time>2021-07-29T12:32:49Z</time>
      </trkpt>
      <trkpt lat="47.15766" lon="6.60611">
        <ele>535.2</ele>
        <time>2021-07-29T12:32:50Z</time>
      </trkpt>
      <trkpt lat="47.15767" lon="6.6061">
        <ele>535.2</ele>
        <time>2021-07-29T12:32:51Z</time>
      </trkpt>
      <trkpt lat="47.15767" lon="6.6061">
        <ele>535.2</ele>
        <time>2021-07-29T12:32:52Z</time>
      </trkpt>
      <trkpt lat="47.15768" lon="6.6061">
        <ele>535.4</ele>
        <time>2021-07-29T12:32:53Z</time>
      </trkpt>
      <trkpt lat="47.15768" lon="6.60609">
        <ele>535.4</ele>
        <time>2021-07-29T12:32:54Z</time>
      </trkpt>
      <trkpt lat="47.15769" lon="6.60609">
        <ele>535.4</ele>
        <time>2021-07-29T12:32:55Z</time>
      </trkpt>
      <trkpt lat="47.15769" lon="6.60609">
        <ele>535.4</ele>
        <time>2021-07-29T12:32:56Z</time>
      </trkpt>
      <trkpt lat="47.1576" lon="6.60598">
        <ele>535</ele>
        <time>2021-07-29T12:34:37Z</time>
      </trkpt>
      <trkpt lat="47.1576" lon="6.60596">
        <ele>534.8</ele>
        <time>2021-07-29T12:34:38Z</time>
      </trkpt>
      <trkpt lat="47.1576" lon="6.60595">
        <ele>534.8</ele>
        <time>2021-07-29T12:34:39Z</time>
      </trkpt>
      <trkpt lat="47.15759" lon="6.60594">
        <ele>534.8</ele>
        <time>2021-07-29T12:34:40Z</time>
      </trkpt>
      <trkpt lat="47.15759" lon="6.60594">
        <ele>534.8</ele>
        <time>2021-07-29T12:34:41Z</time>
      </trkpt>
      <trkpt lat="47.1576" lon="6.60594">
        <ele>534.8</ele>
        <time>2021-07-29T12:34:42Z</time>
      </trkpt>
      <trkpt lat="47.1576" lon="6.60593">
        <ele>534.8</ele>
        <time>2021-07-29T12:34:43Z</time>
      </trkpt>
      <trkpt lat="47.15761" lon="6.60593">
        <ele>534.8</ele>
        <time>2021-07-29T12:34:44Z</time>
      </trkpt>
      <trkpt lat="47.15761" lon="6.60593">
        <ele>535</ele>
        <time>2021-07-29T12:34:45Z</time>
      </trkpt>
      <trkpt lat="47.15761" lon="6.60593">
        <ele>534.8</ele>
        <time>2021-07-29T12:34:46Z</time>
      </trkpt>
      <trkpt lat="47.15747" lon="6.60581">
        <ele>535.2</ele>
        <time>2021-07-29T12:45:42Z</time>
      </trkpt>
      <trkpt lat="47.15745" lon="6.60579">
        <ele>535.2</ele>
        <time>2021-07-29T12:45:43Z</time>
      </trkpt>
      <trkpt lat="47.15743" lon="6.60576">
        <ele>535.2</ele>
        <time>2021-07-29T12:45:44Z</time>
      </trkpt>
      <trkpt lat="47.15743" lon="6.60574">
        <ele>535.2</ele>
        <time>2021-07-29T12:45:45Z</time>
      </trkpt>
      <trkpt lat="47.15742" lon="6.60571">
        <ele>535</ele>
        <time>2021-07-29T12:45:46Z</time>
      </trkpt>
      <trkpt lat="47.15741" lon="6.60569">
        <ele>535</ele>
        <time>2021-07-29T12:45:47Z</time>
      </trkpt>
      <trkpt lat="47.1574" lon="6.60566">
        <ele>535</ele>
        <time>2021-07-29T12:45:48Z</time>
      </trkpt>
      <trkpt lat="47.15739" lon="6.60563">
        <ele>535</ele>
        <time>2021-07-29T12:45:49Z</time>
      </trkpt>
      <trkpt lat="47.15738" lon="6.6056">
        <ele>535</ele>
        <time>2021-07-29T12:45:50Z</time>
      </trkpt>
      <trkpt lat="47.15738" lon="6.60558">
        <ele>535</ele>
        <time>2021-07-29T12:45:51Z</time>
      </trkpt>
      <trkpt lat="47.15737" lon="6.60555">
        <ele>535</ele>
        <time>2021-07-29T12:45:52Z</time>
      </trkpt>
      <trkpt lat="47.15737" lon="6.60552">
        <ele>535</ele>
        <time>2021-07-29T12:45:53Z</time>
      </trkpt>
      <trkpt lat="47.15737" lon="6.60549">
        <ele>534.8</ele>
        <time>2021-07-29T12:45:54Z</time>
      </trkpt>
      <trkpt lat="47.15736" lon="6.60546">
        <ele>534.8</ele>
        <time>2021-07-29T12:45:55Z</time>
      </trkpt>
      <trkpt lat="47.15736" lon="6.60543">
        <ele>534.8</ele>
        <time>2021-07-29T12:45:56Z</time>
      </trkpt>
      <trkpt lat="47.15736" lon="6.6054">
        <ele>534.8</ele>
        <time>2021-07-29T12:45:57Z</time>
      </trkpt>
      <trkpt lat="47.15735" lon="6.60537">
        <ele>534.8</ele>
        <time>2021-07-29T12:45:58Z</time>
      </trkpt>
      <trkpt lat="47.15735" lon="6.60533">
        <ele>534.8</ele>
        <time>2021-07-29T12:45:59Z</time>
      </trkpt>
      <trkpt lat="47.15735" lon="6.60529">
        <ele>534.8</ele>
        <time>2021-07-29T12:46:00Z</time>
      </trkpt>
      <trkpt lat="47.15735" lon="6.60525">
        <ele>535</ele>
        <time>2021-07-29T12:46:01Z</time>
      </trkpt>
      <trkpt lat="47.15735" lon="6.60521">
        <ele>535</ele>
        <time>2021-07-29T12:46:02Z</time>
      </trkpt>
      <trkpt lat="47.15735" lon="6.60517">
        <ele>535.2</ele>
        <time>2021-07-29T12:46:03Z</time>
      </trkpt>
      <trkpt lat="47.15736" lon="6.60513">
        <ele>535.4</ele>
        <time>2021-07-29T12:46:04Z</time>
      </trkpt>
      <trkpt lat="47.15737" lon="6.60511">
        <ele>535.6</ele>
        <time>2021-07-29T12:46:05Z</time>
      </trkpt>
      <trkpt lat="47.15739" lon="6.60508">
        <ele>535.8</ele>
        <time>2021-07-29T12:46:06Z</time>
      </trkpt>
      <trkpt lat="47.1574" lon="6.60507">
        <ele>535.8</ele>
        <time>2021-07-29T12:46:07Z</time>
      </trkpt>
      <trkpt lat="47.15742" lon="6.60506">
        <ele>536</ele>
        <time>2021-07-29T12:46:08Z</time>
      </trkpt>
      <trkpt lat="47.15744" lon="6.60506">
        <ele>536.2</ele>
        <time>2021-07-29T12:46:09Z</time>
      </trkpt>
      <trkpt lat="47.15745" lon="6.60507">
        <ele>536.2</ele>
        <time>2021-07-29T12:46:10Z</time>
      </trkpt>
      <trkpt lat="47.15746" lon="6.60507">
        <ele>536.2</ele>
        <time>2021-07-29T12:46:11Z</time>
      </trkpt>
      <trkpt lat="47.15746" lon="6.60507">
        <ele>536.2</ele>
        <time>2021-07-29T12:46:12Z</time>
      </trkpt>
      <trkpt lat="47.15746" lon="6.60507">
        <ele>536.2</ele>
        <time>2021-07-29T12:46:13Z</time>
      </trkpt>
      <trkpt lat="47.15747" lon="6.60507">
        <ele>536.2</ele>
        <time>2021-07-29T12:46:14Z</time>
      </trkpt>
      <trkpt lat="47.15747" lon="6.60507">
        <ele>536.2</ele>
        <time>2021-07-29T12:46:15Z</time>
      </trkpt>
      <trkpt lat="47.15748" lon="6.60507">
        <ele>536.2</ele>
        <time>2021-07-29T12:46:16Z</time>
      </trkpt>
      <trkpt lat="47.15749" lon="6.60507">
        <ele>536.2</ele>
        <time>2021-07-29T12:46:17Z</time>
      </trkpt>
      <trkpt lat="47.15749" lon="6.60508">
        <ele>536.2</ele>
        <time>2021-07-29T12:46:18Z</time>
      </trkpt>
      <trkpt lat="47.15757" lon="6.60515">
        <ele>536</ele>
        <time>2021-07-29T12:46:23Z</time>
      </trkpt>
      <trkpt lat="47.15759" lon="6.60516">
        <ele>535.8</ele>
        <time>2021-07-29T12:46:24Z</time>
      </trkpt>
      <trkpt lat="47.15762" lon="6.60519">
        <ele>535.6</ele>
        <time>2021-07-29T12:46:25Z</time>
      </trkpt>
      <trkpt lat="47.15764" lon="6.60521">
        <ele>535.4</ele>
        <time>2021-07-29T12:46:26Z</time>
      </trkpt>
      <trkpt lat="47.15765" lon="6.60522">
        <ele>535.2</ele>
        <time>2021-07-29T12:46:27Z</time>
      </trkpt>
      <trkpt lat="47.15767" lon="6.60523">
        <ele>535.2</ele>
        <time>2021-07-29T12:46:28Z</time>
      </trkpt>
      <trkpt lat="47.15768" lon="6.60525">
        <ele>535</ele>
        <time>2021-07-29T12:46:29Z</time>
      </trkpt>
      <trkpt lat="47.1577" lon="6.60527">
        <ele>534.8</ele>
        <time>2021-07-29T12:46:30Z</time>
      </trkpt>
      <trkpt lat="47.15772" lon="6.60528">
        <ele>534.4</ele>
        <time>2021-07-29T12:46:31Z</time>
      </trkpt>
      <trkpt lat="47.15774" lon="6.60531">
        <ele>534.4</ele>
        <time>2021-07-29T12:46:32Z</time>
      </trkpt>
      <trkpt lat="47.15778" lon="6.60534">
        <ele>534</ele>
        <time>2021-07-29T12:46:33Z</time>
      </trkpt>
      <trkpt lat="47.15783" lon="6.60536">
        <ele>533.8</ele>
        <time>2021-07-29T12:46:34Z</time>
      </trkpt>
      <trkpt lat="47.15787" lon="6.60538">
        <ele>533.8</ele>
        <time>2021-07-29T12:46:35Z</time>
      </trkpt>
      <trkpt lat="47.15792" lon="6.60539">
        <ele>533.6</ele>
        <time>2021-07-29T12:46:36Z</time>
      </trkpt>
      <trkpt lat="47.15797" lon="6.60539">
        <ele>533.8</ele>
        <time>2021-07-29T12:46:37Z</time>
      </trkpt>
      <trkpt lat="47.15801" lon="6.60539">
        <ele>533.8</ele>
        <time>2021-07-29T12:46:38Z</time>
      </trkpt>
      <trkpt lat="47.15804" lon="6.60538">
        <ele>534</ele>
        <time>2021-07-29T12:46:39Z</time>
      </trkpt>
      <trkpt lat="47.15807" lon="6.60537">
        <ele>534</ele>
        <time>2021-07-29T12:46:40Z</time>
      </trkpt>
      <trkpt lat="47.15809" lon="6.60536">
        <ele>534.2</ele>
        <time>2021-07-29T12:46:41Z</time>
      </trkpt>
      <trkpt lat="47.15811" lon="6.60536">
        <ele>534.4</ele>
        <time>2021-07-29T12:46:42Z</time>
      </trkpt>
      <trkpt lat="47.15814" lon="6.60535">
        <ele>534.4</ele>
        <time>2021-07-29T12:46:43Z</time>
      </trkpt>
      <trkpt lat="47.15816" lon="6.60534">
        <ele>534.4</ele>
        <time>2021-07-29T12:46:44Z</time>
      </trkpt>
      <trkpt lat="47.15819" lon="6.60534">
        <ele>534.4</ele>
        <time>2021-07-29T12:46:45Z</time>
      </trkpt>
      <trkpt lat="47.15822" lon="6.60533">
        <ele>534.4</ele>
        <time>2021-07-29T12:46:46Z</time>
      </trkpt>
      <trkpt lat="47.15824" lon="6.60532">
        <ele>534.4</ele>
        <time>2021-07-29T12:46:47Z</time>
      </trkpt>
      <trkpt lat="47.15827" lon="6.6053">
        <ele>534.6</ele>
        <time>2021-07-29T12:46:48Z</time>
      </trkpt>
      <trkpt lat="47.1583" lon="6.60529">
        <ele>534.6</ele>
        <time>2021-07-29T12:46:49Z</time>
      </trkpt>
      <trkpt lat="47.15833" lon="6.60527">
        <ele>534.6</ele>
        <time>2021-07-29T12:46:50Z</time>
      </trkpt>
      <trkpt lat="47.15836" lon="6.60526">
        <ele>534.6</ele>
        <time>2021-07-29T12:46:51Z</time>
      </trkpt>
      <trkpt lat="47.15838" lon="6.60524">
        <ele>534.6</ele>
        <time>2021-07-29T12:46:52Z</time>
      </trkpt>
      <trkpt lat="47.15841" lon="6.60523">
        <ele>534.8</ele>
        <time>2021-07-29T12:46:53Z</time>
      </trkpt>
      <trkpt lat="47.15844" lon="6.60521">
        <ele>534.8</ele>
        <time>2021-07-29T12:46:54Z</time>
      </trkpt>
      <trkpt lat="47.15846" lon="6.60519">
        <ele>534.8</ele>
        <time>2021-07-29T12:46:55Z</time>
      </trkpt>
      <trkpt lat="47.15848" lon="6.60517">
        <ele>535</ele>
        <time>2021-07-29T12:46:56Z</time>
      </trkpt>
      <trkpt lat="47.15851" lon="6.60515">
        <ele>535</ele>
        <time>2021-07-29T12:46:57Z</time>
      </trkpt>
      <trkpt lat="47.15854" lon="6.60513">
        <ele>535</ele>
        <time>2021-07-29T12:46:58Z</time>
      </trkpt>
      <trkpt lat="47.15856" lon="6.60511">
        <ele>535</ele>
        <time>2021-07-29T12:46:59Z</time>
      </trkpt>
      <trkpt lat="47.15859" lon="6.60509">
        <ele>535</ele>
        <time>2021-07-29T12:47:00Z</time>
      </trkpt>
      <trkpt lat="47.15861" lon="6.60507">
        <ele>535.2</ele>
        <time>2021-07-29T12:47:01Z</time>
      </trkpt>
      <trkpt lat="47.15864" lon="6.60506">
        <ele>535</ele>
        <time>2021-07-29T12:47:02Z</time>
      </trkpt>
      <trkpt lat="47.15867" lon="6.60504">
        <ele>535.2</ele>
        <time>2021-07-29T12:47:03Z</time>
      </trkpt>
      <trkpt lat="47.15869" lon="6.60503">
        <ele>535.4</ele>
        <time>2021-07-29T12:47:04Z</time>
      </trkpt>
      <trkpt lat="47.15872" lon="6.60502">
        <ele>535.6</ele>
        <time>2021-07-29T12:47:05Z</time>
      </trkpt>
      <trkpt lat="47.15874" lon="6.60501">
        <ele>535.8</ele>
        <time>2021-07-29T12:47:06Z</time>
      </trkpt>
      <trkpt lat="47.15876" lon="6.605">
        <ele>535.8</ele>
        <time>2021-07-29T12:47:07Z</time>
      </trkpt>
      <trkpt lat="47.15878" lon="6.605">
        <ele>536</ele>
        <time>2021-07-29T12:47:08Z</time>
      </trkpt>
      <trkpt lat="47.1588" lon="6.60499">
        <ele>536.2</ele>
        <time>2021-07-29T12:47:09Z</time>
      </trkpt>
      <trkpt lat="47.15882" lon="6.60499">
        <ele>536.2</ele>
        <time>2021-07-29T12:47:10Z</time>
      </trkpt>
      <trkpt lat="47.15885" lon="6.60499">
        <ele>536.4</ele>
        <time>2021-07-29T12:47:11Z</time>
      </trkpt>
      <trkpt lat="47.15886" lon="6.60498">
        <ele>536.4</ele>
        <time>2021-07-29T12:47:12Z</time>
      </trkpt>
      <trkpt lat="47.15888" lon="6.60497">
        <ele>536.4</ele>
        <time>2021-07-29T12:47:13Z</time>
      </trkpt>
      <trkpt lat="47.1589" lon="6.60496">
        <ele>536.6</ele>
        <time>2021-07-29T12:47:14Z</time>
      </trkpt>
      <trkpt lat="47.15892" lon="6.60496">
        <ele>536.6</ele>
        <time>2021-07-29T12:47:15Z</time>
      </trkpt>
      <trkpt lat="47.15894" lon="6.60496">
        <ele>536.6</ele>
        <time>2021-07-29T12:47:16Z</time>
      </trkpt>
      <trkpt lat="47.15896" lon="6.60496">
        <ele>536.6</ele>
        <time>2021-07-29T12:47:17Z</time>
      </trkpt>
      <trkpt lat="47.15899" lon="6.60496">
        <ele>536.6</ele>
        <time>2021-07-29T12:47:18Z</time>
      </trkpt>
      <trkpt lat="47.15901" lon="6.60496">
        <ele>536.6</ele>
        <time>2021-07-29T12:47:19Z</time>
      </trkpt>
      <trkpt lat="47.15904" lon="6.60496">
        <ele>536.6</ele>
        <time>2021-07-29T12:47:20Z</time>
      </trkpt>
      <trkpt lat="47.15907" lon="6.60495">
        <ele>536.6</ele>
        <time>2021-07-29T12:47:21Z</time>
      </trkpt>
      <trkpt lat="47.1591" lon="6.60496">
        <ele>536.4</ele>
        <time>2021-07-29T12:47:22Z</time>
      </trkpt>
      <trkpt lat="47.15914" lon="6.60496">
        <ele>536.4</ele>
        <time>2021-07-29T12:47:23Z</time>
      </trkpt>
      <trkpt lat="47.15918" lon="6.60497">
        <ele>536.2</ele>
        <time>2021-07-29T12:47:24Z</time>
      </trkpt>
      <trkpt lat="47.15922" lon="6.60499">
        <ele>536.2</ele>
        <time>2021-07-29T12:47:25Z</time>
      </trkpt>
      <trkpt lat="47.15926" lon="6.605">
        <ele>536.2</ele>
        <time>2021-07-29T12:47:26Z</time>
      </trkpt>
      <trkpt lat="47.1593" lon="6.60502">
        <ele>536.2</ele>
        <time>2021-07-29T12:47:27Z</time>
      </trkpt>
      <trkpt lat="47.15934" lon="6.60504">
        <ele>536</ele>
        <time>2021-07-29T12:47:28Z</time>
      </trkpt>
      <trkpt lat="47.15938" lon="6.60506">
        <ele>536.2</ele>
        <time>2021-07-29T12:47:29Z</time>
      </trkpt>
      <trkpt lat="47.15942" lon="6.60508">
        <ele>536.2</ele>
        <time>2021-07-29T12:47:30Z</time>
      </trkpt>
      <trkpt lat="47.15946" lon="6.60511">
        <ele>536.2</ele>
        <time>2021-07-29T12:47:31Z</time>
      </trkpt>
      <trkpt lat="47.1595" lon="6.60513">
        <ele>536.2</ele>
        <time>2021-07-29T12:47:32Z</time>
      </trkpt>
      <trkpt lat="47.15954" lon="6.60515">
        <ele>536.2</ele>
        <time>2021-07-29T12:47:33Z</time>
      </trkpt>
      <trkpt lat="47.15958" lon="6.60516">
        <ele>536.2</ele>
        <time>2021-07-29T12:47:34Z</time>
      </trkpt>
      <trkpt lat="47.15962" lon="6.60518">
        <ele>536.2</ele>
        <time>2021-07-29T12:47:35Z</time>
      </trkpt>
      <trkpt lat="47.15966" lon="6.60519">
        <ele>536.2</ele>
        <time>2021-07-29T12:47:36Z</time>
      </trkpt>
      <trkpt lat="47.1597" lon="6.6052">
        <ele>536.4</ele>
        <time>2021-07-29T12:47:37Z</time>
      </trkpt>
      <trkpt lat="47.15974" lon="6.60522">
        <ele>536.4</ele>
        <time>2021-07-29T12:47:38Z</time>
      </trkpt>
      <trkpt lat="47.15978" lon="6.60523">
        <ele>536.6</ele>
        <time>2021-07-29T12:47:39Z</time>
      </trkpt>
      <trkpt lat="47.15982" lon="6.60524">
        <ele>536.6</ele>
        <time>2021-07-29T12:47:40Z</time>
      </trkpt>
      <trkpt lat="47.15986" lon="6.60524">
        <ele>536.6</ele>
        <time>2021-07-29T12:47:41Z</time>
      </trkpt>
      <trkpt lat="47.1599" lon="6.60525">
        <ele>536.8</ele>
        <time>2021-07-29T12:47:42Z</time>
      </trkpt>
      <trkpt lat="47.15993" lon="6.60526">
        <ele>536.8</ele>
        <time>2021-07-29T12:47:43Z</time>
      </trkpt>
      <trkpt lat="47.15997" lon="6.60526">
        <ele>536.8</ele>
        <time>2021-07-29T12:47:44Z</time>
      </trkpt>
      <trkpt lat="47.16001" lon="6.60526">
        <ele>537</ele>
        <time>2021-07-29T12:47:45Z</time>
      </trkpt>
      <trkpt lat="47.16005" lon="6.60526">
        <ele>537</ele>
        <time>2021-07-29T12:47:46Z</time>
      </trkpt>
      <trkpt lat="47.16009" lon="6.60526">
        <ele>537</ele>
        <time>2021-07-29T12:47:47Z</time>
      </trkpt>
      <trkpt lat="47.16012" lon="6.60526">
        <ele>537.2</ele>
        <time>2021-07-29T12:47:48Z</time>
      </trkpt>
      <trkpt lat="47.16016" lon="6.60526">
        <ele>537.2</ele>
        <time>2021-07-29T12:47:49Z</time>
      </trkpt>
      <trkpt lat="47.16019" lon="6.60525">
        <ele>537.4</ele>
        <time>2021-07-29T12:47:50Z</time>
      </trkpt>
      <trkpt lat="47.16023" lon="6.60524">
        <ele>537.4</ele>
        <time>2021-07-29T12:47:51Z</time>
      </trkpt>
      <trkpt lat="47.16026" lon="6.60524">
        <ele>537.6</ele>
        <time>2021-07-29T12:47:52Z</time>
      </trkpt>
      <trkpt lat="47.1603" lon="6.60524">
        <ele>537.6</ele>
        <time>2021-07-29T12:47:53Z</time>
      </trkpt>
      <trkpt lat="47.16033" lon="6.60524">
        <ele>537.6</ele>
        <time>2021-07-29T12:47:54Z</time>
      </trkpt>
      <trkpt lat="47.16036" lon="6.60524">
        <ele>537.6</ele>
        <time>2021-07-29T12:47:55Z</time>
      </trkpt>
      <trkpt lat="47.16039" lon="6.60523">
        <ele>537.8</ele>
        <time>2021-07-29T12:47:56Z</time>
      </trkpt>
      <trkpt lat="47.16043" lon="6.60523">
        <ele>537.8</ele>
        <time>2021-07-29T12:47:57Z</time>
      </trkpt>
      <trkpt lat="47.16046" lon="6.60522">
        <ele>538</ele>
        <time>2021-07-29T12:47:58Z</time>
      </trkpt>
      <trkpt lat="47.16049" lon="6.60523">
        <ele>538</ele>
        <time>2021-07-29T12:47:59Z</time>
      </trkpt>
      <trkpt lat="47.16052" lon="6.60523">
        <ele>538</ele>
        <time>2021-07-29T12:48:00Z</time>
      </trkpt>
      <trkpt lat="47.16055" lon="6.60522">
        <ele>538.2</ele>
        <time>2021-07-29T12:48:01Z</time>
      </trkpt>
      <trkpt lat="47.16058" lon="6.60522">
        <ele>538.2</ele>
        <time>2021-07-29T12:48:02Z</time>
      </trkpt>
      <trkpt lat="47.16061" lon="6.60522">
        <ele>538.2</ele>
        <time>2021-07-29T12:48:03Z</time>
      </trkpt>
      <trkpt lat="47.16064" lon="6.60522">
        <ele>538.2</ele>
        <time>2021-07-29T12:48:04Z</time>
      </trkpt>
      <trkpt lat="47.16068" lon="6.60523">
        <ele>538.2</ele>
        <time>2021-07-29T12:48:05Z</time>
      </trkpt>
      <trkpt lat="47.16072" lon="6.60523">
        <ele>538.2</ele>
        <time>2021-07-29T12:48:06Z</time>
      </trkpt>
      <trkpt lat="47.16076" lon="6.60523">
        <ele>538.2</ele>
        <time>2021-07-29T12:48:07Z</time>
      </trkpt>
      <trkpt lat="47.1608" lon="6.60523">
        <ele>538</ele>
        <time>2021-07-29T12:48:08Z</time>
      </trkpt>
      <trkpt lat="47.16084" lon="6.60523">
        <ele>538</ele>
        <time>2021-07-29T12:48:09Z</time>
      </trkpt>
      <trkpt lat="47.16087" lon="6.60523">
        <ele>538</ele>
        <time>2021-07-29T12:48:10Z</time>
      </trkpt>
      <trkpt lat="47.16091" lon="6.60522">
        <ele>537.8</ele>
        <time>2021-07-29T12:48:11Z</time>
      </trkpt>
      <trkpt lat="47.16095" lon="6.60522">
        <ele>537.8</ele>
        <time>2021-07-29T12:48:12Z</time>
      </trkpt>
      <trkpt lat="47.161" lon="6.60522">
        <ele>537.6</ele>
        <time>2021-07-29T12:48:13Z</time>
      </trkpt>
      <trkpt lat="47.16105" lon="6.60523">
        <ele>537.4</ele>
        <time>2021-07-29T12:48:14Z</time>
      </trkpt>
      <trkpt lat="47.1611" lon="6.60523">
        <ele>537.2</ele>
        <time>2021-07-29T12:48:15Z</time>
      </trkpt>
      <trkpt lat="47.16115" lon="6.60524">
        <ele>537</ele>
        <time>2021-07-29T12:48:16Z</time>
      </trkpt>
      <trkpt lat="47.1612" lon="6.60524">
        <ele>537</ele>
        <time>2021-07-29T12:48:17Z</time>
      </trkpt>
      <trkpt lat="47.16125" lon="6.60524">
        <ele>536.8</ele>
        <time>2021-07-29T12:48:18Z</time>
      </trkpt>
      <trkpt lat="47.16132" lon="6.60524">
        <ele>536.6</ele>
        <time>2021-07-29T12:48:19Z</time>
      </trkpt>
      <trkpt lat="47.16138" lon="6.60524">
        <ele>536.6</ele>
        <time>2021-07-29T12:48:20Z</time>
      </trkpt>
      <trkpt lat="47.16143" lon="6.60524">
        <ele>536.4</ele>
        <time>2021-07-29T12:48:21Z</time>
      </trkpt>
      <trkpt lat="47.16147" lon="6.60526">
        <ele>536.2</ele>
        <time>2021-07-29T12:48:22Z</time>
      </trkpt>
      <trkpt lat="47.16153" lon="6.60526">
        <ele>536</ele>
        <time>2021-07-29T12:48:23Z</time>
      </trkpt>
      <trkpt lat="47.16159" lon="6.60525">
        <ele>536</ele>
        <time>2021-07-29T12:48:24Z</time>
      </trkpt>
      <trkpt lat="47.16165" lon="6.60523">
        <ele>535.8</ele>
        <time>2021-07-29T12:48:25Z</time>
      </trkpt>
      <trkpt lat="47.16172" lon="6.60522">
        <ele>535.6</ele>
        <time>2021-07-29T12:48:26Z</time>
      </trkpt>
      <trkpt lat="47.16178" lon="6.60519">
        <ele>535.4</ele>
        <time>2021-07-29T12:48:27Z</time>
      </trkpt>
      <trkpt lat="47.16184" lon="6.60518">
        <ele>535.2</ele>
        <time>2021-07-29T12:48:28Z</time>
      </trkpt>
      <trkpt lat="47.16191" lon="6.60516">
        <ele>535</ele>
        <time>2021-07-29T12:48:29Z</time>
      </trkpt>
      <trkpt lat="47.16196" lon="6.60514">
        <ele>534.6</ele>
        <time>2021-07-29T12:48:30Z</time>
      </trkpt>
      <trkpt lat="47.16202" lon="6.60511">
        <ele>534.6</ele>
        <time>2021-07-29T12:48:31Z</time>
      </trkpt>
      <trkpt lat="47.16209" lon="6.60508">
        <ele>534.2</ele>
        <time>2021-07-29T12:48:32Z</time>
      </trkpt>
      <trkpt lat="47.16217" lon="6.60506">
        <ele>534</ele>
        <time>2021-07-29T12:48:33Z</time>
      </trkpt>
      <trkpt lat="47.16224" lon="6.60504">
        <ele>534</ele>
        <time>2021-07-29T12:48:34Z</time>
      </trkpt>
      <trkpt lat="47.16231" lon="6.60502">
        <ele>533.8</ele>
        <time>2021-07-29T12:48:35Z</time>
      </trkpt>
      <trkpt lat="47.16238" lon="6.605">
        <ele>533.8</ele>
        <time>2021-07-29T12:48:36Z</time>
      </trkpt>
      <trkpt lat="47.16246" lon="6.60498">
        <ele>533.6</ele>
        <time>2021-07-29T12:48:37Z</time>
      </trkpt>
      <trkpt lat="47.16253" lon="6.60496">
        <ele>533.4</ele>
        <time>2021-07-29T12:48:38Z</time>
      </trkpt>
      <trkpt lat="47.1626" lon="6.60495">
        <ele>533.2</ele>
        <time>2021-07-29T12:48:39Z</time>
      </trkpt>
      <trkpt lat="47.16267" lon="6.60493">
        <ele>533</ele>
        <time>2021-07-29T12:48:40Z</time>
      </trkpt>
      <trkpt lat="47.16274" lon="6.60491">
        <ele>533</ele>
        <time>2021-07-29T12:48:41Z</time>
      </trkpt>
      <trkpt lat="47.16281" lon="6.60489">
        <ele>532.8</ele>
        <time>2021-07-29T12:48:42Z</time>
      </trkpt>
      <trkpt lat="47.16289" lon="6.60486">
        <ele>532.6</ele>
        <time>2021-07-29T12:48:43Z</time>
      </trkpt>
      <trkpt lat="47.16295" lon="6.60484">
        <ele>532.4</ele>
        <time>2021-07-29T12:48:44Z</time>
      </trkpt>
      <trkpt lat="47.16302" lon="6.60482">
        <ele>532.2</ele>
        <time>2021-07-29T12:48:45Z</time>
      </trkpt>
      <trkpt lat="47.16308" lon="6.6048">
        <ele>532</ele>
        <time>2021-07-29T12:48:46Z</time>
      </trkpt>
      <trkpt lat="47.16315" lon="6.60477">
        <ele>532</ele>
        <time>2021-07-29T12:48:47Z</time>
      </trkpt>
      <trkpt lat="47.16321" lon="6.60474">
        <ele>532</ele>
        <time>2021-07-29T12:48:48Z</time>
      </trkpt>
      <trkpt lat="47.16328" lon="6.60471">
        <ele>532</ele>
        <time>2021-07-29T12:48:49Z</time>
      </trkpt>
      <trkpt lat="47.16334" lon="6.60468">
        <ele>531.8</ele>
        <time>2021-07-29T12:48:50Z</time>
      </trkpt>
      <trkpt lat="47.1634" lon="6.60465">
        <ele>531.8</ele>
        <time>2021-07-29T12:48:51Z</time>
      </trkpt>
      <trkpt lat="47.16347" lon="6.60461">
        <ele>531.8</ele>
        <time>2021-07-29T12:48:52Z</time>
      </trkpt>
      <trkpt lat="47.16353" lon="6.60457">
        <ele>531.8</ele>
        <time>2021-07-29T12:48:53Z</time>
      </trkpt>
      <trkpt lat="47.16359" lon="6.60453">
        <ele>531.8</ele>
        <time>2021-07-29T12:48:54Z</time>
      </trkpt>
      <trkpt lat="47.16365" lon="6.60448">
        <ele>531.8</ele>
        <time>2021-07-29T12:48:55Z</time>
      </trkpt>
      <trkpt lat="47.1637" lon="6.60444">
        <ele>531.6</ele>
        <time>2021-07-29T12:48:56Z</time>
      </trkpt>
      <trkpt lat="47.16376" lon="6.60439">
        <ele>531.6</ele>
        <time>2021-07-29T12:48:57Z</time>
      </trkpt>
      <trkpt lat="47.16382" lon="6.60435">
        <ele>531.4</ele>
        <time>2021-07-29T12:48:58Z</time>
      </trkpt>
      <trkpt lat="47.16387" lon="6.6043">
        <ele>531.2</ele>
        <time>2021-07-29T12:48:59Z</time>
      </trkpt>
      <trkpt lat="47.16393" lon="6.60427">
        <ele>531.2</ele>
        <time>2021-07-29T12:49:00Z</time>
      </trkpt>
      <trkpt lat="47.16399" lon="6.60424">
        <ele>531</ele>
        <time>2021-07-29T12:49:01Z</time>
      </trkpt>
      <trkpt lat="47.16405" lon="6.60421">
        <ele>530.8</ele>
        <time>2021-07-29T12:49:02Z</time>
      </trkpt>
      <trkpt lat="47.16412" lon="6.6042">
        <ele>530.8</ele>
        <time>2021-07-29T12:49:03Z</time>
      </trkpt>
      <trkpt lat="47.16424" lon="6.60417">
        <ele>530.6</ele>
        <time>2021-07-29T12:49:04Z</time>
      </trkpt>
      <trkpt lat="47.16427" lon="6.60416">
        <ele>530.4</ele>
        <time>2021-07-29T12:49:05Z</time>
      </trkpt>
      <trkpt lat="47.16431" lon="6.60416">
        <ele>530.2</ele>
        <time>2021-07-29T12:49:06Z</time>
      </trkpt>
      <trkpt lat="47.16437" lon="6.60415">
        <ele>530.2</ele>
        <time>2021-07-29T12:49:07Z</time>
      </trkpt>
      <trkpt lat="47.16443" lon="6.60415">
        <ele>530.2</ele>
        <time>2021-07-29T12:49:08Z</time>
      </trkpt>
      <trkpt lat="47.16449" lon="6.60414">
        <ele>530.2</ele>
        <time>2021-07-29T12:49:09Z</time>
      </trkpt>
      <trkpt lat="47.16456" lon="6.60414">
        <ele>530.2</ele>
        <time>2021-07-29T12:49:10Z</time>
      </trkpt>
      <trkpt lat="47.16462" lon="6.60413">
        <ele>530</ele>
        <time>2021-07-29T12:49:11Z</time>
      </trkpt>
      <trkpt lat="47.16467" lon="6.60412">
        <ele>530</ele>
        <time>2021-07-29T12:49:12Z</time>
      </trkpt>
      <trkpt lat="47.16473" lon="6.60411">
        <ele>529.8</ele>
        <time>2021-07-29T12:49:13Z</time>
      </trkpt>
      <trkpt lat="47.1648" lon="6.6041">
        <ele>529.8</ele>
        <time>2021-07-29T12:49:14Z</time>
      </trkpt>
      <trkpt lat="47.16486" lon="6.60409">
        <ele>529.6</ele>
        <time>2021-07-29T12:49:15Z</time>
      </trkpt>
      <trkpt lat="47.16492" lon="6.60406">
        <ele>529.6</ele>
        <time>2021-07-29T12:49:16Z</time>
      </trkpt>
      <trkpt lat="47.16498" lon="6.60404">
        <ele>529.6</ele>
        <time>2021-07-29T12:49:17Z</time>
      </trkpt>
      <trkpt lat="47.16504" lon="6.60401">
        <ele>529.6</ele>
        <time>2021-07-29T12:49:18Z</time>
      </trkpt>
      <trkpt lat="47.1651" lon="6.60398">
        <ele>529.4</ele>
        <time>2021-07-29T12:49:19Z</time>
      </trkpt>
      <trkpt lat="47.16516" lon="6.60395">
        <ele>529.4</ele>
        <time>2021-07-29T12:49:20Z</time>
      </trkpt>
      <trkpt lat="47.16522" lon="6.60393">
        <ele>529.4</ele>
        <time>2021-07-29T12:49:21Z</time>
      </trkpt>
      <trkpt lat="47.16528" lon="6.60389">
        <ele>529.2</ele>
        <time>2021-07-29T12:49:22Z</time>
      </trkpt>
      <trkpt lat="47.1654" lon="6.60382">
        <ele>529.4</ele>
        <time>2021-07-29T12:49:23Z</time>
      </trkpt>
      <trkpt lat="47.16543" lon="6.6038">
        <ele>529.4</ele>
        <time>2021-07-29T12:49:24Z</time>
      </trkpt>
      <trkpt lat="47.16545" lon="6.60378">
        <ele>529.4</ele>
        <time>2021-07-29T12:49:25Z</time>
      </trkpt>
      <trkpt lat="47.16551" lon="6.60373">
        <ele>529.4</ele>
        <time>2021-07-29T12:49:26Z</time>
      </trkpt>
      <trkpt lat="47.16557" lon="6.60369">
        <ele>529.4</ele>
        <time>2021-07-29T12:49:27Z</time>
      </trkpt>
      <trkpt lat="47.16562" lon="6.60366">
        <ele>529.4</ele>
        <time>2021-07-29T12:49:28Z</time>
      </trkpt>
      <trkpt lat="47.16567" lon="6.60363">
        <ele>529.6</ele>
        <time>2021-07-29T12:49:29Z</time>
      </trkpt>
      <trkpt lat="47.16572" lon="6.60359">
        <ele>529.6</ele>
        <time>2021-07-29T12:49:30Z</time>
      </trkpt>
      <trkpt lat="47.16577" lon="6.60355">
        <ele>529.8</ele>
        <time>2021-07-29T12:49:31Z</time>
      </trkpt>
      <trkpt lat="47.16582" lon="6.60352">
        <ele>530</ele>
        <time>2021-07-29T12:49:32Z</time>
      </trkpt>
      <trkpt lat="47.16586" lon="6.6035">
        <ele>530.2</ele>
        <time>2021-07-29T12:49:33Z</time>
      </trkpt>
      <trkpt lat="47.16591" lon="6.60347">
        <ele>530.2</ele>
        <time>2021-07-29T12:49:34Z</time>
      </trkpt>
      <trkpt lat="47.16595" lon="6.60344">
        <ele>530.6</ele>
        <time>2021-07-29T12:49:35Z</time>
      </trkpt>
      <trkpt lat="47.16599" lon="6.60341">
        <ele>530.8</ele>
        <time>2021-07-29T12:49:36Z</time>
      </trkpt>
      <trkpt lat="47.16602" lon="6.60339">
        <ele>531</ele>
        <time>2021-07-29T12:49:37Z</time>
      </trkpt>
      <trkpt lat="47.16606" lon="6.60336">
        <ele>531</ele>
        <time>2021-07-29T12:49:38Z</time>
      </trkpt>
      <trkpt lat="47.1661" lon="6.60333">
        <ele>531.2</ele>
        <time>2021-07-29T12:49:39Z</time>
      </trkpt>
      <trkpt lat="47.16617" lon="6.60327">
        <ele>531.2</ele>
        <time>2021-07-29T12:49:40Z</time>
      </trkpt>
      <trkpt lat="47.16618" lon="6.60326">
        <ele>531.4</ele>
        <time>2021-07-29T12:49:41Z</time>
      </trkpt>
      <trkpt lat="47.1662" lon="6.60324">
        <ele>531.6</ele>
        <time>2021-07-29T12:49:42Z</time>
      </trkpt>
      <trkpt lat="47.16623" lon="6.60322">
        <ele>531.6</ele>
        <time>2021-07-29T12:49:43Z</time>
      </trkpt>
      <trkpt lat="47.16626" lon="6.6032">
        <ele>531.8</ele>
        <time>2021-07-29T12:49:44Z</time>
      </trkpt>
      <trkpt lat="47.16629" lon="6.60317">
        <ele>531.8</ele>
        <time>2021-07-29T12:49:45Z</time>
      </trkpt>
      <trkpt lat="47.16632" lon="6.60316">
        <ele>532</ele>
        <time>2021-07-29T12:49:46Z</time>
      </trkpt>
      <trkpt lat="47.16635" lon="6.60313">
        <ele>532.2</ele>
        <time>2021-07-29T12:49:47Z</time>
      </trkpt>
      <trkpt lat="47.16638" lon="6.60311">
        <ele>532.2</ele>
        <time>2021-07-29T12:49:48Z</time>
      </trkpt>
      <trkpt lat="47.16641" lon="6.6031">
        <ele>532.4</ele>
        <time>2021-07-29T12:49:49Z</time>
      </trkpt>
      <trkpt lat="47.16647" lon="6.60307">
        <ele>532.6</ele>
        <time>2021-07-29T12:49:50Z</time>
      </trkpt>
      <trkpt lat="47.16647" lon="6.60307">
        <ele>532.8</ele>
        <time>2021-07-29T12:49:51Z</time>
      </trkpt>
      <trkpt lat="47.1665" lon="6.60306">
        <ele>533</ele>
        <time>2021-07-29T12:49:52Z</time>
      </trkpt>
      <trkpt lat="47.16653" lon="6.60305">
        <ele>533</ele>
        <time>2021-07-29T12:49:53Z</time>
      </trkpt>
      <trkpt lat="47.16656" lon="6.60304">
        <ele>533</ele>
        <time>2021-07-29T12:49:54Z</time>
      </trkpt>
      <trkpt lat="47.16661" lon="6.60301">
        <ele>533.2</ele>
        <time>2021-07-29T12:49:55Z</time>
      </trkpt>
      <trkpt lat="47.16664" lon="6.60301">
        <ele>533.2</ele>
        <time>2021-07-29T12:49:56Z</time>
      </trkpt>
      <trkpt lat="47.16667" lon="6.603">
        <ele>533.4</ele>
        <time>2021-07-29T12:49:57Z</time>
      </trkpt>
      <trkpt lat="47.16667" lon="6.603">
        <ele>533.4</ele>
        <time>2021-07-29T12:49:58Z</time>
      </trkpt>
      <trkpt lat="47.1667" lon="6.60298">
        <ele>533.4</ele>
        <time>2021-07-29T12:49:59Z</time>
      </trkpt>
      <trkpt lat="47.16672" lon="6.60298">
        <ele>533.6</ele>
        <time>2021-07-29T12:50:00Z</time>
      </trkpt>
      <trkpt lat="47.16677" lon="6.60295">
        <ele>533.6</ele>
        <time>2021-07-29T12:50:01Z</time>
      </trkpt>
      <trkpt lat="47.16677" lon="6.60295">
        <ele>533.6</ele>
        <time>2021-07-29T12:50:02Z</time>
      </trkpt>
      <trkpt lat="47.16679" lon="6.60294">
        <ele>533.8</ele>
        <time>2021-07-29T12:50:03Z</time>
      </trkpt>
      <trkpt lat="47.16682" lon="6.60292">
        <ele>534</ele>
        <time>2021-07-29T12:50:04Z</time>
      </trkpt>
      <trkpt lat="47.16688" lon="6.60287">
        <ele>534</ele>
        <time>2021-07-29T12:50:05Z</time>
      </trkpt>
      <trkpt lat="47.16688" lon="6.60287">
        <ele>534</ele>
        <time>2021-07-29T12:50:06Z</time>
      </trkpt>
      <trkpt lat="47.16691" lon="6.60285">
        <ele>534.2</ele>
        <time>2021-07-29T12:50:07Z</time>
      </trkpt>
      <trkpt lat="47.16693" lon="6.60282">
        <ele>534.2</ele>
        <time>2021-07-29T12:50:08Z</time>
      </trkpt>
      <trkpt lat="47.16696" lon="6.6028">
        <ele>534.2</ele>
        <time>2021-07-29T12:50:09Z</time>
      </trkpt>
      <trkpt lat="47.16698" lon="6.60277">
        <ele>534.4</ele>
        <time>2021-07-29T12:50:10Z</time>
      </trkpt>
      <trkpt lat="47.16701" lon="6.60273">
        <ele>534.4</ele>
        <time>2021-07-29T12:50:11Z</time>
      </trkpt>
      <trkpt lat="47.16703" lon="6.60271">
        <ele>534.6</ele>
        <time>2021-07-29T12:50:12Z</time>
      </trkpt>
      <trkpt lat="47.16706" lon="6.60268">
        <ele>534.6</ele>
        <time>2021-07-29T12:50:13Z</time>
      </trkpt>
      <trkpt lat="47.16711" lon="6.60263">
        <ele>534.6</ele>
        <time>2021-07-29T12:50:14Z</time>
      </trkpt>
      <trkpt lat="47.16711" lon="6.60263">
        <ele>534.8</ele>
        <time>2021-07-29T12:50:15Z</time>
      </trkpt>
      <trkpt lat="47.16714" lon="6.6026">
        <ele>535</ele>
        <time>2021-07-29T12:50:16Z</time>
      </trkpt>
      <trkpt lat="47.16716" lon="6.60258">
        <ele>535</ele>
        <time>2021-07-29T12:50:17Z</time>
      </trkpt>
      <trkpt lat="47.16718" lon="6.60256">
        <ele>535.2</ele>
        <time>2021-07-29T12:50:18Z</time>
      </trkpt>
      <trkpt lat="47.1672" lon="6.60254">
        <ele>535.4</ele>
        <time>2021-07-29T12:50:19Z</time>
      </trkpt>
      <trkpt lat="47.16722" lon="6.60253">
        <ele>535.4</ele>
        <time>2021-07-29T12:50:20Z</time>
      </trkpt>
      <trkpt lat="47.16727" lon="6.60249">
        <ele>535.6</ele>
        <time>2021-07-29T12:50:21Z</time>
      </trkpt>
      <trkpt lat="47.16727" lon="6.60249">
        <ele>535.6</ele>
        <time>2021-07-29T12:50:22Z</time>
      </trkpt>
      <trkpt lat="47.16729" lon="6.60248">
        <ele>535.6</ele>
        <time>2021-07-29T12:50:23Z</time>
      </trkpt>
      <trkpt lat="47.16734" lon="6.60244">
        <ele>535.6</ele>
        <time>2021-07-29T12:50:24Z</time>
      </trkpt>
      <trkpt lat="47.16734" lon="6.60244">
        <ele>535.8</ele>
        <time>2021-07-29T12:50:25Z</time>
      </trkpt>
      <trkpt lat="47.16736" lon="6.60242">
        <ele>535.8</ele>
        <time>2021-07-29T12:50:26Z</time>
      </trkpt>
      <trkpt lat="47.16741" lon="6.60239">
        <ele>535.8</ele>
        <time>2021-07-29T12:50:27Z</time>
      </trkpt>
      <trkpt lat="47.16743" lon="6.60237">
        <ele>535.8</ele>
        <time>2021-07-29T12:50:28Z</time>
      </trkpt>
      <trkpt lat="47.16745" lon="6.60236">
        <ele>535.8</ele>
        <time>2021-07-29T12:50:29Z</time>
      </trkpt>
      <trkpt lat="47.16747" lon="6.60235">
        <ele>536</ele>
        <time>2021-07-29T12:50:30Z</time>
      </trkpt>
      <trkpt lat="47.16747" lon="6.60235">
        <ele>535.8</ele>
        <time>2021-07-29T12:50:31Z</time>
      </trkpt>
      <trkpt lat="47.1675" lon="6.60234">
        <ele>535.8</ele>
        <time>2021-07-29T12:50:32Z</time>
      </trkpt>
      <trkpt lat="47.16752" lon="6.60234">
        <ele>535.8</ele>
        <time>2021-07-29T12:50:33Z</time>
      </trkpt>
      <trkpt lat="47.16753" lon="6.60233">
        <ele>535.6</ele>
        <time>2021-07-29T12:50:34Z</time>
      </trkpt>
      <trkpt lat="47.16754" lon="6.60233">
        <ele>535.6</ele>
        <time>2021-07-29T12:50:35Z</time>
      </trkpt>
      <trkpt lat="47.16755" lon="6.60233">
        <ele>535.6</ele>
        <time>2021-07-29T12:50:36Z</time>
      </trkpt>
      <trkpt lat="47.16755" lon="6.60232">
        <ele>535.6</ele>
        <time>2021-07-29T12:50:37Z</time>
      </trkpt>
      <trkpt lat="47.16756" lon="6.60232">
        <ele>535.4</ele>
        <time>2021-07-29T12:50:38Z</time>
      </trkpt>
      <trkpt lat="47.16758" lon="6.60231">
        <ele>535.4</ele>
        <time>2021-07-29T12:50:39Z</time>
      </trkpt>
      <trkpt lat="47.16761" lon="6.60231">
        <ele>535.2</ele>
        <time>2021-07-29T12:50:40Z</time>
      </trkpt>
      <trkpt lat="47.16761" lon="6.60231">
        <ele>535.2</ele>
        <time>2021-07-29T12:50:41Z</time>
      </trkpt>
      <trkpt lat="47.16764" lon="6.60231">
        <ele>534.8</ele>
        <time>2021-07-29T12:50:42Z</time>
      </trkpt>
      <trkpt lat="47.16768" lon="6.6023">
        <ele>534.6</ele>
        <time>2021-07-29T12:50:43Z</time>
      </trkpt>
      <trkpt lat="47.16771" lon="6.60231">
        <ele>534.2</ele>
        <time>2021-07-29T12:50:44Z</time>
      </trkpt>
      <trkpt lat="47.16775" lon="6.60232">
        <ele>534</ele>
        <time>2021-07-29T12:50:45Z</time>
      </trkpt>
      <trkpt lat="47.16785" lon="6.60233">
        <ele>533.6</ele>
        <time>2021-07-29T12:50:46Z</time>
      </trkpt>
      <trkpt lat="47.16789" lon="6.60235">
        <ele>533.2</ele>
        <time>2021-07-29T12:50:47Z</time>
      </trkpt>
      <trkpt lat="47.16792" lon="6.60236">
        <ele>533</ele>
        <time>2021-07-29T12:50:48Z</time>
      </trkpt>
      <trkpt lat="47.16795" lon="6.60237">
        <ele>532.6</ele>
        <time>2021-07-29T12:50:49Z</time>
      </trkpt>
      <trkpt lat="47.16802" lon="6.60239">
        <ele>532.2</ele>
        <time>2021-07-29T12:50:50Z</time>
      </trkpt>
      <trkpt lat="47.16809" lon="6.60242">
        <ele>531.8</ele>
        <time>2021-07-29T12:50:51Z</time>
      </trkpt>
      <trkpt lat="47.16823" lon="6.60251">
        <ele>531.6</ele>
        <time>2021-07-29T12:50:52Z</time>
      </trkpt>
      <trkpt lat="47.16832" lon="6.60255">
        <ele>531.2</ele>
        <time>2021-07-29T12:50:53Z</time>
      </trkpt>
      <trkpt lat="47.16839" lon="6.6026">
        <ele>530.6</ele>
        <time>2021-07-29T12:50:54Z</time>
      </trkpt>
      <trkpt lat="47.16842" lon="6.60263">
        <ele>530.6</ele>
        <time>2021-07-29T12:50:55Z</time>
      </trkpt>
      <trkpt lat="47.16846" lon="6.60266">
        <ele>530.4</ele>
        <time>2021-07-29T12:50:56Z</time>
      </trkpt>
      <trkpt lat="47.1686" lon="6.60276">
        <ele>530</ele>
        <time>2021-07-29T12:50:57Z</time>
      </trkpt>
      <trkpt lat="47.16868" lon="6.60282">
        <ele>529.6</ele>
        <time>2021-07-29T12:50:58Z</time>
      </trkpt>
      <trkpt lat="47.16875" lon="6.60288">
        <ele>529.2</ele>
        <time>2021-07-29T12:50:59Z</time>
      </trkpt>
      <trkpt lat="47.16882" lon="6.60293">
        <ele>529.2</ele>
        <time>2021-07-29T12:51:00Z</time>
      </trkpt>
      <trkpt lat="47.16888" lon="6.60298">
        <ele>529</ele>
        <time>2021-07-29T12:51:01Z</time>
      </trkpt>
      <trkpt lat="47.16891" lon="6.60301">
        <ele>528.8</ele>
        <time>2021-07-29T12:51:02Z</time>
      </trkpt>
      <trkpt lat="47.16895" lon="6.60303">
        <ele>528.8</ele>
        <time>2021-07-29T12:51:03Z</time>
      </trkpt>
      <trkpt lat="47.16907" lon="6.60313">
        <ele>528.8</ele>
        <time>2021-07-29T12:51:04Z</time>
      </trkpt>
      <trkpt lat="47.16912" lon="6.60316">
        <ele>528.8</ele>
        <time>2021-07-29T12:51:05Z</time>
      </trkpt>
      <trkpt lat="47.16916" lon="6.6032">
        <ele>528.6</ele>
        <time>2021-07-29T12:51:06Z</time>
      </trkpt>
      <trkpt lat="47.16926" lon="6.60326">
        <ele>528.6</ele>
        <time>2021-07-29T12:51:07Z</time>
      </trkpt>
      <trkpt lat="47.16931" lon="6.60331">
        <ele>528.6</ele>
        <time>2021-07-29T12:51:08Z</time>
      </trkpt>
      <trkpt lat="47.16937" lon="6.60335">
        <ele>528.6</ele>
        <time>2021-07-29T12:51:09Z</time>
      </trkpt>
      <trkpt lat="47.16942" lon="6.60339">
        <ele>528.6</ele>
        <time>2021-07-29T12:51:10Z</time>
      </trkpt>
      <trkpt lat="47.16945" lon="6.6034">
        <ele>528.6</ele>
        <time>2021-07-29T12:51:11Z</time>
      </trkpt>
      <trkpt lat="47.16947" lon="6.60342">
        <ele>528.6</ele>
        <time>2021-07-29T12:51:12Z</time>
      </trkpt>
      <trkpt lat="47.16956" lon="6.60349">
        <ele>528.8</ele>
        <time>2021-07-29T12:51:13Z</time>
      </trkpt>
      <trkpt lat="47.1696" lon="6.60351">
        <ele>528.8</ele>
        <time>2021-07-29T12:51:14Z</time>
      </trkpt>
      <trkpt lat="47.16968" lon="6.60357">
        <ele>528.8</ele>
        <time>2021-07-29T12:51:15Z</time>
      </trkpt>
      <trkpt lat="47.16973" lon="6.6036">
        <ele>529</ele>
        <time>2021-07-29T12:51:16Z</time>
      </trkpt>
      <trkpt lat="47.16975" lon="6.60361">
        <ele>529</ele>
        <time>2021-07-29T12:51:17Z</time>
      </trkpt>
      <trkpt lat="47.16978" lon="6.60363">
        <ele>528.6</ele>
        <time>2021-07-29T12:51:18Z</time>
      </trkpt>
      <trkpt lat="47.16987" lon="6.6037">
        <ele>528.6</ele>
        <time>2021-07-29T12:51:19Z</time>
      </trkpt>
      <trkpt lat="47.1699" lon="6.60371">
        <ele>528.4</ele>
        <time>2021-07-29T12:51:20Z</time>
      </trkpt>
      <trkpt lat="47.16992" lon="6.60373">
        <ele>528.4</ele>
        <time>2021-07-29T12:51:21Z</time>
      </trkpt>
      <trkpt lat="47.17003" lon="6.6038">
        <ele>528.4</ele>
        <time>2021-07-29T12:51:22Z</time>
      </trkpt>
      <trkpt lat="47.17007" lon="6.60384">
        <ele>528.4</ele>
        <time>2021-07-29T12:51:23Z</time>
      </trkpt>
      <trkpt lat="47.17012" lon="6.60387">
        <ele>528.4</ele>
        <time>2021-07-29T12:51:24Z</time>
      </trkpt>
      <trkpt lat="47.17016" lon="6.60391">
        <ele>528.6</ele>
        <time>2021-07-29T12:51:25Z</time>
      </trkpt>
      <trkpt lat="47.1702" lon="6.60394">
        <ele>528.6</ele>
        <time>2021-07-29T12:51:26Z</time>
      </trkpt>
      <trkpt lat="47.17024" lon="6.60398">
        <ele>528.6</ele>
        <time>2021-07-29T12:51:27Z</time>
      </trkpt>
      <trkpt lat="47.17028" lon="6.60403">
        <ele>528.6</ele>
        <time>2021-07-29T12:51:28Z</time>
      </trkpt>
      <trkpt lat="47.17031" lon="6.60407">
        <ele>528.4</ele>
        <time>2021-07-29T12:51:29Z</time>
      </trkpt>
      <trkpt lat="47.17035" lon="6.60412">
        <ele>528.4</ele>
        <time>2021-07-29T12:51:30Z</time>
      </trkpt>
      <trkpt lat="47.17038" lon="6.60418">
        <ele>528.2</ele>
        <time>2021-07-29T12:51:31Z</time>
      </trkpt>
      <trkpt lat="47.1704" lon="6.60422">
        <ele>528.4</ele>
        <time>2021-07-29T12:51:32Z</time>
      </trkpt>
      <trkpt lat="47.17043" lon="6.60427">
        <ele>528.4</ele>
        <time>2021-07-29T12:51:33Z</time>
      </trkpt>
      <trkpt lat="47.17046" lon="6.60432">
        <ele>528.6</ele>
        <time>2021-07-29T12:51:34Z</time>
      </trkpt>
      <trkpt lat="47.17048" lon="6.60437">
        <ele>528.6</ele>
        <time>2021-07-29T12:51:35Z</time>
      </trkpt>
      <trkpt lat="47.17051" lon="6.60441">
        <ele>528.6</ele>
        <time>2021-07-29T12:51:36Z</time>
      </trkpt>
      <trkpt lat="47.17054" lon="6.60446">
        <ele>528.8</ele>
        <time>2021-07-29T12:51:37Z</time>
      </trkpt>
      <trkpt lat="47.17056" lon="6.6045">
        <ele>529</ele>
        <time>2021-07-29T12:51:38Z</time>
      </trkpt>
      <trkpt lat="47.17059" lon="6.60452">
        <ele>529</ele>
        <time>2021-07-29T12:51:39Z</time>
      </trkpt>
      <trkpt lat="47.17062" lon="6.60456">
        <ele>529.2</ele>
        <time>2021-07-29T12:51:40Z</time>
      </trkpt>
      <trkpt lat="47.17064" lon="6.6046">
        <ele>529.2</ele>
        <time>2021-07-29T12:51:41Z</time>
      </trkpt>
      <trkpt lat="47.17067" lon="6.60464">
        <ele>529.4</ele>
        <time>2021-07-29T12:51:42Z</time>
      </trkpt>
      <trkpt lat="47.1707" lon="6.60467">
        <ele>529.2</ele>
        <time>2021-07-29T12:51:43Z</time>
      </trkpt>
      <trkpt lat="47.17073" lon="6.6047">
        <ele>529.4</ele>
        <time>2021-07-29T12:51:44Z</time>
      </trkpt>
      <trkpt lat="47.17076" lon="6.60474">
        <ele>529.2</ele>
        <time>2021-07-29T12:51:45Z</time>
      </trkpt>
      <trkpt lat="47.17079" lon="6.60477">
        <ele>529.2</ele>
        <time>2021-07-29T12:51:46Z</time>
      </trkpt>
      <trkpt lat="47.17082" lon="6.60481">
        <ele>529.2</ele>
        <time>2021-07-29T12:51:47Z</time>
      </trkpt>
      <trkpt lat="47.17086" lon="6.60485">
        <ele>529.2</ele>
        <time>2021-07-29T12:51:48Z</time>
      </trkpt>
      <trkpt lat="47.1709" lon="6.60488">
        <ele>529.2</ele>
        <time>2021-07-29T12:51:49Z</time>
      </trkpt>
      <trkpt lat="47.17093" lon="6.60492">
        <ele>529.2</ele>
        <time>2021-07-29T12:51:50Z</time>
      </trkpt>
      <trkpt lat="47.17097" lon="6.60495">
        <ele>529.2</ele>
        <time>2021-07-29T12:51:51Z</time>
      </trkpt>
      <trkpt lat="47.17101" lon="6.605">
        <ele>529.2</ele>
        <time>2021-07-29T12:51:52Z</time>
      </trkpt>
      <trkpt lat="47.17106" lon="6.60503">
        <ele>529</ele>
        <time>2021-07-29T12:51:53Z</time>
      </trkpt>
      <trkpt lat="47.17109" lon="6.60507">
        <ele>529.2</ele>
        <time>2021-07-29T12:51:54Z</time>
      </trkpt>
      <trkpt lat="47.17113" lon="6.60512">
        <ele>529.2</ele>
        <time>2021-07-29T12:51:55Z</time>
      </trkpt>
      <trkpt lat="47.17117" lon="6.60516">
        <ele>529.2</ele>
        <time>2021-07-29T12:51:56Z</time>
      </trkpt>
      <trkpt lat="47.17121" lon="6.6052">
        <ele>529.2</ele>
        <time>2021-07-29T12:51:57Z</time>
      </trkpt>
      <trkpt lat="47.17125" lon="6.60524">
        <ele>529.4</ele>
        <time>2021-07-29T12:51:58Z</time>
      </trkpt>
      <trkpt lat="47.17129" lon="6.60527">
        <ele>529.6</ele>
        <time>2021-07-29T12:51:59Z</time>
      </trkpt>
      <trkpt lat="47.17133" lon="6.60531">
        <ele>529.8</ele>
        <time>2021-07-29T12:52:00Z</time>
      </trkpt>
      <trkpt lat="47.17137" lon="6.60534">
        <ele>530</ele>
        <time>2021-07-29T12:52:01Z</time>
      </trkpt>
      <trkpt lat="47.17141" lon="6.60537">
        <ele>530</ele>
        <time>2021-07-29T12:52:02Z</time>
      </trkpt>
      <trkpt lat="47.17144" lon="6.6054">
        <ele>530.4</ele>
        <time>2021-07-29T12:52:03Z</time>
      </trkpt>
      <trkpt lat="47.17148" lon="6.60544">
        <ele>530.4</ele>
        <time>2021-07-29T12:52:04Z</time>
      </trkpt>
      <trkpt lat="47.1715" lon="6.60547">
        <ele>530.6</ele>
        <time>2021-07-29T12:52:05Z</time>
      </trkpt>
      <trkpt lat="47.17153" lon="6.6055">
        <ele>530.6</ele>
        <time>2021-07-29T12:52:06Z</time>
      </trkpt>
      <trkpt lat="47.17156" lon="6.60553">
        <ele>531</ele>
        <time>2021-07-29T12:52:07Z</time>
      </trkpt>
      <trkpt lat="47.17159" lon="6.60556">
        <ele>531</ele>
        <time>2021-07-29T12:52:08Z</time>
      </trkpt>
      <trkpt lat="47.17161" lon="6.60559">
        <ele>531.2</ele>
        <time>2021-07-29T12:52:09Z</time>
      </trkpt>
      <trkpt lat="47.17163" lon="6.60563">
        <ele>531.4</ele>
        <time>2021-07-29T12:52:10Z</time>
      </trkpt>
      <trkpt lat="47.17165" lon="6.60567">
        <ele>531.4</ele>
        <time>2021-07-29T12:52:11Z</time>
      </trkpt>
      <trkpt lat="47.17167" lon="6.6057">
        <ele>531.8</ele>
        <time>2021-07-29T12:52:12Z</time>
      </trkpt>
      <trkpt lat="47.17169" lon="6.60574">
        <ele>531.8</ele>
        <time>2021-07-29T12:52:13Z</time>
      </trkpt>
      <trkpt lat="47.17171" lon="6.60578">
        <ele>532</ele>
        <time>2021-07-29T12:52:14Z</time>
      </trkpt>
      <trkpt lat="47.17173" lon="6.6058">
        <ele>532.2</ele>
        <time>2021-07-29T12:52:15Z</time>
      </trkpt>
      <trkpt lat="47.17175" lon="6.60583">
        <ele>532.2</ele>
        <time>2021-07-29T12:52:16Z</time>
      </trkpt>
      <trkpt lat="47.17177" lon="6.60586">
        <ele>532.2</ele>
        <time>2021-07-29T12:52:17Z</time>
      </trkpt>
      <trkpt lat="47.17178" lon="6.60589">
        <ele>532.4</ele>
        <time>2021-07-29T12:52:18Z</time>
      </trkpt>
      <trkpt lat="47.1718" lon="6.60592">
        <ele>532.4</ele>
        <time>2021-07-29T12:52:19Z</time>
      </trkpt>
      <trkpt lat="47.17181" lon="6.60596">
        <ele>532.4</ele>
        <time>2021-07-29T12:52:20Z</time>
      </trkpt>
      <trkpt lat="47.17183" lon="6.606">
        <ele>532.2</ele>
        <time>2021-07-29T12:52:21Z</time>
      </trkpt>
      <trkpt lat="47.17185" lon="6.60605">
        <ele>532.2</ele>
        <time>2021-07-29T12:52:22Z</time>
      </trkpt>
      <trkpt lat="47.17187" lon="6.60609">
        <ele>532</ele>
        <time>2021-07-29T12:52:23Z</time>
      </trkpt>
      <trkpt lat="47.17189" lon="6.60615">
        <ele>532</ele>
        <time>2021-07-29T12:52:24Z</time>
      </trkpt>
      <trkpt lat="47.17191" lon="6.6062">
        <ele>531.8</ele>
        <time>2021-07-29T12:52:25Z</time>
      </trkpt>
      <trkpt lat="47.17193" lon="6.60627">
        <ele>531.6</ele>
        <time>2021-07-29T12:52:26Z</time>
      </trkpt>
      <trkpt lat="47.17196" lon="6.60633">
        <ele>531.6</ele>
        <time>2021-07-29T12:52:27Z</time>
      </trkpt>
      <trkpt lat="47.17199" lon="6.6064">
        <ele>531.4</ele>
        <time>2021-07-29T12:52:28Z</time>
      </trkpt>
      <trkpt lat="47.17202" lon="6.60647">
        <ele>531.2</ele>
        <time>2021-07-29T12:52:29Z</time>
      </trkpt>
      <trkpt lat="47.17205" lon="6.60653">
        <ele>531</ele>
        <time>2021-07-29T12:52:30Z</time>
      </trkpt>
      <trkpt lat="47.17209" lon="6.60659">
        <ele>530.8</ele>
        <time>2021-07-29T12:52:31Z</time>
      </trkpt>
      <trkpt lat="47.17213" lon="6.60665">
        <ele>530.8</ele>
        <time>2021-07-29T12:52:32Z</time>
      </trkpt>
      <trkpt lat="47.17218" lon="6.60669">
        <ele>530.6</ele>
        <time>2021-07-29T12:52:33Z</time>
      </trkpt>
      <trkpt lat="47.17223" lon="6.60674">
        <ele>530.6</ele>
        <time>2021-07-29T12:52:34Z</time>
      </trkpt>
      <trkpt lat="47.17228" lon="6.60677">
        <ele>530.6</ele>
        <time>2021-07-29T12:52:35Z</time>
      </trkpt>
      <trkpt lat="47.17233" lon="6.6068">
        <ele>530.4</ele>
        <time>2021-07-29T12:52:36Z</time>
      </trkpt>
      <trkpt lat="47.17237" lon="6.60684">
        <ele>530.2</ele>
        <time>2021-07-29T12:52:37Z</time>
      </trkpt>
      <trkpt lat="47.17242" lon="6.60686">
        <ele>530.2</ele>
        <time>2021-07-29T12:52:38Z</time>
      </trkpt>
      <trkpt lat="47.17248" lon="6.60688">
        <ele>530</ele>
        <time>2021-07-29T12:52:39Z</time>
      </trkpt>
      <trkpt lat="47.17254" lon="6.60691">
        <ele>530.2</ele>
        <time>2021-07-29T12:52:40Z</time>
      </trkpt>
      <trkpt lat="47.1726" lon="6.60694">
        <ele>530</ele>
        <time>2021-07-29T12:52:41Z</time>
      </trkpt>
      <trkpt lat="47.17265" lon="6.60696">
        <ele>530</ele>
        <time>2021-07-29T12:52:42Z</time>
      </trkpt>
      <trkpt lat="47.17271" lon="6.60699">
        <ele>530</ele>
        <time>2021-07-29T12:52:43Z</time>
      </trkpt>
      <trkpt lat="47.17276" lon="6.607">
        <ele>530</ele>
        <time>2021-07-29T12:52:44Z</time>
      </trkpt>
      <trkpt lat="47.1728" lon="6.60701">
        <ele>530</ele>
        <time>2021-07-29T12:52:45Z</time>
      </trkpt>
      <trkpt lat="47.17285" lon="6.607">
        <ele>530</ele>
        <time>2021-07-29T12:52:46Z</time>
      </trkpt>
      <trkpt lat="47.1729" lon="6.607">
        <ele>530</ele>
        <time>2021-07-29T12:52:47Z</time>
      </trkpt>
      <trkpt lat="47.17295" lon="6.60702">
        <ele>529.8</ele>
        <time>2021-07-29T12:52:48Z</time>
      </trkpt>
      <trkpt lat="47.17301" lon="6.60704">
        <ele>529.8</ele>
        <time>2021-07-29T12:52:49Z</time>
      </trkpt>
      <trkpt lat="47.17306" lon="6.60708">
        <ele>529.6</ele>
        <time>2021-07-29T12:52:50Z</time>
      </trkpt>
      <trkpt lat="47.17311" lon="6.60711">
        <ele>529.6</ele>
        <time>2021-07-29T12:52:51Z</time>
      </trkpt>
      <trkpt lat="47.17317" lon="6.60715">
        <ele>529.4</ele>
        <time>2021-07-29T12:52:52Z</time>
      </trkpt>
      <trkpt lat="47.17324" lon="6.60719">
        <ele>529.2</ele>
        <time>2021-07-29T12:52:53Z</time>
      </trkpt>
      <trkpt lat="47.1733" lon="6.60725">
        <ele>529</ele>
        <time>2021-07-29T12:52:54Z</time>
      </trkpt>
      <trkpt lat="47.17336" lon="6.60731">
        <ele>529</ele>
        <time>2021-07-29T12:52:55Z</time>
      </trkpt>
      <trkpt lat="47.17341" lon="6.60738">
        <ele>529</ele>
        <time>2021-07-29T12:52:56Z</time>
      </trkpt>
      <trkpt lat="47.17347" lon="6.60746">
        <ele>528.6</ele>
        <time>2021-07-29T12:52:57Z</time>
      </trkpt>
      <trkpt lat="47.17352" lon="6.60752">
        <ele>528</ele>
        <time>2021-07-29T12:52:58Z</time>
      </trkpt>
      <trkpt lat="47.17356" lon="6.60758">
        <ele>528</ele>
        <time>2021-07-29T12:52:59Z</time>
      </trkpt>
      <trkpt lat="47.1736" lon="6.60765">
        <ele>528</ele>
        <time>2021-07-29T12:53:00Z</time>
      </trkpt>
      <trkpt lat="47.17365" lon="6.60771">
        <ele>528</ele>
        <time>2021-07-29T12:53:01Z</time>
      </trkpt>
      <trkpt lat="47.17369" lon="6.60778">
        <ele>528</ele>
        <time>2021-07-29T12:53:02Z</time>
      </trkpt>
      <trkpt lat="47.17374" lon="6.60785">
        <ele>528</ele>
        <time>2021-07-29T12:53:03Z</time>
      </trkpt>
      <trkpt lat="47.17378" lon="6.6079">
        <ele>528</ele>
        <time>2021-07-29T12:53:04Z</time>
      </trkpt>
      <trkpt lat="47.17383" lon="6.60797">
        <ele>527.8</ele>
        <time>2021-07-29T12:53:05Z</time>
      </trkpt>
      <trkpt lat="47.17388" lon="6.60804">
        <ele>527.6</ele>
        <time>2021-07-29T12:53:06Z</time>
      </trkpt>
      <trkpt lat="47.17394" lon="6.6081">
        <ele>527.4</ele>
        <time>2021-07-29T12:53:07Z</time>
      </trkpt>
      <trkpt lat="47.17399" lon="6.60816">
        <ele>527.4</ele>
        <time>2021-07-29T12:53:08Z</time>
      </trkpt>
      <trkpt lat="47.17405" lon="6.60821">
        <ele>527.2</ele>
        <time>2021-07-29T12:53:10Z</time>
      </trkpt>
      <trkpt lat="47.17416" lon="6.60833">
        <ele>527.4</ele>
        <time>2021-07-29T12:53:11Z</time>
      </trkpt>
      <trkpt lat="47.17421" lon="6.60838">
        <ele>527.4</ele>
        <time>2021-07-29T12:53:12Z</time>
      </trkpt>
      <trkpt lat="47.17426" lon="6.60844">
        <ele>527.4</ele>
        <time>2021-07-29T12:53:14Z</time>
      </trkpt>
      <trkpt lat="47.17435" lon="6.60853">
        <ele>527.6</ele>
        <time>2021-07-29T12:53:16Z</time>
      </trkpt>
      <trkpt lat="47.17444" lon="6.60863">
        <ele>527.8</ele>
        <time>2021-07-29T12:53:17Z</time>
      </trkpt>
      <trkpt lat="47.17449" lon="6.60867">
        <ele>528</ele>
        <time>2021-07-29T12:53:18Z</time>
      </trkpt>
      <trkpt lat="47.17452" lon="6.60872">
        <ele>528</ele>
        <time>2021-07-29T12:53:20Z</time>
      </trkpt>
      <trkpt lat="47.17459" lon="6.60881">
        <ele>528.4</ele>
        <time>2021-07-29T12:53:21Z</time>
      </trkpt>
      <trkpt lat="47.17462" lon="6.60885">
        <ele>528.2</ele>
        <time>2021-07-29T12:53:22Z</time>
      </trkpt>
      <trkpt lat="47.17465" lon="6.60889">
        <ele>528.4</ele>
        <time>2021-07-29T12:53:24Z</time>
      </trkpt>
      <trkpt lat="47.1747" lon="6.60896">
        <ele>528.6</ele>
        <time>2021-07-29T12:53:25Z</time>
      </trkpt>
      <trkpt lat="47.17473" lon="6.609">
        <ele>528.8</ele>
        <time>2021-07-29T12:53:26Z</time>
      </trkpt>
      <trkpt lat="47.17476" lon="6.60903">
        <ele>528.8</ele>
        <time>2021-07-29T12:53:27Z</time>
      </trkpt>
      <trkpt lat="47.17479" lon="6.60907">
        <ele>528.8</ele>
        <time>2021-07-29T12:53:28Z</time>
      </trkpt>
      <trkpt lat="47.17482" lon="6.60912">
        <ele>529</ele>
        <time>2021-07-29T12:53:29Z</time>
      </trkpt>
      <trkpt lat="47.17485" lon="6.60917">
        <ele>529</ele>
        <time>2021-07-29T12:53:31Z</time>
      </trkpt>
      <trkpt lat="47.17491" lon="6.60928">
        <ele>528.8</ele>
        <time>2021-07-29T12:53:32Z</time>
      </trkpt>
      <trkpt lat="47.17493" lon="6.60935">
        <ele>528.6</ele>
        <time>2021-07-29T12:53:33Z</time>
      </trkpt>
      <trkpt lat="47.17495" lon="6.60942">
        <ele>528.6</ele>
        <time>2021-07-29T12:53:35Z</time>
      </trkpt>
      <trkpt lat="47.17495" lon="6.60957">
        <ele>528.2</ele>
        <time>2021-07-29T12:53:36Z</time>
      </trkpt>
      <trkpt lat="47.17494" lon="6.60965">
        <ele>528.4</ele>
        <time>2021-07-29T12:53:37Z</time>
      </trkpt>
      <trkpt lat="47.17493" lon="6.6097">
        <ele>528.4</ele>
        <time>2021-07-29T12:53:39Z</time>
      </trkpt>
      <trkpt lat="47.17488" lon="6.60982">
        <ele>528.6</ele>
        <time>2021-07-29T12:53:40Z</time>
      </trkpt>
      <trkpt lat="47.17486" lon="6.60987">
        <ele>528.8</ele>
        <time>2021-07-29T12:53:42Z</time>
      </trkpt>
      <trkpt lat="47.17481" lon="6.60997">
        <ele>529</ele>
        <time>2021-07-29T12:53:44Z</time>
      </trkpt>
      <trkpt lat="47.17477" lon="6.61007">
        <ele>529.2</ele>
        <time>2021-07-29T12:53:45Z</time>
      </trkpt>
      <trkpt lat="47.17476" lon="6.61012">
        <ele>529.4</ele>
        <time>2021-07-29T12:53:47Z</time>
      </trkpt>
      <trkpt lat="47.17474" lon="6.6102">
        <ele>529.8</ele>
        <time>2021-07-29T12:53:48Z</time>
      </trkpt>
      <trkpt lat="47.17474" lon="6.61025">
        <ele>530</ele>
        <time>2021-07-29T12:53:49Z</time>
      </trkpt>
      <trkpt lat="47.17475" lon="6.61028">
        <ele>530.2</ele>
        <time>2021-07-29T12:53:51Z</time>
      </trkpt>
      <trkpt lat="47.17475" lon="6.61036">
        <ele>530.4</ele>
        <time>2021-07-29T12:53:53Z</time>
      </trkpt>
      <trkpt lat="47.17476" lon="6.61043">
        <ele>530.8</ele>
        <time>2021-07-29T12:53:55Z</time>
      </trkpt>
      <trkpt lat="47.17478" lon="6.6105">
        <ele>531</ele>
        <time>2021-07-29T12:53:57Z</time>
      </trkpt>
      <trkpt lat="47.17481" lon="6.61057">
        <ele>531</ele>
        <time>2021-07-29T12:53:59Z</time>
      </trkpt>
      <trkpt lat="47.17484" lon="6.61063">
        <ele>531</ele>
        <time>2021-07-29T12:54:01Z</time>
      </trkpt>
      <trkpt lat="47.17488" lon="6.61069">
        <ele>531</ele>
        <time>2021-07-29T12:54:02Z</time>
      </trkpt>
      <trkpt lat="47.1749" lon="6.61073">
        <ele>531</ele>
        <time>2021-07-29T12:54:04Z</time>
      </trkpt>
      <trkpt lat="47.17495" lon="6.61079">
        <ele>531.2</ele>
        <time>2021-07-29T12:54:06Z</time>
      </trkpt>
      <trkpt lat="47.175" lon="6.61084">
        <ele>531.2</ele>
        <time>2021-07-29T12:54:08Z</time>
      </trkpt>
      <trkpt lat="47.17505" lon="6.61089">
        <ele>531.2</ele>
        <time>2021-07-29T12:54:09Z</time>
      </trkpt>
      <trkpt lat="47.17508" lon="6.61091">
        <ele>531.2</ele>
        <time>2021-07-29T12:54:10Z</time>
      </trkpt>
      <trkpt lat="47.17511" lon="6.61093">
        <ele>531.2</ele>
        <time>2021-07-29T12:54:11Z</time>
      </trkpt>
      <trkpt lat="47.17514" lon="6.61094">
        <ele>531.2</ele>
        <time>2021-07-29T12:54:12Z</time>
      </trkpt>
      <trkpt lat="47.17516" lon="6.61096">
        <ele>531</ele>
        <time>2021-07-29T12:54:13Z</time>
      </trkpt>
      <trkpt lat="47.17519" lon="6.61098">
        <ele>531</ele>
        <time>2021-07-29T12:54:14Z</time>
      </trkpt>
      <trkpt lat="47.17526" lon="6.61101">
        <ele>531</ele>
        <time>2021-07-29T12:54:16Z</time>
      </trkpt>
      <trkpt lat="47.17529" lon="6.61102">
        <ele>530.8</ele>
        <time>2021-07-29T12:54:17Z</time>
      </trkpt>
      <trkpt lat="47.17533" lon="6.61104">
        <ele>530.8</ele>
        <time>2021-07-29T12:54:19Z</time>
      </trkpt>
      <trkpt lat="47.1754" lon="6.61107">
        <ele>530.6</ele>
        <time>2021-07-29T12:54:21Z</time>
      </trkpt>
      <trkpt lat="47.17546" lon="6.6111">
        <ele>530.6</ele>
        <time>2021-07-29T12:54:23Z</time>
      </trkpt>
      <trkpt lat="47.17549" lon="6.61111">
        <ele>530.4</ele>
        <time>2021-07-29T12:54:24Z</time>
      </trkpt>
      <trkpt lat="47.17554" lon="6.61114">
        <ele>530.4</ele>
        <time>2021-07-29T12:54:26Z</time>
      </trkpt>
      <trkpt lat="47.17556" lon="6.61115">
        <ele>530.4</ele>
        <time>2021-07-29T12:54:27Z</time>
      </trkpt>
      <trkpt lat="47.17558" lon="6.61116">
        <ele>530.4</ele>
        <time>2021-07-29T12:54:28Z</time>
      </trkpt>
      <trkpt lat="47.17561" lon="6.61117">
        <ele>530.4</ele>
        <time>2021-07-29T12:54:29Z</time>
      </trkpt>
      <trkpt lat="47.17562" lon="6.61117">
        <ele>530.2</ele>
        <time>2021-07-29T12:54:31Z</time>
      </trkpt>
      <trkpt lat="47.17564" lon="6.61117">
        <ele>530.2</ele>
        <time>2021-07-29T12:54:33Z</time>
      </trkpt>
      <trkpt lat="47.17565" lon="6.61118">
        <ele>530.2</ele>
        <time>2021-07-29T12:54:34Z</time>
      </trkpt>
      <trkpt lat="47.17566" lon="6.61119">
        <ele>530.2</ele>
        <time>2021-07-29T12:54:35Z</time>
      </trkpt>
      <trkpt lat="47.17569" lon="6.61121">
        <ele>530.2</ele>
        <time>2021-07-29T12:54:36Z</time>
      </trkpt>
      <trkpt lat="47.17571" lon="6.61122">
        <ele>530</ele>
        <time>2021-07-29T12:54:37Z</time>
      </trkpt>
      <trkpt lat="47.17574" lon="6.61124">
        <ele>530</ele>
        <time>2021-07-29T12:54:38Z</time>
      </trkpt>
      <trkpt lat="47.17577" lon="6.61126">
        <ele>530</ele>
        <time>2021-07-29T12:54:39Z</time>
      </trkpt>
      <trkpt lat="47.1758" lon="6.61128">
        <ele>530</ele>
        <time>2021-07-29T12:54:40Z</time>
      </trkpt>
      <trkpt lat="47.17584" lon="6.61131">
        <ele>529.8</ele>
        <time>2021-07-29T12:54:41Z</time>
      </trkpt>
      <trkpt lat="47.17587" lon="6.61134">
        <ele>529.8</ele>
        <time>2021-07-29T12:54:42Z</time>
      </trkpt>
      <trkpt lat="47.17591" lon="6.61137">
        <ele>529.6</ele>
        <time>2021-07-29T12:54:43Z</time>
      </trkpt>
      <trkpt lat="47.17595" lon="6.6114">
        <ele>529.6</ele>
        <time>2021-07-29T12:54:44Z</time>
      </trkpt>
      <trkpt lat="47.17599" lon="6.61142">
        <ele>529.4</ele>
        <time>2021-07-29T12:54:45Z</time>
      </trkpt>
      <trkpt lat="47.17603" lon="6.61144">
        <ele>529.4</ele>
        <time>2021-07-29T12:54:46Z</time>
      </trkpt>
      <trkpt lat="47.17607" lon="6.61146">
        <ele>529.2</ele>
        <time>2021-07-29T12:54:47Z</time>
      </trkpt>
      <trkpt lat="47.1761" lon="6.61147">
        <ele>528.8</ele>
        <time>2021-07-29T12:54:48Z</time>
      </trkpt>
      <trkpt lat="47.17612" lon="6.61148">
        <ele>528.8</ele>
        <time>2021-07-29T12:54:49Z</time>
      </trkpt>
      <trkpt lat="47.17613" lon="6.61148">
        <ele>528.6</ele>
        <time>2021-07-29T12:54:50Z</time>
      </trkpt>
      <trkpt lat="47.17614" lon="6.61148">
        <ele>528.6</ele>
        <time>2021-07-29T12:54:51Z</time>
      </trkpt>
      <trkpt lat="47.17614" lon="6.61148">
        <ele>528.6</ele>
        <time>2021-07-29T12:54:52Z</time>
      </trkpt>
      <trkpt lat="47.17614" lon="6.61148">
        <ele>528.6</ele>
        <time>2021-07-29T12:54:53Z</time>
      </trkpt>
      <trkpt lat="47.17614" lon="6.61148">
        <ele>528.6</ele>
        <time>2021-07-29T12:54:54Z</time>
      </trkpt>
      <trkpt lat="47.17615" lon="6.61148">
        <ele>528.6</ele>
        <time>2021-07-29T12:54:55Z</time>
      </trkpt>
      <trkpt lat="47.17615" lon="6.61148">
        <ele>528.6</ele>
        <time>2021-07-29T12:54:56Z</time>
      </trkpt>
      <trkpt lat="47.17615" lon="6.61148">
        <ele>528.6</ele>
        <time>2021-07-29T12:54:57Z</time>
      </trkpt>
      <trkpt lat="47.17641" lon="6.61158">
        <ele>527.6</ele>
        <time>2021-07-29T12:55:20Z</time>
      </trkpt>
      <trkpt lat="47.1765" lon="6.61163">
        <ele>527.2</ele>
        <time>2021-07-29T12:55:22Z</time>
      </trkpt>
      <trkpt lat="47.17655" lon="6.61166">
        <ele>526.8</ele>
        <time>2021-07-29T12:55:23Z</time>
      </trkpt>
      <trkpt lat="47.1766" lon="6.61168">
        <ele>526.6</ele>
        <time>2021-07-29T12:55:24Z</time>
      </trkpt>
      <trkpt lat="47.17665" lon="6.61172">
        <ele>526.2</ele>
        <time>2021-07-29T12:55:25Z</time>
      </trkpt>
      <trkpt lat="47.1767" lon="6.61177">
        <ele>526</ele>
        <time>2021-07-29T12:55:26Z</time>
      </trkpt>
      <trkpt lat="47.17674" lon="6.61184">
        <ele>525.8</ele>
        <time>2021-07-29T12:55:27Z</time>
      </trkpt>
      <trkpt lat="47.17677" lon="6.61193">
        <ele>525.4</ele>
        <time>2021-07-29T12:55:28Z</time>
      </trkpt>
      <trkpt lat="47.1768" lon="6.61203">
        <ele>525</ele>
        <time>2021-07-29T12:55:29Z</time>
      </trkpt>
      <trkpt lat="47.17682" lon="6.61212">
        <ele>524.8</ele>
        <time>2021-07-29T12:55:30Z</time>
      </trkpt>
      <trkpt lat="47.17683" lon="6.61223">
        <ele>524.4</ele>
        <time>2021-07-29T12:55:31Z</time>
      </trkpt>
      <trkpt lat="47.17684" lon="6.61234">
        <ele>524.2</ele>
        <time>2021-07-29T12:55:32Z</time>
      </trkpt>
      <trkpt lat="47.17686" lon="6.61245">
        <ele>523.8</ele>
        <time>2021-07-29T12:55:33Z</time>
      </trkpt>
      <trkpt lat="47.17689" lon="6.61256">
        <ele>523.4</ele>
        <time>2021-07-29T12:55:34Z</time>
      </trkpt>
      <trkpt lat="47.17691" lon="6.61267">
        <ele>523.2</ele>
        <time>2021-07-29T12:55:35Z</time>
      </trkpt>
      <trkpt lat="47.17694" lon="6.61276">
        <ele>523</ele>
        <time>2021-07-29T12:55:36Z</time>
      </trkpt>
      <trkpt lat="47.17698" lon="6.61287">
        <ele>522.8</ele>
        <time>2021-07-29T12:55:37Z</time>
      </trkpt>
      <trkpt lat="47.17702" lon="6.61297">
        <ele>522.6</ele>
        <time>2021-07-29T12:55:38Z</time>
      </trkpt>
      <trkpt lat="47.17706" lon="6.61306">
        <ele>522.6</ele>
        <time>2021-07-29T12:55:39Z</time>
      </trkpt>
      <trkpt lat="47.1771" lon="6.61315">
        <ele>522.6</ele>
        <time>2021-07-29T12:55:40Z</time>
      </trkpt>
      <trkpt lat="47.17714" lon="6.61324">
        <ele>522.6</ele>
        <time>2021-07-29T12:55:41Z</time>
      </trkpt>
      <trkpt lat="47.17716" lon="6.61333">
        <ele>522.6</ele>
        <time>2021-07-29T12:55:42Z</time>
      </trkpt>
      <trkpt lat="47.17719" lon="6.61341">
        <ele>522.6</ele>
        <time>2021-07-29T12:55:43Z</time>
      </trkpt>
      <trkpt lat="47.17721" lon="6.61349">
        <ele>522.6</ele>
        <time>2021-07-29T12:55:44Z</time>
      </trkpt>
      <trkpt lat="47.17724" lon="6.61357">
        <ele>522.6</ele>
        <time>2021-07-29T12:55:45Z</time>
      </trkpt>
      <trkpt lat="47.17726" lon="6.61364">
        <ele>522.6</ele>
        <time>2021-07-29T12:55:46Z</time>
      </trkpt>
      <trkpt lat="47.17729" lon="6.61371">
        <ele>522.8</ele>
        <time>2021-07-29T12:55:47Z</time>
      </trkpt>
      <trkpt lat="47.17731" lon="6.61379">
        <ele>522.8</ele>
        <time>2021-07-29T12:55:48Z</time>
      </trkpt>
      <trkpt lat="47.17733" lon="6.61385">
        <ele>523</ele>
        <time>2021-07-29T12:55:49Z</time>
      </trkpt>
      <trkpt lat="47.17735" lon="6.61392">
        <ele>523</ele>
        <time>2021-07-29T12:55:50Z</time>
      </trkpt>
      <trkpt lat="47.17738" lon="6.61398">
        <ele>523</ele>
        <time>2021-07-29T12:55:51Z</time>
      </trkpt>
      <trkpt lat="47.17741" lon="6.61405">
        <ele>523</ele>
        <time>2021-07-29T12:55:52Z</time>
      </trkpt>
      <trkpt lat="47.17743" lon="6.61412">
        <ele>523</ele>
        <time>2021-07-29T12:55:53Z</time>
      </trkpt>
      <trkpt lat="47.17747" lon="6.61418">
        <ele>523</ele>
        <time>2021-07-29T12:55:54Z</time>
      </trkpt>
      <trkpt lat="47.1775" lon="6.61423">
        <ele>523</ele>
        <time>2021-07-29T12:55:55Z</time>
      </trkpt>
      <trkpt lat="47.17754" lon="6.61428">
        <ele>522.8</ele>
        <time>2021-07-29T12:55:56Z</time>
      </trkpt>
      <trkpt lat="47.17759" lon="6.61433">
        <ele>522.6</ele>
        <time>2021-07-29T12:55:57Z</time>
      </trkpt>
      <trkpt lat="47.17763" lon="6.61437">
        <ele>522.6</ele>
        <time>2021-07-29T12:55:58Z</time>
      </trkpt>
      <trkpt lat="47.17768" lon="6.61442">
        <ele>522.2</ele>
        <time>2021-07-29T12:55:59Z</time>
      </trkpt>
      <trkpt lat="47.17773" lon="6.61447">
        <ele>522.2</ele>
        <time>2021-07-29T12:56:00Z</time>
      </trkpt>
      <trkpt lat="47.17777" lon="6.61453">
        <ele>522.2</ele>
        <time>2021-07-29T12:56:01Z</time>
      </trkpt>
      <trkpt lat="47.17781" lon="6.61458">
        <ele>522</ele>
        <time>2021-07-29T12:56:02Z</time>
      </trkpt>
      <trkpt lat="47.17786" lon="6.61464">
        <ele>521.8</ele>
        <time>2021-07-29T12:56:03Z</time>
      </trkpt>
      <trkpt lat="47.17791" lon="6.6147">
        <ele>521.8</ele>
        <time>2021-07-29T12:56:04Z</time>
      </trkpt>
      <trkpt lat="47.17795" lon="6.61477">
        <ele>521.6</ele>
        <time>2021-07-29T12:56:05Z</time>
      </trkpt>
      <trkpt lat="47.17798" lon="6.61483">
        <ele>521.6</ele>
        <time>2021-07-29T12:56:06Z</time>
      </trkpt>
      <trkpt lat="47.17802" lon="6.6149">
        <ele>521.6</ele>
        <time>2021-07-29T12:56:07Z</time>
      </trkpt>
      <trkpt lat="47.17806" lon="6.61496">
        <ele>521.4</ele>
        <time>2021-07-29T12:56:08Z</time>
      </trkpt>
      <trkpt lat="47.17809" lon="6.61503">
        <ele>521.4</ele>
        <time>2021-07-29T12:56:09Z</time>
      </trkpt>
      <trkpt lat="47.17813" lon="6.6151">
        <ele>521.2</ele>
        <time>2021-07-29T12:56:10Z</time>
      </trkpt>
      <trkpt lat="47.17817" lon="6.61516">
        <ele>521.2</ele>
        <time>2021-07-29T12:56:11Z</time>
      </trkpt>
      <trkpt lat="47.17822" lon="6.61522">
        <ele>521</ele>
        <time>2021-07-29T12:56:12Z</time>
      </trkpt>
      <trkpt lat="47.17827" lon="6.61528">
        <ele>521</ele>
        <time>2021-07-29T12:56:13Z</time>
      </trkpt>
      <trkpt lat="47.17832" lon="6.61532">
        <ele>521</ele>
        <time>2021-07-29T12:56:14Z</time>
      </trkpt>
      <trkpt lat="47.17837" lon="6.61536">
        <ele>520.8</ele>
        <time>2021-07-29T12:56:15Z</time>
      </trkpt>
      <trkpt lat="47.17842" lon="6.6154">
        <ele>520.8</ele>
        <time>2021-07-29T12:56:16Z</time>
      </trkpt>
      <trkpt lat="47.17848" lon="6.61544">
        <ele>520.6</ele>
        <time>2021-07-29T12:56:17Z</time>
      </trkpt>
      <trkpt lat="47.17853" lon="6.61547">
        <ele>520.4</ele>
        <time>2021-07-29T12:56:18Z</time>
      </trkpt>
      <trkpt lat="47.17859" lon="6.61551">
        <ele>520.2</ele>
        <time>2021-07-29T12:56:19Z</time>
      </trkpt>
      <trkpt lat="47.17866" lon="6.61554">
        <ele>519.6</ele>
        <time>2021-07-29T12:56:20Z</time>
      </trkpt>
      <trkpt lat="47.17873" lon="6.61557">
        <ele>519.2</ele>
        <time>2021-07-29T12:56:21Z</time>
      </trkpt>
      <trkpt lat="47.1788" lon="6.6156">
        <ele>518.8</ele>
        <time>2021-07-29T12:56:22Z</time>
      </trkpt>
      <trkpt lat="47.17888" lon="6.61563">
        <ele>518.4</ele>
        <time>2021-07-29T12:56:23Z</time>
      </trkpt>
      <trkpt lat="47.17896" lon="6.61567">
        <ele>518</ele>
        <time>2021-07-29T12:56:24Z</time>
      </trkpt>
      <trkpt lat="47.17903" lon="6.61571">
        <ele>517.8</ele>
        <time>2021-07-29T12:56:25Z</time>
      </trkpt>
      <trkpt lat="47.1791" lon="6.61577">
        <ele>517.4</ele>
        <time>2021-07-29T12:56:26Z</time>
      </trkpt>
      <trkpt lat="47.17918" lon="6.61583">
        <ele>517</ele>
        <time>2021-07-29T12:56:27Z</time>
      </trkpt>
      <trkpt lat="47.17924" lon="6.6159">
        <ele>516.4</ele>
        <time>2021-07-29T12:56:28Z</time>
      </trkpt>
      <trkpt lat="47.1793" lon="6.61597">
        <ele>516</ele>
        <time>2021-07-29T12:56:29Z</time>
      </trkpt>
      <trkpt lat="47.17933" lon="6.61603">
        <ele>515.6</ele>
        <time>2021-07-29T12:56:30Z</time>
      </trkpt>
      <trkpt lat="47.17938" lon="6.61612">
        <ele>515.4</ele>
        <time>2021-07-29T12:56:31Z</time>
      </trkpt>
      <trkpt lat="47.17942" lon="6.61621">
        <ele>515</ele>
        <time>2021-07-29T12:56:32Z</time>
      </trkpt>
      <trkpt lat="47.17946" lon="6.6163">
        <ele>514.4</ele>
        <time>2021-07-29T12:56:33Z</time>
      </trkpt>
      <trkpt lat="47.17951" lon="6.6164">
        <ele>513.8</ele>
        <time>2021-07-29T12:56:34Z</time>
      </trkpt>
      <trkpt lat="47.17954" lon="6.6165">
        <ele>513.4</ele>
        <time>2021-07-29T12:56:35Z</time>
      </trkpt>
      <trkpt lat="47.17958" lon="6.61661">
        <ele>512.8</ele>
        <time>2021-07-29T12:56:36Z</time>
      </trkpt>
      <trkpt lat="47.1796" lon="6.61672">
        <ele>512.4</ele>
        <time>2021-07-29T12:56:37Z</time>
      </trkpt>
      <trkpt lat="47.17962" lon="6.61682">
        <ele>512.2</ele>
        <time>2021-07-29T12:56:38Z</time>
      </trkpt>
      <trkpt lat="47.17965" lon="6.6169">
        <ele>511.8</ele>
        <time>2021-07-29T12:56:39Z</time>
      </trkpt>
      <trkpt lat="47.17968" lon="6.61699">
        <ele>511.6</ele>
        <time>2021-07-29T12:56:40Z</time>
      </trkpt>
      <trkpt lat="47.17972" lon="6.61708">
        <ele>511.4</ele>
        <time>2021-07-29T12:56:41Z</time>
      </trkpt>
      <trkpt lat="47.17976" lon="6.61715">
        <ele>511</ele>
        <time>2021-07-29T12:56:42Z</time>
      </trkpt>
      <trkpt lat="47.17981" lon="6.61722">
        <ele>510.8</ele>
        <time>2021-07-29T12:56:43Z</time>
      </trkpt>
      <trkpt lat="47.17987" lon="6.61726">
        <ele>510.6</ele>
        <time>2021-07-29T12:56:44Z</time>
      </trkpt>
      <trkpt lat="47.17994" lon="6.61732">
        <ele>510.4</ele>
        <time>2021-07-29T12:56:45Z</time>
      </trkpt>
      <trkpt lat="47.18" lon="6.61738">
        <ele>510.2</ele>
        <time>2021-07-29T12:56:46Z</time>
      </trkpt>
      <trkpt lat="47.18008" lon="6.61746">
        <ele>510</ele>
        <time>2021-07-29T12:56:47Z</time>
      </trkpt>
      <trkpt lat="47.18015" lon="6.61753">
        <ele>510</ele>
        <time>2021-07-29T12:56:48Z</time>
      </trkpt>
      <trkpt lat="47.18022" lon="6.61759">
        <ele>509.8</ele>
        <time>2021-07-29T12:56:49Z</time>
      </trkpt>
      <trkpt lat="47.18028" lon="6.61764">
        <ele>509.8</ele>
        <time>2021-07-29T12:56:50Z</time>
      </trkpt>
      <trkpt lat="47.18036" lon="6.61768">
        <ele>509.4</ele>
        <time>2021-07-29T12:56:51Z</time>
      </trkpt>
      <trkpt lat="47.18043" lon="6.61772">
        <ele>509.4</ele>
        <time>2021-07-29T12:56:52Z</time>
      </trkpt>
      <trkpt lat="47.1805" lon="6.61774">
        <ele>509.4</ele>
        <time>2021-07-29T12:56:53Z</time>
      </trkpt>
      <trkpt lat="47.18057" lon="6.61776">
        <ele>509.2</ele>
        <time>2021-07-29T12:56:54Z</time>
      </trkpt>
      <trkpt lat="47.18064" lon="6.61777">
        <ele>509.2</ele>
        <time>2021-07-29T12:56:55Z</time>
      </trkpt>
      <trkpt lat="47.18071" lon="6.61781">
        <ele>509</ele>
        <time>2021-07-29T12:56:56Z</time>
      </trkpt>
      <trkpt lat="47.18077" lon="6.61785">
        <ele>508.8</ele>
        <time>2021-07-29T12:56:57Z</time>
      </trkpt>
      <trkpt lat="47.18083" lon="6.61789">
        <ele>508.8</ele>
        <time>2021-07-29T12:56:58Z</time>
      </trkpt>
      <trkpt lat="47.1809" lon="6.61794">
        <ele>508.4</ele>
        <time>2021-07-29T12:56:59Z</time>
      </trkpt>
      <trkpt lat="47.18096" lon="6.618">
        <ele>508.4</ele>
        <time>2021-07-29T12:57:00Z</time>
      </trkpt>
      <trkpt lat="47.18102" lon="6.61804">
        <ele>508.2</ele>
        <time>2021-07-29T12:57:01Z</time>
      </trkpt>
      <trkpt lat="47.18108" lon="6.61808">
        <ele>508.2</ele>
        <time>2021-07-29T12:57:02Z</time>
      </trkpt>
      <trkpt lat="47.18114" lon="6.61814">
        <ele>508</ele>
        <time>2021-07-29T12:57:03Z</time>
      </trkpt>
      <trkpt lat="47.18119" lon="6.6182">
        <ele>507.8</ele>
        <time>2021-07-29T12:57:04Z</time>
      </trkpt>
      <trkpt lat="47.18125" lon="6.61824">
        <ele>507.6</ele>
        <time>2021-07-29T12:57:05Z</time>
      </trkpt>
      <trkpt lat="47.18132" lon="6.61833">
        <ele>507.4</ele>
        <time>2021-07-29T12:57:06Z</time>
      </trkpt>
      <trkpt lat="47.18139" lon="6.61839">
        <ele>507.2</ele>
        <time>2021-07-29T12:57:07Z</time>
      </trkpt>
      <trkpt lat="47.18145" lon="6.61846">
        <ele>507</ele>
        <time>2021-07-29T12:57:08Z</time>
      </trkpt>
      <trkpt lat="47.18151" lon="6.61851">
        <ele>507</ele>
        <time>2021-07-29T12:57:09Z</time>
      </trkpt>
      <trkpt lat="47.18158" lon="6.61855">
        <ele>507</ele>
        <time>2021-07-29T12:57:10Z</time>
      </trkpt>
      <trkpt lat="47.18165" lon="6.61859">
        <ele>506.8</ele>
        <time>2021-07-29T12:57:11Z</time>
      </trkpt>
      <trkpt lat="47.18171" lon="6.61863">
        <ele>506.8</ele>
        <time>2021-07-29T12:57:12Z</time>
      </trkpt>
      <trkpt lat="47.18176" lon="6.61867">
        <ele>507</ele>
        <time>2021-07-29T12:57:13Z</time>
      </trkpt>
      <trkpt lat="47.18182" lon="6.61871">
        <ele>507</ele>
        <time>2021-07-29T12:57:14Z</time>
      </trkpt>
      <trkpt lat="47.18187" lon="6.61875">
        <ele>507</ele>
        <time>2021-07-29T12:57:15Z</time>
      </trkpt>
      <trkpt lat="47.18192" lon="6.61881">
        <ele>507</ele>
        <time>2021-07-29T12:57:16Z</time>
      </trkpt>
      <trkpt lat="47.18197" lon="6.61886">
        <ele>507</ele>
        <time>2021-07-29T12:57:17Z</time>
      </trkpt>
      <trkpt lat="47.18202" lon="6.6189">
        <ele>507.2</ele>
        <time>2021-07-29T12:57:18Z</time>
      </trkpt>
      <trkpt lat="47.18206" lon="6.61895">
        <ele>507.2</ele>
        <time>2021-07-29T12:57:19Z</time>
      </trkpt>
      <trkpt lat="47.1821" lon="6.61899">
        <ele>507.2</ele>
        <time>2021-07-29T12:57:20Z</time>
      </trkpt>
      <trkpt lat="47.18214" lon="6.61904">
        <ele>507.4</ele>
        <time>2021-07-29T12:57:21Z</time>
      </trkpt>
      <trkpt lat="47.18217" lon="6.61908">
        <ele>507.4</ele>
        <time>2021-07-29T12:57:22Z</time>
      </trkpt>
      <trkpt lat="47.18221" lon="6.61912">
        <ele>507.2</ele>
        <time>2021-07-29T12:57:23Z</time>
      </trkpt>
      <trkpt lat="47.18226" lon="6.61914">
        <ele>507.2</ele>
        <time>2021-07-29T12:57:24Z</time>
      </trkpt>
      <trkpt lat="47.18231" lon="6.61917">
        <ele>507.2</ele>
        <time>2021-07-29T12:57:25Z</time>
      </trkpt>
      <trkpt lat="47.18235" lon="6.6192">
        <ele>507.4</ele>
        <time>2021-07-29T12:57:26Z</time>
      </trkpt>
      <trkpt lat="47.1824" lon="6.61922">
        <ele>507.2</ele>
        <time>2021-07-29T12:57:27Z</time>
      </trkpt>
      <trkpt lat="47.18245" lon="6.61926">
        <ele>507.2</ele>
        <time>2021-07-29T12:57:28Z</time>
      </trkpt>
      <trkpt lat="47.1825" lon="6.61928">
        <ele>507.2</ele>
        <time>2021-07-29T12:57:29Z</time>
      </trkpt>
      <trkpt lat="47.18255" lon="6.6193">
        <ele>507.2</ele>
        <time>2021-07-29T12:57:30Z</time>
      </trkpt>
      <trkpt lat="47.1826" lon="6.61931">
        <ele>507.2</ele>
        <time>2021-07-29T12:57:31Z</time>
      </trkpt>
      <trkpt lat="47.18265" lon="6.61932">
        <ele>507.2</ele>
        <time>2021-07-29T12:57:32Z</time>
      </trkpt>
      <trkpt lat="47.18269" lon="6.61934">
        <ele>507.2</ele>
        <time>2021-07-29T12:57:33Z</time>
      </trkpt>
      <trkpt lat="47.18274" lon="6.61936">
        <ele>507</ele>
        <time>2021-07-29T12:57:34Z</time>
      </trkpt>
      <trkpt lat="47.18279" lon="6.61936">
        <ele>507</ele>
        <time>2021-07-29T12:57:35Z</time>
      </trkpt>
      <trkpt lat="47.18285" lon="6.61935">
        <ele>507</ele>
        <time>2021-07-29T12:57:36Z</time>
      </trkpt>
      <trkpt lat="47.1829" lon="6.61936">
        <ele>506.8</ele>
        <time>2021-07-29T12:57:37Z</time>
      </trkpt>
      <trkpt lat="47.18295" lon="6.61937">
        <ele>506.6</ele>
        <time>2021-07-29T12:57:38Z</time>
      </trkpt>
      <trkpt lat="47.18301" lon="6.61936">
        <ele>506.6</ele>
        <time>2021-07-29T12:57:39Z</time>
      </trkpt>
      <trkpt lat="47.18306" lon="6.61936">
        <ele>506.4</ele>
        <time>2021-07-29T12:57:40Z</time>
      </trkpt>
      <trkpt lat="47.18312" lon="6.61935">
        <ele>506.2</ele>
        <time>2021-07-29T12:57:41Z</time>
      </trkpt>
      <trkpt lat="47.18317" lon="6.61935">
        <ele>506.2</ele>
        <time>2021-07-29T12:57:42Z</time>
      </trkpt>
      <trkpt lat="47.18323" lon="6.61935">
        <ele>506</ele>
        <time>2021-07-29T12:57:43Z</time>
      </trkpt>
      <trkpt lat="47.18329" lon="6.61933">
        <ele>505.8</ele>
        <time>2021-07-29T12:57:44Z</time>
      </trkpt>
      <trkpt lat="47.18335" lon="6.61933">
        <ele>505.6</ele>
        <time>2021-07-29T12:57:45Z</time>
      </trkpt>
      <trkpt lat="47.18341" lon="6.61933">
        <ele>505.4</ele>
        <time>2021-07-29T12:57:46Z</time>
      </trkpt>
      <trkpt lat="47.18347" lon="6.61932">
        <ele>505.2</ele>
        <time>2021-07-29T12:57:47Z</time>
      </trkpt>
      <trkpt lat="47.18353" lon="6.61931">
        <ele>505.2</ele>
        <time>2021-07-29T12:57:48Z</time>
      </trkpt>
      <trkpt lat="47.18359" lon="6.6193">
        <ele>505</ele>
        <time>2021-07-29T12:57:49Z</time>
      </trkpt>
      <trkpt lat="47.18364" lon="6.61928">
        <ele>504.8</ele>
        <time>2021-07-29T12:57:50Z</time>
      </trkpt>
      <trkpt lat="47.1837" lon="6.61926">
        <ele>504.8</ele>
        <time>2021-07-29T12:57:51Z</time>
      </trkpt>
      <trkpt lat="47.18375" lon="6.61924">
        <ele>504.6</ele>
        <time>2021-07-29T12:57:52Z</time>
      </trkpt>
      <trkpt lat="47.18381" lon="6.61921">
        <ele>504.6</ele>
        <time>2021-07-29T12:57:53Z</time>
      </trkpt>
      <trkpt lat="47.18386" lon="6.61919">
        <ele>504.6</ele>
        <time>2021-07-29T12:57:54Z</time>
      </trkpt>
      <trkpt lat="47.18392" lon="6.61914">
        <ele>504.6</ele>
        <time>2021-07-29T12:57:55Z</time>
      </trkpt>
      <trkpt lat="47.18396" lon="6.6191">
        <ele>504.4</ele>
        <time>2021-07-29T12:57:56Z</time>
      </trkpt>
      <trkpt lat="47.18401" lon="6.61904">
        <ele>504.2</ele>
        <time>2021-07-29T12:57:57Z</time>
      </trkpt>
      <trkpt lat="47.18406" lon="6.61898">
        <ele>504.2</ele>
        <time>2021-07-29T12:57:58Z</time>
      </trkpt>
      <trkpt lat="47.1841" lon="6.61891">
        <ele>504</ele>
        <time>2021-07-29T12:57:59Z</time>
      </trkpt>
      <trkpt lat="47.18413" lon="6.61885">
        <ele>504.2</ele>
        <time>2021-07-29T12:58:00Z</time>
      </trkpt>
      <trkpt lat="47.18417" lon="6.61879">
        <ele>504</ele>
        <time>2021-07-29T12:58:01Z</time>
      </trkpt>
      <trkpt lat="47.18421" lon="6.61872">
        <ele>504.2</ele>
        <time>2021-07-29T12:58:02Z</time>
      </trkpt>
      <trkpt lat="47.18425" lon="6.61865">
        <ele>504</ele>
        <time>2021-07-29T12:58:03Z</time>
      </trkpt>
      <trkpt lat="47.18428" lon="6.61859">
        <ele>504</ele>
        <time>2021-07-29T12:58:04Z</time>
      </trkpt>
      <trkpt lat="47.18432" lon="6.61853">
        <ele>504</ele>
        <time>2021-07-29T12:58:05Z</time>
      </trkpt>
      <trkpt lat="47.18436" lon="6.61847">
        <ele>503.8</ele>
        <time>2021-07-29T12:58:06Z</time>
      </trkpt>
      <trkpt lat="47.1844" lon="6.61841">
        <ele>503.8</ele>
        <time>2021-07-29T12:58:07Z</time>
      </trkpt>
      <trkpt lat="47.18444" lon="6.61835">
        <ele>503.8</ele>
        <time>2021-07-29T12:58:08Z</time>
      </trkpt>
      <trkpt lat="47.18448" lon="6.61829">
        <ele>503.6</ele>
        <time>2021-07-29T12:58:09Z</time>
      </trkpt>
      <trkpt lat="47.18454" lon="6.61824">
        <ele>503.6</ele>
        <time>2021-07-29T12:58:10Z</time>
      </trkpt>
      <trkpt lat="47.18459" lon="6.61819">
        <ele>503.6</ele>
        <time>2021-07-29T12:58:11Z</time>
      </trkpt>
      <trkpt lat="47.18465" lon="6.61816">
        <ele>503.4</ele>
        <time>2021-07-29T12:58:12Z</time>
      </trkpt>
      <trkpt lat="47.1847" lon="6.61813">
        <ele>503.4</ele>
        <time>2021-07-29T12:58:13Z</time>
      </trkpt>
      <trkpt lat="47.18476" lon="6.61811">
        <ele>503.4</ele>
        <time>2021-07-29T12:58:14Z</time>
      </trkpt>
      <trkpt lat="47.18482" lon="6.6181">
        <ele>503.2</ele>
        <time>2021-07-29T12:58:15Z</time>
      </trkpt>
      <trkpt lat="47.18487" lon="6.61811">
        <ele>503</ele>
        <time>2021-07-29T12:58:16Z</time>
      </trkpt>
      <trkpt lat="47.18493" lon="6.61812">
        <ele>503</ele>
        <time>2021-07-29T12:58:17Z</time>
      </trkpt>
      <trkpt lat="47.18499" lon="6.61816">
        <ele>503</ele>
        <time>2021-07-29T12:58:18Z</time>
      </trkpt>
      <trkpt lat="47.18506" lon="6.61821">
        <ele>503</ele>
        <time>2021-07-29T12:58:19Z</time>
      </trkpt>
      <trkpt lat="47.18511" lon="6.61825">
        <ele>503</ele>
        <time>2021-07-29T12:58:20Z</time>
      </trkpt>
      <trkpt lat="47.18516" lon="6.6183">
        <ele>502.8</ele>
        <time>2021-07-29T12:58:21Z</time>
      </trkpt>
      <trkpt lat="47.18521" lon="6.61835">
        <ele>502.8</ele>
        <time>2021-07-29T12:58:22Z</time>
      </trkpt>
      <trkpt lat="47.18526" lon="6.6184">
        <ele>502.8</ele>
        <time>2021-07-29T12:58:23Z</time>
      </trkpt>
      <trkpt lat="47.18531" lon="6.61845">
        <ele>502.6</ele>
        <time>2021-07-29T12:58:24Z</time>
      </trkpt>
      <trkpt lat="47.18536" lon="6.6185">
        <ele>502.4</ele>
        <time>2021-07-29T12:58:25Z</time>
      </trkpt>
      <trkpt lat="47.18541" lon="6.61855">
        <ele>502.4</ele>
        <time>2021-07-29T12:58:26Z</time>
      </trkpt>
      <trkpt lat="47.18546" lon="6.61859">
        <ele>502.2</ele>
        <time>2021-07-29T12:58:27Z</time>
      </trkpt>
      <trkpt lat="47.18551" lon="6.61863">
        <ele>502</ele>
        <time>2021-07-29T12:58:28Z</time>
      </trkpt>
      <trkpt lat="47.18555" lon="6.61867">
        <ele>502</ele>
        <time>2021-07-29T12:58:29Z</time>
      </trkpt>
      <trkpt lat="47.1856" lon="6.6187">
        <ele>502</ele>
        <time>2021-07-29T12:58:30Z</time>
      </trkpt>
      <trkpt lat="47.18565" lon="6.61871">
        <ele>502</ele>
        <time>2021-07-29T12:58:31Z</time>
      </trkpt>
      <trkpt lat="47.1857" lon="6.61872">
        <ele>501.8</ele>
        <time>2021-07-29T12:58:32Z</time>
      </trkpt>
      <trkpt lat="47.18576" lon="6.61874">
        <ele>501.8</ele>
        <time>2021-07-29T12:58:33Z</time>
      </trkpt>
      <trkpt lat="47.18581" lon="6.61877">
        <ele>501.8</ele>
        <time>2021-07-29T12:58:34Z</time>
      </trkpt>
      <trkpt lat="47.18586" lon="6.61879">
        <ele>501.6</ele>
        <time>2021-07-29T12:58:35Z</time>
      </trkpt>
      <trkpt lat="47.18591" lon="6.61879">
        <ele>501.6</ele>
        <time>2021-07-29T12:58:36Z</time>
      </trkpt>
      <trkpt lat="47.18596" lon="6.61878">
        <ele>501.6</ele>
        <time>2021-07-29T12:58:37Z</time>
      </trkpt>
      <trkpt lat="47.18602" lon="6.61877">
        <ele>501.6</ele>
        <time>2021-07-29T12:58:38Z</time>
      </trkpt>
      <trkpt lat="47.18607" lon="6.61877">
        <ele>501.6</ele>
        <time>2021-07-29T12:58:39Z</time>
      </trkpt>
      <trkpt lat="47.18612" lon="6.61877">
        <ele>501.4</ele>
        <time>2021-07-29T12:58:40Z</time>
      </trkpt>
      <trkpt lat="47.18617" lon="6.61878">
        <ele>501.4</ele>
        <time>2021-07-29T12:58:41Z</time>
      </trkpt>
      <trkpt lat="47.18622" lon="6.61878">
        <ele>501.2</ele>
        <time>2021-07-29T12:58:42Z</time>
      </trkpt>
      <trkpt lat="47.18628" lon="6.61878">
        <ele>501</ele>
        <time>2021-07-29T12:58:43Z</time>
      </trkpt>
      <trkpt lat="47.18633" lon="6.61876">
        <ele>501</ele>
        <time>2021-07-29T12:58:44Z</time>
      </trkpt>
      <trkpt lat="47.18639" lon="6.61875">
        <ele>500.8</ele>
        <time>2021-07-29T12:58:45Z</time>
      </trkpt>
      <trkpt lat="47.18645" lon="6.61875">
        <ele>500.6</ele>
        <time>2021-07-29T12:58:46Z</time>
      </trkpt>
      <trkpt lat="47.18651" lon="6.61875">
        <ele>500.6</ele>
        <time>2021-07-29T12:58:47Z</time>
      </trkpt>
      <trkpt lat="47.18656" lon="6.61875">
        <ele>500.6</ele>
        <time>2021-07-29T12:58:48Z</time>
      </trkpt>
      <trkpt lat="47.18662" lon="6.61873">
        <ele>500.6</ele>
        <time>2021-07-29T12:58:49Z</time>
      </trkpt>
      <trkpt lat="47.18667" lon="6.61869">
        <ele>500.4</ele>
        <time>2021-07-29T12:58:50Z</time>
      </trkpt>
      <trkpt lat="47.18673" lon="6.61868">
        <ele>500.4</ele>
        <time>2021-07-29T12:58:51Z</time>
      </trkpt>
      <trkpt lat="47.18679" lon="6.61866">
        <ele>500.2</ele>
        <time>2021-07-29T12:58:52Z</time>
      </trkpt>
      <trkpt lat="47.18684" lon="6.61864">
        <ele>500.2</ele>
        <time>2021-07-29T12:58:53Z</time>
      </trkpt>
      <trkpt lat="47.18691" lon="6.61862">
        <ele>500</ele>
        <time>2021-07-29T12:58:54Z</time>
      </trkpt>
      <trkpt lat="47.18696" lon="6.6186">
        <ele>500</ele>
        <time>2021-07-29T12:58:55Z</time>
      </trkpt>
      <trkpt lat="47.18702" lon="6.61858">
        <ele>499.8</ele>
        <time>2021-07-29T12:58:56Z</time>
      </trkpt>
      <trkpt lat="47.18708" lon="6.61856">
        <ele>499.8</ele>
        <time>2021-07-29T12:58:57Z</time>
      </trkpt>
      <trkpt lat="47.18715" lon="6.61853">
        <ele>499.8</ele>
        <time>2021-07-29T12:58:58Z</time>
      </trkpt>
      <trkpt lat="47.1872" lon="6.61851">
        <ele>499.8</ele>
        <time>2021-07-29T12:58:59Z</time>
      </trkpt>
      <trkpt lat="47.18726" lon="6.6185">
        <ele>499.8</ele>
        <time>2021-07-29T12:59:00Z</time>
      </trkpt>
      <trkpt lat="47.18732" lon="6.61847">
        <ele>499.6</ele>
        <time>2021-07-29T12:59:01Z</time>
      </trkpt>
      <trkpt lat="47.18737" lon="6.61845">
        <ele>499.6</ele>
        <time>2021-07-29T12:59:02Z</time>
      </trkpt>
      <trkpt lat="47.18743" lon="6.61842">
        <ele>499.4</ele>
        <time>2021-07-29T12:59:03Z</time>
      </trkpt>
      <trkpt lat="47.18748" lon="6.61838">
        <ele>499.4</ele>
        <time>2021-07-29T12:59:04Z</time>
      </trkpt>
      <trkpt lat="47.18754" lon="6.61832">
        <ele>499.4</ele>
        <time>2021-07-29T12:59:05Z</time>
      </trkpt>
      <trkpt lat="47.1876" lon="6.61827">
        <ele>499.4</ele>
        <time>2021-07-29T12:59:06Z</time>
      </trkpt>
      <trkpt lat="47.18766" lon="6.61823">
        <ele>499.4</ele>
        <time>2021-07-29T12:59:07Z</time>
      </trkpt>
      <trkpt lat="47.18772" lon="6.61821">
        <ele>499.2</ele>
        <time>2021-07-29T12:59:08Z</time>
      </trkpt>
      <trkpt lat="47.18779" lon="6.61819">
        <ele>499.2</ele>
        <time>2021-07-29T12:59:09Z</time>
      </trkpt>
      <trkpt lat="47.18785" lon="6.61816">
        <ele>499.2</ele>
        <time>2021-07-29T12:59:10Z</time>
      </trkpt>
      <trkpt lat="47.18791" lon="6.61815">
        <ele>499</ele>
        <time>2021-07-29T12:59:11Z</time>
      </trkpt>
      <trkpt lat="47.18798" lon="6.61814">
        <ele>498.8</ele>
        <time>2021-07-29T12:59:12Z</time>
      </trkpt>
      <trkpt lat="47.18804" lon="6.61814">
        <ele>498.8</ele>
        <time>2021-07-29T12:59:13Z</time>
      </trkpt>
      <trkpt lat="47.18811" lon="6.61812">
        <ele>498.6</ele>
        <time>2021-07-29T12:59:14Z</time>
      </trkpt>
      <trkpt lat="47.18818" lon="6.61811">
        <ele>498.6</ele>
        <time>2021-07-29T12:59:15Z</time>
      </trkpt>
      <trkpt lat="47.18825" lon="6.61811">
        <ele>498.6</ele>
        <time>2021-07-29T12:59:16Z</time>
      </trkpt>
      <trkpt lat="47.18832" lon="6.61811">
        <ele>498.4</ele>
        <time>2021-07-29T12:59:17Z</time>
      </trkpt>
      <trkpt lat="47.18839" lon="6.61811">
        <ele>498.2</ele>
        <time>2021-07-29T12:59:18Z</time>
      </trkpt>
      <trkpt lat="47.18846" lon="6.61811">
        <ele>498</ele>
        <time>2021-07-29T12:59:19Z</time>
      </trkpt>
      <trkpt lat="47.18853" lon="6.61811">
        <ele>498</ele>
        <time>2021-07-29T12:59:20Z</time>
      </trkpt>
      <trkpt lat="47.18861" lon="6.61811">
        <ele>497.8</ele>
        <time>2021-07-29T12:59:21Z</time>
      </trkpt>
      <trkpt lat="47.18868" lon="6.61811">
        <ele>497.6</ele>
        <time>2021-07-29T12:59:22Z</time>
      </trkpt>
      <trkpt lat="47.18875" lon="6.61811">
        <ele>497.6</ele>
        <time>2021-07-29T12:59:23Z</time>
      </trkpt>
      <trkpt lat="47.18882" lon="6.61811">
        <ele>497.6</ele>
        <time>2021-07-29T12:59:24Z</time>
      </trkpt>
      <trkpt lat="47.18888" lon="6.61811">
        <ele>497.4</ele>
        <time>2021-07-29T12:59:25Z</time>
      </trkpt>
      <trkpt lat="47.18894" lon="6.61811">
        <ele>497.4</ele>
        <time>2021-07-29T12:59:26Z</time>
      </trkpt>
      <trkpt lat="47.18901" lon="6.61811">
        <ele>497.4</ele>
        <time>2021-07-29T12:59:27Z</time>
      </trkpt>
      <trkpt lat="47.18907" lon="6.61811">
        <ele>497.4</ele>
        <time>2021-07-29T12:59:28Z</time>
      </trkpt>
      <trkpt lat="47.18914" lon="6.61811">
        <ele>497.2</ele>
        <time>2021-07-29T12:59:29Z</time>
      </trkpt>
      <trkpt lat="47.1892" lon="6.61811">
        <ele>497.2</ele>
        <time>2021-07-29T12:59:30Z</time>
      </trkpt>
      <trkpt lat="47.18926" lon="6.6181">
        <ele>497.2</ele>
        <time>2021-07-29T12:59:31Z</time>
      </trkpt>
      <trkpt lat="47.18932" lon="6.61811">
        <ele>497.2</ele>
        <time>2021-07-29T12:59:32Z</time>
      </trkpt>
      <trkpt lat="47.18938" lon="6.61812">
        <ele>497.2</ele>
        <time>2021-07-29T12:59:33Z</time>
      </trkpt>
      <trkpt lat="47.18944" lon="6.61812">
        <ele>497</ele>
        <time>2021-07-29T12:59:34Z</time>
      </trkpt>
      <trkpt lat="47.18951" lon="6.61813">
        <ele>496.8</ele>
        <time>2021-07-29T12:59:35Z</time>
      </trkpt>
      <trkpt lat="47.18957" lon="6.61815">
        <ele>496.6</ele>
        <time>2021-07-29T12:59:36Z</time>
      </trkpt>
      <trkpt lat="47.18963" lon="6.61817">
        <ele>496.4</ele>
        <time>2021-07-29T12:59:37Z</time>
      </trkpt>
      <trkpt lat="47.18969" lon="6.61818">
        <ele>496.2</ele>
        <time>2021-07-29T12:59:38Z</time>
      </trkpt>
      <trkpt lat="47.18975" lon="6.6182">
        <ele>496</ele>
        <time>2021-07-29T12:59:39Z</time>
      </trkpt>
      <trkpt lat="47.18982" lon="6.61822">
        <ele>495.8</ele>
        <time>2021-07-29T12:59:40Z</time>
      </trkpt>
      <trkpt lat="47.18988" lon="6.61823">
        <ele>495.8</ele>
        <time>2021-07-29T12:59:41Z</time>
      </trkpt>
      <trkpt lat="47.18994" lon="6.61824">
        <ele>495.8</ele>
        <time>2021-07-29T12:59:42Z</time>
      </trkpt>
      <trkpt lat="47.19001" lon="6.61824">
        <ele>495.8</ele>
        <time>2021-07-29T12:59:43Z</time>
      </trkpt>
      <trkpt lat="47.19007" lon="6.61823">
        <ele>495.8</ele>
        <time>2021-07-29T12:59:44Z</time>
      </trkpt>
      <trkpt lat="47.19013" lon="6.61823">
        <ele>495.4</ele>
        <time>2021-07-29T12:59:45Z</time>
      </trkpt>
      <trkpt lat="47.1902" lon="6.61823">
        <ele>495.2</ele>
        <time>2021-07-29T12:59:46Z</time>
      </trkpt>
      <trkpt lat="47.19026" lon="6.61822">
        <ele>495.2</ele>
        <time>2021-07-29T12:59:47Z</time>
      </trkpt>
      <trkpt lat="47.19032" lon="6.61821">
        <ele>495</ele>
        <time>2021-07-29T12:59:48Z</time>
      </trkpt>
      <trkpt lat="47.19039" lon="6.61819">
        <ele>495</ele>
        <time>2021-07-29T12:59:49Z</time>
      </trkpt>
      <trkpt lat="47.19045" lon="6.61818">
        <ele>494.8</ele>
        <time>2021-07-29T12:59:50Z</time>
      </trkpt>
      <trkpt lat="47.19051" lon="6.61815">
        <ele>494.6</ele>
        <time>2021-07-29T12:59:51Z</time>
      </trkpt>
      <trkpt lat="47.19057" lon="6.61812">
        <ele>494.6</ele>
        <time>2021-07-29T12:59:52Z</time>
      </trkpt>
      <trkpt lat="47.19062" lon="6.61809">
        <ele>494.4</ele>
        <time>2021-07-29T12:59:53Z</time>
      </trkpt>
      <trkpt lat="47.19068" lon="6.61804">
        <ele>494.4</ele>
        <time>2021-07-29T12:59:54Z</time>
      </trkpt>
      <trkpt lat="47.19073" lon="6.618">
        <ele>494.4</ele>
        <time>2021-07-29T12:59:55Z</time>
      </trkpt>
      <trkpt lat="47.19078" lon="6.61797">
        <ele>494.4</ele>
        <time>2021-07-29T12:59:56Z</time>
      </trkpt>
      <trkpt lat="47.19083" lon="6.61794">
        <ele>494.4</ele>
        <time>2021-07-29T12:59:57Z</time>
      </trkpt>
      <trkpt lat="47.19088" lon="6.61791">
        <ele>494.2</ele>
        <time>2021-07-29T12:59:58Z</time>
      </trkpt>
      <trkpt lat="47.19092" lon="6.61789">
        <ele>494.2</ele>
        <time>2021-07-29T12:59:59Z</time>
      </trkpt>
      <trkpt lat="47.19096" lon="6.61785">
        <ele>494.2</ele>
        <time>2021-07-29T13:00:00Z</time>
      </trkpt>
      <trkpt lat="47.19101" lon="6.61782">
        <ele>494.2</ele>
        <time>2021-07-29T13:00:01Z</time>
      </trkpt>
      <trkpt lat="47.19106" lon="6.61778">
        <ele>494.2</ele>
        <time>2021-07-29T13:00:02Z</time>
      </trkpt>
      <trkpt lat="47.1911" lon="6.61775">
        <ele>494.2</ele>
        <time>2021-07-29T13:00:03Z</time>
      </trkpt>
      <trkpt lat="47.19115" lon="6.61773">
        <ele>494.2</ele>
        <time>2021-07-29T13:00:04Z</time>
      </trkpt>
      <trkpt lat="47.1912" lon="6.6177">
        <ele>494.2</ele>
        <time>2021-07-29T13:00:05Z</time>
      </trkpt>
      <trkpt lat="47.19125" lon="6.61767">
        <ele>494.2</ele>
        <time>2021-07-29T13:00:06Z</time>
      </trkpt>
      <trkpt lat="47.19129" lon="6.61763">
        <ele>494.2</ele>
        <time>2021-07-29T13:00:07Z</time>
      </trkpt>
      <trkpt lat="47.19134" lon="6.6176">
        <ele>494</ele>
        <time>2021-07-29T13:00:08Z</time>
      </trkpt>
      <trkpt lat="47.19139" lon="6.61758">
        <ele>494</ele>
        <time>2021-07-29T13:00:09Z</time>
      </trkpt>
      <trkpt lat="47.19144" lon="6.61755">
        <ele>494</ele>
        <time>2021-07-29T13:00:10Z</time>
      </trkpt>
      <trkpt lat="47.19148" lon="6.61753">
        <ele>494</ele>
        <time>2021-07-29T13:00:11Z</time>
      </trkpt>
      <trkpt lat="47.19153" lon="6.6175">
        <ele>494.2</ele>
        <time>2021-07-29T13:00:12Z</time>
      </trkpt>
      <trkpt lat="47.19158" lon="6.61748">
        <ele>494.2</ele>
        <time>2021-07-29T13:00:13Z</time>
      </trkpt>
      <trkpt lat="47.19162" lon="6.61746">
        <ele>494</ele>
        <time>2021-07-29T13:00:14Z</time>
      </trkpt>
      <trkpt lat="47.19166" lon="6.61744">
        <ele>494</ele>
        <time>2021-07-29T13:00:15Z</time>
      </trkpt>
      <trkpt lat="47.19171" lon="6.61741">
        <ele>494.2</ele>
        <time>2021-07-29T13:00:16Z</time>
      </trkpt>
      <trkpt lat="47.19176" lon="6.61738">
        <ele>494.2</ele>
        <time>2021-07-29T13:00:17Z</time>
      </trkpt>
      <trkpt lat="47.1918" lon="6.61736">
        <ele>494</ele>
        <time>2021-07-29T13:00:18Z</time>
      </trkpt>
      <trkpt lat="47.19185" lon="6.61732">
        <ele>494</ele>
        <time>2021-07-29T13:00:19Z</time>
      </trkpt>
      <trkpt lat="47.1919" lon="6.61729">
        <ele>494</ele>
        <time>2021-07-29T13:00:20Z</time>
      </trkpt>
      <trkpt lat="47.19196" lon="6.61728">
        <ele>493.8</ele>
        <time>2021-07-29T13:00:21Z</time>
      </trkpt>
      <trkpt lat="47.19201" lon="6.61726">
        <ele>493.8</ele>
        <time>2021-07-29T13:00:22Z</time>
      </trkpt>
      <trkpt lat="47.19206" lon="6.61724">
        <ele>493.8</ele>
        <time>2021-07-29T13:00:23Z</time>
      </trkpt>
      <trkpt lat="47.19212" lon="6.61723">
        <ele>493.8</ele>
        <time>2021-07-29T13:00:24Z</time>
      </trkpt>
      <trkpt lat="47.19217" lon="6.61722">
        <ele>494</ele>
        <time>2021-07-29T13:00:25Z</time>
      </trkpt>
      <trkpt lat="47.19223" lon="6.61721">
        <ele>493.8</ele>
        <time>2021-07-29T13:00:26Z</time>
      </trkpt>
      <trkpt lat="47.19229" lon="6.6172">
        <ele>493.8</ele>
        <time>2021-07-29T13:00:27Z</time>
      </trkpt>
      <trkpt lat="47.19234" lon="6.61718">
        <ele>493.8</ele>
        <time>2021-07-29T13:00:28Z</time>
      </trkpt>
      <trkpt lat="47.1924" lon="6.61718">
        <ele>493.6</ele>
        <time>2021-07-29T13:00:29Z</time>
      </trkpt>
      <trkpt lat="47.19245" lon="6.61718">
        <ele>493.6</ele>
        <time>2021-07-29T13:00:30Z</time>
      </trkpt>
      <trkpt lat="47.1925" lon="6.61718">
        <ele>493.4</ele>
        <time>2021-07-29T13:00:31Z</time>
      </trkpt>
      <trkpt lat="47.19255" lon="6.61718">
        <ele>493.6</ele>
        <time>2021-07-29T13:00:32Z</time>
      </trkpt>
      <trkpt lat="47.19261" lon="6.61718">
        <ele>493.4</ele>
        <time>2021-07-29T13:00:33Z</time>
      </trkpt>
      <trkpt lat="47.19266" lon="6.61717">
        <ele>493.4</ele>
        <time>2021-07-29T13:00:34Z</time>
      </trkpt>
      <trkpt lat="47.19271" lon="6.61716">
        <ele>493.4</ele>
        <time>2021-07-29T13:00:35Z</time>
      </trkpt>
      <trkpt lat="47.19277" lon="6.61715">
        <ele>493.4</ele>
        <time>2021-07-29T13:00:36Z</time>
      </trkpt>
      <trkpt lat="47.19282" lon="6.61714">
        <ele>493.4</ele>
        <time>2021-07-29T13:00:37Z</time>
      </trkpt>
      <trkpt lat="47.19287" lon="6.61715">
        <ele>493.4</ele>
        <time>2021-07-29T13:00:38Z</time>
      </trkpt>
      <trkpt lat="47.19292" lon="6.61716">
        <ele>493.4</ele>
        <time>2021-07-29T13:00:39Z</time>
      </trkpt>
      <trkpt lat="47.19297" lon="6.61716">
        <ele>493.6</ele>
        <time>2021-07-29T13:00:40Z</time>
      </trkpt>
      <trkpt lat="47.19302" lon="6.61716">
        <ele>493.6</ele>
        <time>2021-07-29T13:00:41Z</time>
      </trkpt>
      <trkpt lat="47.19307" lon="6.61715">
        <ele>493.8</ele>
        <time>2021-07-29T13:00:42Z</time>
      </trkpt>
      <trkpt lat="47.19312" lon="6.61716">
        <ele>493.8</ele>
        <time>2021-07-29T13:00:43Z</time>
      </trkpt>
      <trkpt lat="47.19317" lon="6.61716">
        <ele>493.8</ele>
        <time>2021-07-29T13:00:44Z</time>
      </trkpt>
      <trkpt lat="47.19322" lon="6.61716">
        <ele>493.8</ele>
        <time>2021-07-29T13:00:45Z</time>
      </trkpt>
      <trkpt lat="47.19327" lon="6.61715">
        <ele>493.6</ele>
        <time>2021-07-29T13:00:46Z</time>
      </trkpt>
      <trkpt lat="47.19333" lon="6.61715">
        <ele>493.6</ele>
        <time>2021-07-29T13:00:47Z</time>
      </trkpt>
      <trkpt lat="47.19338" lon="6.61714">
        <ele>493.4</ele>
        <time>2021-07-29T13:00:48Z</time>
      </trkpt>
      <trkpt lat="47.19343" lon="6.61714">
        <ele>493.4</ele>
        <time>2021-07-29T13:00:49Z</time>
      </trkpt>
      <trkpt lat="47.19349" lon="6.61714">
        <ele>493.4</ele>
        <time>2021-07-29T13:00:50Z</time>
      </trkpt>
      <trkpt lat="47.19354" lon="6.61714">
        <ele>493.4</ele>
        <time>2021-07-29T13:00:51Z</time>
      </trkpt>
      <trkpt lat="47.1936" lon="6.61713">
        <ele>493.6</ele>
        <time>2021-07-29T13:00:52Z</time>
      </trkpt>
      <trkpt lat="47.19365" lon="6.61713">
        <ele>493.4</ele>
        <time>2021-07-29T13:00:53Z</time>
      </trkpt>
      <trkpt lat="47.1937" lon="6.61712">
        <ele>493.4</ele>
        <time>2021-07-29T13:00:54Z</time>
      </trkpt>
      <trkpt lat="47.19376" lon="6.61711">
        <ele>493.4</ele>
        <time>2021-07-29T13:00:55Z</time>
      </trkpt>
      <trkpt lat="47.19381" lon="6.6171">
        <ele>493.4</ele>
        <time>2021-07-29T13:00:56Z</time>
      </trkpt>
      <trkpt lat="47.19386" lon="6.61709">
        <ele>493.4</ele>
        <time>2021-07-29T13:00:57Z</time>
      </trkpt>
      <trkpt lat="47.19391" lon="6.61708">
        <ele>493.4</ele>
        <time>2021-07-29T13:00:58Z</time>
      </trkpt>
      <trkpt lat="47.19396" lon="6.61706">
        <ele>493.2</ele>
        <time>2021-07-29T13:00:59Z</time>
      </trkpt>
      <trkpt lat="47.19401" lon="6.61705">
        <ele>493.4</ele>
        <time>2021-07-29T13:01:00Z</time>
      </trkpt>
      <trkpt lat="47.19405" lon="6.61703">
        <ele>493.4</ele>
        <time>2021-07-29T13:01:01Z</time>
      </trkpt>
      <trkpt lat="47.1941" lon="6.617">
        <ele>493.4</ele>
        <time>2021-07-29T13:01:02Z</time>
      </trkpt>
      <trkpt lat="47.19414" lon="6.61698">
        <ele>493.4</ele>
        <time>2021-07-29T13:01:03Z</time>
      </trkpt>
      <trkpt lat="47.19419" lon="6.61696">
        <ele>493.4</ele>
        <time>2021-07-29T13:01:04Z</time>
      </trkpt>
      <trkpt lat="47.19423" lon="6.61693">
        <ele>493.4</ele>
        <time>2021-07-29T13:01:05Z</time>
      </trkpt>
      <trkpt lat="47.19427" lon="6.61691">
        <ele>493.4</ele>
        <time>2021-07-29T13:01:06Z</time>
      </trkpt>
      <trkpt lat="47.19432" lon="6.61687">
        <ele>493.4</ele>
        <time>2021-07-29T13:01:07Z</time>
      </trkpt>
      <trkpt lat="47.19436" lon="6.61684">
        <ele>493.4</ele>
        <time>2021-07-29T13:01:08Z</time>
      </trkpt>
      <trkpt lat="47.19441" lon="6.61682">
        <ele>493.4</ele>
        <time>2021-07-29T13:01:09Z</time>
      </trkpt>
      <trkpt lat="47.19445" lon="6.61679">
        <ele>493.6</ele>
        <time>2021-07-29T13:01:10Z</time>
      </trkpt>
      <trkpt lat="47.1945" lon="6.61676">
        <ele>493.6</ele>
        <time>2021-07-29T13:01:11Z</time>
      </trkpt>
      <trkpt lat="47.19454" lon="6.61674">
        <ele>493.4</ele>
        <time>2021-07-29T13:01:12Z</time>
      </trkpt>
      <trkpt lat="47.19458" lon="6.61671">
        <ele>493.4</ele>
        <time>2021-07-29T13:01:13Z</time>
      </trkpt>
      <trkpt lat="47.19463" lon="6.61668">
        <ele>493.4</ele>
        <time>2021-07-29T13:01:14Z</time>
      </trkpt>
      <trkpt lat="47.19467" lon="6.61665">
        <ele>493.4</ele>
        <time>2021-07-29T13:01:15Z</time>
      </trkpt>
      <trkpt lat="47.19472" lon="6.61661">
        <ele>493.4</ele>
        <time>2021-07-29T13:01:16Z</time>
      </trkpt>
      <trkpt lat="47.19477" lon="6.61657">
        <ele>493.4</ele>
        <time>2021-07-29T13:01:17Z</time>
      </trkpt>
      <trkpt lat="47.19481" lon="6.61655">
        <ele>493.4</ele>
        <time>2021-07-29T13:01:18Z</time>
      </trkpt>
      <trkpt lat="47.19486" lon="6.61653">
        <ele>493.2</ele>
        <time>2021-07-29T13:01:19Z</time>
      </trkpt>
      <trkpt lat="47.1949" lon="6.6165">
        <ele>493.2</ele>
        <time>2021-07-29T13:01:20Z</time>
      </trkpt>
      <trkpt lat="47.19494" lon="6.61648">
        <ele>493.2</ele>
        <time>2021-07-29T13:01:21Z</time>
      </trkpt>
      <trkpt lat="47.19499" lon="6.61646">
        <ele>493.2</ele>
        <time>2021-07-29T13:01:22Z</time>
      </trkpt>
      <trkpt lat="47.19503" lon="6.61644">
        <ele>493.2</ele>
        <time>2021-07-29T13:01:23Z</time>
      </trkpt>
      <trkpt lat="47.19508" lon="6.61642">
        <ele>493.2</ele>
        <time>2021-07-29T13:01:24Z</time>
      </trkpt>
      <trkpt lat="47.19512" lon="6.61641">
        <ele>493.4</ele>
        <time>2021-07-29T13:01:25Z</time>
      </trkpt>
      <trkpt lat="47.19516" lon="6.6164">
        <ele>493.4</ele>
        <time>2021-07-29T13:01:26Z</time>
      </trkpt>
      <trkpt lat="47.19521" lon="6.61639">
        <ele>493.2</ele>
        <time>2021-07-29T13:01:27Z</time>
      </trkpt>
      <trkpt lat="47.19525" lon="6.61636">
        <ele>493.2</ele>
        <time>2021-07-29T13:01:28Z</time>
      </trkpt>
      <trkpt lat="47.19529" lon="6.61634">
        <ele>493.2</ele>
        <time>2021-07-29T13:01:29Z</time>
      </trkpt>
      <trkpt lat="47.19533" lon="6.61633">
        <ele>493.2</ele>
        <time>2021-07-29T13:01:30Z</time>
      </trkpt>
      <trkpt lat="47.19537" lon="6.61632">
        <ele>493.2</ele>
        <time>2021-07-29T13:01:31Z</time>
      </trkpt>
      <trkpt lat="47.19541" lon="6.61632">
        <ele>493.2</ele>
        <time>2021-07-29T13:01:32Z</time>
      </trkpt>
      <trkpt lat="47.19545" lon="6.6163">
        <ele>493.2</ele>
        <time>2021-07-29T13:01:33Z</time>
      </trkpt>
      <trkpt lat="47.19549" lon="6.61628">
        <ele>493.4</ele>
        <time>2021-07-29T13:01:34Z</time>
      </trkpt>
      <trkpt lat="47.19553" lon="6.61628">
        <ele>493.4</ele>
        <time>2021-07-29T13:01:35Z</time>
      </trkpt>
      <trkpt lat="47.19556" lon="6.61627">
        <ele>493.4</ele>
        <time>2021-07-29T13:01:36Z</time>
      </trkpt>
      <trkpt lat="47.1956" lon="6.61627">
        <ele>493.6</ele>
        <time>2021-07-29T13:01:37Z</time>
      </trkpt>
      <trkpt lat="47.19563" lon="6.61626">
        <ele>493.6</ele>
        <time>2021-07-29T13:01:38Z</time>
      </trkpt>
      <trkpt lat="47.19567" lon="6.61625">
        <ele>493.6</ele>
        <time>2021-07-29T13:01:39Z</time>
      </trkpt>
      <trkpt lat="47.1957" lon="6.61624">
        <ele>493.6</ele>
        <time>2021-07-29T13:01:40Z</time>
      </trkpt>
      <trkpt lat="47.19573" lon="6.61624">
        <ele>493.6</ele>
        <time>2021-07-29T13:01:41Z</time>
      </trkpt>
      <trkpt lat="47.19577" lon="6.61623">
        <ele>493.6</ele>
        <time>2021-07-29T13:01:42Z</time>
      </trkpt>
      <trkpt lat="47.1958" lon="6.61623">
        <ele>493.6</ele>
        <time>2021-07-29T13:01:43Z</time>
      </trkpt>
      <trkpt lat="47.19583" lon="6.61622">
        <ele>493.6</ele>
        <time>2021-07-29T13:01:44Z</time>
      </trkpt>
      <trkpt lat="47.19586" lon="6.61622">
        <ele>493.6</ele>
        <time>2021-07-29T13:01:45Z</time>
      </trkpt>
      <trkpt lat="47.19589" lon="6.61621">
        <ele>493.6</ele>
        <time>2021-07-29T13:01:46Z</time>
      </trkpt>
      <trkpt lat="47.19593" lon="6.61621">
        <ele>493.8</ele>
        <time>2021-07-29T13:01:47Z</time>
      </trkpt>
      <trkpt lat="47.19596" lon="6.61621">
        <ele>493.6</ele>
        <time>2021-07-29T13:01:48Z</time>
      </trkpt>
      <trkpt lat="47.19599" lon="6.6162">
        <ele>493.6</ele>
        <time>2021-07-29T13:01:49Z</time>
      </trkpt>
      <trkpt lat="47.19602" lon="6.6162">
        <ele>493.6</ele>
        <time>2021-07-29T13:01:50Z</time>
      </trkpt>
      <trkpt lat="47.19606" lon="6.61618">
        <ele>493.8</ele>
        <time>2021-07-29T13:01:51Z</time>
      </trkpt>
      <trkpt lat="47.19609" lon="6.61617">
        <ele>493.8</ele>
        <time>2021-07-29T13:01:52Z</time>
      </trkpt>
      <trkpt lat="47.19612" lon="6.61616">
        <ele>493.8</ele>
        <time>2021-07-29T13:01:53Z</time>
      </trkpt>
      <trkpt lat="47.19615" lon="6.61616">
        <ele>493.8</ele>
        <time>2021-07-29T13:01:54Z</time>
      </trkpt>
      <trkpt lat="47.19617" lon="6.61616">
        <ele>493.8</ele>
        <time>2021-07-29T13:01:55Z</time>
      </trkpt>
      <trkpt lat="47.1962" lon="6.61615">
        <ele>493.8</ele>
        <time>2021-07-29T13:01:56Z</time>
      </trkpt>
      <trkpt lat="47.19623" lon="6.61615">
        <ele>493.8</ele>
        <time>2021-07-29T13:01:57Z</time>
      </trkpt>
      <trkpt lat="47.19626" lon="6.61615">
        <ele>494</ele>
        <time>2021-07-29T13:01:58Z</time>
      </trkpt>
      <trkpt lat="47.19629" lon="6.61615">
        <ele>494</ele>
        <time>2021-07-29T13:01:59Z</time>
      </trkpt>
      <trkpt lat="47.19631" lon="6.61614">
        <ele>494.4</ele>
        <time>2021-07-29T13:02:00Z</time>
      </trkpt>
      <trkpt lat="47.19634" lon="6.61613">
        <ele>494.4</ele>
        <time>2021-07-29T13:02:01Z</time>
      </trkpt>
      <trkpt lat="47.19637" lon="6.61613">
        <ele>494.2</ele>
        <time>2021-07-29T13:02:02Z</time>
      </trkpt>
      <trkpt lat="47.1964" lon="6.61613">
        <ele>494.2</ele>
        <time>2021-07-29T13:02:03Z</time>
      </trkpt>
      <trkpt lat="47.19643" lon="6.61613">
        <ele>494.2</ele>
        <time>2021-07-29T13:02:04Z</time>
      </trkpt>
      <trkpt lat="47.19647" lon="6.61611">
        <ele>494.2</ele>
        <time>2021-07-29T13:02:05Z</time>
      </trkpt>
      <trkpt lat="47.1965" lon="6.6161">
        <ele>494.4</ele>
        <time>2021-07-29T13:02:06Z</time>
      </trkpt>
      <trkpt lat="47.19653" lon="6.6161">
        <ele>494.4</ele>
        <time>2021-07-29T13:02:07Z</time>
      </trkpt>
      <trkpt lat="47.19656" lon="6.61609">
        <ele>494.4</ele>
        <time>2021-07-29T13:02:08Z</time>
      </trkpt>
      <trkpt lat="47.19659" lon="6.61609">
        <ele>494.4</ele>
        <time>2021-07-29T13:02:09Z</time>
      </trkpt>
      <trkpt lat="47.19662" lon="6.61609">
        <ele>494.6</ele>
        <time>2021-07-29T13:02:10Z</time>
      </trkpt>
      <trkpt lat="47.19666" lon="6.61609">
        <ele>494.6</ele>
        <time>2021-07-29T13:02:11Z</time>
      </trkpt>
      <trkpt lat="47.19669" lon="6.61609">
        <ele>494.6</ele>
        <time>2021-07-29T13:02:12Z</time>
      </trkpt>
      <trkpt lat="47.19672" lon="6.61608">
        <ele>494.6</ele>
        <time>2021-07-29T13:02:13Z</time>
      </trkpt>
      <trkpt lat="47.19675" lon="6.61608">
        <ele>494.8</ele>
        <time>2021-07-29T13:02:14Z</time>
      </trkpt>
      <trkpt lat="47.19678" lon="6.61608">
        <ele>494.8</ele>
        <time>2021-07-29T13:02:15Z</time>
      </trkpt>
      <trkpt lat="47.19681" lon="6.61608">
        <ele>494.8</ele>
        <time>2021-07-29T13:02:16Z</time>
      </trkpt>
      <trkpt lat="47.19684" lon="6.61608">
        <ele>494.8</ele>
        <time>2021-07-29T13:02:17Z</time>
      </trkpt>
      <trkpt lat="47.19687" lon="6.61608">
        <ele>494.8</ele>
        <time>2021-07-29T13:02:18Z</time>
      </trkpt>
      <trkpt lat="47.1969" lon="6.61608">
        <ele>494.8</ele>
        <time>2021-07-29T13:02:19Z</time>
      </trkpt>
      <trkpt lat="47.19693" lon="6.61608">
        <ele>494.8</ele>
        <time>2021-07-29T13:02:20Z</time>
      </trkpt>
      <trkpt lat="47.19696" lon="6.61608">
        <ele>495</ele>
        <time>2021-07-29T13:02:21Z</time>
      </trkpt>
      <trkpt lat="47.19699" lon="6.61608">
        <ele>495</ele>
        <time>2021-07-29T13:02:22Z</time>
      </trkpt>
      <trkpt lat="47.19702" lon="6.61608">
        <ele>495</ele>
        <time>2021-07-29T13:02:23Z</time>
      </trkpt>
      <trkpt lat="47.19706" lon="6.61608">
        <ele>495</ele>
        <time>2021-07-29T13:02:24Z</time>
      </trkpt>
      <trkpt lat="47.19709" lon="6.61608">
        <ele>495</ele>
        <time>2021-07-29T13:02:25Z</time>
      </trkpt>
      <trkpt lat="47.19712" lon="6.61608">
        <ele>495</ele>
        <time>2021-07-29T13:02:26Z</time>
      </trkpt>
      <trkpt lat="47.19715" lon="6.61609">
        <ele>495</ele>
        <time>2021-07-29T13:02:27Z</time>
      </trkpt>
      <trkpt lat="47.19719" lon="6.61609">
        <ele>495</ele>
        <time>2021-07-29T13:02:28Z</time>
      </trkpt>
      <trkpt lat="47.19722" lon="6.61608">
        <ele>495</ele>
        <time>2021-07-29T13:02:29Z</time>
      </trkpt>
      <trkpt lat="47.19725" lon="6.61608">
        <ele>495</ele>
        <time>2021-07-29T13:02:30Z</time>
      </trkpt>
      <trkpt lat="47.19729" lon="6.61608">
        <ele>495</ele>
        <time>2021-07-29T13:02:31Z</time>
      </trkpt>
      <trkpt lat="47.19732" lon="6.61607">
        <ele>495.2</ele>
        <time>2021-07-29T13:02:32Z</time>
      </trkpt>
      <trkpt lat="47.19735" lon="6.61607">
        <ele>495.2</ele>
        <time>2021-07-29T13:02:33Z</time>
      </trkpt>
      <trkpt lat="47.19739" lon="6.61608">
        <ele>495.2</ele>
        <time>2021-07-29T13:02:34Z</time>
      </trkpt>
      <trkpt lat="47.19742" lon="6.61608">
        <ele>495.2</ele>
        <time>2021-07-29T13:02:35Z</time>
      </trkpt>
      <trkpt lat="47.19746" lon="6.61608">
        <ele>495.4</ele>
        <time>2021-07-29T13:02:36Z</time>
      </trkpt>
      <trkpt lat="47.1975" lon="6.61608">
        <ele>495.4</ele>
        <time>2021-07-29T13:02:37Z</time>
      </trkpt>
      <trkpt lat="47.19753" lon="6.61609">
        <ele>495.4</ele>
        <time>2021-07-29T13:02:38Z</time>
      </trkpt>
      <trkpt lat="47.19757" lon="6.61609">
        <ele>495.4</ele>
        <time>2021-07-29T13:02:39Z</time>
      </trkpt>
      <trkpt lat="47.19761" lon="6.6161">
        <ele>495.4</ele>
        <time>2021-07-29T13:02:40Z</time>
      </trkpt>
      <trkpt lat="47.19765" lon="6.6161">
        <ele>495.6</ele>
        <time>2021-07-29T13:02:41Z</time>
      </trkpt>
      <trkpt lat="47.19768" lon="6.61611">
        <ele>495.6</ele>
        <time>2021-07-29T13:02:42Z</time>
      </trkpt>
      <trkpt lat="47.19772" lon="6.61611">
        <ele>495.6</ele>
        <time>2021-07-29T13:02:43Z</time>
      </trkpt>
      <trkpt lat="47.19776" lon="6.61612">
        <ele>495.8</ele>
        <time>2021-07-29T13:02:44Z</time>
      </trkpt>
      <trkpt lat="47.1978" lon="6.61611">
        <ele>495.8</ele>
        <time>2021-07-29T13:02:45Z</time>
      </trkpt>
      <trkpt lat="47.19784" lon="6.61611">
        <ele>495.8</ele>
        <time>2021-07-29T13:02:46Z</time>
      </trkpt>
      <trkpt lat="47.19788" lon="6.61611">
        <ele>495.8</ele>
        <time>2021-07-29T13:02:47Z</time>
      </trkpt>
      <trkpt lat="47.19793" lon="6.61612">
        <ele>496</ele>
        <time>2021-07-29T13:02:48Z</time>
      </trkpt>
      <trkpt lat="47.19797" lon="6.61612">
        <ele>496</ele>
        <time>2021-07-29T13:02:49Z</time>
      </trkpt>
      <trkpt lat="47.19801" lon="6.61612">
        <ele>496</ele>
        <time>2021-07-29T13:02:50Z</time>
      </trkpt>
      <trkpt lat="47.19805" lon="6.61612">
        <ele>496</ele>
        <time>2021-07-29T13:02:51Z</time>
      </trkpt>
      <trkpt lat="47.19809" lon="6.61612">
        <ele>496.2</ele>
        <time>2021-07-29T13:02:52Z</time>
      </trkpt>
      <trkpt lat="47.19814" lon="6.61612">
        <ele>496.2</ele>
        <time>2021-07-29T13:02:53Z</time>
      </trkpt>
      <trkpt lat="47.19818" lon="6.61613">
        <ele>496.2</ele>
        <time>2021-07-29T13:02:54Z</time>
      </trkpt>
      <trkpt lat="47.19822" lon="6.61613">
        <ele>496.2</ele>
        <time>2021-07-29T13:02:55Z</time>
      </trkpt>
      <trkpt lat="47.19826" lon="6.61614">
        <ele>496.2</ele>
        <time>2021-07-29T13:02:56Z</time>
      </trkpt>
      <trkpt lat="47.19831" lon="6.61614">
        <ele>496.2</ele>
        <time>2021-07-29T13:02:57Z</time>
      </trkpt>
      <trkpt lat="47.19835" lon="6.61614">
        <ele>496.2</ele>
        <time>2021-07-29T13:02:58Z</time>
      </trkpt>
      <trkpt lat="47.19839" lon="6.61615">
        <ele>496.2</ele>
        <time>2021-07-29T13:02:59Z</time>
      </trkpt>
      <trkpt lat="47.19843" lon="6.61616">
        <ele>496.4</ele>
        <time>2021-07-29T13:03:00Z</time>
      </trkpt>
      <trkpt lat="47.19848" lon="6.61617">
        <ele>496.4</ele>
        <time>2021-07-29T13:03:01Z</time>
      </trkpt>
      <trkpt lat="47.19852" lon="6.61617">
        <ele>496.4</ele>
        <time>2021-07-29T13:03:02Z</time>
      </trkpt>
      <trkpt lat="47.19856" lon="6.61618">
        <ele>496.4</ele>
        <time>2021-07-29T13:03:03Z</time>
      </trkpt>
      <trkpt lat="47.1986" lon="6.61619">
        <ele>496.6</ele>
        <time>2021-07-29T13:03:04Z</time>
      </trkpt>
      <trkpt lat="47.19864" lon="6.6162">
        <ele>496.6</ele>
        <time>2021-07-29T13:03:05Z</time>
      </trkpt>
      <trkpt lat="47.19868" lon="6.61621">
        <ele>496.6</ele>
        <time>2021-07-29T13:03:06Z</time>
      </trkpt>
      <trkpt lat="47.19872" lon="6.61622">
        <ele>496.6</ele>
        <time>2021-07-29T13:03:07Z</time>
      </trkpt>
      <trkpt lat="47.19876" lon="6.61624">
        <ele>496.6</ele>
        <time>2021-07-29T13:03:08Z</time>
      </trkpt>
      <trkpt lat="47.1988" lon="6.61625">
        <ele>496.6</ele>
        <time>2021-07-29T13:03:09Z</time>
      </trkpt>
      <trkpt lat="47.19884" lon="6.61626">
        <ele>496.6</ele>
        <time>2021-07-29T13:03:10Z</time>
      </trkpt>
      <trkpt lat="47.19889" lon="6.61627">
        <ele>496.6</ele>
        <time>2021-07-29T13:03:11Z</time>
      </trkpt>
      <trkpt lat="47.19893" lon="6.61629">
        <ele>496.6</ele>
        <time>2021-07-29T13:03:12Z</time>
      </trkpt>
      <trkpt lat="47.19897" lon="6.61631">
        <ele>496.6</ele>
        <time>2021-07-29T13:03:13Z</time>
      </trkpt>
      <trkpt lat="47.19902" lon="6.61633">
        <ele>496.6</ele>
        <time>2021-07-29T13:03:14Z</time>
      </trkpt>
      <trkpt lat="47.19906" lon="6.61634">
        <ele>496.6</ele>
        <time>2021-07-29T13:03:15Z</time>
      </trkpt>
      <trkpt lat="47.1991" lon="6.61636">
        <ele>496.6</ele>
        <time>2021-07-29T13:03:16Z</time>
      </trkpt>
      <trkpt lat="47.19915" lon="6.61637">
        <ele>496.6</ele>
        <time>2021-07-29T13:03:17Z</time>
      </trkpt>
      <trkpt lat="47.19919" lon="6.61639">
        <ele>496.6</ele>
        <time>2021-07-29T13:03:18Z</time>
      </trkpt>
      <trkpt lat="47.19923" lon="6.6164">
        <ele>496.6</ele>
        <time>2021-07-29T13:03:19Z</time>
      </trkpt>
      <trkpt lat="47.19927" lon="6.61642">
        <ele>496.6</ele>
        <time>2021-07-29T13:03:20Z</time>
      </trkpt>
      <trkpt lat="47.19932" lon="6.61643">
        <ele>496.6</ele>
        <time>2021-07-29T13:03:21Z</time>
      </trkpt>
      <trkpt lat="47.19936" lon="6.61645">
        <ele>496.6</ele>
        <time>2021-07-29T13:03:22Z</time>
      </trkpt>
      <trkpt lat="47.1994" lon="6.61646">
        <ele>496.6</ele>
        <time>2021-07-29T13:03:23Z</time>
      </trkpt>
      <trkpt lat="47.19944" lon="6.61648">
        <ele>496.6</ele>
        <time>2021-07-29T13:03:24Z</time>
      </trkpt>
      <trkpt lat="47.19948" lon="6.61649">
        <ele>496.6</ele>
        <time>2021-07-29T13:03:25Z</time>
      </trkpt>
      <trkpt lat="47.19952" lon="6.61651">
        <ele>496.6</ele>
        <time>2021-07-29T13:03:26Z</time>
      </trkpt>
      <trkpt lat="47.19956" lon="6.61652">
        <ele>496.6</ele>
        <time>2021-07-29T13:03:27Z</time>
      </trkpt>
      <trkpt lat="47.1996" lon="6.61654">
        <ele>496.6</ele>
        <time>2021-07-29T13:03:28Z</time>
      </trkpt>
      <trkpt lat="47.19965" lon="6.61655">
        <ele>496.6</ele>
        <time>2021-07-29T13:03:29Z</time>
      </trkpt>
      <trkpt lat="47.19969" lon="6.61656">
        <ele>496.4</ele>
        <time>2021-07-29T13:03:30Z</time>
      </trkpt>
      <trkpt lat="47.19973" lon="6.61658">
        <ele>496.4</ele>
        <time>2021-07-29T13:03:31Z</time>
      </trkpt>
      <trkpt lat="47.19978" lon="6.61659">
        <ele>496.2</ele>
        <time>2021-07-29T13:03:32Z</time>
      </trkpt>
      <trkpt lat="47.19982" lon="6.61661">
        <ele>496.2</ele>
        <time>2021-07-29T13:03:33Z</time>
      </trkpt>
      <trkpt lat="47.19986" lon="6.61663">
        <ele>496.2</ele>
        <time>2021-07-29T13:03:34Z</time>
      </trkpt>
      <trkpt lat="47.19991" lon="6.61665">
        <ele>496.2</ele>
        <time>2021-07-29T13:03:35Z</time>
      </trkpt>
      <trkpt lat="47.19996" lon="6.61666">
        <ele>496</ele>
        <time>2021-07-29T13:03:36Z</time>
      </trkpt>
      <trkpt lat="47.20001" lon="6.61668">
        <ele>495.8</ele>
        <time>2021-07-29T13:03:37Z</time>
      </trkpt>
      <trkpt lat="47.20006" lon="6.6167">
        <ele>495.6</ele>
        <time>2021-07-29T13:03:38Z</time>
      </trkpt>
      <trkpt lat="47.20011" lon="6.61671">
        <ele>495.4</ele>
        <time>2021-07-29T13:03:39Z</time>
      </trkpt>
      <trkpt lat="47.20017" lon="6.61673">
        <ele>495.2</ele>
        <time>2021-07-29T13:03:40Z</time>
      </trkpt>
      <trkpt lat="47.20024" lon="6.61674">
        <ele>494.8</ele>
        <time>2021-07-29T13:03:41Z</time>
      </trkpt>
      <trkpt lat="47.2003" lon="6.61676">
        <ele>494.4</ele>
        <time>2021-07-29T13:03:42Z</time>
      </trkpt>
      <trkpt lat="47.20036" lon="6.61678">
        <ele>494.2</ele>
        <time>2021-07-29T13:03:43Z</time>
      </trkpt>
      <trkpt lat="47.20043" lon="6.6168">
        <ele>494</ele>
        <time>2021-07-29T13:03:44Z</time>
      </trkpt>
      <trkpt lat="47.2005" lon="6.61683">
        <ele>493.6</ele>
        <time>2021-07-29T13:03:45Z</time>
      </trkpt>
      <trkpt lat="47.20057" lon="6.61686">
        <ele>493.2</ele>
        <time>2021-07-29T13:03:46Z</time>
      </trkpt>
      <trkpt lat="47.20064" lon="6.61689">
        <ele>493</ele>
        <time>2021-07-29T13:03:47Z</time>
      </trkpt>
      <trkpt lat="47.20072" lon="6.61692">
        <ele>492.6</ele>
        <time>2021-07-29T13:03:48Z</time>
      </trkpt>
      <trkpt lat="47.20079" lon="6.61694">
        <ele>492.2</ele>
        <time>2021-07-29T13:03:49Z</time>
      </trkpt>
      <trkpt lat="47.20087" lon="6.61696">
        <ele>491.8</ele>
        <time>2021-07-29T13:03:50Z</time>
      </trkpt>
      <trkpt lat="47.20094" lon="6.61695">
        <ele>491.6</ele>
        <time>2021-07-29T13:03:51Z</time>
      </trkpt>
      <trkpt lat="47.20102" lon="6.61692">
        <ele>491.4</ele>
        <time>2021-07-29T13:03:52Z</time>
      </trkpt>
      <trkpt lat="47.20108" lon="6.61685">
        <ele>491</ele>
        <time>2021-07-29T13:03:53Z</time>
      </trkpt>
      <trkpt lat="47.20113" lon="6.61677">
        <ele>491</ele>
        <time>2021-07-29T13:03:54Z</time>
      </trkpt>
      <trkpt lat="47.20117" lon="6.61667">
        <ele>490.8</ele>
        <time>2021-07-29T13:03:55Z</time>
      </trkpt>
      <trkpt lat="47.20119" lon="6.61657">
        <ele>490.6</ele>
        <time>2021-07-29T13:03:56Z</time>
      </trkpt>
      <trkpt lat="47.20122" lon="6.61648">
        <ele>490.6</ele>
        <time>2021-07-29T13:03:57Z</time>
      </trkpt>
      <trkpt lat="47.20123" lon="6.61638">
        <ele>490.4</ele>
        <time>2021-07-29T13:03:58Z</time>
      </trkpt>
      <trkpt lat="47.20126" lon="6.61629">
        <ele>490.4</ele>
        <time>2021-07-29T13:03:59Z</time>
      </trkpt>
      <trkpt lat="47.20128" lon="6.6162">
        <ele>490.4</ele>
        <time>2021-07-29T13:04:00Z</time>
      </trkpt>
      <trkpt lat="47.20132" lon="6.61612">
        <ele>490.2</ele>
        <time>2021-07-29T13:04:01Z</time>
      </trkpt>
      <trkpt lat="47.20136" lon="6.61605">
        <ele>490.2</ele>
        <time>2021-07-29T13:04:02Z</time>
      </trkpt>
      <trkpt lat="47.20141" lon="6.616">
        <ele>490.2</ele>
        <time>2021-07-29T13:04:03Z</time>
      </trkpt>
      <trkpt lat="47.20146" lon="6.61596">
        <ele>490.2</ele>
        <time>2021-07-29T13:04:04Z</time>
      </trkpt>
      <trkpt lat="47.20151" lon="6.61592">
        <ele>490.2</ele>
        <time>2021-07-29T13:04:05Z</time>
      </trkpt>
      <trkpt lat="47.20156" lon="6.6159">
        <ele>490.2</ele>
        <time>2021-07-29T13:04:06Z</time>
      </trkpt>
      <trkpt lat="47.20161" lon="6.61588">
        <ele>490.2</ele>
        <time>2021-07-29T13:04:07Z</time>
      </trkpt>
      <trkpt lat="47.20166" lon="6.61586">
        <ele>490.2</ele>
        <time>2021-07-29T13:04:08Z</time>
      </trkpt>
      <trkpt lat="47.2017" lon="6.61585">
        <ele>490</ele>
        <time>2021-07-29T13:04:09Z</time>
      </trkpt>
      <trkpt lat="47.20174" lon="6.61584">
        <ele>490</ele>
        <time>2021-07-29T13:04:10Z</time>
      </trkpt>
      <trkpt lat="47.20178" lon="6.61583">
        <ele>490</ele>
        <time>2021-07-29T13:04:11Z</time>
      </trkpt>
      <trkpt lat="47.20182" lon="6.61583">
        <ele>490</ele>
        <time>2021-07-29T13:04:12Z</time>
      </trkpt>
      <trkpt lat="47.20187" lon="6.61582">
        <ele>490</ele>
        <time>2021-07-29T13:04:13Z</time>
      </trkpt>
      <trkpt lat="47.20192" lon="6.61581">
        <ele>490</ele>
        <time>2021-07-29T13:04:14Z</time>
      </trkpt>
      <trkpt lat="47.20196" lon="6.6158">
        <ele>490</ele>
        <time>2021-07-29T13:04:15Z</time>
      </trkpt>
      <trkpt lat="47.20201" lon="6.6158">
        <ele>490.2</ele>
        <time>2021-07-29T13:04:16Z</time>
      </trkpt>
      <trkpt lat="47.20205" lon="6.6158">
        <ele>490</ele>
        <time>2021-07-29T13:04:17Z</time>
      </trkpt>
      <trkpt lat="47.20209" lon="6.6158">
        <ele>490</ele>
        <time>2021-07-29T13:04:18Z</time>
      </trkpt>
      <trkpt lat="47.20214" lon="6.6158">
        <ele>490</ele>
        <time>2021-07-29T13:04:19Z</time>
      </trkpt>
      <trkpt lat="47.20218" lon="6.6158">
        <ele>490</ele>
        <time>2021-07-29T13:04:20Z</time>
      </trkpt>
      <trkpt lat="47.20222" lon="6.6158">
        <ele>490</ele>
        <time>2021-07-29T13:04:21Z</time>
      </trkpt>
      <trkpt lat="47.20226" lon="6.61582">
        <ele>489.8</ele>
        <time>2021-07-29T13:04:22Z</time>
      </trkpt>
      <trkpt lat="47.20231" lon="6.61584">
        <ele>489.8</ele>
        <time>2021-07-29T13:04:23Z</time>
      </trkpt>
      <trkpt lat="47.20235" lon="6.61587">
        <ele>489.8</ele>
        <time>2021-07-29T13:04:24Z</time>
      </trkpt>
      <trkpt lat="47.20238" lon="6.6159">
        <ele>489.8</ele>
        <time>2021-07-29T13:04:25Z</time>
      </trkpt>
      <trkpt lat="47.20242" lon="6.61595">
        <ele>489.8</ele>
        <time>2021-07-29T13:04:26Z</time>
      </trkpt>
      <trkpt lat="47.20244" lon="6.616">
        <ele>489.8</ele>
        <time>2021-07-29T13:04:27Z</time>
      </trkpt>
      <trkpt lat="47.20246" lon="6.61605">
        <ele>489.8</ele>
        <time>2021-07-29T13:04:28Z</time>
      </trkpt>
      <trkpt lat="47.20248" lon="6.61609">
        <ele>489.8</ele>
        <time>2021-07-29T13:04:29Z</time>
      </trkpt>
      <trkpt lat="47.20249" lon="6.61614">
        <ele>489.6</ele>
        <time>2021-07-29T13:04:30Z</time>
      </trkpt>
      <trkpt lat="47.2025" lon="6.61619">
        <ele>489.6</ele>
        <time>2021-07-29T13:04:31Z</time>
      </trkpt>
      <trkpt lat="47.20251" lon="6.61624">
        <ele>489.6</ele>
        <time>2021-07-29T13:04:32Z</time>
      </trkpt>
      <trkpt lat="47.20252" lon="6.61628">
        <ele>489.8</ele>
        <time>2021-07-29T13:04:33Z</time>
      </trkpt>
      <trkpt lat="47.20253" lon="6.61632">
        <ele>489.6</ele>
        <time>2021-07-29T13:04:34Z</time>
      </trkpt>
      <trkpt lat="47.20254" lon="6.61636">
        <ele>489.6</ele>
        <time>2021-07-29T13:04:35Z</time>
      </trkpt>
      <trkpt lat="47.20255" lon="6.6164">
        <ele>489.8</ele>
        <time>2021-07-29T13:04:36Z</time>
      </trkpt>
      <trkpt lat="47.20255" lon="6.61644">
        <ele>489.8</ele>
        <time>2021-07-29T13:04:37Z</time>
      </trkpt>
      <trkpt lat="47.20256" lon="6.61648">
        <ele>489.8</ele>
        <time>2021-07-29T13:04:38Z</time>
      </trkpt>
      <trkpt lat="47.20257" lon="6.61653">
        <ele>489.8</ele>
        <time>2021-07-29T13:04:39Z</time>
      </trkpt>
      <trkpt lat="47.20258" lon="6.61657">
        <ele>489.8</ele>
        <time>2021-07-29T13:04:40Z</time>
      </trkpt>
      <trkpt lat="47.20258" lon="6.61661">
        <ele>489.8</ele>
        <time>2021-07-29T13:04:41Z</time>
      </trkpt>
      <trkpt lat="47.20259" lon="6.61664">
        <ele>489.8</ele>
        <time>2021-07-29T13:04:42Z</time>
      </trkpt>
      <trkpt lat="47.20259" lon="6.61668">
        <ele>489.8</ele>
        <time>2021-07-29T13:04:43Z</time>
      </trkpt>
      <trkpt lat="47.2026" lon="6.61672">
        <ele>489.8</ele>
        <time>2021-07-29T13:04:44Z</time>
      </trkpt>
      <trkpt lat="47.2026" lon="6.61676">
        <ele>489.8</ele>
        <time>2021-07-29T13:04:45Z</time>
      </trkpt>
      <trkpt lat="47.20261" lon="6.6168">
        <ele>489.8</ele>
        <time>2021-07-29T13:04:46Z</time>
      </trkpt>
      <trkpt lat="47.20262" lon="6.61685">
        <ele>489.8</ele>
        <time>2021-07-29T13:04:47Z</time>
      </trkpt>
      <trkpt lat="47.20262" lon="6.61689">
        <ele>490</ele>
        <time>2021-07-29T13:04:48Z</time>
      </trkpt>
      <trkpt lat="47.20263" lon="6.61694">
        <ele>490</ele>
        <time>2021-07-29T13:04:49Z</time>
      </trkpt>
      <trkpt lat="47.20263" lon="6.61699">
        <ele>490</ele>
        <time>2021-07-29T13:04:50Z</time>
      </trkpt>
      <trkpt lat="47.20264" lon="6.61705">
        <ele>490</ele>
        <time>2021-07-29T13:04:51Z</time>
      </trkpt>
      <trkpt lat="47.20265" lon="6.6171">
        <ele>490</ele>
        <time>2021-07-29T13:04:52Z</time>
      </trkpt>
      <trkpt lat="47.20265" lon="6.61716">
        <ele>490</ele>
        <time>2021-07-29T13:04:53Z</time>
      </trkpt>
      <trkpt lat="47.20266" lon="6.61721">
        <ele>490</ele>
        <time>2021-07-29T13:04:54Z</time>
      </trkpt>
      <trkpt lat="47.20267" lon="6.61727">
        <ele>490</ele>
        <time>2021-07-29T13:04:55Z</time>
      </trkpt>
      <trkpt lat="47.20268" lon="6.61733">
        <ele>490.2</ele>
        <time>2021-07-29T13:04:56Z</time>
      </trkpt>
      <trkpt lat="47.20269" lon="6.61738">
        <ele>490.2</ele>
        <time>2021-07-29T13:04:57Z</time>
      </trkpt>
      <trkpt lat="47.2027" lon="6.61744">
        <ele>490.4</ele>
        <time>2021-07-29T13:04:58Z</time>
      </trkpt>
      <trkpt lat="47.20271" lon="6.6175">
        <ele>490.4</ele>
        <time>2021-07-29T13:04:59Z</time>
      </trkpt>
      <trkpt lat="47.20272" lon="6.61755">
        <ele>490.6</ele>
        <time>2021-07-29T13:05:00Z</time>
      </trkpt>
      <trkpt lat="47.20273" lon="6.61761">
        <ele>490.6</ele>
        <time>2021-07-29T13:05:01Z</time>
      </trkpt>
      <trkpt lat="47.20274" lon="6.61767">
        <ele>490.6</ele>
        <time>2021-07-29T13:05:02Z</time>
      </trkpt>
      <trkpt lat="47.20276" lon="6.61772">
        <ele>490.6</ele>
        <time>2021-07-29T13:05:03Z</time>
      </trkpt>
      <trkpt lat="47.20277" lon="6.61778">
        <ele>490.6</ele>
        <time>2021-07-29T13:05:04Z</time>
      </trkpt>
      <trkpt lat="47.20279" lon="6.61783">
        <ele>490.6</ele>
        <time>2021-07-29T13:05:05Z</time>
      </trkpt>
      <trkpt lat="47.20281" lon="6.61788">
        <ele>490.8</ele>
        <time>2021-07-29T13:05:06Z</time>
      </trkpt>
      <trkpt lat="47.20283" lon="6.61794">
        <ele>490.8</ele>
        <time>2021-07-29T13:05:07Z</time>
      </trkpt>
      <trkpt lat="47.20285" lon="6.61799">
        <ele>490.8</ele>
        <time>2021-07-29T13:05:08Z</time>
      </trkpt>
      <trkpt lat="47.20287" lon="6.61804">
        <ele>490.8</ele>
        <time>2021-07-29T13:05:09Z</time>
      </trkpt>
      <trkpt lat="47.20289" lon="6.6181">
        <ele>490.8</ele>
        <time>2021-07-29T13:05:10Z</time>
      </trkpt>
      <trkpt lat="47.20291" lon="6.61815">
        <ele>491</ele>
        <time>2021-07-29T13:05:11Z</time>
      </trkpt>
      <trkpt lat="47.20293" lon="6.61821">
        <ele>491</ele>
        <time>2021-07-29T13:05:12Z</time>
      </trkpt>
      <trkpt lat="47.20295" lon="6.61826">
        <ele>491</ele>
        <time>2021-07-29T13:05:13Z</time>
      </trkpt>
      <trkpt lat="47.20297" lon="6.61832">
        <ele>491</ele>
        <time>2021-07-29T13:05:14Z</time>
      </trkpt>
      <trkpt lat="47.20299" lon="6.61838">
        <ele>491</ele>
        <time>2021-07-29T13:05:15Z</time>
      </trkpt>
      <trkpt lat="47.20301" lon="6.61843">
        <ele>491</ele>
        <time>2021-07-29T13:05:16Z</time>
      </trkpt>
      <trkpt lat="47.20303" lon="6.61849">
        <ele>491</ele>
        <time>2021-07-29T13:05:17Z</time>
      </trkpt>
      <trkpt lat="47.20306" lon="6.61855">
        <ele>491</ele>
        <time>2021-07-29T13:05:18Z</time>
      </trkpt>
      <trkpt lat="47.20308" lon="6.6186">
        <ele>491</ele>
        <time>2021-07-29T13:05:19Z</time>
      </trkpt>
      <trkpt lat="47.2031" lon="6.61866">
        <ele>491</ele>
        <time>2021-07-29T13:05:20Z</time>
      </trkpt>
      <trkpt lat="47.20313" lon="6.61871">
        <ele>491</ele>
        <time>2021-07-29T13:05:21Z</time>
      </trkpt>
      <trkpt lat="47.20315" lon="6.61877">
        <ele>490.8</ele>
        <time>2021-07-29T13:05:22Z</time>
      </trkpt>
      <trkpt lat="47.20317" lon="6.61883">
        <ele>490.8</ele>
        <time>2021-07-29T13:05:23Z</time>
      </trkpt>
      <trkpt lat="47.20319" lon="6.61889">
        <ele>490.8</ele>
        <time>2021-07-29T13:05:24Z</time>
      </trkpt>
      <trkpt lat="47.20322" lon="6.61895">
        <ele>490.8</ele>
        <time>2021-07-29T13:05:25Z</time>
      </trkpt>
      <trkpt lat="47.20324" lon="6.61901">
        <ele>490.6</ele>
        <time>2021-07-29T13:05:26Z</time>
      </trkpt>
      <trkpt lat="47.20326" lon="6.61907">
        <ele>490.6</ele>
        <time>2021-07-29T13:05:27Z</time>
      </trkpt>
      <trkpt lat="47.20328" lon="6.61913">
        <ele>490.6</ele>
        <time>2021-07-29T13:05:28Z</time>
      </trkpt>
      <trkpt lat="47.20331" lon="6.6192">
        <ele>490.6</ele>
        <time>2021-07-29T13:05:29Z</time>
      </trkpt>
      <trkpt lat="47.20333" lon="6.61926">
        <ele>490.6</ele>
        <time>2021-07-29T13:05:30Z</time>
      </trkpt>
      <trkpt lat="47.20336" lon="6.61932">
        <ele>490.6</ele>
        <time>2021-07-29T13:05:31Z</time>
      </trkpt>
      <trkpt lat="47.20338" lon="6.61939">
        <ele>490.6</ele>
        <time>2021-07-29T13:05:32Z</time>
      </trkpt>
      <trkpt lat="47.2034" lon="6.61946">
        <ele>490.6</ele>
        <time>2021-07-29T13:05:33Z</time>
      </trkpt>
      <trkpt lat="47.20343" lon="6.61953">
        <ele>490.2</ele>
        <time>2021-07-29T13:05:34Z</time>
      </trkpt>
      <trkpt lat="47.20346" lon="6.61959">
        <ele>490.2</ele>
        <time>2021-07-29T13:05:35Z</time>
      </trkpt>
      <trkpt lat="47.20349" lon="6.61967">
        <ele>490.2</ele>
        <time>2021-07-29T13:05:36Z</time>
      </trkpt>
      <trkpt lat="47.20351" lon="6.61974">
        <ele>490.2</ele>
        <time>2021-07-29T13:05:37Z</time>
      </trkpt>
      <trkpt lat="47.20354" lon="6.61982">
        <ele>490</ele>
        <time>2021-07-29T13:05:38Z</time>
      </trkpt>
      <trkpt lat="47.20356" lon="6.61989">
        <ele>490</ele>
        <time>2021-07-29T13:05:39Z</time>
      </trkpt>
      <trkpt lat="47.20359" lon="6.61997">
        <ele>489.8</ele>
        <time>2021-07-29T13:05:40Z</time>
      </trkpt>
      <trkpt lat="47.20361" lon="6.62005">
        <ele>489.8</ele>
        <time>2021-07-29T13:05:41Z</time>
      </trkpt>
      <trkpt lat="47.20363" lon="6.62013">
        <ele>489.8</ele>
        <time>2021-07-29T13:05:42Z</time>
      </trkpt>
      <trkpt lat="47.20364" lon="6.62021">
        <ele>489.8</ele>
        <time>2021-07-29T13:05:43Z</time>
      </trkpt>
      <trkpt lat="47.20366" lon="6.62029">
        <ele>489.8</ele>
        <time>2021-07-29T13:05:44Z</time>
      </trkpt>
      <trkpt lat="47.20366" lon="6.62037">
        <ele>489.6</ele>
        <time>2021-07-29T13:05:45Z</time>
      </trkpt>
      <trkpt lat="47.20367" lon="6.62044">
        <ele>489.6</ele>
        <time>2021-07-29T13:05:46Z</time>
      </trkpt>
      <trkpt lat="47.20368" lon="6.62052">
        <ele>489.6</ele>
        <time>2021-07-29T13:05:47Z</time>
      </trkpt>
      <trkpt lat="47.20368" lon="6.6206">
        <ele>489.6</ele>
        <time>2021-07-29T13:05:48Z</time>
      </trkpt>
      <trkpt lat="47.20368" lon="6.62068">
        <ele>489.6</ele>
        <time>2021-07-29T13:05:49Z</time>
      </trkpt>
      <trkpt lat="47.20368" lon="6.62076">
        <ele>489.6</ele>
        <time>2021-07-29T13:05:50Z</time>
      </trkpt>
      <trkpt lat="47.20368" lon="6.62083">
        <ele>489.6</ele>
        <time>2021-07-29T13:05:51Z</time>
      </trkpt>
      <trkpt lat="47.20368" lon="6.62091">
        <ele>489.6</ele>
        <time>2021-07-29T13:05:52Z</time>
      </trkpt>
      <trkpt lat="47.20367" lon="6.62099">
        <ele>489.6</ele>
        <time>2021-07-29T13:05:53Z</time>
      </trkpt>
      <trkpt lat="47.20367" lon="6.62107">
        <ele>489.6</ele>
        <time>2021-07-29T13:05:54Z</time>
      </trkpt>
      <trkpt lat="47.20367" lon="6.62115">
        <ele>489.6</ele>
        <time>2021-07-29T13:05:55Z</time>
      </trkpt>
      <trkpt lat="47.20367" lon="6.62123">
        <ele>489.6</ele>
        <time>2021-07-29T13:05:56Z</time>
      </trkpt>
      <trkpt lat="47.20367" lon="6.62132">
        <ele>489.6</ele>
        <time>2021-07-29T13:05:57Z</time>
      </trkpt>
      <trkpt lat="47.20367" lon="6.62141">
        <ele>489.6</ele>
        <time>2021-07-29T13:05:58Z</time>
      </trkpt>
      <trkpt lat="47.20366" lon="6.62149">
        <ele>489.6</ele>
        <time>2021-07-29T13:05:59Z</time>
      </trkpt>
      <trkpt lat="47.20365" lon="6.62157">
        <ele>489.8</ele>
        <time>2021-07-29T13:06:00Z</time>
      </trkpt>
      <trkpt lat="47.20364" lon="6.62164">
        <ele>490</ele>
        <time>2021-07-29T13:06:01Z</time>
      </trkpt>
      <trkpt lat="47.20363" lon="6.62171">
        <ele>490.2</ele>
        <time>2021-07-29T13:06:02Z</time>
      </trkpt>
      <trkpt lat="47.20362" lon="6.62178">
        <ele>490.2</ele>
        <time>2021-07-29T13:06:03Z</time>
      </trkpt>
      <trkpt lat="47.20361" lon="6.62185">
        <ele>489.8</ele>
        <time>2021-07-29T13:06:04Z</time>
      </trkpt>
      <trkpt lat="47.2036" lon="6.62193">
        <ele>489.8</ele>
        <time>2021-07-29T13:06:05Z</time>
      </trkpt>
      <trkpt lat="47.20359" lon="6.622">
        <ele>489.8</ele>
        <time>2021-07-29T13:06:06Z</time>
      </trkpt>
      <trkpt lat="47.20358" lon="6.62208">
        <ele>489.6</ele>
        <time>2021-07-29T13:06:07Z</time>
      </trkpt>
      <trkpt lat="47.20357" lon="6.62216">
        <ele>489.6</ele>
        <time>2021-07-29T13:06:08Z</time>
      </trkpt>
      <trkpt lat="47.20356" lon="6.62223">
        <ele>489.6</ele>
        <time>2021-07-29T13:06:09Z</time>
      </trkpt>
      <trkpt lat="47.20354" lon="6.62231">
        <ele>489.4</ele>
        <time>2021-07-29T13:06:10Z</time>
      </trkpt>
      <trkpt lat="47.20352" lon="6.62239">
        <ele>489.2</ele>
        <time>2021-07-29T13:06:11Z</time>
      </trkpt>
      <trkpt lat="47.20349" lon="6.62246">
        <ele>489.2</ele>
        <time>2021-07-29T13:06:12Z</time>
      </trkpt>
      <trkpt lat="47.20346" lon="6.62253">
        <ele>489.2</ele>
        <time>2021-07-29T13:06:13Z</time>
      </trkpt>
      <trkpt lat="47.20343" lon="6.6226">
        <ele>489.2</ele>
        <time>2021-07-29T13:06:14Z</time>
      </trkpt>
      <trkpt lat="47.2034" lon="6.62267">
        <ele>489.8</ele>
        <time>2021-07-29T13:06:15Z</time>
      </trkpt>
      <trkpt lat="47.20338" lon="6.62273">
        <ele>489.6</ele>
        <time>2021-07-29T13:06:16Z</time>
      </trkpt>
      <trkpt lat="47.20335" lon="6.62279">
        <ele>489.6</ele>
        <time>2021-07-29T13:06:17Z</time>
      </trkpt>
      <trkpt lat="47.20332" lon="6.62285">
        <ele>489.8</ele>
        <time>2021-07-29T13:06:18Z</time>
      </trkpt>
      <trkpt lat="47.20329" lon="6.62291">
        <ele>489.6</ele>
        <time>2021-07-29T13:06:19Z</time>
      </trkpt>
      <trkpt lat="47.20326" lon="6.62297">
        <ele>489.6</ele>
        <time>2021-07-29T13:06:20Z</time>
      </trkpt>
      <trkpt lat="47.20323" lon="6.62303">
        <ele>489.6</ele>
        <time>2021-07-29T13:06:21Z</time>
      </trkpt>
      <trkpt lat="47.2032" lon="6.62308">
        <ele>489.6</ele>
        <time>2021-07-29T13:06:22Z</time>
      </trkpt>
      <trkpt lat="47.20317" lon="6.62314">
        <ele>489.6</ele>
        <time>2021-07-29T13:06:23Z</time>
      </trkpt>
      <trkpt lat="47.20314" lon="6.6232">
        <ele>489.8</ele>
        <time>2021-07-29T13:06:24Z</time>
      </trkpt>
      <trkpt lat="47.20311" lon="6.62326">
        <ele>489.8</ele>
        <time>2021-07-29T13:06:25Z</time>
      </trkpt>
      <trkpt lat="47.20308" lon="6.62331">
        <ele>489.8</ele>
        <time>2021-07-29T13:06:26Z</time>
      </trkpt>
      <trkpt lat="47.20306" lon="6.62337">
        <ele>489.8</ele>
        <time>2021-07-29T13:06:27Z</time>
      </trkpt>
      <trkpt lat="47.20303" lon="6.62343">
        <ele>490</ele>
        <time>2021-07-29T13:06:28Z</time>
      </trkpt>
      <trkpt lat="47.20301" lon="6.62349">
        <ele>490</ele>
        <time>2021-07-29T13:06:29Z</time>
      </trkpt>
      <trkpt lat="47.20298" lon="6.62354">
        <ele>490</ele>
        <time>2021-07-29T13:06:30Z</time>
      </trkpt>
      <trkpt lat="47.20296" lon="6.6236">
        <ele>490.2</ele>
        <time>2021-07-29T13:06:31Z</time>
      </trkpt>
      <trkpt lat="47.20293" lon="6.62365">
        <ele>490.2</ele>
        <time>2021-07-29T13:06:32Z</time>
      </trkpt>
      <trkpt lat="47.20291" lon="6.62371">
        <ele>490.4</ele>
        <time>2021-07-29T13:06:33Z</time>
      </trkpt>
      <trkpt lat="47.20288" lon="6.62377">
        <ele>490.2</ele>
        <time>2021-07-29T13:06:34Z</time>
      </trkpt>
      <trkpt lat="47.20285" lon="6.62382">
        <ele>490.4</ele>
        <time>2021-07-29T13:06:35Z</time>
      </trkpt>
      <trkpt lat="47.20282" lon="6.62388">
        <ele>490.4</ele>
        <time>2021-07-29T13:06:36Z</time>
      </trkpt>
      <trkpt lat="47.20279" lon="6.62394">
        <ele>490.4</ele>
        <time>2021-07-29T13:06:37Z</time>
      </trkpt>
      <trkpt lat="47.20276" lon="6.62399">
        <ele>490.4</ele>
        <time>2021-07-29T13:06:38Z</time>
      </trkpt>
      <trkpt lat="47.20272" lon="6.62405">
        <ele>490.6</ele>
        <time>2021-07-29T13:06:39Z</time>
      </trkpt>
      <trkpt lat="47.20269" lon="6.6241">
        <ele>490.6</ele>
        <time>2021-07-29T13:06:40Z</time>
      </trkpt>
      <trkpt lat="47.20265" lon="6.62416">
        <ele>490.6</ele>
        <time>2021-07-29T13:06:41Z</time>
      </trkpt>
      <trkpt lat="47.20261" lon="6.62421">
        <ele>490.8</ele>
        <time>2021-07-29T13:06:42Z</time>
      </trkpt>
      <trkpt lat="47.20257" lon="6.62427">
        <ele>491</ele>
        <time>2021-07-29T13:06:43Z</time>
      </trkpt>
      <trkpt lat="47.20254" lon="6.62432">
        <ele>491</ele>
        <time>2021-07-29T13:06:44Z</time>
      </trkpt>
      <trkpt lat="47.20251" lon="6.62437">
        <ele>491.4</ele>
        <time>2021-07-29T13:06:45Z</time>
      </trkpt>
      <trkpt lat="47.20248" lon="6.62441">
        <ele>491.6</ele>
        <time>2021-07-29T13:06:46Z</time>
      </trkpt>
      <trkpt lat="47.20245" lon="6.62445">
        <ele>491.6</ele>
        <time>2021-07-29T13:06:47Z</time>
      </trkpt>
      <trkpt lat="47.20242" lon="6.62449">
        <ele>491.8</ele>
        <time>2021-07-29T13:06:48Z</time>
      </trkpt>
      <trkpt lat="47.20239" lon="6.62454">
        <ele>491.8</ele>
        <time>2021-07-29T13:06:49Z</time>
      </trkpt>
      <trkpt lat="47.20236" lon="6.62458">
        <ele>491.8</ele>
        <time>2021-07-29T13:06:50Z</time>
      </trkpt>
      <trkpt lat="47.20233" lon="6.62463">
        <ele>491.8</ele>
        <time>2021-07-29T13:06:51Z</time>
      </trkpt>
      <trkpt lat="47.2023" lon="6.62467">
        <ele>491.8</ele>
        <time>2021-07-29T13:06:52Z</time>
      </trkpt>
      <trkpt lat="47.20227" lon="6.62472">
        <ele>492</ele>
        <time>2021-07-29T13:06:53Z</time>
      </trkpt>
      <trkpt lat="47.20223" lon="6.62476">
        <ele>492</ele>
        <time>2021-07-29T13:06:54Z</time>
      </trkpt>
      <trkpt lat="47.2022" lon="6.62481">
        <ele>492.2</ele>
        <time>2021-07-29T13:06:55Z</time>
      </trkpt>
      <trkpt lat="47.20217" lon="6.62485">
        <ele>492.2</ele>
        <time>2021-07-29T13:06:56Z</time>
      </trkpt>
      <trkpt lat="47.20214" lon="6.6249">
        <ele>492.4</ele>
        <time>2021-07-29T13:06:57Z</time>
      </trkpt>
      <trkpt lat="47.20211" lon="6.62494">
        <ele>492.6</ele>
        <time>2021-07-29T13:06:58Z</time>
      </trkpt>
      <trkpt lat="47.20207" lon="6.62498">
        <ele>492.8</ele>
        <time>2021-07-29T13:06:59Z</time>
      </trkpt>
      <trkpt lat="47.20204" lon="6.62503">
        <ele>492.6</ele>
        <time>2021-07-29T13:07:00Z</time>
      </trkpt>
      <trkpt lat="47.20201" lon="6.62507">
        <ele>492.8</ele>
        <time>2021-07-29T13:07:01Z</time>
      </trkpt>
      <trkpt lat="47.20198" lon="6.62511">
        <ele>492.8</ele>
        <time>2021-07-29T13:07:02Z</time>
      </trkpt>
      <trkpt lat="47.20195" lon="6.62515">
        <ele>492.8</ele>
        <time>2021-07-29T13:07:03Z</time>
      </trkpt>
      <trkpt lat="47.20192" lon="6.6252">
        <ele>492.6</ele>
        <time>2021-07-29T13:07:04Z</time>
      </trkpt>
      <trkpt lat="47.20189" lon="6.62524">
        <ele>492.6</ele>
        <time>2021-07-29T13:07:05Z</time>
      </trkpt>
      <trkpt lat="47.20185" lon="6.62529">
        <ele>492.6</ele>
        <time>2021-07-29T13:07:06Z</time>
      </trkpt>
      <trkpt lat="47.20182" lon="6.62535">
        <ele>492.6</ele>
        <time>2021-07-29T13:07:07Z</time>
      </trkpt>
      <trkpt lat="47.20179" lon="6.6254">
        <ele>492.4</ele>
        <time>2021-07-29T13:07:08Z</time>
      </trkpt>
      <trkpt lat="47.20175" lon="6.62546">
        <ele>492.4</ele>
        <time>2021-07-29T13:07:09Z</time>
      </trkpt>
      <trkpt lat="47.20172" lon="6.62552">
        <ele>492.4</ele>
        <time>2021-07-29T13:07:10Z</time>
      </trkpt>
      <trkpt lat="47.20169" lon="6.62558">
        <ele>492.2</ele>
        <time>2021-07-29T13:07:11Z</time>
      </trkpt>
      <trkpt lat="47.20165" lon="6.62563">
        <ele>492.2</ele>
        <time>2021-07-29T13:07:12Z</time>
      </trkpt>
      <trkpt lat="47.20161" lon="6.6257">
        <ele>492.2</ele>
        <time>2021-07-29T13:07:13Z</time>
      </trkpt>
      <trkpt lat="47.20158" lon="6.62576">
        <ele>492.2</ele>
        <time>2021-07-29T13:07:14Z</time>
      </trkpt>
      <trkpt lat="47.20155" lon="6.62582">
        <ele>492.2</ele>
        <time>2021-07-29T13:07:15Z</time>
      </trkpt>
      <trkpt lat="47.20152" lon="6.62589">
        <ele>492</ele>
        <time>2021-07-29T13:07:16Z</time>
      </trkpt>
      <trkpt lat="47.20149" lon="6.62596">
        <ele>492</ele>
        <time>2021-07-29T13:07:17Z</time>
      </trkpt>
      <trkpt lat="47.20145" lon="6.62602">
        <ele>492</ele>
        <time>2021-07-29T13:07:18Z</time>
      </trkpt>
      <trkpt lat="47.20143" lon="6.62608">
        <ele>491.8</ele>
        <time>2021-07-29T13:07:19Z</time>
      </trkpt>
      <trkpt lat="47.20141" lon="6.62615">
        <ele>491.8</ele>
        <time>2021-07-29T13:07:20Z</time>
      </trkpt>
      <trkpt lat="47.20138" lon="6.62623">
        <ele>491.8</ele>
        <time>2021-07-29T13:07:21Z</time>
      </trkpt>
      <trkpt lat="47.20137" lon="6.6263">
        <ele>491.8</ele>
        <time>2021-07-29T13:07:22Z</time>
      </trkpt>
      <trkpt lat="47.20135" lon="6.62637">
        <ele>491.8</ele>
        <time>2021-07-29T13:07:23Z</time>
      </trkpt>
      <trkpt lat="47.20133" lon="6.62643">
        <ele>491.6</ele>
        <time>2021-07-29T13:07:24Z</time>
      </trkpt>
      <trkpt lat="47.20131" lon="6.6265">
        <ele>491.6</ele>
        <time>2021-07-29T13:07:25Z</time>
      </trkpt>
      <trkpt lat="47.20129" lon="6.62657">
        <ele>491.6</ele>
        <time>2021-07-29T13:07:26Z</time>
      </trkpt>
      <trkpt lat="47.20127" lon="6.62664">
        <ele>491.6</ele>
        <time>2021-07-29T13:07:27Z</time>
      </trkpt>
      <trkpt lat="47.20126" lon="6.62671">
        <ele>491.6</ele>
        <time>2021-07-29T13:07:28Z</time>
      </trkpt>
      <trkpt lat="47.20125" lon="6.6268">
        <ele>491.4</ele>
        <time>2021-07-29T13:07:29Z</time>
      </trkpt>
      <trkpt lat="47.20124" lon="6.62686">
        <ele>491.6</ele>
        <time>2021-07-29T13:07:30Z</time>
      </trkpt>
      <trkpt lat="47.20123" lon="6.62691">
        <ele>491.4</ele>
        <time>2021-07-29T13:07:31Z</time>
      </trkpt>
      <trkpt lat="47.20123" lon="6.62698">
        <ele>491.4</ele>
        <time>2021-07-29T13:07:32Z</time>
      </trkpt>
      <trkpt lat="47.20122" lon="6.62706">
        <ele>491.6</ele>
        <time>2021-07-29T13:07:33Z</time>
      </trkpt>
      <trkpt lat="47.20122" lon="6.62713">
        <ele>491.4</ele>
        <time>2021-07-29T13:07:34Z</time>
      </trkpt>
      <trkpt lat="47.20122" lon="6.6272">
        <ele>491.2</ele>
        <time>2021-07-29T13:07:35Z</time>
      </trkpt>
      <trkpt lat="47.20122" lon="6.62728">
        <ele>491.2</ele>
        <time>2021-07-29T13:07:36Z</time>
      </trkpt>
      <trkpt lat="47.20121" lon="6.62736">
        <ele>491.2</ele>
        <time>2021-07-29T13:07:37Z</time>
      </trkpt>
      <trkpt lat="47.20121" lon="6.62744">
        <ele>491.2</ele>
        <time>2021-07-29T13:07:38Z</time>
      </trkpt>
      <trkpt lat="47.2012" lon="6.62752">
        <ele>491.2</ele>
        <time>2021-07-29T13:07:39Z</time>
      </trkpt>
      <trkpt lat="47.2012" lon="6.62761">
        <ele>491</ele>
        <time>2021-07-29T13:07:40Z</time>
      </trkpt>
      <trkpt lat="47.2012" lon="6.6277">
        <ele>491</ele>
        <time>2021-07-29T13:07:41Z</time>
      </trkpt>
      <trkpt lat="47.2012" lon="6.62778">
        <ele>490.8</ele>
        <time>2021-07-29T13:07:42Z</time>
      </trkpt>
      <trkpt lat="47.20119" lon="6.62786">
        <ele>490.8</ele>
        <time>2021-07-29T13:07:43Z</time>
      </trkpt>
      <trkpt lat="47.20119" lon="6.62795">
        <ele>490.6</ele>
        <time>2021-07-29T13:07:44Z</time>
      </trkpt>
      <trkpt lat="47.2012" lon="6.62804">
        <ele>490.4</ele>
        <time>2021-07-29T13:07:45Z</time>
      </trkpt>
      <trkpt lat="47.2012" lon="6.62811">
        <ele>490.4</ele>
        <time>2021-07-29T13:07:46Z</time>
      </trkpt>
      <trkpt lat="47.2012" lon="6.62819">
        <ele>490.4</ele>
        <time>2021-07-29T13:07:47Z</time>
      </trkpt>
      <trkpt lat="47.2012" lon="6.62827">
        <ele>490.4</ele>
        <time>2021-07-29T13:07:48Z</time>
      </trkpt>
      <trkpt lat="47.20121" lon="6.62834">
        <ele>490.2</ele>
        <time>2021-07-29T13:07:49Z</time>
      </trkpt>
      <trkpt lat="47.20123" lon="6.62843">
        <ele>490.4</ele>
        <time>2021-07-29T13:07:50Z</time>
      </trkpt>
      <trkpt lat="47.20125" lon="6.62851">
        <ele>490.2</ele>
        <time>2021-07-29T13:07:51Z</time>
      </trkpt>
      <trkpt lat="47.20127" lon="6.62859">
        <ele>490.2</ele>
        <time>2021-07-29T13:07:52Z</time>
      </trkpt>
      <trkpt lat="47.20129" lon="6.62867">
        <ele>490.2</ele>
        <time>2021-07-29T13:07:53Z</time>
      </trkpt>
      <trkpt lat="47.20131" lon="6.62875">
        <ele>490.2</ele>
        <time>2021-07-29T13:07:54Z</time>
      </trkpt>
      <trkpt lat="47.20134" lon="6.62882">
        <ele>490</ele>
        <time>2021-07-29T13:07:55Z</time>
      </trkpt>
      <trkpt lat="47.20137" lon="6.62888">
        <ele>489.8</ele>
        <time>2021-07-29T13:07:56Z</time>
      </trkpt>
      <trkpt lat="47.20141" lon="6.62895">
        <ele>489.8</ele>
        <time>2021-07-29T13:07:57Z</time>
      </trkpt>
      <trkpt lat="47.20144" lon="6.62901">
        <ele>489.6</ele>
        <time>2021-07-29T13:07:58Z</time>
      </trkpt>
      <trkpt lat="47.20147" lon="6.62907">
        <ele>489.6</ele>
        <time>2021-07-29T13:07:59Z</time>
      </trkpt>
      <trkpt lat="47.20151" lon="6.62913">
        <ele>489.4</ele>
        <time>2021-07-29T13:08:00Z</time>
      </trkpt>
      <trkpt lat="47.20155" lon="6.62918">
        <ele>489.4</ele>
        <time>2021-07-29T13:08:01Z</time>
      </trkpt>
      <trkpt lat="47.20158" lon="6.62923">
        <ele>489.4</ele>
        <time>2021-07-29T13:08:02Z</time>
      </trkpt>
      <trkpt lat="47.20163" lon="6.62928">
        <ele>489.2</ele>
        <time>2021-07-29T13:08:03Z</time>
      </trkpt>
      <trkpt lat="47.20168" lon="6.62932">
        <ele>489.2</ele>
        <time>2021-07-29T13:08:04Z</time>
      </trkpt>
      <trkpt lat="47.20173" lon="6.62937">
        <ele>489</ele>
        <time>2021-07-29T13:08:05Z</time>
      </trkpt>
      <trkpt lat="47.20178" lon="6.62941">
        <ele>489</ele>
        <time>2021-07-29T13:08:06Z</time>
      </trkpt>
      <trkpt lat="47.20183" lon="6.62945">
        <ele>488.8</ele>
        <time>2021-07-29T13:08:07Z</time>
      </trkpt>
      <trkpt lat="47.20188" lon="6.62948">
        <ele>488.8</ele>
        <time>2021-07-29T13:08:08Z</time>
      </trkpt>
      <trkpt lat="47.20193" lon="6.62951">
        <ele>488.8</ele>
        <time>2021-07-29T13:08:09Z</time>
      </trkpt>
      <trkpt lat="47.20198" lon="6.62954">
        <ele>488.8</ele>
        <time>2021-07-29T13:08:10Z</time>
      </trkpt>
      <trkpt lat="47.20204" lon="6.62957">
        <ele>488.6</ele>
        <time>2021-07-29T13:08:11Z</time>
      </trkpt>
      <trkpt lat="47.2021" lon="6.62961">
        <ele>488.6</ele>
        <time>2021-07-29T13:08:12Z</time>
      </trkpt>
      <trkpt lat="47.20216" lon="6.62966">
        <ele>488.6</ele>
        <time>2021-07-29T13:08:13Z</time>
      </trkpt>
      <trkpt lat="47.20222" lon="6.6297">
        <ele>488.6</ele>
        <time>2021-07-29T13:08:14Z</time>
      </trkpt>
      <trkpt lat="47.20227" lon="6.62972">
        <ele>488.4</ele>
        <time>2021-07-29T13:08:15Z</time>
      </trkpt>
      <trkpt lat="47.20233" lon="6.62974">
        <ele>488.4</ele>
        <time>2021-07-29T13:08:16Z</time>
      </trkpt>
      <trkpt lat="47.20238" lon="6.62978">
        <ele>488.4</ele>
        <time>2021-07-29T13:08:17Z</time>
      </trkpt>
      <trkpt lat="47.20244" lon="6.62981">
        <ele>488.4</ele>
        <time>2021-07-29T13:08:18Z</time>
      </trkpt>
      <trkpt lat="47.2025" lon="6.62984">
        <ele>488.2</ele>
        <time>2021-07-29T13:08:19Z</time>
      </trkpt>
      <trkpt lat="47.20255" lon="6.62987">
        <ele>488.2</ele>
        <time>2021-07-29T13:08:20Z</time>
      </trkpt>
      <trkpt lat="47.20261" lon="6.62989">
        <ele>488.2</ele>
        <time>2021-07-29T13:08:21Z</time>
      </trkpt>
      <trkpt lat="47.20266" lon="6.62992">
        <ele>488.2</ele>
        <time>2021-07-29T13:08:22Z</time>
      </trkpt>
      <trkpt lat="47.20272" lon="6.62993">
        <ele>488.2</ele>
        <time>2021-07-29T13:08:23Z</time>
      </trkpt>
      <trkpt lat="47.20278" lon="6.62995">
        <ele>488.2</ele>
        <time>2021-07-29T13:08:24Z</time>
      </trkpt>
      <trkpt lat="47.20284" lon="6.62997">
        <ele>488</ele>
        <time>2021-07-29T13:08:25Z</time>
      </trkpt>
      <trkpt lat="47.2029" lon="6.62999">
        <ele>488</ele>
        <time>2021-07-29T13:08:26Z</time>
      </trkpt>
      <trkpt lat="47.20295" lon="6.63">
        <ele>488</ele>
        <time>2021-07-29T13:08:27Z</time>
      </trkpt>
      <trkpt lat="47.203" lon="6.63001">
        <ele>488</ele>
        <time>2021-07-29T13:08:28Z</time>
      </trkpt>
      <trkpt lat="47.20306" lon="6.63002">
        <ele>488</ele>
        <time>2021-07-29T13:08:29Z</time>
      </trkpt>
      <trkpt lat="47.20311" lon="6.63004">
        <ele>488</ele>
        <time>2021-07-29T13:08:30Z</time>
      </trkpt>
      <trkpt lat="47.20316" lon="6.63004">
        <ele>487.8</ele>
        <time>2021-07-29T13:08:31Z</time>
      </trkpt>
      <trkpt lat="47.20321" lon="6.63005">
        <ele>487.8</ele>
        <time>2021-07-29T13:08:32Z</time>
      </trkpt>
      <trkpt lat="47.20327" lon="6.63006">
        <ele>487.8</ele>
        <time>2021-07-29T13:08:33Z</time>
      </trkpt>
      <trkpt lat="47.20332" lon="6.63007">
        <ele>487.8</ele>
        <time>2021-07-29T13:08:34Z</time>
      </trkpt>
      <trkpt lat="47.20338" lon="6.63009">
        <ele>487.8</ele>
        <time>2021-07-29T13:08:35Z</time>
      </trkpt>
      <trkpt lat="47.20344" lon="6.6301">
        <ele>487.8</ele>
        <time>2021-07-29T13:08:36Z</time>
      </trkpt>
      <trkpt lat="47.2035" lon="6.63011">
        <ele>487.8</ele>
        <time>2021-07-29T13:08:37Z</time>
      </trkpt>
      <trkpt lat="47.20355" lon="6.63011">
        <ele>487.8</ele>
        <time>2021-07-29T13:08:38Z</time>
      </trkpt>
      <trkpt lat="47.20361" lon="6.63012">
        <ele>487.6</ele>
        <time>2021-07-29T13:08:39Z</time>
      </trkpt>
      <trkpt lat="47.20366" lon="6.63013">
        <ele>487.8</ele>
        <time>2021-07-29T13:08:40Z</time>
      </trkpt>
      <trkpt lat="47.20371" lon="6.63013">
        <ele>487.6</ele>
        <time>2021-07-29T13:08:41Z</time>
      </trkpt>
      <trkpt lat="47.20377" lon="6.63015">
        <ele>487.6</ele>
        <time>2021-07-29T13:08:42Z</time>
      </trkpt>
      <trkpt lat="47.20383" lon="6.63016">
        <ele>487.8</ele>
        <time>2021-07-29T13:08:43Z</time>
      </trkpt>
      <trkpt lat="47.20388" lon="6.63018">
        <ele>487.6</ele>
        <time>2021-07-29T13:08:44Z</time>
      </trkpt>
      <trkpt lat="47.20394" lon="6.63019">
        <ele>487.6</ele>
        <time>2021-07-29T13:08:45Z</time>
      </trkpt>
      <trkpt lat="47.204" lon="6.6302">
        <ele>487.6</ele>
        <time>2021-07-29T13:08:46Z</time>
      </trkpt>
      <trkpt lat="47.20406" lon="6.63022">
        <ele>487.6</ele>
        <time>2021-07-29T13:08:47Z</time>
      </trkpt>
      <trkpt lat="47.20411" lon="6.63023">
        <ele>487.6</ele>
        <time>2021-07-29T13:08:48Z</time>
      </trkpt>
      <trkpt lat="47.20416" lon="6.63025">
        <ele>487.6</ele>
        <time>2021-07-29T13:08:49Z</time>
      </trkpt>
      <trkpt lat="47.20421" lon="6.63025">
        <ele>487.6</ele>
        <time>2021-07-29T13:08:50Z</time>
      </trkpt>
      <trkpt lat="47.20426" lon="6.63025">
        <ele>487.6</ele>
        <time>2021-07-29T13:08:51Z</time>
      </trkpt>
      <trkpt lat="47.20431" lon="6.63026">
        <ele>487.8</ele>
        <time>2021-07-29T13:08:52Z</time>
      </trkpt>
      <trkpt lat="47.20437" lon="6.63027">
        <ele>487.8</ele>
        <time>2021-07-29T13:08:53Z</time>
      </trkpt>
      <trkpt lat="47.20442" lon="6.63028">
        <ele>487.8</ele>
        <time>2021-07-29T13:08:54Z</time>
      </trkpt>
      <trkpt lat="47.20448" lon="6.6303">
        <ele>487.6</ele>
        <time>2021-07-29T13:08:55Z</time>
      </trkpt>
      <trkpt lat="47.20453" lon="6.6303">
        <ele>487.8</ele>
        <time>2021-07-29T13:08:56Z</time>
      </trkpt>
      <trkpt lat="47.20459" lon="6.63031">
        <ele>487.8</ele>
        <time>2021-07-29T13:08:57Z</time>
      </trkpt>
      <trkpt lat="47.20465" lon="6.63031">
        <ele>487.8</ele>
        <time>2021-07-29T13:08:58Z</time>
      </trkpt>
      <trkpt lat="47.2047" lon="6.63031">
        <ele>487.8</ele>
        <time>2021-07-29T13:08:59Z</time>
      </trkpt>
      <trkpt lat="47.20476" lon="6.63031">
        <ele>487.8</ele>
        <time>2021-07-29T13:09:00Z</time>
      </trkpt>
      <trkpt lat="47.20482" lon="6.63031">
        <ele>487.8</ele>
        <time>2021-07-29T13:09:01Z</time>
      </trkpt>
      <trkpt lat="47.20488" lon="6.6303">
        <ele>487.8</ele>
        <time>2021-07-29T13:09:02Z</time>
      </trkpt>
      <trkpt lat="47.20493" lon="6.6303">
        <ele>487.8</ele>
        <time>2021-07-29T13:09:03Z</time>
      </trkpt>
      <trkpt lat="47.205" lon="6.6303">
        <ele>487.8</ele>
        <time>2021-07-29T13:09:04Z</time>
      </trkpt>
      <trkpt lat="47.20506" lon="6.63029">
        <ele>487.8</ele>
        <time>2021-07-29T13:09:05Z</time>
      </trkpt>
      <trkpt lat="47.20512" lon="6.63028">
        <ele>487.6</ele>
        <time>2021-07-29T13:09:06Z</time>
      </trkpt>
      <trkpt lat="47.20518" lon="6.63028">
        <ele>487.6</ele>
        <time>2021-07-29T13:09:07Z</time>
      </trkpt>
      <trkpt lat="47.20524" lon="6.63027">
        <ele>487.6</ele>
        <time>2021-07-29T13:09:08Z</time>
      </trkpt>
      <trkpt lat="47.2053" lon="6.63027">
        <ele>487.6</ele>
        <time>2021-07-29T13:09:09Z</time>
      </trkpt>
      <trkpt lat="47.20536" lon="6.63027">
        <ele>487.6</ele>
        <time>2021-07-29T13:09:10Z</time>
      </trkpt>
      <trkpt lat="47.20542" lon="6.63026">
        <ele>487.6</ele>
        <time>2021-07-29T13:09:11Z</time>
      </trkpt>
      <trkpt lat="47.20548" lon="6.63026">
        <ele>487.4</ele>
        <time>2021-07-29T13:09:12Z</time>
      </trkpt>
      <trkpt lat="47.20555" lon="6.63026">
        <ele>487.4</ele>
        <time>2021-07-29T13:09:13Z</time>
      </trkpt>
      <trkpt lat="47.20561" lon="6.63026">
        <ele>487.4</ele>
        <time>2021-07-29T13:09:14Z</time>
      </trkpt>
      <trkpt lat="47.20567" lon="6.63025">
        <ele>487.4</ele>
        <time>2021-07-29T13:09:15Z</time>
      </trkpt>
      <trkpt lat="47.20572" lon="6.63025">
        <ele>487.4</ele>
        <time>2021-07-29T13:09:16Z</time>
      </trkpt>
      <trkpt lat="47.20578" lon="6.63025">
        <ele>487.2</ele>
        <time>2021-07-29T13:09:17Z</time>
      </trkpt>
      <trkpt lat="47.20584" lon="6.63025">
        <ele>487.2</ele>
        <time>2021-07-29T13:09:18Z</time>
      </trkpt>
      <trkpt lat="47.2059" lon="6.63026">
        <ele>487.2</ele>
        <time>2021-07-29T13:09:19Z</time>
      </trkpt>
      <trkpt lat="47.20595" lon="6.63025">
        <ele>487.2</ele>
        <time>2021-07-29T13:09:20Z</time>
      </trkpt>
      <trkpt lat="47.20601" lon="6.63025">
        <ele>487</ele>
        <time>2021-07-29T13:09:21Z</time>
      </trkpt>
      <trkpt lat="47.20608" lon="6.63025">
        <ele>487</ele>
        <time>2021-07-29T13:09:22Z</time>
      </trkpt>
      <trkpt lat="47.20614" lon="6.63026">
        <ele>486.8</ele>
        <time>2021-07-29T13:09:23Z</time>
      </trkpt>
      <trkpt lat="47.2062" lon="6.63026">
        <ele>486.8</ele>
        <time>2021-07-29T13:09:24Z</time>
      </trkpt>
      <trkpt lat="47.20626" lon="6.63027">
        <ele>486.8</ele>
        <time>2021-07-29T13:09:25Z</time>
      </trkpt>
      <trkpt lat="47.20631" lon="6.63027">
        <ele>486.6</ele>
        <time>2021-07-29T13:09:26Z</time>
      </trkpt>
      <trkpt lat="47.20637" lon="6.63027">
        <ele>486.6</ele>
        <time>2021-07-29T13:09:27Z</time>
      </trkpt>
      <trkpt lat="47.20642" lon="6.63027">
        <ele>486.6</ele>
        <time>2021-07-29T13:09:28Z</time>
      </trkpt>
      <trkpt lat="47.20647" lon="6.63027">
        <ele>486.6</ele>
        <time>2021-07-29T13:09:29Z</time>
      </trkpt>
      <trkpt lat="47.20652" lon="6.63029">
        <ele>486.6</ele>
        <time>2021-07-29T13:09:30Z</time>
      </trkpt>
      <trkpt lat="47.20658" lon="6.63029">
        <ele>486.6</ele>
        <time>2021-07-29T13:09:31Z</time>
      </trkpt>
      <trkpt lat="47.20663" lon="6.6303">
        <ele>486.6</ele>
        <time>2021-07-29T13:09:32Z</time>
      </trkpt>
      <trkpt lat="47.20669" lon="6.63032">
        <ele>486.6</ele>
        <time>2021-07-29T13:09:33Z</time>
      </trkpt>
      <trkpt lat="47.20675" lon="6.63033">
        <ele>486.6</ele>
        <time>2021-07-29T13:09:34Z</time>
      </trkpt>
      <trkpt lat="47.20681" lon="6.63035">
        <ele>486.6</ele>
        <time>2021-07-29T13:09:35Z</time>
      </trkpt>
      <trkpt lat="47.20687" lon="6.63037">
        <ele>486.6</ele>
        <time>2021-07-29T13:09:36Z</time>
      </trkpt>
      <trkpt lat="47.20693" lon="6.63039">
        <ele>486.6</ele>
        <time>2021-07-29T13:09:37Z</time>
      </trkpt>
      <trkpt lat="47.20699" lon="6.63042">
        <ele>486.4</ele>
        <time>2021-07-29T13:09:38Z</time>
      </trkpt>
      <trkpt lat="47.20705" lon="6.63044">
        <ele>486.4</ele>
        <time>2021-07-29T13:09:39Z</time>
      </trkpt>
      <trkpt lat="47.2071" lon="6.63046">
        <ele>486.2</ele>
        <time>2021-07-29T13:09:40Z</time>
      </trkpt>
      <trkpt lat="47.20716" lon="6.63049">
        <ele>486.2</ele>
        <time>2021-07-29T13:09:41Z</time>
      </trkpt>
      <trkpt lat="47.20722" lon="6.63052">
        <ele>486.2</ele>
        <time>2021-07-29T13:09:42Z</time>
      </trkpt>
      <trkpt lat="47.20728" lon="6.63055">
        <ele>486</ele>
        <time>2021-07-29T13:09:43Z</time>
      </trkpt>
      <trkpt lat="47.20733" lon="6.63058">
        <ele>486</ele>
        <time>2021-07-29T13:09:44Z</time>
      </trkpt>
      <trkpt lat="47.20739" lon="6.63061">
        <ele>486</ele>
        <time>2021-07-29T13:09:45Z</time>
      </trkpt>
      <trkpt lat="47.20745" lon="6.63064">
        <ele>486</ele>
        <time>2021-07-29T13:09:46Z</time>
      </trkpt>
      <trkpt lat="47.2075" lon="6.63068">
        <ele>486</ele>
        <time>2021-07-29T13:09:47Z</time>
      </trkpt>
      <trkpt lat="47.20756" lon="6.63072">
        <ele>485.8</ele>
        <time>2021-07-29T13:09:48Z</time>
      </trkpt>
      <trkpt lat="47.20761" lon="6.63076">
        <ele>485.8</ele>
        <time>2021-07-29T13:09:49Z</time>
      </trkpt>
      <trkpt lat="47.20767" lon="6.63081">
        <ele>485.6</ele>
        <time>2021-07-29T13:09:50Z</time>
      </trkpt>
      <trkpt lat="47.20772" lon="6.63086">
        <ele>485.6</ele>
        <time>2021-07-29T13:09:51Z</time>
      </trkpt>
      <trkpt lat="47.20776" lon="6.63091">
        <ele>485.6</ele>
        <time>2021-07-29T13:09:52Z</time>
      </trkpt>
      <trkpt lat="47.20781" lon="6.63097">
        <ele>485.4</ele>
        <time>2021-07-29T13:09:53Z</time>
      </trkpt>
      <trkpt lat="47.20785" lon="6.63103">
        <ele>485.4</ele>
        <time>2021-07-29T13:09:54Z</time>
      </trkpt>
      <trkpt lat="47.20789" lon="6.6311">
        <ele>485.2</ele>
        <time>2021-07-29T13:09:55Z</time>
      </trkpt>
      <trkpt lat="47.20793" lon="6.63116">
        <ele>485.4</ele>
        <time>2021-07-29T13:09:56Z</time>
      </trkpt>
      <trkpt lat="47.20796" lon="6.63123">
        <ele>485.4</ele>
        <time>2021-07-29T13:09:57Z</time>
      </trkpt>
      <trkpt lat="47.208" lon="6.6313">
        <ele>485.4</ele>
        <time>2021-07-29T13:09:58Z</time>
      </trkpt>
      <trkpt lat="47.20803" lon="6.63137">
        <ele>485.4</ele>
        <time>2021-07-29T13:09:59Z</time>
      </trkpt>
      <trkpt lat="47.20806" lon="6.63145">
        <ele>485.4</ele>
        <time>2021-07-29T13:10:00Z</time>
      </trkpt>
      <trkpt lat="47.20808" lon="6.63152">
        <ele>485.4</ele>
        <time>2021-07-29T13:10:01Z</time>
      </trkpt>
      <trkpt lat="47.2081" lon="6.63159">
        <ele>485.4</ele>
        <time>2021-07-29T13:10:02Z</time>
      </trkpt>
      <trkpt lat="47.20812" lon="6.63167">
        <ele>485.4</ele>
        <time>2021-07-29T13:10:03Z</time>
      </trkpt>
      <trkpt lat="47.20814" lon="6.63174">
        <ele>485.2</ele>
        <time>2021-07-29T13:10:04Z</time>
      </trkpt>
      <trkpt lat="47.20817" lon="6.63182">
        <ele>485.2</ele>
        <time>2021-07-29T13:10:05Z</time>
      </trkpt>
      <trkpt lat="47.20819" lon="6.63189">
        <ele>485.2</ele>
        <time>2021-07-29T13:10:06Z</time>
      </trkpt>
      <trkpt lat="47.20821" lon="6.63197">
        <ele>485</ele>
        <time>2021-07-29T13:10:07Z</time>
      </trkpt>
      <trkpt lat="47.20824" lon="6.63204">
        <ele>485</ele>
        <time>2021-07-29T13:10:08Z</time>
      </trkpt>
      <trkpt lat="47.20826" lon="6.63212">
        <ele>485</ele>
        <time>2021-07-29T13:10:09Z</time>
      </trkpt>
      <trkpt lat="47.20828" lon="6.63219">
        <ele>485</ele>
        <time>2021-07-29T13:10:10Z</time>
      </trkpt>
      <trkpt lat="47.2083" lon="6.63226">
        <ele>485</ele>
        <time>2021-07-29T13:10:11Z</time>
      </trkpt>
      <trkpt lat="47.20832" lon="6.63233">
        <ele>485</ele>
        <time>2021-07-29T13:10:12Z</time>
      </trkpt>
      <trkpt lat="47.20834" lon="6.6324">
        <ele>485</ele>
        <time>2021-07-29T13:10:13Z</time>
      </trkpt>
      <trkpt lat="47.20836" lon="6.63247">
        <ele>485</ele>
        <time>2021-07-29T13:10:14Z</time>
      </trkpt>
      <trkpt lat="47.20838" lon="6.63254">
        <ele>485.2</ele>
        <time>2021-07-29T13:10:15Z</time>
      </trkpt>
      <trkpt lat="47.2084" lon="6.63261">
        <ele>485.4</ele>
        <time>2021-07-29T13:10:16Z</time>
      </trkpt>
      <trkpt lat="47.20842" lon="6.63268">
        <ele>485.2</ele>
        <time>2021-07-29T13:10:17Z</time>
      </trkpt>
      <trkpt lat="47.20845" lon="6.63275">
        <ele>485.2</ele>
        <time>2021-07-29T13:10:18Z</time>
      </trkpt>
      <trkpt lat="47.20847" lon="6.63281">
        <ele>485.4</ele>
        <time>2021-07-29T13:10:19Z</time>
      </trkpt>
      <trkpt lat="47.20849" lon="6.63288">
        <ele>485.4</ele>
        <time>2021-07-29T13:10:20Z</time>
      </trkpt>
      <trkpt lat="47.20851" lon="6.63294">
        <ele>485.6</ele>
        <time>2021-07-29T13:10:21Z</time>
      </trkpt>
      <trkpt lat="47.20853" lon="6.633">
        <ele>485.6</ele>
        <time>2021-07-29T13:10:22Z</time>
      </trkpt>
      <trkpt lat="47.20855" lon="6.63306">
        <ele>485.6</ele>
        <time>2021-07-29T13:10:23Z</time>
      </trkpt>
      <trkpt lat="47.20857" lon="6.63312">
        <ele>485.6</ele>
        <time>2021-07-29T13:10:24Z</time>
      </trkpt>
      <trkpt lat="47.20859" lon="6.63318">
        <ele>485.6</ele>
        <time>2021-07-29T13:10:25Z</time>
      </trkpt>
      <trkpt lat="47.20861" lon="6.63325">
        <ele>485.6</ele>
        <time>2021-07-29T13:10:26Z</time>
      </trkpt>
      <trkpt lat="47.20862" lon="6.63331">
        <ele>486</ele>
        <time>2021-07-29T13:10:27Z</time>
      </trkpt>
      <trkpt lat="47.20864" lon="6.63337">
        <ele>485.8</ele>
        <time>2021-07-29T13:10:28Z</time>
      </trkpt>
      <trkpt lat="47.20865" lon="6.63344">
        <ele>486</ele>
        <time>2021-07-29T13:10:29Z</time>
      </trkpt>
      <trkpt lat="47.20866" lon="6.6335">
        <ele>486.2</ele>
        <time>2021-07-29T13:10:30Z</time>
      </trkpt>
      <trkpt lat="47.20867" lon="6.63356">
        <ele>486.2</ele>
        <time>2021-07-29T13:10:31Z</time>
      </trkpt>
      <trkpt lat="47.20867" lon="6.63362">
        <ele>486.4</ele>
        <time>2021-07-29T13:10:32Z</time>
      </trkpt>
      <trkpt lat="47.20868" lon="6.63368">
        <ele>486.4</ele>
        <time>2021-07-29T13:10:33Z</time>
      </trkpt>
      <trkpt lat="47.20869" lon="6.63373">
        <ele>486.6</ele>
        <time>2021-07-29T13:10:34Z</time>
      </trkpt>
      <trkpt lat="47.20869" lon="6.63379">
        <ele>486.6</ele>
        <time>2021-07-29T13:10:35Z</time>
      </trkpt>
      <trkpt lat="47.2087" lon="6.63384">
        <ele>486.8</ele>
        <time>2021-07-29T13:10:36Z</time>
      </trkpt>
      <trkpt lat="47.2087" lon="6.63389">
        <ele>487</ele>
        <time>2021-07-29T13:10:37Z</time>
      </trkpt>
      <trkpt lat="47.2087" lon="6.63394">
        <ele>487.2</ele>
        <time>2021-07-29T13:10:38Z</time>
      </trkpt>
      <trkpt lat="47.2087" lon="6.63399">
        <ele>487.2</ele>
        <time>2021-07-29T13:10:39Z</time>
      </trkpt>
      <trkpt lat="47.2087" lon="6.63404">
        <ele>487.2</ele>
        <time>2021-07-29T13:10:40Z</time>
      </trkpt>
      <trkpt lat="47.2087" lon="6.63408">
        <ele>487.2</ele>
        <time>2021-07-29T13:10:41Z</time>
      </trkpt>
      <trkpt lat="47.2087" lon="6.63413">
        <ele>487.4</ele>
        <time>2021-07-29T13:10:42Z</time>
      </trkpt>
      <trkpt lat="47.2087" lon="6.63418">
        <ele>487.4</ele>
        <time>2021-07-29T13:10:43Z</time>
      </trkpt>
      <trkpt lat="47.2087" lon="6.63423">
        <ele>487.6</ele>
        <time>2021-07-29T13:10:44Z</time>
      </trkpt>
      <trkpt lat="47.2087" lon="6.63427">
        <ele>487.6</ele>
        <time>2021-07-29T13:10:45Z</time>
      </trkpt>
      <trkpt lat="47.2087" lon="6.63432">
        <ele>487.6</ele>
        <time>2021-07-29T13:10:46Z</time>
      </trkpt>
      <trkpt lat="47.2087" lon="6.63436">
        <ele>487.8</ele>
        <time>2021-07-29T13:10:47Z</time>
      </trkpt>
      <trkpt lat="47.2087" lon="6.6344">
        <ele>487.8</ele>
        <time>2021-07-29T13:10:48Z</time>
      </trkpt>
      <trkpt lat="47.2087" lon="6.63445">
        <ele>487.8</ele>
        <time>2021-07-29T13:10:49Z</time>
      </trkpt>
      <trkpt lat="47.2087" lon="6.63449">
        <ele>487.8</ele>
        <time>2021-07-29T13:10:50Z</time>
      </trkpt>
      <trkpt lat="47.20869" lon="6.63454">
        <ele>487.8</ele>
        <time>2021-07-29T13:10:51Z</time>
      </trkpt>
      <trkpt lat="47.20868" lon="6.63459">
        <ele>487.6</ele>
        <time>2021-07-29T13:10:52Z</time>
      </trkpt>
      <trkpt lat="47.20866" lon="6.63464">
        <ele>487.4</ele>
        <time>2021-07-29T13:10:53Z</time>
      </trkpt>
      <trkpt lat="47.20864" lon="6.63469">
        <ele>487.4</ele>
        <time>2021-07-29T13:10:54Z</time>
      </trkpt>
      <trkpt lat="47.20861" lon="6.63474">
        <ele>487.4</ele>
        <time>2021-07-29T13:10:55Z</time>
      </trkpt>
      <trkpt lat="47.20859" lon="6.63479">
        <ele>487.2</ele>
        <time>2021-07-29T13:10:56Z</time>
      </trkpt>
      <trkpt lat="47.20856" lon="6.63485">
        <ele>487.2</ele>
        <time>2021-07-29T13:10:57Z</time>
      </trkpt>
      <trkpt lat="47.20853" lon="6.63489">
        <ele>487.2</ele>
        <time>2021-07-29T13:10:58Z</time>
      </trkpt>
      <trkpt lat="47.20851" lon="6.63494">
        <ele>487</ele>
        <time>2021-07-29T13:10:59Z</time>
      </trkpt>
      <trkpt lat="47.20847" lon="6.63498">
        <ele>487</ele>
        <time>2021-07-29T13:11:00Z</time>
      </trkpt>
      <trkpt lat="47.20844" lon="6.63502">
        <ele>487</ele>
        <time>2021-07-29T13:11:01Z</time>
      </trkpt>
      <trkpt lat="47.20841" lon="6.63506">
        <ele>487</ele>
        <time>2021-07-29T13:11:02Z</time>
      </trkpt>
      <trkpt lat="47.20838" lon="6.63511">
        <ele>487</ele>
        <time>2021-07-29T13:11:03Z</time>
      </trkpt>
      <trkpt lat="47.20834" lon="6.63515">
        <ele>486.8</ele>
        <time>2021-07-29T13:11:04Z</time>
      </trkpt>
      <trkpt lat="47.2083" lon="6.6352">
        <ele>486.8</ele>
        <time>2021-07-29T13:11:05Z</time>
      </trkpt>
      <trkpt lat="47.20827" lon="6.63524">
        <ele>486.8</ele>
        <time>2021-07-29T13:11:06Z</time>
      </trkpt>
      <trkpt lat="47.20823" lon="6.63528">
        <ele>486.8</ele>
        <time>2021-07-29T13:11:07Z</time>
      </trkpt>
      <trkpt lat="47.20819" lon="6.63532">
        <ele>486.8</ele>
        <time>2021-07-29T13:11:08Z</time>
      </trkpt>
      <trkpt lat="47.20816" lon="6.63537">
        <ele>486.8</ele>
        <time>2021-07-29T13:11:09Z</time>
      </trkpt>
      <trkpt lat="47.20812" lon="6.63541">
        <ele>486.8</ele>
        <time>2021-07-29T13:11:10Z</time>
      </trkpt>
      <trkpt lat="47.20808" lon="6.63545">
        <ele>486.6</ele>
        <time>2021-07-29T13:11:11Z</time>
      </trkpt>
      <trkpt lat="47.20805" lon="6.63549">
        <ele>486.6</ele>
        <time>2021-07-29T13:11:12Z</time>
      </trkpt>
      <trkpt lat="47.20802" lon="6.63553">
        <ele>486.6</ele>
        <time>2021-07-29T13:11:13Z</time>
      </trkpt>
      <trkpt lat="47.20799" lon="6.63557">
        <ele>486.4</ele>
        <time>2021-07-29T13:11:14Z</time>
      </trkpt>
      <trkpt lat="47.20795" lon="6.63562">
        <ele>486.2</ele>
        <time>2021-07-29T13:11:15Z</time>
      </trkpt>
      <trkpt lat="47.20792" lon="6.63567">
        <ele>486.2</ele>
        <time>2021-07-29T13:11:16Z</time>
      </trkpt>
      <trkpt lat="47.20789" lon="6.63572">
        <ele>486.2</ele>
        <time>2021-07-29T13:11:17Z</time>
      </trkpt>
      <trkpt lat="47.20787" lon="6.63577">
        <ele>486.2</ele>
        <time>2021-07-29T13:11:18Z</time>
      </trkpt>
      <trkpt lat="47.20784" lon="6.63583">
        <ele>486.2</ele>
        <time>2021-07-29T13:11:19Z</time>
      </trkpt>
      <trkpt lat="47.20781" lon="6.63588">
        <ele>486</ele>
        <time>2021-07-29T13:11:20Z</time>
      </trkpt>
      <trkpt lat="47.20778" lon="6.63594">
        <ele>486</ele>
        <time>2021-07-29T13:11:21Z</time>
      </trkpt>
      <trkpt lat="47.20776" lon="6.63599">
        <ele>486</ele>
        <time>2021-07-29T13:11:22Z</time>
      </trkpt>
      <trkpt lat="47.20773" lon="6.63605">
        <ele>486</ele>
        <time>2021-07-29T13:11:23Z</time>
      </trkpt>
      <trkpt lat="47.2077" lon="6.63611">
        <ele>485.8</ele>
        <time>2021-07-29T13:11:24Z</time>
      </trkpt>
      <trkpt lat="47.20768" lon="6.63616">
        <ele>485.8</ele>
        <time>2021-07-29T13:11:25Z</time>
      </trkpt>
      <trkpt lat="47.20765" lon="6.63622">
        <ele>485.8</ele>
        <time>2021-07-29T13:11:26Z</time>
      </trkpt>
      <trkpt lat="47.20763" lon="6.63627">
        <ele>485.4</ele>
        <time>2021-07-29T13:11:27Z</time>
      </trkpt>
      <trkpt lat="47.2076" lon="6.63633">
        <ele>485.4</ele>
        <time>2021-07-29T13:11:28Z</time>
      </trkpt>
      <trkpt lat="47.20758" lon="6.63639">
        <ele>485.4</ele>
        <time>2021-07-29T13:11:29Z</time>
      </trkpt>
      <trkpt lat="47.20755" lon="6.63644">
        <ele>485.2</ele>
        <time>2021-07-29T13:11:30Z</time>
      </trkpt>
      <trkpt lat="47.20752" lon="6.6365">
        <ele>485.2</ele>
        <time>2021-07-29T13:11:31Z</time>
      </trkpt>
      <trkpt lat="47.2075" lon="6.63656">
        <ele>485</ele>
        <time>2021-07-29T13:11:32Z</time>
      </trkpt>
      <trkpt lat="47.20748" lon="6.63663">
        <ele>485</ele>
        <time>2021-07-29T13:11:33Z</time>
      </trkpt>
      <trkpt lat="47.20745" lon="6.63669">
        <ele>484.8</ele>
        <time>2021-07-29T13:11:34Z</time>
      </trkpt>
      <trkpt lat="47.20742" lon="6.63675">
        <ele>484.8</ele>
        <time>2021-07-29T13:11:35Z</time>
      </trkpt>
      <trkpt lat="47.20739" lon="6.63681">
        <ele>484.8</ele>
        <time>2021-07-29T13:11:36Z</time>
      </trkpt>
      <trkpt lat="47.20736" lon="6.63688">
        <ele>484.8</ele>
        <time>2021-07-29T13:11:37Z</time>
      </trkpt>
      <trkpt lat="47.20733" lon="6.63694">
        <ele>484.8</ele>
        <time>2021-07-29T13:11:38Z</time>
      </trkpt>
      <trkpt lat="47.20731" lon="6.63701">
        <ele>484.6</ele>
        <time>2021-07-29T13:11:39Z</time>
      </trkpt>
      <trkpt lat="47.20727" lon="6.63708">
        <ele>484.8</ele>
        <time>2021-07-29T13:11:40Z</time>
      </trkpt>
      <trkpt lat="47.20724" lon="6.63714">
        <ele>484.6</ele>
        <time>2021-07-29T13:11:41Z</time>
      </trkpt>
      <trkpt lat="47.20721" lon="6.63721">
        <ele>484.4</ele>
        <time>2021-07-29T13:11:42Z</time>
      </trkpt>
      <trkpt lat="47.20718" lon="6.63728">
        <ele>484.4</ele>
        <time>2021-07-29T13:11:43Z</time>
      </trkpt>
      <trkpt lat="47.20715" lon="6.63734">
        <ele>484.2</ele>
        <time>2021-07-29T13:11:44Z</time>
      </trkpt>
      <trkpt lat="47.20712" lon="6.63741">
        <ele>484.2</ele>
        <time>2021-07-29T13:11:45Z</time>
      </trkpt>
      <trkpt lat="47.20709" lon="6.63748">
        <ele>484.2</ele>
        <time>2021-07-29T13:11:46Z</time>
      </trkpt>
      <trkpt lat="47.20706" lon="6.63754">
        <ele>484.2</ele>
        <time>2021-07-29T13:11:47Z</time>
      </trkpt>
      <trkpt lat="47.20703" lon="6.63761">
        <ele>484.2</ele>
        <time>2021-07-29T13:11:48Z</time>
      </trkpt>
      <trkpt lat="47.20699" lon="6.63768">
        <ele>484.2</ele>
        <time>2021-07-29T13:11:49Z</time>
      </trkpt>
      <trkpt lat="47.20696" lon="6.63775">
        <ele>484.2</ele>
        <time>2021-07-29T13:11:50Z</time>
      </trkpt>
      <trkpt lat="47.20693" lon="6.63782">
        <ele>484.2</ele>
        <time>2021-07-29T13:11:51Z</time>
      </trkpt>
      <trkpt lat="47.2069" lon="6.63789">
        <ele>484</ele>
        <time>2021-07-29T13:11:52Z</time>
      </trkpt>
      <trkpt lat="47.20687" lon="6.63796">
        <ele>484</ele>
        <time>2021-07-29T13:11:53Z</time>
      </trkpt>
      <trkpt lat="47.20684" lon="6.63804">
        <ele>484.2</ele>
        <time>2021-07-29T13:11:54Z</time>
      </trkpt>
      <trkpt lat="47.20681" lon="6.63811">
        <ele>484.2</ele>
        <time>2021-07-29T13:11:55Z</time>
      </trkpt>
      <trkpt lat="47.20678" lon="6.63818">
        <ele>484.2</ele>
        <time>2021-07-29T13:11:56Z</time>
      </trkpt>
      <trkpt lat="47.20676" lon="6.63826">
        <ele>484.2</ele>
        <time>2021-07-29T13:11:57Z</time>
      </trkpt>
      <trkpt lat="47.20674" lon="6.63834">
        <ele>484.2</ele>
        <time>2021-07-29T13:11:58Z</time>
      </trkpt>
      <trkpt lat="47.20672" lon="6.63842">
        <ele>484</ele>
        <time>2021-07-29T13:11:59Z</time>
      </trkpt>
      <trkpt lat="47.2067" lon="6.63851">
        <ele>484</ele>
        <time>2021-07-29T13:12:00Z</time>
      </trkpt>
      <trkpt lat="47.20668" lon="6.63859">
        <ele>484.2</ele>
        <time>2021-07-29T13:12:01Z</time>
      </trkpt>
      <trkpt lat="47.20667" lon="6.63867">
        <ele>484</ele>
        <time>2021-07-29T13:12:02Z</time>
      </trkpt>
      <trkpt lat="47.20666" lon="6.63876">
        <ele>484</ele>
        <time>2021-07-29T13:12:03Z</time>
      </trkpt>
      <trkpt lat="47.20665" lon="6.63884">
        <ele>484</ele>
        <time>2021-07-29T13:12:04Z</time>
      </trkpt>
      <trkpt lat="47.20665" lon="6.63893">
        <ele>484</ele>
        <time>2021-07-29T13:12:05Z</time>
      </trkpt>
      <trkpt lat="47.20665" lon="6.63901">
        <ele>484</ele>
        <time>2021-07-29T13:12:06Z</time>
      </trkpt>
      <trkpt lat="47.20665" lon="6.6391">
        <ele>484.2</ele>
        <time>2021-07-29T13:12:07Z</time>
      </trkpt>
      <trkpt lat="47.20665" lon="6.63918">
        <ele>484.2</ele>
        <time>2021-07-29T13:12:08Z</time>
      </trkpt>
      <trkpt lat="47.20666" lon="6.63927">
        <ele>484.2</ele>
        <time>2021-07-29T13:12:09Z</time>
      </trkpt>
      <trkpt lat="47.20667" lon="6.63935">
        <ele>484.2</ele>
        <time>2021-07-29T13:12:10Z</time>
      </trkpt>
      <trkpt lat="47.2067" lon="6.63943">
        <ele>484</ele>
        <time>2021-07-29T13:12:11Z</time>
      </trkpt>
      <trkpt lat="47.20672" lon="6.63951">
        <ele>484</ele>
        <time>2021-07-29T13:12:12Z</time>
      </trkpt>
      <trkpt lat="47.20674" lon="6.63959">
        <ele>484</ele>
        <time>2021-07-29T13:12:13Z</time>
      </trkpt>
      <trkpt lat="47.20677" lon="6.63966">
        <ele>484</ele>
        <time>2021-07-29T13:12:14Z</time>
      </trkpt>
      <trkpt lat="47.20681" lon="6.63973">
        <ele>484</ele>
        <time>2021-07-29T13:12:15Z</time>
      </trkpt>
      <trkpt lat="47.20684" lon="6.6398">
        <ele>484.2</ele>
        <time>2021-07-29T13:12:16Z</time>
      </trkpt>
      <trkpt lat="47.20688" lon="6.63986">
        <ele>484.2</ele>
        <time>2021-07-29T13:12:17Z</time>
      </trkpt>
      <trkpt lat="47.20692" lon="6.63993">
        <ele>484.2</ele>
        <time>2021-07-29T13:12:18Z</time>
      </trkpt>
      <trkpt lat="47.20696" lon="6.63999">
        <ele>484.2</ele>
        <time>2021-07-29T13:12:19Z</time>
      </trkpt>
      <trkpt lat="47.207" lon="6.64005">
        <ele>484.2</ele>
        <time>2021-07-29T13:12:20Z</time>
      </trkpt>
      <trkpt lat="47.20704" lon="6.64011">
        <ele>484.4</ele>
        <time>2021-07-29T13:12:21Z</time>
      </trkpt>
      <trkpt lat="47.20708" lon="6.64018">
        <ele>484.4</ele>
        <time>2021-07-29T13:12:22Z</time>
      </trkpt>
      <trkpt lat="47.20712" lon="6.64024">
        <ele>484.4</ele>
        <time>2021-07-29T13:12:23Z</time>
      </trkpt>
      <trkpt lat="47.20716" lon="6.6403">
        <ele>484.2</ele>
        <time>2021-07-29T13:12:24Z</time>
      </trkpt>
      <trkpt lat="47.20719" lon="6.64035">
        <ele>484.2</ele>
        <time>2021-07-29T13:12:25Z</time>
      </trkpt>
      <trkpt lat="47.20723" lon="6.64041">
        <ele>484.2</ele>
        <time>2021-07-29T13:12:26Z</time>
      </trkpt>
      <trkpt lat="47.20727" lon="6.64047">
        <ele>484.2</ele>
        <time>2021-07-29T13:12:27Z</time>
      </trkpt>
      <trkpt lat="47.20731" lon="6.64053">
        <ele>484.2</ele>
        <time>2021-07-29T13:12:28Z</time>
      </trkpt>
      <trkpt lat="47.20735" lon="6.64059">
        <ele>484.2</ele>
        <time>2021-07-29T13:12:29Z</time>
      </trkpt>
      <trkpt lat="47.20739" lon="6.64065">
        <ele>484.2</ele>
        <time>2021-07-29T13:12:30Z</time>
      </trkpt>
      <trkpt lat="47.20743" lon="6.64071">
        <ele>484.2</ele>
        <time>2021-07-29T13:12:31Z</time>
      </trkpt>
      <trkpt lat="47.20747" lon="6.64077">
        <ele>484.2</ele>
        <time>2021-07-29T13:12:32Z</time>
      </trkpt>
      <trkpt lat="47.20751" lon="6.64083">
        <ele>484</ele>
        <time>2021-07-29T13:12:33Z</time>
      </trkpt>
      <trkpt lat="47.20756" lon="6.64089">
        <ele>484</ele>
        <time>2021-07-29T13:12:34Z</time>
      </trkpt>
      <trkpt lat="47.20759" lon="6.64095">
        <ele>484</ele>
        <time>2021-07-29T13:12:35Z</time>
      </trkpt>
      <trkpt lat="47.20763" lon="6.641">
        <ele>484</ele>
        <time>2021-07-29T13:12:36Z</time>
      </trkpt>
      <trkpt lat="47.20767" lon="6.64106">
        <ele>483.8</ele>
        <time>2021-07-29T13:12:37Z</time>
      </trkpt>
      <trkpt lat="47.20771" lon="6.64112">
        <ele>483.8</ele>
        <time>2021-07-29T13:12:38Z</time>
      </trkpt>
      <trkpt lat="47.20775" lon="6.64118">
        <ele>483.8</ele>
        <time>2021-07-29T13:12:39Z</time>
      </trkpt>
      <trkpt lat="47.20779" lon="6.64124">
        <ele>483.8</ele>
        <time>2021-07-29T13:12:40Z</time>
      </trkpt>
      <trkpt lat="47.20783" lon="6.6413">
        <ele>483.6</ele>
        <time>2021-07-29T13:12:41Z</time>
      </trkpt>
      <trkpt lat="47.20786" lon="6.64136">
        <ele>483.8</ele>
        <time>2021-07-29T13:12:42Z</time>
      </trkpt>
      <trkpt lat="47.2079" lon="6.64142">
        <ele>483.8</ele>
        <time>2021-07-29T13:12:43Z</time>
      </trkpt>
      <trkpt lat="47.20795" lon="6.64148">
        <ele>483.6</ele>
        <time>2021-07-29T13:12:44Z</time>
      </trkpt>
      <trkpt lat="47.20798" lon="6.64154">
        <ele>483.6</ele>
        <time>2021-07-29T13:12:45Z</time>
      </trkpt>
      <trkpt lat="47.20802" lon="6.6416">
        <ele>483.6</ele>
        <time>2021-07-29T13:12:46Z</time>
      </trkpt>
      <trkpt lat="47.20805" lon="6.64166">
        <ele>483.4</ele>
        <time>2021-07-29T13:12:47Z</time>
      </trkpt>
      <trkpt lat="47.20809" lon="6.64172">
        <ele>483.4</ele>
        <time>2021-07-29T13:12:48Z</time>
      </trkpt>
      <trkpt lat="47.20813" lon="6.64177">
        <ele>483.4</ele>
        <time>2021-07-29T13:12:49Z</time>
      </trkpt>
      <trkpt lat="47.20816" lon="6.64184">
        <ele>483.4</ele>
        <time>2021-07-29T13:12:50Z</time>
      </trkpt>
      <trkpt lat="47.20819" lon="6.6419">
        <ele>483.4</ele>
        <time>2021-07-29T13:12:51Z</time>
      </trkpt>
      <trkpt lat="47.20823" lon="6.64197">
        <ele>483.4</ele>
        <time>2021-07-29T13:12:52Z</time>
      </trkpt>
      <trkpt lat="47.20826" lon="6.64203">
        <ele>483.4</ele>
        <time>2021-07-29T13:12:53Z</time>
      </trkpt>
      <trkpt lat="47.20829" lon="6.6421">
        <ele>483.4</ele>
        <time>2021-07-29T13:12:54Z</time>
      </trkpt>
      <trkpt lat="47.20832" lon="6.64217">
        <ele>483.4</ele>
        <time>2021-07-29T13:12:55Z</time>
      </trkpt>
      <trkpt lat="47.20835" lon="6.64223">
        <ele>483.4</ele>
        <time>2021-07-29T13:12:56Z</time>
      </trkpt>
      <trkpt lat="47.20838" lon="6.6423">
        <ele>483.4</ele>
        <time>2021-07-29T13:12:57Z</time>
      </trkpt>
      <trkpt lat="47.2084" lon="6.64237">
        <ele>483.2</ele>
        <time>2021-07-29T13:12:58Z</time>
      </trkpt>
      <trkpt lat="47.20843" lon="6.64244">
        <ele>483.2</ele>
        <time>2021-07-29T13:12:59Z</time>
      </trkpt>
      <trkpt lat="47.20846" lon="6.6425">
        <ele>483.2</ele>
        <time>2021-07-29T13:13:00Z</time>
      </trkpt>
      <trkpt lat="47.20849" lon="6.64257">
        <ele>483</ele>
        <time>2021-07-29T13:13:01Z</time>
      </trkpt>
      <trkpt lat="47.20852" lon="6.64263">
        <ele>483.2</ele>
        <time>2021-07-29T13:13:02Z</time>
      </trkpt>
      <trkpt lat="47.20854" lon="6.6427">
        <ele>483.2</ele>
        <time>2021-07-29T13:13:03Z</time>
      </trkpt>
      <trkpt lat="47.20857" lon="6.64277">
        <ele>483.4</ele>
        <time>2021-07-29T13:13:04Z</time>
      </trkpt>
      <trkpt lat="47.20859" lon="6.64284">
        <ele>483.4</ele>
        <time>2021-07-29T13:13:05Z</time>
      </trkpt>
      <trkpt lat="47.20861" lon="6.64291">
        <ele>483.2</ele>
        <time>2021-07-29T13:13:06Z</time>
      </trkpt>
      <trkpt lat="47.20863" lon="6.64298">
        <ele>483.4</ele>
        <time>2021-07-29T13:13:07Z</time>
      </trkpt>
      <trkpt lat="47.20866" lon="6.64304">
        <ele>483.2</ele>
        <time>2021-07-29T13:13:08Z</time>
      </trkpt>
      <trkpt lat="47.20868" lon="6.64311">
        <ele>483.2</ele>
        <time>2021-07-29T13:13:09Z</time>
      </trkpt>
      <trkpt lat="47.20869" lon="6.64317">
        <ele>483.2</ele>
        <time>2021-07-29T13:13:10Z</time>
      </trkpt>
      <trkpt lat="47.2087" lon="6.64324">
        <ele>483.2</ele>
        <time>2021-07-29T13:13:11Z</time>
      </trkpt>
      <trkpt lat="47.20872" lon="6.6433">
        <ele>483</ele>
        <time>2021-07-29T13:13:12Z</time>
      </trkpt>
      <trkpt lat="47.20873" lon="6.64337">
        <ele>483</ele>
        <time>2021-07-29T13:13:13Z</time>
      </trkpt>
      <trkpt lat="47.20874" lon="6.64344">
        <ele>483</ele>
        <time>2021-07-29T13:13:14Z</time>
      </trkpt>
      <trkpt lat="47.20874" lon="6.6435">
        <ele>483.2</ele>
        <time>2021-07-29T13:13:15Z</time>
      </trkpt>
      <trkpt lat="47.20875" lon="6.64357">
        <ele>483</ele>
        <time>2021-07-29T13:13:16Z</time>
      </trkpt>
      <trkpt lat="47.20875" lon="6.64364">
        <ele>483</ele>
        <time>2021-07-29T13:13:17Z</time>
      </trkpt>
      <trkpt lat="47.20875" lon="6.64371">
        <ele>483</ele>
        <time>2021-07-29T13:13:18Z</time>
      </trkpt>
      <trkpt lat="47.20876" lon="6.64379">
        <ele>483</ele>
        <time>2021-07-29T13:13:19Z</time>
      </trkpt>
      <trkpt lat="47.20876" lon="6.64386">
        <ele>483</ele>
        <time>2021-07-29T13:13:20Z</time>
      </trkpt>
      <trkpt lat="47.20876" lon="6.64393">
        <ele>483.2</ele>
        <time>2021-07-29T13:13:21Z</time>
      </trkpt>
      <trkpt lat="47.20876" lon="6.64399">
        <ele>483.2</ele>
        <time>2021-07-29T13:13:22Z</time>
      </trkpt>
      <trkpt lat="47.20876" lon="6.64406">
        <ele>483.2</ele>
        <time>2021-07-29T13:13:23Z</time>
      </trkpt>
      <trkpt lat="47.20876" lon="6.64413">
        <ele>483.2</ele>
        <time>2021-07-29T13:13:24Z</time>
      </trkpt>
      <trkpt lat="47.20875" lon="6.6442">
        <ele>483.2</ele>
        <time>2021-07-29T13:13:25Z</time>
      </trkpt>
      <trkpt lat="47.20875" lon="6.64427">
        <ele>483.4</ele>
        <time>2021-07-29T13:13:26Z</time>
      </trkpt>
      <trkpt lat="47.20875" lon="6.64434">
        <ele>483.4</ele>
        <time>2021-07-29T13:13:27Z</time>
      </trkpt>
      <trkpt lat="47.20875" lon="6.64441">
        <ele>483.4</ele>
        <time>2021-07-29T13:13:28Z</time>
      </trkpt>
      <trkpt lat="47.20875" lon="6.64447">
        <ele>483.4</ele>
        <time>2021-07-29T13:13:29Z</time>
      </trkpt>
      <trkpt lat="47.20874" lon="6.64454">
        <ele>483.4</ele>
        <time>2021-07-29T13:13:30Z</time>
      </trkpt>
      <trkpt lat="47.20874" lon="6.64461">
        <ele>483.6</ele>
        <time>2021-07-29T13:13:31Z</time>
      </trkpt>
      <trkpt lat="47.20874" lon="6.64467">
        <ele>483.6</ele>
        <time>2021-07-29T13:13:32Z</time>
      </trkpt>
      <trkpt lat="47.20873" lon="6.64474">
        <ele>483.6</ele>
        <time>2021-07-29T13:13:33Z</time>
      </trkpt>
      <trkpt lat="47.20873" lon="6.6448">
        <ele>483.8</ele>
        <time>2021-07-29T13:13:34Z</time>
      </trkpt>
      <trkpt lat="47.20873" lon="6.64486">
        <ele>483.8</ele>
        <time>2021-07-29T13:13:35Z</time>
      </trkpt>
      <trkpt lat="47.20873" lon="6.64493">
        <ele>483.8</ele>
        <time>2021-07-29T13:13:36Z</time>
      </trkpt>
      <trkpt lat="47.20873" lon="6.64499">
        <ele>484</ele>
        <time>2021-07-29T13:13:37Z</time>
      </trkpt>
      <trkpt lat="47.20872" lon="6.64506">
        <ele>484</ele>
        <time>2021-07-29T13:13:38Z</time>
      </trkpt>
      <trkpt lat="47.20872" lon="6.64512">
        <ele>484</ele>
        <time>2021-07-29T13:13:39Z</time>
      </trkpt>
      <trkpt lat="47.20871" lon="6.64518">
        <ele>484.2</ele>
        <time>2021-07-29T13:13:40Z</time>
      </trkpt>
      <trkpt lat="47.20871" lon="6.64524">
        <ele>484.2</ele>
        <time>2021-07-29T13:13:41Z</time>
      </trkpt>
      <trkpt lat="47.2087" lon="6.64529">
        <ele>484.2</ele>
        <time>2021-07-29T13:13:42Z</time>
      </trkpt>
      <trkpt lat="47.2087" lon="6.64535">
        <ele>484.2</ele>
        <time>2021-07-29T13:13:43Z</time>
      </trkpt>
      <trkpt lat="47.2087" lon="6.64541">
        <ele>484.2</ele>
        <time>2021-07-29T13:13:44Z</time>
      </trkpt>
      <trkpt lat="47.20869" lon="6.64547">
        <ele>484.2</ele>
        <time>2021-07-29T13:13:45Z</time>
      </trkpt>
      <trkpt lat="47.20869" lon="6.64553">
        <ele>484.4</ele>
        <time>2021-07-29T13:13:46Z</time>
      </trkpt>
      <trkpt lat="47.20869" lon="6.64559">
        <ele>484.4</ele>
        <time>2021-07-29T13:13:47Z</time>
      </trkpt>
      <trkpt lat="47.20868" lon="6.64565">
        <ele>484.4</ele>
        <time>2021-07-29T13:13:48Z</time>
      </trkpt>
      <trkpt lat="47.20867" lon="6.6457">
        <ele>484.4</ele>
        <time>2021-07-29T13:13:49Z</time>
      </trkpt>
      <trkpt lat="47.20867" lon="6.64577">
        <ele>484.4</ele>
        <time>2021-07-29T13:13:50Z</time>
      </trkpt>
      <trkpt lat="47.20865" lon="6.64583">
        <ele>484.4</ele>
        <time>2021-07-29T13:13:51Z</time>
      </trkpt>
      <trkpt lat="47.20865" lon="6.64589">
        <ele>484.4</ele>
        <time>2021-07-29T13:13:52Z</time>
      </trkpt>
      <trkpt lat="47.20864" lon="6.64596">
        <ele>484.4</ele>
        <time>2021-07-29T13:13:53Z</time>
      </trkpt>
      <trkpt lat="47.20863" lon="6.64603">
        <ele>484.4</ele>
        <time>2021-07-29T13:13:54Z</time>
      </trkpt>
      <trkpt lat="47.20863" lon="6.64609">
        <ele>484.4</ele>
        <time>2021-07-29T13:13:55Z</time>
      </trkpt>
      <trkpt lat="47.20862" lon="6.64616">
        <ele>484.4</ele>
        <time>2021-07-29T13:13:56Z</time>
      </trkpt>
      <trkpt lat="47.20861" lon="6.64623">
        <ele>484.6</ele>
        <time>2021-07-29T13:13:57Z</time>
      </trkpt>
      <trkpt lat="47.20861" lon="6.64629">
        <ele>484.6</ele>
        <time>2021-07-29T13:13:58Z</time>
      </trkpt>
      <trkpt lat="47.2086" lon="6.64636">
        <ele>484.6</ele>
        <time>2021-07-29T13:13:59Z</time>
      </trkpt>
      <trkpt lat="47.2086" lon="6.64642">
        <ele>484.6</ele>
        <time>2021-07-29T13:14:00Z</time>
      </trkpt>
      <trkpt lat="47.2086" lon="6.64649">
        <ele>484.8</ele>
        <time>2021-07-29T13:14:01Z</time>
      </trkpt>
      <trkpt lat="47.20859" lon="6.64655">
        <ele>484.8</ele>
        <time>2021-07-29T13:14:02Z</time>
      </trkpt>
      <trkpt lat="47.20858" lon="6.64662">
        <ele>484.8</ele>
        <time>2021-07-29T13:14:03Z</time>
      </trkpt>
      <trkpt lat="47.20858" lon="6.64669">
        <ele>484.8</ele>
        <time>2021-07-29T13:14:04Z</time>
      </trkpt>
      <trkpt lat="47.20857" lon="6.64675">
        <ele>484.8</ele>
        <time>2021-07-29T13:14:05Z</time>
      </trkpt>
      <trkpt lat="47.20856" lon="6.64683">
        <ele>484.8</ele>
        <time>2021-07-29T13:14:06Z</time>
      </trkpt>
      <trkpt lat="47.20856" lon="6.64689">
        <ele>484.8</ele>
        <time>2021-07-29T13:14:07Z</time>
      </trkpt>
      <trkpt lat="47.20855" lon="6.64697">
        <ele>484.8</ele>
        <time>2021-07-29T13:14:08Z</time>
      </trkpt>
      <trkpt lat="47.20854" lon="6.64704">
        <ele>484.8</ele>
        <time>2021-07-29T13:14:09Z</time>
      </trkpt>
      <trkpt lat="47.20854" lon="6.64711">
        <ele>485</ele>
        <time>2021-07-29T13:14:10Z</time>
      </trkpt>
      <trkpt lat="47.20853" lon="6.64718">
        <ele>484.8</ele>
        <time>2021-07-29T13:14:11Z</time>
      </trkpt>
      <trkpt lat="47.20853" lon="6.64725">
        <ele>484.6</ele>
        <time>2021-07-29T13:14:12Z</time>
      </trkpt>
      <trkpt lat="47.20853" lon="6.64733">
        <ele>484.8</ele>
        <time>2021-07-29T13:14:13Z</time>
      </trkpt>
      <trkpt lat="47.20852" lon="6.6474">
        <ele>484.8</ele>
        <time>2021-07-29T13:14:14Z</time>
      </trkpt>
      <trkpt lat="47.20851" lon="6.64748">
        <ele>484.8</ele>
        <time>2021-07-29T13:14:15Z</time>
      </trkpt>
      <trkpt lat="47.2085" lon="6.64755">
        <ele>484.8</ele>
        <time>2021-07-29T13:14:16Z</time>
      </trkpt>
      <trkpt lat="47.2085" lon="6.64762">
        <ele>484.8</ele>
        <time>2021-07-29T13:14:17Z</time>
      </trkpt>
      <trkpt lat="47.20849" lon="6.64769">
        <ele>484.8</ele>
        <time>2021-07-29T13:14:18Z</time>
      </trkpt>
      <trkpt lat="47.20849" lon="6.64776">
        <ele>484.6</ele>
        <time>2021-07-29T13:14:19Z</time>
      </trkpt>
      <trkpt lat="47.20848" lon="6.64782">
        <ele>484.6</ele>
        <time>2021-07-29T13:14:20Z</time>
      </trkpt>
      <trkpt lat="47.20848" lon="6.64789">
        <ele>484.6</ele>
        <time>2021-07-29T13:14:21Z</time>
      </trkpt>
      <trkpt lat="47.20847" lon="6.64796">
        <ele>484.6</ele>
        <time>2021-07-29T13:14:22Z</time>
      </trkpt>
      <trkpt lat="47.20847" lon="6.64804">
        <ele>484.4</ele>
        <time>2021-07-29T13:14:23Z</time>
      </trkpt>
      <trkpt lat="47.20848" lon="6.64813">
        <ele>484.4</ele>
        <time>2021-07-29T13:14:24Z</time>
      </trkpt>
      <trkpt lat="47.20848" lon="6.64821">
        <ele>484.4</ele>
        <time>2021-07-29T13:14:25Z</time>
      </trkpt>
      <trkpt lat="47.20848" lon="6.64829">
        <ele>484.4</ele>
        <time>2021-07-29T13:14:26Z</time>
      </trkpt>
      <trkpt lat="47.20848" lon="6.64837">
        <ele>484.4</ele>
        <time>2021-07-29T13:14:27Z</time>
      </trkpt>
      <trkpt lat="47.20848" lon="6.64844">
        <ele>484.2</ele>
        <time>2021-07-29T13:14:28Z</time>
      </trkpt>
      <trkpt lat="47.20848" lon="6.64852">
        <ele>484.2</ele>
        <time>2021-07-29T13:14:29Z</time>
      </trkpt>
      <trkpt lat="47.20847" lon="6.64859">
        <ele>484.2</ele>
        <time>2021-07-29T13:14:30Z</time>
      </trkpt>
      <trkpt lat="47.20847" lon="6.64867">
        <ele>484.2</ele>
        <time>2021-07-29T13:14:31Z</time>
      </trkpt>
      <trkpt lat="47.20847" lon="6.64875">
        <ele>484.2</ele>
        <time>2021-07-29T13:14:32Z</time>
      </trkpt>
      <trkpt lat="47.20847" lon="6.64881">
        <ele>484</ele>
        <time>2021-07-29T13:14:33Z</time>
      </trkpt>
      <trkpt lat="47.20848" lon="6.64888">
        <ele>484</ele>
        <time>2021-07-29T13:14:34Z</time>
      </trkpt>
      <trkpt lat="47.20848" lon="6.64896">
        <ele>484</ele>
        <time>2021-07-29T13:14:35Z</time>
      </trkpt>
      <trkpt lat="47.20849" lon="6.64904">
        <ele>484</ele>
        <time>2021-07-29T13:14:36Z</time>
      </trkpt>
      <trkpt lat="47.20849" lon="6.64912">
        <ele>484</ele>
        <time>2021-07-29T13:14:37Z</time>
      </trkpt>
      <trkpt lat="47.2085" lon="6.6492">
        <ele>484.2</ele>
        <time>2021-07-29T13:14:38Z</time>
      </trkpt>
      <trkpt lat="47.20851" lon="6.64928">
        <ele>484.2</ele>
        <time>2021-07-29T13:14:39Z</time>
      </trkpt>
      <trkpt lat="47.20851" lon="6.64935">
        <ele>484.2</ele>
        <time>2021-07-29T13:14:40Z</time>
      </trkpt>
      <trkpt lat="47.20852" lon="6.64943">
        <ele>484</ele>
        <time>2021-07-29T13:14:41Z</time>
      </trkpt>
      <trkpt lat="47.20852" lon="6.6495">
        <ele>484</ele>
        <time>2021-07-29T13:14:42Z</time>
      </trkpt>
      <trkpt lat="47.20852" lon="6.64958">
        <ele>484</ele>
        <time>2021-07-29T13:14:43Z</time>
      </trkpt>
      <trkpt lat="47.20853" lon="6.64966">
        <ele>483.8</ele>
        <time>2021-07-29T13:14:44Z</time>
      </trkpt>
      <trkpt lat="47.20853" lon="6.64974">
        <ele>483.8</ele>
        <time>2021-07-29T13:14:45Z</time>
      </trkpt>
      <trkpt lat="47.20854" lon="6.64982">
        <ele>483.8</ele>
        <time>2021-07-29T13:14:46Z</time>
      </trkpt>
      <trkpt lat="47.20855" lon="6.6499">
        <ele>483.6</ele>
        <time>2021-07-29T13:14:47Z</time>
      </trkpt>
      <trkpt lat="47.20856" lon="6.64999">
        <ele>483.8</ele>
        <time>2021-07-29T13:14:48Z</time>
      </trkpt>
      <trkpt lat="47.20857" lon="6.65006">
        <ele>483.8</ele>
        <time>2021-07-29T13:14:49Z</time>
      </trkpt>
      <trkpt lat="47.20857" lon="6.65013">
        <ele>483.8</ele>
        <time>2021-07-29T13:14:50Z</time>
      </trkpt>
      <trkpt lat="47.20857" lon="6.65021">
        <ele>483.8</ele>
        <time>2021-07-29T13:14:51Z</time>
      </trkpt>
      <trkpt lat="47.20858" lon="6.65029">
        <ele>483.6</ele>
        <time>2021-07-29T13:14:52Z</time>
      </trkpt>
      <trkpt lat="47.20859" lon="6.65037">
        <ele>483.6</ele>
        <time>2021-07-29T13:14:53Z</time>
      </trkpt>
      <trkpt lat="47.2086" lon="6.65045">
        <ele>483.6</ele>
        <time>2021-07-29T13:14:54Z</time>
      </trkpt>
      <trkpt lat="47.20861" lon="6.65053">
        <ele>483.4</ele>
        <time>2021-07-29T13:14:55Z</time>
      </trkpt>
      <trkpt lat="47.20862" lon="6.6506">
        <ele>483.4</ele>
        <time>2021-07-29T13:14:56Z</time>
      </trkpt>
      <trkpt lat="47.20863" lon="6.65069">
        <ele>483.4</ele>
        <time>2021-07-29T13:14:57Z</time>
      </trkpt>
      <trkpt lat="47.20863" lon="6.65077">
        <ele>483.4</ele>
        <time>2021-07-29T13:14:58Z</time>
      </trkpt>
      <trkpt lat="47.20864" lon="6.65086">
        <ele>483.4</ele>
        <time>2021-07-29T13:14:59Z</time>
      </trkpt>
      <trkpt lat="47.20864" lon="6.65093">
        <ele>483.6</ele>
        <time>2021-07-29T13:15:00Z</time>
      </trkpt>
      <trkpt lat="47.20867" lon="6.65102">
        <ele>483.6</ele>
        <time>2021-07-29T13:15:01Z</time>
      </trkpt>
      <trkpt lat="47.20868" lon="6.6511">
        <ele>483.6</ele>
        <time>2021-07-29T13:15:02Z</time>
      </trkpt>
      <trkpt lat="47.2087" lon="6.65118">
        <ele>483.6</ele>
        <time>2021-07-29T13:15:03Z</time>
      </trkpt>
      <trkpt lat="47.20872" lon="6.65124">
        <ele>483.8</ele>
        <time>2021-07-29T13:15:04Z</time>
      </trkpt>
      <trkpt lat="47.20873" lon="6.6513">
        <ele>484</ele>
        <time>2021-07-29T13:15:05Z</time>
      </trkpt>
      <trkpt lat="47.20876" lon="6.65137">
        <ele>484</ele>
        <time>2021-07-29T13:15:06Z</time>
      </trkpt>
      <trkpt lat="47.2088" lon="6.65144">
        <ele>484</ele>
        <time>2021-07-29T13:15:07Z</time>
      </trkpt>
      <trkpt lat="47.20883" lon="6.65151">
        <ele>484.2</ele>
        <time>2021-07-29T13:15:08Z</time>
      </trkpt>
      <trkpt lat="47.20887" lon="6.65158">
        <ele>484.2</ele>
        <time>2021-07-29T13:15:09Z</time>
      </trkpt>
      <trkpt lat="47.2089" lon="6.65164">
        <ele>484.2</ele>
        <time>2021-07-29T13:15:10Z</time>
      </trkpt>
      <trkpt lat="47.20894" lon="6.65169">
        <ele>484.2</ele>
        <time>2021-07-29T13:15:11Z</time>
      </trkpt>
      <trkpt lat="47.20898" lon="6.65175">
        <ele>484.2</ele>
        <time>2021-07-29T13:15:12Z</time>
      </trkpt>
      <trkpt lat="47.20902" lon="6.6518">
        <ele>484.2</ele>
        <time>2021-07-29T13:15:13Z</time>
      </trkpt>
      <trkpt lat="47.20906" lon="6.65185">
        <ele>484.4</ele>
        <time>2021-07-29T13:15:14Z</time>
      </trkpt>
      <trkpt lat="47.2091" lon="6.6519">
        <ele>484.6</ele>
        <time>2021-07-29T13:15:15Z</time>
      </trkpt>
      <trkpt lat="47.20914" lon="6.65194">
        <ele>484.6</ele>
        <time>2021-07-29T13:15:16Z</time>
      </trkpt>
      <trkpt lat="47.20917" lon="6.65199">
        <ele>484.8</ele>
        <time>2021-07-29T13:15:17Z</time>
      </trkpt>
      <trkpt lat="47.2092" lon="6.65204">
        <ele>484.8</ele>
        <time>2021-07-29T13:15:18Z</time>
      </trkpt>
      <trkpt lat="47.20924" lon="6.65208">
        <ele>485</ele>
        <time>2021-07-29T13:15:19Z</time>
      </trkpt>
      <trkpt lat="47.20927" lon="6.65212">
        <ele>485</ele>
        <time>2021-07-29T13:15:20Z</time>
      </trkpt>
      <trkpt lat="47.2093" lon="6.65216">
        <ele>485.2</ele>
        <time>2021-07-29T13:15:21Z</time>
      </trkpt>
      <trkpt lat="47.20933" lon="6.6522">
        <ele>485.4</ele>
        <time>2021-07-29T13:15:22Z</time>
      </trkpt>
      <trkpt lat="47.20936" lon="6.65224">
        <ele>485.4</ele>
        <time>2021-07-29T13:15:23Z</time>
      </trkpt>
      <trkpt lat="47.20939" lon="6.65227">
        <ele>485.6</ele>
        <time>2021-07-29T13:15:24Z</time>
      </trkpt>
      <trkpt lat="47.20942" lon="6.65231">
        <ele>485.6</ele>
        <time>2021-07-29T13:15:25Z</time>
      </trkpt>
      <trkpt lat="47.20945" lon="6.65234">
        <ele>485.8</ele>
        <time>2021-07-29T13:15:26Z</time>
      </trkpt>
      <trkpt lat="47.20948" lon="6.65238">
        <ele>485.8</ele>
        <time>2021-07-29T13:15:27Z</time>
      </trkpt>
      <trkpt lat="47.20952" lon="6.65241">
        <ele>486</ele>
        <time>2021-07-29T13:15:28Z</time>
      </trkpt>
      <trkpt lat="47.20955" lon="6.65244">
        <ele>486</ele>
        <time>2021-07-29T13:15:29Z</time>
      </trkpt>
      <trkpt lat="47.20958" lon="6.65247">
        <ele>486.2</ele>
        <time>2021-07-29T13:15:30Z</time>
      </trkpt>
      <trkpt lat="47.20961" lon="6.65249">
        <ele>486.2</ele>
        <time>2021-07-29T13:15:31Z</time>
      </trkpt>
      <trkpt lat="47.20965" lon="6.65252">
        <ele>486.4</ele>
        <time>2021-07-29T13:15:32Z</time>
      </trkpt>
      <trkpt lat="47.20968" lon="6.65255">
        <ele>486.4</ele>
        <time>2021-07-29T13:15:33Z</time>
      </trkpt>
      <trkpt lat="47.20971" lon="6.65257">
        <ele>486.4</ele>
        <time>2021-07-29T13:15:34Z</time>
      </trkpt>
      <trkpt lat="47.20974" lon="6.65261">
        <ele>486.4</ele>
        <time>2021-07-29T13:15:35Z</time>
      </trkpt>
      <trkpt lat="47.20978" lon="6.65263">
        <ele>486.6</ele>
        <time>2021-07-29T13:15:36Z</time>
      </trkpt>
      <trkpt lat="47.20981" lon="6.65266">
        <ele>486.6</ele>
        <time>2021-07-29T13:15:37Z</time>
      </trkpt>
      <trkpt lat="47.20984" lon="6.6527">
        <ele>486.6</ele>
        <time>2021-07-29T13:15:38Z</time>
      </trkpt>
      <trkpt lat="47.20987" lon="6.65274">
        <ele>486.6</ele>
        <time>2021-07-29T13:15:39Z</time>
      </trkpt>
      <trkpt lat="47.2099" lon="6.65279">
        <ele>486.6</ele>
        <time>2021-07-29T13:15:40Z</time>
      </trkpt>
      <trkpt lat="47.20993" lon="6.65283">
        <ele>486.6</ele>
        <time>2021-07-29T13:15:41Z</time>
      </trkpt>
      <trkpt lat="47.20996" lon="6.65288">
        <ele>486.8</ele>
        <time>2021-07-29T13:15:42Z</time>
      </trkpt>
      <trkpt lat="47.20998" lon="6.65293">
        <ele>486.8</ele>
        <time>2021-07-29T13:15:43Z</time>
      </trkpt>
      <trkpt lat="47.21001" lon="6.65297">
        <ele>487</ele>
        <time>2021-07-29T13:15:44Z</time>
      </trkpt>
      <trkpt lat="47.21003" lon="6.65302">
        <ele>487</ele>
        <time>2021-07-29T13:15:45Z</time>
      </trkpt>
      <trkpt lat="47.21006" lon="6.65306">
        <ele>487</ele>
        <time>2021-07-29T13:15:46Z</time>
      </trkpt>
      <trkpt lat="47.21008" lon="6.65311">
        <ele>487</ele>
        <time>2021-07-29T13:15:47Z</time>
      </trkpt>
      <trkpt lat="47.2101" lon="6.65316">
        <ele>487</ele>
        <time>2021-07-29T13:15:48Z</time>
      </trkpt>
      <trkpt lat="47.21012" lon="6.65321">
        <ele>487</ele>
        <time>2021-07-29T13:15:49Z</time>
      </trkpt>
      <trkpt lat="47.21015" lon="6.65325">
        <ele>487.2</ele>
        <time>2021-07-29T13:15:50Z</time>
      </trkpt>
      <trkpt lat="47.21018" lon="6.65326">
        <ele>487.4</ele>
        <time>2021-07-29T13:15:51Z</time>
      </trkpt>
      <trkpt lat="47.2102" lon="6.65325">
        <ele>487</ele>
        <time>2021-07-29T13:15:52Z</time>
      </trkpt>
      <trkpt lat="47.21022" lon="6.65322">
        <ele>486.8</ele>
        <time>2021-07-29T13:15:53Z</time>
      </trkpt>
      <trkpt lat="47.21024" lon="6.65319">
        <ele>486.8</ele>
        <time>2021-07-29T13:15:54Z</time>
      </trkpt>
      <trkpt lat="47.21025" lon="6.65316">
        <ele>487</ele>
        <time>2021-07-29T13:15:55Z</time>
      </trkpt>
      <trkpt lat="47.21026" lon="6.65313">
        <ele>487</ele>
        <time>2021-07-29T13:15:56Z</time>
      </trkpt>
      <trkpt lat="47.21027" lon="6.65311">
        <ele>487</ele>
        <time>2021-07-29T13:15:57Z</time>
      </trkpt>
      <trkpt lat="47.21028" lon="6.65309">
        <ele>487</ele>
        <time>2021-07-29T13:15:58Z</time>
      </trkpt>
      <trkpt lat="47.21029" lon="6.65307">
        <ele>487.2</ele>
        <time>2021-07-29T13:15:59Z</time>
      </trkpt>
      <trkpt lat="47.21031" lon="6.65306">
        <ele>487.2</ele>
        <time>2021-07-29T13:16:00Z</time>
      </trkpt>
      <trkpt lat="47.21032" lon="6.65306">
        <ele>487.2</ele>
        <time>2021-07-29T13:16:01Z</time>
      </trkpt>
      <trkpt lat="47.21032" lon="6.65306">
        <ele>487.2</ele>
        <time>2021-07-29T13:16:02Z</time>
      </trkpt>
      <trkpt lat="47.21033" lon="6.65306">
        <ele>487</ele>
        <time>2021-07-29T13:16:03Z</time>
      </trkpt>
      <trkpt lat="47.21033" lon="6.65305">
        <ele>487</ele>
        <time>2021-07-29T13:16:04Z</time>
      </trkpt>
      <trkpt lat="47.21033" lon="6.65306">
        <ele>487</ele>
        <time>2021-07-29T13:16:05Z</time>
      </trkpt>
      <trkpt lat="47.21033" lon="6.65306">
        <ele>487</ele>
        <time>2021-07-29T13:16:06Z</time>
      </trkpt>
      <trkpt lat="47.21033" lon="6.65306">
        <ele>487</ele>
        <time>2021-07-29T13:16:07Z</time>
      </trkpt>
      <trkpt lat="47.21033" lon="6.65306">
        <ele>487</ele>
        <time>2021-07-29T13:16:08Z</time>
      </trkpt>
      <trkpt lat="47.21033" lon="6.65306">
        <ele>487</ele>
        <time>2021-07-29T13:16:09Z</time>
      </trkpt>
      <trkpt lat="47.21026" lon="6.65334">
        <ele>487.8</ele>
        <time>2021-07-29T13:22:31Z</time>
      </trkpt>
      <trkpt lat="47.21025" lon="6.65336">
        <ele>487.8</ele>
        <time>2021-07-29T13:22:32Z</time>
      </trkpt>
      <trkpt lat="47.21024" lon="6.65338">
        <ele>487.8</ele>
        <time>2021-07-29T13:22:33Z</time>
      </trkpt>
      <trkpt lat="47.21023" lon="6.65341">
        <ele>487.8</ele>
        <time>2021-07-29T13:22:34Z</time>
      </trkpt>
      <trkpt lat="47.21022" lon="6.65344">
        <ele>487.8</ele>
        <time>2021-07-29T13:22:35Z</time>
      </trkpt>
      <trkpt lat="47.21023" lon="6.65347">
        <ele>487.8</ele>
        <time>2021-07-29T13:22:36Z</time>
      </trkpt>
      <trkpt lat="47.21023" lon="6.65351">
        <ele>487.6</ele>
        <time>2021-07-29T13:22:37Z</time>
      </trkpt>
      <trkpt lat="47.21024" lon="6.65354">
        <ele>487.6</ele>
        <time>2021-07-29T13:22:38Z</time>
      </trkpt>
      <trkpt lat="47.21025" lon="6.65358">
        <ele>487.4</ele>
        <time>2021-07-29T13:22:39Z</time>
      </trkpt>
      <trkpt lat="47.21025" lon="6.65362">
        <ele>487.2</ele>
        <time>2021-07-29T13:22:40Z</time>
      </trkpt>
      <trkpt lat="47.21026" lon="6.65366">
        <ele>487</ele>
        <time>2021-07-29T13:22:41Z</time>
      </trkpt>
      <trkpt lat="47.21027" lon="6.6537">
        <ele>487</ele>
        <time>2021-07-29T13:22:42Z</time>
      </trkpt>
      <trkpt lat="47.21027" lon="6.65374">
        <ele>487</ele>
        <time>2021-07-29T13:22:43Z</time>
      </trkpt>
      <trkpt lat="47.21027" lon="6.65379">
        <ele>486.8</ele>
        <time>2021-07-29T13:22:44Z</time>
      </trkpt>
      <trkpt lat="47.21028" lon="6.65383">
        <ele>486.8</ele>
        <time>2021-07-29T13:22:45Z</time>
      </trkpt>
      <trkpt lat="47.21028" lon="6.65388">
        <ele>486.6</ele>
        <time>2021-07-29T13:22:46Z</time>
      </trkpt>
      <trkpt lat="47.21029" lon="6.65393">
        <ele>486.6</ele>
        <time>2021-07-29T13:22:47Z</time>
      </trkpt>
      <trkpt lat="47.21029" lon="6.65397">
        <ele>486.4</ele>
        <time>2021-07-29T13:22:48Z</time>
      </trkpt>
      <trkpt lat="47.2103" lon="6.65402">
        <ele>486.4</ele>
        <time>2021-07-29T13:22:49Z</time>
      </trkpt>
      <trkpt lat="47.2103" lon="6.65407">
        <ele>486.4</ele>
        <time>2021-07-29T13:22:50Z</time>
      </trkpt>
      <trkpt lat="47.21031" lon="6.65413">
        <ele>486.2</ele>
        <time>2021-07-29T13:22:51Z</time>
      </trkpt>
      <trkpt lat="47.21032" lon="6.65418">
        <ele>486.2</ele>
        <time>2021-07-29T13:22:52Z</time>
      </trkpt>
      <trkpt lat="47.21032" lon="6.65424">
        <ele>486.2</ele>
        <time>2021-07-29T13:22:53Z</time>
      </trkpt>
      <trkpt lat="47.21033" lon="6.6543">
        <ele>486</ele>
        <time>2021-07-29T13:22:54Z</time>
      </trkpt>
      <trkpt lat="47.21034" lon="6.65437">
        <ele>486</ele>
        <time>2021-07-29T13:22:55Z</time>
      </trkpt>
      <trkpt lat="47.21033" lon="6.65444">
        <ele>486</ele>
        <time>2021-07-29T13:22:56Z</time>
      </trkpt>
      <trkpt lat="47.21034" lon="6.65452">
        <ele>485.8</ele>
        <time>2021-07-29T13:22:57Z</time>
      </trkpt>
      <trkpt lat="47.21035" lon="6.65459">
        <ele>485.6</ele>
        <time>2021-07-29T13:22:58Z</time>
      </trkpt>
      <trkpt lat="47.21035" lon="6.65466">
        <ele>485.6</ele>
        <time>2021-07-29T13:22:59Z</time>
      </trkpt>
      <trkpt lat="47.21036" lon="6.65473">
        <ele>485.4</ele>
        <time>2021-07-29T13:23:00Z</time>
      </trkpt>
      <trkpt lat="47.21036" lon="6.6548">
        <ele>485.4</ele>
        <time>2021-07-29T13:23:01Z</time>
      </trkpt>
      <trkpt lat="47.21037" lon="6.65488">
        <ele>485.4</ele>
        <time>2021-07-29T13:23:02Z</time>
      </trkpt>
      <trkpt lat="47.21036" lon="6.65495">
        <ele>485.4</ele>
        <time>2021-07-29T13:23:03Z</time>
      </trkpt>
      <trkpt lat="47.21037" lon="6.65503">
        <ele>485.2</ele>
        <time>2021-07-29T13:23:04Z</time>
      </trkpt>
      <trkpt lat="47.21038" lon="6.65511">
        <ele>485.2</ele>
        <time>2021-07-29T13:23:05Z</time>
      </trkpt>
      <trkpt lat="47.21039" lon="6.65518">
        <ele>485.2</ele>
        <time>2021-07-29T13:23:06Z</time>
      </trkpt>
      <trkpt lat="47.21041" lon="6.65526">
        <ele>485</ele>
        <time>2021-07-29T13:23:07Z</time>
      </trkpt>
      <trkpt lat="47.21044" lon="6.65535">
        <ele>485</ele>
        <time>2021-07-29T13:23:08Z</time>
      </trkpt>
      <trkpt lat="47.21046" lon="6.65542">
        <ele>484.8</ele>
        <time>2021-07-29T13:23:09Z</time>
      </trkpt>
      <trkpt lat="47.21049" lon="6.6555">
        <ele>484.8</ele>
        <time>2021-07-29T13:23:10Z</time>
      </trkpt>
      <trkpt lat="47.21053" lon="6.65558">
        <ele>484.8</ele>
        <time>2021-07-29T13:23:11Z</time>
      </trkpt>
      <trkpt lat="47.21057" lon="6.65565">
        <ele>484.6</ele>
        <time>2021-07-29T13:23:12Z</time>
      </trkpt>
      <trkpt lat="47.21061" lon="6.65571">
        <ele>484.4</ele>
        <time>2021-07-29T13:23:13Z</time>
      </trkpt>
      <trkpt lat="47.21066" lon="6.65577">
        <ele>484.4</ele>
        <time>2021-07-29T13:23:14Z</time>
      </trkpt>
      <trkpt lat="47.21071" lon="6.65584">
        <ele>484.2</ele>
        <time>2021-07-29T13:23:15Z</time>
      </trkpt>
      <trkpt lat="47.21076" lon="6.6559">
        <ele>484</ele>
        <time>2021-07-29T13:23:16Z</time>
      </trkpt>
      <trkpt lat="47.21082" lon="6.65597">
        <ele>484</ele>
        <time>2021-07-29T13:23:17Z</time>
      </trkpt>
      <trkpt lat="47.21087" lon="6.65604">
        <ele>483.8</ele>
        <time>2021-07-29T13:23:18Z</time>
      </trkpt>
      <trkpt lat="47.21092" lon="6.65611">
        <ele>483.6</ele>
        <time>2021-07-29T13:23:19Z</time>
      </trkpt>
      <trkpt lat="47.21097" lon="6.65618">
        <ele>483.4</ele>
        <time>2021-07-29T13:23:20Z</time>
      </trkpt>
      <trkpt lat="47.21102" lon="6.65626">
        <ele>483.2</ele>
        <time>2021-07-29T13:23:21Z</time>
      </trkpt>
      <trkpt lat="47.21107" lon="6.65634">
        <ele>483.2</ele>
        <time>2021-07-29T13:23:22Z</time>
      </trkpt>
      <trkpt lat="47.21112" lon="6.65642">
        <ele>483</ele>
        <time>2021-07-29T13:23:23Z</time>
      </trkpt>
      <trkpt lat="47.21116" lon="6.65651">
        <ele>482.8</ele>
        <time>2021-07-29T13:23:24Z</time>
      </trkpt>
      <trkpt lat="47.21121" lon="6.65659">
        <ele>482.6</ele>
        <time>2021-07-29T13:23:25Z</time>
      </trkpt>
      <trkpt lat="47.21125" lon="6.65668">
        <ele>482.6</ele>
        <time>2021-07-29T13:23:26Z</time>
      </trkpt>
      <trkpt lat="47.21129" lon="6.65677">
        <ele>482.4</ele>
        <time>2021-07-29T13:23:27Z</time>
      </trkpt>
      <trkpt lat="47.21133" lon="6.65687">
        <ele>482</ele>
        <time>2021-07-29T13:23:28Z</time>
      </trkpt>
      <trkpt lat="47.21137" lon="6.65696">
        <ele>482</ele>
        <time>2021-07-29T13:23:29Z</time>
      </trkpt>
      <trkpt lat="47.2114" lon="6.65706">
        <ele>481.8</ele>
        <time>2021-07-29T13:23:30Z</time>
      </trkpt>
      <trkpt lat="47.21143" lon="6.65715">
        <ele>481.8</ele>
        <time>2021-07-29T13:23:31Z</time>
      </trkpt>
      <trkpt lat="47.21147" lon="6.65725">
        <ele>481.8</ele>
        <time>2021-07-29T13:23:32Z</time>
      </trkpt>
      <trkpt lat="47.2115" lon="6.65734">
        <ele>481.8</ele>
        <time>2021-07-29T13:23:33Z</time>
      </trkpt>
      <trkpt lat="47.21152" lon="6.65744">
        <ele>481.8</ele>
        <time>2021-07-29T13:23:34Z</time>
      </trkpt>
      <trkpt lat="47.21154" lon="6.65753">
        <ele>481.8</ele>
        <time>2021-07-29T13:23:35Z</time>
      </trkpt>
      <trkpt lat="47.21157" lon="6.65762">
        <ele>481.8</ele>
        <time>2021-07-29T13:23:36Z</time>
      </trkpt>
      <trkpt lat="47.2116" lon="6.65771">
        <ele>481.8</ele>
        <time>2021-07-29T13:23:37Z</time>
      </trkpt>
      <trkpt lat="47.21162" lon="6.65779">
        <ele>481.8</ele>
        <time>2021-07-29T13:23:38Z</time>
      </trkpt>
      <trkpt lat="47.21165" lon="6.65788">
        <ele>481.8</ele>
        <time>2021-07-29T13:23:39Z</time>
      </trkpt>
      <trkpt lat="47.21167" lon="6.65797">
        <ele>482</ele>
        <time>2021-07-29T13:23:40Z</time>
      </trkpt>
      <trkpt lat="47.2117" lon="6.65805">
        <ele>482</ele>
        <time>2021-07-29T13:23:41Z</time>
      </trkpt>
      <trkpt lat="47.21172" lon="6.65814">
        <ele>482</ele>
        <time>2021-07-29T13:23:42Z</time>
      </trkpt>
      <trkpt lat="47.21175" lon="6.65822">
        <ele>482</ele>
        <time>2021-07-29T13:23:43Z</time>
      </trkpt>
      <trkpt lat="47.21177" lon="6.6583">
        <ele>481.8</ele>
        <time>2021-07-29T13:23:44Z</time>
      </trkpt>
      <trkpt lat="47.2118" lon="6.65838">
        <ele>481.8</ele>
        <time>2021-07-29T13:23:45Z</time>
      </trkpt>
      <trkpt lat="47.21182" lon="6.65846">
        <ele>482</ele>
        <time>2021-07-29T13:23:46Z</time>
      </trkpt>
      <trkpt lat="47.21185" lon="6.65854">
        <ele>482</ele>
        <time>2021-07-29T13:23:47Z</time>
      </trkpt>
      <trkpt lat="47.21187" lon="6.65862">
        <ele>482</ele>
        <time>2021-07-29T13:23:48Z</time>
      </trkpt>
      <trkpt lat="47.21188" lon="6.6587">
        <ele>482</ele>
        <time>2021-07-29T13:23:49Z</time>
      </trkpt>
      <trkpt lat="47.2119" lon="6.65878">
        <ele>482</ele>
        <time>2021-07-29T13:23:50Z</time>
      </trkpt>
      <trkpt lat="47.21192" lon="6.65886">
        <ele>482</ele>
        <time>2021-07-29T13:23:51Z</time>
      </trkpt>
      <trkpt lat="47.21192" lon="6.65894">
        <ele>482</ele>
        <time>2021-07-29T13:23:52Z</time>
      </trkpt>
      <trkpt lat="47.21193" lon="6.65902">
        <ele>482</ele>
        <time>2021-07-29T13:23:53Z</time>
      </trkpt>
      <trkpt lat="47.21193" lon="6.6591">
        <ele>481.8</ele>
        <time>2021-07-29T13:23:54Z</time>
      </trkpt>
      <trkpt lat="47.21194" lon="6.65918">
        <ele>482</ele>
        <time>2021-07-29T13:23:55Z</time>
      </trkpt>
      <trkpt lat="47.21195" lon="6.65926">
        <ele>482</ele>
        <time>2021-07-29T13:23:56Z</time>
      </trkpt>
      <trkpt lat="47.21195" lon="6.65934">
        <ele>482</ele>
        <time>2021-07-29T13:23:57Z</time>
      </trkpt>
      <trkpt lat="47.21196" lon="6.65942">
        <ele>482</ele>
        <time>2021-07-29T13:23:58Z</time>
      </trkpt>
      <trkpt lat="47.21196" lon="6.6595">
        <ele>482</ele>
        <time>2021-07-29T13:23:59Z</time>
      </trkpt>
      <trkpt lat="47.21196" lon="6.65958">
        <ele>482</ele>
        <time>2021-07-29T13:24:00Z</time>
      </trkpt>
      <trkpt lat="47.21196" lon="6.65967">
        <ele>482</ele>
        <time>2021-07-29T13:24:01Z</time>
      </trkpt>
      <trkpt lat="47.21197" lon="6.65975">
        <ele>482.2</ele>
        <time>2021-07-29T13:24:02Z</time>
      </trkpt>
      <trkpt lat="47.21197" lon="6.65983">
        <ele>482</ele>
        <time>2021-07-29T13:24:03Z</time>
      </trkpt>
      <trkpt lat="47.21197" lon="6.65992">
        <ele>482</ele>
        <time>2021-07-29T13:24:04Z</time>
      </trkpt>
      <trkpt lat="47.21198" lon="6.66">
        <ele>482</ele>
        <time>2021-07-29T13:24:05Z</time>
      </trkpt>
      <trkpt lat="47.21198" lon="6.66009">
        <ele>482</ele>
        <time>2021-07-29T13:24:06Z</time>
      </trkpt>
      <trkpt lat="47.21198" lon="6.66018">
        <ele>482</ele>
        <time>2021-07-29T13:24:07Z</time>
      </trkpt>
      <trkpt lat="47.21199" lon="6.66026">
        <ele>482</ele>
        <time>2021-07-29T13:24:08Z</time>
      </trkpt>
      <trkpt lat="47.21199" lon="6.66034">
        <ele>482.2</ele>
        <time>2021-07-29T13:24:09Z</time>
      </trkpt>
      <trkpt lat="47.21199" lon="6.66042">
        <ele>482.2</ele>
        <time>2021-07-29T13:24:10Z</time>
      </trkpt>
      <trkpt lat="47.21199" lon="6.66051">
        <ele>482.2</ele>
        <time>2021-07-29T13:24:11Z</time>
      </trkpt>
      <trkpt lat="47.212" lon="6.66058">
        <ele>482.2</ele>
        <time>2021-07-29T13:24:12Z</time>
      </trkpt>
      <trkpt lat="47.212" lon="6.66065">
        <ele>482.4</ele>
        <time>2021-07-29T13:24:13Z</time>
      </trkpt>
      <trkpt lat="47.21201" lon="6.66073">
        <ele>482.4</ele>
        <time>2021-07-29T13:24:14Z</time>
      </trkpt>
      <trkpt lat="47.21201" lon="6.6608">
        <ele>482.6</ele>
        <time>2021-07-29T13:24:15Z</time>
      </trkpt>
      <trkpt lat="47.21201" lon="6.66087">
        <ele>482.6</ele>
        <time>2021-07-29T13:24:16Z</time>
      </trkpt>
      <trkpt lat="47.21202" lon="6.66093">
        <ele>482.6</ele>
        <time>2021-07-29T13:24:17Z</time>
      </trkpt>
      <trkpt lat="47.21202" lon="6.661">
        <ele>482.8</ele>
        <time>2021-07-29T13:24:18Z</time>
      </trkpt>
      <trkpt lat="47.21203" lon="6.66105">
        <ele>482.8</ele>
        <time>2021-07-29T13:24:19Z</time>
      </trkpt>
      <trkpt lat="47.21202" lon="6.66111">
        <ele>482.8</ele>
        <time>2021-07-29T13:24:20Z</time>
      </trkpt>
      <trkpt lat="47.21202" lon="6.66116">
        <ele>483</ele>
        <time>2021-07-29T13:24:21Z</time>
      </trkpt>
      <trkpt lat="47.21203" lon="6.66121">
        <ele>483</ele>
        <time>2021-07-29T13:24:22Z</time>
      </trkpt>
      <trkpt lat="47.21203" lon="6.66127">
        <ele>483</ele>
        <time>2021-07-29T13:24:23Z</time>
      </trkpt>
      <trkpt lat="47.21203" lon="6.66133">
        <ele>483</ele>
        <time>2021-07-29T13:24:24Z</time>
      </trkpt>
      <trkpt lat="47.21203" lon="6.66138">
        <ele>483.2</ele>
        <time>2021-07-29T13:24:25Z</time>
      </trkpt>
      <trkpt lat="47.21204" lon="6.66144">
        <ele>483.2</ele>
        <time>2021-07-29T13:24:26Z</time>
      </trkpt>
      <trkpt lat="47.21205" lon="6.66149">
        <ele>483.2</ele>
        <time>2021-07-29T13:24:27Z</time>
      </trkpt>
      <trkpt lat="47.21205" lon="6.66155">
        <ele>483.2</ele>
        <time>2021-07-29T13:24:28Z</time>
      </trkpt>
      <trkpt lat="47.21206" lon="6.66161">
        <ele>483.4</ele>
        <time>2021-07-29T13:24:29Z</time>
      </trkpt>
      <trkpt lat="47.21206" lon="6.66167">
        <ele>483.4</ele>
        <time>2021-07-29T13:24:30Z</time>
      </trkpt>
      <trkpt lat="47.21206" lon="6.66173">
        <ele>483.6</ele>
        <time>2021-07-29T13:24:31Z</time>
      </trkpt>
      <trkpt lat="47.21206" lon="6.66179">
        <ele>483.6</ele>
        <time>2021-07-29T13:24:32Z</time>
      </trkpt>
      <trkpt lat="47.21206" lon="6.66184">
        <ele>483.8</ele>
        <time>2021-07-29T13:24:33Z</time>
      </trkpt>
      <trkpt lat="47.21206" lon="6.6619">
        <ele>483.8</ele>
        <time>2021-07-29T13:24:34Z</time>
      </trkpt>
      <trkpt lat="47.21207" lon="6.66196">
        <ele>484</ele>
        <time>2021-07-29T13:24:35Z</time>
      </trkpt>
      <trkpt lat="47.21207" lon="6.66201">
        <ele>484.2</ele>
        <time>2021-07-29T13:24:36Z</time>
      </trkpt>
      <trkpt lat="47.21208" lon="6.66207">
        <ele>484.2</ele>
        <time>2021-07-29T13:24:37Z</time>
      </trkpt>
      <trkpt lat="47.21208" lon="6.66212">
        <ele>484.4</ele>
        <time>2021-07-29T13:24:38Z</time>
      </trkpt>
      <trkpt lat="47.21208" lon="6.66218">
        <ele>484.4</ele>
        <time>2021-07-29T13:24:39Z</time>
      </trkpt>
      <trkpt lat="47.21208" lon="6.66223">
        <ele>484.4</ele>
        <time>2021-07-29T13:24:40Z</time>
      </trkpt>
      <trkpt lat="47.2121" lon="6.66229">
        <ele>484.4</ele>
        <time>2021-07-29T13:24:41Z</time>
      </trkpt>
      <trkpt lat="47.21214" lon="6.66236">
        <ele>484.6</ele>
        <time>2021-07-29T13:24:42Z</time>
      </trkpt>
      <trkpt lat="47.21216" lon="6.66242">
        <ele>484.6</ele>
        <time>2021-07-29T13:24:43Z</time>
      </trkpt>
      <trkpt lat="47.21217" lon="6.66248">
        <ele>484.6</ele>
        <time>2021-07-29T13:24:44Z</time>
      </trkpt>
      <trkpt lat="47.21218" lon="6.66254">
        <ele>484.8</ele>
        <time>2021-07-29T13:24:45Z</time>
      </trkpt>
      <trkpt lat="47.21219" lon="6.6626">
        <ele>484.8</ele>
        <time>2021-07-29T13:24:46Z</time>
      </trkpt>
      <trkpt lat="47.2122" lon="6.66266">
        <ele>484.8</ele>
        <time>2021-07-29T13:24:47Z</time>
      </trkpt>
      <trkpt lat="47.21222" lon="6.66272">
        <ele>484.8</ele>
        <time>2021-07-29T13:24:48Z</time>
      </trkpt>
      <trkpt lat="47.21224" lon="6.66278">
        <ele>485</ele>
        <time>2021-07-29T13:24:49Z</time>
      </trkpt>
      <trkpt lat="47.21226" lon="6.66284">
        <ele>485</ele>
        <time>2021-07-29T13:24:50Z</time>
      </trkpt>
      <trkpt lat="47.21227" lon="6.66289">
        <ele>485</ele>
        <time>2021-07-29T13:24:51Z</time>
      </trkpt>
      <trkpt lat="47.21229" lon="6.66294">
        <ele>485.2</ele>
        <time>2021-07-29T13:24:52Z</time>
      </trkpt>
      <trkpt lat="47.21231" lon="6.663">
        <ele>485.2</ele>
        <time>2021-07-29T13:24:53Z</time>
      </trkpt>
      <trkpt lat="47.21232" lon="6.66305">
        <ele>485.2</ele>
        <time>2021-07-29T13:24:54Z</time>
      </trkpt>
      <trkpt lat="47.21235" lon="6.6631">
        <ele>485.4</ele>
        <time>2021-07-29T13:24:55Z</time>
      </trkpt>
      <trkpt lat="47.21237" lon="6.66315">
        <ele>485.4</ele>
        <time>2021-07-29T13:24:56Z</time>
      </trkpt>
      <trkpt lat="47.21239" lon="6.6632">
        <ele>485.4</ele>
        <time>2021-07-29T13:24:57Z</time>
      </trkpt>
      <trkpt lat="47.21241" lon="6.66325">
        <ele>485.4</ele>
        <time>2021-07-29T13:24:58Z</time>
      </trkpt>
      <trkpt lat="47.21243" lon="6.66329">
        <ele>485.4</ele>
        <time>2021-07-29T13:24:59Z</time>
      </trkpt>
      <trkpt lat="47.21246" lon="6.66335">
        <ele>485.4</ele>
        <time>2021-07-29T13:25:00Z</time>
      </trkpt>
      <trkpt lat="47.2125" lon="6.6634">
        <ele>485.4</ele>
        <time>2021-07-29T13:25:01Z</time>
      </trkpt>
      <trkpt lat="47.21251" lon="6.66344">
        <ele>485.4</ele>
        <time>2021-07-29T13:25:02Z</time>
      </trkpt>
      <trkpt lat="47.21254" lon="6.66349">
        <ele>485.4</ele>
        <time>2021-07-29T13:25:03Z</time>
      </trkpt>
      <trkpt lat="47.21257" lon="6.66354">
        <ele>485.4</ele>
        <time>2021-07-29T13:25:04Z</time>
      </trkpt>
      <trkpt lat="47.2126" lon="6.66359">
        <ele>485.4</ele>
        <time>2021-07-29T13:25:05Z</time>
      </trkpt>
      <trkpt lat="47.21264" lon="6.66363">
        <ele>485.4</ele>
        <time>2021-07-29T13:25:06Z</time>
      </trkpt>
      <trkpt lat="47.21268" lon="6.66368">
        <ele>485.4</ele>
        <time>2021-07-29T13:25:07Z</time>
      </trkpt>
      <trkpt lat="47.21271" lon="6.66372">
        <ele>485.4</ele>
        <time>2021-07-29T13:25:08Z</time>
      </trkpt>
      <trkpt lat="47.21275" lon="6.66376">
        <ele>485.4</ele>
        <time>2021-07-29T13:25:09Z</time>
      </trkpt>
      <trkpt lat="47.21278" lon="6.66381">
        <ele>485.4</ele>
        <time>2021-07-29T13:25:10Z</time>
      </trkpt>
      <trkpt lat="47.21282" lon="6.66386">
        <ele>485.4</ele>
        <time>2021-07-29T13:25:11Z</time>
      </trkpt>
      <trkpt lat="47.21286" lon="6.6639">
        <ele>485.4</ele>
        <time>2021-07-29T13:25:12Z</time>
      </trkpt>
      <trkpt lat="47.2129" lon="6.66395">
        <ele>485.2</ele>
        <time>2021-07-29T13:25:13Z</time>
      </trkpt>
      <trkpt lat="47.21294" lon="6.66399">
        <ele>485.2</ele>
        <time>2021-07-29T13:25:14Z</time>
      </trkpt>
      <trkpt lat="47.21298" lon="6.66403">
        <ele>485</ele>
        <time>2021-07-29T13:25:15Z</time>
      </trkpt>
      <trkpt lat="47.21302" lon="6.66408">
        <ele>485</ele>
        <time>2021-07-29T13:25:16Z</time>
      </trkpt>
      <trkpt lat="47.21306" lon="6.66414">
        <ele>485.2</ele>
        <time>2021-07-29T13:25:17Z</time>
      </trkpt>
      <trkpt lat="47.2131" lon="6.66419">
        <ele>485</ele>
        <time>2021-07-29T13:25:18Z</time>
      </trkpt>
      <trkpt lat="47.21313" lon="6.66424">
        <ele>485.2</ele>
        <time>2021-07-29T13:25:19Z</time>
      </trkpt>
      <trkpt lat="47.21316" lon="6.66429">
        <ele>485.2</ele>
        <time>2021-07-29T13:25:20Z</time>
      </trkpt>
      <trkpt lat="47.2132" lon="6.66435">
        <ele>485.2</ele>
        <time>2021-07-29T13:25:21Z</time>
      </trkpt>
      <trkpt lat="47.21323" lon="6.66439">
        <ele>485.2</ele>
        <time>2021-07-29T13:25:22Z</time>
      </trkpt>
      <trkpt lat="47.21326" lon="6.66444">
        <ele>485.4</ele>
        <time>2021-07-29T13:25:23Z</time>
      </trkpt>
      <trkpt lat="47.21329" lon="6.66448">
        <ele>485.4</ele>
        <time>2021-07-29T13:25:24Z</time>
      </trkpt>
      <trkpt lat="47.21333" lon="6.66453">
        <ele>485.4</ele>
        <time>2021-07-29T13:25:25Z</time>
      </trkpt>
      <trkpt lat="47.21337" lon="6.66457">
        <ele>485.6</ele>
        <time>2021-07-29T13:25:26Z</time>
      </trkpt>
      <trkpt lat="47.21342" lon="6.66462">
        <ele>485.6</ele>
        <time>2021-07-29T13:25:27Z</time>
      </trkpt>
      <trkpt lat="47.21346" lon="6.66466">
        <ele>485.6</ele>
        <time>2021-07-29T13:25:28Z</time>
      </trkpt>
      <trkpt lat="47.2135" lon="6.6647">
        <ele>485.8</ele>
        <time>2021-07-29T13:25:29Z</time>
      </trkpt>
      <trkpt lat="47.21355" lon="6.66473">
        <ele>485.8</ele>
        <time>2021-07-29T13:25:30Z</time>
      </trkpt>
      <trkpt lat="47.21359" lon="6.66476">
        <ele>485.8</ele>
        <time>2021-07-29T13:25:31Z</time>
      </trkpt>
      <trkpt lat="47.21364" lon="6.66478">
        <ele>485.8</ele>
        <time>2021-07-29T13:25:32Z</time>
      </trkpt>
      <trkpt lat="47.21368" lon="6.66481">
        <ele>485.6</ele>
        <time>2021-07-29T13:25:33Z</time>
      </trkpt>
      <trkpt lat="47.21372" lon="6.66484">
        <ele>485.6</ele>
        <time>2021-07-29T13:25:34Z</time>
      </trkpt>
      <trkpt lat="47.21376" lon="6.66486">
        <ele>485.4</ele>
        <time>2021-07-29T13:25:35Z</time>
      </trkpt>
      <trkpt lat="47.21379" lon="6.66488">
        <ele>485.2</ele>
        <time>2021-07-29T13:25:36Z</time>
      </trkpt>
      <trkpt lat="47.21383" lon="6.6649">
        <ele>485.2</ele>
        <time>2021-07-29T13:25:37Z</time>
      </trkpt>
      <trkpt lat="47.21387" lon="6.66493">
        <ele>485</ele>
        <time>2021-07-29T13:25:38Z</time>
      </trkpt>
      <trkpt lat="47.21391" lon="6.66496">
        <ele>484.8</ele>
        <time>2021-07-29T13:25:39Z</time>
      </trkpt>
      <trkpt lat="47.21396" lon="6.66499">
        <ele>484.6</ele>
        <time>2021-07-29T13:25:40Z</time>
      </trkpt>
      <trkpt lat="47.21402" lon="6.66502">
        <ele>484.6</ele>
        <time>2021-07-29T13:25:41Z</time>
      </trkpt>
      <trkpt lat="47.21408" lon="6.66506">
        <ele>484.4</ele>
        <time>2021-07-29T13:25:42Z</time>
      </trkpt>
      <trkpt lat="47.21413" lon="6.66509">
        <ele>484.4</ele>
        <time>2021-07-29T13:25:43Z</time>
      </trkpt>
      <trkpt lat="47.21419" lon="6.66513">
        <ele>484.4</ele>
        <time>2021-07-29T13:25:44Z</time>
      </trkpt>
      <trkpt lat="47.21424" lon="6.66517">
        <ele>484.4</ele>
        <time>2021-07-29T13:25:45Z</time>
      </trkpt>
      <trkpt lat="47.21429" lon="6.66522">
        <ele>484.4</ele>
        <time>2021-07-29T13:25:46Z</time>
      </trkpt>
      <trkpt lat="47.21434" lon="6.66526">
        <ele>484.4</ele>
        <time>2021-07-29T13:25:47Z</time>
      </trkpt>
      <trkpt lat="47.21439" lon="6.66532">
        <ele>484.4</ele>
        <time>2021-07-29T13:25:48Z</time>
      </trkpt>
      <trkpt lat="47.21443" lon="6.66537">
        <ele>484.4</ele>
        <time>2021-07-29T13:25:49Z</time>
      </trkpt>
      <trkpt lat="47.21448" lon="6.66542">
        <ele>484.6</ele>
        <time>2021-07-29T13:25:50Z</time>
      </trkpt>
      <trkpt lat="47.21452" lon="6.66547">
        <ele>484.6</ele>
        <time>2021-07-29T13:25:51Z</time>
      </trkpt>
      <trkpt lat="47.21456" lon="6.66551">
        <ele>484.8</ele>
        <time>2021-07-29T13:25:52Z</time>
      </trkpt>
      <trkpt lat="47.2146" lon="6.66556">
        <ele>484.8</ele>
        <time>2021-07-29T13:25:53Z</time>
      </trkpt>
      <trkpt lat="47.21464" lon="6.66561">
        <ele>484.8</ele>
        <time>2021-07-29T13:25:54Z</time>
      </trkpt>
      <trkpt lat="47.21469" lon="6.66566">
        <ele>484.8</ele>
        <time>2021-07-29T13:25:55Z</time>
      </trkpt>
      <trkpt lat="47.21473" lon="6.6657">
        <ele>484.8</ele>
        <time>2021-07-29T13:25:56Z</time>
      </trkpt>
      <trkpt lat="47.21477" lon="6.66574">
        <ele>484.8</ele>
        <time>2021-07-29T13:25:57Z</time>
      </trkpt>
      <trkpt lat="47.21481" lon="6.66579">
        <ele>484.8</ele>
        <time>2021-07-29T13:25:58Z</time>
      </trkpt>
      <trkpt lat="47.21485" lon="6.66584">
        <ele>484.8</ele>
        <time>2021-07-29T13:25:59Z</time>
      </trkpt>
      <trkpt lat="47.21488" lon="6.66588">
        <ele>485</ele>
        <time>2021-07-29T13:26:00Z</time>
      </trkpt>
      <trkpt lat="47.21491" lon="6.66593">
        <ele>485</ele>
        <time>2021-07-29T13:26:01Z</time>
      </trkpt>
      <trkpt lat="47.21494" lon="6.66598">
        <ele>485</ele>
        <time>2021-07-29T13:26:02Z</time>
      </trkpt>
      <trkpt lat="47.21497" lon="6.66602">
        <ele>485.2</ele>
        <time>2021-07-29T13:26:03Z</time>
      </trkpt>
      <trkpt lat="47.215" lon="6.66607">
        <ele>485.2</ele>
        <time>2021-07-29T13:26:04Z</time>
      </trkpt>
      <trkpt lat="47.21503" lon="6.66611">
        <ele>485.2</ele>
        <time>2021-07-29T13:26:05Z</time>
      </trkpt>
      <trkpt lat="47.21506" lon="6.66615">
        <ele>485.2</ele>
        <time>2021-07-29T13:26:06Z</time>
      </trkpt>
      <trkpt lat="47.21509" lon="6.6662">
        <ele>485.2</ele>
        <time>2021-07-29T13:26:07Z</time>
      </trkpt>
      <trkpt lat="47.21512" lon="6.66625">
        <ele>485.4</ele>
        <time>2021-07-29T13:26:08Z</time>
      </trkpt>
      <trkpt lat="47.21516" lon="6.66629">
        <ele>485.4</ele>
        <time>2021-07-29T13:26:09Z</time>
      </trkpt>
      <trkpt lat="47.21519" lon="6.66634">
        <ele>485.4</ele>
        <time>2021-07-29T13:26:10Z</time>
      </trkpt>
      <trkpt lat="47.21522" lon="6.66639">
        <ele>485.6</ele>
        <time>2021-07-29T13:26:11Z</time>
      </trkpt>
      <trkpt lat="47.21526" lon="6.66645">
        <ele>485.4</ele>
        <time>2021-07-29T13:26:12Z</time>
      </trkpt>
      <trkpt lat="47.21529" lon="6.6665">
        <ele>485.6</ele>
        <time>2021-07-29T13:26:13Z</time>
      </trkpt>
      <trkpt lat="47.21534" lon="6.66655">
        <ele>485.6</ele>
        <time>2021-07-29T13:26:14Z</time>
      </trkpt>
      <trkpt lat="47.21537" lon="6.66661">
        <ele>485.6</ele>
        <time>2021-07-29T13:26:15Z</time>
      </trkpt>
      <trkpt lat="47.21541" lon="6.66666">
        <ele>485.6</ele>
        <time>2021-07-29T13:26:16Z</time>
      </trkpt>
      <trkpt lat="47.21544" lon="6.66671">
        <ele>485.6</ele>
        <time>2021-07-29T13:26:17Z</time>
      </trkpt>
      <trkpt lat="47.21548" lon="6.66676">
        <ele>485.6</ele>
        <time>2021-07-29T13:26:18Z</time>
      </trkpt>
      <trkpt lat="47.21551" lon="6.66682">
        <ele>485.6</ele>
        <time>2021-07-29T13:26:19Z</time>
      </trkpt>
      <trkpt lat="47.21555" lon="6.66687">
        <ele>485.8</ele>
        <time>2021-07-29T13:26:20Z</time>
      </trkpt>
      <trkpt lat="47.21559" lon="6.66692">
        <ele>485.8</ele>
        <time>2021-07-29T13:26:21Z</time>
      </trkpt>
      <trkpt lat="47.21562" lon="6.66697">
        <ele>486</ele>
        <time>2021-07-29T13:26:22Z</time>
      </trkpt>
      <trkpt lat="47.21565" lon="6.66703">
        <ele>486</ele>
        <time>2021-07-29T13:26:23Z</time>
      </trkpt>
      <trkpt lat="47.21569" lon="6.66708">
        <ele>486</ele>
        <time>2021-07-29T13:26:24Z</time>
      </trkpt>
      <trkpt lat="47.21572" lon="6.66714">
        <ele>486</ele>
        <time>2021-07-29T13:26:25Z</time>
      </trkpt>
      <trkpt lat="47.21576" lon="6.66719">
        <ele>486</ele>
        <time>2021-07-29T13:26:26Z</time>
      </trkpt>
      <trkpt lat="47.21579" lon="6.66724">
        <ele>486.2</ele>
        <time>2021-07-29T13:26:27Z</time>
      </trkpt>
      <trkpt lat="47.21583" lon="6.66729">
        <ele>486.2</ele>
        <time>2021-07-29T13:26:28Z</time>
      </trkpt>
      <trkpt lat="47.21586" lon="6.66734">
        <ele>486.2</ele>
        <time>2021-07-29T13:26:29Z</time>
      </trkpt>
      <trkpt lat="47.2159" lon="6.66739">
        <ele>486.2</ele>
        <time>2021-07-29T13:26:30Z</time>
      </trkpt>
      <trkpt lat="47.21593" lon="6.66744">
        <ele>486.2</ele>
        <time>2021-07-29T13:26:31Z</time>
      </trkpt>
      <trkpt lat="47.21597" lon="6.6675">
        <ele>486.2</ele>
        <time>2021-07-29T13:26:32Z</time>
      </trkpt>
      <trkpt lat="47.216" lon="6.66755">
        <ele>486.2</ele>
        <time>2021-07-29T13:26:33Z</time>
      </trkpt>
      <trkpt lat="47.21604" lon="6.6676">
        <ele>486.2</ele>
        <time>2021-07-29T13:26:34Z</time>
      </trkpt>
      <trkpt lat="47.21608" lon="6.66765">
        <ele>486</ele>
        <time>2021-07-29T13:26:35Z</time>
      </trkpt>
      <trkpt lat="47.21611" lon="6.6677">
        <ele>486.2</ele>
        <time>2021-07-29T13:26:36Z</time>
      </trkpt>
      <trkpt lat="47.21615" lon="6.66775">
        <ele>486.2</ele>
        <time>2021-07-29T13:26:37Z</time>
      </trkpt>
      <trkpt lat="47.21619" lon="6.6678">
        <ele>486.2</ele>
        <time>2021-07-29T13:26:38Z</time>
      </trkpt>
      <trkpt lat="47.21623" lon="6.66785">
        <ele>486.2</ele>
        <time>2021-07-29T13:26:39Z</time>
      </trkpt>
      <trkpt lat="47.21627" lon="6.66789">
        <ele>486.2</ele>
        <time>2021-07-29T13:26:40Z</time>
      </trkpt>
      <trkpt lat="47.21631" lon="6.66794">
        <ele>486.2</ele>
        <time>2021-07-29T13:26:41Z</time>
      </trkpt>
      <trkpt lat="47.21635" lon="6.66798">
        <ele>486.2</ele>
        <time>2021-07-29T13:26:42Z</time>
      </trkpt>
      <trkpt lat="47.21639" lon="6.66803">
        <ele>486.2</ele>
        <time>2021-07-29T13:26:43Z</time>
      </trkpt>
      <trkpt lat="47.21643" lon="6.66808">
        <ele>486.2</ele>
        <time>2021-07-29T13:26:44Z</time>
      </trkpt>
      <trkpt lat="47.21647" lon="6.66812">
        <ele>486.2</ele>
        <time>2021-07-29T13:26:45Z</time>
      </trkpt>
      <trkpt lat="47.21651" lon="6.66817">
        <ele>486.2</ele>
        <time>2021-07-29T13:26:46Z</time>
      </trkpt>
      <trkpt lat="47.21655" lon="6.66822">
        <ele>486.2</ele>
        <time>2021-07-29T13:26:47Z</time>
      </trkpt>
      <trkpt lat="47.21659" lon="6.66826">
        <ele>486.4</ele>
        <time>2021-07-29T13:26:48Z</time>
      </trkpt>
      <trkpt lat="47.21662" lon="6.6683">
        <ele>486.4</ele>
        <time>2021-07-29T13:26:49Z</time>
      </trkpt>
      <trkpt lat="47.21666" lon="6.66835">
        <ele>486.4</ele>
        <time>2021-07-29T13:26:50Z</time>
      </trkpt>
      <trkpt lat="47.2167" lon="6.66839">
        <ele>486.6</ele>
        <time>2021-07-29T13:26:51Z</time>
      </trkpt>
      <trkpt lat="47.21674" lon="6.66843">
        <ele>486.6</ele>
        <time>2021-07-29T13:26:52Z</time>
      </trkpt>
      <trkpt lat="47.21678" lon="6.66847">
        <ele>486.6</ele>
        <time>2021-07-29T13:26:53Z</time>
      </trkpt>
      <trkpt lat="47.21682" lon="6.66852">
        <ele>486.6</ele>
        <time>2021-07-29T13:26:54Z</time>
      </trkpt>
      <trkpt lat="47.21685" lon="6.66856">
        <ele>486.6</ele>
        <time>2021-07-29T13:26:55Z</time>
      </trkpt>
      <trkpt lat="47.21689" lon="6.66861">
        <ele>486.8</ele>
        <time>2021-07-29T13:26:56Z</time>
      </trkpt>
      <trkpt lat="47.21693" lon="6.66865">
        <ele>486.8</ele>
        <time>2021-07-29T13:26:57Z</time>
      </trkpt>
      <trkpt lat="47.21697" lon="6.66869">
        <ele>486.8</ele>
        <time>2021-07-29T13:26:58Z</time>
      </trkpt>
      <trkpt lat="47.21701" lon="6.66874">
        <ele>486.8</ele>
        <time>2021-07-29T13:26:59Z</time>
      </trkpt>
      <trkpt lat="47.21704" lon="6.66878">
        <ele>486.8</ele>
        <time>2021-07-29T13:27:00Z</time>
      </trkpt>
      <trkpt lat="47.21708" lon="6.66883">
        <ele>486.8</ele>
        <time>2021-07-29T13:27:01Z</time>
      </trkpt>
      <trkpt lat="47.21711" lon="6.66888">
        <ele>486.8</ele>
        <time>2021-07-29T13:27:02Z</time>
      </trkpt>
      <trkpt lat="47.21714" lon="6.66893">
        <ele>486.8</ele>
        <time>2021-07-29T13:27:03Z</time>
      </trkpt>
      <trkpt lat="47.21718" lon="6.66898">
        <ele>486.8</ele>
        <time>2021-07-29T13:27:04Z</time>
      </trkpt>
      <trkpt lat="47.21721" lon="6.66903">
        <ele>486.8</ele>
        <time>2021-07-29T13:27:05Z</time>
      </trkpt>
      <trkpt lat="47.21723" lon="6.66909">
        <ele>486.8</ele>
        <time>2021-07-29T13:27:06Z</time>
      </trkpt>
      <trkpt lat="47.21726" lon="6.66915">
        <ele>486.8</ele>
        <time>2021-07-29T13:27:07Z</time>
      </trkpt>
      <trkpt lat="47.21728" lon="6.66921">
        <ele>486.8</ele>
        <time>2021-07-29T13:27:08Z</time>
      </trkpt>
      <trkpt lat="47.2173" lon="6.66927">
        <ele>487</ele>
        <time>2021-07-29T13:27:09Z</time>
      </trkpt>
      <trkpt lat="47.21732" lon="6.66933">
        <ele>487</ele>
        <time>2021-07-29T13:27:10Z</time>
      </trkpt>
      <trkpt lat="47.21734" lon="6.6694">
        <ele>487</ele>
        <time>2021-07-29T13:27:11Z</time>
      </trkpt>
      <trkpt lat="47.21736" lon="6.66946">
        <ele>487.2</ele>
        <time>2021-07-29T13:27:12Z</time>
      </trkpt>
      <trkpt lat="47.21738" lon="6.66952">
        <ele>487.2</ele>
        <time>2021-07-29T13:27:13Z</time>
      </trkpt>
      <trkpt lat="47.21739" lon="6.66959">
        <ele>487.2</ele>
        <time>2021-07-29T13:27:14Z</time>
      </trkpt>
      <trkpt lat="47.21741" lon="6.66965">
        <ele>487.4</ele>
        <time>2021-07-29T13:27:15Z</time>
      </trkpt>
      <trkpt lat="47.21742" lon="6.66971">
        <ele>487.4</ele>
        <time>2021-07-29T13:27:16Z</time>
      </trkpt>
      <trkpt lat="47.21744" lon="6.66977">
        <ele>487.4</ele>
        <time>2021-07-29T13:27:17Z</time>
      </trkpt>
      <trkpt lat="47.21746" lon="6.66983">
        <ele>487.4</ele>
        <time>2021-07-29T13:27:18Z</time>
      </trkpt>
      <trkpt lat="47.21748" lon="6.66989">
        <ele>487.4</ele>
        <time>2021-07-29T13:27:19Z</time>
      </trkpt>
      <trkpt lat="47.2175" lon="6.66995">
        <ele>487.4</ele>
        <time>2021-07-29T13:27:20Z</time>
      </trkpt>
      <trkpt lat="47.21752" lon="6.67001">
        <ele>487.4</ele>
        <time>2021-07-29T13:27:21Z</time>
      </trkpt>
      <trkpt lat="47.21755" lon="6.67007">
        <ele>487.4</ele>
        <time>2021-07-29T13:27:22Z</time>
      </trkpt>
      <trkpt lat="47.21759" lon="6.67012">
        <ele>487.4</ele>
        <time>2021-07-29T13:27:23Z</time>
      </trkpt>
      <trkpt lat="47.21762" lon="6.67017">
        <ele>487.6</ele>
        <time>2021-07-29T13:27:24Z</time>
      </trkpt>
      <trkpt lat="47.21765" lon="6.67022">
        <ele>487.6</ele>
        <time>2021-07-29T13:27:25Z</time>
      </trkpt>
      <trkpt lat="47.21769" lon="6.67027">
        <ele>487.6</ele>
        <time>2021-07-29T13:27:26Z</time>
      </trkpt>
      <trkpt lat="47.21772" lon="6.67031">
        <ele>487.6</ele>
        <time>2021-07-29T13:27:27Z</time>
      </trkpt>
      <trkpt lat="47.21776" lon="6.67036">
        <ele>487.6</ele>
        <time>2021-07-29T13:27:28Z</time>
      </trkpt>
      <trkpt lat="47.21779" lon="6.67041">
        <ele>487.6</ele>
        <time>2021-07-29T13:27:29Z</time>
      </trkpt>
      <trkpt lat="47.21783" lon="6.67047">
        <ele>487.4</ele>
        <time>2021-07-29T13:27:30Z</time>
      </trkpt>
      <trkpt lat="47.21786" lon="6.67054">
        <ele>487.4</ele>
        <time>2021-07-29T13:27:31Z</time>
      </trkpt>
      <trkpt lat="47.21788" lon="6.67061">
        <ele>487.4</ele>
        <time>2021-07-29T13:27:32Z</time>
      </trkpt>
      <trkpt lat="47.21791" lon="6.67068">
        <ele>487.4</ele>
        <time>2021-07-29T13:27:33Z</time>
      </trkpt>
      <trkpt lat="47.21793" lon="6.67074">
        <ele>487.6</ele>
        <time>2021-07-29T13:27:34Z</time>
      </trkpt>
      <trkpt lat="47.21794" lon="6.67082">
        <ele>487.6</ele>
        <time>2021-07-29T13:27:35Z</time>
      </trkpt>
      <trkpt lat="47.21795" lon="6.67089">
        <ele>487.8</ele>
        <time>2021-07-29T13:27:36Z</time>
      </trkpt>
      <trkpt lat="47.21796" lon="6.67096">
        <ele>487.8</ele>
        <time>2021-07-29T13:27:37Z</time>
      </trkpt>
      <trkpt lat="47.21797" lon="6.67103">
        <ele>487.8</ele>
        <time>2021-07-29T13:27:38Z</time>
      </trkpt>
      <trkpt lat="47.21797" lon="6.67109">
        <ele>487.8</ele>
        <time>2021-07-29T13:27:39Z</time>
      </trkpt>
      <trkpt lat="47.21797" lon="6.67117">
        <ele>487.8</ele>
        <time>2021-07-29T13:27:40Z</time>
      </trkpt>
      <trkpt lat="47.21797" lon="6.67124">
        <ele>488</ele>
        <time>2021-07-29T13:27:41Z</time>
      </trkpt>
      <trkpt lat="47.21796" lon="6.67131">
        <ele>488</ele>
        <time>2021-07-29T13:27:42Z</time>
      </trkpt>
      <trkpt lat="47.21796" lon="6.67137">
        <ele>488</ele>
        <time>2021-07-29T13:27:43Z</time>
      </trkpt>
      <trkpt lat="47.21795" lon="6.67144">
        <ele>488.2</ele>
        <time>2021-07-29T13:27:44Z</time>
      </trkpt>
      <trkpt lat="47.21794" lon="6.6715">
        <ele>488.2</ele>
        <time>2021-07-29T13:27:45Z</time>
      </trkpt>
      <trkpt lat="47.21793" lon="6.67155">
        <ele>488.2</ele>
        <time>2021-07-29T13:27:46Z</time>
      </trkpt>
      <trkpt lat="47.21793" lon="6.67159">
        <ele>488.4</ele>
        <time>2021-07-29T13:27:47Z</time>
      </trkpt>
      <trkpt lat="47.21792" lon="6.67163">
        <ele>488.4</ele>
        <time>2021-07-29T13:27:48Z</time>
      </trkpt>
      <trkpt lat="47.21791" lon="6.67169">
        <ele>488.6</ele>
        <time>2021-07-29T13:27:49Z</time>
      </trkpt>
      <trkpt lat="47.2179" lon="6.67176">
        <ele>488.6</ele>
        <time>2021-07-29T13:27:50Z</time>
      </trkpt>
      <trkpt lat="47.21789" lon="6.67184">
        <ele>488.8</ele>
        <time>2021-07-29T13:27:51Z</time>
      </trkpt>
      <trkpt lat="47.21788" lon="6.6719">
        <ele>488.8</ele>
        <time>2021-07-29T13:27:52Z</time>
      </trkpt>
      <trkpt lat="47.21788" lon="6.67197">
        <ele>488.8</ele>
        <time>2021-07-29T13:27:53Z</time>
      </trkpt>
      <trkpt lat="47.21787" lon="6.67203">
        <ele>488.8</ele>
        <time>2021-07-29T13:27:54Z</time>
      </trkpt>
      <trkpt lat="47.21786" lon="6.6721">
        <ele>489</ele>
        <time>2021-07-29T13:27:55Z</time>
      </trkpt>
      <trkpt lat="47.21786" lon="6.67217">
        <ele>489</ele>
        <time>2021-07-29T13:27:56Z</time>
      </trkpt>
      <trkpt lat="47.21786" lon="6.67223">
        <ele>489</ele>
        <time>2021-07-29T13:27:57Z</time>
      </trkpt>
      <trkpt lat="47.21786" lon="6.67229">
        <ele>489</ele>
        <time>2021-07-29T13:27:58Z</time>
      </trkpt>
      <trkpt lat="47.21786" lon="6.67236">
        <ele>489.2</ele>
        <time>2021-07-29T13:27:59Z</time>
      </trkpt>
      <trkpt lat="47.21786" lon="6.67244">
        <ele>489.2</ele>
        <time>2021-07-29T13:28:00Z</time>
      </trkpt>
      <trkpt lat="47.21786" lon="6.67251">
        <ele>489.2</ele>
        <time>2021-07-29T13:28:01Z</time>
      </trkpt>
      <trkpt lat="47.21786" lon="6.67259">
        <ele>489.2</ele>
        <time>2021-07-29T13:28:02Z</time>
      </trkpt>
      <trkpt lat="47.21787" lon="6.67267">
        <ele>489.2</ele>
        <time>2021-07-29T13:28:03Z</time>
      </trkpt>
      <trkpt lat="47.21787" lon="6.67274">
        <ele>489.4</ele>
        <time>2021-07-29T13:28:04Z</time>
      </trkpt>
      <trkpt lat="47.21788" lon="6.67282">
        <ele>489.4</ele>
        <time>2021-07-29T13:28:05Z</time>
      </trkpt>
      <trkpt lat="47.21789" lon="6.67289">
        <ele>489.6</ele>
        <time>2021-07-29T13:28:06Z</time>
      </trkpt>
      <trkpt lat="47.21789" lon="6.67296">
        <ele>489.6</ele>
        <time>2021-07-29T13:28:07Z</time>
      </trkpt>
      <trkpt lat="47.2179" lon="6.67303">
        <ele>489.6</ele>
        <time>2021-07-29T13:28:08Z</time>
      </trkpt>
      <trkpt lat="47.21791" lon="6.6731">
        <ele>489.6</ele>
        <time>2021-07-29T13:28:09Z</time>
      </trkpt>
      <trkpt lat="47.21792" lon="6.67317">
        <ele>489.6</ele>
        <time>2021-07-29T13:28:10Z</time>
      </trkpt>
      <trkpt lat="47.21792" lon="6.67324">
        <ele>489.6</ele>
        <time>2021-07-29T13:28:11Z</time>
      </trkpt>
      <trkpt lat="47.21792" lon="6.67332">
        <ele>489.6</ele>
        <time>2021-07-29T13:28:12Z</time>
      </trkpt>
      <trkpt lat="47.21792" lon="6.67339">
        <ele>489.6</ele>
        <time>2021-07-29T13:28:13Z</time>
      </trkpt>
      <trkpt lat="47.21792" lon="6.67346">
        <ele>489.6</ele>
        <time>2021-07-29T13:28:14Z</time>
      </trkpt>
      <trkpt lat="47.21791" lon="6.67353">
        <ele>489.6</ele>
        <time>2021-07-29T13:28:15Z</time>
      </trkpt>
      <trkpt lat="47.21791" lon="6.6736">
        <ele>489.8</ele>
        <time>2021-07-29T13:28:16Z</time>
      </trkpt>
      <trkpt lat="47.2179" lon="6.67367">
        <ele>489.8</ele>
        <time>2021-07-29T13:28:17Z</time>
      </trkpt>
      <trkpt lat="47.2179" lon="6.67374">
        <ele>489.8</ele>
        <time>2021-07-29T13:28:18Z</time>
      </trkpt>
      <trkpt lat="47.21791" lon="6.67381">
        <ele>489.8</ele>
        <time>2021-07-29T13:28:19Z</time>
      </trkpt>
      <trkpt lat="47.2179" lon="6.67387">
        <ele>490</ele>
        <time>2021-07-29T13:28:20Z</time>
      </trkpt>
      <trkpt lat="47.21789" lon="6.67395">
        <ele>490</ele>
        <time>2021-07-29T13:28:21Z</time>
      </trkpt>
      <trkpt lat="47.21789" lon="6.67401">
        <ele>490</ele>
        <time>2021-07-29T13:28:22Z</time>
      </trkpt>
      <trkpt lat="47.21789" lon="6.67409">
        <ele>490</ele>
        <time>2021-07-29T13:28:23Z</time>
      </trkpt>
      <trkpt lat="47.21789" lon="6.67415">
        <ele>490.2</ele>
        <time>2021-07-29T13:28:24Z</time>
      </trkpt>
      <trkpt lat="47.21788" lon="6.67422">
        <ele>490.2</ele>
        <time>2021-07-29T13:28:25Z</time>
      </trkpt>
      <trkpt lat="47.21787" lon="6.67429">
        <ele>490.2</ele>
        <time>2021-07-29T13:28:26Z</time>
      </trkpt>
      <trkpt lat="47.21787" lon="6.67436">
        <ele>490</ele>
        <time>2021-07-29T13:28:27Z</time>
      </trkpt>
      <trkpt lat="47.21787" lon="6.67443">
        <ele>490</ele>
        <time>2021-07-29T13:28:28Z</time>
      </trkpt>
      <trkpt lat="47.21786" lon="6.67451">
        <ele>490</ele>
        <time>2021-07-29T13:28:29Z</time>
      </trkpt>
      <trkpt lat="47.21785" lon="6.67458">
        <ele>489.8</ele>
        <time>2021-07-29T13:28:30Z</time>
      </trkpt>
      <trkpt lat="47.21784" lon="6.67465">
        <ele>489.8</ele>
        <time>2021-07-29T13:28:31Z</time>
      </trkpt>
      <trkpt lat="47.21782" lon="6.67472">
        <ele>489.8</ele>
        <time>2021-07-29T13:28:32Z</time>
      </trkpt>
      <trkpt lat="47.2178" lon="6.67479">
        <ele>489.8</ele>
        <time>2021-07-29T13:28:33Z</time>
      </trkpt>
      <trkpt lat="47.21778" lon="6.67486">
        <ele>490</ele>
        <time>2021-07-29T13:28:34Z</time>
      </trkpt>
      <trkpt lat="47.21776" lon="6.67492">
        <ele>490</ele>
        <time>2021-07-29T13:28:35Z</time>
      </trkpt>
      <trkpt lat="47.21773" lon="6.67499">
        <ele>490.2</ele>
        <time>2021-07-29T13:28:36Z</time>
      </trkpt>
      <trkpt lat="47.21771" lon="6.67504">
        <ele>490.2</ele>
        <time>2021-07-29T13:28:37Z</time>
      </trkpt>
      <trkpt lat="47.21768" lon="6.6751">
        <ele>490.4</ele>
        <time>2021-07-29T13:28:38Z</time>
      </trkpt>
      <trkpt lat="47.21765" lon="6.67515">
        <ele>490.4</ele>
        <time>2021-07-29T13:28:39Z</time>
      </trkpt>
      <trkpt lat="47.21763" lon="6.67521">
        <ele>490.4</ele>
        <time>2021-07-29T13:28:40Z</time>
      </trkpt>
      <trkpt lat="47.2176" lon="6.67526">
        <ele>490.6</ele>
        <time>2021-07-29T13:28:41Z</time>
      </trkpt>
      <trkpt lat="47.21757" lon="6.67532">
        <ele>490.6</ele>
        <time>2021-07-29T13:28:42Z</time>
      </trkpt>
      <trkpt lat="47.21755" lon="6.67538">
        <ele>490.6</ele>
        <time>2021-07-29T13:28:43Z</time>
      </trkpt>
      <trkpt lat="47.21752" lon="6.67544">
        <ele>490.8</ele>
        <time>2021-07-29T13:28:44Z</time>
      </trkpt>
      <trkpt lat="47.21751" lon="6.6755">
        <ele>490.8</ele>
        <time>2021-07-29T13:28:45Z</time>
      </trkpt>
      <trkpt lat="47.21749" lon="6.67556">
        <ele>491</ele>
        <time>2021-07-29T13:28:46Z</time>
      </trkpt>
      <trkpt lat="47.21747" lon="6.67563">
        <ele>491</ele>
        <time>2021-07-29T13:28:47Z</time>
      </trkpt>
      <trkpt lat="47.21745" lon="6.67569">
        <ele>491</ele>
        <time>2021-07-29T13:28:48Z</time>
      </trkpt>
      <trkpt lat="47.21744" lon="6.67576">
        <ele>491</ele>
        <time>2021-07-29T13:28:49Z</time>
      </trkpt>
      <trkpt lat="47.21743" lon="6.67582">
        <ele>491</ele>
        <time>2021-07-29T13:28:50Z</time>
      </trkpt>
      <trkpt lat="47.21741" lon="6.67589">
        <ele>491.2</ele>
        <time>2021-07-29T13:28:51Z</time>
      </trkpt>
      <trkpt lat="47.2174" lon="6.67595">
        <ele>491.2</ele>
        <time>2021-07-29T13:28:52Z</time>
      </trkpt>
      <trkpt lat="47.21739" lon="6.67601">
        <ele>491.2</ele>
        <time>2021-07-29T13:28:53Z</time>
      </trkpt>
      <trkpt lat="47.21738" lon="6.67607">
        <ele>491.2</ele>
        <time>2021-07-29T13:28:54Z</time>
      </trkpt>
      <trkpt lat="47.21737" lon="6.67614">
        <ele>491.4</ele>
        <time>2021-07-29T13:28:55Z</time>
      </trkpt>
      <trkpt lat="47.21736" lon="6.6762">
        <ele>491.4</ele>
        <time>2021-07-29T13:28:56Z</time>
      </trkpt>
      <trkpt lat="47.21734" lon="6.67626">
        <ele>491.4</ele>
        <time>2021-07-29T13:28:57Z</time>
      </trkpt>
      <trkpt lat="47.21733" lon="6.67633">
        <ele>491.6</ele>
        <time>2021-07-29T13:28:58Z</time>
      </trkpt>
      <trkpt lat="47.21732" lon="6.67641">
        <ele>491.6</ele>
        <time>2021-07-29T13:28:59Z</time>
      </trkpt>
      <trkpt lat="47.21731" lon="6.67648">
        <ele>491.6</ele>
        <time>2021-07-29T13:29:00Z</time>
      </trkpt>
      <trkpt lat="47.2173" lon="6.67655">
        <ele>491.6</ele>
        <time>2021-07-29T13:29:01Z</time>
      </trkpt>
      <trkpt lat="47.2173" lon="6.67662">
        <ele>491.8</ele>
        <time>2021-07-29T13:29:02Z</time>
      </trkpt>
      <trkpt lat="47.21729" lon="6.67669">
        <ele>492</ele>
        <time>2021-07-29T13:29:03Z</time>
      </trkpt>
      <trkpt lat="47.21729" lon="6.67675">
        <ele>492</ele>
        <time>2021-07-29T13:29:04Z</time>
      </trkpt>
      <trkpt lat="47.21728" lon="6.67681">
        <ele>492.2</ele>
        <time>2021-07-29T13:29:05Z</time>
      </trkpt>
      <trkpt lat="47.21728" lon="6.67687">
        <ele>492.2</ele>
        <time>2021-07-29T13:29:06Z</time>
      </trkpt>
      <trkpt lat="47.21727" lon="6.67694">
        <ele>492.4</ele>
        <time>2021-07-29T13:29:07Z</time>
      </trkpt>
      <trkpt lat="47.21726" lon="6.677">
        <ele>492.6</ele>
        <time>2021-07-29T13:29:08Z</time>
      </trkpt>
      <trkpt lat="47.21726" lon="6.67706">
        <ele>492.6</ele>
        <time>2021-07-29T13:29:09Z</time>
      </trkpt>
      <trkpt lat="47.21726" lon="6.67711">
        <ele>492.8</ele>
        <time>2021-07-29T13:29:10Z</time>
      </trkpt>
      <trkpt lat="47.21726" lon="6.67717">
        <ele>492.8</ele>
        <time>2021-07-29T13:29:11Z</time>
      </trkpt>
      <trkpt lat="47.21727" lon="6.67723">
        <ele>493</ele>
        <time>2021-07-29T13:29:12Z</time>
      </trkpt>
      <trkpt lat="47.21727" lon="6.67729">
        <ele>493</ele>
        <time>2021-07-29T13:29:13Z</time>
      </trkpt>
      <trkpt lat="47.21728" lon="6.67735">
        <ele>493.2</ele>
        <time>2021-07-29T13:29:14Z</time>
      </trkpt>
      <trkpt lat="47.21728" lon="6.67741">
        <ele>493.2</ele>
        <time>2021-07-29T13:29:15Z</time>
      </trkpt>
      <trkpt lat="47.21728" lon="6.67746">
        <ele>493.4</ele>
        <time>2021-07-29T13:29:16Z</time>
      </trkpt>
      <trkpt lat="47.21728" lon="6.67752">
        <ele>493.4</ele>
        <time>2021-07-29T13:29:17Z</time>
      </trkpt>
      <trkpt lat="47.21729" lon="6.67758">
        <ele>493.6</ele>
        <time>2021-07-29T13:29:18Z</time>
      </trkpt>
      <trkpt lat="47.2173" lon="6.67763">
        <ele>493.6</ele>
        <time>2021-07-29T13:29:19Z</time>
      </trkpt>
      <trkpt lat="47.2173" lon="6.67769">
        <ele>493.8</ele>
        <time>2021-07-29T13:29:20Z</time>
      </trkpt>
      <trkpt lat="47.2173" lon="6.67774">
        <ele>493.8</ele>
        <time>2021-07-29T13:29:21Z</time>
      </trkpt>
      <trkpt lat="47.2173" lon="6.6778">
        <ele>494</ele>
        <time>2021-07-29T13:29:22Z</time>
      </trkpt>
      <trkpt lat="47.21731" lon="6.67785">
        <ele>494</ele>
        <time>2021-07-29T13:29:23Z</time>
      </trkpt>
      <trkpt lat="47.21732" lon="6.6779">
        <ele>494.2</ele>
        <time>2021-07-29T13:29:24Z</time>
      </trkpt>
      <trkpt lat="47.21733" lon="6.67795">
        <ele>494.2</ele>
        <time>2021-07-29T13:29:25Z</time>
      </trkpt>
      <trkpt lat="47.21734" lon="6.678">
        <ele>494.4</ele>
        <time>2021-07-29T13:29:26Z</time>
      </trkpt>
      <trkpt lat="47.21735" lon="6.67804">
        <ele>494.4</ele>
        <time>2021-07-29T13:29:27Z</time>
      </trkpt>
      <trkpt lat="47.21736" lon="6.67808">
        <ele>494.6</ele>
        <time>2021-07-29T13:29:28Z</time>
      </trkpt>
      <trkpt lat="47.21738" lon="6.67813">
        <ele>494.6</ele>
        <time>2021-07-29T13:29:29Z</time>
      </trkpt>
      <trkpt lat="47.2174" lon="6.67818">
        <ele>494.8</ele>
        <time>2021-07-29T13:29:30Z</time>
      </trkpt>
      <trkpt lat="47.21742" lon="6.67823">
        <ele>494.8</ele>
        <time>2021-07-29T13:29:31Z</time>
      </trkpt>
      <trkpt lat="47.21744" lon="6.67827">
        <ele>495</ele>
        <time>2021-07-29T13:29:32Z</time>
      </trkpt>
      <trkpt lat="47.21746" lon="6.67832">
        <ele>495</ele>
        <time>2021-07-29T13:29:33Z</time>
      </trkpt>
      <trkpt lat="47.21748" lon="6.67836">
        <ele>495.2</ele>
        <time>2021-07-29T13:29:34Z</time>
      </trkpt>
      <trkpt lat="47.2175" lon="6.6784">
        <ele>495.2</ele>
        <time>2021-07-29T13:29:35Z</time>
      </trkpt>
      <trkpt lat="47.21751" lon="6.67845">
        <ele>495.2</ele>
        <time>2021-07-29T13:29:36Z</time>
      </trkpt>
      <trkpt lat="47.21753" lon="6.67849">
        <ele>495.2</ele>
        <time>2021-07-29T13:29:37Z</time>
      </trkpt>
      <trkpt lat="47.21755" lon="6.67853">
        <ele>495.4</ele>
        <time>2021-07-29T13:29:38Z</time>
      </trkpt>
      <trkpt lat="47.21757" lon="6.67858">
        <ele>495.4</ele>
        <time>2021-07-29T13:29:39Z</time>
      </trkpt>
      <trkpt lat="47.21759" lon="6.67862">
        <ele>495.4</ele>
        <time>2021-07-29T13:29:40Z</time>
      </trkpt>
      <trkpt lat="47.2176" lon="6.67867">
        <ele>495.4</ele>
        <time>2021-07-29T13:29:41Z</time>
      </trkpt>
      <trkpt lat="47.21762" lon="6.67872">
        <ele>495.6</ele>
        <time>2021-07-29T13:29:42Z</time>
      </trkpt>
      <trkpt lat="47.21764" lon="6.67877">
        <ele>495.8</ele>
        <time>2021-07-29T13:29:43Z</time>
      </trkpt>
      <trkpt lat="47.21767" lon="6.67882">
        <ele>495.8</ele>
        <time>2021-07-29T13:29:44Z</time>
      </trkpt>
      <trkpt lat="47.21768" lon="6.67887">
        <ele>495.8</ele>
        <time>2021-07-29T13:29:45Z</time>
      </trkpt>
      <trkpt lat="47.2177" lon="6.67892">
        <ele>496</ele>
        <time>2021-07-29T13:29:46Z</time>
      </trkpt>
      <trkpt lat="47.21771" lon="6.67897">
        <ele>496</ele>
        <time>2021-07-29T13:29:47Z</time>
      </trkpt>
      <trkpt lat="47.21773" lon="6.67901">
        <ele>496</ele>
        <time>2021-07-29T13:29:48Z</time>
      </trkpt>
      <trkpt lat="47.21775" lon="6.67906">
        <ele>496.2</ele>
        <time>2021-07-29T13:29:49Z</time>
      </trkpt>
      <trkpt lat="47.21776" lon="6.67911">
        <ele>496.2</ele>
        <time>2021-07-29T13:29:50Z</time>
      </trkpt>
      <trkpt lat="47.21778" lon="6.67916">
        <ele>496.2</ele>
        <time>2021-07-29T13:29:51Z</time>
      </trkpt>
      <trkpt lat="47.21779" lon="6.6792">
        <ele>496.4</ele>
        <time>2021-07-29T13:29:52Z</time>
      </trkpt>
      <trkpt lat="47.21781" lon="6.67925">
        <ele>496.4</ele>
        <time>2021-07-29T13:29:53Z</time>
      </trkpt>
      <trkpt lat="47.21783" lon="6.67929">
        <ele>496.6</ele>
        <time>2021-07-29T13:29:54Z</time>
      </trkpt>
      <trkpt lat="47.21785" lon="6.67933">
        <ele>496.6</ele>
        <time>2021-07-29T13:29:55Z</time>
      </trkpt>
      <trkpt lat="47.21785" lon="6.67937">
        <ele>496.6</ele>
        <time>2021-07-29T13:29:56Z</time>
      </trkpt>
      <trkpt lat="47.21786" lon="6.67942">
        <ele>496.8</ele>
        <time>2021-07-29T13:29:57Z</time>
      </trkpt>
      <trkpt lat="47.21787" lon="6.67946">
        <ele>496.8</ele>
        <time>2021-07-29T13:29:58Z</time>
      </trkpt>
      <trkpt lat="47.21788" lon="6.67951">
        <ele>497</ele>
        <time>2021-07-29T13:29:59Z</time>
      </trkpt>
      <trkpt lat="47.21789" lon="6.67955">
        <ele>497</ele>
        <time>2021-07-29T13:30:00Z</time>
      </trkpt>
      <trkpt lat="47.2179" lon="6.67959">
        <ele>497</ele>
        <time>2021-07-29T13:30:01Z</time>
      </trkpt>
      <trkpt lat="47.21791" lon="6.67963">
        <ele>497.2</ele>
        <time>2021-07-29T13:30:02Z</time>
      </trkpt>
      <trkpt lat="47.21792" lon="6.67968">
        <ele>497.2</ele>
        <time>2021-07-29T13:30:03Z</time>
      </trkpt>
      <trkpt lat="47.21794" lon="6.67973">
        <ele>497.4</ele>
        <time>2021-07-29T13:30:04Z</time>
      </trkpt>
      <trkpt lat="47.21795" lon="6.67978">
        <ele>497.2</ele>
        <time>2021-07-29T13:30:05Z</time>
      </trkpt>
      <trkpt lat="47.21796" lon="6.67983">
        <ele>497</ele>
        <time>2021-07-29T13:30:06Z</time>
      </trkpt>
      <trkpt lat="47.21797" lon="6.67988">
        <ele>497</ele>
        <time>2021-07-29T13:30:07Z</time>
      </trkpt>
      <trkpt lat="47.21799" lon="6.67993">
        <ele>496.8</ele>
        <time>2021-07-29T13:30:08Z</time>
      </trkpt>
      <trkpt lat="47.21801" lon="6.67998">
        <ele>496.6</ele>
        <time>2021-07-29T13:30:09Z</time>
      </trkpt>
      <trkpt lat="47.21803" lon="6.68004">
        <ele>496.4</ele>
        <time>2021-07-29T13:30:10Z</time>
      </trkpt>
      <trkpt lat="47.21804" lon="6.6801">
        <ele>496.2</ele>
        <time>2021-07-29T13:30:11Z</time>
      </trkpt>
      <trkpt lat="47.21806" lon="6.68016">
        <ele>496</ele>
        <time>2021-07-29T13:30:12Z</time>
      </trkpt>
      <trkpt lat="47.21808" lon="6.68023">
        <ele>496</ele>
        <time>2021-07-29T13:30:13Z</time>
      </trkpt>
      <trkpt lat="47.2181" lon="6.6803">
        <ele>495.8</ele>
        <time>2021-07-29T13:30:14Z</time>
      </trkpt>
      <trkpt lat="47.21813" lon="6.68037">
        <ele>495.6</ele>
        <time>2021-07-29T13:30:15Z</time>
      </trkpt>
      <trkpt lat="47.21815" lon="6.68044">
        <ele>495.6</ele>
        <time>2021-07-29T13:30:16Z</time>
      </trkpt>
      <trkpt lat="47.21818" lon="6.68052">
        <ele>495.4</ele>
        <time>2021-07-29T13:30:17Z</time>
      </trkpt>
      <trkpt lat="47.21821" lon="6.68059">
        <ele>495</ele>
        <time>2021-07-29T13:30:18Z</time>
      </trkpt>
      <trkpt lat="47.21824" lon="6.68067">
        <ele>494.8</ele>
        <time>2021-07-29T13:30:19Z</time>
      </trkpt>
      <trkpt lat="47.21827" lon="6.68076">
        <ele>494.4</ele>
        <time>2021-07-29T13:30:20Z</time>
      </trkpt>
      <trkpt lat="47.2183" lon="6.68084">
        <ele>494.2</ele>
        <time>2021-07-29T13:30:21Z</time>
      </trkpt>
      <trkpt lat="47.21833" lon="6.68093">
        <ele>494</ele>
        <time>2021-07-29T13:30:22Z</time>
      </trkpt>
      <trkpt lat="47.21836" lon="6.68102">
        <ele>493.8</ele>
        <time>2021-07-29T13:30:23Z</time>
      </trkpt>
      <trkpt lat="47.21839" lon="6.68111">
        <ele>493.6</ele>
        <time>2021-07-29T13:30:24Z</time>
      </trkpt>
      <trkpt lat="47.21842" lon="6.68121">
        <ele>493.2</ele>
        <time>2021-07-29T13:30:25Z</time>
      </trkpt>
      <trkpt lat="47.21846" lon="6.68131">
        <ele>493</ele>
        <time>2021-07-29T13:30:26Z</time>
      </trkpt>
      <trkpt lat="47.21849" lon="6.68141">
        <ele>492.6</ele>
        <time>2021-07-29T13:30:27Z</time>
      </trkpt>
      <trkpt lat="47.21853" lon="6.68151">
        <ele>492.4</ele>
        <time>2021-07-29T13:30:28Z</time>
      </trkpt>
      <trkpt lat="47.21856" lon="6.68161">
        <ele>492.2</ele>
        <time>2021-07-29T13:30:29Z</time>
      </trkpt>
      <trkpt lat="47.2186" lon="6.68172">
        <ele>491.8</ele>
        <time>2021-07-29T13:30:30Z</time>
      </trkpt>
      <trkpt lat="47.21864" lon="6.68182">
        <ele>491.6</ele>
        <time>2021-07-29T13:30:31Z</time>
      </trkpt>
      <trkpt lat="47.21868" lon="6.68193">
        <ele>491.2</ele>
        <time>2021-07-29T13:30:32Z</time>
      </trkpt>
      <trkpt lat="47.21871" lon="6.68204">
        <ele>491</ele>
        <time>2021-07-29T13:30:33Z</time>
      </trkpt>
      <trkpt lat="47.21875" lon="6.68216">
        <ele>490.6</ele>
        <time>2021-07-29T13:30:34Z</time>
      </trkpt>
      <trkpt lat="47.21879" lon="6.68227">
        <ele>490.4</ele>
        <time>2021-07-29T13:30:35Z</time>
      </trkpt>
      <trkpt lat="47.21883" lon="6.68238">
        <ele>490.2</ele>
        <time>2021-07-29T13:30:36Z</time>
      </trkpt>
      <trkpt lat="47.21886" lon="6.6825">
        <ele>489.8</ele>
        <time>2021-07-29T13:30:37Z</time>
      </trkpt>
      <trkpt lat="47.21889" lon="6.68262">
        <ele>489.4</ele>
        <time>2021-07-29T13:30:38Z</time>
      </trkpt>
      <trkpt lat="47.21892" lon="6.68274">
        <ele>489</ele>
        <time>2021-07-29T13:30:39Z</time>
      </trkpt>
      <trkpt lat="47.21895" lon="6.68286">
        <ele>488.6</ele>
        <time>2021-07-29T13:30:40Z</time>
      </trkpt>
      <trkpt lat="47.21898" lon="6.68298">
        <ele>488.2</ele>
        <time>2021-07-29T13:30:41Z</time>
      </trkpt>
      <trkpt lat="47.219" lon="6.68311">
        <ele>488</ele>
        <time>2021-07-29T13:30:42Z</time>
      </trkpt>
      <trkpt lat="47.21901" lon="6.68324">
        <ele>487.8</ele>
        <time>2021-07-29T13:30:43Z</time>
      </trkpt>
      <trkpt lat="47.21902" lon="6.68337">
        <ele>487.4</ele>
        <time>2021-07-29T13:30:44Z</time>
      </trkpt>
      <trkpt lat="47.21903" lon="6.6835">
        <ele>486.8</ele>
        <time>2021-07-29T13:30:45Z</time>
      </trkpt>
      <trkpt lat="47.21904" lon="6.68363">
        <ele>486.4</ele>
        <time>2021-07-29T13:30:46Z</time>
      </trkpt>
      <trkpt lat="47.21905" lon="6.68377">
        <ele>486</ele>
        <time>2021-07-29T13:30:47Z</time>
      </trkpt>
      <trkpt lat="47.21906" lon="6.6839">
        <ele>485.6</ele>
        <time>2021-07-29T13:30:48Z</time>
      </trkpt>
      <trkpt lat="47.21907" lon="6.68404">
        <ele>485.2</ele>
        <time>2021-07-29T13:30:49Z</time>
      </trkpt>
      <trkpt lat="47.21908" lon="6.68418">
        <ele>484.8</ele>
        <time>2021-07-29T13:30:50Z</time>
      </trkpt>
      <trkpt lat="47.21909" lon="6.68432">
        <ele>484.4</ele>
        <time>2021-07-29T13:30:51Z</time>
      </trkpt>
      <trkpt lat="47.2191" lon="6.68446">
        <ele>484.2</ele>
        <time>2021-07-29T13:30:52Z</time>
      </trkpt>
      <trkpt lat="47.21912" lon="6.6846">
        <ele>484.2</ele>
        <time>2021-07-29T13:30:53Z</time>
      </trkpt>
      <trkpt lat="47.21914" lon="6.68474">
        <ele>484</ele>
        <time>2021-07-29T13:30:54Z</time>
      </trkpt>
      <trkpt lat="47.21916" lon="6.68488">
        <ele>484</ele>
        <time>2021-07-29T13:30:55Z</time>
      </trkpt>
      <trkpt lat="47.21918" lon="6.68501">
        <ele>483.4</ele>
        <time>2021-07-29T13:30:56Z</time>
      </trkpt>
      <trkpt lat="47.21919" lon="6.68518">
        <ele>483.2</ele>
        <time>2021-07-29T13:30:57Z</time>
      </trkpt>
      <trkpt lat="47.21919" lon="6.68533">
        <ele>482.4</ele>
        <time>2021-07-29T13:30:58Z</time>
      </trkpt>
      <trkpt lat="47.21917" lon="6.68547">
        <ele>481.8</ele>
        <time>2021-07-29T13:30:59Z</time>
      </trkpt>
      <trkpt lat="47.21916" lon="6.68562">
        <ele>481.2</ele>
        <time>2021-07-29T13:31:00Z</time>
      </trkpt>
      <trkpt lat="47.21913" lon="6.68577">
        <ele>480.8</ele>
        <time>2021-07-29T13:31:01Z</time>
      </trkpt>
      <trkpt lat="47.21911" lon="6.68591">
        <ele>480</ele>
        <time>2021-07-29T13:31:02Z</time>
      </trkpt>
      <trkpt lat="47.21908" lon="6.68605">
        <ele>479.4</ele>
        <time>2021-07-29T13:31:03Z</time>
      </trkpt>
      <trkpt lat="47.21906" lon="6.68618">
        <ele>478.6</ele>
        <time>2021-07-29T13:31:04Z</time>
      </trkpt>
      <trkpt lat="47.21904" lon="6.68631">
        <ele>478</ele>
        <time>2021-07-29T13:31:05Z</time>
      </trkpt>
      <trkpt lat="47.21902" lon="6.68644">
        <ele>477.8</ele>
        <time>2021-07-29T13:31:06Z</time>
      </trkpt>
      <trkpt lat="47.21901" lon="6.68657">
        <ele>477.2</ele>
        <time>2021-07-29T13:31:07Z</time>
      </trkpt>
      <trkpt lat="47.21899" lon="6.68669">
        <ele>477.2</ele>
        <time>2021-07-29T13:31:08Z</time>
      </trkpt>
      <trkpt lat="47.21897" lon="6.68682">
        <ele>476.8</ele>
        <time>2021-07-29T13:31:09Z</time>
      </trkpt>
      <trkpt lat="47.21896" lon="6.68695">
        <ele>476.6</ele>
        <time>2021-07-29T13:31:10Z</time>
      </trkpt>
      <trkpt lat="47.21895" lon="6.68707">
        <ele>476.4</ele>
        <time>2021-07-29T13:31:11Z</time>
      </trkpt>
      <trkpt lat="47.21894" lon="6.68719">
        <ele>476.2</ele>
        <time>2021-07-29T13:31:12Z</time>
      </trkpt>
      <trkpt lat="47.21893" lon="6.68731">
        <ele>476.2</ele>
        <time>2021-07-29T13:31:13Z</time>
      </trkpt>
      <trkpt lat="47.21893" lon="6.68742">
        <ele>476</ele>
        <time>2021-07-29T13:31:14Z</time>
      </trkpt>
      <trkpt lat="47.21893" lon="6.68754">
        <ele>475.8</ele>
        <time>2021-07-29T13:31:15Z</time>
      </trkpt>
      <trkpt lat="47.21893" lon="6.68765">
        <ele>475.8</ele>
        <time>2021-07-29T13:31:16Z</time>
      </trkpt>
      <trkpt lat="47.21894" lon="6.68775">
        <ele>475.8</ele>
        <time>2021-07-29T13:31:17Z</time>
      </trkpt>
      <trkpt lat="47.21894" lon="6.68785">
        <ele>475.8</ele>
        <time>2021-07-29T13:31:18Z</time>
      </trkpt>
      <trkpt lat="47.21895" lon="6.68795">
        <ele>475.6</ele>
        <time>2021-07-29T13:31:19Z</time>
      </trkpt>
      <trkpt lat="47.21896" lon="6.68805">
        <ele>475.6</ele>
        <time>2021-07-29T13:31:20Z</time>
      </trkpt>
      <trkpt lat="47.21897" lon="6.68814">
        <ele>475.6</ele>
        <time>2021-07-29T13:31:21Z</time>
      </trkpt>
      <trkpt lat="47.21899" lon="6.68823">
        <ele>475.6</ele>
        <time>2021-07-29T13:31:22Z</time>
      </trkpt>
      <trkpt lat="47.219" lon="6.68832">
        <ele>475.8</ele>
        <time>2021-07-29T13:31:23Z</time>
      </trkpt>
      <trkpt lat="47.219" lon="6.68841">
        <ele>475.8</ele>
        <time>2021-07-29T13:31:24Z</time>
      </trkpt>
      <trkpt lat="47.21902" lon="6.6885">
        <ele>475.8</ele>
        <time>2021-07-29T13:31:25Z</time>
      </trkpt>
      <trkpt lat="47.21903" lon="6.68859">
        <ele>475.6</ele>
        <time>2021-07-29T13:31:26Z</time>
      </trkpt>
      <trkpt lat="47.21904" lon="6.68868">
        <ele>475.6</ele>
        <time>2021-07-29T13:31:27Z</time>
      </trkpt>
      <trkpt lat="47.21905" lon="6.68877">
        <ele>475.6</ele>
        <time>2021-07-29T13:31:28Z</time>
      </trkpt>
      <trkpt lat="47.21906" lon="6.68886">
        <ele>475.6</ele>
        <time>2021-07-29T13:31:29Z</time>
      </trkpt>
      <trkpt lat="47.21907" lon="6.68895">
        <ele>475.6</ele>
        <time>2021-07-29T13:31:30Z</time>
      </trkpt>
      <trkpt lat="47.21909" lon="6.68904">
        <ele>475.6</ele>
        <time>2021-07-29T13:31:31Z</time>
      </trkpt>
      <trkpt lat="47.2191" lon="6.68912">
        <ele>475.4</ele>
        <time>2021-07-29T13:31:32Z</time>
      </trkpt>
      <trkpt lat="47.21911" lon="6.68921">
        <ele>475.4</ele>
        <time>2021-07-29T13:31:33Z</time>
      </trkpt>
      <trkpt lat="47.21913" lon="6.6893">
        <ele>475.4</ele>
        <time>2021-07-29T13:31:34Z</time>
      </trkpt>
      <trkpt lat="47.21914" lon="6.68939">
        <ele>475.4</ele>
        <time>2021-07-29T13:31:35Z</time>
      </trkpt>
      <trkpt lat="47.21915" lon="6.68948">
        <ele>475.4</ele>
        <time>2021-07-29T13:31:36Z</time>
      </trkpt>
      <trkpt lat="47.21916" lon="6.68956">
        <ele>475.2</ele>
        <time>2021-07-29T13:31:37Z</time>
      </trkpt>
      <trkpt lat="47.21917" lon="6.68965">
        <ele>475.2</ele>
        <time>2021-07-29T13:31:38Z</time>
      </trkpt>
      <trkpt lat="47.21918" lon="6.68973">
        <ele>475.2</ele>
        <time>2021-07-29T13:31:39Z</time>
      </trkpt>
      <trkpt lat="47.21919" lon="6.68982">
        <ele>475.2</ele>
        <time>2021-07-29T13:31:40Z</time>
      </trkpt>
      <trkpt lat="47.2192" lon="6.6899">
        <ele>475.2</ele>
        <time>2021-07-29T13:31:41Z</time>
      </trkpt>
      <trkpt lat="47.21921" lon="6.68998">
        <ele>475</ele>
        <time>2021-07-29T13:31:42Z</time>
      </trkpt>
      <trkpt lat="47.21922" lon="6.69006">
        <ele>475</ele>
        <time>2021-07-29T13:31:43Z</time>
      </trkpt>
      <trkpt lat="47.21923" lon="6.69014">
        <ele>475</ele>
        <time>2021-07-29T13:31:44Z</time>
      </trkpt>
      <trkpt lat="47.21924" lon="6.69022">
        <ele>475</ele>
        <time>2021-07-29T13:31:45Z</time>
      </trkpt>
      <trkpt lat="47.21925" lon="6.6903">
        <ele>474.8</ele>
        <time>2021-07-29T13:31:46Z</time>
      </trkpt>
      <trkpt lat="47.21926" lon="6.69039">
        <ele>474.8</ele>
        <time>2021-07-29T13:31:47Z</time>
      </trkpt>
      <trkpt lat="47.21927" lon="6.69047">
        <ele>474.8</ele>
        <time>2021-07-29T13:31:48Z</time>
      </trkpt>
      <trkpt lat="47.21927" lon="6.69056">
        <ele>474.8</ele>
        <time>2021-07-29T13:31:49Z</time>
      </trkpt>
      <trkpt lat="47.21928" lon="6.69064">
        <ele>474.8</ele>
        <time>2021-07-29T13:31:50Z</time>
      </trkpt>
      <trkpt lat="47.21928" lon="6.69072">
        <ele>474.8</ele>
        <time>2021-07-29T13:31:51Z</time>
      </trkpt>
      <trkpt lat="47.2193" lon="6.69081">
        <ele>474.6</ele>
        <time>2021-07-29T13:31:52Z</time>
      </trkpt>
      <trkpt lat="47.21931" lon="6.6909">
        <ele>474.4</ele>
        <time>2021-07-29T13:31:53Z</time>
      </trkpt>
      <trkpt lat="47.21931" lon="6.69098">
        <ele>474.2</ele>
        <time>2021-07-29T13:31:54Z</time>
      </trkpt>
      <trkpt lat="47.21931" lon="6.69107">
        <ele>474.2</ele>
        <time>2021-07-29T13:31:55Z</time>
      </trkpt>
      <trkpt lat="47.21932" lon="6.69116">
        <ele>474</ele>
        <time>2021-07-29T13:31:56Z</time>
      </trkpt>
      <trkpt lat="47.21933" lon="6.69124">
        <ele>473.8</ele>
        <time>2021-07-29T13:31:57Z</time>
      </trkpt>
      <trkpt lat="47.21934" lon="6.69133">
        <ele>473.8</ele>
        <time>2021-07-29T13:31:58Z</time>
      </trkpt>
      <trkpt lat="47.21935" lon="6.69142">
        <ele>473.8</ele>
        <time>2021-07-29T13:31:59Z</time>
      </trkpt>
      <trkpt lat="47.21936" lon="6.69151">
        <ele>473.8</ele>
        <time>2021-07-29T13:32:00Z</time>
      </trkpt>
      <trkpt lat="47.21937" lon="6.6916">
        <ele>473.8</ele>
        <time>2021-07-29T13:32:01Z</time>
      </trkpt>
      <trkpt lat="47.21938" lon="6.69169">
        <ele>473.8</ele>
        <time>2021-07-29T13:32:02Z</time>
      </trkpt>
      <trkpt lat="47.2194" lon="6.69178">
        <ele>473.8</ele>
        <time>2021-07-29T13:32:03Z</time>
      </trkpt>
      <trkpt lat="47.21941" lon="6.69187">
        <ele>473.8</ele>
        <time>2021-07-29T13:32:04Z</time>
      </trkpt>
      <trkpt lat="47.21942" lon="6.69196">
        <ele>473.6</ele>
        <time>2021-07-29T13:32:05Z</time>
      </trkpt>
      <trkpt lat="47.21944" lon="6.69205">
        <ele>473.6</ele>
        <time>2021-07-29T13:32:06Z</time>
      </trkpt>
      <trkpt lat="47.21945" lon="6.69214">
        <ele>473.6</ele>
        <time>2021-07-29T13:32:07Z</time>
      </trkpt>
      <trkpt lat="47.21947" lon="6.69223">
        <ele>473.6</ele>
        <time>2021-07-29T13:32:08Z</time>
      </trkpt>
      <trkpt lat="47.21949" lon="6.69232">
        <ele>473.6</ele>
        <time>2021-07-29T13:32:09Z</time>
      </trkpt>
      <trkpt lat="47.21951" lon="6.6924">
        <ele>473.6</ele>
        <time>2021-07-29T13:32:10Z</time>
      </trkpt>
      <trkpt lat="47.21953" lon="6.69249">
        <ele>473.6</ele>
        <time>2021-07-29T13:32:11Z</time>
      </trkpt>
      <trkpt lat="47.21954" lon="6.69257">
        <ele>473.6</ele>
        <time>2021-07-29T13:32:12Z</time>
      </trkpt>
      <trkpt lat="47.21955" lon="6.69265">
        <ele>473.6</ele>
        <time>2021-07-29T13:32:13Z</time>
      </trkpt>
      <trkpt lat="47.21956" lon="6.69273">
        <ele>473.6</ele>
        <time>2021-07-29T13:32:14Z</time>
      </trkpt>
      <trkpt lat="47.21957" lon="6.69281">
        <ele>473.6</ele>
        <time>2021-07-29T13:32:15Z</time>
      </trkpt>
      <trkpt lat="47.21958" lon="6.69288">
        <ele>473.6</ele>
        <time>2021-07-29T13:32:16Z</time>
      </trkpt>
      <trkpt lat="47.21958" lon="6.69296">
        <ele>473.6</ele>
        <time>2021-07-29T13:32:17Z</time>
      </trkpt>
      <trkpt lat="47.21959" lon="6.69304">
        <ele>473.4</ele>
        <time>2021-07-29T13:32:18Z</time>
      </trkpt>
      <trkpt lat="47.2196" lon="6.69311">
        <ele>473.4</ele>
        <time>2021-07-29T13:32:19Z</time>
      </trkpt>
      <trkpt lat="47.2196" lon="6.69319">
        <ele>473.4</ele>
        <time>2021-07-29T13:32:20Z</time>
      </trkpt>
      <trkpt lat="47.2196" lon="6.69326">
        <ele>473.4</ele>
        <time>2021-07-29T13:32:21Z</time>
      </trkpt>
      <trkpt lat="47.21961" lon="6.69333">
        <ele>473.4</ele>
        <time>2021-07-29T13:32:22Z</time>
      </trkpt>
      <trkpt lat="47.21962" lon="6.69341">
        <ele>473.4</ele>
        <time>2021-07-29T13:32:23Z</time>
      </trkpt>
      <trkpt lat="47.21962" lon="6.69349">
        <ele>473.4</ele>
        <time>2021-07-29T13:32:24Z</time>
      </trkpt>
      <trkpt lat="47.21963" lon="6.69356">
        <ele>473.4</ele>
        <time>2021-07-29T13:32:25Z</time>
      </trkpt>
      <trkpt lat="47.21964" lon="6.69363">
        <ele>473.4</ele>
        <time>2021-07-29T13:32:26Z</time>
      </trkpt>
      <trkpt lat="47.21964" lon="6.6937">
        <ele>473.4</ele>
        <time>2021-07-29T13:32:27Z</time>
      </trkpt>
      <trkpt lat="47.21966" lon="6.69377">
        <ele>473.4</ele>
        <time>2021-07-29T13:32:28Z</time>
      </trkpt>
      <trkpt lat="47.21965" lon="6.69384">
        <ele>473.4</ele>
        <time>2021-07-29T13:32:29Z</time>
      </trkpt>
      <trkpt lat="47.21966" lon="6.69391">
        <ele>473.4</ele>
        <time>2021-07-29T13:32:30Z</time>
      </trkpt>
      <trkpt lat="47.21967" lon="6.69399">
        <ele>473.4</ele>
        <time>2021-07-29T13:32:31Z</time>
      </trkpt>
      <trkpt lat="47.21969" lon="6.69407">
        <ele>473.4</ele>
        <time>2021-07-29T13:32:32Z</time>
      </trkpt>
      <trkpt lat="47.21972" lon="6.69414">
        <ele>473.4</ele>
        <time>2021-07-29T13:32:33Z</time>
      </trkpt>
      <trkpt lat="47.21974" lon="6.69422">
        <ele>473.4</ele>
        <time>2021-07-29T13:32:34Z</time>
      </trkpt>
      <trkpt lat="47.21976" lon="6.6943">
        <ele>473.4</ele>
        <time>2021-07-29T13:32:35Z</time>
      </trkpt>
      <trkpt lat="47.21981" lon="6.69438">
        <ele>473.4</ele>
        <time>2021-07-29T13:32:36Z</time>
      </trkpt>
      <trkpt lat="47.21985" lon="6.69446">
        <ele>473.4</ele>
        <time>2021-07-29T13:32:37Z</time>
      </trkpt>
      <trkpt lat="47.21989" lon="6.69453">
        <ele>473.4</ele>
        <time>2021-07-29T13:32:38Z</time>
      </trkpt>
      <trkpt lat="47.21993" lon="6.69459">
        <ele>473.6</ele>
        <time>2021-07-29T13:32:39Z</time>
      </trkpt>
      <trkpt lat="47.21997" lon="6.69464">
        <ele>473.6</ele>
        <time>2021-07-29T13:32:40Z</time>
      </trkpt>
      <trkpt lat="47.22002" lon="6.6947">
        <ele>473.6</ele>
        <time>2021-07-29T13:32:41Z</time>
      </trkpt>
      <trkpt lat="47.22007" lon="6.69476">
        <ele>473.4</ele>
        <time>2021-07-29T13:32:42Z</time>
      </trkpt>
      <trkpt lat="47.22012" lon="6.69481">
        <ele>473.4</ele>
        <time>2021-07-29T13:32:43Z</time>
      </trkpt>
      <trkpt lat="47.22016" lon="6.69486">
        <ele>473.4</ele>
        <time>2021-07-29T13:32:44Z</time>
      </trkpt>
      <trkpt lat="47.22021" lon="6.6949">
        <ele>473.2</ele>
        <time>2021-07-29T13:32:45Z</time>
      </trkpt>
      <trkpt lat="47.22026" lon="6.69495">
        <ele>473.2</ele>
        <time>2021-07-29T13:32:46Z</time>
      </trkpt>
      <trkpt lat="47.22031" lon="6.69499">
        <ele>473.2</ele>
        <time>2021-07-29T13:32:47Z</time>
      </trkpt>
      <trkpt lat="47.22035" lon="6.69504">
        <ele>473.2</ele>
        <time>2021-07-29T13:32:48Z</time>
      </trkpt>
      <trkpt lat="47.22041" lon="6.69508">
        <ele>473.2</ele>
        <time>2021-07-29T13:32:49Z</time>
      </trkpt>
      <trkpt lat="47.22047" lon="6.69512">
        <ele>473.2</ele>
        <time>2021-07-29T13:32:50Z</time>
      </trkpt>
      <trkpt lat="47.22052" lon="6.69517">
        <ele>473.2</ele>
        <time>2021-07-29T13:32:51Z</time>
      </trkpt>
      <trkpt lat="47.22057" lon="6.69521">
        <ele>473</ele>
        <time>2021-07-29T13:32:52Z</time>
      </trkpt>
      <trkpt lat="47.22062" lon="6.69526">
        <ele>473.2</ele>
        <time>2021-07-29T13:32:53Z</time>
      </trkpt>
      <trkpt lat="47.22066" lon="6.69531">
        <ele>473</ele>
        <time>2021-07-29T13:32:54Z</time>
      </trkpt>
      <trkpt lat="47.22071" lon="6.69536">
        <ele>473</ele>
        <time>2021-07-29T13:32:55Z</time>
      </trkpt>
      <trkpt lat="47.22075" lon="6.69542">
        <ele>473</ele>
        <time>2021-07-29T13:32:56Z</time>
      </trkpt>
      <trkpt lat="47.22079" lon="6.69547">
        <ele>473</ele>
        <time>2021-07-29T13:32:57Z</time>
      </trkpt>
      <trkpt lat="47.22084" lon="6.69552">
        <ele>473</ele>
        <time>2021-07-29T13:32:58Z</time>
      </trkpt>
      <trkpt lat="47.22089" lon="6.69558">
        <ele>473</ele>
        <time>2021-07-29T13:32:59Z</time>
      </trkpt>
      <trkpt lat="47.22093" lon="6.69563">
        <ele>473</ele>
        <time>2021-07-29T13:33:00Z</time>
      </trkpt>
      <trkpt lat="47.22097" lon="6.69568">
        <ele>473</ele>
        <time>2021-07-29T13:33:01Z</time>
      </trkpt>
      <trkpt lat="47.22102" lon="6.69573">
        <ele>473</ele>
        <time>2021-07-29T13:33:02Z</time>
      </trkpt>
      <trkpt lat="47.22106" lon="6.69578">
        <ele>473.2</ele>
        <time>2021-07-29T13:33:03Z</time>
      </trkpt>
      <trkpt lat="47.2211" lon="6.69584">
        <ele>473</ele>
        <time>2021-07-29T13:33:04Z</time>
      </trkpt>
      <trkpt lat="47.22115" lon="6.69589">
        <ele>473</ele>
        <time>2021-07-29T13:33:05Z</time>
      </trkpt>
      <trkpt lat="47.22119" lon="6.69593">
        <ele>473.2</ele>
        <time>2021-07-29T13:33:06Z</time>
      </trkpt>
      <trkpt lat="47.22123" lon="6.69598">
        <ele>473.2</ele>
        <time>2021-07-29T13:33:07Z</time>
      </trkpt>
      <trkpt lat="47.22127" lon="6.69603">
        <ele>473.2</ele>
        <time>2021-07-29T13:33:08Z</time>
      </trkpt>
      <trkpt lat="47.22131" lon="6.69609">
        <ele>473.2</ele>
        <time>2021-07-29T13:33:09Z</time>
      </trkpt>
      <trkpt lat="47.22135" lon="6.69613">
        <ele>473.2</ele>
        <time>2021-07-29T13:33:10Z</time>
      </trkpt>
      <trkpt lat="47.22139" lon="6.69618">
        <ele>473.4</ele>
        <time>2021-07-29T13:33:11Z</time>
      </trkpt>
      <trkpt lat="47.22143" lon="6.69622">
        <ele>473.4</ele>
        <time>2021-07-29T13:33:12Z</time>
      </trkpt>
      <trkpt lat="47.22147" lon="6.69627">
        <ele>473.4</ele>
        <time>2021-07-29T13:33:13Z</time>
      </trkpt>
      <trkpt lat="47.22151" lon="6.69631">
        <ele>473.4</ele>
        <time>2021-07-29T13:33:14Z</time>
      </trkpt>
      <trkpt lat="47.22157" lon="6.69635">
        <ele>473.4</ele>
        <time>2021-07-29T13:33:15Z</time>
      </trkpt>
      <trkpt lat="47.22161" lon="6.6964">
        <ele>473.6</ele>
        <time>2021-07-29T13:33:16Z</time>
      </trkpt>
      <trkpt lat="47.22166" lon="6.69644">
        <ele>473.6</ele>
        <time>2021-07-29T13:33:17Z</time>
      </trkpt>
      <trkpt lat="47.22171" lon="6.69647">
        <ele>473.6</ele>
        <time>2021-07-29T13:33:18Z</time>
      </trkpt>
      <trkpt lat="47.22175" lon="6.69651">
        <ele>473.6</ele>
        <time>2021-07-29T13:33:19Z</time>
      </trkpt>
      <trkpt lat="47.22179" lon="6.69655">
        <ele>473.6</ele>
        <time>2021-07-29T13:33:20Z</time>
      </trkpt>
      <trkpt lat="47.22184" lon="6.69659">
        <ele>473.6</ele>
        <time>2021-07-29T13:33:21Z</time>
      </trkpt>
      <trkpt lat="47.22188" lon="6.69663">
        <ele>473.6</ele>
        <time>2021-07-29T13:33:22Z</time>
      </trkpt>
      <trkpt lat="47.22192" lon="6.69667">
        <ele>473.6</ele>
        <time>2021-07-29T13:33:23Z</time>
      </trkpt>
      <trkpt lat="47.22197" lon="6.6967">
        <ele>473.6</ele>
        <time>2021-07-29T13:33:24Z</time>
      </trkpt>
      <trkpt lat="47.22202" lon="6.69674">
        <ele>473.6</ele>
        <time>2021-07-29T13:33:25Z</time>
      </trkpt>
      <trkpt lat="47.22206" lon="6.69677">
        <ele>473.6</ele>
        <time>2021-07-29T13:33:26Z</time>
      </trkpt>
      <trkpt lat="47.22211" lon="6.6968">
        <ele>473.6</ele>
        <time>2021-07-29T13:33:27Z</time>
      </trkpt>
      <trkpt lat="47.22216" lon="6.69682">
        <ele>473.6</ele>
        <time>2021-07-29T13:33:28Z</time>
      </trkpt>
      <trkpt lat="47.2222" lon="6.69685">
        <ele>473.6</ele>
        <time>2021-07-29T13:33:29Z</time>
      </trkpt>
      <trkpt lat="47.22225" lon="6.69687">
        <ele>473.6</ele>
        <time>2021-07-29T13:33:30Z</time>
      </trkpt>
      <trkpt lat="47.2223" lon="6.6969">
        <ele>473.6</ele>
        <time>2021-07-29T13:33:31Z</time>
      </trkpt>
      <trkpt lat="47.22234" lon="6.69692">
        <ele>473.6</ele>
        <time>2021-07-29T13:33:32Z</time>
      </trkpt>
      <trkpt lat="47.22238" lon="6.69695">
        <ele>473.6</ele>
        <time>2021-07-29T13:33:33Z</time>
      </trkpt>
      <trkpt lat="47.22242" lon="6.69697">
        <ele>473.6</ele>
        <time>2021-07-29T13:33:34Z</time>
      </trkpt>
      <trkpt lat="47.22247" lon="6.69699">
        <ele>473.6</ele>
        <time>2021-07-29T13:33:35Z</time>
      </trkpt>
      <trkpt lat="47.2225" lon="6.69701">
        <ele>473.6</ele>
        <time>2021-07-29T13:33:36Z</time>
      </trkpt>
      <trkpt lat="47.22255" lon="6.69703">
        <ele>473.4</ele>
        <time>2021-07-29T13:33:37Z</time>
      </trkpt>
      <trkpt lat="47.2226" lon="6.69706">
        <ele>473.4</ele>
        <time>2021-07-29T13:33:38Z</time>
      </trkpt>
      <trkpt lat="47.22263" lon="6.69709">
        <ele>473.4</ele>
        <time>2021-07-29T13:33:39Z</time>
      </trkpt>
      <trkpt lat="47.22267" lon="6.69711">
        <ele>473.4</ele>
        <time>2021-07-29T13:33:40Z</time>
      </trkpt>
      <trkpt lat="47.2227" lon="6.69713">
        <ele>473.4</ele>
        <time>2021-07-29T13:33:41Z</time>
      </trkpt>
      <trkpt lat="47.22276" lon="6.69716">
        <ele>473.4</ele>
        <time>2021-07-29T13:33:42Z</time>
      </trkpt>
      <trkpt lat="47.22282" lon="6.69719">
        <ele>473.2</ele>
        <time>2021-07-29T13:33:43Z</time>
      </trkpt>
      <trkpt lat="47.22288" lon="6.69722">
        <ele>473.2</ele>
        <time>2021-07-29T13:33:44Z</time>
      </trkpt>
      <trkpt lat="47.22293" lon="6.69726">
        <ele>473</ele>
        <time>2021-07-29T13:33:45Z</time>
      </trkpt>
      <trkpt lat="47.22299" lon="6.69729">
        <ele>473</ele>
        <time>2021-07-29T13:33:46Z</time>
      </trkpt>
      <trkpt lat="47.22303" lon="6.69733">
        <ele>473</ele>
        <time>2021-07-29T13:33:47Z</time>
      </trkpt>
      <trkpt lat="47.22309" lon="6.69737">
        <ele>473</ele>
        <time>2021-07-29T13:33:48Z</time>
      </trkpt>
      <trkpt lat="47.22314" lon="6.69741">
        <ele>473</ele>
        <time>2021-07-29T13:33:49Z</time>
      </trkpt>
      <trkpt lat="47.22318" lon="6.69745">
        <ele>473</ele>
        <time>2021-07-29T13:33:50Z</time>
      </trkpt>
      <trkpt lat="47.22322" lon="6.6975">
        <ele>473</ele>
        <time>2021-07-29T13:33:51Z</time>
      </trkpt>
      <trkpt lat="47.22326" lon="6.69755">
        <ele>473</ele>
        <time>2021-07-29T13:33:52Z</time>
      </trkpt>
      <trkpt lat="47.22331" lon="6.69759">
        <ele>473.2</ele>
        <time>2021-07-29T13:33:53Z</time>
      </trkpt>
      <trkpt lat="47.22335" lon="6.69764">
        <ele>473.2</ele>
        <time>2021-07-29T13:33:54Z</time>
      </trkpt>
      <trkpt lat="47.22339" lon="6.69768">
        <ele>473.2</ele>
        <time>2021-07-29T13:33:55Z</time>
      </trkpt>
      <trkpt lat="47.22344" lon="6.69772">
        <ele>473.2</ele>
        <time>2021-07-29T13:33:56Z</time>
      </trkpt>
      <trkpt lat="47.22348" lon="6.69777">
        <ele>473.2</ele>
        <time>2021-07-29T13:33:57Z</time>
      </trkpt>
      <trkpt lat="47.22352" lon="6.69781">
        <ele>473.2</ele>
        <time>2021-07-29T13:33:58Z</time>
      </trkpt>
      <trkpt lat="47.22356" lon="6.69785">
        <ele>473.2</ele>
        <time>2021-07-29T13:33:59Z</time>
      </trkpt>
      <trkpt lat="47.2236" lon="6.6979">
        <ele>473.2</ele>
        <time>2021-07-29T13:34:00Z</time>
      </trkpt>
      <trkpt lat="47.22364" lon="6.69794">
        <ele>473.2</ele>
        <time>2021-07-29T13:34:01Z</time>
      </trkpt>
      <trkpt lat="47.22369" lon="6.69799">
        <ele>473.4</ele>
        <time>2021-07-29T13:34:02Z</time>
      </trkpt>
      <trkpt lat="47.22373" lon="6.69803">
        <ele>473.4</ele>
        <time>2021-07-29T13:34:03Z</time>
      </trkpt>
      <trkpt lat="47.22376" lon="6.69807">
        <ele>473.4</ele>
        <time>2021-07-29T13:34:04Z</time>
      </trkpt>
      <trkpt lat="47.22381" lon="6.69812">
        <ele>473.2</ele>
        <time>2021-07-29T13:34:05Z</time>
      </trkpt>
      <trkpt lat="47.22385" lon="6.69816">
        <ele>473.2</ele>
        <time>2021-07-29T13:34:06Z</time>
      </trkpt>
      <trkpt lat="47.22389" lon="6.69821">
        <ele>473.2</ele>
        <time>2021-07-29T13:34:07Z</time>
      </trkpt>
      <trkpt lat="47.22393" lon="6.69825">
        <ele>473.2</ele>
        <time>2021-07-29T13:34:08Z</time>
      </trkpt>
      <trkpt lat="47.22397" lon="6.69831">
        <ele>473.2</ele>
        <time>2021-07-29T13:34:09Z</time>
      </trkpt>
      <trkpt lat="47.22401" lon="6.69836">
        <ele>472.8</ele>
        <time>2021-07-29T13:34:10Z</time>
      </trkpt>
      <trkpt lat="47.22405" lon="6.69842">
        <ele>472.8</ele>
        <time>2021-07-29T13:34:11Z</time>
      </trkpt>
      <trkpt lat="47.22408" lon="6.69848">
        <ele>472.8</ele>
        <time>2021-07-29T13:34:12Z</time>
      </trkpt>
      <trkpt lat="47.22411" lon="6.69855">
        <ele>472.8</ele>
        <time>2021-07-29T13:34:13Z</time>
      </trkpt>
      <trkpt lat="47.22413" lon="6.69862">
        <ele>473</ele>
        <time>2021-07-29T13:34:14Z</time>
      </trkpt>
      <trkpt lat="47.22415" lon="6.69869">
        <ele>473.2</ele>
        <time>2021-07-29T13:34:15Z</time>
      </trkpt>
      <trkpt lat="47.22416" lon="6.69876">
        <ele>473</ele>
        <time>2021-07-29T13:34:16Z</time>
      </trkpt>
      <trkpt lat="47.22417" lon="6.69883">
        <ele>473</ele>
        <time>2021-07-29T13:34:17Z</time>
      </trkpt>
      <trkpt lat="47.22417" lon="6.6989">
        <ele>473.2</ele>
        <time>2021-07-29T13:34:18Z</time>
      </trkpt>
      <trkpt lat="47.22418" lon="6.69897">
        <ele>473.2</ele>
        <time>2021-07-29T13:34:19Z</time>
      </trkpt>
      <trkpt lat="47.22418" lon="6.69904">
        <ele>473.4</ele>
        <time>2021-07-29T13:34:20Z</time>
      </trkpt>
      <trkpt lat="47.22418" lon="6.69911">
        <ele>473.4</ele>
        <time>2021-07-29T13:34:21Z</time>
      </trkpt>
      <trkpt lat="47.22418" lon="6.69917">
        <ele>473.6</ele>
        <time>2021-07-29T13:34:22Z</time>
      </trkpt>
      <trkpt lat="47.22418" lon="6.69924">
        <ele>473.4</ele>
        <time>2021-07-29T13:34:23Z</time>
      </trkpt>
      <trkpt lat="47.22418" lon="6.6993">
        <ele>473.6</ele>
        <time>2021-07-29T13:34:24Z</time>
      </trkpt>
      <trkpt lat="47.22419" lon="6.69936">
        <ele>473.6</ele>
        <time>2021-07-29T13:34:25Z</time>
      </trkpt>
      <trkpt lat="47.2242" lon="6.69943">
        <ele>473.6</ele>
        <time>2021-07-29T13:34:26Z</time>
      </trkpt>
      <trkpt lat="47.22421" lon="6.69949">
        <ele>473.6</ele>
        <time>2021-07-29T13:34:27Z</time>
      </trkpt>
      <trkpt lat="47.22422" lon="6.69955">
        <ele>473.4</ele>
        <time>2021-07-29T13:34:28Z</time>
      </trkpt>
      <trkpt lat="47.22424" lon="6.69961">
        <ele>473.2</ele>
        <time>2021-07-29T13:34:29Z</time>
      </trkpt>
      <trkpt lat="47.22425" lon="6.69967">
        <ele>473.2</ele>
        <time>2021-07-29T13:34:30Z</time>
      </trkpt>
      <trkpt lat="47.22428" lon="6.69972">
        <ele>473</ele>
        <time>2021-07-29T13:34:31Z</time>
      </trkpt>
      <trkpt lat="47.22431" lon="6.69978">
        <ele>473</ele>
        <time>2021-07-29T13:34:32Z</time>
      </trkpt>
      <trkpt lat="47.22435" lon="6.69983">
        <ele>473</ele>
        <time>2021-07-29T13:34:33Z</time>
      </trkpt>
      <trkpt lat="47.22438" lon="6.69987">
        <ele>473</ele>
        <time>2021-07-29T13:34:34Z</time>
      </trkpt>
      <trkpt lat="47.22443" lon="6.69991">
        <ele>473</ele>
        <time>2021-07-29T13:34:35Z</time>
      </trkpt>
      <trkpt lat="47.22447" lon="6.69995">
        <ele>473</ele>
        <time>2021-07-29T13:34:36Z</time>
      </trkpt>
      <trkpt lat="47.22451" lon="6.69998">
        <ele>473</ele>
        <time>2021-07-29T13:34:37Z</time>
      </trkpt>
      <trkpt lat="47.22456" lon="6.70002">
        <ele>473</ele>
        <time>2021-07-29T13:34:38Z</time>
      </trkpt>
      <trkpt lat="47.2246" lon="6.70006">
        <ele>473</ele>
        <time>2021-07-29T13:34:39Z</time>
      </trkpt>
      <trkpt lat="47.22464" lon="6.70009">
        <ele>473</ele>
        <time>2021-07-29T13:34:40Z</time>
      </trkpt>
      <trkpt lat="47.22469" lon="6.70013">
        <ele>473</ele>
        <time>2021-07-29T13:34:41Z</time>
      </trkpt>
      <trkpt lat="47.22473" lon="6.70016">
        <ele>473</ele>
        <time>2021-07-29T13:34:42Z</time>
      </trkpt>
      <trkpt lat="47.22477" lon="6.7002">
        <ele>473</ele>
        <time>2021-07-29T13:34:43Z</time>
      </trkpt>
      <trkpt lat="47.22482" lon="6.70024">
        <ele>473.2</ele>
        <time>2021-07-29T13:34:44Z</time>
      </trkpt>
      <trkpt lat="47.22486" lon="6.70027">
        <ele>473.2</ele>
        <time>2021-07-29T13:34:45Z</time>
      </trkpt>
      <trkpt lat="47.22491" lon="6.70031">
        <ele>473.2</ele>
        <time>2021-07-29T13:34:46Z</time>
      </trkpt>
      <trkpt lat="47.22495" lon="6.70035">
        <ele>473.2</ele>
        <time>2021-07-29T13:34:47Z</time>
      </trkpt>
      <trkpt lat="47.225" lon="6.70038">
        <ele>473.2</ele>
        <time>2021-07-29T13:34:48Z</time>
      </trkpt>
      <trkpt lat="47.22505" lon="6.70042">
        <ele>473.2</ele>
        <time>2021-07-29T13:34:49Z</time>
      </trkpt>
      <trkpt lat="47.22509" lon="6.70046">
        <ele>473.2</ele>
        <time>2021-07-29T13:34:50Z</time>
      </trkpt>
      <trkpt lat="47.22514" lon="6.70049">
        <ele>473.2</ele>
        <time>2021-07-29T13:34:51Z</time>
      </trkpt>
      <trkpt lat="47.22518" lon="6.70053">
        <ele>473.2</ele>
        <time>2021-07-29T13:34:52Z</time>
      </trkpt>
      <trkpt lat="47.22523" lon="6.70057">
        <ele>473.4</ele>
        <time>2021-07-29T13:34:53Z</time>
      </trkpt>
      <trkpt lat="47.22528" lon="6.7006">
        <ele>473.2</ele>
        <time>2021-07-29T13:34:54Z</time>
      </trkpt>
      <trkpt lat="47.22532" lon="6.70064">
        <ele>473.2</ele>
        <time>2021-07-29T13:34:55Z</time>
      </trkpt>
      <trkpt lat="47.22537" lon="6.70068">
        <ele>473.2</ele>
        <time>2021-07-29T13:34:56Z</time>
      </trkpt>
      <trkpt lat="47.22541" lon="6.70071">
        <ele>473.2</ele>
        <time>2021-07-29T13:34:57Z</time>
      </trkpt>
      <trkpt lat="47.22545" lon="6.70075">
        <ele>473.4</ele>
        <time>2021-07-29T13:34:58Z</time>
      </trkpt>
      <trkpt lat="47.2255" lon="6.70079">
        <ele>473.4</ele>
        <time>2021-07-29T13:34:59Z</time>
      </trkpt>
      <trkpt lat="47.22555" lon="6.70082">
        <ele>473.4</ele>
        <time>2021-07-29T13:35:00Z</time>
      </trkpt>
      <trkpt lat="47.22559" lon="6.70086">
        <ele>473.4</ele>
        <time>2021-07-29T13:35:01Z</time>
      </trkpt>
      <trkpt lat="47.22564" lon="6.70089">
        <ele>473.4</ele>
        <time>2021-07-29T13:35:02Z</time>
      </trkpt>
      <trkpt lat="47.22569" lon="6.70091">
        <ele>473.4</ele>
        <time>2021-07-29T13:35:03Z</time>
      </trkpt>
      <trkpt lat="47.22574" lon="6.70093">
        <ele>473.4</ele>
        <time>2021-07-29T13:35:04Z</time>
      </trkpt>
      <trkpt lat="47.22578" lon="6.70095">
        <ele>473.4</ele>
        <time>2021-07-29T13:35:05Z</time>
      </trkpt>
      <trkpt lat="47.22584" lon="6.70096">
        <ele>473.4</ele>
        <time>2021-07-29T13:35:06Z</time>
      </trkpt>
      <trkpt lat="47.22589" lon="6.70097">
        <ele>473.4</ele>
        <time>2021-07-29T13:35:07Z</time>
      </trkpt>
      <trkpt lat="47.22595" lon="6.70097">
        <ele>473.2</ele>
        <time>2021-07-29T13:35:08Z</time>
      </trkpt>
      <trkpt lat="47.226" lon="6.70096">
        <ele>473.2</ele>
        <time>2021-07-29T13:35:09Z</time>
      </trkpt>
      <trkpt lat="47.22606" lon="6.70095">
        <ele>473.2</ele>
        <time>2021-07-29T13:35:10Z</time>
      </trkpt>
      <trkpt lat="47.22612" lon="6.70094">
        <ele>473</ele>
        <time>2021-07-29T13:35:11Z</time>
      </trkpt>
      <trkpt lat="47.22617" lon="6.70092">
        <ele>473</ele>
        <time>2021-07-29T13:35:12Z</time>
      </trkpt>
      <trkpt lat="47.22623" lon="6.7009">
        <ele>472.8</ele>
        <time>2021-07-29T13:35:13Z</time>
      </trkpt>
      <trkpt lat="47.22629" lon="6.70086">
        <ele>472.8</ele>
        <time>2021-07-29T13:35:14Z</time>
      </trkpt>
      <trkpt lat="47.22634" lon="6.70082">
        <ele>472.6</ele>
        <time>2021-07-29T13:35:15Z</time>
      </trkpt>
      <trkpt lat="47.2264" lon="6.70077">
        <ele>472.4</ele>
        <time>2021-07-29T13:35:16Z</time>
      </trkpt>
      <trkpt lat="47.22644" lon="6.7007">
        <ele>472.4</ele>
        <time>2021-07-29T13:35:17Z</time>
      </trkpt>
      <trkpt lat="47.22649" lon="6.70063">
        <ele>472.2</ele>
        <time>2021-07-29T13:35:18Z</time>
      </trkpt>
      <trkpt lat="47.22653" lon="6.70055">
        <ele>472.2</ele>
        <time>2021-07-29T13:35:19Z</time>
      </trkpt>
      <trkpt lat="47.22656" lon="6.70047">
        <ele>472</ele>
        <time>2021-07-29T13:35:20Z</time>
      </trkpt>
      <trkpt lat="47.2266" lon="6.70039">
        <ele>472</ele>
        <time>2021-07-29T13:35:21Z</time>
      </trkpt>
      <trkpt lat="47.22663" lon="6.7003">
        <ele>471.8</ele>
        <time>2021-07-29T13:35:22Z</time>
      </trkpt>
      <trkpt lat="47.22666" lon="6.70021">
        <ele>471.6</ele>
        <time>2021-07-29T13:35:23Z</time>
      </trkpt>
      <trkpt lat="47.2267" lon="6.70012">
        <ele>471.6</ele>
        <time>2021-07-29T13:35:24Z</time>
      </trkpt>
      <trkpt lat="47.22673" lon="6.70003">
        <ele>471.4</ele>
        <time>2021-07-29T13:35:25Z</time>
      </trkpt>
      <trkpt lat="47.22677" lon="6.69995">
        <ele>471.4</ele>
        <time>2021-07-29T13:35:26Z</time>
      </trkpt>
      <trkpt lat="47.22681" lon="6.69986">
        <ele>471.2</ele>
        <time>2021-07-29T13:35:27Z</time>
      </trkpt>
      <trkpt lat="47.22684" lon="6.69977">
        <ele>471</ele>
        <time>2021-07-29T13:35:28Z</time>
      </trkpt>
      <trkpt lat="47.22688" lon="6.69968">
        <ele>471</ele>
        <time>2021-07-29T13:35:29Z</time>
      </trkpt>
      <trkpt lat="47.22693" lon="6.6996">
        <ele>470.8</ele>
        <time>2021-07-29T13:35:30Z</time>
      </trkpt>
      <trkpt lat="47.22697" lon="6.69953">
        <ele>470.8</ele>
        <time>2021-07-29T13:35:31Z</time>
      </trkpt>
      <trkpt lat="47.22702" lon="6.69946">
        <ele>470.8</ele>
        <time>2021-07-29T13:35:32Z</time>
      </trkpt>
      <trkpt lat="47.22707" lon="6.69939">
        <ele>470.6</ele>
        <time>2021-07-29T13:35:33Z</time>
      </trkpt>
      <trkpt lat="47.22712" lon="6.69933">
        <ele>470.4</ele>
        <time>2021-07-29T13:35:34Z</time>
      </trkpt>
      <trkpt lat="47.22718" lon="6.69928">
        <ele>470</ele>
        <time>2021-07-29T13:35:35Z</time>
      </trkpt>
      <trkpt lat="47.22724" lon="6.69923">
        <ele>469.8</ele>
        <time>2021-07-29T13:35:36Z</time>
      </trkpt>
      <trkpt lat="47.2273" lon="6.69919">
        <ele>469.8</ele>
        <time>2021-07-29T13:35:37Z</time>
      </trkpt>
      <trkpt lat="47.22737" lon="6.69915">
        <ele>469.8</ele>
        <time>2021-07-29T13:35:38Z</time>
      </trkpt>
      <trkpt lat="47.22743" lon="6.69913">
        <ele>469.8</ele>
        <time>2021-07-29T13:35:39Z</time>
      </trkpt>
      <trkpt lat="47.2275" lon="6.69912">
        <ele>469.6</ele>
        <time>2021-07-29T13:35:40Z</time>
      </trkpt>
      <trkpt lat="47.22756" lon="6.69912">
        <ele>469.6</ele>
        <time>2021-07-29T13:35:41Z</time>
      </trkpt>
      <trkpt lat="47.22762" lon="6.69913">
        <ele>469.6</ele>
        <time>2021-07-29T13:35:42Z</time>
      </trkpt>
      <trkpt lat="47.22768" lon="6.69914">
        <ele>469.6</ele>
        <time>2021-07-29T13:35:43Z</time>
      </trkpt>
      <trkpt lat="47.22774" lon="6.69915">
        <ele>469.6</ele>
        <time>2021-07-29T13:35:44Z</time>
      </trkpt>
      <trkpt lat="47.2278" lon="6.69917">
        <ele>469.6</ele>
        <time>2021-07-29T13:35:45Z</time>
      </trkpt>
      <trkpt lat="47.22786" lon="6.6992">
        <ele>469.4</ele>
        <time>2021-07-29T13:35:46Z</time>
      </trkpt>
      <trkpt lat="47.22792" lon="6.69922">
        <ele>469.4</ele>
        <time>2021-07-29T13:35:47Z</time>
      </trkpt>
      <trkpt lat="47.22797" lon="6.69925">
        <ele>469.4</ele>
        <time>2021-07-29T13:35:48Z</time>
      </trkpt>
      <trkpt lat="47.22802" lon="6.69928">
        <ele>469.2</ele>
        <time>2021-07-29T13:35:49Z</time>
      </trkpt>
      <trkpt lat="47.22808" lon="6.69931">
        <ele>469.2</ele>
        <time>2021-07-29T13:35:50Z</time>
      </trkpt>
      <trkpt lat="47.22813" lon="6.69934">
        <ele>469.2</ele>
        <time>2021-07-29T13:35:51Z</time>
      </trkpt>
      <trkpt lat="47.22818" lon="6.69936">
        <ele>469.2</ele>
        <time>2021-07-29T13:35:52Z</time>
      </trkpt>
      <trkpt lat="47.22823" lon="6.69938">
        <ele>469.2</ele>
        <time>2021-07-29T13:35:53Z</time>
      </trkpt>
      <trkpt lat="47.22828" lon="6.6994">
        <ele>469.2</ele>
        <time>2021-07-29T13:35:54Z</time>
      </trkpt>
      <trkpt lat="47.22833" lon="6.69941">
        <ele>469</ele>
        <time>2021-07-29T13:35:55Z</time>
      </trkpt>
      <trkpt lat="47.22839" lon="6.69942">
        <ele>469</ele>
        <time>2021-07-29T13:35:56Z</time>
      </trkpt>
      <trkpt lat="47.22844" lon="6.69942">
        <ele>468.8</ele>
        <time>2021-07-29T13:35:57Z</time>
      </trkpt>
      <trkpt lat="47.22849" lon="6.69942">
        <ele>468.6</ele>
        <time>2021-07-29T13:35:58Z</time>
      </trkpt>
      <trkpt lat="47.22855" lon="6.69941">
        <ele>468.6</ele>
        <time>2021-07-29T13:35:59Z</time>
      </trkpt>
      <trkpt lat="47.22861" lon="6.6994">
        <ele>468.4</ele>
        <time>2021-07-29T13:36:00Z</time>
      </trkpt>
      <trkpt lat="47.22867" lon="6.6994">
        <ele>468.2</ele>
        <time>2021-07-29T13:36:01Z</time>
      </trkpt>
      <trkpt lat="47.22873" lon="6.69938">
        <ele>468</ele>
        <time>2021-07-29T13:36:02Z</time>
      </trkpt>
      <trkpt lat="47.22879" lon="6.69937">
        <ele>467.8</ele>
        <time>2021-07-29T13:36:03Z</time>
      </trkpt>
      <trkpt lat="47.22885" lon="6.69935">
        <ele>467.6</ele>
        <time>2021-07-29T13:36:04Z</time>
      </trkpt>
      <trkpt lat="47.22891" lon="6.69935">
        <ele>467.6</ele>
        <time>2021-07-29T13:36:05Z</time>
      </trkpt>
      <trkpt lat="47.22897" lon="6.69935">
        <ele>467.4</ele>
        <time>2021-07-29T13:36:06Z</time>
      </trkpt>
      <trkpt lat="47.22902" lon="6.69935">
        <ele>467.2</ele>
        <time>2021-07-29T13:36:07Z</time>
      </trkpt>
      <trkpt lat="47.22909" lon="6.69938">
        <ele>467</ele>
        <time>2021-07-29T13:36:08Z</time>
      </trkpt>
      <trkpt lat="47.22917" lon="6.69941">
        <ele>467</ele>
        <time>2021-07-29T13:36:09Z</time>
      </trkpt>
      <trkpt lat="47.22924" lon="6.69945">
        <ele>466.8</ele>
        <time>2021-07-29T13:36:10Z</time>
      </trkpt>
      <trkpt lat="47.2293" lon="6.6995">
        <ele>466.8</ele>
        <time>2021-07-29T13:36:11Z</time>
      </trkpt>
      <trkpt lat="47.22936" lon="6.69956">
        <ele>466.8</ele>
        <time>2021-07-29T13:36:12Z</time>
      </trkpt>
      <trkpt lat="47.22942" lon="6.69963">
        <ele>466.8</ele>
        <time>2021-07-29T13:36:13Z</time>
      </trkpt>
      <trkpt lat="47.22947" lon="6.6997">
        <ele>466.6</ele>
        <time>2021-07-29T13:36:14Z</time>
      </trkpt>
      <trkpt lat="47.22952" lon="6.69977">
        <ele>466.6</ele>
        <time>2021-07-29T13:36:15Z</time>
      </trkpt>
      <trkpt lat="47.22957" lon="6.69984">
        <ele>466.6</ele>
        <time>2021-07-29T13:36:16Z</time>
      </trkpt>
      <trkpt lat="47.22961" lon="6.69991">
        <ele>466.6</ele>
        <time>2021-07-29T13:36:17Z</time>
      </trkpt>
      <trkpt lat="47.22966" lon="6.69998">
        <ele>466.6</ele>
        <time>2021-07-29T13:36:18Z</time>
      </trkpt>
      <trkpt lat="47.22971" lon="6.70004">
        <ele>466.6</ele>
        <time>2021-07-29T13:36:19Z</time>
      </trkpt>
      <trkpt lat="47.22975" lon="6.7001">
        <ele>466.4</ele>
        <time>2021-07-29T13:36:20Z</time>
      </trkpt>
      <trkpt lat="47.2298" lon="6.70016">
        <ele>466.4</ele>
        <time>2021-07-29T13:36:21Z</time>
      </trkpt>
      <trkpt lat="47.22985" lon="6.70021">
        <ele>466.2</ele>
        <time>2021-07-29T13:36:22Z</time>
      </trkpt>
      <trkpt lat="47.2299" lon="6.70025">
        <ele>466.2</ele>
        <time>2021-07-29T13:36:23Z</time>
      </trkpt>
      <trkpt lat="47.22995" lon="6.70029">
        <ele>466.2</ele>
        <time>2021-07-29T13:36:24Z</time>
      </trkpt>
      <trkpt lat="47.23001" lon="6.70032">
        <ele>466</ele>
        <time>2021-07-29T13:36:25Z</time>
      </trkpt>
      <trkpt lat="47.23007" lon="6.70033">
        <ele>465.8</ele>
        <time>2021-07-29T13:36:26Z</time>
      </trkpt>
      <trkpt lat="47.23013" lon="6.70034">
        <ele>465.8</ele>
        <time>2021-07-29T13:36:27Z</time>
      </trkpt>
      <trkpt lat="47.23019" lon="6.70034">
        <ele>465.8</ele>
        <time>2021-07-29T13:36:28Z</time>
      </trkpt>
      <trkpt lat="47.23025" lon="6.70032">
        <ele>465.8</ele>
        <time>2021-07-29T13:36:29Z</time>
      </trkpt>
      <trkpt lat="47.23031" lon="6.70029">
        <ele>465.8</ele>
        <time>2021-07-29T13:36:30Z</time>
      </trkpt>
      <trkpt lat="47.23037" lon="6.70026">
        <ele>465.8</ele>
        <time>2021-07-29T13:36:31Z</time>
      </trkpt>
      <trkpt lat="47.23042" lon="6.70023">
        <ele>465.8</ele>
        <time>2021-07-29T13:36:32Z</time>
      </trkpt>
      <trkpt lat="47.23047" lon="6.70019">
        <ele>465.8</ele>
        <time>2021-07-29T13:36:33Z</time>
      </trkpt>
      <trkpt lat="47.23053" lon="6.70015">
        <ele>465.8</ele>
        <time>2021-07-29T13:36:34Z</time>
      </trkpt>
      <trkpt lat="47.23058" lon="6.70011">
        <ele>465.6</ele>
        <time>2021-07-29T13:36:35Z</time>
      </trkpt>
      <trkpt lat="47.23063" lon="6.70007">
        <ele>465.6</ele>
        <time>2021-07-29T13:36:36Z</time>
      </trkpt>
      <trkpt lat="47.23068" lon="6.70003">
        <ele>465.6</ele>
        <time>2021-07-29T13:36:37Z</time>
      </trkpt>
      <trkpt lat="47.23074" lon="6.69999">
        <ele>465.6</ele>
        <time>2021-07-29T13:36:38Z</time>
      </trkpt>
      <trkpt lat="47.2308" lon="6.69996">
        <ele>465.6</ele>
        <time>2021-07-29T13:36:39Z</time>
      </trkpt>
      <trkpt lat="47.23086" lon="6.69993">
        <ele>465.6</ele>
        <time>2021-07-29T13:36:40Z</time>
      </trkpt>
      <trkpt lat="47.23092" lon="6.69989">
        <ele>465.6</ele>
        <time>2021-07-29T13:36:41Z</time>
      </trkpt>
      <trkpt lat="47.23098" lon="6.69986">
        <ele>465.6</ele>
        <time>2021-07-29T13:36:42Z</time>
      </trkpt>
      <trkpt lat="47.23104" lon="6.69983">
        <ele>465.4</ele>
        <time>2021-07-29T13:36:43Z</time>
      </trkpt>
      <trkpt lat="47.2311" lon="6.69981">
        <ele>465.4</ele>
        <time>2021-07-29T13:36:44Z</time>
      </trkpt>
      <trkpt lat="47.23116" lon="6.69978">
        <ele>465.4</ele>
        <time>2021-07-29T13:36:45Z</time>
      </trkpt>
      <trkpt lat="47.23122" lon="6.69977">
        <ele>465.2</ele>
        <time>2021-07-29T13:36:46Z</time>
      </trkpt>
      <trkpt lat="47.23127" lon="6.69974">
        <ele>465.2</ele>
        <time>2021-07-29T13:36:47Z</time>
      </trkpt>
      <trkpt lat="47.23132" lon="6.6997">
        <ele>465.2</ele>
        <time>2021-07-29T13:36:48Z</time>
      </trkpt>
      <trkpt lat="47.23137" lon="6.69967">
        <ele>465.2</ele>
        <time>2021-07-29T13:36:49Z</time>
      </trkpt>
      <trkpt lat="47.23143" lon="6.69966">
        <ele>465.2</ele>
        <time>2021-07-29T13:36:50Z</time>
      </trkpt>
      <trkpt lat="47.23148" lon="6.69964">
        <ele>465.2</ele>
        <time>2021-07-29T13:36:51Z</time>
      </trkpt>
      <trkpt lat="47.23153" lon="6.69963">
        <ele>465.2</ele>
        <time>2021-07-29T13:36:52Z</time>
      </trkpt>
      <trkpt lat="47.23159" lon="6.69962">
        <ele>465.2</ele>
        <time>2021-07-29T13:36:53Z</time>
      </trkpt>
      <trkpt lat="47.23165" lon="6.69961">
        <ele>465.2</ele>
        <time>2021-07-29T13:36:54Z</time>
      </trkpt>
      <trkpt lat="47.2317" lon="6.69961">
        <ele>465.2</ele>
        <time>2021-07-29T13:36:55Z</time>
      </trkpt>
      <trkpt lat="47.23174" lon="6.6996">
        <ele>465.2</ele>
        <time>2021-07-29T13:36:56Z</time>
      </trkpt>
      <trkpt lat="47.2318" lon="6.6996">
        <ele>465</ele>
        <time>2021-07-29T13:36:57Z</time>
      </trkpt>
      <trkpt lat="47.23186" lon="6.69961">
        <ele>465</ele>
        <time>2021-07-29T13:36:58Z</time>
      </trkpt>
      <trkpt lat="47.23192" lon="6.69963">
        <ele>465</ele>
        <time>2021-07-29T13:36:59Z</time>
      </trkpt>
      <trkpt lat="47.23198" lon="6.69965">
        <ele>464.8</ele>
        <time>2021-07-29T13:37:00Z</time>
      </trkpt>
      <trkpt lat="47.23204" lon="6.69967">
        <ele>464.8</ele>
        <time>2021-07-29T13:37:01Z</time>
      </trkpt>
      <trkpt lat="47.23209" lon="6.69969">
        <ele>464.8</ele>
        <time>2021-07-29T13:37:02Z</time>
      </trkpt>
      <trkpt lat="47.23214" lon="6.69972">
        <ele>464.8</ele>
        <time>2021-07-29T13:37:03Z</time>
      </trkpt>
      <trkpt lat="47.23219" lon="6.69974">
        <ele>464.8</ele>
        <time>2021-07-29T13:37:04Z</time>
      </trkpt>
      <trkpt lat="47.23225" lon="6.69976">
        <ele>464.8</ele>
        <time>2021-07-29T13:37:05Z</time>
      </trkpt>
      <trkpt lat="47.23231" lon="6.69979">
        <ele>464.8</ele>
        <time>2021-07-29T13:37:06Z</time>
      </trkpt>
      <trkpt lat="47.23238" lon="6.6998">
        <ele>464.6</ele>
        <time>2021-07-29T13:37:07Z</time>
      </trkpt>
      <trkpt lat="47.23245" lon="6.69982">
        <ele>464.6</ele>
        <time>2021-07-29T13:37:08Z</time>
      </trkpt>
      <trkpt lat="47.2325" lon="6.69982">
        <ele>464.6</ele>
        <time>2021-07-29T13:37:09Z</time>
      </trkpt>
      <trkpt lat="47.23256" lon="6.69983">
        <ele>464.6</ele>
        <time>2021-07-29T13:37:10Z</time>
      </trkpt>
      <trkpt lat="47.23262" lon="6.69983">
        <ele>464.4</ele>
        <time>2021-07-29T13:37:11Z</time>
      </trkpt>
      <trkpt lat="47.23268" lon="6.69982">
        <ele>464.4</ele>
        <time>2021-07-29T13:37:12Z</time>
      </trkpt>
      <trkpt lat="47.23274" lon="6.69982">
        <ele>464.4</ele>
        <time>2021-07-29T13:37:13Z</time>
      </trkpt>
      <trkpt lat="47.2328" lon="6.69982">
        <ele>464.2</ele>
        <time>2021-07-29T13:37:14Z</time>
      </trkpt>
      <trkpt lat="47.23286" lon="6.69982">
        <ele>464.2</ele>
        <time>2021-07-29T13:37:15Z</time>
      </trkpt>
      <trkpt lat="47.23292" lon="6.69982">
        <ele>464.2</ele>
        <time>2021-07-29T13:37:16Z</time>
      </trkpt>
      <trkpt lat="47.23298" lon="6.69981">
        <ele>464.2</ele>
        <time>2021-07-29T13:37:17Z</time>
      </trkpt>
      <trkpt lat="47.23304" lon="6.6998">
        <ele>464.2</ele>
        <time>2021-07-29T13:37:18Z</time>
      </trkpt>
      <trkpt lat="47.2331" lon="6.6998">
        <ele>464.2</ele>
        <time>2021-07-29T13:37:19Z</time>
      </trkpt>
      <trkpt lat="47.23317" lon="6.69979">
        <ele>464.2</ele>
        <time>2021-07-29T13:37:20Z</time>
      </trkpt>
      <trkpt lat="47.23323" lon="6.69979">
        <ele>464.2</ele>
        <time>2021-07-29T13:37:21Z</time>
      </trkpt>
      <trkpt lat="47.23327" lon="6.69978">
        <ele>464.2</ele>
        <time>2021-07-29T13:37:22Z</time>
      </trkpt>
      <trkpt lat="47.23333" lon="6.69977">
        <ele>464.2</ele>
        <time>2021-07-29T13:37:23Z</time>
      </trkpt>
      <trkpt lat="47.23339" lon="6.69977">
        <ele>464.2</ele>
        <time>2021-07-29T13:37:24Z</time>
      </trkpt>
      <trkpt lat="47.23344" lon="6.69976">
        <ele>464.2</ele>
        <time>2021-07-29T13:37:25Z</time>
      </trkpt>
      <trkpt lat="47.23349" lon="6.69975">
        <ele>464.2</ele>
        <time>2021-07-29T13:37:26Z</time>
      </trkpt>
      <trkpt lat="47.23355" lon="6.69975">
        <ele>464.2</ele>
        <time>2021-07-29T13:37:27Z</time>
      </trkpt>
      <trkpt lat="47.2336" lon="6.69974">
        <ele>464.2</ele>
        <time>2021-07-29T13:37:28Z</time>
      </trkpt>
      <trkpt lat="47.23366" lon="6.69974">
        <ele>464.4</ele>
        <time>2021-07-29T13:37:29Z</time>
      </trkpt>
      <trkpt lat="47.23371" lon="6.69973">
        <ele>464.4</ele>
        <time>2021-07-29T13:37:30Z</time>
      </trkpt>
      <trkpt lat="47.23377" lon="6.69973">
        <ele>464.4</ele>
        <time>2021-07-29T13:37:31Z</time>
      </trkpt>
      <trkpt lat="47.23382" lon="6.69972">
        <ele>464.4</ele>
        <time>2021-07-29T13:37:32Z</time>
      </trkpt>
      <trkpt lat="47.23386" lon="6.69971">
        <ele>464.4</ele>
        <time>2021-07-29T13:37:33Z</time>
      </trkpt>
      <trkpt lat="47.23392" lon="6.69971">
        <ele>464.4</ele>
        <time>2021-07-29T13:37:34Z</time>
      </trkpt>
      <trkpt lat="47.23397" lon="6.6997">
        <ele>464.6</ele>
        <time>2021-07-29T13:37:35Z</time>
      </trkpt>
      <trkpt lat="47.23403" lon="6.69969">
        <ele>464.6</ele>
        <time>2021-07-29T13:37:36Z</time>
      </trkpt>
      <trkpt lat="47.23408" lon="6.69969">
        <ele>464.6</ele>
        <time>2021-07-29T13:37:37Z</time>
      </trkpt>
      <trkpt lat="47.23413" lon="6.69968">
        <ele>464.6</ele>
        <time>2021-07-29T13:37:38Z</time>
      </trkpt>
      <trkpt lat="47.23418" lon="6.69967">
        <ele>464.8</ele>
        <time>2021-07-29T13:37:39Z</time>
      </trkpt>
      <trkpt lat="47.23423" lon="6.69966">
        <ele>464.8</ele>
        <time>2021-07-29T13:37:40Z</time>
      </trkpt>
      <trkpt lat="47.23428" lon="6.69965">
        <ele>464.8</ele>
        <time>2021-07-29T13:37:41Z</time>
      </trkpt>
      <trkpt lat="47.23433" lon="6.69964">
        <ele>464.8</ele>
        <time>2021-07-29T13:37:42Z</time>
      </trkpt>
      <trkpt lat="47.23438" lon="6.69964">
        <ele>464.8</ele>
        <time>2021-07-29T13:37:43Z</time>
      </trkpt>
      <trkpt lat="47.23443" lon="6.69963">
        <ele>465</ele>
        <time>2021-07-29T13:37:44Z</time>
      </trkpt>
      <trkpt lat="47.23448" lon="6.69963">
        <ele>465</ele>
        <time>2021-07-29T13:37:45Z</time>
      </trkpt>
      <trkpt lat="47.23453" lon="6.69962">
        <ele>464.8</ele>
        <time>2021-07-29T13:37:46Z</time>
      </trkpt>
      <trkpt lat="47.23458" lon="6.69962">
        <ele>465</ele>
        <time>2021-07-29T13:37:47Z</time>
      </trkpt>
      <trkpt lat="47.23463" lon="6.69962">
        <ele>465</ele>
        <time>2021-07-29T13:37:48Z</time>
      </trkpt>
      <trkpt lat="47.23468" lon="6.69961">
        <ele>465</ele>
        <time>2021-07-29T13:37:49Z</time>
      </trkpt>
      <trkpt lat="47.23476" lon="6.6996">
        <ele>465</ele>
        <time>2021-07-29T13:37:50Z</time>
      </trkpt>
      <trkpt lat="47.23481" lon="6.69959">
        <ele>465</ele>
        <time>2021-07-29T13:37:51Z</time>
      </trkpt>
      <trkpt lat="47.23486" lon="6.69959">
        <ele>465.2</ele>
        <time>2021-07-29T13:37:52Z</time>
      </trkpt>
      <trkpt lat="47.23492" lon="6.69958">
        <ele>465.2</ele>
        <time>2021-07-29T13:37:53Z</time>
      </trkpt>
      <trkpt lat="47.23497" lon="6.69957">
        <ele>465.2</ele>
        <time>2021-07-29T13:37:54Z</time>
      </trkpt>
      <trkpt lat="47.23502" lon="6.69955">
        <ele>465.2</ele>
        <time>2021-07-29T13:37:55Z</time>
      </trkpt>
      <trkpt lat="47.23508" lon="6.69954">
        <ele>465.2</ele>
        <time>2021-07-29T13:37:56Z</time>
      </trkpt>
      <trkpt lat="47.23513" lon="6.69952">
        <ele>465.2</ele>
        <time>2021-07-29T13:37:57Z</time>
      </trkpt>
      <trkpt lat="47.23518" lon="6.69951">
        <ele>465.4</ele>
        <time>2021-07-29T13:37:58Z</time>
      </trkpt>
      <trkpt lat="47.23523" lon="6.69949">
        <ele>465.4</ele>
        <time>2021-07-29T13:37:59Z</time>
      </trkpt>
      <trkpt lat="47.23528" lon="6.69947">
        <ele>465.4</ele>
        <time>2021-07-29T13:38:00Z</time>
      </trkpt>
      <trkpt lat="47.23533" lon="6.69945">
        <ele>465.4</ele>
        <time>2021-07-29T13:38:01Z</time>
      </trkpt>
      <trkpt lat="47.23538" lon="6.69943">
        <ele>465.4</ele>
        <time>2021-07-29T13:38:02Z</time>
      </trkpt>
      <trkpt lat="47.23543" lon="6.69941">
        <ele>465.4</ele>
        <time>2021-07-29T13:38:03Z</time>
      </trkpt>
      <trkpt lat="47.23548" lon="6.69939">
        <ele>465.4</ele>
        <time>2021-07-29T13:38:04Z</time>
      </trkpt>
      <trkpt lat="47.23553" lon="6.69936">
        <ele>465.4</ele>
        <time>2021-07-29T13:38:05Z</time>
      </trkpt>
      <trkpt lat="47.23558" lon="6.69933">
        <ele>465.4</ele>
        <time>2021-07-29T13:38:06Z</time>
      </trkpt>
      <trkpt lat="47.23563" lon="6.6993">
        <ele>465.2</ele>
        <time>2021-07-29T13:38:07Z</time>
      </trkpt>
      <trkpt lat="47.23568" lon="6.69927">
        <ele>465</ele>
        <time>2021-07-29T13:38:08Z</time>
      </trkpt>
      <trkpt lat="47.23573" lon="6.69924">
        <ele>465</ele>
        <time>2021-07-29T13:38:09Z</time>
      </trkpt>
      <trkpt lat="47.23579" lon="6.69921">
        <ele>465</ele>
        <time>2021-07-29T13:38:10Z</time>
      </trkpt>
      <trkpt lat="47.23584" lon="6.69918">
        <ele>464.8</ele>
        <time>2021-07-29T13:38:11Z</time>
      </trkpt>
      <trkpt lat="47.23589" lon="6.69915">
        <ele>464.8</ele>
        <time>2021-07-29T13:38:12Z</time>
      </trkpt>
      <trkpt lat="47.23594" lon="6.69912">
        <ele>464.8</ele>
        <time>2021-07-29T13:38:13Z</time>
      </trkpt>
      <trkpt lat="47.23599" lon="6.69909">
        <ele>464.8</ele>
        <time>2021-07-29T13:38:14Z</time>
      </trkpt>
      <trkpt lat="47.23604" lon="6.69907">
        <ele>464.6</ele>
        <time>2021-07-29T13:38:15Z</time>
      </trkpt>
      <trkpt lat="47.23609" lon="6.69905">
        <ele>464.6</ele>
        <time>2021-07-29T13:38:16Z</time>
      </trkpt>
      <trkpt lat="47.23614" lon="6.69903">
        <ele>464.6</ele>
        <time>2021-07-29T13:38:17Z</time>
      </trkpt>
      <trkpt lat="47.23619" lon="6.69901">
        <ele>464.4</ele>
        <time>2021-07-29T13:38:18Z</time>
      </trkpt>
      <trkpt lat="47.23624" lon="6.69899">
        <ele>464.4</ele>
        <time>2021-07-29T13:38:19Z</time>
      </trkpt>
      <trkpt lat="47.2363" lon="6.69898">
        <ele>464.4</ele>
        <time>2021-07-29T13:38:20Z</time>
      </trkpt>
      <trkpt lat="47.23635" lon="6.69896">
        <ele>464.4</ele>
        <time>2021-07-29T13:38:21Z</time>
      </trkpt>
      <trkpt lat="47.2364" lon="6.69894">
        <ele>464.2</ele>
        <time>2021-07-29T13:38:22Z</time>
      </trkpt>
      <trkpt lat="47.23645" lon="6.69893">
        <ele>464.2</ele>
        <time>2021-07-29T13:38:23Z</time>
      </trkpt>
      <trkpt lat="47.2365" lon="6.69892">
        <ele>464.2</ele>
        <time>2021-07-29T13:38:24Z</time>
      </trkpt>
      <trkpt lat="47.23655" lon="6.69891">
        <ele>464</ele>
        <time>2021-07-29T13:38:25Z</time>
      </trkpt>
      <trkpt lat="47.23661" lon="6.6989">
        <ele>464</ele>
        <time>2021-07-29T13:38:26Z</time>
      </trkpt>
      <trkpt lat="47.23666" lon="6.69889">
        <ele>464</ele>
        <time>2021-07-29T13:38:27Z</time>
      </trkpt>
      <trkpt lat="47.23671" lon="6.69888">
        <ele>463.8</ele>
        <time>2021-07-29T13:38:28Z</time>
      </trkpt>
      <trkpt lat="47.23677" lon="6.69887">
        <ele>463.8</ele>
        <time>2021-07-29T13:38:29Z</time>
      </trkpt>
      <trkpt lat="47.23683" lon="6.69885">
        <ele>463.8</ele>
        <time>2021-07-29T13:38:30Z</time>
      </trkpt>
      <trkpt lat="47.23689" lon="6.69884">
        <ele>463.6</ele>
        <time>2021-07-29T13:38:31Z</time>
      </trkpt>
      <trkpt lat="47.23695" lon="6.69883">
        <ele>463.6</ele>
        <time>2021-07-29T13:38:32Z</time>
      </trkpt>
      <trkpt lat="47.237" lon="6.69882">
        <ele>463.6</ele>
        <time>2021-07-29T13:38:33Z</time>
      </trkpt>
      <trkpt lat="47.23706" lon="6.69881">
        <ele>463.6</ele>
        <time>2021-07-29T13:38:34Z</time>
      </trkpt>
      <trkpt lat="47.23711" lon="6.6988">
        <ele>463.4</ele>
        <time>2021-07-29T13:38:35Z</time>
      </trkpt>
      <trkpt lat="47.23716" lon="6.69879">
        <ele>463.4</ele>
        <time>2021-07-29T13:38:36Z</time>
      </trkpt>
      <trkpt lat="47.23722" lon="6.69878">
        <ele>463.4</ele>
        <time>2021-07-29T13:38:37Z</time>
      </trkpt>
      <trkpt lat="47.23728" lon="6.69878">
        <ele>463.4</ele>
        <time>2021-07-29T13:38:38Z</time>
      </trkpt>
      <trkpt lat="47.23734" lon="6.69877">
        <ele>463.4</ele>
        <time>2021-07-29T13:38:39Z</time>
      </trkpt>
      <trkpt lat="47.2374" lon="6.69877">
        <ele>463.6</ele>
        <time>2021-07-29T13:38:40Z</time>
      </trkpt>
      <trkpt lat="47.23746" lon="6.69877">
        <ele>463.4</ele>
        <time>2021-07-29T13:38:41Z</time>
      </trkpt>
      <trkpt lat="47.23752" lon="6.69877">
        <ele>463.4</ele>
        <time>2021-07-29T13:38:42Z</time>
      </trkpt>
      <trkpt lat="47.23757" lon="6.69876">
        <ele>463.4</ele>
        <time>2021-07-29T13:38:43Z</time>
      </trkpt>
      <trkpt lat="47.23763" lon="6.69876">
        <ele>463.2</ele>
        <time>2021-07-29T13:38:44Z</time>
      </trkpt>
      <trkpt lat="47.23768" lon="6.69876">
        <ele>463.2</ele>
        <time>2021-07-29T13:38:45Z</time>
      </trkpt>
      <trkpt lat="47.23773" lon="6.69877">
        <ele>463.2</ele>
        <time>2021-07-29T13:38:46Z</time>
      </trkpt>
      <trkpt lat="47.23777" lon="6.69877">
        <ele>463.2</ele>
        <time>2021-07-29T13:38:47Z</time>
      </trkpt>
      <trkpt lat="47.23782" lon="6.69877">
        <ele>463.2</ele>
        <time>2021-07-29T13:38:48Z</time>
      </trkpt>
      <trkpt lat="47.23787" lon="6.69877">
        <ele>463.2</ele>
        <time>2021-07-29T13:38:49Z</time>
      </trkpt>
      <trkpt lat="47.23792" lon="6.69878">
        <ele>463.2</ele>
        <time>2021-07-29T13:38:50Z</time>
      </trkpt>
      <trkpt lat="47.23797" lon="6.69878">
        <ele>463.2</ele>
        <time>2021-07-29T13:38:51Z</time>
      </trkpt>
      <trkpt lat="47.23802" lon="6.69879">
        <ele>463.2</ele>
        <time>2021-07-29T13:38:52Z</time>
      </trkpt>
      <trkpt lat="47.23806" lon="6.69881">
        <ele>463.2</ele>
        <time>2021-07-29T13:38:53Z</time>
      </trkpt>
      <trkpt lat="47.23811" lon="6.69883">
        <ele>463.2</ele>
        <time>2021-07-29T13:38:54Z</time>
      </trkpt>
      <trkpt lat="47.23817" lon="6.69884">
        <ele>463.2</ele>
        <time>2021-07-29T13:38:55Z</time>
      </trkpt>
      <trkpt lat="47.23822" lon="6.69886">
        <ele>463.2</ele>
        <time>2021-07-29T13:38:56Z</time>
      </trkpt>
      <trkpt lat="47.23827" lon="6.69887">
        <ele>463</ele>
        <time>2021-07-29T13:38:57Z</time>
      </trkpt>
      <trkpt lat="47.23832" lon="6.69889">
        <ele>463.2</ele>
        <time>2021-07-29T13:38:58Z</time>
      </trkpt>
      <trkpt lat="47.23837" lon="6.69891">
        <ele>463.2</ele>
        <time>2021-07-29T13:38:59Z</time>
      </trkpt>
      <trkpt lat="47.23841" lon="6.69893">
        <ele>463.2</ele>
        <time>2021-07-29T13:39:00Z</time>
      </trkpt>
      <trkpt lat="47.23846" lon="6.69895">
        <ele>463.2</ele>
        <time>2021-07-29T13:39:01Z</time>
      </trkpt>
      <trkpt lat="47.23851" lon="6.69898">
        <ele>463.2</ele>
        <time>2021-07-29T13:39:02Z</time>
      </trkpt>
      <trkpt lat="47.23856" lon="6.69899">
        <ele>463.2</ele>
        <time>2021-07-29T13:39:03Z</time>
      </trkpt>
      <trkpt lat="47.23861" lon="6.69901">
        <ele>463.2</ele>
        <time>2021-07-29T13:39:04Z</time>
      </trkpt>
      <trkpt lat="47.23866" lon="6.69903">
        <ele>463.2</ele>
        <time>2021-07-29T13:39:05Z</time>
      </trkpt>
      <trkpt lat="47.2387" lon="6.69904">
        <ele>463.2</ele>
        <time>2021-07-29T13:39:06Z</time>
      </trkpt>
      <trkpt lat="47.23875" lon="6.69906">
        <ele>463.2</ele>
        <time>2021-07-29T13:39:07Z</time>
      </trkpt>
      <trkpt lat="47.2388" lon="6.69907">
        <ele>463.2</ele>
        <time>2021-07-29T13:39:08Z</time>
      </trkpt>
      <trkpt lat="47.23884" lon="6.69908">
        <ele>463.2</ele>
        <time>2021-07-29T13:39:09Z</time>
      </trkpt>
      <trkpt lat="47.23889" lon="6.69909">
        <ele>463.2</ele>
        <time>2021-07-29T13:39:10Z</time>
      </trkpt>
      <trkpt lat="47.23894" lon="6.6991">
        <ele>463</ele>
        <time>2021-07-29T13:39:11Z</time>
      </trkpt>
      <trkpt lat="47.23898" lon="6.69911">
        <ele>463</ele>
        <time>2021-07-29T13:39:12Z</time>
      </trkpt>
      <trkpt lat="47.23903" lon="6.69912">
        <ele>463</ele>
        <time>2021-07-29T13:39:13Z</time>
      </trkpt>
      <trkpt lat="47.23908" lon="6.69913">
        <ele>463</ele>
        <time>2021-07-29T13:39:14Z</time>
      </trkpt>
      <trkpt lat="47.23912" lon="6.69913">
        <ele>463.2</ele>
        <time>2021-07-29T13:39:15Z</time>
      </trkpt>
      <trkpt lat="47.23917" lon="6.69913">
        <ele>463.2</ele>
        <time>2021-07-29T13:39:16Z</time>
      </trkpt>
      <trkpt lat="47.23922" lon="6.69913">
        <ele>463.2</ele>
        <time>2021-07-29T13:39:17Z</time>
      </trkpt>
      <trkpt lat="47.23926" lon="6.69914">
        <ele>463.2</ele>
        <time>2021-07-29T13:39:18Z</time>
      </trkpt>
      <trkpt lat="47.23931" lon="6.69914">
        <ele>463.4</ele>
        <time>2021-07-29T13:39:19Z</time>
      </trkpt>
      <trkpt lat="47.23936" lon="6.69914">
        <ele>463.4</ele>
        <time>2021-07-29T13:39:20Z</time>
      </trkpt>
      <trkpt lat="47.23941" lon="6.69914">
        <ele>463.4</ele>
        <time>2021-07-29T13:39:21Z</time>
      </trkpt>
      <trkpt lat="47.23946" lon="6.69914">
        <ele>463.4</ele>
        <time>2021-07-29T13:39:22Z</time>
      </trkpt>
      <trkpt lat="47.2395" lon="6.69914">
        <ele>463.6</ele>
        <time>2021-07-29T13:39:23Z</time>
      </trkpt>
      <trkpt lat="47.23955" lon="6.69914">
        <ele>463.6</ele>
        <time>2021-07-29T13:39:24Z</time>
      </trkpt>
      <trkpt lat="47.2396" lon="6.69914">
        <ele>463.6</ele>
        <time>2021-07-29T13:39:25Z</time>
      </trkpt>
      <trkpt lat="47.23964" lon="6.69913">
        <ele>463.6</ele>
        <time>2021-07-29T13:39:26Z</time>
      </trkpt>
      <trkpt lat="47.23969" lon="6.69913">
        <ele>463.6</ele>
        <time>2021-07-29T13:39:27Z</time>
      </trkpt>
      <trkpt lat="47.23973" lon="6.69913">
        <ele>463.6</ele>
        <time>2021-07-29T13:39:28Z</time>
      </trkpt>
      <trkpt lat="47.23977" lon="6.69913">
        <ele>463.4</ele>
        <time>2021-07-29T13:39:29Z</time>
      </trkpt>
      <trkpt lat="47.23982" lon="6.69912">
        <ele>463.6</ele>
        <time>2021-07-29T13:39:30Z</time>
      </trkpt>
      <trkpt lat="47.23986" lon="6.69912">
        <ele>463.6</ele>
        <time>2021-07-29T13:39:31Z</time>
      </trkpt>
      <trkpt lat="47.23991" lon="6.69911">
        <ele>463.6</ele>
        <time>2021-07-29T13:39:32Z</time>
      </trkpt>
      <trkpt lat="47.23997" lon="6.69911">
        <ele>463.6</ele>
        <time>2021-07-29T13:39:33Z</time>
      </trkpt>
      <trkpt lat="47.24001" lon="6.6991">
        <ele>463.6</ele>
        <time>2021-07-29T13:39:34Z</time>
      </trkpt>
      <trkpt lat="47.24006" lon="6.6991">
        <ele>463.6</ele>
        <time>2021-07-29T13:39:35Z</time>
      </trkpt>
      <trkpt lat="47.2401" lon="6.6991">
        <ele>463.8</ele>
        <time>2021-07-29T13:39:36Z</time>
      </trkpt>
      <trkpt lat="47.24015" lon="6.6991">
        <ele>463.8</ele>
        <time>2021-07-29T13:39:37Z</time>
      </trkpt>
      <trkpt lat="47.2402" lon="6.69909">
        <ele>463.8</ele>
        <time>2021-07-29T13:39:38Z</time>
      </trkpt>
      <trkpt lat="47.24024" lon="6.69909">
        <ele>463.8</ele>
        <time>2021-07-29T13:39:39Z</time>
      </trkpt>
      <trkpt lat="47.24029" lon="6.69908">
        <ele>464</ele>
        <time>2021-07-29T13:39:40Z</time>
      </trkpt>
      <trkpt lat="47.24034" lon="6.69907">
        <ele>464</ele>
        <time>2021-07-29T13:39:41Z</time>
      </trkpt>
      <trkpt lat="47.24039" lon="6.69906">
        <ele>464</ele>
        <time>2021-07-29T13:39:42Z</time>
      </trkpt>
      <trkpt lat="47.24044" lon="6.69904">
        <ele>464</ele>
        <time>2021-07-29T13:39:43Z</time>
      </trkpt>
      <trkpt lat="47.24049" lon="6.69903">
        <ele>464</ele>
        <time>2021-07-29T13:39:44Z</time>
      </trkpt>
      <trkpt lat="47.24053" lon="6.69901">
        <ele>464</ele>
        <time>2021-07-29T13:39:45Z</time>
      </trkpt>
      <trkpt lat="47.24058" lon="6.69899">
        <ele>464</ele>
        <time>2021-07-29T13:39:46Z</time>
      </trkpt>
      <trkpt lat="47.24063" lon="6.69898">
        <ele>464</ele>
        <time>2021-07-29T13:39:47Z</time>
      </trkpt>
      <trkpt lat="47.24069" lon="6.69896">
        <ele>464</ele>
        <time>2021-07-29T13:39:48Z</time>
      </trkpt>
      <trkpt lat="47.24074" lon="6.69895">
        <ele>464</ele>
        <time>2021-07-29T13:39:49Z</time>
      </trkpt>
      <trkpt lat="47.24079" lon="6.69893">
        <ele>464</ele>
        <time>2021-07-29T13:39:50Z</time>
      </trkpt>
      <trkpt lat="47.24084" lon="6.69892">
        <ele>463.8</ele>
        <time>2021-07-29T13:39:51Z</time>
      </trkpt>
      <trkpt lat="47.2409" lon="6.69891">
        <ele>463.8</ele>
        <time>2021-07-29T13:39:52Z</time>
      </trkpt>
      <trkpt lat="47.24096" lon="6.6989">
        <ele>463.8</ele>
        <time>2021-07-29T13:39:53Z</time>
      </trkpt>
      <trkpt lat="47.24101" lon="6.6989">
        <ele>463.8</ele>
        <time>2021-07-29T13:39:54Z</time>
      </trkpt>
      <trkpt lat="47.24107" lon="6.69889">
        <ele>463.8</ele>
        <time>2021-07-29T13:39:55Z</time>
      </trkpt>
      <trkpt lat="47.24113" lon="6.69888">
        <ele>463.8</ele>
        <time>2021-07-29T13:39:56Z</time>
      </trkpt>
      <trkpt lat="47.24119" lon="6.69887">
        <ele>463.8</ele>
        <time>2021-07-29T13:39:57Z</time>
      </trkpt>
      <trkpt lat="47.24124" lon="6.69887">
        <ele>463.6</ele>
        <time>2021-07-29T13:39:58Z</time>
      </trkpt>
      <trkpt lat="47.2413" lon="6.69887">
        <ele>463.6</ele>
        <time>2021-07-29T13:39:59Z</time>
      </trkpt>
      <trkpt lat="47.24136" lon="6.69886">
        <ele>463.6</ele>
        <time>2021-07-29T13:40:00Z</time>
      </trkpt>
      <trkpt lat="47.24142" lon="6.69885">
        <ele>463.6</ele>
        <time>2021-07-29T13:40:01Z</time>
      </trkpt>
      <trkpt lat="47.24147" lon="6.69885">
        <ele>463.6</ele>
        <time>2021-07-29T13:40:02Z</time>
      </trkpt>
      <trkpt lat="47.24154" lon="6.69884">
        <ele>463.6</ele>
        <time>2021-07-29T13:40:03Z</time>
      </trkpt>
      <trkpt lat="47.2416" lon="6.69883">
        <ele>463.4</ele>
        <time>2021-07-29T13:40:04Z</time>
      </trkpt>
      <trkpt lat="47.24166" lon="6.69882">
        <ele>463.4</ele>
        <time>2021-07-29T13:40:05Z</time>
      </trkpt>
      <trkpt lat="47.24172" lon="6.6988">
        <ele>463.4</ele>
        <time>2021-07-29T13:40:06Z</time>
      </trkpt>
      <trkpt lat="47.24178" lon="6.69879">
        <ele>463.2</ele>
        <time>2021-07-29T13:40:07Z</time>
      </trkpt>
      <trkpt lat="47.24185" lon="6.69876">
        <ele>463.4</ele>
        <time>2021-07-29T13:40:08Z</time>
      </trkpt>
      <trkpt lat="47.24191" lon="6.69874">
        <ele>463.4</ele>
        <time>2021-07-29T13:40:09Z</time>
      </trkpt>
      <trkpt lat="47.24196" lon="6.69871">
        <ele>463.2</ele>
        <time>2021-07-29T13:40:10Z</time>
      </trkpt>
      <trkpt lat="47.24201" lon="6.69868">
        <ele>463.2</ele>
        <time>2021-07-29T13:40:11Z</time>
      </trkpt>
      <trkpt lat="47.24206" lon="6.69865">
        <ele>463.2</ele>
        <time>2021-07-29T13:40:12Z</time>
      </trkpt>
      <trkpt lat="47.24211" lon="6.69861">
        <ele>463</ele>
        <time>2021-07-29T13:40:13Z</time>
      </trkpt>
      <trkpt lat="47.24216" lon="6.69858">
        <ele>463</ele>
        <time>2021-07-29T13:40:14Z</time>
      </trkpt>
      <trkpt lat="47.24221" lon="6.69855">
        <ele>463</ele>
        <time>2021-07-29T13:40:15Z</time>
      </trkpt>
      <trkpt lat="47.24226" lon="6.69852">
        <ele>463</ele>
        <time>2021-07-29T13:40:16Z</time>
      </trkpt>
      <trkpt lat="47.2423" lon="6.6985">
        <ele>462.8</ele>
        <time>2021-07-29T13:40:17Z</time>
      </trkpt>
      <trkpt lat="47.24235" lon="6.69848">
        <ele>462.8</ele>
        <time>2021-07-29T13:40:18Z</time>
      </trkpt>
      <trkpt lat="47.24239" lon="6.69846">
        <ele>462.8</ele>
        <time>2021-07-29T13:40:19Z</time>
      </trkpt>
      <trkpt lat="47.24245" lon="6.69844">
        <ele>462.8</ele>
        <time>2021-07-29T13:40:20Z</time>
      </trkpt>
      <trkpt lat="47.2425" lon="6.69843">
        <ele>462.8</ele>
        <time>2021-07-29T13:40:21Z</time>
      </trkpt>
      <trkpt lat="47.24256" lon="6.69843">
        <ele>462.6</ele>
        <time>2021-07-29T13:40:22Z</time>
      </trkpt>
      <trkpt lat="47.24261" lon="6.69842">
        <ele>462.6</ele>
        <time>2021-07-29T13:40:23Z</time>
      </trkpt>
      <trkpt lat="47.24267" lon="6.69841">
        <ele>462.6</ele>
        <time>2021-07-29T13:40:24Z</time>
      </trkpt>
      <trkpt lat="47.24272" lon="6.6984">
        <ele>462.6</ele>
        <time>2021-07-29T13:40:25Z</time>
      </trkpt>
      <trkpt lat="47.24277" lon="6.6984">
        <ele>462.6</ele>
        <time>2021-07-29T13:40:26Z</time>
      </trkpt>
      <trkpt lat="47.24282" lon="6.69839">
        <ele>462.8</ele>
        <time>2021-07-29T13:40:27Z</time>
      </trkpt>
      <trkpt lat="47.24287" lon="6.69839">
        <ele>462.8</ele>
        <time>2021-07-29T13:40:28Z</time>
      </trkpt>
      <trkpt lat="47.24292" lon="6.69839">
        <ele>463</ele>
        <time>2021-07-29T13:40:29Z</time>
      </trkpt>
      <trkpt lat="47.24297" lon="6.69839">
        <ele>462.8</ele>
        <time>2021-07-29T13:40:30Z</time>
      </trkpt>
      <trkpt lat="47.24302" lon="6.69839">
        <ele>462.8</ele>
        <time>2021-07-29T13:40:31Z</time>
      </trkpt>
      <trkpt lat="47.24307" lon="6.69839">
        <ele>462.8</ele>
        <time>2021-07-29T13:40:32Z</time>
      </trkpt>
      <trkpt lat="47.24312" lon="6.69839">
        <ele>462.8</ele>
        <time>2021-07-29T13:40:33Z</time>
      </trkpt>
      <trkpt lat="47.24316" lon="6.69839">
        <ele>462.8</ele>
        <time>2021-07-29T13:40:34Z</time>
      </trkpt>
      <trkpt lat="47.24321" lon="6.6984">
        <ele>462.8</ele>
        <time>2021-07-29T13:40:35Z</time>
      </trkpt>
      <trkpt lat="47.24325" lon="6.6984">
        <ele>462.8</ele>
        <time>2021-07-29T13:40:36Z</time>
      </trkpt>
      <trkpt lat="47.2433" lon="6.69841">
        <ele>462.8</ele>
        <time>2021-07-29T13:40:37Z</time>
      </trkpt>
      <trkpt lat="47.24335" lon="6.69842">
        <ele>462.8</ele>
        <time>2021-07-29T13:40:38Z</time>
      </trkpt>
      <trkpt lat="47.24342" lon="6.69843">
        <ele>462.8</ele>
        <time>2021-07-29T13:40:39Z</time>
      </trkpt>
      <trkpt lat="47.24347" lon="6.69844">
        <ele>462.8</ele>
        <time>2021-07-29T13:40:40Z</time>
      </trkpt>
      <trkpt lat="47.24352" lon="6.69845">
        <ele>462.8</ele>
        <time>2021-07-29T13:40:41Z</time>
      </trkpt>
      <trkpt lat="47.24356" lon="6.69846">
        <ele>463</ele>
        <time>2021-07-29T13:40:42Z</time>
      </trkpt>
      <trkpt lat="47.24359" lon="6.69847">
        <ele>463</ele>
        <time>2021-07-29T13:40:43Z</time>
      </trkpt>
      <trkpt lat="47.24362" lon="6.69848">
        <ele>463</ele>
        <time>2021-07-29T13:40:44Z</time>
      </trkpt>
      <trkpt lat="47.24366" lon="6.69849">
        <ele>463</ele>
        <time>2021-07-29T13:40:45Z</time>
      </trkpt>
      <trkpt lat="47.24369" lon="6.69851">
        <ele>463.2</ele>
        <time>2021-07-29T13:40:46Z</time>
      </trkpt>
      <trkpt lat="47.24372" lon="6.69852">
        <ele>463.2</ele>
        <time>2021-07-29T13:40:47Z</time>
      </trkpt>
      <trkpt lat="47.24376" lon="6.69854">
        <ele>463.2</ele>
        <time>2021-07-29T13:40:48Z</time>
      </trkpt>
      <trkpt lat="47.24381" lon="6.69855">
        <ele>463.2</ele>
        <time>2021-07-29T13:40:49Z</time>
      </trkpt>
      <trkpt lat="47.24386" lon="6.69856">
        <ele>463.2</ele>
        <time>2021-07-29T13:40:50Z</time>
      </trkpt>
      <trkpt lat="47.24389" lon="6.69858">
        <ele>463.2</ele>
        <time>2021-07-29T13:40:51Z</time>
      </trkpt>
      <trkpt lat="47.24393" lon="6.69859">
        <ele>463</ele>
        <time>2021-07-29T13:40:52Z</time>
      </trkpt>
      <trkpt lat="47.24396" lon="6.69861">
        <ele>463.2</ele>
        <time>2021-07-29T13:40:53Z</time>
      </trkpt>
      <trkpt lat="47.24401" lon="6.69862">
        <ele>463</ele>
        <time>2021-07-29T13:40:54Z</time>
      </trkpt>
      <trkpt lat="47.24408" lon="6.69861">
        <ele>463</ele>
        <time>2021-07-29T13:40:55Z</time>
      </trkpt>
      <trkpt lat="47.24414" lon="6.69862">
        <ele>463</ele>
        <time>2021-07-29T13:40:56Z</time>
      </trkpt>
      <trkpt lat="47.24419" lon="6.69864">
        <ele>463</ele>
        <time>2021-07-29T13:40:57Z</time>
      </trkpt>
      <trkpt lat="47.24425" lon="6.69865">
        <ele>463</ele>
        <time>2021-07-29T13:40:58Z</time>
      </trkpt>
      <trkpt lat="47.2443" lon="6.69867">
        <ele>463.2</ele>
        <time>2021-07-29T13:40:59Z</time>
      </trkpt>
      <trkpt lat="47.24435" lon="6.69868">
        <ele>463</ele>
        <time>2021-07-29T13:41:00Z</time>
      </trkpt>
      <trkpt lat="47.2444" lon="6.69869">
        <ele>463.2</ele>
        <time>2021-07-29T13:41:01Z</time>
      </trkpt>
      <trkpt lat="47.24445" lon="6.6987">
        <ele>463.2</ele>
        <time>2021-07-29T13:41:02Z</time>
      </trkpt>
      <trkpt lat="47.24451" lon="6.69872">
        <ele>463</ele>
        <time>2021-07-29T13:41:03Z</time>
      </trkpt>
      <trkpt lat="47.24456" lon="6.69873">
        <ele>463</ele>
        <time>2021-07-29T13:41:04Z</time>
      </trkpt>
      <trkpt lat="47.24461" lon="6.69874">
        <ele>463.2</ele>
        <time>2021-07-29T13:41:05Z</time>
      </trkpt>
      <trkpt lat="47.24466" lon="6.69873">
        <ele>463</ele>
        <time>2021-07-29T13:41:06Z</time>
      </trkpt>
      <trkpt lat="47.2447" lon="6.69873">
        <ele>463.2</ele>
        <time>2021-07-29T13:41:07Z</time>
      </trkpt>
      <trkpt lat="47.24475" lon="6.69872">
        <ele>463.2</ele>
        <time>2021-07-29T13:41:08Z</time>
      </trkpt>
      <trkpt lat="47.2448" lon="6.69871">
        <ele>463</ele>
        <time>2021-07-29T13:41:09Z</time>
      </trkpt>
      <trkpt lat="47.24485" lon="6.6987">
        <ele>463</ele>
        <time>2021-07-29T13:41:10Z</time>
      </trkpt>
      <trkpt lat="47.2449" lon="6.6987">
        <ele>463</ele>
        <time>2021-07-29T13:41:11Z</time>
      </trkpt>
      <trkpt lat="47.24495" lon="6.69869">
        <ele>463</ele>
        <time>2021-07-29T13:41:12Z</time>
      </trkpt>
      <trkpt lat="47.245" lon="6.69869">
        <ele>463</ele>
        <time>2021-07-29T13:41:13Z</time>
      </trkpt>
      <trkpt lat="47.24505" lon="6.69868">
        <ele>463</ele>
        <time>2021-07-29T13:41:14Z</time>
      </trkpt>
      <trkpt lat="47.2451" lon="6.69868">
        <ele>463</ele>
        <time>2021-07-29T13:41:15Z</time>
      </trkpt>
      <trkpt lat="47.24514" lon="6.69867">
        <ele>463</ele>
        <time>2021-07-29T13:41:16Z</time>
      </trkpt>
      <trkpt lat="47.24518" lon="6.69866">
        <ele>463</ele>
        <time>2021-07-29T13:41:17Z</time>
      </trkpt>
      <trkpt lat="47.24522" lon="6.69865">
        <ele>463</ele>
        <time>2021-07-29T13:41:18Z</time>
      </trkpt>
      <trkpt lat="47.24527" lon="6.69864">
        <ele>463</ele>
        <time>2021-07-29T13:41:19Z</time>
      </trkpt>
      <trkpt lat="47.24532" lon="6.69864">
        <ele>463</ele>
        <time>2021-07-29T13:41:20Z</time>
      </trkpt>
      <trkpt lat="47.24537" lon="6.69863">
        <ele>463</ele>
        <time>2021-07-29T13:41:21Z</time>
      </trkpt>
      <trkpt lat="47.24542" lon="6.69863">
        <ele>463</ele>
        <time>2021-07-29T13:41:22Z</time>
      </trkpt>
      <trkpt lat="47.24547" lon="6.69862">
        <ele>462.8</ele>
        <time>2021-07-29T13:41:23Z</time>
      </trkpt>
      <trkpt lat="47.24552" lon="6.69861">
        <ele>462.8</ele>
        <time>2021-07-29T13:41:24Z</time>
      </trkpt>
      <trkpt lat="47.24557" lon="6.6986">
        <ele>462.8</ele>
        <time>2021-07-29T13:41:25Z</time>
      </trkpt>
      <trkpt lat="47.24562" lon="6.6986">
        <ele>462.8</ele>
        <time>2021-07-29T13:41:26Z</time>
      </trkpt>
      <trkpt lat="47.24567" lon="6.6986">
        <ele>462.8</ele>
        <time>2021-07-29T13:41:27Z</time>
      </trkpt>
      <trkpt lat="47.24572" lon="6.6986">
        <ele>462.6</ele>
        <time>2021-07-29T13:41:28Z</time>
      </trkpt>
      <trkpt lat="47.24577" lon="6.69861">
        <ele>462.6</ele>
        <time>2021-07-29T13:41:29Z</time>
      </trkpt>
      <trkpt lat="47.24582" lon="6.69861">
        <ele>462.6</ele>
        <time>2021-07-29T13:41:30Z</time>
      </trkpt>
      <trkpt lat="47.24588" lon="6.69862">
        <ele>462.6</ele>
        <time>2021-07-29T13:41:31Z</time>
      </trkpt>
      <trkpt lat="47.24593" lon="6.69863">
        <ele>462.6</ele>
        <time>2021-07-29T13:41:32Z</time>
      </trkpt>
      <trkpt lat="47.24597" lon="6.69864">
        <ele>462.6</ele>
        <time>2021-07-29T13:41:33Z</time>
      </trkpt>
      <trkpt lat="47.24602" lon="6.69865">
        <ele>462.6</ele>
        <time>2021-07-29T13:41:34Z</time>
      </trkpt>
      <trkpt lat="47.24606" lon="6.69867">
        <ele>462.6</ele>
        <time>2021-07-29T13:41:35Z</time>
      </trkpt>
      <trkpt lat="47.2461" lon="6.69868">
        <ele>462.6</ele>
        <time>2021-07-29T13:41:36Z</time>
      </trkpt>
      <trkpt lat="47.24615" lon="6.6987">
        <ele>462.6</ele>
        <time>2021-07-29T13:41:37Z</time>
      </trkpt>
      <trkpt lat="47.24619" lon="6.69873">
        <ele>462.6</ele>
        <time>2021-07-29T13:41:38Z</time>
      </trkpt>
      <trkpt lat="47.24623" lon="6.69875">
        <ele>462.6</ele>
        <time>2021-07-29T13:41:39Z</time>
      </trkpt>
      <trkpt lat="47.24628" lon="6.69878">
        <ele>462.6</ele>
        <time>2021-07-29T13:41:40Z</time>
      </trkpt>
      <trkpt lat="47.24631" lon="6.6988">
        <ele>462.6</ele>
        <time>2021-07-29T13:41:41Z</time>
      </trkpt>
      <trkpt lat="47.24635" lon="6.69883">
        <ele>462.6</ele>
        <time>2021-07-29T13:41:42Z</time>
      </trkpt>
      <trkpt lat="47.24639" lon="6.69886">
        <ele>462.6</ele>
        <time>2021-07-29T13:41:43Z</time>
      </trkpt>
      <trkpt lat="47.24643" lon="6.69889">
        <ele>462.8</ele>
        <time>2021-07-29T13:41:44Z</time>
      </trkpt>
      <trkpt lat="47.24646" lon="6.69891">
        <ele>462.8</ele>
        <time>2021-07-29T13:41:45Z</time>
      </trkpt>
      <trkpt lat="47.24649" lon="6.69894">
        <ele>462.8</ele>
        <time>2021-07-29T13:41:46Z</time>
      </trkpt>
      <trkpt lat="47.24653" lon="6.69897">
        <ele>462.8</ele>
        <time>2021-07-29T13:41:47Z</time>
      </trkpt>
      <trkpt lat="47.24656" lon="6.69901">
        <ele>462.6</ele>
        <time>2021-07-29T13:41:48Z</time>
      </trkpt>
      <trkpt lat="47.24659" lon="6.69904">
        <ele>462.6</ele>
        <time>2021-07-29T13:41:49Z</time>
      </trkpt>
      <trkpt lat="47.24663" lon="6.69908">
        <ele>462.6</ele>
        <time>2021-07-29T13:41:50Z</time>
      </trkpt>
      <trkpt lat="47.24667" lon="6.69912">
        <ele>462.6</ele>
        <time>2021-07-29T13:41:51Z</time>
      </trkpt>
      <trkpt lat="47.24672" lon="6.69916">
        <ele>462.4</ele>
        <time>2021-07-29T13:41:52Z</time>
      </trkpt>
      <trkpt lat="47.24676" lon="6.6992">
        <ele>462.4</ele>
        <time>2021-07-29T13:41:53Z</time>
      </trkpt>
      <trkpt lat="47.2468" lon="6.69925">
        <ele>462.4</ele>
        <time>2021-07-29T13:41:54Z</time>
      </trkpt>
      <trkpt lat="47.24684" lon="6.69929">
        <ele>462.4</ele>
        <time>2021-07-29T13:41:55Z</time>
      </trkpt>
      <trkpt lat="47.24688" lon="6.69934">
        <ele>462.4</ele>
        <time>2021-07-29T13:41:56Z</time>
      </trkpt>
      <trkpt lat="47.24692" lon="6.69939">
        <ele>462.2</ele>
        <time>2021-07-29T13:41:57Z</time>
      </trkpt>
      <trkpt lat="47.24696" lon="6.69944">
        <ele>462.2</ele>
        <time>2021-07-29T13:41:58Z</time>
      </trkpt>
      <trkpt lat="47.24699" lon="6.69949">
        <ele>462.2</ele>
        <time>2021-07-29T13:41:59Z</time>
      </trkpt>
      <trkpt lat="47.24703" lon="6.69954">
        <ele>462.2</ele>
        <time>2021-07-29T13:42:00Z</time>
      </trkpt>
      <trkpt lat="47.24706" lon="6.6996">
        <ele>462</ele>
        <time>2021-07-29T13:42:01Z</time>
      </trkpt>
      <trkpt lat="47.24709" lon="6.69965">
        <ele>462.2</ele>
        <time>2021-07-29T13:42:02Z</time>
      </trkpt>
      <trkpt lat="47.24713" lon="6.69971">
        <ele>462</ele>
        <time>2021-07-29T13:42:03Z</time>
      </trkpt>
      <trkpt lat="47.24716" lon="6.69977">
        <ele>462</ele>
        <time>2021-07-29T13:42:04Z</time>
      </trkpt>
      <trkpt lat="47.24719" lon="6.69983">
        <ele>462</ele>
        <time>2021-07-29T13:42:05Z</time>
      </trkpt>
      <trkpt lat="47.24722" lon="6.69989">
        <ele>462</ele>
        <time>2021-07-29T13:42:06Z</time>
      </trkpt>
      <trkpt lat="47.24724" lon="6.69996">
        <ele>462</ele>
        <time>2021-07-29T13:42:07Z</time>
      </trkpt>
      <trkpt lat="47.24727" lon="6.70002">
        <ele>462</ele>
        <time>2021-07-29T13:42:08Z</time>
      </trkpt>
      <trkpt lat="47.24729" lon="6.70009">
        <ele>462</ele>
        <time>2021-07-29T13:42:09Z</time>
      </trkpt>
      <trkpt lat="47.24732" lon="6.70015">
        <ele>462</ele>
        <time>2021-07-29T13:42:10Z</time>
      </trkpt>
      <trkpt lat="47.24734" lon="6.70022">
        <ele>462</ele>
        <time>2021-07-29T13:42:11Z</time>
      </trkpt>
      <trkpt lat="47.24736" lon="6.70029">
        <ele>462</ele>
        <time>2021-07-29T13:42:12Z</time>
      </trkpt>
      <trkpt lat="47.24738" lon="6.70035">
        <ele>462</ele>
        <time>2021-07-29T13:42:13Z</time>
      </trkpt>
      <trkpt lat="47.2474" lon="6.70042">
        <ele>462</ele>
        <time>2021-07-29T13:42:14Z</time>
      </trkpt>
      <trkpt lat="47.24741" lon="6.70049">
        <ele>461.8</ele>
        <time>2021-07-29T13:42:15Z</time>
      </trkpt>
      <trkpt lat="47.24743" lon="6.70057">
        <ele>461.8</ele>
        <time>2021-07-29T13:42:16Z</time>
      </trkpt>
      <trkpt lat="47.24745" lon="6.70065">
        <ele>461.8</ele>
        <time>2021-07-29T13:42:17Z</time>
      </trkpt>
      <trkpt lat="47.24747" lon="6.70073">
        <ele>461.8</ele>
        <time>2021-07-29T13:42:18Z</time>
      </trkpt>
      <trkpt lat="47.24748" lon="6.7008">
        <ele>461.8</ele>
        <time>2021-07-29T13:42:19Z</time>
      </trkpt>
      <trkpt lat="47.24749" lon="6.70088">
        <ele>461.8</ele>
        <time>2021-07-29T13:42:20Z</time>
      </trkpt>
      <trkpt lat="47.2475" lon="6.70095">
        <ele>461.8</ele>
        <time>2021-07-29T13:42:21Z</time>
      </trkpt>
      <trkpt lat="47.2475" lon="6.70103">
        <ele>461.8</ele>
        <time>2021-07-29T13:42:22Z</time>
      </trkpt>
      <trkpt lat="47.24751" lon="6.7011">
        <ele>461.8</ele>
        <time>2021-07-29T13:42:23Z</time>
      </trkpt>
      <trkpt lat="47.24751" lon="6.70118">
        <ele>461.8</ele>
        <time>2021-07-29T13:42:24Z</time>
      </trkpt>
      <trkpt lat="47.24752" lon="6.70125">
        <ele>461.6</ele>
        <time>2021-07-29T13:42:25Z</time>
      </trkpt>
      <trkpt lat="47.24752" lon="6.70133">
        <ele>461.4</ele>
        <time>2021-07-29T13:42:26Z</time>
      </trkpt>
      <trkpt lat="47.24752" lon="6.7014">
        <ele>461.4</ele>
        <time>2021-07-29T13:42:27Z</time>
      </trkpt>
      <trkpt lat="47.24752" lon="6.70148">
        <ele>461.4</ele>
        <time>2021-07-29T13:42:28Z</time>
      </trkpt>
      <trkpt lat="47.24753" lon="6.70156">
        <ele>461.4</ele>
        <time>2021-07-29T13:42:29Z</time>
      </trkpt>
      <trkpt lat="47.24753" lon="6.70163">
        <ele>461.4</ele>
        <time>2021-07-29T13:42:30Z</time>
      </trkpt>
      <trkpt lat="47.24753" lon="6.70171">
        <ele>461.4</ele>
        <time>2021-07-29T13:42:31Z</time>
      </trkpt>
      <trkpt lat="47.24753" lon="6.70179">
        <ele>461.4</ele>
        <time>2021-07-29T13:42:32Z</time>
      </trkpt>
      <trkpt lat="47.24753" lon="6.70186">
        <ele>461.4</ele>
        <time>2021-07-29T13:42:33Z</time>
      </trkpt>
      <trkpt lat="47.24753" lon="6.70194">
        <ele>461.4</ele>
        <time>2021-07-29T13:42:34Z</time>
      </trkpt>
      <trkpt lat="47.24753" lon="6.70202">
        <ele>461.2</ele>
        <time>2021-07-29T13:42:35Z</time>
      </trkpt>
      <trkpt lat="47.24753" lon="6.70209">
        <ele>461.2</ele>
        <time>2021-07-29T13:42:36Z</time>
      </trkpt>
      <trkpt lat="47.24753" lon="6.70217">
        <ele>461.2</ele>
        <time>2021-07-29T13:42:37Z</time>
      </trkpt>
      <trkpt lat="47.24753" lon="6.70225">
        <ele>461.2</ele>
        <time>2021-07-29T13:42:38Z</time>
      </trkpt>
      <trkpt lat="47.24753" lon="6.70233">
        <ele>461</ele>
        <time>2021-07-29T13:42:39Z</time>
      </trkpt>
      <trkpt lat="47.24753" lon="6.7024">
        <ele>461</ele>
        <time>2021-07-29T13:42:40Z</time>
      </trkpt>
      <trkpt lat="47.24753" lon="6.70248">
        <ele>461</ele>
        <time>2021-07-29T13:42:41Z</time>
      </trkpt>
      <trkpt lat="47.24753" lon="6.70256">
        <ele>461</ele>
        <time>2021-07-29T13:42:42Z</time>
      </trkpt>
      <trkpt lat="47.24753" lon="6.70263">
        <ele>461</ele>
        <time>2021-07-29T13:42:43Z</time>
      </trkpt>
      <trkpt lat="47.24753" lon="6.70271">
        <ele>461</ele>
        <time>2021-07-29T13:42:44Z</time>
      </trkpt>
      <trkpt lat="47.24753" lon="6.70279">
        <ele>461</ele>
        <time>2021-07-29T13:42:45Z</time>
      </trkpt>
      <trkpt lat="47.24753" lon="6.70287">
        <ele>461.2</ele>
        <time>2021-07-29T13:42:46Z</time>
      </trkpt>
      <trkpt lat="47.24753" lon="6.70294">
        <ele>461.2</ele>
        <time>2021-07-29T13:42:47Z</time>
      </trkpt>
      <trkpt lat="47.24753" lon="6.70302">
        <ele>461.2</ele>
        <time>2021-07-29T13:42:48Z</time>
      </trkpt>
      <trkpt lat="47.24753" lon="6.70309">
        <ele>461.2</ele>
        <time>2021-07-29T13:42:49Z</time>
      </trkpt>
      <trkpt lat="47.24753" lon="6.70317">
        <ele>461.2</ele>
        <time>2021-07-29T13:42:50Z</time>
      </trkpt>
      <trkpt lat="47.24752" lon="6.70325">
        <ele>461.2</ele>
        <time>2021-07-29T13:42:51Z</time>
      </trkpt>
      <trkpt lat="47.24752" lon="6.70332">
        <ele>461.2</ele>
        <time>2021-07-29T13:42:52Z</time>
      </trkpt>
      <trkpt lat="47.24752" lon="6.7034">
        <ele>461.2</ele>
        <time>2021-07-29T13:42:53Z</time>
      </trkpt>
      <trkpt lat="47.24752" lon="6.70348">
        <ele>461</ele>
        <time>2021-07-29T13:42:54Z</time>
      </trkpt>
      <trkpt lat="47.24752" lon="6.70355">
        <ele>461</ele>
        <time>2021-07-29T13:42:55Z</time>
      </trkpt>
      <trkpt lat="47.24752" lon="6.70363">
        <ele>461</ele>
        <time>2021-07-29T13:42:56Z</time>
      </trkpt>
      <trkpt lat="47.24753" lon="6.70371">
        <ele>460.8</ele>
        <time>2021-07-29T13:42:57Z</time>
      </trkpt>
      <trkpt lat="47.24753" lon="6.70379">
        <ele>460.8</ele>
        <time>2021-07-29T13:42:58Z</time>
      </trkpt>
      <trkpt lat="47.24754" lon="6.70387">
        <ele>460.8</ele>
        <time>2021-07-29T13:42:59Z</time>
      </trkpt>
      <trkpt lat="47.24756" lon="6.70396">
        <ele>460.8</ele>
        <time>2021-07-29T13:43:00Z</time>
      </trkpt>
      <trkpt lat="47.24756" lon="6.70404">
        <ele>460.6</ele>
        <time>2021-07-29T13:43:01Z</time>
      </trkpt>
      <trkpt lat="47.24753" lon="6.70411">
        <ele>460.6</ele>
        <time>2021-07-29T13:43:02Z</time>
      </trkpt>
      <trkpt lat="47.24752" lon="6.70418">
        <ele>460.6</ele>
        <time>2021-07-29T13:43:03Z</time>
      </trkpt>
      <trkpt lat="47.24753" lon="6.70426">
        <ele>460.6</ele>
        <time>2021-07-29T13:43:04Z</time>
      </trkpt>
      <trkpt lat="47.24755" lon="6.70433">
        <ele>460.4</ele>
        <time>2021-07-29T13:43:05Z</time>
      </trkpt>
      <trkpt lat="47.24757" lon="6.70441">
        <ele>460.4</ele>
        <time>2021-07-29T13:43:06Z</time>
      </trkpt>
      <trkpt lat="47.24759" lon="6.70448">
        <ele>460.4</ele>
        <time>2021-07-29T13:43:07Z</time>
      </trkpt>
      <trkpt lat="47.24762" lon="6.70455">
        <ele>460.4</ele>
        <time>2021-07-29T13:43:08Z</time>
      </trkpt>
      <trkpt lat="47.24765" lon="6.70461">
        <ele>460.4</ele>
        <time>2021-07-29T13:43:09Z</time>
      </trkpt>
      <trkpt lat="47.24769" lon="6.70467">
        <ele>460.4</ele>
        <time>2021-07-29T13:43:10Z</time>
      </trkpt>
      <trkpt lat="47.24774" lon="6.70472">
        <ele>460.2</ele>
        <time>2021-07-29T13:43:11Z</time>
      </trkpt>
      <trkpt lat="47.24778" lon="6.70477">
        <ele>460.2</ele>
        <time>2021-07-29T13:43:12Z</time>
      </trkpt>
      <trkpt lat="47.24783" lon="6.70481">
        <ele>460.2</ele>
        <time>2021-07-29T13:43:13Z</time>
      </trkpt>
      <trkpt lat="47.24788" lon="6.70484">
        <ele>460.2</ele>
        <time>2021-07-29T13:43:14Z</time>
      </trkpt>
      <trkpt lat="47.24792" lon="6.70487">
        <ele>460</ele>
        <time>2021-07-29T13:43:15Z</time>
      </trkpt>
      <trkpt lat="47.24797" lon="6.70489">
        <ele>460</ele>
        <time>2021-07-29T13:43:16Z</time>
      </trkpt>
      <trkpt lat="47.24802" lon="6.7049">
        <ele>460.2</ele>
        <time>2021-07-29T13:43:17Z</time>
      </trkpt>
      <trkpt lat="47.24806" lon="6.70491">
        <ele>460</ele>
        <time>2021-07-29T13:43:18Z</time>
      </trkpt>
      <trkpt lat="47.24811" lon="6.70491">
        <ele>460</ele>
        <time>2021-07-29T13:43:19Z</time>
      </trkpt>
      <trkpt lat="47.24815" lon="6.70491">
        <ele>460</ele>
        <time>2021-07-29T13:43:20Z</time>
      </trkpt>
      <trkpt lat="47.2482" lon="6.7049">
        <ele>460</ele>
        <time>2021-07-29T13:43:21Z</time>
      </trkpt>
      <trkpt lat="47.24825" lon="6.70489">
        <ele>460</ele>
        <time>2021-07-29T13:43:22Z</time>
      </trkpt>
      <trkpt lat="47.24829" lon="6.70488">
        <ele>459.8</ele>
        <time>2021-07-29T13:43:23Z</time>
      </trkpt>
      <trkpt lat="47.24834" lon="6.70485">
        <ele>459.8</ele>
        <time>2021-07-29T13:43:24Z</time>
      </trkpt>
      <trkpt lat="47.24838" lon="6.70482">
        <ele>459.6</ele>
        <time>2021-07-29T13:43:25Z</time>
      </trkpt>
      <trkpt lat="47.24843" lon="6.70479">
        <ele>459.8</ele>
        <time>2021-07-29T13:43:26Z</time>
      </trkpt>
      <trkpt lat="47.24848" lon="6.70475">
        <ele>459.8</ele>
        <time>2021-07-29T13:43:27Z</time>
      </trkpt>
      <trkpt lat="47.24853" lon="6.70473">
        <ele>459.8</ele>
        <time>2021-07-29T13:43:28Z</time>
      </trkpt>
      <trkpt lat="47.24857" lon="6.70471">
        <ele>459.6</ele>
        <time>2021-07-29T13:43:29Z</time>
      </trkpt>
      <trkpt lat="47.24863" lon="6.70469">
        <ele>459.6</ele>
        <time>2021-07-29T13:43:30Z</time>
      </trkpt>
      <trkpt lat="47.24868" lon="6.70466">
        <ele>459.6</ele>
        <time>2021-07-29T13:43:31Z</time>
      </trkpt>
      <trkpt lat="47.24873" lon="6.70461">
        <ele>459.4</ele>
        <time>2021-07-29T13:43:32Z</time>
      </trkpt>
      <trkpt lat="47.24878" lon="6.70459">
        <ele>459.4</ele>
        <time>2021-07-29T13:43:33Z</time>
      </trkpt>
      <trkpt lat="47.24882" lon="6.70455">
        <ele>459.2</ele>
        <time>2021-07-29T13:43:34Z</time>
      </trkpt>
      <trkpt lat="47.24888" lon="6.70452">
        <ele>459.2</ele>
        <time>2021-07-29T13:43:35Z</time>
      </trkpt>
      <trkpt lat="47.24893" lon="6.70448">
        <ele>459.2</ele>
        <time>2021-07-29T13:43:36Z</time>
      </trkpt>
      <trkpt lat="47.24898" lon="6.70445">
        <ele>459.2</ele>
        <time>2021-07-29T13:43:37Z</time>
      </trkpt>
      <trkpt lat="47.24903" lon="6.70442">
        <ele>459.2</ele>
        <time>2021-07-29T13:43:38Z</time>
      </trkpt>
      <trkpt lat="47.24908" lon="6.7044">
        <ele>459</ele>
        <time>2021-07-29T13:43:39Z</time>
      </trkpt>
      <trkpt lat="47.24913" lon="6.70437">
        <ele>459.2</ele>
        <time>2021-07-29T13:43:40Z</time>
      </trkpt>
      <trkpt lat="47.24917" lon="6.70435">
        <ele>459.2</ele>
        <time>2021-07-29T13:43:41Z</time>
      </trkpt>
      <trkpt lat="47.24922" lon="6.70432">
        <ele>459.2</ele>
        <time>2021-07-29T13:43:42Z</time>
      </trkpt>
      <trkpt lat="47.24927" lon="6.70429">
        <ele>459</ele>
        <time>2021-07-29T13:43:43Z</time>
      </trkpt>
      <trkpt lat="47.24933" lon="6.70427">
        <ele>459</ele>
        <time>2021-07-29T13:43:44Z</time>
      </trkpt>
      <trkpt lat="47.24939" lon="6.70425">
        <ele>459</ele>
        <time>2021-07-29T13:43:45Z</time>
      </trkpt>
      <trkpt lat="47.24945" lon="6.70423">
        <ele>459</ele>
        <time>2021-07-29T13:43:46Z</time>
      </trkpt>
      <trkpt lat="47.2495" lon="6.70421">
        <ele>458.8</ele>
        <time>2021-07-29T13:43:47Z</time>
      </trkpt>
      <trkpt lat="47.24956" lon="6.70419">
        <ele>458.8</ele>
        <time>2021-07-29T13:43:48Z</time>
      </trkpt>
      <trkpt lat="47.24961" lon="6.70417">
        <ele>458.8</ele>
        <time>2021-07-29T13:43:49Z</time>
      </trkpt>
      <trkpt lat="47.24966" lon="6.70414">
        <ele>458.8</ele>
        <time>2021-07-29T13:43:50Z</time>
      </trkpt>
      <trkpt lat="47.2497" lon="6.70412">
        <ele>458.8</ele>
        <time>2021-07-29T13:43:51Z</time>
      </trkpt>
      <trkpt lat="47.24975" lon="6.7041">
        <ele>458.8</ele>
        <time>2021-07-29T13:43:52Z</time>
      </trkpt>
      <trkpt lat="47.2498" lon="6.70409">
        <ele>458.8</ele>
        <time>2021-07-29T13:43:53Z</time>
      </trkpt>
      <trkpt lat="47.24985" lon="6.70408">
        <ele>458.8</ele>
        <time>2021-07-29T13:43:54Z</time>
      </trkpt>
      <trkpt lat="47.24989" lon="6.70406">
        <ele>458.6</ele>
        <time>2021-07-29T13:43:55Z</time>
      </trkpt>
      <trkpt lat="47.24994" lon="6.70404">
        <ele>458.8</ele>
        <time>2021-07-29T13:43:56Z</time>
      </trkpt>
      <trkpt lat="47.24999" lon="6.70404">
        <ele>458.8</ele>
        <time>2021-07-29T13:43:57Z</time>
      </trkpt>
      <trkpt lat="47.25004" lon="6.70403">
        <ele>458.8</ele>
        <time>2021-07-29T13:43:58Z</time>
      </trkpt>
      <trkpt lat="47.25008" lon="6.70402">
        <ele>458.8</ele>
        <time>2021-07-29T13:43:59Z</time>
      </trkpt>
      <trkpt lat="47.25012" lon="6.70401">
        <ele>459</ele>
        <time>2021-07-29T13:44:00Z</time>
      </trkpt>
      <trkpt lat="47.25017" lon="6.70401">
        <ele>459</ele>
        <time>2021-07-29T13:44:01Z</time>
      </trkpt>
      <trkpt lat="47.25022" lon="6.704">
        <ele>459</ele>
        <time>2021-07-29T13:44:02Z</time>
      </trkpt>
      <trkpt lat="47.25027" lon="6.704">
        <ele>459</ele>
        <time>2021-07-29T13:44:03Z</time>
      </trkpt>
      <trkpt lat="47.25032" lon="6.70401">
        <ele>459</ele>
        <time>2021-07-29T13:44:04Z</time>
      </trkpt>
      <trkpt lat="47.25037" lon="6.70401">
        <ele>459</ele>
        <time>2021-07-29T13:44:05Z</time>
      </trkpt>
      <trkpt lat="47.25042" lon="6.70401">
        <ele>459</ele>
        <time>2021-07-29T13:44:06Z</time>
      </trkpt>
      <trkpt lat="47.25048" lon="6.70402">
        <ele>458.8</ele>
        <time>2021-07-29T13:44:07Z</time>
      </trkpt>
      <trkpt lat="47.25053" lon="6.70402">
        <ele>458.8</ele>
        <time>2021-07-29T13:44:08Z</time>
      </trkpt>
      <trkpt lat="47.25059" lon="6.70402">
        <ele>458.8</ele>
        <time>2021-07-29T13:44:09Z</time>
      </trkpt>
      <trkpt lat="47.25064" lon="6.70402">
        <ele>458.8</ele>
        <time>2021-07-29T13:44:10Z</time>
      </trkpt>
      <trkpt lat="47.25069" lon="6.70402">
        <ele>458.8</ele>
        <time>2021-07-29T13:44:11Z</time>
      </trkpt>
      <trkpt lat="47.25074" lon="6.70403">
        <ele>458.8</ele>
        <time>2021-07-29T13:44:12Z</time>
      </trkpt>
      <trkpt lat="47.25079" lon="6.70403">
        <ele>459</ele>
        <time>2021-07-29T13:44:13Z</time>
      </trkpt>
      <trkpt lat="47.25085" lon="6.70404">
        <ele>459</ele>
        <time>2021-07-29T13:44:14Z</time>
      </trkpt>
      <trkpt lat="47.2509" lon="6.70405">
        <ele>458.8</ele>
        <time>2021-07-29T13:44:15Z</time>
      </trkpt>
      <trkpt lat="47.25092" lon="6.70405">
        <ele>458.8</ele>
        <time>2021-07-29T13:44:16Z</time>
      </trkpt>
      <trkpt lat="47.25098" lon="6.70407">
        <ele>458.8</ele>
        <time>2021-07-29T13:44:17Z</time>
      </trkpt>
      <trkpt lat="47.25102" lon="6.70408">
        <ele>458.6</ele>
        <time>2021-07-29T13:44:18Z</time>
      </trkpt>
      <trkpt lat="47.25108" lon="6.70409">
        <ele>458.6</ele>
        <time>2021-07-29T13:44:19Z</time>
      </trkpt>
      <trkpt lat="47.25114" lon="6.70411">
        <ele>458.4</ele>
        <time>2021-07-29T13:44:20Z</time>
      </trkpt>
      <trkpt lat="47.2512" lon="6.70412">
        <ele>458.4</ele>
        <time>2021-07-29T13:44:21Z</time>
      </trkpt>
      <trkpt lat="47.25124" lon="6.70413">
        <ele>458.4</ele>
        <time>2021-07-29T13:44:22Z</time>
      </trkpt>
      <trkpt lat="47.2513" lon="6.70415">
        <ele>458.4</ele>
        <time>2021-07-29T13:44:23Z</time>
      </trkpt>
      <trkpt lat="47.25135" lon="6.70417">
        <ele>458.2</ele>
        <time>2021-07-29T13:44:24Z</time>
      </trkpt>
      <trkpt lat="47.25141" lon="6.70419">
        <ele>458.2</ele>
        <time>2021-07-29T13:44:25Z</time>
      </trkpt>
      <trkpt lat="47.25147" lon="6.70421">
        <ele>458.2</ele>
        <time>2021-07-29T13:44:26Z</time>
      </trkpt>
      <trkpt lat="47.25153" lon="6.70423">
        <ele>458.2</ele>
        <time>2021-07-29T13:44:27Z</time>
      </trkpt>
      <trkpt lat="47.2516" lon="6.70426">
        <ele>458.4</ele>
        <time>2021-07-29T13:44:28Z</time>
      </trkpt>
      <trkpt lat="47.25166" lon="6.70429">
        <ele>458.4</ele>
        <time>2021-07-29T13:44:29Z</time>
      </trkpt>
      <trkpt lat="47.25171" lon="6.70431">
        <ele>458.6</ele>
        <time>2021-07-29T13:44:30Z</time>
      </trkpt>
      <trkpt lat="47.25179" lon="6.70434">
        <ele>458.6</ele>
        <time>2021-07-29T13:44:31Z</time>
      </trkpt>
      <trkpt lat="47.25184" lon="6.70437">
        <ele>458.6</ele>
        <time>2021-07-29T13:44:32Z</time>
      </trkpt>
      <trkpt lat="47.2519" lon="6.7044">
        <ele>458.6</ele>
        <time>2021-07-29T13:44:33Z</time>
      </trkpt>
      <trkpt lat="47.25195" lon="6.70443">
        <ele>458.6</ele>
        <time>2021-07-29T13:44:34Z</time>
      </trkpt>
      <trkpt lat="47.25199" lon="6.70446">
        <ele>458.8</ele>
        <time>2021-07-29T13:44:35Z</time>
      </trkpt>
      <trkpt lat="47.25204" lon="6.70449">
        <ele>458.8</ele>
        <time>2021-07-29T13:44:36Z</time>
      </trkpt>
      <trkpt lat="47.25209" lon="6.70452">
        <ele>458.6</ele>
        <time>2021-07-29T13:44:37Z</time>
      </trkpt>
      <trkpt lat="47.25214" lon="6.70455">
        <ele>458.6</ele>
        <time>2021-07-29T13:44:38Z</time>
      </trkpt>
      <trkpt lat="47.25218" lon="6.70458">
        <ele>458.6</ele>
        <time>2021-07-29T13:44:39Z</time>
      </trkpt>
      <trkpt lat="47.25223" lon="6.70461">
        <ele>458.6</ele>
        <time>2021-07-29T13:44:40Z</time>
      </trkpt>
      <trkpt lat="47.25228" lon="6.70463">
        <ele>458.6</ele>
        <time>2021-07-29T13:44:41Z</time>
      </trkpt>
      <trkpt lat="47.25232" lon="6.70466">
        <ele>458.6</ele>
        <time>2021-07-29T13:44:42Z</time>
      </trkpt>
      <trkpt lat="47.25236" lon="6.70469">
        <ele>458.6</ele>
        <time>2021-07-29T13:44:43Z</time>
      </trkpt>
      <trkpt lat="47.2524" lon="6.70472">
        <ele>458.6</ele>
        <time>2021-07-29T13:44:44Z</time>
      </trkpt>
      <trkpt lat="47.25245" lon="6.70475">
        <ele>458.8</ele>
        <time>2021-07-29T13:44:45Z</time>
      </trkpt>
      <trkpt lat="47.25249" lon="6.70478">
        <ele>458.8</ele>
        <time>2021-07-29T13:44:46Z</time>
      </trkpt>
      <trkpt lat="47.25254" lon="6.70481">
        <ele>458.6</ele>
        <time>2021-07-29T13:44:47Z</time>
      </trkpt>
      <trkpt lat="47.25258" lon="6.70484">
        <ele>458.6</ele>
        <time>2021-07-29T13:44:48Z</time>
      </trkpt>
      <trkpt lat="47.25263" lon="6.70487">
        <ele>458.6</ele>
        <time>2021-07-29T13:44:49Z</time>
      </trkpt>
      <trkpt lat="47.25267" lon="6.70491">
        <ele>458.6</ele>
        <time>2021-07-29T13:44:50Z</time>
      </trkpt>
      <trkpt lat="47.25271" lon="6.70495">
        <ele>458.6</ele>
        <time>2021-07-29T13:44:51Z</time>
      </trkpt>
      <trkpt lat="47.25275" lon="6.70498">
        <ele>458.6</ele>
        <time>2021-07-29T13:44:52Z</time>
      </trkpt>
      <trkpt lat="47.2528" lon="6.70502">
        <ele>458.6</ele>
        <time>2021-07-29T13:44:53Z</time>
      </trkpt>
      <trkpt lat="47.25283" lon="6.70506">
        <ele>458.6</ele>
        <time>2021-07-29T13:44:54Z</time>
      </trkpt>
      <trkpt lat="47.25288" lon="6.70509">
        <ele>458.6</ele>
        <time>2021-07-29T13:44:55Z</time>
      </trkpt>
      <trkpt lat="47.25292" lon="6.70513">
        <ele>458.6</ele>
        <time>2021-07-29T13:44:56Z</time>
      </trkpt>
      <trkpt lat="47.25296" lon="6.70517">
        <ele>458.6</ele>
        <time>2021-07-29T13:44:57Z</time>
      </trkpt>
      <trkpt lat="47.253" lon="6.7052">
        <ele>458.6</ele>
        <time>2021-07-29T13:44:58Z</time>
      </trkpt>
      <trkpt lat="47.25304" lon="6.70524">
        <ele>458.6</ele>
        <time>2021-07-29T13:44:59Z</time>
      </trkpt>
      <trkpt lat="47.25308" lon="6.70528">
        <ele>458.6</ele>
        <time>2021-07-29T13:45:00Z</time>
      </trkpt>
      <trkpt lat="47.25311" lon="6.70532">
        <ele>458.6</ele>
        <time>2021-07-29T13:45:01Z</time>
      </trkpt>
      <trkpt lat="47.25315" lon="6.70535">
        <ele>458.6</ele>
        <time>2021-07-29T13:45:02Z</time>
      </trkpt>
      <trkpt lat="47.25319" lon="6.70539">
        <ele>458.6</ele>
        <time>2021-07-29T13:45:03Z</time>
      </trkpt>
      <trkpt lat="47.25323" lon="6.70543">
        <ele>458.4</ele>
        <time>2021-07-29T13:45:04Z</time>
      </trkpt>
      <trkpt lat="47.25328" lon="6.70547">
        <ele>458.4</ele>
        <time>2021-07-29T13:45:05Z</time>
      </trkpt>
      <trkpt lat="47.25332" lon="6.70551">
        <ele>458.4</ele>
        <time>2021-07-29T13:45:06Z</time>
      </trkpt>
      <trkpt lat="47.25336" lon="6.70555">
        <ele>458.2</ele>
        <time>2021-07-29T13:45:07Z</time>
      </trkpt>
      <trkpt lat="47.2534" lon="6.70559">
        <ele>458.2</ele>
        <time>2021-07-29T13:45:08Z</time>
      </trkpt>
      <trkpt lat="47.25344" lon="6.70563">
        <ele>458.2</ele>
        <time>2021-07-29T13:45:09Z</time>
      </trkpt>
      <trkpt lat="47.25348" lon="6.70567">
        <ele>458.2</ele>
        <time>2021-07-29T13:45:10Z</time>
      </trkpt>
      <trkpt lat="47.25352" lon="6.70572">
        <ele>458.2</ele>
        <time>2021-07-29T13:45:11Z</time>
      </trkpt>
      <trkpt lat="47.25356" lon="6.70577">
        <ele>458.2</ele>
        <time>2021-07-29T13:45:12Z</time>
      </trkpt>
      <trkpt lat="47.25359" lon="6.70582">
        <ele>458.2</ele>
        <time>2021-07-29T13:45:13Z</time>
      </trkpt>
      <trkpt lat="47.25363" lon="6.70588">
        <ele>458.2</ele>
        <time>2021-07-29T13:45:14Z</time>
      </trkpt>
      <trkpt lat="47.25366" lon="6.70593">
        <ele>458.2</ele>
        <time>2021-07-29T13:45:15Z</time>
      </trkpt>
      <trkpt lat="47.25369" lon="6.70599">
        <ele>458.2</ele>
        <time>2021-07-29T13:45:16Z</time>
      </trkpt>
      <trkpt lat="47.25372" lon="6.70605">
        <ele>458.2</ele>
        <time>2021-07-29T13:45:17Z</time>
      </trkpt>
      <trkpt lat="47.25374" lon="6.70612">
        <ele>458.4</ele>
        <time>2021-07-29T13:45:18Z</time>
      </trkpt>
      <trkpt lat="47.25376" lon="6.70618">
        <ele>458.4</ele>
        <time>2021-07-29T13:45:19Z</time>
      </trkpt>
      <trkpt lat="47.25377" lon="6.70625">
        <ele>458.4</ele>
        <time>2021-07-29T13:45:20Z</time>
      </trkpt>
      <trkpt lat="47.25377" lon="6.70631">
        <ele>458.2</ele>
        <time>2021-07-29T13:45:21Z</time>
      </trkpt>
      <trkpt lat="47.25378" lon="6.70638">
        <ele>458.4</ele>
        <time>2021-07-29T13:45:22Z</time>
      </trkpt>
      <trkpt lat="47.2538" lon="6.70645">
        <ele>458.4</ele>
        <time>2021-07-29T13:45:23Z</time>
      </trkpt>
      <trkpt lat="47.25381" lon="6.70652">
        <ele>458.4</ele>
        <time>2021-07-29T13:45:24Z</time>
      </trkpt>
      <trkpt lat="47.25382" lon="6.70659">
        <ele>458.6</ele>
        <time>2021-07-29T13:45:25Z</time>
      </trkpt>
      <trkpt lat="47.25384" lon="6.70666">
        <ele>458.6</ele>
        <time>2021-07-29T13:45:26Z</time>
      </trkpt>
      <trkpt lat="47.25386" lon="6.70673">
        <ele>458.6</ele>
        <time>2021-07-29T13:45:27Z</time>
      </trkpt>
      <trkpt lat="47.25387" lon="6.70679">
        <ele>458.4</ele>
        <time>2021-07-29T13:45:28Z</time>
      </trkpt>
      <trkpt lat="47.25389" lon="6.70686">
        <ele>458.4</ele>
        <time>2021-07-29T13:45:29Z</time>
      </trkpt>
      <trkpt lat="47.25391" lon="6.70692">
        <ele>458.6</ele>
        <time>2021-07-29T13:45:30Z</time>
      </trkpt>
      <trkpt lat="47.25394" lon="6.70698">
        <ele>458.6</ele>
        <time>2021-07-29T13:45:31Z</time>
      </trkpt>
      <trkpt lat="47.25396" lon="6.70704">
        <ele>458.4</ele>
        <time>2021-07-29T13:45:32Z</time>
      </trkpt>
      <trkpt lat="47.25399" lon="6.70709">
        <ele>458.4</ele>
        <time>2021-07-29T13:45:33Z</time>
      </trkpt>
      <trkpt lat="47.25402" lon="6.70715">
        <ele>458.4</ele>
        <time>2021-07-29T13:45:34Z</time>
      </trkpt>
      <trkpt lat="47.25405" lon="6.70721">
        <ele>458.4</ele>
        <time>2021-07-29T13:45:35Z</time>
      </trkpt>
      <trkpt lat="47.25407" lon="6.70727">
        <ele>458.4</ele>
        <time>2021-07-29T13:45:36Z</time>
      </trkpt>
      <trkpt lat="47.2541" lon="6.70733">
        <ele>458.4</ele>
        <time>2021-07-29T13:45:37Z</time>
      </trkpt>
      <trkpt lat="47.25413" lon="6.70739">
        <ele>458.4</ele>
        <time>2021-07-29T13:45:38Z</time>
      </trkpt>
      <trkpt lat="47.25416" lon="6.70745">
        <ele>458.4</ele>
        <time>2021-07-29T13:45:39Z</time>
      </trkpt>
      <trkpt lat="47.25419" lon="6.70751">
        <ele>458.2</ele>
        <time>2021-07-29T13:45:40Z</time>
      </trkpt>
      <trkpt lat="47.25422" lon="6.70756">
        <ele>458.2</ele>
        <time>2021-07-29T13:45:41Z</time>
      </trkpt>
      <trkpt lat="47.25426" lon="6.70762">
        <ele>458.2</ele>
        <time>2021-07-29T13:45:42Z</time>
      </trkpt>
      <trkpt lat="47.25429" lon="6.70768">
        <ele>458.2</ele>
        <time>2021-07-29T13:45:43Z</time>
      </trkpt>
      <trkpt lat="47.25432" lon="6.70774">
        <ele>458.2</ele>
        <time>2021-07-29T13:45:44Z</time>
      </trkpt>
      <trkpt lat="47.25436" lon="6.7078">
        <ele>458</ele>
        <time>2021-07-29T13:45:45Z</time>
      </trkpt>
      <trkpt lat="47.25439" lon="6.70787">
        <ele>458</ele>
        <time>2021-07-29T13:45:46Z</time>
      </trkpt>
      <trkpt lat="47.25443" lon="6.70793">
        <ele>458</ele>
        <time>2021-07-29T13:45:47Z</time>
      </trkpt>
      <trkpt lat="47.25446" lon="6.70799">
        <ele>457.8</ele>
        <time>2021-07-29T13:45:48Z</time>
      </trkpt>
      <trkpt lat="47.2545" lon="6.70806">
        <ele>457.8</ele>
        <time>2021-07-29T13:45:49Z</time>
      </trkpt>
      <trkpt lat="47.25454" lon="6.70813">
        <ele>457.8</ele>
        <time>2021-07-29T13:45:50Z</time>
      </trkpt>
      <trkpt lat="47.25457" lon="6.70819">
        <ele>458</ele>
        <time>2021-07-29T13:45:51Z</time>
      </trkpt>
      <trkpt lat="47.25462" lon="6.70826">
        <ele>457.8</ele>
        <time>2021-07-29T13:45:52Z</time>
      </trkpt>
      <trkpt lat="47.25465" lon="6.70832">
        <ele>457.8</ele>
        <time>2021-07-29T13:45:53Z</time>
      </trkpt>
      <trkpt lat="47.25469" lon="6.70839">
        <ele>457.8</ele>
        <time>2021-07-29T13:45:54Z</time>
      </trkpt>
      <trkpt lat="47.25473" lon="6.70845">
        <ele>457.8</ele>
        <time>2021-07-29T13:45:55Z</time>
      </trkpt>
      <trkpt lat="47.25477" lon="6.70851">
        <ele>457.8</ele>
        <time>2021-07-29T13:45:56Z</time>
      </trkpt>
      <trkpt lat="47.2548" lon="6.70858">
        <ele>457.8</ele>
        <time>2021-07-29T13:45:57Z</time>
      </trkpt>
      <trkpt lat="47.25484" lon="6.70865">
        <ele>457.6</ele>
        <time>2021-07-29T13:45:58Z</time>
      </trkpt>
      <trkpt lat="47.25487" lon="6.70871">
        <ele>457.6</ele>
        <time>2021-07-29T13:45:59Z</time>
      </trkpt>
      <trkpt lat="47.25491" lon="6.70878">
        <ele>457.6</ele>
        <time>2021-07-29T13:46:00Z</time>
      </trkpt>
      <trkpt lat="47.25494" lon="6.70884">
        <ele>457.6</ele>
        <time>2021-07-29T13:46:01Z</time>
      </trkpt>
      <trkpt lat="47.25498" lon="6.70891">
        <ele>457.6</ele>
        <time>2021-07-29T13:46:02Z</time>
      </trkpt>
      <trkpt lat="47.25501" lon="6.70898">
        <ele>457.6</ele>
        <time>2021-07-29T13:46:03Z</time>
      </trkpt>
      <trkpt lat="47.25504" lon="6.70906">
        <ele>457.6</ele>
        <time>2021-07-29T13:46:04Z</time>
      </trkpt>
      <trkpt lat="47.25506" lon="6.70913">
        <ele>457.6</ele>
        <time>2021-07-29T13:46:05Z</time>
      </trkpt>
      <trkpt lat="47.25509" lon="6.7092">
        <ele>457.6</ele>
        <time>2021-07-29T13:46:06Z</time>
      </trkpt>
      <trkpt lat="47.25512" lon="6.70928">
        <ele>457.6</ele>
        <time>2021-07-29T13:46:07Z</time>
      </trkpt>
      <trkpt lat="47.25514" lon="6.70935">
        <ele>457.6</ele>
        <time>2021-07-29T13:46:08Z</time>
      </trkpt>
      <trkpt lat="47.25516" lon="6.70943">
        <ele>457.6</ele>
        <time>2021-07-29T13:46:09Z</time>
      </trkpt>
      <trkpt lat="47.25518" lon="6.7095">
        <ele>457.6</ele>
        <time>2021-07-29T13:46:10Z</time>
      </trkpt>
      <trkpt lat="47.25519" lon="6.70958">
        <ele>457.6</ele>
        <time>2021-07-29T13:46:11Z</time>
      </trkpt>
      <trkpt lat="47.25521" lon="6.70966">
        <ele>457.6</ele>
        <time>2021-07-29T13:46:12Z</time>
      </trkpt>
      <trkpt lat="47.25522" lon="6.70974">
        <ele>457.6</ele>
        <time>2021-07-29T13:46:13Z</time>
      </trkpt>
      <trkpt lat="47.25523" lon="6.70982">
        <ele>457.6</ele>
        <time>2021-07-29T13:46:14Z</time>
      </trkpt>
      <trkpt lat="47.25524" lon="6.7099">
        <ele>457.6</ele>
        <time>2021-07-29T13:46:15Z</time>
      </trkpt>
      <trkpt lat="47.25524" lon="6.70998">
        <ele>457.6</ele>
        <time>2021-07-29T13:46:16Z</time>
      </trkpt>
      <trkpt lat="47.25525" lon="6.71006">
        <ele>457.8</ele>
        <time>2021-07-29T13:46:17Z</time>
      </trkpt>
      <trkpt lat="47.25526" lon="6.71014">
        <ele>457.8</ele>
        <time>2021-07-29T13:46:18Z</time>
      </trkpt>
      <trkpt lat="47.25526" lon="6.71022">
        <ele>457.6</ele>
        <time>2021-07-29T13:46:19Z</time>
      </trkpt>
      <trkpt lat="47.25526" lon="6.7103">
        <ele>457.6</ele>
        <time>2021-07-29T13:46:20Z</time>
      </trkpt>
      <trkpt lat="47.25527" lon="6.71038">
        <ele>457.6</ele>
        <time>2021-07-29T13:46:21Z</time>
      </trkpt>
      <trkpt lat="47.25527" lon="6.71046">
        <ele>457.6</ele>
        <time>2021-07-29T13:46:22Z</time>
      </trkpt>
      <trkpt lat="47.25526" lon="6.71054">
        <ele>457.6</ele>
        <time>2021-07-29T13:46:23Z</time>
      </trkpt>
      <trkpt lat="47.25525" lon="6.71062">
        <ele>457.6</ele>
        <time>2021-07-29T13:46:24Z</time>
      </trkpt>
      <trkpt lat="47.25524" lon="6.7107">
        <ele>457.4</ele>
        <time>2021-07-29T13:46:25Z</time>
      </trkpt>
      <trkpt lat="47.25524" lon="6.71078">
        <ele>457.4</ele>
        <time>2021-07-29T13:46:26Z</time>
      </trkpt>
      <trkpt lat="47.25523" lon="6.71086">
        <ele>457.2</ele>
        <time>2021-07-29T13:46:27Z</time>
      </trkpt>
      <trkpt lat="47.25521" lon="6.71094">
        <ele>457.2</ele>
        <time>2021-07-29T13:46:28Z</time>
      </trkpt>
      <trkpt lat="47.25519" lon="6.71102">
        <ele>457.2</ele>
        <time>2021-07-29T13:46:29Z</time>
      </trkpt>
      <trkpt lat="47.25518" lon="6.71109">
        <ele>457.2</ele>
        <time>2021-07-29T13:46:30Z</time>
      </trkpt>
      <trkpt lat="47.25516" lon="6.71117">
        <ele>457.4</ele>
        <time>2021-07-29T13:46:31Z</time>
      </trkpt>
      <trkpt lat="47.25514" lon="6.71124">
        <ele>457.4</ele>
        <time>2021-07-29T13:46:32Z</time>
      </trkpt>
      <trkpt lat="47.25512" lon="6.71132">
        <ele>457.4</ele>
        <time>2021-07-29T13:46:33Z</time>
      </trkpt>
      <trkpt lat="47.2551" lon="6.71139">
        <ele>457.4</ele>
        <time>2021-07-29T13:46:34Z</time>
      </trkpt>
      <trkpt lat="47.25508" lon="6.71146">
        <ele>457.4</ele>
        <time>2021-07-29T13:46:35Z</time>
      </trkpt>
      <trkpt lat="47.25506" lon="6.71153">
        <ele>457.4</ele>
        <time>2021-07-29T13:46:36Z</time>
      </trkpt>
      <trkpt lat="47.25504" lon="6.7116">
        <ele>457.4</ele>
        <time>2021-07-29T13:46:37Z</time>
      </trkpt>
      <trkpt lat="47.25502" lon="6.71167">
        <ele>457.6</ele>
        <time>2021-07-29T13:46:38Z</time>
      </trkpt>
      <trkpt lat="47.255" lon="6.71174">
        <ele>457.6</ele>
        <time>2021-07-29T13:46:39Z</time>
      </trkpt>
      <trkpt lat="47.25497" lon="6.71181">
        <ele>457.6</ele>
        <time>2021-07-29T13:46:40Z</time>
      </trkpt>
      <trkpt lat="47.25495" lon="6.71188">
        <ele>457.6</ele>
        <time>2021-07-29T13:46:41Z</time>
      </trkpt>
      <trkpt lat="47.25494" lon="6.71195">
        <ele>457.4</ele>
        <time>2021-07-29T13:46:42Z</time>
      </trkpt>
      <trkpt lat="47.25492" lon="6.71202">
        <ele>457.4</ele>
        <time>2021-07-29T13:46:43Z</time>
      </trkpt>
      <trkpt lat="47.25491" lon="6.7121">
        <ele>457.4</ele>
        <time>2021-07-29T13:46:44Z</time>
      </trkpt>
      <trkpt lat="47.25489" lon="6.71217">
        <ele>457.4</ele>
        <time>2021-07-29T13:46:45Z</time>
      </trkpt>
      <trkpt lat="47.25488" lon="6.71224">
        <ele>457.4</ele>
        <time>2021-07-29T13:46:46Z</time>
      </trkpt>
      <trkpt lat="47.25487" lon="6.71231">
        <ele>457.4</ele>
        <time>2021-07-29T13:46:47Z</time>
      </trkpt>
      <trkpt lat="47.25486" lon="6.71238">
        <ele>457.4</ele>
        <time>2021-07-29T13:46:48Z</time>
      </trkpt>
      <trkpt lat="47.25485" lon="6.71245">
        <ele>457.4</ele>
        <time>2021-07-29T13:46:49Z</time>
      </trkpt>
      <trkpt lat="47.25485" lon="6.71252">
        <ele>457.4</ele>
        <time>2021-07-29T13:46:50Z</time>
      </trkpt>
      <trkpt lat="47.25485" lon="6.71258">
        <ele>457.4</ele>
        <time>2021-07-29T13:46:51Z</time>
      </trkpt>
      <trkpt lat="47.25484" lon="6.71264">
        <ele>457.4</ele>
        <time>2021-07-29T13:46:52Z</time>
      </trkpt>
      <trkpt lat="47.25484" lon="6.7127">
        <ele>457.4</ele>
        <time>2021-07-29T13:46:53Z</time>
      </trkpt>
      <trkpt lat="47.25484" lon="6.71277">
        <ele>457.4</ele>
        <time>2021-07-29T13:46:54Z</time>
      </trkpt>
      <trkpt lat="47.25484" lon="6.71283">
        <ele>457.4</ele>
        <time>2021-07-29T13:46:55Z</time>
      </trkpt>
      <trkpt lat="47.25485" lon="6.71289">
        <ele>457.4</ele>
        <time>2021-07-29T13:46:56Z</time>
      </trkpt>
      <trkpt lat="47.25485" lon="6.71295">
        <ele>457.4</ele>
        <time>2021-07-29T13:46:57Z</time>
      </trkpt>
      <trkpt lat="47.25486" lon="6.71301">
        <ele>457.6</ele>
        <time>2021-07-29T13:46:58Z</time>
      </trkpt>
      <trkpt lat="47.25486" lon="6.71308">
        <ele>457.6</ele>
        <time>2021-07-29T13:46:59Z</time>
      </trkpt>
      <trkpt lat="47.25487" lon="6.71314">
        <ele>457.6</ele>
        <time>2021-07-29T13:47:00Z</time>
      </trkpt>
      <trkpt lat="47.25488" lon="6.7132">
        <ele>457.6</ele>
        <time>2021-07-29T13:47:01Z</time>
      </trkpt>
      <trkpt lat="47.25489" lon="6.71326">
        <ele>457.6</ele>
        <time>2021-07-29T13:47:02Z</time>
      </trkpt>
      <trkpt lat="47.2549" lon="6.71332">
        <ele>457.6</ele>
        <time>2021-07-29T13:47:03Z</time>
      </trkpt>
      <trkpt lat="47.25493" lon="6.71338">
        <ele>457.6</ele>
        <time>2021-07-29T13:47:04Z</time>
      </trkpt>
      <trkpt lat="47.25495" lon="6.71344">
        <ele>457.6</ele>
        <time>2021-07-29T13:47:05Z</time>
      </trkpt>
      <trkpt lat="47.25498" lon="6.7135">
        <ele>457.6</ele>
        <time>2021-07-29T13:47:06Z</time>
      </trkpt>
      <trkpt lat="47.25501" lon="6.71355">
        <ele>457.6</ele>
        <time>2021-07-29T13:47:07Z</time>
      </trkpt>
      <trkpt lat="47.25504" lon="6.71361">
        <ele>457.4</ele>
        <time>2021-07-29T13:47:08Z</time>
      </trkpt>
      <trkpt lat="47.25508" lon="6.71366">
        <ele>457.6</ele>
        <time>2021-07-29T13:47:09Z</time>
      </trkpt>
      <trkpt lat="47.25512" lon="6.71371">
        <ele>457.6</ele>
        <time>2021-07-29T13:47:10Z</time>
      </trkpt>
      <trkpt lat="47.25516" lon="6.71375">
        <ele>457.6</ele>
        <time>2021-07-29T13:47:11Z</time>
      </trkpt>
      <trkpt lat="47.2552" lon="6.71379">
        <ele>457.8</ele>
        <time>2021-07-29T13:47:12Z</time>
      </trkpt>
      <trkpt lat="47.25524" lon="6.71384">
        <ele>457.6</ele>
        <time>2021-07-29T13:47:13Z</time>
      </trkpt>
      <trkpt lat="47.25527" lon="6.71388">
        <ele>457.8</ele>
        <time>2021-07-29T13:47:14Z</time>
      </trkpt>
      <trkpt lat="47.25532" lon="6.71391">
        <ele>457.8</ele>
        <time>2021-07-29T13:47:15Z</time>
      </trkpt>
      <trkpt lat="47.25536" lon="6.71394">
        <ele>457.8</ele>
        <time>2021-07-29T13:47:16Z</time>
      </trkpt>
      <trkpt lat="47.2554" lon="6.71397">
        <ele>457.8</ele>
        <time>2021-07-29T13:47:17Z</time>
      </trkpt>
      <trkpt lat="47.25544" lon="6.71399">
        <ele>457.8</ele>
        <time>2021-07-29T13:47:18Z</time>
      </trkpt>
      <trkpt lat="47.25549" lon="6.71401">
        <ele>457.8</ele>
        <time>2021-07-29T13:47:19Z</time>
      </trkpt>
      <trkpt lat="47.25553" lon="6.71403">
        <ele>457.8</ele>
        <time>2021-07-29T13:47:20Z</time>
      </trkpt>
      <trkpt lat="47.25557" lon="6.71404">
        <ele>458</ele>
        <time>2021-07-29T13:47:21Z</time>
      </trkpt>
      <trkpt lat="47.25562" lon="6.71406">
        <ele>458</ele>
        <time>2021-07-29T13:47:22Z</time>
      </trkpt>
      <trkpt lat="47.25566" lon="6.71407">
        <ele>458</ele>
        <time>2021-07-29T13:47:23Z</time>
      </trkpt>
      <trkpt lat="47.2557" lon="6.71407">
        <ele>457.8</ele>
        <time>2021-07-29T13:47:24Z</time>
      </trkpt>
      <trkpt lat="47.25575" lon="6.71408">
        <ele>457.8</ele>
        <time>2021-07-29T13:47:25Z</time>
      </trkpt>
      <trkpt lat="47.2558" lon="6.71408">
        <ele>458</ele>
        <time>2021-07-29T13:47:26Z</time>
      </trkpt>
      <trkpt lat="47.25584" lon="6.71408">
        <ele>458</ele>
        <time>2021-07-29T13:47:27Z</time>
      </trkpt>
      <trkpt lat="47.25588" lon="6.71408">
        <ele>458.2</ele>
        <time>2021-07-29T13:47:28Z</time>
      </trkpt>
      <trkpt lat="47.25592" lon="6.71407">
        <ele>458.2</ele>
        <time>2021-07-29T13:47:29Z</time>
      </trkpt>
      <trkpt lat="47.25597" lon="6.71406">
        <ele>458.2</ele>
        <time>2021-07-29T13:47:30Z</time>
      </trkpt>
      <trkpt lat="47.25601" lon="6.71406">
        <ele>458.2</ele>
        <time>2021-07-29T13:47:31Z</time>
      </trkpt>
      <trkpt lat="47.25605" lon="6.71405">
        <ele>458.2</ele>
        <time>2021-07-29T13:47:32Z</time>
      </trkpt>
      <trkpt lat="47.2561" lon="6.71404">
        <ele>458.2</ele>
        <time>2021-07-29T13:47:33Z</time>
      </trkpt>
      <trkpt lat="47.25614" lon="6.71403">
        <ele>458.4</ele>
        <time>2021-07-29T13:47:34Z</time>
      </trkpt>
      <trkpt lat="47.25619" lon="6.71402">
        <ele>458.4</ele>
        <time>2021-07-29T13:47:35Z</time>
      </trkpt>
      <trkpt lat="47.25623" lon="6.71401">
        <ele>458.2</ele>
        <time>2021-07-29T13:47:36Z</time>
      </trkpt>
      <trkpt lat="47.25627" lon="6.714">
        <ele>458.2</ele>
        <time>2021-07-29T13:47:37Z</time>
      </trkpt>
      <trkpt lat="47.25632" lon="6.71399">
        <ele>458.2</ele>
        <time>2021-07-29T13:47:38Z</time>
      </trkpt>
      <trkpt lat="47.25637" lon="6.71398">
        <ele>458.2</ele>
        <time>2021-07-29T13:47:39Z</time>
      </trkpt>
      <trkpt lat="47.25641" lon="6.71396">
        <ele>458.2</ele>
        <time>2021-07-29T13:47:40Z</time>
      </trkpt>
      <trkpt lat="47.25645" lon="6.71395">
        <ele>458.2</ele>
        <time>2021-07-29T13:47:41Z</time>
      </trkpt>
      <trkpt lat="47.2565" lon="6.71395">
        <ele>458.2</ele>
        <time>2021-07-29T13:47:42Z</time>
      </trkpt>
      <trkpt lat="47.25654" lon="6.71393">
        <ele>458.2</ele>
        <time>2021-07-29T13:47:43Z</time>
      </trkpt>
      <trkpt lat="47.25659" lon="6.71393">
        <ele>458.4</ele>
        <time>2021-07-29T13:47:44Z</time>
      </trkpt>
      <trkpt lat="47.25664" lon="6.71392">
        <ele>458.4</ele>
        <time>2021-07-29T13:47:45Z</time>
      </trkpt>
      <trkpt lat="47.25668" lon="6.71391">
        <ele>458.4</ele>
        <time>2021-07-29T13:47:46Z</time>
      </trkpt>
      <trkpt lat="47.25673" lon="6.7139">
        <ele>458.4</ele>
        <time>2021-07-29T13:47:47Z</time>
      </trkpt>
      <trkpt lat="47.25678" lon="6.71389">
        <ele>458.4</ele>
        <time>2021-07-29T13:47:48Z</time>
      </trkpt>
      <trkpt lat="47.25682" lon="6.71388">
        <ele>458.4</ele>
        <time>2021-07-29T13:47:49Z</time>
      </trkpt>
      <trkpt lat="47.25687" lon="6.71387">
        <ele>458.4</ele>
        <time>2021-07-29T13:47:50Z</time>
      </trkpt>
      <trkpt lat="47.25691" lon="6.71386">
        <ele>458.4</ele>
        <time>2021-07-29T13:47:51Z</time>
      </trkpt>
      <trkpt lat="47.25696" lon="6.71385">
        <ele>458.4</ele>
        <time>2021-07-29T13:47:52Z</time>
      </trkpt>
      <trkpt lat="47.25701" lon="6.71384">
        <ele>458.6</ele>
        <time>2021-07-29T13:47:53Z</time>
      </trkpt>
      <trkpt lat="47.25705" lon="6.71383">
        <ele>458.4</ele>
        <time>2021-07-29T13:47:54Z</time>
      </trkpt>
      <trkpt lat="47.2571" lon="6.71382">
        <ele>458.4</ele>
        <time>2021-07-29T13:47:55Z</time>
      </trkpt>
      <trkpt lat="47.25714" lon="6.71381">
        <ele>458.4</ele>
        <time>2021-07-29T13:47:56Z</time>
      </trkpt>
      <trkpt lat="47.25719" lon="6.7138">
        <ele>458.4</ele>
        <time>2021-07-29T13:47:57Z</time>
      </trkpt>
      <trkpt lat="47.25724" lon="6.71379">
        <ele>458.4</ele>
        <time>2021-07-29T13:47:58Z</time>
      </trkpt>
      <trkpt lat="47.25729" lon="6.71378">
        <ele>458.4</ele>
        <time>2021-07-29T13:47:59Z</time>
      </trkpt>
      <trkpt lat="47.25733" lon="6.71377">
        <ele>458.4</ele>
        <time>2021-07-29T13:48:00Z</time>
      </trkpt>
      <trkpt lat="47.25738" lon="6.71376">
        <ele>458.4</ele>
        <time>2021-07-29T13:48:01Z</time>
      </trkpt>
      <trkpt lat="47.25743" lon="6.71376">
        <ele>458.4</ele>
        <time>2021-07-29T13:48:02Z</time>
      </trkpt>
      <trkpt lat="47.25747" lon="6.71376">
        <ele>458.4</ele>
        <time>2021-07-29T13:48:03Z</time>
      </trkpt>
      <trkpt lat="47.25751" lon="6.71375">
        <ele>458.4</ele>
        <time>2021-07-29T13:48:04Z</time>
      </trkpt>
      <trkpt lat="47.25755" lon="6.71375">
        <ele>458.4</ele>
        <time>2021-07-29T13:48:05Z</time>
      </trkpt>
      <trkpt lat="47.25759" lon="6.71375">
        <ele>458.4</ele>
        <time>2021-07-29T13:48:06Z</time>
      </trkpt>
      <trkpt lat="47.25762" lon="6.71376">
        <ele>458.4</ele>
        <time>2021-07-29T13:48:07Z</time>
      </trkpt>
      <trkpt lat="47.25765" lon="6.71377">
        <ele>458.4</ele>
        <time>2021-07-29T13:48:08Z</time>
      </trkpt>
      <trkpt lat="47.2577" lon="6.71378">
        <ele>458.4</ele>
        <time>2021-07-29T13:48:09Z</time>
      </trkpt>
      <trkpt lat="47.25774" lon="6.7138">
        <ele>458.2</ele>
        <time>2021-07-29T13:48:10Z</time>
      </trkpt>
      <trkpt lat="47.25779" lon="6.71383">
        <ele>458.4</ele>
        <time>2021-07-29T13:48:11Z</time>
      </trkpt>
      <trkpt lat="47.25784" lon="6.71386">
        <ele>458.4</ele>
        <time>2021-07-29T13:48:12Z</time>
      </trkpt>
      <trkpt lat="47.25789" lon="6.7139">
        <ele>458.4</ele>
        <time>2021-07-29T13:48:13Z</time>
      </trkpt>
      <trkpt lat="47.25794" lon="6.71395">
        <ele>458.4</ele>
        <time>2021-07-29T13:48:14Z</time>
      </trkpt>
      <trkpt lat="47.25798" lon="6.71399">
        <ele>458.4</ele>
        <time>2021-07-29T13:48:15Z</time>
      </trkpt>
      <trkpt lat="47.25802" lon="6.71403">
        <ele>458.4</ele>
        <time>2021-07-29T13:48:16Z</time>
      </trkpt>
      <trkpt lat="47.25806" lon="6.71407">
        <ele>458.6</ele>
        <time>2021-07-29T13:48:17Z</time>
      </trkpt>
      <trkpt lat="47.2581" lon="6.71412">
        <ele>458.6</ele>
        <time>2021-07-29T13:48:18Z</time>
      </trkpt>
      <trkpt lat="47.25815" lon="6.71416">
        <ele>458.6</ele>
        <time>2021-07-29T13:48:19Z</time>
      </trkpt>
      <trkpt lat="47.25819" lon="6.7142">
        <ele>458.6</ele>
        <time>2021-07-29T13:48:20Z</time>
      </trkpt>
      <trkpt lat="47.25823" lon="6.71425">
        <ele>458.6</ele>
        <time>2021-07-29T13:48:21Z</time>
      </trkpt>
      <trkpt lat="47.25827" lon="6.71429">
        <ele>458.4</ele>
        <time>2021-07-29T13:48:22Z</time>
      </trkpt>
      <trkpt lat="47.25832" lon="6.71434">
        <ele>458.4</ele>
        <time>2021-07-29T13:48:23Z</time>
      </trkpt>
      <trkpt lat="47.25836" lon="6.71439">
        <ele>458.6</ele>
        <time>2021-07-29T13:48:24Z</time>
      </trkpt>
      <trkpt lat="47.2584" lon="6.71443">
        <ele>458.4</ele>
        <time>2021-07-29T13:48:25Z</time>
      </trkpt>
      <trkpt lat="47.25844" lon="6.71448">
        <ele>458.4</ele>
        <time>2021-07-29T13:48:26Z</time>
      </trkpt>
      <trkpt lat="47.25848" lon="6.71452">
        <ele>458.4</ele>
        <time>2021-07-29T13:48:27Z</time>
      </trkpt>
      <trkpt lat="47.25853" lon="6.71457">
        <ele>458.6</ele>
        <time>2021-07-29T13:48:28Z</time>
      </trkpt>
      <trkpt lat="47.25857" lon="6.71462">
        <ele>458.4</ele>
        <time>2021-07-29T13:48:29Z</time>
      </trkpt>
      <trkpt lat="47.2586" lon="6.71467">
        <ele>458.4</ele>
        <time>2021-07-29T13:48:30Z</time>
      </trkpt>
      <trkpt lat="47.25864" lon="6.71473">
        <ele>458.4</ele>
        <time>2021-07-29T13:48:31Z</time>
      </trkpt>
      <trkpt lat="47.25868" lon="6.71478">
        <ele>458.4</ele>
        <time>2021-07-29T13:48:32Z</time>
      </trkpt>
      <trkpt lat="47.25872" lon="6.71483">
        <ele>458.4</ele>
        <time>2021-07-29T13:48:33Z</time>
      </trkpt>
      <trkpt lat="47.25876" lon="6.71489">
        <ele>458.2</ele>
        <time>2021-07-29T13:48:34Z</time>
      </trkpt>
      <trkpt lat="47.25879" lon="6.71495">
        <ele>458.2</ele>
        <time>2021-07-29T13:48:35Z</time>
      </trkpt>
      <trkpt lat="47.25883" lon="6.715">
        <ele>458.2</ele>
        <time>2021-07-29T13:48:36Z</time>
      </trkpt>
      <trkpt lat="47.25887" lon="6.71506">
        <ele>458.2</ele>
        <time>2021-07-29T13:48:37Z</time>
      </trkpt>
      <trkpt lat="47.2589" lon="6.71512">
        <ele>458.2</ele>
        <time>2021-07-29T13:48:38Z</time>
      </trkpt>
      <trkpt lat="47.25894" lon="6.71518">
        <ele>458.2</ele>
        <time>2021-07-29T13:48:39Z</time>
      </trkpt>
      <trkpt lat="47.25897" lon="6.71525">
        <ele>458.2</ele>
        <time>2021-07-29T13:48:40Z</time>
      </trkpt>
      <trkpt lat="47.259" lon="6.71531">
        <ele>458.4</ele>
        <time>2021-07-29T13:48:41Z</time>
      </trkpt>
      <trkpt lat="47.25903" lon="6.71537">
        <ele>458.4</ele>
        <time>2021-07-29T13:48:42Z</time>
      </trkpt>
      <trkpt lat="47.25906" lon="6.71544">
        <ele>458.6</ele>
        <time>2021-07-29T13:48:43Z</time>
      </trkpt>
      <trkpt lat="47.25909" lon="6.7155">
        <ele>458.6</ele>
        <time>2021-07-29T13:48:44Z</time>
      </trkpt>
      <trkpt lat="47.25911" lon="6.71556">
        <ele>458.6</ele>
        <time>2021-07-29T13:48:45Z</time>
      </trkpt>
      <trkpt lat="47.25913" lon="6.71563">
        <ele>458.6</ele>
        <time>2021-07-29T13:48:46Z</time>
      </trkpt>
      <trkpt lat="47.25915" lon="6.71569">
        <ele>458.6</ele>
        <time>2021-07-29T13:48:47Z</time>
      </trkpt>
      <trkpt lat="47.25917" lon="6.71575">
        <ele>458.4</ele>
        <time>2021-07-29T13:48:48Z</time>
      </trkpt>
      <trkpt lat="47.25919" lon="6.71582">
        <ele>458.4</ele>
        <time>2021-07-29T13:48:49Z</time>
      </trkpt>
      <trkpt lat="47.25922" lon="6.71588">
        <ele>458.4</ele>
        <time>2021-07-29T13:48:50Z</time>
      </trkpt>
      <trkpt lat="47.25924" lon="6.71595">
        <ele>458.4</ele>
        <time>2021-07-29T13:48:51Z</time>
      </trkpt>
      <trkpt lat="47.25927" lon="6.71601">
        <ele>458.4</ele>
        <time>2021-07-29T13:48:52Z</time>
      </trkpt>
      <trkpt lat="47.25929" lon="6.71608">
        <ele>458.6</ele>
        <time>2021-07-29T13:48:53Z</time>
      </trkpt>
      <trkpt lat="47.25932" lon="6.71615">
        <ele>458.4</ele>
        <time>2021-07-29T13:48:54Z</time>
      </trkpt>
      <trkpt lat="47.25934" lon="6.71622">
        <ele>458.4</ele>
        <time>2021-07-29T13:48:55Z</time>
      </trkpt>
      <trkpt lat="47.25936" lon="6.71629">
        <ele>458.4</ele>
        <time>2021-07-29T13:48:56Z</time>
      </trkpt>
      <trkpt lat="47.25938" lon="6.71636">
        <ele>458.4</ele>
        <time>2021-07-29T13:48:57Z</time>
      </trkpt>
      <trkpt lat="47.2594" lon="6.71643">
        <ele>458.4</ele>
        <time>2021-07-29T13:48:58Z</time>
      </trkpt>
      <trkpt lat="47.25941" lon="6.7165">
        <ele>458.4</ele>
        <time>2021-07-29T13:48:59Z</time>
      </trkpt>
      <trkpt lat="47.25943" lon="6.71657">
        <ele>458.4</ele>
        <time>2021-07-29T13:49:00Z</time>
      </trkpt>
      <trkpt lat="47.25945" lon="6.71664">
        <ele>458.4</ele>
        <time>2021-07-29T13:49:01Z</time>
      </trkpt>
      <trkpt lat="47.25947" lon="6.71671">
        <ele>458.4</ele>
        <time>2021-07-29T13:49:02Z</time>
      </trkpt>
      <trkpt lat="47.25949" lon="6.71678">
        <ele>458.6</ele>
        <time>2021-07-29T13:49:03Z</time>
      </trkpt>
      <trkpt lat="47.25951" lon="6.71685">
        <ele>458.4</ele>
        <time>2021-07-29T13:49:04Z</time>
      </trkpt>
      <trkpt lat="47.25953" lon="6.71692">
        <ele>458.4</ele>
        <time>2021-07-29T13:49:05Z</time>
      </trkpt>
      <trkpt lat="47.25955" lon="6.71699">
        <ele>458.6</ele>
        <time>2021-07-29T13:49:06Z</time>
      </trkpt>
      <trkpt lat="47.25957" lon="6.71706">
        <ele>458.6</ele>
        <time>2021-07-29T13:49:07Z</time>
      </trkpt>
      <trkpt lat="47.25959" lon="6.71713">
        <ele>458.4</ele>
        <time>2021-07-29T13:49:08Z</time>
      </trkpt>
      <trkpt lat="47.25961" lon="6.7172">
        <ele>458.4</ele>
        <time>2021-07-29T13:49:09Z</time>
      </trkpt>
      <trkpt lat="47.25963" lon="6.71727">
        <ele>458.2</ele>
        <time>2021-07-29T13:49:10Z</time>
      </trkpt>
      <trkpt lat="47.25965" lon="6.71735">
        <ele>458.2</ele>
        <time>2021-07-29T13:49:11Z</time>
      </trkpt>
      <trkpt lat="47.25967" lon="6.71742">
        <ele>458.2</ele>
        <time>2021-07-29T13:49:12Z</time>
      </trkpt>
      <trkpt lat="47.25967" lon="6.71748">
        <ele>458</ele>
        <time>2021-07-29T13:49:13Z</time>
      </trkpt>
      <trkpt lat="47.25969" lon="6.71755">
        <ele>458</ele>
        <time>2021-07-29T13:49:14Z</time>
      </trkpt>
      <trkpt lat="47.25971" lon="6.71763">
        <ele>458</ele>
        <time>2021-07-29T13:49:15Z</time>
      </trkpt>
      <trkpt lat="47.25973" lon="6.7177">
        <ele>458</ele>
        <time>2021-07-29T13:49:16Z</time>
      </trkpt>
      <trkpt lat="47.25973" lon="6.71777">
        <ele>458</ele>
        <time>2021-07-29T13:49:17Z</time>
      </trkpt>
      <trkpt lat="47.25975" lon="6.71784">
        <ele>458</ele>
        <time>2021-07-29T13:49:18Z</time>
      </trkpt>
      <trkpt lat="47.25977" lon="6.71792">
        <ele>457.8</ele>
        <time>2021-07-29T13:49:19Z</time>
      </trkpt>
      <trkpt lat="47.25979" lon="6.71799">
        <ele>457.8</ele>
        <time>2021-07-29T13:49:20Z</time>
      </trkpt>
      <trkpt lat="47.25981" lon="6.71807">
        <ele>457.6</ele>
        <time>2021-07-29T13:49:21Z</time>
      </trkpt>
      <trkpt lat="47.25983" lon="6.71815">
        <ele>457.6</ele>
        <time>2021-07-29T13:49:22Z</time>
      </trkpt>
      <trkpt lat="47.25985" lon="6.71822">
        <ele>457.4</ele>
        <time>2021-07-29T13:49:23Z</time>
      </trkpt>
      <trkpt lat="47.25982" lon="6.71828">
        <ele>457.4</ele>
        <time>2021-07-29T13:49:24Z</time>
      </trkpt>
      <trkpt lat="47.25984" lon="6.71835">
        <ele>457.4</ele>
        <time>2021-07-29T13:49:25Z</time>
      </trkpt>
      <trkpt lat="47.25986" lon="6.71841">
        <ele>457.2</ele>
        <time>2021-07-29T13:49:26Z</time>
      </trkpt>
      <trkpt lat="47.2599" lon="6.71847">
        <ele>457.2</ele>
        <time>2021-07-29T13:49:27Z</time>
      </trkpt>
      <trkpt lat="47.25994" lon="6.71853">
        <ele>457</ele>
        <time>2021-07-29T13:49:28Z</time>
      </trkpt>
      <trkpt lat="47.25999" lon="6.71857">
        <ele>456.8</ele>
        <time>2021-07-29T13:49:29Z</time>
      </trkpt>
      <trkpt lat="47.26003" lon="6.7186">
        <ele>456.8</ele>
        <time>2021-07-29T13:49:30Z</time>
      </trkpt>
      <trkpt lat="47.26007" lon="6.71862">
        <ele>456.6</ele>
        <time>2021-07-29T13:49:31Z</time>
      </trkpt>
      <trkpt lat="47.26013" lon="6.71863">
        <ele>456.6</ele>
        <time>2021-07-29T13:49:32Z</time>
      </trkpt>
      <trkpt lat="47.26019" lon="6.71863">
        <ele>456.6</ele>
        <time>2021-07-29T13:49:33Z</time>
      </trkpt>
      <trkpt lat="47.26024" lon="6.71863">
        <ele>456.8</ele>
        <time>2021-07-29T13:49:34Z</time>
      </trkpt>
      <trkpt lat="47.26029" lon="6.71861">
        <ele>456.8</ele>
        <time>2021-07-29T13:49:35Z</time>
      </trkpt>
      <trkpt lat="47.26034" lon="6.71859">
        <ele>456.8</ele>
        <time>2021-07-29T13:49:36Z</time>
      </trkpt>
      <trkpt lat="47.26039" lon="6.71858">
        <ele>456.6</ele>
        <time>2021-07-29T13:49:37Z</time>
      </trkpt>
      <trkpt lat="47.26044" lon="6.71856">
        <ele>456.4</ele>
        <time>2021-07-29T13:49:38Z</time>
      </trkpt>
      <trkpt lat="47.26049" lon="6.71854">
        <ele>456.4</ele>
        <time>2021-07-29T13:49:39Z</time>
      </trkpt>
      <trkpt lat="47.26054" lon="6.71853">
        <ele>456.4</ele>
        <time>2021-07-29T13:49:40Z</time>
      </trkpt>
      <trkpt lat="47.2606" lon="6.71851">
        <ele>456.4</ele>
        <time>2021-07-29T13:49:41Z</time>
      </trkpt>
      <trkpt lat="47.26064" lon="6.7185">
        <ele>456.6</ele>
        <time>2021-07-29T13:49:42Z</time>
      </trkpt>
      <trkpt lat="47.26069" lon="6.71849">
        <ele>456.6</ele>
        <time>2021-07-29T13:49:43Z</time>
      </trkpt>
      <trkpt lat="47.26074" lon="6.71848">
        <ele>456.4</ele>
        <time>2021-07-29T13:49:44Z</time>
      </trkpt>
      <trkpt lat="47.26079" lon="6.71846">
        <ele>456.4</ele>
        <time>2021-07-29T13:49:45Z</time>
      </trkpt>
      <trkpt lat="47.26084" lon="6.71846">
        <ele>456.4</ele>
        <time>2021-07-29T13:49:46Z</time>
      </trkpt>
      <trkpt lat="47.26089" lon="6.71845">
        <ele>456.2</ele>
        <time>2021-07-29T13:49:47Z</time>
      </trkpt>
      <trkpt lat="47.26094" lon="6.71844">
        <ele>456.2</ele>
        <time>2021-07-29T13:49:48Z</time>
      </trkpt>
      <trkpt lat="47.261" lon="6.71844">
        <ele>456.2</ele>
        <time>2021-07-29T13:49:49Z</time>
      </trkpt>
      <trkpt lat="47.26105" lon="6.71843">
        <ele>456</ele>
        <time>2021-07-29T13:49:50Z</time>
      </trkpt>
      <trkpt lat="47.26111" lon="6.71842">
        <ele>456</ele>
        <time>2021-07-29T13:49:51Z</time>
      </trkpt>
      <trkpt lat="47.26116" lon="6.71841">
        <ele>456</ele>
        <time>2021-07-29T13:49:52Z</time>
      </trkpt>
      <trkpt lat="47.26121" lon="6.7184">
        <ele>455.8</ele>
        <time>2021-07-29T13:49:53Z</time>
      </trkpt>
      <trkpt lat="47.26127" lon="6.71838">
        <ele>455.8</ele>
        <time>2021-07-29T13:49:54Z</time>
      </trkpt>
      <trkpt lat="47.26132" lon="6.71836">
        <ele>455.6</ele>
        <time>2021-07-29T13:49:55Z</time>
      </trkpt>
      <trkpt lat="47.26137" lon="6.71833">
        <ele>455.4</ele>
        <time>2021-07-29T13:49:56Z</time>
      </trkpt>
      <trkpt lat="47.26143" lon="6.71829">
        <ele>455.4</ele>
        <time>2021-07-29T13:49:57Z</time>
      </trkpt>
      <trkpt lat="47.26148" lon="6.71825">
        <ele>455.4</ele>
        <time>2021-07-29T13:49:58Z</time>
      </trkpt>
      <trkpt lat="47.26153" lon="6.7182">
        <ele>455.4</ele>
        <time>2021-07-29T13:49:59Z</time>
      </trkpt>
      <trkpt lat="47.26159" lon="6.71816">
        <ele>455.2</ele>
        <time>2021-07-29T13:50:00Z</time>
      </trkpt>
      <trkpt lat="47.26164" lon="6.71811">
        <ele>455</ele>
        <time>2021-07-29T13:50:01Z</time>
      </trkpt>
      <trkpt lat="47.26171" lon="6.71807">
        <ele>455</ele>
        <time>2021-07-29T13:50:02Z</time>
      </trkpt>
      <trkpt lat="47.26177" lon="6.71804">
        <ele>454.8</ele>
        <time>2021-07-29T13:50:03Z</time>
      </trkpt>
      <trkpt lat="47.26184" lon="6.71803">
        <ele>454.8</ele>
        <time>2021-07-29T13:50:04Z</time>
      </trkpt>
      <trkpt lat="47.26191" lon="6.71801">
        <ele>454.8</ele>
        <time>2021-07-29T13:50:05Z</time>
      </trkpt>
      <trkpt lat="47.26196" lon="6.71801">
        <ele>454.8</ele>
        <time>2021-07-29T13:50:06Z</time>
      </trkpt>
      <trkpt lat="47.26202" lon="6.71802">
        <ele>454.8</ele>
        <time>2021-07-29T13:50:07Z</time>
      </trkpt>
      <trkpt lat="47.26208" lon="6.71803">
        <ele>454.8</ele>
        <time>2021-07-29T13:50:08Z</time>
      </trkpt>
      <trkpt lat="47.26214" lon="6.71804">
        <ele>454.4</ele>
        <time>2021-07-29T13:50:09Z</time>
      </trkpt>
      <trkpt lat="47.26219" lon="6.71806">
        <ele>454.4</ele>
        <time>2021-07-29T13:50:10Z</time>
      </trkpt>
      <trkpt lat="47.26224" lon="6.71808">
        <ele>454.4</ele>
        <time>2021-07-29T13:50:11Z</time>
      </trkpt>
      <trkpt lat="47.26229" lon="6.7181">
        <ele>454.6</ele>
        <time>2021-07-29T13:50:12Z</time>
      </trkpt>
      <trkpt lat="47.26234" lon="6.71812">
        <ele>454.6</ele>
        <time>2021-07-29T13:50:13Z</time>
      </trkpt>
      <trkpt lat="47.26239" lon="6.71815">
        <ele>454.6</ele>
        <time>2021-07-29T13:50:14Z</time>
      </trkpt>
      <trkpt lat="47.26245" lon="6.71818">
        <ele>454.4</ele>
        <time>2021-07-29T13:50:15Z</time>
      </trkpt>
      <trkpt lat="47.26249" lon="6.71822">
        <ele>454.2</ele>
        <time>2021-07-29T13:50:16Z</time>
      </trkpt>
      <trkpt lat="47.26254" lon="6.71826">
        <ele>454.2</ele>
        <time>2021-07-29T13:50:17Z</time>
      </trkpt>
      <trkpt lat="47.2626" lon="6.71829">
        <ele>454.2</ele>
        <time>2021-07-29T13:50:18Z</time>
      </trkpt>
      <trkpt lat="47.26265" lon="6.71833">
        <ele>454</ele>
        <time>2021-07-29T13:50:19Z</time>
      </trkpt>
      <trkpt lat="47.26269" lon="6.71838">
        <ele>454</ele>
        <time>2021-07-29T13:50:20Z</time>
      </trkpt>
      <trkpt lat="47.26274" lon="6.71842">
        <ele>453.8</ele>
        <time>2021-07-29T13:50:21Z</time>
      </trkpt>
      <trkpt lat="47.26279" lon="6.71846">
        <ele>453.8</ele>
        <time>2021-07-29T13:50:22Z</time>
      </trkpt>
      <trkpt lat="47.26284" lon="6.71851">
        <ele>453.8</ele>
        <time>2021-07-29T13:50:23Z</time>
      </trkpt>
      <trkpt lat="47.26289" lon="6.71856">
        <ele>453.6</ele>
        <time>2021-07-29T13:50:24Z</time>
      </trkpt>
      <trkpt lat="47.26294" lon="6.71861">
        <ele>453.6</ele>
        <time>2021-07-29T13:50:25Z</time>
      </trkpt>
      <trkpt lat="47.26299" lon="6.71867">
        <ele>453.6</ele>
        <time>2021-07-29T13:50:26Z</time>
      </trkpt>
      <trkpt lat="47.26303" lon="6.71872">
        <ele>453.6</ele>
        <time>2021-07-29T13:50:27Z</time>
      </trkpt>
      <trkpt lat="47.26307" lon="6.71878">
        <ele>453.6</ele>
        <time>2021-07-29T13:50:28Z</time>
      </trkpt>
      <trkpt lat="47.26311" lon="6.71883">
        <ele>453.6</ele>
        <time>2021-07-29T13:50:29Z</time>
      </trkpt>
      <trkpt lat="47.26315" lon="6.71889">
        <ele>453.6</ele>
        <time>2021-07-29T13:50:30Z</time>
      </trkpt>
      <trkpt lat="47.26318" lon="6.71895">
        <ele>453.6</ele>
        <time>2021-07-29T13:50:31Z</time>
      </trkpt>
      <trkpt lat="47.26321" lon="6.71901">
        <ele>453.6</ele>
        <time>2021-07-29T13:50:32Z</time>
      </trkpt>
      <trkpt lat="47.26324" lon="6.71907">
        <ele>453.8</ele>
        <time>2021-07-29T13:50:33Z</time>
      </trkpt>
      <trkpt lat="47.26327" lon="6.71913">
        <ele>453.8</ele>
        <time>2021-07-29T13:50:34Z</time>
      </trkpt>
      <trkpt lat="47.26329" lon="6.71919">
        <ele>453.8</ele>
        <time>2021-07-29T13:50:35Z</time>
      </trkpt>
      <trkpt lat="47.26331" lon="6.71925">
        <ele>454</ele>
        <time>2021-07-29T13:50:36Z</time>
      </trkpt>
      <trkpt lat="47.26332" lon="6.71931">
        <ele>454</ele>
        <time>2021-07-29T13:50:37Z</time>
      </trkpt>
      <trkpt lat="47.26333" lon="6.71937">
        <ele>454</ele>
        <time>2021-07-29T13:50:38Z</time>
      </trkpt>
      <trkpt lat="47.26334" lon="6.71944">
        <ele>454.2</ele>
        <time>2021-07-29T13:50:39Z</time>
      </trkpt>
      <trkpt lat="47.26336" lon="6.7195">
        <ele>454.2</ele>
        <time>2021-07-29T13:50:40Z</time>
      </trkpt>
      <trkpt lat="47.26338" lon="6.71957">
        <ele>454.4</ele>
        <time>2021-07-29T13:50:41Z</time>
      </trkpt>
      <trkpt lat="47.26339" lon="6.71963">
        <ele>454.6</ele>
        <time>2021-07-29T13:50:42Z</time>
      </trkpt>
      <trkpt lat="47.2634" lon="6.71969">
        <ele>454.8</ele>
        <time>2021-07-29T13:50:43Z</time>
      </trkpt>
      <trkpt lat="47.26341" lon="6.71975">
        <ele>455</ele>
        <time>2021-07-29T13:50:44Z</time>
      </trkpt>
      <trkpt lat="47.26342" lon="6.71981">
        <ele>455.2</ele>
        <time>2021-07-29T13:50:45Z</time>
      </trkpt>
      <trkpt lat="47.26343" lon="6.71986">
        <ele>455.4</ele>
        <time>2021-07-29T13:50:46Z</time>
      </trkpt>
      <trkpt lat="47.26344" lon="6.71991">
        <ele>455.4</ele>
        <time>2021-07-29T13:50:47Z</time>
      </trkpt>
      <trkpt lat="47.26345" lon="6.71996">
        <ele>455.6</ele>
        <time>2021-07-29T13:50:48Z</time>
      </trkpt>
      <trkpt lat="47.26345" lon="6.72002">
        <ele>455.6</ele>
        <time>2021-07-29T13:50:49Z</time>
      </trkpt>
      <trkpt lat="47.26347" lon="6.72007">
        <ele>455.8</ele>
        <time>2021-07-29T13:50:50Z</time>
      </trkpt>
      <trkpt lat="47.26347" lon="6.72011">
        <ele>456</ele>
        <time>2021-07-29T13:50:51Z</time>
      </trkpt>
      <trkpt lat="47.26347" lon="6.72016">
        <ele>456.2</ele>
        <time>2021-07-29T13:50:52Z</time>
      </trkpt>
      <trkpt lat="47.26348" lon="6.7202">
        <ele>456.4</ele>
        <time>2021-07-29T13:50:53Z</time>
      </trkpt>
      <trkpt lat="47.26349" lon="6.72025">
        <ele>456.6</ele>
        <time>2021-07-29T13:50:54Z</time>
      </trkpt>
      <trkpt lat="47.26349" lon="6.72029">
        <ele>456.6</ele>
        <time>2021-07-29T13:50:55Z</time>
      </trkpt>
      <trkpt lat="47.26349" lon="6.72034">
        <ele>456.6</ele>
        <time>2021-07-29T13:50:56Z</time>
      </trkpt>
      <trkpt lat="47.26349" lon="6.72038">
        <ele>456.8</ele>
        <time>2021-07-29T13:50:57Z</time>
      </trkpt>
      <trkpt lat="47.2635" lon="6.72043">
        <ele>456.8</ele>
        <time>2021-07-29T13:50:58Z</time>
      </trkpt>
      <trkpt lat="47.26349" lon="6.72048">
        <ele>457</ele>
        <time>2021-07-29T13:50:59Z</time>
      </trkpt>
      <trkpt lat="47.26349" lon="6.72052">
        <ele>457.2</ele>
        <time>2021-07-29T13:51:00Z</time>
      </trkpt>
      <trkpt lat="47.26349" lon="6.72056">
        <ele>457.2</ele>
        <time>2021-07-29T13:51:01Z</time>
      </trkpt>
      <trkpt lat="47.26349" lon="6.7206">
        <ele>457.4</ele>
        <time>2021-07-29T13:51:02Z</time>
      </trkpt>
      <trkpt lat="47.26348" lon="6.72064">
        <ele>457.6</ele>
        <time>2021-07-29T13:51:03Z</time>
      </trkpt>
      <trkpt lat="47.26348" lon="6.72068">
        <ele>457.6</ele>
        <time>2021-07-29T13:51:04Z</time>
      </trkpt>
      <trkpt lat="47.26347" lon="6.72071">
        <ele>457.8</ele>
        <time>2021-07-29T13:51:05Z</time>
      </trkpt>
      <trkpt lat="47.26347" lon="6.72075">
        <ele>458</ele>
        <time>2021-07-29T13:51:06Z</time>
      </trkpt>
      <trkpt lat="47.26346" lon="6.72079">
        <ele>458</ele>
        <time>2021-07-29T13:51:07Z</time>
      </trkpt>
      <trkpt lat="47.26345" lon="6.72082">
        <ele>458.2</ele>
        <time>2021-07-29T13:51:08Z</time>
      </trkpt>
      <trkpt lat="47.26344" lon="6.72085">
        <ele>458.4</ele>
        <time>2021-07-29T13:51:09Z</time>
      </trkpt>
      <trkpt lat="47.26344" lon="6.72089">
        <ele>458.6</ele>
        <time>2021-07-29T13:51:10Z</time>
      </trkpt>
      <trkpt lat="47.26343" lon="6.72092">
        <ele>458.6</ele>
        <time>2021-07-29T13:51:11Z</time>
      </trkpt>
      <trkpt lat="47.26343" lon="6.72095">
        <ele>458.8</ele>
        <time>2021-07-29T13:51:12Z</time>
      </trkpt>
      <trkpt lat="47.26341" lon="6.72098">
        <ele>458.8</ele>
        <time>2021-07-29T13:51:13Z</time>
      </trkpt>
      <trkpt lat="47.2634" lon="6.72101">
        <ele>459</ele>
        <time>2021-07-29T13:51:14Z</time>
      </trkpt>
      <trkpt lat="47.2634" lon="6.72104">
        <ele>459</ele>
        <time>2021-07-29T13:51:15Z</time>
      </trkpt>
      <trkpt lat="47.26339" lon="6.72107">
        <ele>459.2</ele>
        <time>2021-07-29T13:51:16Z</time>
      </trkpt>
      <trkpt lat="47.26338" lon="6.72111">
        <ele>459.4</ele>
        <time>2021-07-29T13:51:17Z</time>
      </trkpt>
      <trkpt lat="47.26337" lon="6.72114">
        <ele>459.6</ele>
        <time>2021-07-29T13:51:18Z</time>
      </trkpt>
      <trkpt lat="47.26336" lon="6.72117">
        <ele>459.6</ele>
        <time>2021-07-29T13:51:19Z</time>
      </trkpt>
      <trkpt lat="47.26336" lon="6.7212">
        <ele>459.8</ele>
        <time>2021-07-29T13:51:20Z</time>
      </trkpt>
      <trkpt lat="47.26335" lon="6.72123">
        <ele>460</ele>
        <time>2021-07-29T13:51:21Z</time>
      </trkpt>
      <trkpt lat="47.26334" lon="6.72126">
        <ele>460.2</ele>
        <time>2021-07-29T13:51:22Z</time>
      </trkpt>
      <trkpt lat="47.26333" lon="6.72129">
        <ele>460.2</ele>
        <time>2021-07-29T13:51:23Z</time>
      </trkpt>
      <trkpt lat="47.26332" lon="6.72132">
        <ele>460.2</ele>
        <time>2021-07-29T13:51:24Z</time>
      </trkpt>
      <trkpt lat="47.26331" lon="6.72135">
        <ele>460.2</ele>
        <time>2021-07-29T13:51:25Z</time>
      </trkpt>
      <trkpt lat="47.2633" lon="6.72138">
        <ele>460.4</ele>
        <time>2021-07-29T13:51:26Z</time>
      </trkpt>
      <trkpt lat="47.26328" lon="6.72142">
        <ele>460.4</ele>
        <time>2021-07-29T13:51:27Z</time>
      </trkpt>
      <trkpt lat="47.26327" lon="6.72145">
        <ele>460.4</ele>
        <time>2021-07-29T13:51:28Z</time>
      </trkpt>
      <trkpt lat="47.26326" lon="6.72148">
        <ele>460.6</ele>
        <time>2021-07-29T13:51:29Z</time>
      </trkpt>
      <trkpt lat="47.26325" lon="6.72151">
        <ele>460.6</ele>
        <time>2021-07-29T13:51:30Z</time>
      </trkpt>
      <trkpt lat="47.26324" lon="6.72154">
        <ele>460.8</ele>
        <time>2021-07-29T13:51:31Z</time>
      </trkpt>
      <trkpt lat="47.26323" lon="6.72157">
        <ele>461</ele>
        <time>2021-07-29T13:51:32Z</time>
      </trkpt>
      <trkpt lat="47.26322" lon="6.7216">
        <ele>461</ele>
        <time>2021-07-29T13:51:33Z</time>
      </trkpt>
      <trkpt lat="47.26321" lon="6.72163">
        <ele>461</ele>
        <time>2021-07-29T13:51:34Z</time>
      </trkpt>
      <trkpt lat="47.2632" lon="6.72166">
        <ele>461</ele>
        <time>2021-07-29T13:51:35Z</time>
      </trkpt>
      <trkpt lat="47.26319" lon="6.72169">
        <ele>461.2</ele>
        <time>2021-07-29T13:51:36Z</time>
      </trkpt>
      <trkpt lat="47.26318" lon="6.72172">
        <ele>461.2</ele>
        <time>2021-07-29T13:51:37Z</time>
      </trkpt>
      <trkpt lat="47.26317" lon="6.72175">
        <ele>461.2</ele>
        <time>2021-07-29T13:51:38Z</time>
      </trkpt>
      <trkpt lat="47.26316" lon="6.72178">
        <ele>461.4</ele>
        <time>2021-07-29T13:51:39Z</time>
      </trkpt>
      <trkpt lat="47.26315" lon="6.72181">
        <ele>461.4</ele>
        <time>2021-07-29T13:51:40Z</time>
      </trkpt>
      <trkpt lat="47.26314" lon="6.72183">
        <ele>461.6</ele>
        <time>2021-07-29T13:51:41Z</time>
      </trkpt>
      <trkpt lat="47.26312" lon="6.72186">
        <ele>461.6</ele>
        <time>2021-07-29T13:51:42Z</time>
      </trkpt>
      <trkpt lat="47.26311" lon="6.72189">
        <ele>461.8</ele>
        <time>2021-07-29T13:51:43Z</time>
      </trkpt>
      <trkpt lat="47.26311" lon="6.72192">
        <ele>461.8</ele>
        <time>2021-07-29T13:51:44Z</time>
      </trkpt>
      <trkpt lat="47.26309" lon="6.72194">
        <ele>462</ele>
        <time>2021-07-29T13:51:45Z</time>
      </trkpt>
      <trkpt lat="47.26308" lon="6.72197">
        <ele>462</ele>
        <time>2021-07-29T13:51:46Z</time>
      </trkpt>
      <trkpt lat="47.26307" lon="6.722">
        <ele>462.2</ele>
        <time>2021-07-29T13:51:47Z</time>
      </trkpt>
      <trkpt lat="47.26305" lon="6.72202">
        <ele>462.2</ele>
        <time>2021-07-29T13:51:48Z</time>
      </trkpt>
      <trkpt lat="47.26304" lon="6.72205">
        <ele>462.4</ele>
        <time>2021-07-29T13:51:49Z</time>
      </trkpt>
      <trkpt lat="47.26303" lon="6.72207">
        <ele>462.6</ele>
        <time>2021-07-29T13:51:50Z</time>
      </trkpt>
      <trkpt lat="47.26301" lon="6.7221">
        <ele>462.6</ele>
        <time>2021-07-29T13:51:51Z</time>
      </trkpt>
      <trkpt lat="47.263" lon="6.72213">
        <ele>462.8</ele>
        <time>2021-07-29T13:51:52Z</time>
      </trkpt>
      <trkpt lat="47.26299" lon="6.72215">
        <ele>462.8</ele>
        <time>2021-07-29T13:51:53Z</time>
      </trkpt>
      <trkpt lat="47.26298" lon="6.72218">
        <ele>462.8</ele>
        <time>2021-07-29T13:51:54Z</time>
      </trkpt>
      <trkpt lat="47.26297" lon="6.7222">
        <ele>463</ele>
        <time>2021-07-29T13:51:55Z</time>
      </trkpt>
      <trkpt lat="47.26296" lon="6.72223">
        <ele>463.2</ele>
        <time>2021-07-29T13:51:56Z</time>
      </trkpt>
      <trkpt lat="47.26295" lon="6.72226">
        <ele>463.2</ele>
        <time>2021-07-29T13:51:57Z</time>
      </trkpt>
      <trkpt lat="47.26294" lon="6.72229">
        <ele>463.2</ele>
        <time>2021-07-29T13:51:58Z</time>
      </trkpt>
      <trkpt lat="47.26292" lon="6.72232">
        <ele>463.4</ele>
        <time>2021-07-29T13:51:59Z</time>
      </trkpt>
      <trkpt lat="47.26291" lon="6.72235">
        <ele>463.4</ele>
        <time>2021-07-29T13:52:00Z</time>
      </trkpt>
      <trkpt lat="47.26289" lon="6.72238">
        <ele>463.6</ele>
        <time>2021-07-29T13:52:01Z</time>
      </trkpt>
      <trkpt lat="47.26287" lon="6.72241">
        <ele>463.6</ele>
        <time>2021-07-29T13:52:02Z</time>
      </trkpt>
      <trkpt lat="47.26286" lon="6.72244">
        <ele>463.6</ele>
        <time>2021-07-29T13:52:03Z</time>
      </trkpt>
      <trkpt lat="47.26284" lon="6.72247">
        <ele>463.8</ele>
        <time>2021-07-29T13:52:04Z</time>
      </trkpt>
      <trkpt lat="47.26283" lon="6.72251">
        <ele>463.8</ele>
        <time>2021-07-29T13:52:05Z</time>
      </trkpt>
      <trkpt lat="47.26282" lon="6.72253">
        <ele>463.8</ele>
        <time>2021-07-29T13:52:06Z</time>
      </trkpt>
      <trkpt lat="47.2628" lon="6.72256">
        <ele>463.8</ele>
        <time>2021-07-29T13:52:07Z</time>
      </trkpt>
      <trkpt lat="47.2628" lon="6.72259">
        <ele>464</ele>
        <time>2021-07-29T13:52:08Z</time>
      </trkpt>
      <trkpt lat="47.26278" lon="6.72263">
        <ele>464</ele>
        <time>2021-07-29T13:52:09Z</time>
      </trkpt>
      <trkpt lat="47.26277" lon="6.72266">
        <ele>464.2</ele>
        <time>2021-07-29T13:52:10Z</time>
      </trkpt>
      <trkpt lat="47.26276" lon="6.72269">
        <ele>464.2</ele>
        <time>2021-07-29T13:52:11Z</time>
      </trkpt>
      <trkpt lat="47.26274" lon="6.72272">
        <ele>464.6</ele>
        <time>2021-07-29T13:52:12Z</time>
      </trkpt>
      <trkpt lat="47.26273" lon="6.72275">
        <ele>464.4</ele>
        <time>2021-07-29T13:52:13Z</time>
      </trkpt>
      <trkpt lat="47.26272" lon="6.72278">
        <ele>464.4</ele>
        <time>2021-07-29T13:52:14Z</time>
      </trkpt>
      <trkpt lat="47.2627" lon="6.72281">
        <ele>464.6</ele>
        <time>2021-07-29T13:52:15Z</time>
      </trkpt>
      <trkpt lat="47.26269" lon="6.72284">
        <ele>464.6</ele>
        <time>2021-07-29T13:52:16Z</time>
      </trkpt>
      <trkpt lat="47.26267" lon="6.72287">
        <ele>464.6</ele>
        <time>2021-07-29T13:52:17Z</time>
      </trkpt>
      <trkpt lat="47.26266" lon="6.72291">
        <ele>464.6</ele>
        <time>2021-07-29T13:52:18Z</time>
      </trkpt>
      <trkpt lat="47.26264" lon="6.72294">
        <ele>464.6</ele>
        <time>2021-07-29T13:52:19Z</time>
      </trkpt>
      <trkpt lat="47.26263" lon="6.72297">
        <ele>464.6</ele>
        <time>2021-07-29T13:52:20Z</time>
      </trkpt>
      <trkpt lat="47.26261" lon="6.72301">
        <ele>464.6</ele>
        <time>2021-07-29T13:52:21Z</time>
      </trkpt>
      <trkpt lat="47.2626" lon="6.72304">
        <ele>464.8</ele>
        <time>2021-07-29T13:52:22Z</time>
      </trkpt>
      <trkpt lat="47.26258" lon="6.72307">
        <ele>464.8</ele>
        <time>2021-07-29T13:52:23Z</time>
      </trkpt>
      <trkpt lat="47.26256" lon="6.7231">
        <ele>465</ele>
        <time>2021-07-29T13:52:24Z</time>
      </trkpt>
      <trkpt lat="47.26255" lon="6.72313">
        <ele>465</ele>
        <time>2021-07-29T13:52:25Z</time>
      </trkpt>
      <trkpt lat="47.26253" lon="6.72316">
        <ele>465.2</ele>
        <time>2021-07-29T13:52:26Z</time>
      </trkpt>
      <trkpt lat="47.26252" lon="6.72319">
        <ele>465.4</ele>
        <time>2021-07-29T13:52:27Z</time>
      </trkpt>
      <trkpt lat="47.2625" lon="6.72322">
        <ele>465.4</ele>
        <time>2021-07-29T13:52:28Z</time>
      </trkpt>
      <trkpt lat="47.26248" lon="6.72324">
        <ele>465.6</ele>
        <time>2021-07-29T13:52:29Z</time>
      </trkpt>
      <trkpt lat="47.26247" lon="6.72326">
        <ele>465.6</ele>
        <time>2021-07-29T13:52:30Z</time>
      </trkpt>
      <trkpt lat="47.26245" lon="6.72328">
        <ele>465.8</ele>
        <time>2021-07-29T13:52:31Z</time>
      </trkpt>
      <trkpt lat="47.26243" lon="6.7233">
        <ele>466</ele>
        <time>2021-07-29T13:52:32Z</time>
      </trkpt>
      <trkpt lat="47.26241" lon="6.72331">
        <ele>466.2</ele>
        <time>2021-07-29T13:52:33Z</time>
      </trkpt>
      <trkpt lat="47.26239" lon="6.72333">
        <ele>466.2</ele>
        <time>2021-07-29T13:52:34Z</time>
      </trkpt>
      <trkpt lat="47.26237" lon="6.72335">
        <ele>466.4</ele>
        <time>2021-07-29T13:52:35Z</time>
      </trkpt>
      <trkpt lat="47.26235" lon="6.72337">
        <ele>466.8</ele>
        <time>2021-07-29T13:52:36Z</time>
      </trkpt>
      <trkpt lat="47.26233" lon="6.72338">
        <ele>467</ele>
        <time>2021-07-29T13:52:37Z</time>
      </trkpt>
      <trkpt lat="47.26231" lon="6.72339">
        <ele>467</ele>
        <time>2021-07-29T13:52:38Z</time>
      </trkpt>
      <trkpt lat="47.26229" lon="6.7234">
        <ele>467.2</ele>
        <time>2021-07-29T13:52:39Z</time>
      </trkpt>
      <trkpt lat="47.26228" lon="6.72341">
        <ele>467.4</ele>
        <time>2021-07-29T13:52:40Z</time>
      </trkpt>
      <trkpt lat="47.26226" lon="6.72342">
        <ele>467.6</ele>
        <time>2021-07-29T13:52:41Z</time>
      </trkpt>
      <trkpt lat="47.26224" lon="6.72343">
        <ele>467.6</ele>
        <time>2021-07-29T13:52:42Z</time>
      </trkpt>
      <trkpt lat="47.26221" lon="6.72344">
        <ele>467.6</ele>
        <time>2021-07-29T13:52:43Z</time>
      </trkpt>
      <trkpt lat="47.2622" lon="6.72345">
        <ele>467.8</ele>
        <time>2021-07-29T13:52:44Z</time>
      </trkpt>
      <trkpt lat="47.26218" lon="6.72347">
        <ele>467.8</ele>
        <time>2021-07-29T13:52:45Z</time>
      </trkpt>
      <trkpt lat="47.26216" lon="6.72347">
        <ele>467.8</ele>
        <time>2021-07-29T13:52:46Z</time>
      </trkpt>
      <trkpt lat="47.26214" lon="6.72348">
        <ele>468</ele>
        <time>2021-07-29T13:52:47Z</time>
      </trkpt>
      <trkpt lat="47.26212" lon="6.72349">
        <ele>468</ele>
        <time>2021-07-29T13:52:48Z</time>
      </trkpt>
      <trkpt lat="47.2621" lon="6.7235">
        <ele>468.2</ele>
        <time>2021-07-29T13:52:49Z</time>
      </trkpt>
      <trkpt lat="47.26208" lon="6.72352">
        <ele>468.2</ele>
        <time>2021-07-29T13:52:50Z</time>
      </trkpt>
      <trkpt lat="47.26206" lon="6.72353">
        <ele>468.4</ele>
        <time>2021-07-29T13:52:51Z</time>
      </trkpt>
      <trkpt lat="47.26204" lon="6.72354">
        <ele>468.4</ele>
        <time>2021-07-29T13:52:52Z</time>
      </trkpt>
      <trkpt lat="47.26202" lon="6.72355">
        <ele>468.6</ele>
        <time>2021-07-29T13:52:53Z</time>
      </trkpt>
      <trkpt lat="47.262" lon="6.72356">
        <ele>468.6</ele>
        <time>2021-07-29T13:52:54Z</time>
      </trkpt>
      <trkpt lat="47.26198" lon="6.72357">
        <ele>468.8</ele>
        <time>2021-07-29T13:52:55Z</time>
      </trkpt>
      <trkpt lat="47.26197" lon="6.72358">
        <ele>468.8</ele>
        <time>2021-07-29T13:52:56Z</time>
      </trkpt>
      <trkpt lat="47.26195" lon="6.72359">
        <ele>469</ele>
        <time>2021-07-29T13:52:57Z</time>
      </trkpt>
      <trkpt lat="47.26194" lon="6.72361">
        <ele>469.2</ele>
        <time>2021-07-29T13:52:58Z</time>
      </trkpt>
      <trkpt lat="47.26193" lon="6.72362">
        <ele>469.2</ele>
        <time>2021-07-29T13:52:59Z</time>
      </trkpt>
      <trkpt lat="47.26192" lon="6.72364">
        <ele>469.4</ele>
        <time>2021-07-29T13:53:00Z</time>
      </trkpt>
      <trkpt lat="47.2619" lon="6.72365">
        <ele>469.4</ele>
        <time>2021-07-29T13:53:01Z</time>
      </trkpt>
      <trkpt lat="47.26188" lon="6.72366">
        <ele>469.4</ele>
        <time>2021-07-29T13:53:02Z</time>
      </trkpt>
      <trkpt lat="47.26187" lon="6.72368">
        <ele>469.6</ele>
        <time>2021-07-29T13:53:03Z</time>
      </trkpt>
      <trkpt lat="47.26185" lon="6.72369">
        <ele>469.6</ele>
        <time>2021-07-29T13:53:04Z</time>
      </trkpt>
      <trkpt lat="47.26184" lon="6.7237">
        <ele>469.6</ele>
        <time>2021-07-29T13:53:05Z</time>
      </trkpt>
      <trkpt lat="47.26182" lon="6.72372">
        <ele>469.4</ele>
        <time>2021-07-29T13:53:06Z</time>
      </trkpt>
      <trkpt lat="47.26179" lon="6.72375">
        <ele>469.4</ele>
        <time>2021-07-29T13:53:07Z</time>
      </trkpt>
      <trkpt lat="47.26176" lon="6.72376">
        <ele>469.4</ele>
        <time>2021-07-29T13:53:08Z</time>
      </trkpt>
      <trkpt lat="47.26174" lon="6.72377">
        <ele>469.4</ele>
        <time>2021-07-29T13:53:09Z</time>
      </trkpt>
      <trkpt lat="47.26171" lon="6.72379">
        <ele>469.4</ele>
        <time>2021-07-29T13:53:10Z</time>
      </trkpt>
      <trkpt lat="47.26169" lon="6.7238">
        <ele>469.4</ele>
        <time>2021-07-29T13:53:11Z</time>
      </trkpt>
      <trkpt lat="47.26166" lon="6.72381">
        <ele>469.4</ele>
        <time>2021-07-29T13:53:12Z</time>
      </trkpt>
      <trkpt lat="47.26164" lon="6.72382">
        <ele>469.4</ele>
        <time>2021-07-29T13:53:13Z</time>
      </trkpt>
      <trkpt lat="47.26161" lon="6.72384">
        <ele>469.4</ele>
        <time>2021-07-29T13:53:14Z</time>
      </trkpt>
      <trkpt lat="47.26158" lon="6.72385">
        <ele>469.4</ele>
        <time>2021-07-29T13:53:15Z</time>
      </trkpt>
      <trkpt lat="47.26156" lon="6.72386">
        <ele>469.4</ele>
        <time>2021-07-29T13:53:16Z</time>
      </trkpt>
      <trkpt lat="47.26153" lon="6.72388">
        <ele>469.2</ele>
        <time>2021-07-29T13:56:30Z</time>
      </trkpt>
      <trkpt lat="47.26151" lon="6.72389">
        <ele>469</ele>
        <time>2021-07-29T13:56:31Z</time>
      </trkpt>
      <trkpt lat="47.26143" lon="6.72394">
        <ele>468.8</ele>
        <time>2021-07-29T13:56:32Z</time>
      </trkpt>
      <trkpt lat="47.26139" lon="6.72398">
        <ele>468.6</ele>
        <time>2021-07-29T13:56:33Z</time>
      </trkpt>
      <trkpt lat="47.26137" lon="6.72401">
        <ele>468.4</ele>
        <time>2021-07-29T13:56:34Z</time>
      </trkpt>
      <trkpt lat="47.26135" lon="6.72403">
        <ele>468</ele>
        <time>2021-07-29T13:56:35Z</time>
      </trkpt>
      <trkpt lat="47.26131" lon="6.72409">
        <ele>467.8</ele>
        <time>2021-07-29T13:56:36Z</time>
      </trkpt>
      <trkpt lat="47.26127" lon="6.72416">
        <ele>467.6</ele>
        <time>2021-07-29T13:56:37Z</time>
      </trkpt>
      <trkpt lat="47.26119" lon="6.72432">
        <ele>467.2</ele>
        <time>2021-07-29T13:56:38Z</time>
      </trkpt>
      <trkpt lat="47.26118" lon="6.72437">
        <ele>467</ele>
        <time>2021-07-29T13:56:39Z</time>
      </trkpt>
      <trkpt lat="47.26117" lon="6.72441">
        <ele>466.6</ele>
        <time>2021-07-29T13:56:40Z</time>
      </trkpt>
      <trkpt lat="47.26115" lon="6.72452">
        <ele>466</ele>
        <time>2021-07-29T13:56:41Z</time>
      </trkpt>
      <trkpt lat="47.26113" lon="6.72463">
        <ele>465.6</ele>
        <time>2021-07-29T13:56:42Z</time>
      </trkpt>
      <trkpt lat="47.26114" lon="6.72475">
        <ele>465.2</ele>
        <time>2021-07-29T13:56:43Z</time>
      </trkpt>
      <trkpt lat="47.26116" lon="6.72486">
        <ele>464.8</ele>
        <time>2021-07-29T13:56:44Z</time>
      </trkpt>
      <trkpt lat="47.26119" lon="6.72499">
        <ele>464.2</ele>
        <time>2021-07-29T13:56:45Z</time>
      </trkpt>
      <trkpt lat="47.2612" lon="6.72511">
        <ele>463.6</ele>
        <time>2021-07-29T13:56:46Z</time>
      </trkpt>
      <trkpt lat="47.26122" lon="6.72524">
        <ele>463.2</ele>
        <time>2021-07-29T13:56:47Z</time>
      </trkpt>
      <trkpt lat="47.26122" lon="6.72537">
        <ele>462.6</ele>
        <time>2021-07-29T13:56:48Z</time>
      </trkpt>
      <trkpt lat="47.26122" lon="6.72551">
        <ele>462.2</ele>
        <time>2021-07-29T13:56:49Z</time>
      </trkpt>
      <trkpt lat="47.26121" lon="6.72565">
        <ele>461.8</ele>
        <time>2021-07-29T13:56:50Z</time>
      </trkpt>
      <trkpt lat="47.2612" lon="6.72579">
        <ele>461.4</ele>
        <time>2021-07-29T13:56:51Z</time>
      </trkpt>
      <trkpt lat="47.26118" lon="6.72593">
        <ele>461</ele>
        <time>2021-07-29T13:56:52Z</time>
      </trkpt>
      <trkpt lat="47.26119" lon="6.72607">
        <ele>460.8</ele>
        <time>2021-07-29T13:56:53Z</time>
      </trkpt>
      <trkpt lat="47.2612" lon="6.7262">
        <ele>460.4</ele>
        <time>2021-07-29T13:56:54Z</time>
      </trkpt>
      <trkpt lat="47.26123" lon="6.72633">
        <ele>459.8</ele>
        <time>2021-07-29T13:56:55Z</time>
      </trkpt>
      <trkpt lat="47.26126" lon="6.72646">
        <ele>459.4</ele>
        <time>2021-07-29T13:56:56Z</time>
      </trkpt>
      <trkpt lat="47.26129" lon="6.72658">
        <ele>458.8</ele>
        <time>2021-07-29T13:56:57Z</time>
      </trkpt>
      <trkpt lat="47.26133" lon="6.72682">
        <ele>458.4</ele>
        <time>2021-07-29T13:56:58Z</time>
      </trkpt>
      <trkpt lat="47.26133" lon="6.72688">
        <ele>458.2</ele>
        <time>2021-07-29T13:56:59Z</time>
      </trkpt>
      <trkpt lat="47.26133" lon="6.72694">
        <ele>457.8</ele>
        <time>2021-07-29T13:57:00Z</time>
      </trkpt>
      <trkpt lat="47.26132" lon="6.72706">
        <ele>457.4</ele>
        <time>2021-07-29T13:57:01Z</time>
      </trkpt>
      <trkpt lat="47.26133" lon="6.72717">
        <ele>457</ele>
        <time>2021-07-29T13:57:02Z</time>
      </trkpt>
      <trkpt lat="47.26135" lon="6.72729">
        <ele>456.6</ele>
        <time>2021-07-29T13:57:03Z</time>
      </trkpt>
      <trkpt lat="47.26136" lon="6.72741">
        <ele>456.2</ele>
        <time>2021-07-29T13:57:04Z</time>
      </trkpt>
      <trkpt lat="47.26138" lon="6.72753">
        <ele>455.8</ele>
        <time>2021-07-29T13:57:05Z</time>
      </trkpt>
      <trkpt lat="47.26139" lon="6.72764">
        <ele>455.4</ele>
        <time>2021-07-29T13:57:06Z</time>
      </trkpt>
      <trkpt lat="47.2614" lon="6.72776">
        <ele>455.2</ele>
        <time>2021-07-29T13:57:07Z</time>
      </trkpt>
      <trkpt lat="47.2614" lon="6.72788">
        <ele>455</ele>
        <time>2021-07-29T13:57:08Z</time>
      </trkpt>
      <trkpt lat="47.26141" lon="6.72799">
        <ele>454.8</ele>
        <time>2021-07-29T13:57:09Z</time>
      </trkpt>
      <trkpt lat="47.26141" lon="6.7281">
        <ele>454.6</ele>
        <time>2021-07-29T13:57:10Z</time>
      </trkpt>
      <trkpt lat="47.26142" lon="6.72822">
        <ele>454.2</ele>
        <time>2021-07-29T13:57:11Z</time>
      </trkpt>
      <trkpt lat="47.26144" lon="6.72834">
        <ele>453.8</ele>
        <time>2021-07-29T13:57:12Z</time>
      </trkpt>
      <trkpt lat="47.26144" lon="6.72845">
        <ele>453.4</ele>
        <time>2021-07-29T13:57:13Z</time>
      </trkpt>
      <trkpt lat="47.26143" lon="6.72857">
        <ele>453.2</ele>
        <time>2021-07-29T13:57:14Z</time>
      </trkpt>
      <trkpt lat="47.2614" lon="6.7288">
        <ele>452.8</ele>
        <time>2021-07-29T13:57:15Z</time>
      </trkpt>
      <trkpt lat="47.26139" lon="6.72886">
        <ele>452.4</ele>
        <time>2021-07-29T13:57:16Z</time>
      </trkpt>
      <trkpt lat="47.26138" lon="6.72892">
        <ele>452</ele>
        <time>2021-07-29T13:57:17Z</time>
      </trkpt>
      <trkpt lat="47.26133" lon="6.72915">
        <ele>451.6</ele>
        <time>2021-07-29T13:57:18Z</time>
      </trkpt>
      <trkpt lat="47.26132" lon="6.72921">
        <ele>451.2</ele>
        <time>2021-07-29T13:57:19Z</time>
      </trkpt>
      <trkpt lat="47.26131" lon="6.72927">
        <ele>450.8</ele>
        <time>2021-07-29T13:57:20Z</time>
      </trkpt>
      <trkpt lat="47.26129" lon="6.72938">
        <ele>450.6</ele>
        <time>2021-07-29T13:57:21Z</time>
      </trkpt>
      <trkpt lat="47.26126" lon="6.72949">
        <ele>450.2</ele>
        <time>2021-07-29T13:57:22Z</time>
      </trkpt>
      <trkpt lat="47.26122" lon="6.72959">
        <ele>450.2</ele>
        <time>2021-07-29T13:57:23Z</time>
      </trkpt>
      <trkpt lat="47.26116" lon="6.72979">
        <ele>450</ele>
        <time>2021-07-29T13:57:24Z</time>
      </trkpt>
      <trkpt lat="47.26114" lon="6.72984">
        <ele>450</ele>
        <time>2021-07-29T13:57:25Z</time>
      </trkpt>
      <trkpt lat="47.26113" lon="6.72989">
        <ele>449.8</ele>
        <time>2021-07-29T13:57:26Z</time>
      </trkpt>
      <trkpt lat="47.26107" lon="6.73002">
        <ele>449.6</ele>
        <time>2021-07-29T13:57:27Z</time>
      </trkpt>
      <trkpt lat="47.26105" lon="6.73007">
        <ele>449.6</ele>
        <time>2021-07-29T13:57:28Z</time>
      </trkpt>
      <trkpt lat="47.26096" lon="6.73024">
        <ele>449.4</ele>
        <time>2021-07-29T13:57:29Z</time>
      </trkpt>
      <trkpt lat="47.26091" lon="6.73032">
        <ele>449.4</ele>
        <time>2021-07-29T13:57:30Z</time>
      </trkpt>
      <trkpt lat="47.26088" lon="6.73035">
        <ele>449.2</ele>
        <time>2021-07-29T13:57:31Z</time>
      </trkpt>
      <trkpt lat="47.26085" lon="6.73039">
        <ele>449.2</ele>
        <time>2021-07-29T13:57:32Z</time>
      </trkpt>
      <trkpt lat="47.26077" lon="6.7305">
        <ele>449</ele>
        <time>2021-07-29T13:57:33Z</time>
      </trkpt>
      <trkpt lat="47.26075" lon="6.73054">
        <ele>449</ele>
        <time>2021-07-29T13:57:34Z</time>
      </trkpt>
      <trkpt lat="47.26069" lon="6.73065">
        <ele>449</ele>
        <time>2021-07-29T13:57:35Z</time>
      </trkpt>
      <trkpt lat="47.26067" lon="6.73069">
        <ele>449</ele>
        <time>2021-07-29T13:57:36Z</time>
      </trkpt>
      <trkpt lat="47.26061" lon="6.7308">
        <ele>448.8</ele>
        <time>2021-07-29T13:57:37Z</time>
      </trkpt>
      <trkpt lat="47.26059" lon="6.73084">
        <ele>448.8</ele>
        <time>2021-07-29T13:57:38Z</time>
      </trkpt>
      <trkpt lat="47.26053" lon="6.73097">
        <ele>448.8</ele>
        <time>2021-07-29T13:57:39Z</time>
      </trkpt>
      <trkpt lat="47.26051" lon="6.73103">
        <ele>448.8</ele>
        <time>2021-07-29T13:57:40Z</time>
      </trkpt>
      <trkpt lat="47.26047" lon="6.73115">
        <ele>448.8</ele>
        <time>2021-07-29T13:57:41Z</time>
      </trkpt>
      <trkpt lat="47.26044" lon="6.73124">
        <ele>448.8</ele>
        <time>2021-07-29T13:57:42Z</time>
      </trkpt>
      <trkpt lat="47.26044" lon="6.73128">
        <ele>448.8</ele>
        <time>2021-07-29T13:57:43Z</time>
      </trkpt>
      <trkpt lat="47.26043" lon="6.73132">
        <ele>448.8</ele>
        <time>2021-07-29T13:57:44Z</time>
      </trkpt>
      <trkpt lat="47.26039" lon="6.73149">
        <ele>448.8</ele>
        <time>2021-07-29T13:57:45Z</time>
      </trkpt>
      <trkpt lat="47.26037" lon="6.73158">
        <ele>448.8</ele>
        <time>2021-07-29T13:57:46Z</time>
      </trkpt>
      <trkpt lat="47.26036" lon="6.73162">
        <ele>448.8</ele>
        <time>2021-07-29T13:57:47Z</time>
      </trkpt>
      <trkpt lat="47.26035" lon="6.73166">
        <ele>449</ele>
        <time>2021-07-29T13:57:48Z</time>
      </trkpt>
      <trkpt lat="47.26032" lon="6.73183">
        <ele>449</ele>
        <time>2021-07-29T13:57:49Z</time>
      </trkpt>
      <trkpt lat="47.26031" lon="6.73192">
        <ele>449</ele>
        <time>2021-07-29T13:57:50Z</time>
      </trkpt>
      <trkpt lat="47.26029" lon="6.73199">
        <ele>449</ele>
        <time>2021-07-29T13:57:51Z</time>
      </trkpt>
      <trkpt lat="47.26027" lon="6.73205">
        <ele>449</ele>
        <time>2021-07-29T13:57:52Z</time>
      </trkpt>
      <trkpt lat="47.26023" lon="6.73218">
        <ele>449</ele>
        <time>2021-07-29T13:57:53Z</time>
      </trkpt>
      <trkpt lat="47.26023" lon="6.73222">
        <ele>449</ele>
        <time>2021-07-29T13:57:54Z</time>
      </trkpt>
      <trkpt lat="47.26022" lon="6.73226">
        <ele>448.8</ele>
        <time>2021-07-29T13:57:55Z</time>
      </trkpt>
      <trkpt lat="47.26022" lon="6.73243">
        <ele>448.8</ele>
        <time>2021-07-29T13:57:56Z</time>
      </trkpt>
      <trkpt lat="47.26023" lon="6.73251">
        <ele>449</ele>
        <time>2021-07-29T13:57:57Z</time>
      </trkpt>
      <trkpt lat="47.26024" lon="6.73259">
        <ele>449</ele>
        <time>2021-07-29T13:57:58Z</time>
      </trkpt>
      <trkpt lat="47.26025" lon="6.73263">
        <ele>449</ele>
        <time>2021-07-29T13:57:59Z</time>
      </trkpt>
      <trkpt lat="47.26026" lon="6.73268">
        <ele>448.8</ele>
        <time>2021-07-29T13:58:00Z</time>
      </trkpt>
      <trkpt lat="47.26027" lon="6.73275">
        <ele>448.8</ele>
        <time>2021-07-29T13:58:01Z</time>
      </trkpt>
      <trkpt lat="47.26028" lon="6.73283">
        <ele>448.8</ele>
        <time>2021-07-29T13:58:02Z</time>
      </trkpt>
      <trkpt lat="47.2603" lon="6.73291">
        <ele>448.8</ele>
        <time>2021-07-29T13:58:03Z</time>
      </trkpt>
      <trkpt lat="47.26034" lon="6.73306">
        <ele>448.8</ele>
        <time>2021-07-29T13:58:04Z</time>
      </trkpt>
      <trkpt lat="47.26035" lon="6.7331">
        <ele>448.8</ele>
        <time>2021-07-29T13:58:05Z</time>
      </trkpt>
      <trkpt lat="47.26036" lon="6.73314">
        <ele>448.8</ele>
        <time>2021-07-29T13:58:06Z</time>
      </trkpt>
      <trkpt lat="47.26038" lon="6.73321">
        <ele>448.8</ele>
        <time>2021-07-29T13:58:07Z</time>
      </trkpt>
      <trkpt lat="47.26042" lon="6.73336">
        <ele>448.8</ele>
        <time>2021-07-29T13:58:08Z</time>
      </trkpt>
      <trkpt lat="47.26045" lon="6.73343">
        <ele>448.8</ele>
        <time>2021-07-29T13:58:09Z</time>
      </trkpt>
      <trkpt lat="47.26047" lon="6.7335">
        <ele>448.8</ele>
        <time>2021-07-29T13:58:10Z</time>
      </trkpt>
      <trkpt lat="47.26048" lon="6.73354">
        <ele>448.8</ele>
        <time>2021-07-29T13:58:11Z</time>
      </trkpt>
      <trkpt lat="47.2605" lon="6.73357">
        <ele>448.8</ele>
        <time>2021-07-29T13:58:12Z</time>
      </trkpt>
      <trkpt lat="47.26055" lon="6.73371">
        <ele>448.8</ele>
        <time>2021-07-29T13:58:13Z</time>
      </trkpt>
      <trkpt lat="47.26058" lon="6.73378">
        <ele>448.8</ele>
        <time>2021-07-29T13:58:14Z</time>
      </trkpt>
      <trkpt lat="47.2606" lon="6.73384">
        <ele>448.8</ele>
        <time>2021-07-29T13:58:15Z</time>
      </trkpt>
      <trkpt lat="47.26063" lon="6.73391">
        <ele>448.8</ele>
        <time>2021-07-29T13:58:16Z</time>
      </trkpt>
      <trkpt lat="47.26066" lon="6.73396">
        <ele>448.8</ele>
        <time>2021-07-29T13:58:17Z</time>
      </trkpt>
      <trkpt lat="47.26068" lon="6.734">
        <ele>448.8</ele>
        <time>2021-07-29T13:58:18Z</time>
      </trkpt>
      <trkpt lat="47.26072" lon="6.7341">
        <ele>448.8</ele>
        <time>2021-07-29T13:58:19Z</time>
      </trkpt>
      <trkpt lat="47.26073" lon="6.73412">
        <ele>448.8</ele>
        <time>2021-07-29T13:58:20Z</time>
      </trkpt>
      <trkpt lat="47.26074" lon="6.73415">
        <ele>448.8</ele>
        <time>2021-07-29T13:58:21Z</time>
      </trkpt>
      <trkpt lat="47.26078" lon="6.73426">
        <ele>448.8</ele>
        <time>2021-07-29T13:58:22Z</time>
      </trkpt>
      <trkpt lat="47.26081" lon="6.73432">
        <ele>448.6</ele>
        <time>2021-07-29T13:58:23Z</time>
      </trkpt>
      <trkpt lat="47.26085" lon="6.73438">
        <ele>448.6</ele>
        <time>2021-07-29T13:58:24Z</time>
      </trkpt>
      <trkpt lat="47.26088" lon="6.73443">
        <ele>448.6</ele>
        <time>2021-07-29T13:58:25Z</time>
      </trkpt>
      <trkpt lat="47.26091" lon="6.73446">
        <ele>448.6</ele>
        <time>2021-07-29T13:58:26Z</time>
      </trkpt>
      <trkpt lat="47.26094" lon="6.7345">
        <ele>448.6</ele>
        <time>2021-07-29T13:58:27Z</time>
      </trkpt>
      <trkpt lat="47.261" lon="6.73457">
        <ele>448.6</ele>
        <time>2021-07-29T13:58:28Z</time>
      </trkpt>
      <trkpt lat="47.26104" lon="6.73462">
        <ele>448.6</ele>
        <time>2021-07-29T13:58:29Z</time>
      </trkpt>
      <trkpt lat="47.26108" lon="6.73466">
        <ele>448.4</ele>
        <time>2021-07-29T13:58:30Z</time>
      </trkpt>
      <trkpt lat="47.26113" lon="6.73469">
        <ele>448.4</ele>
        <time>2021-07-29T13:58:31Z</time>
      </trkpt>
      <trkpt lat="47.26117" lon="6.73472">
        <ele>448.4</ele>
        <time>2021-07-29T13:58:32Z</time>
      </trkpt>
      <trkpt lat="47.26121" lon="6.73475">
        <ele>448.4</ele>
        <time>2021-07-29T13:58:33Z</time>
      </trkpt>
      <trkpt lat="47.26125" lon="6.73477">
        <ele>448.4</ele>
        <time>2021-07-29T13:58:34Z</time>
      </trkpt>
      <trkpt lat="47.26129" lon="6.73479">
        <ele>448.4</ele>
        <time>2021-07-29T13:58:35Z</time>
      </trkpt>
      <trkpt lat="47.26136" lon="6.73482">
        <ele>448.4</ele>
        <time>2021-07-29T13:58:36Z</time>
      </trkpt>
      <trkpt lat="47.2614" lon="6.73484">
        <ele>448.4</ele>
        <time>2021-07-29T13:58:37Z</time>
      </trkpt>
      <trkpt lat="47.26144" lon="6.73485">
        <ele>448.2</ele>
        <time>2021-07-29T13:58:38Z</time>
      </trkpt>
      <trkpt lat="47.26152" lon="6.73488">
        <ele>448.2</ele>
        <time>2021-07-29T13:58:39Z</time>
      </trkpt>
      <trkpt lat="47.26158" lon="6.73489">
        <ele>448.2</ele>
        <time>2021-07-29T13:58:40Z</time>
      </trkpt>
      <trkpt lat="47.26164" lon="6.7349">
        <ele>448.2</ele>
        <time>2021-07-29T13:58:41Z</time>
      </trkpt>
      <trkpt lat="47.2617" lon="6.7349">
        <ele>448.2</ele>
        <time>2021-07-29T13:58:42Z</time>
      </trkpt>
      <trkpt lat="47.26175" lon="6.7349">
        <ele>448.2</ele>
        <time>2021-07-29T13:58:43Z</time>
      </trkpt>
      <trkpt lat="47.26179" lon="6.73489">
        <ele>448</ele>
        <time>2021-07-29T13:58:44Z</time>
      </trkpt>
      <trkpt lat="47.26183" lon="6.73488">
        <ele>448</ele>
        <time>2021-07-29T13:58:45Z</time>
      </trkpt>
      <trkpt lat="47.26192" lon="6.73486">
        <ele>448</ele>
        <time>2021-07-29T13:58:46Z</time>
      </trkpt>
      <trkpt lat="47.26197" lon="6.73485">
        <ele>448</ele>
        <time>2021-07-29T13:58:47Z</time>
      </trkpt>
      <trkpt lat="47.26203" lon="6.73483">
        <ele>448</ele>
        <time>2021-07-29T13:58:48Z</time>
      </trkpt>
      <trkpt lat="47.26209" lon="6.73481">
        <ele>448</ele>
        <time>2021-07-29T13:58:49Z</time>
      </trkpt>
      <trkpt lat="47.26215" lon="6.73479">
        <ele>448</ele>
        <time>2021-07-29T13:58:50Z</time>
      </trkpt>
      <trkpt lat="47.26219" lon="6.73477">
        <ele>447.8</ele>
        <time>2021-07-29T13:58:51Z</time>
      </trkpt>
      <trkpt lat="47.26223" lon="6.73476">
        <ele>447.8</ele>
        <time>2021-07-29T13:58:52Z</time>
      </trkpt>
      <trkpt lat="47.26231" lon="6.73473">
        <ele>447.8</ele>
        <time>2021-07-29T13:58:53Z</time>
      </trkpt>
      <trkpt lat="47.26236" lon="6.7347">
        <ele>447.8</ele>
        <time>2021-07-29T13:58:54Z</time>
      </trkpt>
      <trkpt lat="47.26242" lon="6.73468">
        <ele>447.8</ele>
        <time>2021-07-29T13:58:55Z</time>
      </trkpt>
      <trkpt lat="47.26247" lon="6.73466">
        <ele>447.8</ele>
        <time>2021-07-29T13:58:56Z</time>
      </trkpt>
      <trkpt lat="47.26253" lon="6.73463">
        <ele>447.6</ele>
        <time>2021-07-29T13:58:57Z</time>
      </trkpt>
      <trkpt lat="47.26259" lon="6.73461">
        <ele>447.6</ele>
        <time>2021-07-29T13:58:58Z</time>
      </trkpt>
      <trkpt lat="47.26264" lon="6.73459">
        <ele>447.6</ele>
        <time>2021-07-29T13:58:59Z</time>
      </trkpt>
      <trkpt lat="47.26268" lon="6.73457">
        <ele>447.4</ele>
        <time>2021-07-29T13:59:00Z</time>
      </trkpt>
      <trkpt lat="47.26272" lon="6.73455">
        <ele>447.4</ele>
        <time>2021-07-29T13:59:01Z</time>
      </trkpt>
      <trkpt lat="47.26281" lon="6.73452">
        <ele>447.4</ele>
        <time>2021-07-29T13:59:02Z</time>
      </trkpt>
      <trkpt lat="47.26285" lon="6.73449">
        <ele>447.4</ele>
        <time>2021-07-29T13:59:03Z</time>
      </trkpt>
      <trkpt lat="47.2629" lon="6.73447">
        <ele>447.2</ele>
        <time>2021-07-29T13:59:04Z</time>
      </trkpt>
      <trkpt lat="47.26295" lon="6.73445">
        <ele>447.2</ele>
        <time>2021-07-29T13:59:05Z</time>
      </trkpt>
      <trkpt lat="47.263" lon="6.73443">
        <ele>447.2</ele>
        <time>2021-07-29T13:59:06Z</time>
      </trkpt>
      <trkpt lat="47.26306" lon="6.73443">
        <ele>447.2</ele>
        <time>2021-07-29T13:59:07Z</time>
      </trkpt>
      <trkpt lat="47.26312" lon="6.73442">
        <ele>447.2</ele>
        <time>2021-07-29T13:59:08Z</time>
      </trkpt>
      <trkpt lat="47.26317" lon="6.73442">
        <ele>447</ele>
        <time>2021-07-29T13:59:09Z</time>
      </trkpt>
      <trkpt lat="47.26324" lon="6.73442">
        <ele>447</ele>
        <time>2021-07-29T13:59:10Z</time>
      </trkpt>
      <trkpt lat="47.26331" lon="6.73442">
        <ele>447</ele>
        <time>2021-07-29T13:59:11Z</time>
      </trkpt>
      <trkpt lat="47.26338" lon="6.73442">
        <ele>447</ele>
        <time>2021-07-29T13:59:12Z</time>
      </trkpt>
      <trkpt lat="47.26343" lon="6.73442">
        <ele>446.8</ele>
        <time>2021-07-29T13:59:13Z</time>
      </trkpt>
      <trkpt lat="47.2635" lon="6.73442">
        <ele>446.8</ele>
        <time>2021-07-29T13:59:14Z</time>
      </trkpt>
      <trkpt lat="47.26356" lon="6.73443">
        <ele>446.8</ele>
        <time>2021-07-29T13:59:15Z</time>
      </trkpt>
      <trkpt lat="47.26361" lon="6.73444">
        <ele>446.8</ele>
        <time>2021-07-29T13:59:16Z</time>
      </trkpt>
      <trkpt lat="47.26366" lon="6.73445">
        <ele>446.6</ele>
        <time>2021-07-29T13:59:17Z</time>
      </trkpt>
      <trkpt lat="47.26371" lon="6.73446">
        <ele>446.6</ele>
        <time>2021-07-29T13:59:18Z</time>
      </trkpt>
      <trkpt lat="47.26376" lon="6.73448">
        <ele>446.6</ele>
        <time>2021-07-29T13:59:19Z</time>
      </trkpt>
      <trkpt lat="47.2638" lon="6.7345">
        <ele>446.6</ele>
        <time>2021-07-29T13:59:20Z</time>
      </trkpt>
      <trkpt lat="47.26385" lon="6.73453">
        <ele>446.6</ele>
        <time>2021-07-29T13:59:21Z</time>
      </trkpt>
      <trkpt lat="47.26389" lon="6.73455">
        <ele>446.6</ele>
        <time>2021-07-29T13:59:22Z</time>
      </trkpt>
      <trkpt lat="47.26394" lon="6.73459">
        <ele>446.6</ele>
        <time>2021-07-29T13:59:23Z</time>
      </trkpt>
      <trkpt lat="47.26399" lon="6.73463">
        <ele>446.6</ele>
        <time>2021-07-29T13:59:24Z</time>
      </trkpt>
      <trkpt lat="47.26404" lon="6.73467">
        <ele>446.6</ele>
        <time>2021-07-29T13:59:25Z</time>
      </trkpt>
      <trkpt lat="47.26409" lon="6.73471">
        <ele>446.6</ele>
        <time>2021-07-29T13:59:26Z</time>
      </trkpt>
      <trkpt lat="47.26413" lon="6.73476">
        <ele>446.4</ele>
        <time>2021-07-29T13:59:27Z</time>
      </trkpt>
      <trkpt lat="47.26418" lon="6.73481">
        <ele>446.4</ele>
        <time>2021-07-29T13:59:28Z</time>
      </trkpt>
      <trkpt lat="47.26423" lon="6.73486">
        <ele>446.4</ele>
        <time>2021-07-29T13:59:29Z</time>
      </trkpt>
      <trkpt lat="47.26427" lon="6.73492">
        <ele>446.4</ele>
        <time>2021-07-29T13:59:30Z</time>
      </trkpt>
      <trkpt lat="47.26431" lon="6.73498">
        <ele>446.2</ele>
        <time>2021-07-29T13:59:31Z</time>
      </trkpt>
      <trkpt lat="47.26435" lon="6.73505">
        <ele>446.2</ele>
        <time>2021-07-29T13:59:32Z</time>
      </trkpt>
      <trkpt lat="47.26439" lon="6.73512">
        <ele>446</ele>
        <time>2021-07-29T13:59:33Z</time>
      </trkpt>
      <trkpt lat="47.26442" lon="6.7352">
        <ele>446</ele>
        <time>2021-07-29T13:59:34Z</time>
      </trkpt>
      <trkpt lat="47.26445" lon="6.73527">
        <ele>446</ele>
        <time>2021-07-29T13:59:35Z</time>
      </trkpt>
      <trkpt lat="47.26446" lon="6.73534">
        <ele>446</ele>
        <time>2021-07-29T13:59:36Z</time>
      </trkpt>
      <trkpt lat="47.26447" lon="6.73542">
        <ele>446</ele>
        <time>2021-07-29T13:59:37Z</time>
      </trkpt>
      <trkpt lat="47.26449" lon="6.73549">
        <ele>446</ele>
        <time>2021-07-29T13:59:38Z</time>
      </trkpt>
      <trkpt lat="47.2645" lon="6.73557">
        <ele>446.2</ele>
        <time>2021-07-29T13:59:39Z</time>
      </trkpt>
      <trkpt lat="47.26451" lon="6.73565">
        <ele>446.2</ele>
        <time>2021-07-29T13:59:40Z</time>
      </trkpt>
      <trkpt lat="47.26452" lon="6.73573">
        <ele>446.2</ele>
        <time>2021-07-29T13:59:41Z</time>
      </trkpt>
      <trkpt lat="47.26452" lon="6.73581">
        <ele>446.2</ele>
        <time>2021-07-29T13:59:42Z</time>
      </trkpt>
      <trkpt lat="47.26453" lon="6.73589">
        <ele>446.2</ele>
        <time>2021-07-29T13:59:43Z</time>
      </trkpt>
      <trkpt lat="47.26452" lon="6.73596">
        <ele>446.4</ele>
        <time>2021-07-29T13:59:44Z</time>
      </trkpt>
      <trkpt lat="47.26452" lon="6.73604">
        <ele>446.4</ele>
        <time>2021-07-29T13:59:45Z</time>
      </trkpt>
      <trkpt lat="47.26452" lon="6.73612">
        <ele>446.2</ele>
        <time>2021-07-29T13:59:46Z</time>
      </trkpt>
      <trkpt lat="47.26452" lon="6.73621">
        <ele>446.2</ele>
        <time>2021-07-29T13:59:47Z</time>
      </trkpt>
      <trkpt lat="47.26451" lon="6.73628">
        <ele>446.4</ele>
        <time>2021-07-29T13:59:48Z</time>
      </trkpt>
      <trkpt lat="47.2645" lon="6.73636">
        <ele>446.4</ele>
        <time>2021-07-29T13:59:49Z</time>
      </trkpt>
      <trkpt lat="47.26449" lon="6.73644">
        <ele>446.4</ele>
        <time>2021-07-29T13:59:50Z</time>
      </trkpt>
      <trkpt lat="47.26448" lon="6.73651">
        <ele>446.4</ele>
        <time>2021-07-29T13:59:51Z</time>
      </trkpt>
      <trkpt lat="47.26447" lon="6.73658">
        <ele>446.4</ele>
        <time>2021-07-29T13:59:52Z</time>
      </trkpt>
      <trkpt lat="47.26446" lon="6.73665">
        <ele>446.4</ele>
        <time>2021-07-29T13:59:53Z</time>
      </trkpt>
      <trkpt lat="47.26444" lon="6.73672">
        <ele>446.4</ele>
        <time>2021-07-29T13:59:54Z</time>
      </trkpt>
      <trkpt lat="47.26442" lon="6.73679">
        <ele>446.4</ele>
        <time>2021-07-29T13:59:55Z</time>
      </trkpt>
      <trkpt lat="47.2644" lon="6.73686">
        <ele>446.4</ele>
        <time>2021-07-29T13:59:56Z</time>
      </trkpt>
      <trkpt lat="47.26438" lon="6.73692">
        <ele>446.4</ele>
        <time>2021-07-29T13:59:57Z</time>
      </trkpt>
      <trkpt lat="47.26436" lon="6.73699">
        <ele>446.4</ele>
        <time>2021-07-29T13:59:58Z</time>
      </trkpt>
      <trkpt lat="47.26434" lon="6.73705">
        <ele>446.4</ele>
        <time>2021-07-29T13:59:59Z</time>
      </trkpt>
      <trkpt lat="47.26432" lon="6.73711">
        <ele>446.2</ele>
        <time>2021-07-29T14:00:00Z</time>
      </trkpt>
      <trkpt lat="47.26429" lon="6.73717">
        <ele>446.2</ele>
        <time>2021-07-29T14:00:01Z</time>
      </trkpt>
      <trkpt lat="47.26427" lon="6.73723">
        <ele>446.2</ele>
        <time>2021-07-29T14:00:02Z</time>
      </trkpt>
      <trkpt lat="47.26425" lon="6.7373">
        <ele>446.2</ele>
        <time>2021-07-29T14:00:03Z</time>
      </trkpt>
      <trkpt lat="47.26423" lon="6.73736">
        <ele>446.2</ele>
        <time>2021-07-29T14:00:04Z</time>
      </trkpt>
      <trkpt lat="47.26421" lon="6.73742">
        <ele>446.2</ele>
        <time>2021-07-29T14:00:05Z</time>
      </trkpt>
      <trkpt lat="47.26419" lon="6.73748">
        <ele>446.2</ele>
        <time>2021-07-29T14:00:06Z</time>
      </trkpt>
      <trkpt lat="47.26417" lon="6.73754">
        <ele>446.2</ele>
        <time>2021-07-29T14:00:07Z</time>
      </trkpt>
      <trkpt lat="47.26415" lon="6.73761">
        <ele>446.2</ele>
        <time>2021-07-29T14:00:08Z</time>
      </trkpt>
      <trkpt lat="47.26413" lon="6.73767">
        <ele>446.2</ele>
        <time>2021-07-29T14:00:09Z</time>
      </trkpt>
      <trkpt lat="47.26412" lon="6.73773">
        <ele>446.2</ele>
        <time>2021-07-29T14:00:10Z</time>
      </trkpt>
      <trkpt lat="47.2641" lon="6.73779">
        <ele>446.2</ele>
        <time>2021-07-29T14:00:11Z</time>
      </trkpt>
      <trkpt lat="47.26408" lon="6.73786">
        <ele>446</ele>
        <time>2021-07-29T14:00:12Z</time>
      </trkpt>
      <trkpt lat="47.26407" lon="6.73792">
        <ele>446</ele>
        <time>2021-07-29T14:00:13Z</time>
      </trkpt>
      <trkpt lat="47.26405" lon="6.73798">
        <ele>446</ele>
        <time>2021-07-29T14:00:14Z</time>
      </trkpt>
      <trkpt lat="47.26404" lon="6.73804">
        <ele>446</ele>
        <time>2021-07-29T14:00:15Z</time>
      </trkpt>
      <trkpt lat="47.26402" lon="6.73811">
        <ele>446</ele>
        <time>2021-07-29T14:00:16Z</time>
      </trkpt>
      <trkpt lat="47.26401" lon="6.73818">
        <ele>446</ele>
        <time>2021-07-29T14:00:17Z</time>
      </trkpt>
      <trkpt lat="47.264" lon="6.73824">
        <ele>446</ele>
        <time>2021-07-29T14:00:18Z</time>
      </trkpt>
      <trkpt lat="47.26399" lon="6.73832">
        <ele>446</ele>
        <time>2021-07-29T14:00:19Z</time>
      </trkpt>
      <trkpt lat="47.26398" lon="6.73839">
        <ele>446</ele>
        <time>2021-07-29T14:00:20Z</time>
      </trkpt>
      <trkpt lat="47.26395" lon="6.73846">
        <ele>446</ele>
        <time>2021-07-29T14:00:21Z</time>
      </trkpt>
      <trkpt lat="47.26394" lon="6.73852">
        <ele>446</ele>
        <time>2021-07-29T14:00:22Z</time>
      </trkpt>
      <trkpt lat="47.26393" lon="6.73859">
        <ele>446</ele>
        <time>2021-07-29T14:00:23Z</time>
      </trkpt>
      <trkpt lat="47.26393" lon="6.73866">
        <ele>445.8</ele>
        <time>2021-07-29T14:00:24Z</time>
      </trkpt>
      <trkpt lat="47.26393" lon="6.73873">
        <ele>445.8</ele>
        <time>2021-07-29T14:00:25Z</time>
      </trkpt>
      <trkpt lat="47.26394" lon="6.7388">
        <ele>445.8</ele>
        <time>2021-07-29T14:00:26Z</time>
      </trkpt>
      <trkpt lat="47.26395" lon="6.73886">
        <ele>445.6</ele>
        <time>2021-07-29T14:00:27Z</time>
      </trkpt>
      <trkpt lat="47.26397" lon="6.73893">
        <ele>445.6</ele>
        <time>2021-07-29T14:00:28Z</time>
      </trkpt>
      <trkpt lat="47.26399" lon="6.73899">
        <ele>445.6</ele>
        <time>2021-07-29T14:00:29Z</time>
      </trkpt>
      <trkpt lat="47.264" lon="6.73905">
        <ele>445.6</ele>
        <time>2021-07-29T14:00:30Z</time>
      </trkpt>
      <trkpt lat="47.26402" lon="6.73911">
        <ele>445.6</ele>
        <time>2021-07-29T14:00:31Z</time>
      </trkpt>
      <trkpt lat="47.26405" lon="6.73916">
        <ele>445.4</ele>
        <time>2021-07-29T14:00:32Z</time>
      </trkpt>
      <trkpt lat="47.26407" lon="6.73921">
        <ele>445.4</ele>
        <time>2021-07-29T14:00:33Z</time>
      </trkpt>
      <trkpt lat="47.2641" lon="6.73926">
        <ele>445.4</ele>
        <time>2021-07-29T14:00:34Z</time>
      </trkpt>
      <trkpt lat="47.26413" lon="6.73931">
        <ele>445.4</ele>
        <time>2021-07-29T14:00:35Z</time>
      </trkpt>
      <trkpt lat="47.26416" lon="6.73935">
        <ele>445.6</ele>
        <time>2021-07-29T14:00:36Z</time>
      </trkpt>
      <trkpt lat="47.2642" lon="6.73939">
        <ele>445.6</ele>
        <time>2021-07-29T14:00:37Z</time>
      </trkpt>
      <trkpt lat="47.26424" lon="6.73943">
        <ele>445.6</ele>
        <time>2021-07-29T14:00:38Z</time>
      </trkpt>
      <trkpt lat="47.26428" lon="6.73947">
        <ele>445.4</ele>
        <time>2021-07-29T14:00:39Z</time>
      </trkpt>
      <trkpt lat="47.26433" lon="6.7395">
        <ele>445.4</ele>
        <time>2021-07-29T14:00:40Z</time>
      </trkpt>
      <trkpt lat="47.26437" lon="6.73953">
        <ele>445.4</ele>
        <time>2021-07-29T14:00:41Z</time>
      </trkpt>
      <trkpt lat="47.26442" lon="6.73956">
        <ele>445.6</ele>
        <time>2021-07-29T14:00:42Z</time>
      </trkpt>
      <trkpt lat="47.26446" lon="6.73959">
        <ele>445.6</ele>
        <time>2021-07-29T14:00:43Z</time>
      </trkpt>
      <trkpt lat="47.26451" lon="6.73962">
        <ele>445.6</ele>
        <time>2021-07-29T14:00:44Z</time>
      </trkpt>
      <trkpt lat="47.26456" lon="6.73964">
        <ele>445.6</ele>
        <time>2021-07-29T14:00:45Z</time>
      </trkpt>
      <trkpt lat="47.2646" lon="6.73967">
        <ele>445.6</ele>
        <time>2021-07-29T14:00:46Z</time>
      </trkpt>
      <trkpt lat="47.26465" lon="6.7397">
        <ele>445.6</ele>
        <time>2021-07-29T14:00:47Z</time>
      </trkpt>
      <trkpt lat="47.2647" lon="6.73973">
        <ele>445.6</ele>
        <time>2021-07-29T14:00:48Z</time>
      </trkpt>
      <trkpt lat="47.26474" lon="6.73977">
        <ele>445.6</ele>
        <time>2021-07-29T14:00:49Z</time>
      </trkpt>
      <trkpt lat="47.26479" lon="6.7398">
        <ele>445.6</ele>
        <time>2021-07-29T14:00:50Z</time>
      </trkpt>
      <trkpt lat="47.26484" lon="6.73983">
        <ele>445.6</ele>
        <time>2021-07-29T14:00:51Z</time>
      </trkpt>
      <trkpt lat="47.26488" lon="6.73987">
        <ele>445.6</ele>
        <time>2021-07-29T14:00:52Z</time>
      </trkpt>
      <trkpt lat="47.26492" lon="6.73991">
        <ele>445.8</ele>
        <time>2021-07-29T14:00:53Z</time>
      </trkpt>
      <trkpt lat="47.26496" lon="6.73995">
        <ele>445.8</ele>
        <time>2021-07-29T14:00:54Z</time>
      </trkpt>
      <trkpt lat="47.26501" lon="6.74">
        <ele>445.8</ele>
        <time>2021-07-29T14:00:55Z</time>
      </trkpt>
      <trkpt lat="47.26505" lon="6.74004">
        <ele>445.8</ele>
        <time>2021-07-29T14:00:56Z</time>
      </trkpt>
      <trkpt lat="47.26509" lon="6.74009">
        <ele>445.8</ele>
        <time>2021-07-29T14:00:57Z</time>
      </trkpt>
      <trkpt lat="47.26513" lon="6.74014">
        <ele>445.8</ele>
        <time>2021-07-29T14:00:58Z</time>
      </trkpt>
      <trkpt lat="47.26517" lon="6.74018">
        <ele>445.8</ele>
        <time>2021-07-29T14:00:59Z</time>
      </trkpt>
      <trkpt lat="47.26521" lon="6.74023">
        <ele>445.8</ele>
        <time>2021-07-29T14:01:00Z</time>
      </trkpt>
      <trkpt lat="47.26524" lon="6.74028">
        <ele>445.8</ele>
        <time>2021-07-29T14:01:01Z</time>
      </trkpt>
      <trkpt lat="47.26528" lon="6.74033">
        <ele>445.8</ele>
        <time>2021-07-29T14:01:02Z</time>
      </trkpt>
      <trkpt lat="47.26531" lon="6.74039">
        <ele>445.8</ele>
        <time>2021-07-29T14:01:03Z</time>
      </trkpt>
      <trkpt lat="47.26535" lon="6.74044">
        <ele>445.8</ele>
        <time>2021-07-29T14:01:04Z</time>
      </trkpt>
      <trkpt lat="47.26538" lon="6.7405">
        <ele>445.8</ele>
        <time>2021-07-29T14:01:05Z</time>
      </trkpt>
      <trkpt lat="47.26541" lon="6.74055">
        <ele>445.6</ele>
        <time>2021-07-29T14:01:06Z</time>
      </trkpt>
      <trkpt lat="47.26544" lon="6.74061">
        <ele>445.8</ele>
        <time>2021-07-29T14:01:07Z</time>
      </trkpt>
      <trkpt lat="47.26547" lon="6.74067">
        <ele>445.6</ele>
        <time>2021-07-29T14:01:08Z</time>
      </trkpt>
      <trkpt lat="47.2655" lon="6.74073">
        <ele>445.6</ele>
        <time>2021-07-29T14:01:09Z</time>
      </trkpt>
      <trkpt lat="47.26553" lon="6.74079">
        <ele>445.6</ele>
        <time>2021-07-29T14:01:10Z</time>
      </trkpt>
      <trkpt lat="47.26555" lon="6.74085">
        <ele>445.6</ele>
        <time>2021-07-29T14:01:11Z</time>
      </trkpt>
      <trkpt lat="47.26558" lon="6.74091">
        <ele>445.6</ele>
        <time>2021-07-29T14:01:12Z</time>
      </trkpt>
      <trkpt lat="47.26561" lon="6.74097">
        <ele>445.6</ele>
        <time>2021-07-29T14:01:13Z</time>
      </trkpt>
      <trkpt lat="47.26563" lon="6.74104">
        <ele>445.6</ele>
        <time>2021-07-29T14:01:14Z</time>
      </trkpt>
      <trkpt lat="47.26565" lon="6.7411">
        <ele>445.6</ele>
        <time>2021-07-29T14:01:15Z</time>
      </trkpt>
      <trkpt lat="47.26567" lon="6.74116">
        <ele>445.6</ele>
        <time>2021-07-29T14:01:16Z</time>
      </trkpt>
      <trkpt lat="47.26569" lon="6.74123">
        <ele>445.6</ele>
        <time>2021-07-29T14:01:17Z</time>
      </trkpt>
      <trkpt lat="47.26571" lon="6.74129">
        <ele>445.6</ele>
        <time>2021-07-29T14:01:18Z</time>
      </trkpt>
      <trkpt lat="47.26573" lon="6.74135">
        <ele>445.6</ele>
        <time>2021-07-29T14:01:19Z</time>
      </trkpt>
      <trkpt lat="47.26575" lon="6.74142">
        <ele>445.6</ele>
        <time>2021-07-29T14:01:20Z</time>
      </trkpt>
      <trkpt lat="47.26577" lon="6.74148">
        <ele>445.6</ele>
        <time>2021-07-29T14:01:21Z</time>
      </trkpt>
      <trkpt lat="47.26579" lon="6.74154">
        <ele>445.6</ele>
        <time>2021-07-29T14:01:22Z</time>
      </trkpt>
      <trkpt lat="47.2658" lon="6.7416">
        <ele>445.4</ele>
        <time>2021-07-29T14:01:23Z</time>
      </trkpt>
      <trkpt lat="47.26582" lon="6.74166">
        <ele>445.4</ele>
        <time>2021-07-29T14:01:24Z</time>
      </trkpt>
      <trkpt lat="47.26583" lon="6.74172">
        <ele>445.6</ele>
        <time>2021-07-29T14:01:25Z</time>
      </trkpt>
      <trkpt lat="47.26585" lon="6.74179">
        <ele>445.6</ele>
        <time>2021-07-29T14:01:26Z</time>
      </trkpt>
      <trkpt lat="47.26586" lon="6.74185">
        <ele>445.6</ele>
        <time>2021-07-29T14:01:27Z</time>
      </trkpt>
      <trkpt lat="47.26588" lon="6.74192">
        <ele>445.6</ele>
        <time>2021-07-29T14:01:28Z</time>
      </trkpt>
      <trkpt lat="47.26589" lon="6.74198">
        <ele>445.6</ele>
        <time>2021-07-29T14:01:29Z</time>
      </trkpt>
      <trkpt lat="47.26591" lon="6.74205">
        <ele>445.6</ele>
        <time>2021-07-29T14:01:30Z</time>
      </trkpt>
      <trkpt lat="47.26592" lon="6.74212">
        <ele>445.6</ele>
        <time>2021-07-29T14:01:31Z</time>
      </trkpt>
      <trkpt lat="47.26593" lon="6.74219">
        <ele>445.6</ele>
        <time>2021-07-29T14:01:32Z</time>
      </trkpt>
      <trkpt lat="47.26594" lon="6.74225">
        <ele>445.6</ele>
        <time>2021-07-29T14:01:33Z</time>
      </trkpt>
      <trkpt lat="47.26595" lon="6.74232">
        <ele>445.6</ele>
        <time>2021-07-29T14:01:34Z</time>
      </trkpt>
      <trkpt lat="47.26596" lon="6.74238">
        <ele>445.6</ele>
        <time>2021-07-29T14:01:35Z</time>
      </trkpt>
      <trkpt lat="47.26597" lon="6.74245">
        <ele>445.6</ele>
        <time>2021-07-29T14:01:36Z</time>
      </trkpt>
      <trkpt lat="47.26598" lon="6.74252">
        <ele>445.8</ele>
        <time>2021-07-29T14:01:37Z</time>
      </trkpt>
      <trkpt lat="47.26599" lon="6.74258">
        <ele>445.8</ele>
        <time>2021-07-29T14:01:38Z</time>
      </trkpt>
      <trkpt lat="47.26599" lon="6.74265">
        <ele>445.8</ele>
        <time>2021-07-29T14:01:39Z</time>
      </trkpt>
      <trkpt lat="47.26599" lon="6.74272">
        <ele>445.8</ele>
        <time>2021-07-29T14:01:40Z</time>
      </trkpt>
      <trkpt lat="47.26599" lon="6.74279">
        <ele>445.8</ele>
        <time>2021-07-29T14:01:41Z</time>
      </trkpt>
      <trkpt lat="47.266" lon="6.74286">
        <ele>445.8</ele>
        <time>2021-07-29T14:01:42Z</time>
      </trkpt>
      <trkpt lat="47.266" lon="6.74293">
        <ele>445.6</ele>
        <time>2021-07-29T14:01:43Z</time>
      </trkpt>
      <trkpt lat="47.26599" lon="6.743">
        <ele>445.6</ele>
        <time>2021-07-29T14:01:44Z</time>
      </trkpt>
      <trkpt lat="47.26599" lon="6.74307">
        <ele>445.6</ele>
        <time>2021-07-29T14:01:45Z</time>
      </trkpt>
      <trkpt lat="47.26598" lon="6.74314">
        <ele>445.8</ele>
        <time>2021-07-29T14:01:46Z</time>
      </trkpt>
      <trkpt lat="47.26597" lon="6.74321">
        <ele>445.8</ele>
        <time>2021-07-29T14:01:47Z</time>
      </trkpt>
      <trkpt lat="47.26596" lon="6.74328">
        <ele>445.6</ele>
        <time>2021-07-29T14:01:48Z</time>
      </trkpt>
      <trkpt lat="47.26595" lon="6.74335">
        <ele>445.6</ele>
        <time>2021-07-29T14:01:49Z</time>
      </trkpt>
      <trkpt lat="47.26595" lon="6.74341">
        <ele>445.6</ele>
        <time>2021-07-29T14:01:50Z</time>
      </trkpt>
      <trkpt lat="47.26594" lon="6.74348">
        <ele>445.6</ele>
        <time>2021-07-29T14:01:51Z</time>
      </trkpt>
      <trkpt lat="47.26593" lon="6.74355">
        <ele>445.6</ele>
        <time>2021-07-29T14:01:52Z</time>
      </trkpt>
      <trkpt lat="47.26592" lon="6.74362">
        <ele>445.6</ele>
        <time>2021-07-29T14:01:53Z</time>
      </trkpt>
      <trkpt lat="47.26591" lon="6.74368">
        <ele>445.6</ele>
        <time>2021-07-29T14:01:54Z</time>
      </trkpt>
      <trkpt lat="47.2659" lon="6.74375">
        <ele>445.6</ele>
        <time>2021-07-29T14:01:55Z</time>
      </trkpt>
      <trkpt lat="47.26589" lon="6.74382">
        <ele>445.4</ele>
        <time>2021-07-29T14:01:56Z</time>
      </trkpt>
      <trkpt lat="47.26588" lon="6.74389">
        <ele>445.4</ele>
        <time>2021-07-29T14:01:57Z</time>
      </trkpt>
      <trkpt lat="47.26587" lon="6.74395">
        <ele>445.4</ele>
        <time>2021-07-29T14:01:58Z</time>
      </trkpt>
      <trkpt lat="47.26586" lon="6.74402">
        <ele>445.4</ele>
        <time>2021-07-29T14:01:59Z</time>
      </trkpt>
      <trkpt lat="47.26585" lon="6.74408">
        <ele>445.4</ele>
        <time>2021-07-29T14:02:00Z</time>
      </trkpt>
      <trkpt lat="47.26584" lon="6.74414">
        <ele>445.6</ele>
        <time>2021-07-29T14:02:01Z</time>
      </trkpt>
      <trkpt lat="47.26583" lon="6.7442">
        <ele>445.6</ele>
        <time>2021-07-29T14:02:02Z</time>
      </trkpt>
      <trkpt lat="47.26582" lon="6.74427">
        <ele>445.4</ele>
        <time>2021-07-29T14:02:03Z</time>
      </trkpt>
      <trkpt lat="47.26581" lon="6.74433">
        <ele>445.4</ele>
        <time>2021-07-29T14:02:04Z</time>
      </trkpt>
      <trkpt lat="47.2658" lon="6.74439">
        <ele>445.6</ele>
        <time>2021-07-29T14:02:05Z</time>
      </trkpt>
      <trkpt lat="47.26579" lon="6.74445">
        <ele>445.6</ele>
        <time>2021-07-29T14:02:06Z</time>
      </trkpt>
      <trkpt lat="47.26578" lon="6.74451">
        <ele>445.4</ele>
        <time>2021-07-29T14:02:07Z</time>
      </trkpt>
      <trkpt lat="47.26577" lon="6.74457">
        <ele>445.4</ele>
        <time>2021-07-29T14:02:09Z</time>
      </trkpt>
      <trkpt lat="47.26576" lon="6.74468">
        <ele>445.4</ele>
        <time>2021-07-29T14:02:10Z</time>
      </trkpt>
      <trkpt lat="47.26575" lon="6.74474">
        <ele>445.4</ele>
        <time>2021-07-29T14:02:11Z</time>
      </trkpt>
      <trkpt lat="47.26574" lon="6.7448">
        <ele>445.4</ele>
        <time>2021-07-29T14:02:12Z</time>
      </trkpt>
      <trkpt lat="47.26573" lon="6.74487">
        <ele>445.6</ele>
        <time>2021-07-29T14:02:14Z</time>
      </trkpt>
      <trkpt lat="47.26572" lon="6.74499">
        <ele>445.4</ele>
        <time>2021-07-29T14:02:15Z</time>
      </trkpt>
      <trkpt lat="47.26572" lon="6.74505">
        <ele>445.2</ele>
        <time>2021-07-29T14:02:17Z</time>
      </trkpt>
      <trkpt lat="47.26574" lon="6.74518">
        <ele>445.4</ele>
        <time>2021-07-29T14:02:18Z</time>
      </trkpt>
      <trkpt lat="47.26575" lon="6.74524">
        <ele>445.2</ele>
        <time>2021-07-29T14:02:20Z</time>
      </trkpt>
      <trkpt lat="47.26578" lon="6.74536">
        <ele>444.8</ele>
        <time>2021-07-29T14:02:22Z</time>
      </trkpt>
      <trkpt lat="47.26582" lon="6.7455">
        <ele>444.6</ele>
        <time>2021-07-29T14:02:24Z</time>
      </trkpt>
      <trkpt lat="47.26588" lon="6.74565">
        <ele>444.2</ele>
        <time>2021-07-29T14:02:25Z</time>
      </trkpt>
      <trkpt lat="47.26592" lon="6.74571">
        <ele>443.8</ele>
        <time>2021-07-29T14:02:27Z</time>
      </trkpt>
      <trkpt lat="47.26602" lon="6.74581">
        <ele>443.4</ele>
        <time>2021-07-29T14:02:28Z</time>
      </trkpt>
      <trkpt lat="47.26608" lon="6.74585">
        <ele>443.2</ele>
        <time>2021-07-29T14:02:30Z</time>
      </trkpt>
      <trkpt lat="47.2662" lon="6.74588">
        <ele>442.8</ele>
        <time>2021-07-29T14:02:31Z</time>
      </trkpt>
      <trkpt lat="47.26627" lon="6.74588">
        <ele>442.8</ele>
        <time>2021-07-29T14:02:32Z</time>
      </trkpt>
      <trkpt lat="47.26633" lon="6.7459">
        <ele>442.8</ele>
        <time>2021-07-29T14:02:34Z</time>
      </trkpt>
      <trkpt lat="47.26646" lon="6.74591">
        <ele>442.4</ele>
        <time>2021-07-29T14:02:36Z</time>
      </trkpt>
      <trkpt lat="47.26658" lon="6.74592">
        <ele>442.2</ele>
        <time>2021-07-29T14:02:38Z</time>
      </trkpt>
      <trkpt lat="47.26671" lon="6.74594">
        <ele>442.4</ele>
        <time>2021-07-29T14:02:39Z</time>
      </trkpt>
      <trkpt lat="47.26677" lon="6.74594">
        <ele>442.4</ele>
        <time>2021-07-29T14:02:40Z</time>
      </trkpt>
      <trkpt lat="47.26683" lon="6.74594">
        <ele>442.2</ele>
        <time>2021-07-29T14:02:42Z</time>
      </trkpt>
      <trkpt lat="47.26695" lon="6.74594">
        <ele>442.2</ele>
        <time>2021-07-29T14:02:43Z</time>
      </trkpt>
      <trkpt lat="47.26701" lon="6.74594">
        <ele>442.2</ele>
        <time>2021-07-29T14:02:45Z</time>
      </trkpt>
      <trkpt lat="47.26712" lon="6.74594">
        <ele>442.2</ele>
        <time>2021-07-29T14:02:47Z</time>
      </trkpt>
      <trkpt lat="47.26723" lon="6.74593">
        <ele>442.2</ele>
        <time>2021-07-29T14:02:49Z</time>
      </trkpt>
      <trkpt lat="47.26734" lon="6.74592">
        <ele>442.2</ele>
        <time>2021-07-29T14:02:50Z</time>
      </trkpt>
      <trkpt lat="47.26739" lon="6.74592">
        <ele>442.2</ele>
        <time>2021-07-29T14:02:51Z</time>
      </trkpt>
      <trkpt lat="47.26744" lon="6.74592">
        <ele>442.2</ele>
        <time>2021-07-29T14:02:53Z</time>
      </trkpt>
      <trkpt lat="47.26755" lon="6.74592">
        <ele>442.2</ele>
        <time>2021-07-29T14:02:55Z</time>
      </trkpt>
      <trkpt lat="47.26766" lon="6.7459">
        <ele>442</ele>
        <time>2021-07-29T14:02:56Z</time>
      </trkpt>
      <trkpt lat="47.26771" lon="6.7459">
        <ele>442.2</ele>
        <time>2021-07-29T14:02:58Z</time>
      </trkpt>
      <trkpt lat="47.26782" lon="6.74589">
        <ele>442</ele>
        <time>2021-07-29T14:02:59Z</time>
      </trkpt>
      <trkpt lat="47.26787" lon="6.74588">
        <ele>442.2</ele>
        <time>2021-07-29T14:03:01Z</time>
      </trkpt>
      <trkpt lat="47.26798" lon="6.74587">
        <ele>442.2</ele>
        <time>2021-07-29T14:03:03Z</time>
      </trkpt>
      <trkpt lat="47.26808" lon="6.74585">
        <ele>442.2</ele>
        <time>2021-07-29T14:03:05Z</time>
      </trkpt>
      <trkpt lat="47.26818" lon="6.74584">
        <ele>442</ele>
        <time>2021-07-29T14:03:07Z</time>
      </trkpt>
      <trkpt lat="47.26828" lon="6.74583">
        <ele>442.2</ele>
        <time>2021-07-29T14:03:08Z</time>
      </trkpt>
      <trkpt lat="47.26833" lon="6.74582">
        <ele>442.2</ele>
        <time>2021-07-29T14:03:10Z</time>
      </trkpt>
      <trkpt lat="47.26844" lon="6.74581">
        <ele>442.2</ele>
        <time>2021-07-29T14:03:11Z</time>
      </trkpt>
      <trkpt lat="47.26849" lon="6.7458">
        <ele>442.2</ele>
        <time>2021-07-29T14:03:12Z</time>
      </trkpt>
      <trkpt lat="47.26854" lon="6.74579">
        <ele>442</ele>
        <time>2021-07-29T14:03:14Z</time>
      </trkpt>
      <trkpt lat="47.26864" lon="6.74578">
        <ele>442</ele>
        <time>2021-07-29T14:03:15Z</time>
      </trkpt>
      <trkpt lat="47.26869" lon="6.74578">
        <ele>442</ele>
        <time>2021-07-29T14:03:17Z</time>
      </trkpt>
      <trkpt lat="47.26879" lon="6.74576">
        <ele>442.2</ele>
        <time>2021-07-29T14:03:18Z</time>
      </trkpt>
      <trkpt lat="47.26884" lon="6.74576">
        <ele>442.2</ele>
        <time>2021-07-29T14:03:20Z</time>
      </trkpt>
      <trkpt lat="47.26894" lon="6.74575">
        <ele>442</ele>
        <time>2021-07-29T14:03:22Z</time>
      </trkpt>
      <trkpt lat="47.26904" lon="6.74574">
        <ele>442</ele>
        <time>2021-07-29T14:03:23Z</time>
      </trkpt>
      <trkpt lat="47.26909" lon="6.74574">
        <ele>442</ele>
        <time>2021-07-29T14:03:25Z</time>
      </trkpt>
      <trkpt lat="47.26914" lon="6.74574">
        <ele>442</ele>
        <time>2021-07-29T14:03:26Z</time>
      </trkpt>
      <trkpt lat="47.26919" lon="6.74575">
        <ele>442</ele>
        <time>2021-07-29T14:03:27Z</time>
      </trkpt>
      <trkpt lat="47.26924" lon="6.74576">
        <ele>442.2</ele>
        <time>2021-07-29T14:03:28Z</time>
      </trkpt>
      <trkpt lat="47.26929" lon="6.74577">
        <ele>442</ele>
        <time>2021-07-29T14:03:29Z</time>
      </trkpt>
      <trkpt lat="47.26934" lon="6.74579">
        <ele>442</ele>
        <time>2021-07-29T14:03:30Z</time>
      </trkpt>
      <trkpt lat="47.26939" lon="6.74581">
        <ele>442</ele>
        <time>2021-07-29T14:03:31Z</time>
      </trkpt>
      <trkpt lat="47.26944" lon="6.74583">
        <ele>442</ele>
        <time>2021-07-29T14:03:32Z</time>
      </trkpt>
      <trkpt lat="47.26949" lon="6.74586">
        <ele>441.8</ele>
        <time>2021-07-29T14:03:33Z</time>
      </trkpt>
      <trkpt lat="47.26954" lon="6.74588">
        <ele>441.8</ele>
        <time>2021-07-29T14:03:34Z</time>
      </trkpt>
      <trkpt lat="47.26959" lon="6.74592">
        <ele>441.8</ele>
        <time>2021-07-29T14:03:35Z</time>
      </trkpt>
      <trkpt lat="47.26964" lon="6.74595">
        <ele>441.8</ele>
        <time>2021-07-29T14:03:36Z</time>
      </trkpt>
      <trkpt lat="47.26968" lon="6.74599">
        <ele>441.8</ele>
        <time>2021-07-29T14:03:37Z</time>
      </trkpt>
      <trkpt lat="47.26973" lon="6.74602">
        <ele>441.8</ele>
        <time>2021-07-29T14:03:38Z</time>
      </trkpt>
      <trkpt lat="47.26978" lon="6.74606">
        <ele>441.8</ele>
        <time>2021-07-29T14:03:39Z</time>
      </trkpt>
      <trkpt lat="47.26983" lon="6.7461">
        <ele>441.6</ele>
        <time>2021-07-29T14:03:40Z</time>
      </trkpt>
      <trkpt lat="47.26988" lon="6.74615">
        <ele>441.6</ele>
        <time>2021-07-29T14:03:41Z</time>
      </trkpt>
      <trkpt lat="47.26993" lon="6.74619">
        <ele>441.6</ele>
        <time>2021-07-29T14:03:42Z</time>
      </trkpt>
      <trkpt lat="47.26998" lon="6.74623">
        <ele>441.4</ele>
        <time>2021-07-29T14:03:43Z</time>
      </trkpt>
      <trkpt lat="47.27002" lon="6.74627">
        <ele>441.4</ele>
        <time>2021-07-29T14:03:44Z</time>
      </trkpt>
      <trkpt lat="47.27007" lon="6.74632">
        <ele>441.4</ele>
        <time>2021-07-29T14:03:45Z</time>
      </trkpt>
      <trkpt lat="47.27012" lon="6.74637">
        <ele>441.2</ele>
        <time>2021-07-29T14:03:46Z</time>
      </trkpt>
      <trkpt lat="47.27017" lon="6.74641">
        <ele>441.2</ele>
        <time>2021-07-29T14:03:47Z</time>
      </trkpt>
      <trkpt lat="47.27021" lon="6.74646">
        <ele>441.2</ele>
        <time>2021-07-29T14:03:48Z</time>
      </trkpt>
      <trkpt lat="47.27026" lon="6.74651">
        <ele>441.2</ele>
        <time>2021-07-29T14:03:49Z</time>
      </trkpt>
      <trkpt lat="47.2703" lon="6.74656">
        <ele>441.2</ele>
        <time>2021-07-29T14:03:50Z</time>
      </trkpt>
      <trkpt lat="47.27035" lon="6.74661">
        <ele>441.2</ele>
        <time>2021-07-29T14:03:51Z</time>
      </trkpt>
      <trkpt lat="47.27039" lon="6.74667">
        <ele>441.2</ele>
        <time>2021-07-29T14:03:52Z</time>
      </trkpt>
      <trkpt lat="47.27043" lon="6.74672">
        <ele>441.2</ele>
        <time>2021-07-29T14:03:53Z</time>
      </trkpt>
      <trkpt lat="47.27047" lon="6.74677">
        <ele>441.2</ele>
        <time>2021-07-29T14:03:54Z</time>
      </trkpt>
      <trkpt lat="47.27051" lon="6.74682">
        <ele>441.2</ele>
        <time>2021-07-29T14:03:55Z</time>
      </trkpt>
      <trkpt lat="47.27055" lon="6.74688">
        <ele>441.2</ele>
        <time>2021-07-29T14:03:56Z</time>
      </trkpt>
      <trkpt lat="47.27059" lon="6.74693">
        <ele>441.2</ele>
        <time>2021-07-29T14:03:57Z</time>
      </trkpt>
      <trkpt lat="47.27062" lon="6.74699">
        <ele>441.2</ele>
        <time>2021-07-29T14:03:58Z</time>
      </trkpt>
      <trkpt lat="47.27066" lon="6.74704">
        <ele>441.2</ele>
        <time>2021-07-29T14:03:59Z</time>
      </trkpt>
      <trkpt lat="47.27069" lon="6.74709">
        <ele>441.2</ele>
        <time>2021-07-29T14:04:00Z</time>
      </trkpt>
      <trkpt lat="47.27073" lon="6.74715">
        <ele>441.2</ele>
        <time>2021-07-29T14:04:01Z</time>
      </trkpt>
      <trkpt lat="47.27076" lon="6.7472">
        <ele>441.4</ele>
        <time>2021-07-29T14:04:02Z</time>
      </trkpt>
      <trkpt lat="47.2708" lon="6.74726">
        <ele>441.4</ele>
        <time>2021-07-29T14:04:03Z</time>
      </trkpt>
      <trkpt lat="47.27083" lon="6.74732">
        <ele>441.4</ele>
        <time>2021-07-29T14:04:04Z</time>
      </trkpt>
      <trkpt lat="47.27086" lon="6.74737">
        <ele>441.4</ele>
        <time>2021-07-29T14:04:05Z</time>
      </trkpt>
      <trkpt lat="47.27089" lon="6.74743">
        <ele>441.4</ele>
        <time>2021-07-29T14:04:06Z</time>
      </trkpt>
      <trkpt lat="47.27092" lon="6.74749">
        <ele>441.4</ele>
        <time>2021-07-29T14:04:07Z</time>
      </trkpt>
      <trkpt lat="47.27095" lon="6.74755">
        <ele>441.4</ele>
        <time>2021-07-29T14:04:08Z</time>
      </trkpt>
      <trkpt lat="47.27098" lon="6.74761">
        <ele>441.4</ele>
        <time>2021-07-29T14:04:09Z</time>
      </trkpt>
      <trkpt lat="47.27101" lon="6.74767">
        <ele>441.4</ele>
        <time>2021-07-29T14:04:10Z</time>
      </trkpt>
      <trkpt lat="47.27103" lon="6.74773">
        <ele>441.2</ele>
        <time>2021-07-29T14:04:11Z</time>
      </trkpt>
      <trkpt lat="47.27106" lon="6.74779">
        <ele>441.4</ele>
        <time>2021-07-29T14:04:12Z</time>
      </trkpt>
      <trkpt lat="47.27109" lon="6.74785">
        <ele>441.2</ele>
        <time>2021-07-29T14:04:13Z</time>
      </trkpt>
      <trkpt lat="47.27111" lon="6.74791">
        <ele>441.4</ele>
        <time>2021-07-29T14:04:14Z</time>
      </trkpt>
      <trkpt lat="47.27114" lon="6.74798">
        <ele>441.2</ele>
        <time>2021-07-29T14:04:15Z</time>
      </trkpt>
      <trkpt lat="47.27117" lon="6.74804">
        <ele>441.2</ele>
        <time>2021-07-29T14:04:16Z</time>
      </trkpt>
      <trkpt lat="47.27119" lon="6.74811">
        <ele>441.2</ele>
        <time>2021-07-29T14:04:17Z</time>
      </trkpt>
      <trkpt lat="47.27121" lon="6.74817">
        <ele>441.2</ele>
        <time>2021-07-29T14:04:18Z</time>
      </trkpt>
      <trkpt lat="47.27124" lon="6.74824">
        <ele>441.2</ele>
        <time>2021-07-29T14:04:19Z</time>
      </trkpt>
      <trkpt lat="47.27126" lon="6.74831">
        <ele>441</ele>
        <time>2021-07-29T14:04:20Z</time>
      </trkpt>
      <trkpt lat="47.27129" lon="6.74838">
        <ele>441</ele>
        <time>2021-07-29T14:04:21Z</time>
      </trkpt>
      <trkpt lat="47.27131" lon="6.74846">
        <ele>441</ele>
        <time>2021-07-29T14:04:22Z</time>
      </trkpt>
      <trkpt lat="47.27133" lon="6.74853">
        <ele>441</ele>
        <time>2021-07-29T14:04:23Z</time>
      </trkpt>
      <trkpt lat="47.27136" lon="6.74861">
        <ele>441</ele>
        <time>2021-07-29T14:04:24Z</time>
      </trkpt>
      <trkpt lat="47.27138" lon="6.74868">
        <ele>440.8</ele>
        <time>2021-07-29T14:04:25Z</time>
      </trkpt>
      <trkpt lat="47.2714" lon="6.74875">
        <ele>441</ele>
        <time>2021-07-29T14:04:26Z</time>
      </trkpt>
      <trkpt lat="47.27142" lon="6.74882">
        <ele>441</ele>
        <time>2021-07-29T14:04:27Z</time>
      </trkpt>
      <trkpt lat="47.27144" lon="6.7489">
        <ele>441</ele>
        <time>2021-07-29T14:04:28Z</time>
      </trkpt>
      <trkpt lat="47.27147" lon="6.74896">
        <ele>441</ele>
        <time>2021-07-29T14:04:29Z</time>
      </trkpt>
      <trkpt lat="47.27149" lon="6.74903">
        <ele>441</ele>
        <time>2021-07-29T14:04:30Z</time>
      </trkpt>
      <trkpt lat="47.27151" lon="6.7491">
        <ele>441</ele>
        <time>2021-07-29T14:04:31Z</time>
      </trkpt>
      <trkpt lat="47.27153" lon="6.74916">
        <ele>441</ele>
        <time>2021-07-29T14:04:32Z</time>
      </trkpt>
      <trkpt lat="47.27155" lon="6.74923">
        <ele>441</ele>
        <time>2021-07-29T14:04:33Z</time>
      </trkpt>
      <trkpt lat="47.27157" lon="6.7493">
        <ele>440.8</ele>
        <time>2021-07-29T14:04:34Z</time>
      </trkpt>
      <trkpt lat="47.27158" lon="6.74937">
        <ele>440.8</ele>
        <time>2021-07-29T14:04:35Z</time>
      </trkpt>
      <trkpt lat="47.27161" lon="6.74944">
        <ele>440.8</ele>
        <time>2021-07-29T14:04:36Z</time>
      </trkpt>
      <trkpt lat="47.27162" lon="6.7495">
        <ele>440.8</ele>
        <time>2021-07-29T14:04:37Z</time>
      </trkpt>
      <trkpt lat="47.27165" lon="6.74957">
        <ele>440.8</ele>
        <time>2021-07-29T14:04:38Z</time>
      </trkpt>
      <trkpt lat="47.27167" lon="6.74964">
        <ele>440.8</ele>
        <time>2021-07-29T14:04:39Z</time>
      </trkpt>
      <trkpt lat="47.27169" lon="6.7497">
        <ele>440.8</ele>
        <time>2021-07-29T14:04:40Z</time>
      </trkpt>
      <trkpt lat="47.2717" lon="6.74977">
        <ele>440.8</ele>
        <time>2021-07-29T14:04:41Z</time>
      </trkpt>
      <trkpt lat="47.27173" lon="6.74984">
        <ele>440.8</ele>
        <time>2021-07-29T14:04:42Z</time>
      </trkpt>
      <trkpt lat="47.27175" lon="6.7499">
        <ele>440.8</ele>
        <time>2021-07-29T14:04:43Z</time>
      </trkpt>
      <trkpt lat="47.27177" lon="6.74997">
        <ele>440.8</ele>
        <time>2021-07-29T14:04:44Z</time>
      </trkpt>
      <trkpt lat="47.2718" lon="6.75004">
        <ele>441</ele>
        <time>2021-07-29T14:04:45Z</time>
      </trkpt>
      <trkpt lat="47.27182" lon="6.75011">
        <ele>440.8</ele>
        <time>2021-07-29T14:04:46Z</time>
      </trkpt>
      <trkpt lat="47.27184" lon="6.75017">
        <ele>441</ele>
        <time>2021-07-29T14:04:47Z</time>
      </trkpt>
      <trkpt lat="47.27187" lon="6.75024">
        <ele>441</ele>
        <time>2021-07-29T14:04:48Z</time>
      </trkpt>
      <trkpt lat="47.27189" lon="6.7503">
        <ele>441</ele>
        <time>2021-07-29T14:04:49Z</time>
      </trkpt>
      <trkpt lat="47.27192" lon="6.75036">
        <ele>441</ele>
        <time>2021-07-29T14:04:50Z</time>
      </trkpt>
      <trkpt lat="47.27194" lon="6.75042">
        <ele>441</ele>
        <time>2021-07-29T14:04:51Z</time>
      </trkpt>
      <trkpt lat="47.27197" lon="6.75048">
        <ele>441.2</ele>
        <time>2021-07-29T14:04:52Z</time>
      </trkpt>
      <trkpt lat="47.272" lon="6.75053">
        <ele>441.2</ele>
        <time>2021-07-29T14:04:53Z</time>
      </trkpt>
      <trkpt lat="47.27202" lon="6.75059">
        <ele>441.4</ele>
        <time>2021-07-29T14:04:54Z</time>
      </trkpt>
      <trkpt lat="47.27205" lon="6.75064">
        <ele>441.4</ele>
        <time>2021-07-29T14:04:55Z</time>
      </trkpt>
      <trkpt lat="47.27208" lon="6.7507">
        <ele>441.4</ele>
        <time>2021-07-29T14:04:56Z</time>
      </trkpt>
      <trkpt lat="47.27211" lon="6.75075">
        <ele>441.6</ele>
        <time>2021-07-29T14:04:57Z</time>
      </trkpt>
      <trkpt lat="47.27213" lon="6.7508">
        <ele>441.6</ele>
        <time>2021-07-29T14:04:58Z</time>
      </trkpt>
      <trkpt lat="47.27216" lon="6.75086">
        <ele>441.8</ele>
        <time>2021-07-29T14:04:59Z</time>
      </trkpt>
      <trkpt lat="47.27218" lon="6.75091">
        <ele>441.8</ele>
        <time>2021-07-29T14:05:00Z</time>
      </trkpt>
      <trkpt lat="47.27221" lon="6.75096">
        <ele>442</ele>
        <time>2021-07-29T14:05:01Z</time>
      </trkpt>
      <trkpt lat="47.27224" lon="6.75102">
        <ele>442</ele>
        <time>2021-07-29T14:05:02Z</time>
      </trkpt>
      <trkpt lat="47.27226" lon="6.75107">
        <ele>442.2</ele>
        <time>2021-07-29T14:05:03Z</time>
      </trkpt>
      <trkpt lat="47.27229" lon="6.75113">
        <ele>442.2</ele>
        <time>2021-07-29T14:05:04Z</time>
      </trkpt>
      <trkpt lat="47.27232" lon="6.75118">
        <ele>442.4</ele>
        <time>2021-07-29T14:05:05Z</time>
      </trkpt>
      <trkpt lat="47.27234" lon="6.75123">
        <ele>442.4</ele>
        <time>2021-07-29T14:05:06Z</time>
      </trkpt>
      <trkpt lat="47.27236" lon="6.75129">
        <ele>442.4</ele>
        <time>2021-07-29T14:05:07Z</time>
      </trkpt>
      <trkpt lat="47.27239" lon="6.75134">
        <ele>442.4</ele>
        <time>2021-07-29T14:05:08Z</time>
      </trkpt>
      <trkpt lat="47.27241" lon="6.7514">
        <ele>442.4</ele>
        <time>2021-07-29T14:05:09Z</time>
      </trkpt>
      <trkpt lat="47.27243" lon="6.75146">
        <ele>442.6</ele>
        <time>2021-07-29T14:05:10Z</time>
      </trkpt>
      <trkpt lat="47.27246" lon="6.75151">
        <ele>442.6</ele>
        <time>2021-07-29T14:05:11Z</time>
      </trkpt>
      <trkpt lat="47.27248" lon="6.75157">
        <ele>442.6</ele>
        <time>2021-07-29T14:05:12Z</time>
      </trkpt>
      <trkpt lat="47.27249" lon="6.75163">
        <ele>442.6</ele>
        <time>2021-07-29T14:05:13Z</time>
      </trkpt>
      <trkpt lat="47.27252" lon="6.75169">
        <ele>442.6</ele>
        <time>2021-07-29T14:05:14Z</time>
      </trkpt>
      <trkpt lat="47.27253" lon="6.75175">
        <ele>442.6</ele>
        <time>2021-07-29T14:05:15Z</time>
      </trkpt>
      <trkpt lat="47.27255" lon="6.75181">
        <ele>442.4</ele>
        <time>2021-07-29T14:05:16Z</time>
      </trkpt>
      <trkpt lat="47.27256" lon="6.75188">
        <ele>442.4</ele>
        <time>2021-07-29T14:05:17Z</time>
      </trkpt>
      <trkpt lat="47.27258" lon="6.75195">
        <ele>442.4</ele>
        <time>2021-07-29T14:05:18Z</time>
      </trkpt>
      <trkpt lat="47.27259" lon="6.75202">
        <ele>442.2</ele>
        <time>2021-07-29T14:05:19Z</time>
      </trkpt>
      <trkpt lat="47.2726" lon="6.75209">
        <ele>442.2</ele>
        <time>2021-07-29T14:05:20Z</time>
      </trkpt>
      <trkpt lat="47.27261" lon="6.75216">
        <ele>442.2</ele>
        <time>2021-07-29T14:05:21Z</time>
      </trkpt>
      <trkpt lat="47.27263" lon="6.75224">
        <ele>442</ele>
        <time>2021-07-29T14:05:22Z</time>
      </trkpt>
      <trkpt lat="47.27264" lon="6.75232">
        <ele>441.8</ele>
        <time>2021-07-29T14:05:23Z</time>
      </trkpt>
      <trkpt lat="47.27265" lon="6.7524">
        <ele>441.8</ele>
        <time>2021-07-29T14:05:24Z</time>
      </trkpt>
      <trkpt lat="47.27266" lon="6.75249">
        <ele>441.6</ele>
        <time>2021-07-29T14:05:25Z</time>
      </trkpt>
      <trkpt lat="47.27266" lon="6.75257">
        <ele>441.6</ele>
        <time>2021-07-29T14:05:26Z</time>
      </trkpt>
      <trkpt lat="47.27267" lon="6.75265">
        <ele>441.6</ele>
        <time>2021-07-29T14:05:27Z</time>
      </trkpt>
      <trkpt lat="47.27268" lon="6.75273">
        <ele>441.6</ele>
        <time>2021-07-29T14:05:28Z</time>
      </trkpt>
      <trkpt lat="47.27268" lon="6.75281">
        <ele>441.6</ele>
        <time>2021-07-29T14:05:29Z</time>
      </trkpt>
      <trkpt lat="47.27268" lon="6.75289">
        <ele>441.6</ele>
        <time>2021-07-29T14:05:30Z</time>
      </trkpt>
      <trkpt lat="47.27268" lon="6.75297">
        <ele>441.6</ele>
        <time>2021-07-29T14:05:31Z</time>
      </trkpt>
      <trkpt lat="47.27268" lon="6.75305">
        <ele>441.6</ele>
        <time>2021-07-29T14:05:32Z</time>
      </trkpt>
      <trkpt lat="47.27267" lon="6.75313">
        <ele>441.6</ele>
        <time>2021-07-29T14:05:33Z</time>
      </trkpt>
      <trkpt lat="47.27266" lon="6.75321">
        <ele>441.4</ele>
        <time>2021-07-29T14:05:34Z</time>
      </trkpt>
      <trkpt lat="47.27266" lon="6.75329">
        <ele>441.4</ele>
        <time>2021-07-29T14:05:35Z</time>
      </trkpt>
      <trkpt lat="47.27265" lon="6.75337">
        <ele>441.4</ele>
        <time>2021-07-29T14:05:36Z</time>
      </trkpt>
      <trkpt lat="47.27264" lon="6.75345">
        <ele>441.2</ele>
        <time>2021-07-29T14:05:37Z</time>
      </trkpt>
      <trkpt lat="47.27263" lon="6.75353">
        <ele>441.2</ele>
        <time>2021-07-29T14:05:38Z</time>
      </trkpt>
      <trkpt lat="47.27262" lon="6.75361">
        <ele>441.2</ele>
        <time>2021-07-29T14:05:39Z</time>
      </trkpt>
      <trkpt lat="47.27261" lon="6.7537">
        <ele>441</ele>
        <time>2021-07-29T14:05:40Z</time>
      </trkpt>
      <trkpt lat="47.2726" lon="6.75378">
        <ele>440.8</ele>
        <time>2021-07-29T14:05:41Z</time>
      </trkpt>
      <trkpt lat="47.2726" lon="6.75387">
        <ele>440.4</ele>
        <time>2021-07-29T14:05:42Z</time>
      </trkpt>
      <trkpt lat="47.27259" lon="6.75396">
        <ele>440.4</ele>
        <time>2021-07-29T14:05:43Z</time>
      </trkpt>
      <trkpt lat="47.27258" lon="6.75405">
        <ele>440.2</ele>
        <time>2021-07-29T14:05:44Z</time>
      </trkpt>
      <trkpt lat="47.27257" lon="6.75413">
        <ele>440.2</ele>
        <time>2021-07-29T14:05:45Z</time>
      </trkpt>
      <trkpt lat="47.27256" lon="6.75422">
        <ele>440</ele>
        <time>2021-07-29T14:05:46Z</time>
      </trkpt>
      <trkpt lat="47.27255" lon="6.75431">
        <ele>440</ele>
        <time>2021-07-29T14:05:47Z</time>
      </trkpt>
      <trkpt lat="47.27253" lon="6.7544">
        <ele>439.8</ele>
        <time>2021-07-29T14:05:48Z</time>
      </trkpt>
      <trkpt lat="47.27252" lon="6.75449">
        <ele>439.8</ele>
        <time>2021-07-29T14:05:49Z</time>
      </trkpt>
      <trkpt lat="47.27251" lon="6.75457">
        <ele>439.8</ele>
        <time>2021-07-29T14:05:50Z</time>
      </trkpt>
      <trkpt lat="47.2725" lon="6.75466">
        <ele>439.8</ele>
        <time>2021-07-29T14:05:51Z</time>
      </trkpt>
      <trkpt lat="47.27249" lon="6.75475">
        <ele>439.8</ele>
        <time>2021-07-29T14:05:52Z</time>
      </trkpt>
      <trkpt lat="47.27248" lon="6.75484">
        <ele>439.6</ele>
        <time>2021-07-29T14:05:53Z</time>
      </trkpt>
      <trkpt lat="47.27247" lon="6.75493">
        <ele>439.6</ele>
        <time>2021-07-29T14:05:54Z</time>
      </trkpt>
      <trkpt lat="47.27246" lon="6.75501">
        <ele>439.4</ele>
        <time>2021-07-29T14:05:55Z</time>
      </trkpt>
      <trkpt lat="47.27245" lon="6.7551">
        <ele>439.6</ele>
        <time>2021-07-29T14:05:56Z</time>
      </trkpt>
      <trkpt lat="47.27244" lon="6.75518">
        <ele>439.6</ele>
        <time>2021-07-29T14:05:57Z</time>
      </trkpt>
      <trkpt lat="47.27242" lon="6.75527">
        <ele>439.6</ele>
        <time>2021-07-29T14:05:58Z</time>
      </trkpt>
      <trkpt lat="47.27241" lon="6.75535">
        <ele>439.6</ele>
        <time>2021-07-29T14:05:59Z</time>
      </trkpt>
      <trkpt lat="47.2724" lon="6.75543">
        <ele>439.6</ele>
        <time>2021-07-29T14:06:00Z</time>
      </trkpt>
      <trkpt lat="47.27239" lon="6.75552">
        <ele>439.4</ele>
        <time>2021-07-29T14:06:01Z</time>
      </trkpt>
      <trkpt lat="47.27238" lon="6.7556">
        <ele>439.4</ele>
        <time>2021-07-29T14:06:02Z</time>
      </trkpt>
      <trkpt lat="47.27237" lon="6.75569">
        <ele>439.4</ele>
        <time>2021-07-29T14:06:03Z</time>
      </trkpt>
      <trkpt lat="47.27237" lon="6.75577">
        <ele>439.4</ele>
        <time>2021-07-29T14:06:04Z</time>
      </trkpt>
      <trkpt lat="47.27236" lon="6.75585">
        <ele>439.4</ele>
        <time>2021-07-29T14:06:05Z</time>
      </trkpt>
      <trkpt lat="47.27236" lon="6.75592">
        <ele>439.4</ele>
        <time>2021-07-29T14:06:06Z</time>
      </trkpt>
      <trkpt lat="47.27236" lon="6.756">
        <ele>439.6</ele>
        <time>2021-07-29T14:06:07Z</time>
      </trkpt>
      <trkpt lat="47.27237" lon="6.75608">
        <ele>439.6</ele>
        <time>2021-07-29T14:06:08Z</time>
      </trkpt>
      <trkpt lat="47.27238" lon="6.75616">
        <ele>439.6</ele>
        <time>2021-07-29T14:06:09Z</time>
      </trkpt>
      <trkpt lat="47.27239" lon="6.75625">
        <ele>439.6</ele>
        <time>2021-07-29T14:06:10Z</time>
      </trkpt>
      <trkpt lat="47.2724" lon="6.75632">
        <ele>439.6</ele>
        <time>2021-07-29T14:06:11Z</time>
      </trkpt>
      <trkpt lat="47.27242" lon="6.7564">
        <ele>439.8</ele>
        <time>2021-07-29T14:06:12Z</time>
      </trkpt>
      <trkpt lat="47.27243" lon="6.75647">
        <ele>439.8</ele>
        <time>2021-07-29T14:06:13Z</time>
      </trkpt>
      <trkpt lat="47.27245" lon="6.75653">
        <ele>439.8</ele>
        <time>2021-07-29T14:06:14Z</time>
      </trkpt>
      <trkpt lat="47.27248" lon="6.75659">
        <ele>440</ele>
        <time>2021-07-29T14:06:15Z</time>
      </trkpt>
      <trkpt lat="47.2725" lon="6.75666">
        <ele>440</ele>
        <time>2021-07-29T14:06:16Z</time>
      </trkpt>
      <trkpt lat="47.27253" lon="6.75672">
        <ele>440</ele>
        <time>2021-07-29T14:06:17Z</time>
      </trkpt>
      <trkpt lat="47.27255" lon="6.75677">
        <ele>440.2</ele>
        <time>2021-07-29T14:06:18Z</time>
      </trkpt>
      <trkpt lat="47.27258" lon="6.75683">
        <ele>440.2</ele>
        <time>2021-07-29T14:06:19Z</time>
      </trkpt>
      <trkpt lat="47.27261" lon="6.75688">
        <ele>440.2</ele>
        <time>2021-07-29T14:06:20Z</time>
      </trkpt>
      <trkpt lat="47.27264" lon="6.75693">
        <ele>440.4</ele>
        <time>2021-07-29T14:06:21Z</time>
      </trkpt>
      <trkpt lat="47.27267" lon="6.75698">
        <ele>440.4</ele>
        <time>2021-07-29T14:06:22Z</time>
      </trkpt>
      <trkpt lat="47.27271" lon="6.75703">
        <ele>440.4</ele>
        <time>2021-07-29T14:06:23Z</time>
      </trkpt>
      <trkpt lat="47.27274" lon="6.75707">
        <ele>440.4</ele>
        <time>2021-07-29T14:06:24Z</time>
      </trkpt>
      <trkpt lat="47.27277" lon="6.75711">
        <ele>440.4</ele>
        <time>2021-07-29T14:06:25Z</time>
      </trkpt>
      <trkpt lat="47.2728" lon="6.75716">
        <ele>440.4</ele>
        <time>2021-07-29T14:06:26Z</time>
      </trkpt>
      <trkpt lat="47.27285" lon="6.7572">
        <ele>440.4</ele>
        <time>2021-07-29T14:06:27Z</time>
      </trkpt>
      <trkpt lat="47.27289" lon="6.75724">
        <ele>440.4</ele>
        <time>2021-07-29T14:06:28Z</time>
      </trkpt>
      <trkpt lat="47.27294" lon="6.75728">
        <ele>440.4</ele>
        <time>2021-07-29T14:06:29Z</time>
      </trkpt>
      <trkpt lat="47.27298" lon="6.75732">
        <ele>440.2</ele>
        <time>2021-07-29T14:06:30Z</time>
      </trkpt>
      <trkpt lat="47.27303" lon="6.75735">
        <ele>440.2</ele>
        <time>2021-07-29T14:06:31Z</time>
      </trkpt>
      <trkpt lat="47.27308" lon="6.75739">
        <ele>440</ele>
        <time>2021-07-29T14:06:32Z</time>
      </trkpt>
      <trkpt lat="47.27312" lon="6.75741">
        <ele>440</ele>
        <time>2021-07-29T14:06:33Z</time>
      </trkpt>
      <trkpt lat="47.27318" lon="6.75744">
        <ele>439.8</ele>
        <time>2021-07-29T14:06:34Z</time>
      </trkpt>
      <trkpt lat="47.27323" lon="6.75746">
        <ele>439.6</ele>
        <time>2021-07-29T14:06:35Z</time>
      </trkpt>
      <trkpt lat="47.27328" lon="6.75747">
        <ele>439.6</ele>
        <time>2021-07-29T14:06:36Z</time>
      </trkpt>
      <trkpt lat="47.27334" lon="6.75748">
        <ele>439.4</ele>
        <time>2021-07-29T14:06:37Z</time>
      </trkpt>
      <trkpt lat="47.2734" lon="6.75749">
        <ele>439.4</ele>
        <time>2021-07-29T14:06:38Z</time>
      </trkpt>
      <trkpt lat="47.27346" lon="6.7575">
        <ele>439</ele>
        <time>2021-07-29T14:06:39Z</time>
      </trkpt>
      <trkpt lat="47.27352" lon="6.75751">
        <ele>439</ele>
        <time>2021-07-29T14:06:40Z</time>
      </trkpt>
      <trkpt lat="47.27358" lon="6.75751">
        <ele>438.8</ele>
        <time>2021-07-29T14:06:41Z</time>
      </trkpt>
      <trkpt lat="47.27364" lon="6.75752">
        <ele>438.8</ele>
        <time>2021-07-29T14:06:42Z</time>
      </trkpt>
      <trkpt lat="47.27369" lon="6.75752">
        <ele>438.8</ele>
        <time>2021-07-29T14:06:43Z</time>
      </trkpt>
      <trkpt lat="47.27375" lon="6.75753">
        <ele>438.8</ele>
        <time>2021-07-29T14:06:44Z</time>
      </trkpt>
      <trkpt lat="47.27381" lon="6.75754">
        <ele>438.8</ele>
        <time>2021-07-29T14:06:45Z</time>
      </trkpt>
      <trkpt lat="47.27386" lon="6.75754">
        <ele>438.8</ele>
        <time>2021-07-29T14:06:46Z</time>
      </trkpt>
      <trkpt lat="47.27392" lon="6.75755">
        <ele>438.8</ele>
        <time>2021-07-29T14:06:47Z</time>
      </trkpt>
      <trkpt lat="47.27398" lon="6.75756">
        <ele>438.6</ele>
        <time>2021-07-29T14:06:48Z</time>
      </trkpt>
      <trkpt lat="47.27403" lon="6.75757">
        <ele>438.8</ele>
        <time>2021-07-29T14:06:49Z</time>
      </trkpt>
      <trkpt lat="47.27408" lon="6.75757">
        <ele>438.8</ele>
        <time>2021-07-29T14:06:50Z</time>
      </trkpt>
      <trkpt lat="47.27414" lon="6.75757">
        <ele>438.8</ele>
        <time>2021-07-29T14:06:51Z</time>
      </trkpt>
      <trkpt lat="47.27418" lon="6.75758">
        <ele>439</ele>
        <time>2021-07-29T14:06:52Z</time>
      </trkpt>
      <trkpt lat="47.27423" lon="6.75758">
        <ele>439</ele>
        <time>2021-07-29T14:06:53Z</time>
      </trkpt>
      <trkpt lat="47.27427" lon="6.75758">
        <ele>439</ele>
        <time>2021-07-29T14:06:54Z</time>
      </trkpt>
      <trkpt lat="47.27432" lon="6.75759">
        <ele>439.2</ele>
        <time>2021-07-29T14:06:55Z</time>
      </trkpt>
      <trkpt lat="47.27437" lon="6.75759">
        <ele>439.2</ele>
        <time>2021-07-29T14:06:56Z</time>
      </trkpt>
      <trkpt lat="47.27441" lon="6.75759">
        <ele>439.2</ele>
        <time>2021-07-29T14:06:57Z</time>
      </trkpt>
      <trkpt lat="47.27446" lon="6.75759">
        <ele>439.2</ele>
        <time>2021-07-29T14:06:58Z</time>
      </trkpt>
      <trkpt lat="47.27451" lon="6.7576">
        <ele>439.2</ele>
        <time>2021-07-29T14:06:59Z</time>
      </trkpt>
      <trkpt lat="47.27455" lon="6.7576">
        <ele>439.4</ele>
        <time>2021-07-29T14:07:00Z</time>
      </trkpt>
      <trkpt lat="47.2746" lon="6.75761">
        <ele>439.4</ele>
        <time>2021-07-29T14:07:01Z</time>
      </trkpt>
      <trkpt lat="47.27465" lon="6.75761">
        <ele>439.4</ele>
        <time>2021-07-29T14:07:02Z</time>
      </trkpt>
      <trkpt lat="47.2747" lon="6.75761">
        <ele>439.2</ele>
        <time>2021-07-29T14:07:03Z</time>
      </trkpt>
      <trkpt lat="47.27475" lon="6.75762">
        <ele>439.2</ele>
        <time>2021-07-29T14:07:04Z</time>
      </trkpt>
      <trkpt lat="47.27481" lon="6.75762">
        <ele>439.4</ele>
        <time>2021-07-29T14:07:05Z</time>
      </trkpt>
      <trkpt lat="47.27486" lon="6.75763">
        <ele>439.2</ele>
        <time>2021-07-29T14:07:06Z</time>
      </trkpt>
      <trkpt lat="47.27491" lon="6.75763">
        <ele>439.2</ele>
        <time>2021-07-29T14:07:07Z</time>
      </trkpt>
      <trkpt lat="47.27497" lon="6.75764">
        <ele>439.2</ele>
        <time>2021-07-29T14:07:08Z</time>
      </trkpt>
      <trkpt lat="47.27502" lon="6.75764">
        <ele>439.2</ele>
        <time>2021-07-29T14:07:09Z</time>
      </trkpt>
      <trkpt lat="47.27507" lon="6.75764">
        <ele>439.2</ele>
        <time>2021-07-29T14:07:10Z</time>
      </trkpt>
      <trkpt lat="47.27512" lon="6.75764">
        <ele>439.2</ele>
        <time>2021-07-29T14:07:11Z</time>
      </trkpt>
      <trkpt lat="47.27518" lon="6.75765">
        <ele>439.2</ele>
        <time>2021-07-29T14:07:12Z</time>
      </trkpt>
      <trkpt lat="47.27524" lon="6.75765">
        <ele>439.2</ele>
        <time>2021-07-29T14:07:13Z</time>
      </trkpt>
      <trkpt lat="47.27529" lon="6.75766">
        <ele>439.2</ele>
        <time>2021-07-29T14:07:14Z</time>
      </trkpt>
      <trkpt lat="47.27534" lon="6.75765">
        <ele>439.4</ele>
        <time>2021-07-29T14:07:15Z</time>
      </trkpt>
      <trkpt lat="47.27538" lon="6.75766">
        <ele>439.4</ele>
        <time>2021-07-29T14:07:16Z</time>
      </trkpt>
      <trkpt lat="47.27543" lon="6.75766">
        <ele>439.4</ele>
        <time>2021-07-29T14:07:17Z</time>
      </trkpt>
      <trkpt lat="47.27548" lon="6.75767">
        <ele>439.4</ele>
        <time>2021-07-29T14:07:18Z</time>
      </trkpt>
      <trkpt lat="47.27553" lon="6.75768">
        <ele>439.4</ele>
        <time>2021-07-29T14:07:19Z</time>
      </trkpt>
      <trkpt lat="47.27557" lon="6.75769">
        <ele>439.4</ele>
        <time>2021-07-29T14:07:20Z</time>
      </trkpt>
      <trkpt lat="47.27562" lon="6.75771">
        <ele>439.4</ele>
        <time>2021-07-29T14:07:21Z</time>
      </trkpt>
      <trkpt lat="47.27566" lon="6.75772">
        <ele>439.4</ele>
        <time>2021-07-29T14:07:22Z</time>
      </trkpt>
      <trkpt lat="47.27572" lon="6.75775">
        <ele>439.4</ele>
        <time>2021-07-29T14:07:23Z</time>
      </trkpt>
      <trkpt lat="47.27577" lon="6.75777">
        <ele>439.4</ele>
        <time>2021-07-29T14:07:24Z</time>
      </trkpt>
      <trkpt lat="47.27582" lon="6.7578">
        <ele>439.4</ele>
        <time>2021-07-29T14:07:25Z</time>
      </trkpt>
      <trkpt lat="47.27587" lon="6.75783">
        <ele>439.2</ele>
        <time>2021-07-29T14:07:26Z</time>
      </trkpt>
      <trkpt lat="47.27592" lon="6.75786">
        <ele>439.2</ele>
        <time>2021-07-29T14:07:27Z</time>
      </trkpt>
      <trkpt lat="47.27597" lon="6.7579">
        <ele>439</ele>
        <time>2021-07-29T14:07:28Z</time>
      </trkpt>
      <trkpt lat="47.27603" lon="6.75793">
        <ele>439</ele>
        <time>2021-07-29T14:07:29Z</time>
      </trkpt>
      <trkpt lat="47.27608" lon="6.75798">
        <ele>438.8</ele>
        <time>2021-07-29T14:07:30Z</time>
      </trkpt>
      <trkpt lat="47.27613" lon="6.75803">
        <ele>438.8</ele>
        <time>2021-07-29T14:07:31Z</time>
      </trkpt>
      <trkpt lat="47.27619" lon="6.75807">
        <ele>438.6</ele>
        <time>2021-07-29T14:07:32Z</time>
      </trkpt>
      <trkpt lat="47.27624" lon="6.75812">
        <ele>438.4</ele>
        <time>2021-07-29T14:07:33Z</time>
      </trkpt>
      <trkpt lat="47.2763" lon="6.75818">
        <ele>438.4</ele>
        <time>2021-07-29T14:07:34Z</time>
      </trkpt>
      <trkpt lat="47.27635" lon="6.75823">
        <ele>438.2</ele>
        <time>2021-07-29T14:07:35Z</time>
      </trkpt>
      <trkpt lat="47.2764" lon="6.75829">
        <ele>438.2</ele>
        <time>2021-07-29T14:07:36Z</time>
      </trkpt>
      <trkpt lat="47.27644" lon="6.75835">
        <ele>438.2</ele>
        <time>2021-07-29T14:07:37Z</time>
      </trkpt>
      <trkpt lat="47.27648" lon="6.75841">
        <ele>438.2</ele>
        <time>2021-07-29T14:07:38Z</time>
      </trkpt>
      <trkpt lat="47.27653" lon="6.75847">
        <ele>438.2</ele>
        <time>2021-07-29T14:07:39Z</time>
      </trkpt>
      <trkpt lat="47.27657" lon="6.75853">
        <ele>438.2</ele>
        <time>2021-07-29T14:07:40Z</time>
      </trkpt>
      <trkpt lat="47.2766" lon="6.7586">
        <ele>438.2</ele>
        <time>2021-07-29T14:07:41Z</time>
      </trkpt>
      <trkpt lat="47.27664" lon="6.75866">
        <ele>438.2</ele>
        <time>2021-07-29T14:07:42Z</time>
      </trkpt>
      <trkpt lat="47.27668" lon="6.75873">
        <ele>438.2</ele>
        <time>2021-07-29T14:07:43Z</time>
      </trkpt>
      <trkpt lat="47.27671" lon="6.7588">
        <ele>438.2</ele>
        <time>2021-07-29T14:07:44Z</time>
      </trkpt>
      <trkpt lat="47.27675" lon="6.75887">
        <ele>438.2</ele>
        <time>2021-07-29T14:07:45Z</time>
      </trkpt>
      <trkpt lat="47.27678" lon="6.75894">
        <ele>438.2</ele>
        <time>2021-07-29T14:07:46Z</time>
      </trkpt>
      <trkpt lat="47.27681" lon="6.75901">
        <ele>438.2</ele>
        <time>2021-07-29T14:07:47Z</time>
      </trkpt>
      <trkpt lat="47.27684" lon="6.75908">
        <ele>438.2</ele>
        <time>2021-07-29T14:07:48Z</time>
      </trkpt>
      <trkpt lat="47.27686" lon="6.75915">
        <ele>438.2</ele>
        <time>2021-07-29T14:07:49Z</time>
      </trkpt>
      <trkpt lat="47.27689" lon="6.75922">
        <ele>438.2</ele>
        <time>2021-07-29T14:07:50Z</time>
      </trkpt>
      <trkpt lat="47.27691" lon="6.75929">
        <ele>438.2</ele>
        <time>2021-07-29T14:07:51Z</time>
      </trkpt>
      <trkpt lat="47.27693" lon="6.75936">
        <ele>438</ele>
        <time>2021-07-29T14:07:52Z</time>
      </trkpt>
      <trkpt lat="47.27696" lon="6.75944">
        <ele>438</ele>
        <time>2021-07-29T14:07:53Z</time>
      </trkpt>
      <trkpt lat="47.27698" lon="6.75951">
        <ele>438</ele>
        <time>2021-07-29T14:07:54Z</time>
      </trkpt>
      <trkpt lat="47.277" lon="6.75958">
        <ele>438</ele>
        <time>2021-07-29T14:07:55Z</time>
      </trkpt>
      <trkpt lat="47.27702" lon="6.75965">
        <ele>438</ele>
        <time>2021-07-29T14:07:56Z</time>
      </trkpt>
      <trkpt lat="47.27705" lon="6.75972">
        <ele>438</ele>
        <time>2021-07-29T14:07:57Z</time>
      </trkpt>
      <trkpt lat="47.27707" lon="6.75979">
        <ele>438</ele>
        <time>2021-07-29T14:07:58Z</time>
      </trkpt>
      <trkpt lat="47.27709" lon="6.75987">
        <ele>438</ele>
        <time>2021-07-29T14:07:59Z</time>
      </trkpt>
      <trkpt lat="47.27711" lon="6.75995">
        <ele>437.8</ele>
        <time>2021-07-29T14:08:00Z</time>
      </trkpt>
      <trkpt lat="47.27713" lon="6.76003">
        <ele>437.8</ele>
        <time>2021-07-29T14:08:01Z</time>
      </trkpt>
      <trkpt lat="47.27716" lon="6.76011">
        <ele>437.8</ele>
        <time>2021-07-29T14:08:02Z</time>
      </trkpt>
      <trkpt lat="47.27718" lon="6.76019">
        <ele>437.8</ele>
        <time>2021-07-29T14:08:03Z</time>
      </trkpt>
      <trkpt lat="47.2772" lon="6.76027">
        <ele>437.8</ele>
        <time>2021-07-29T14:08:04Z</time>
      </trkpt>
      <trkpt lat="47.27722" lon="6.76035">
        <ele>437.8</ele>
        <time>2021-07-29T14:08:05Z</time>
      </trkpt>
      <trkpt lat="47.27724" lon="6.76043">
        <ele>437.8</ele>
        <time>2021-07-29T14:08:06Z</time>
      </trkpt>
      <trkpt lat="47.27726" lon="6.76051">
        <ele>437.6</ele>
        <time>2021-07-29T14:08:07Z</time>
      </trkpt>
      <trkpt lat="47.27728" lon="6.76059">
        <ele>437.6</ele>
        <time>2021-07-29T14:08:08Z</time>
      </trkpt>
      <trkpt lat="47.2773" lon="6.76067">
        <ele>437.6</ele>
        <time>2021-07-29T14:08:09Z</time>
      </trkpt>
      <trkpt lat="47.27731" lon="6.76076">
        <ele>437.8</ele>
        <time>2021-07-29T14:08:10Z</time>
      </trkpt>
      <trkpt lat="47.27733" lon="6.76083">
        <ele>437.8</ele>
        <time>2021-07-29T14:08:11Z</time>
      </trkpt>
      <trkpt lat="47.27735" lon="6.76091">
        <ele>437.8</ele>
        <time>2021-07-29T14:08:12Z</time>
      </trkpt>
      <trkpt lat="47.27736" lon="6.76099">
        <ele>437.8</ele>
        <time>2021-07-29T14:08:13Z</time>
      </trkpt>
      <trkpt lat="47.27737" lon="6.76107">
        <ele>438</ele>
        <time>2021-07-29T14:08:14Z</time>
      </trkpt>
      <trkpt lat="47.27738" lon="6.76114">
        <ele>438.2</ele>
        <time>2021-07-29T14:08:15Z</time>
      </trkpt>
      <trkpt lat="47.2774" lon="6.76122">
        <ele>438.2</ele>
        <time>2021-07-29T14:08:16Z</time>
      </trkpt>
      <trkpt lat="47.27741" lon="6.76129">
        <ele>438.4</ele>
        <time>2021-07-29T14:08:17Z</time>
      </trkpt>
      <trkpt lat="47.27741" lon="6.76136">
        <ele>438.6</ele>
        <time>2021-07-29T14:08:18Z</time>
      </trkpt>
      <trkpt lat="47.27742" lon="6.76143">
        <ele>438.6</ele>
        <time>2021-07-29T14:08:19Z</time>
      </trkpt>
      <trkpt lat="47.27743" lon="6.7615">
        <ele>438.6</ele>
        <time>2021-07-29T14:08:20Z</time>
      </trkpt>
      <trkpt lat="47.27744" lon="6.76157">
        <ele>438.8</ele>
        <time>2021-07-29T14:08:21Z</time>
      </trkpt>
      <trkpt lat="47.27745" lon="6.76164">
        <ele>439</ele>
        <time>2021-07-29T14:08:22Z</time>
      </trkpt>
      <trkpt lat="47.27747" lon="6.76171">
        <ele>439</ele>
        <time>2021-07-29T14:08:23Z</time>
      </trkpt>
      <trkpt lat="47.27748" lon="6.76177">
        <ele>439.2</ele>
        <time>2021-07-29T14:08:24Z</time>
      </trkpt>
      <trkpt lat="47.27748" lon="6.76183">
        <ele>439.2</ele>
        <time>2021-07-29T14:08:25Z</time>
      </trkpt>
      <trkpt lat="47.2775" lon="6.7619">
        <ele>439.2</ele>
        <time>2021-07-29T14:08:26Z</time>
      </trkpt>
      <trkpt lat="47.27753" lon="6.76196">
        <ele>439.2</ele>
        <time>2021-07-29T14:08:27Z</time>
      </trkpt>
      <trkpt lat="47.27756" lon="6.76201">
        <ele>439.2</ele>
        <time>2021-07-29T14:08:28Z</time>
      </trkpt>
      <trkpt lat="47.27759" lon="6.76205">
        <ele>439.4</ele>
        <time>2021-07-29T14:08:29Z</time>
      </trkpt>
      <trkpt lat="47.27763" lon="6.76209">
        <ele>439.4</ele>
        <time>2021-07-29T14:08:30Z</time>
      </trkpt>
      <trkpt lat="47.27768" lon="6.76211">
        <ele>439.4</ele>
        <time>2021-07-29T14:08:31Z</time>
      </trkpt>
      <trkpt lat="47.27773" lon="6.76213">
        <ele>439.4</ele>
        <time>2021-07-29T14:08:32Z</time>
      </trkpt>
      <trkpt lat="47.27777" lon="6.76213">
        <ele>439.4</ele>
        <time>2021-07-29T14:08:33Z</time>
      </trkpt>
      <trkpt lat="47.27783" lon="6.76212">
        <ele>439.4</ele>
        <time>2021-07-29T14:08:34Z</time>
      </trkpt>
      <trkpt lat="47.27787" lon="6.7621">
        <ele>439.4</ele>
        <time>2021-07-29T14:08:35Z</time>
      </trkpt>
      <trkpt lat="47.27791" lon="6.76207">
        <ele>439.4</ele>
        <time>2021-07-29T14:08:36Z</time>
      </trkpt>
      <trkpt lat="47.27792" lon="6.76204">
        <ele>439.2</ele>
        <time>2021-07-29T14:08:37Z</time>
      </trkpt>
      <trkpt lat="47.27795" lon="6.762">
        <ele>439.2</ele>
        <time>2021-07-29T14:08:38Z</time>
      </trkpt>
      <trkpt lat="47.27799" lon="6.76196">
        <ele>439.2</ele>
        <time>2021-07-29T14:08:39Z</time>
      </trkpt>
      <trkpt lat="47.27802" lon="6.76191">
        <ele>439.2</ele>
        <time>2021-07-29T14:08:40Z</time>
      </trkpt>
      <trkpt lat="47.27806" lon="6.76187">
        <ele>439.2</ele>
        <time>2021-07-29T14:08:41Z</time>
      </trkpt>
      <trkpt lat="47.2781" lon="6.76183">
        <ele>439.2</ele>
        <time>2021-07-29T14:08:42Z</time>
      </trkpt>
      <trkpt lat="47.27814" lon="6.76178">
        <ele>439.2</ele>
        <time>2021-07-29T14:08:43Z</time>
      </trkpt>
      <trkpt lat="47.27818" lon="6.76173">
        <ele>439</ele>
        <time>2021-07-29T14:08:44Z</time>
      </trkpt>
      <trkpt lat="47.27822" lon="6.76169">
        <ele>439</ele>
        <time>2021-07-29T14:08:45Z</time>
      </trkpt>
      <trkpt lat="47.27826" lon="6.76164">
        <ele>438.8</ele>
        <time>2021-07-29T14:08:46Z</time>
      </trkpt>
      <trkpt lat="47.2783" lon="6.76159">
        <ele>440.2</ele>
        <time>2021-07-29T14:08:47Z</time>
      </trkpt>
      <trkpt lat="47.27834" lon="6.76155">
        <ele>439.6</ele>
        <time>2021-07-29T14:08:48Z</time>
      </trkpt>
      <trkpt lat="47.27837" lon="6.7615">
        <ele>438.8</ele>
        <time>2021-07-29T14:08:49Z</time>
      </trkpt>
      <trkpt lat="47.27841" lon="6.76145">
        <ele>438.6</ele>
        <time>2021-07-29T14:08:50Z</time>
      </trkpt>
      <trkpt lat="47.27846" lon="6.7614">
        <ele>438.6</ele>
        <time>2021-07-29T14:08:51Z</time>
      </trkpt>
      <trkpt lat="47.27851" lon="6.76136">
        <ele>438.4</ele>
        <time>2021-07-29T14:08:52Z</time>
      </trkpt>
      <trkpt lat="47.27856" lon="6.76131">
        <ele>438.2</ele>
        <time>2021-07-29T14:08:53Z</time>
      </trkpt>
      <trkpt lat="47.27861" lon="6.76127">
        <ele>438</ele>
        <time>2021-07-29T14:08:54Z</time>
      </trkpt>
      <trkpt lat="47.27866" lon="6.76122">
        <ele>437.8</ele>
        <time>2021-07-29T14:08:55Z</time>
      </trkpt>
      <trkpt lat="47.27871" lon="6.76117">
        <ele>437.8</ele>
        <time>2021-07-29T14:08:56Z</time>
      </trkpt>
      <trkpt lat="47.27877" lon="6.76113">
        <ele>437.6</ele>
        <time>2021-07-29T14:08:57Z</time>
      </trkpt>
      <trkpt lat="47.27882" lon="6.76109">
        <ele>437.6</ele>
        <time>2021-07-29T14:08:58Z</time>
      </trkpt>
      <trkpt lat="47.27888" lon="6.76105">
        <ele>437.6</ele>
        <time>2021-07-29T14:08:59Z</time>
      </trkpt>
      <trkpt lat="47.27893" lon="6.761">
        <ele>437.4</ele>
        <time>2021-07-29T14:09:00Z</time>
      </trkpt>
      <trkpt lat="47.27899" lon="6.76096">
        <ele>437.4</ele>
        <time>2021-07-29T14:09:01Z</time>
      </trkpt>
      <trkpt lat="47.27904" lon="6.76092">
        <ele>437.2</ele>
        <time>2021-07-29T14:09:02Z</time>
      </trkpt>
      <trkpt lat="47.27909" lon="6.76088">
        <ele>437</ele>
        <time>2021-07-29T14:09:03Z</time>
      </trkpt>
      <trkpt lat="47.27915" lon="6.76084">
        <ele>437</ele>
        <time>2021-07-29T14:09:04Z</time>
      </trkpt>
      <trkpt lat="47.2792" lon="6.7608">
        <ele>436.8</ele>
        <time>2021-07-29T14:09:05Z</time>
      </trkpt>
      <trkpt lat="47.27925" lon="6.76076">
        <ele>436.6</ele>
        <time>2021-07-29T14:09:06Z</time>
      </trkpt>
      <trkpt lat="47.27931" lon="6.76073">
        <ele>436.8</ele>
        <time>2021-07-29T14:09:07Z</time>
      </trkpt>
      <trkpt lat="47.27936" lon="6.76069">
        <ele>436.8</ele>
        <time>2021-07-29T14:09:08Z</time>
      </trkpt>
      <trkpt lat="47.27941" lon="6.76066">
        <ele>436.6</ele>
        <time>2021-07-29T14:09:09Z</time>
      </trkpt>
      <trkpt lat="47.27946" lon="6.76063">
        <ele>436.6</ele>
        <time>2021-07-29T14:09:10Z</time>
      </trkpt>
      <trkpt lat="47.27952" lon="6.7606">
        <ele>436.6</ele>
        <time>2021-07-29T14:09:11Z</time>
      </trkpt>
      <trkpt lat="47.27957" lon="6.76057">
        <ele>436.4</ele>
        <time>2021-07-29T14:09:12Z</time>
      </trkpt>
      <trkpt lat="47.27963" lon="6.76054">
        <ele>436.4</ele>
        <time>2021-07-29T14:09:13Z</time>
      </trkpt>
      <trkpt lat="47.27968" lon="6.76052">
        <ele>436.4</ele>
        <time>2021-07-29T14:09:14Z</time>
      </trkpt>
      <trkpt lat="47.27974" lon="6.76049">
        <ele>436.4</ele>
        <time>2021-07-29T14:09:15Z</time>
      </trkpt>
      <trkpt lat="47.27979" lon="6.76047">
        <ele>436.2</ele>
        <time>2021-07-29T14:09:16Z</time>
      </trkpt>
      <trkpt lat="47.27985" lon="6.76045">
        <ele>436.2</ele>
        <time>2021-07-29T14:09:17Z</time>
      </trkpt>
      <trkpt lat="47.27991" lon="6.76042">
        <ele>436.2</ele>
        <time>2021-07-29T14:09:18Z</time>
      </trkpt>
      <trkpt lat="47.27996" lon="6.76041">
        <ele>436.2</ele>
        <time>2021-07-29T14:09:19Z</time>
      </trkpt>
      <trkpt lat="47.28002" lon="6.76039">
        <ele>436</ele>
        <time>2021-07-29T14:09:20Z</time>
      </trkpt>
      <trkpt lat="47.28008" lon="6.76037">
        <ele>436</ele>
        <time>2021-07-29T14:09:21Z</time>
      </trkpt>
      <trkpt lat="47.28013" lon="6.76035">
        <ele>436</ele>
        <time>2021-07-29T14:09:22Z</time>
      </trkpt>
      <trkpt lat="47.28019" lon="6.76034">
        <ele>436</ele>
        <time>2021-07-29T14:09:23Z</time>
      </trkpt>
      <trkpt lat="47.28025" lon="6.76033">
        <ele>436</ele>
        <time>2021-07-29T14:09:24Z</time>
      </trkpt>
      <trkpt lat="47.2803" lon="6.76032">
        <ele>436</ele>
        <time>2021-07-29T14:09:25Z</time>
      </trkpt>
      <trkpt lat="47.28036" lon="6.7603">
        <ele>436</ele>
        <time>2021-07-29T14:09:26Z</time>
      </trkpt>
      <trkpt lat="47.28041" lon="6.76029">
        <ele>436</ele>
        <time>2021-07-29T14:09:27Z</time>
      </trkpt>
      <trkpt lat="47.28046" lon="6.76028">
        <ele>436</ele>
        <time>2021-07-29T14:09:28Z</time>
      </trkpt>
      <trkpt lat="47.28051" lon="6.76028">
        <ele>436.2</ele>
        <time>2021-07-29T14:09:29Z</time>
      </trkpt>
      <trkpt lat="47.28056" lon="6.76028">
        <ele>436.2</ele>
        <time>2021-07-29T14:09:30Z</time>
      </trkpt>
      <trkpt lat="47.28061" lon="6.76027">
        <ele>436.2</ele>
        <time>2021-07-29T14:09:31Z</time>
      </trkpt>
      <trkpt lat="47.28065" lon="6.76027">
        <ele>436.2</ele>
        <time>2021-07-29T14:09:32Z</time>
      </trkpt>
      <trkpt lat="47.2807" lon="6.76027">
        <ele>436.2</ele>
        <time>2021-07-29T14:09:33Z</time>
      </trkpt>
      <trkpt lat="47.28075" lon="6.76026">
        <ele>436.2</ele>
        <time>2021-07-29T14:09:34Z</time>
      </trkpt>
      <trkpt lat="47.28079" lon="6.76026">
        <ele>436.2</ele>
        <time>2021-07-29T14:09:35Z</time>
      </trkpt>
      <trkpt lat="47.28083" lon="6.76026">
        <ele>436.4</ele>
        <time>2021-07-29T14:09:36Z</time>
      </trkpt>
      <trkpt lat="47.28088" lon="6.76026">
        <ele>436.4</ele>
        <time>2021-07-29T14:09:37Z</time>
      </trkpt>
      <trkpt lat="47.28092" lon="6.76025">
        <ele>436.4</ele>
        <time>2021-07-29T14:09:38Z</time>
      </trkpt>
      <trkpt lat="47.28096" lon="6.76025">
        <ele>436.4</ele>
        <time>2021-07-29T14:09:39Z</time>
      </trkpt>
      <trkpt lat="47.281" lon="6.76025">
        <ele>436.4</ele>
        <time>2021-07-29T14:09:40Z</time>
      </trkpt>
      <trkpt lat="47.28104" lon="6.76025">
        <ele>436.6</ele>
        <time>2021-07-29T14:09:41Z</time>
      </trkpt>
      <trkpt lat="47.28109" lon="6.76024">
        <ele>436.6</ele>
        <time>2021-07-29T14:09:42Z</time>
      </trkpt>
      <trkpt lat="47.28113" lon="6.76024">
        <ele>436.6</ele>
        <time>2021-07-29T14:09:43Z</time>
      </trkpt>
      <trkpt lat="47.28117" lon="6.76023">
        <ele>436.6</ele>
        <time>2021-07-29T14:09:44Z</time>
      </trkpt>
      <trkpt lat="47.28121" lon="6.76023">
        <ele>436.6</ele>
        <time>2021-07-29T14:09:45Z</time>
      </trkpt>
      <trkpt lat="47.28126" lon="6.76022">
        <ele>436.4</ele>
        <time>2021-07-29T14:09:46Z</time>
      </trkpt>
      <trkpt lat="47.2813" lon="6.76021">
        <ele>436.4</ele>
        <time>2021-07-29T14:09:47Z</time>
      </trkpt>
      <trkpt lat="47.28134" lon="6.7602">
        <ele>436.4</ele>
        <time>2021-07-29T14:09:48Z</time>
      </trkpt>
      <trkpt lat="47.28138" lon="6.76018">
        <ele>436.2</ele>
        <time>2021-07-29T14:09:49Z</time>
      </trkpt>
      <trkpt lat="47.28143" lon="6.76017">
        <ele>436.4</ele>
        <time>2021-07-29T14:09:50Z</time>
      </trkpt>
      <trkpt lat="47.28147" lon="6.76015">
        <ele>436.4</ele>
        <time>2021-07-29T14:09:51Z</time>
      </trkpt>
      <trkpt lat="47.28151" lon="6.76014">
        <ele>436.4</ele>
        <time>2021-07-29T14:09:52Z</time>
      </trkpt>
      <trkpt lat="47.28156" lon="6.76012">
        <ele>436.4</ele>
        <time>2021-07-29T14:09:53Z</time>
      </trkpt>
      <trkpt lat="47.2816" lon="6.76011">
        <ele>436.4</ele>
        <time>2021-07-29T14:09:54Z</time>
      </trkpt>
      <trkpt lat="47.28165" lon="6.76009">
        <ele>436.6</ele>
        <time>2021-07-29T14:09:55Z</time>
      </trkpt>
      <trkpt lat="47.28169" lon="6.76008">
        <ele>436.6</ele>
        <time>2021-07-29T14:09:56Z</time>
      </trkpt>
      <trkpt lat="47.28174" lon="6.76008">
        <ele>436.8</ele>
        <time>2021-07-29T14:09:57Z</time>
      </trkpt>
      <trkpt lat="47.28178" lon="6.76008">
        <ele>437</ele>
        <time>2021-07-29T14:09:58Z</time>
      </trkpt>
      <trkpt lat="47.28182" lon="6.76008">
        <ele>436.8</ele>
        <time>2021-07-29T14:09:59Z</time>
      </trkpt>
      <trkpt lat="47.28186" lon="6.76008">
        <ele>436.8</ele>
        <time>2021-07-29T14:10:00Z</time>
      </trkpt>
      <trkpt lat="47.2819" lon="6.76008">
        <ele>437</ele>
        <time>2021-07-29T14:10:01Z</time>
      </trkpt>
      <trkpt lat="47.28194" lon="6.76009">
        <ele>437</ele>
        <time>2021-07-29T14:10:02Z</time>
      </trkpt>
      <trkpt lat="47.28197" lon="6.76009">
        <ele>437</ele>
        <time>2021-07-29T14:10:03Z</time>
      </trkpt>
      <trkpt lat="47.28201" lon="6.76009">
        <ele>437</ele>
        <time>2021-07-29T14:10:04Z</time>
      </trkpt>
      <trkpt lat="47.28205" lon="6.7601">
        <ele>437.2</ele>
        <time>2021-07-29T14:10:05Z</time>
      </trkpt>
      <trkpt lat="47.28209" lon="6.7601">
        <ele>437.2</ele>
        <time>2021-07-29T14:10:06Z</time>
      </trkpt>
      <trkpt lat="47.28213" lon="6.76011">
        <ele>437.4</ele>
        <time>2021-07-29T14:10:07Z</time>
      </trkpt>
      <trkpt lat="47.28217" lon="6.76011">
        <ele>437.2</ele>
        <time>2021-07-29T14:10:08Z</time>
      </trkpt>
      <trkpt lat="47.28221" lon="6.76012">
        <ele>437</ele>
        <time>2021-07-29T14:10:09Z</time>
      </trkpt>
      <trkpt lat="47.28226" lon="6.76012">
        <ele>436.8</ele>
        <time>2021-07-29T14:10:10Z</time>
      </trkpt>
      <trkpt lat="47.2823" lon="6.76013">
        <ele>436.8</ele>
        <time>2021-07-29T14:10:11Z</time>
      </trkpt>
      <trkpt lat="47.28235" lon="6.76014">
        <ele>436.6</ele>
        <time>2021-07-29T14:10:12Z</time>
      </trkpt>
      <trkpt lat="47.2824" lon="6.76015">
        <ele>436.6</ele>
        <time>2021-07-29T14:10:13Z</time>
      </trkpt>
      <trkpt lat="47.28245" lon="6.76016">
        <ele>436.6</ele>
        <time>2021-07-29T14:10:14Z</time>
      </trkpt>
      <trkpt lat="47.2825" lon="6.76018">
        <ele>436.4</ele>
        <time>2021-07-29T14:10:15Z</time>
      </trkpt>
      <trkpt lat="47.28255" lon="6.7602">
        <ele>436.4</ele>
        <time>2021-07-29T14:10:16Z</time>
      </trkpt>
      <trkpt lat="47.28261" lon="6.76021">
        <ele>436.4</ele>
        <time>2021-07-29T14:10:17Z</time>
      </trkpt>
      <trkpt lat="47.28266" lon="6.76023">
        <ele>436.2</ele>
        <time>2021-07-29T14:10:18Z</time>
      </trkpt>
      <trkpt lat="47.28271" lon="6.76025">
        <ele>436</ele>
        <time>2021-07-29T14:10:19Z</time>
      </trkpt>
      <trkpt lat="47.28277" lon="6.76027">
        <ele>436</ele>
        <time>2021-07-29T14:10:20Z</time>
      </trkpt>
      <trkpt lat="47.28282" lon="6.76029">
        <ele>435.8</ele>
        <time>2021-07-29T14:10:21Z</time>
      </trkpt>
      <trkpt lat="47.28287" lon="6.76031">
        <ele>435.8</ele>
        <time>2021-07-29T14:10:22Z</time>
      </trkpt>
      <trkpt lat="47.28292" lon="6.76033">
        <ele>435.8</ele>
        <time>2021-07-29T14:10:23Z</time>
      </trkpt>
      <trkpt lat="47.28298" lon="6.76036">
        <ele>435.8</ele>
        <time>2021-07-29T14:10:24Z</time>
      </trkpt>
      <trkpt lat="47.28303" lon="6.76038">
        <ele>435.8</ele>
        <time>2021-07-29T14:10:25Z</time>
      </trkpt>
      <trkpt lat="47.28308" lon="6.76041">
        <ele>435.8</ele>
        <time>2021-07-29T14:10:26Z</time>
      </trkpt>
      <trkpt lat="47.28313" lon="6.76044">
        <ele>436</ele>
        <time>2021-07-29T14:10:27Z</time>
      </trkpt>
      <trkpt lat="47.28317" lon="6.76047">
        <ele>436</ele>
        <time>2021-07-29T14:10:28Z</time>
      </trkpt>
      <trkpt lat="47.28322" lon="6.7605">
        <ele>436</ele>
        <time>2021-07-29T14:10:29Z</time>
      </trkpt>
      <trkpt lat="47.28326" lon="6.76052">
        <ele>436</ele>
        <time>2021-07-29T14:10:30Z</time>
      </trkpt>
      <trkpt lat="47.28331" lon="6.76055">
        <ele>436</ele>
        <time>2021-07-29T14:10:31Z</time>
      </trkpt>
      <trkpt lat="47.28335" lon="6.76058">
        <ele>436</ele>
        <time>2021-07-29T14:10:32Z</time>
      </trkpt>
      <trkpt lat="47.28338" lon="6.76061">
        <ele>436</ele>
        <time>2021-07-29T14:10:33Z</time>
      </trkpt>
      <trkpt lat="47.28342" lon="6.76064">
        <ele>436</ele>
        <time>2021-07-29T14:10:34Z</time>
      </trkpt>
      <trkpt lat="47.28346" lon="6.76067">
        <ele>436</ele>
        <time>2021-07-29T14:10:35Z</time>
      </trkpt>
      <trkpt lat="47.2835" lon="6.7607">
        <ele>436</ele>
        <time>2021-07-29T14:10:36Z</time>
      </trkpt>
      <trkpt lat="47.28354" lon="6.76073">
        <ele>436</ele>
        <time>2021-07-29T14:10:37Z</time>
      </trkpt>
      <trkpt lat="47.28358" lon="6.76077">
        <ele>436</ele>
        <time>2021-07-29T14:10:38Z</time>
      </trkpt>
      <trkpt lat="47.28361" lon="6.76081">
        <ele>436</ele>
        <time>2021-07-29T14:10:39Z</time>
      </trkpt>
      <trkpt lat="47.28365" lon="6.76085">
        <ele>435.8</ele>
        <time>2021-07-29T14:10:40Z</time>
      </trkpt>
      <trkpt lat="47.28369" lon="6.7609">
        <ele>435.8</ele>
        <time>2021-07-29T14:10:41Z</time>
      </trkpt>
      <trkpt lat="47.28372" lon="6.76095">
        <ele>435.8</ele>
        <time>2021-07-29T14:10:42Z</time>
      </trkpt>
      <trkpt lat="47.28376" lon="6.76101">
        <ele>435.8</ele>
        <time>2021-07-29T14:10:43Z</time>
      </trkpt>
      <trkpt lat="47.28379" lon="6.76106">
        <ele>435.6</ele>
        <time>2021-07-29T14:10:44Z</time>
      </trkpt>
      <trkpt lat="47.28382" lon="6.76112">
        <ele>435.6</ele>
        <time>2021-07-29T14:10:45Z</time>
      </trkpt>
      <trkpt lat="47.28386" lon="6.76118">
        <ele>435.6</ele>
        <time>2021-07-29T14:10:46Z</time>
      </trkpt>
      <trkpt lat="47.28389" lon="6.76123">
        <ele>435.6</ele>
        <time>2021-07-29T14:10:47Z</time>
      </trkpt>
      <trkpt lat="47.28391" lon="6.76129">
        <ele>435.6</ele>
        <time>2021-07-29T14:10:48Z</time>
      </trkpt>
      <trkpt lat="47.28394" lon="6.76135">
        <ele>435.4</ele>
        <time>2021-07-29T14:10:49Z</time>
      </trkpt>
      <trkpt lat="47.28398" lon="6.76141">
        <ele>435.4</ele>
        <time>2021-07-29T14:10:50Z</time>
      </trkpt>
      <trkpt lat="47.28401" lon="6.76147">
        <ele>435.4</ele>
        <time>2021-07-29T14:10:51Z</time>
      </trkpt>
      <trkpt lat="47.28404" lon="6.76153">
        <ele>435.4</ele>
        <time>2021-07-29T14:10:52Z</time>
      </trkpt>
      <trkpt lat="47.28408" lon="6.76159">
        <ele>435.2</ele>
        <time>2021-07-29T14:10:53Z</time>
      </trkpt>
      <trkpt lat="47.28411" lon="6.76165">
        <ele>435.2</ele>
        <time>2021-07-29T14:10:54Z</time>
      </trkpt>
      <trkpt lat="47.28415" lon="6.76172">
        <ele>435</ele>
        <time>2021-07-29T14:10:55Z</time>
      </trkpt>
      <trkpt lat="47.28418" lon="6.76178">
        <ele>434.8</ele>
        <time>2021-07-29T14:10:56Z</time>
      </trkpt>
      <trkpt lat="47.28421" lon="6.76185">
        <ele>434.8</ele>
        <time>2021-07-29T14:10:57Z</time>
      </trkpt>
      <trkpt lat="47.28424" lon="6.76193">
        <ele>434.6</ele>
        <time>2021-07-29T14:10:58Z</time>
      </trkpt>
      <trkpt lat="47.28427" lon="6.762">
        <ele>434.6</ele>
        <time>2021-07-29T14:10:59Z</time>
      </trkpt>
      <trkpt lat="47.2843" lon="6.76208">
        <ele>434.4</ele>
        <time>2021-07-29T14:11:00Z</time>
      </trkpt>
      <trkpt lat="47.28432" lon="6.76216">
        <ele>434.4</ele>
        <time>2021-07-29T14:11:01Z</time>
      </trkpt>
      <trkpt lat="47.28434" lon="6.76224">
        <ele>434.4</ele>
        <time>2021-07-29T14:11:02Z</time>
      </trkpt>
      <trkpt lat="47.28436" lon="6.76231">
        <ele>434.4</ele>
        <time>2021-07-29T14:11:03Z</time>
      </trkpt>
      <trkpt lat="47.28435" lon="6.7624">
        <ele>434.4</ele>
        <time>2021-07-29T14:11:04Z</time>
      </trkpt>
      <trkpt lat="47.28435" lon="6.76248">
        <ele>434.4</ele>
        <time>2021-07-29T14:11:05Z</time>
      </trkpt>
      <trkpt lat="47.28436" lon="6.76256">
        <ele>434.4</ele>
        <time>2021-07-29T14:11:06Z</time>
      </trkpt>
      <trkpt lat="47.28436" lon="6.76263">
        <ele>434.4</ele>
        <time>2021-07-29T14:11:07Z</time>
      </trkpt>
      <trkpt lat="47.28436" lon="6.76271">
        <ele>434.4</ele>
        <time>2021-07-29T14:11:08Z</time>
      </trkpt>
      <trkpt lat="47.28435" lon="6.76278">
        <ele>434.6</ele>
        <time>2021-07-29T14:11:09Z</time>
      </trkpt>
      <trkpt lat="47.28434" lon="6.76286">
        <ele>434.6</ele>
        <time>2021-07-29T14:11:10Z</time>
      </trkpt>
      <trkpt lat="47.28433" lon="6.76293">
        <ele>434.6</ele>
        <time>2021-07-29T14:11:11Z</time>
      </trkpt>
      <trkpt lat="47.28433" lon="6.763">
        <ele>434.6</ele>
        <time>2021-07-29T14:11:12Z</time>
      </trkpt>
      <trkpt lat="47.28431" lon="6.76308">
        <ele>434.6</ele>
        <time>2021-07-29T14:11:13Z</time>
      </trkpt>
      <trkpt lat="47.2843" lon="6.76315">
        <ele>434.6</ele>
        <time>2021-07-29T14:11:14Z</time>
      </trkpt>
      <trkpt lat="47.28429" lon="6.76321">
        <ele>434.6</ele>
        <time>2021-07-29T14:11:15Z</time>
      </trkpt>
      <trkpt lat="47.28427" lon="6.76328">
        <ele>434.6</ele>
        <time>2021-07-29T14:11:16Z</time>
      </trkpt>
      <trkpt lat="47.28426" lon="6.76335">
        <ele>434.6</ele>
        <time>2021-07-29T14:11:17Z</time>
      </trkpt>
      <trkpt lat="47.28424" lon="6.76342">
        <ele>434.6</ele>
        <time>2021-07-29T14:11:18Z</time>
      </trkpt>
      <trkpt lat="47.28422" lon="6.76349">
        <ele>434.6</ele>
        <time>2021-07-29T14:11:19Z</time>
      </trkpt>
      <trkpt lat="47.2842" lon="6.76356">
        <ele>434.6</ele>
        <time>2021-07-29T14:11:20Z</time>
      </trkpt>
      <trkpt lat="47.28418" lon="6.76363">
        <ele>434.6</ele>
        <time>2021-07-29T14:11:21Z</time>
      </trkpt>
      <trkpt lat="47.28416" lon="6.7637">
        <ele>434.6</ele>
        <time>2021-07-29T14:11:22Z</time>
      </trkpt>
      <trkpt lat="47.28414" lon="6.76376">
        <ele>434.6</ele>
        <time>2021-07-29T14:11:23Z</time>
      </trkpt>
      <trkpt lat="47.28412" lon="6.76383">
        <ele>434.6</ele>
        <time>2021-07-29T14:11:24Z</time>
      </trkpt>
      <trkpt lat="47.28411" lon="6.7639">
        <ele>434.6</ele>
        <time>2021-07-29T14:11:25Z</time>
      </trkpt>
      <trkpt lat="47.28409" lon="6.76397">
        <ele>434.6</ele>
        <time>2021-07-29T14:11:26Z</time>
      </trkpt>
      <trkpt lat="47.28406" lon="6.76403">
        <ele>434.6</ele>
        <time>2021-07-29T14:11:27Z</time>
      </trkpt>
      <trkpt lat="47.28404" lon="6.7641">
        <ele>434.6</ele>
        <time>2021-07-29T14:11:28Z</time>
      </trkpt>
      <trkpt lat="47.28403" lon="6.76416">
        <ele>434.6</ele>
        <time>2021-07-29T14:11:29Z</time>
      </trkpt>
      <trkpt lat="47.284" lon="6.76423">
        <ele>434.6</ele>
        <time>2021-07-29T14:11:30Z</time>
      </trkpt>
      <trkpt lat="47.28398" lon="6.76429">
        <ele>434.6</ele>
        <time>2021-07-29T14:11:31Z</time>
      </trkpt>
      <trkpt lat="47.28395" lon="6.76436">
        <ele>434.6</ele>
        <time>2021-07-29T14:11:32Z</time>
      </trkpt>
      <trkpt lat="47.28392" lon="6.76442">
        <ele>434.6</ele>
        <time>2021-07-29T14:11:33Z</time>
      </trkpt>
      <trkpt lat="47.2839" lon="6.76449">
        <ele>434.6</ele>
        <time>2021-07-29T14:11:34Z</time>
      </trkpt>
      <trkpt lat="47.28387" lon="6.76456">
        <ele>434.6</ele>
        <time>2021-07-29T14:11:35Z</time>
      </trkpt>
      <trkpt lat="47.28384" lon="6.76462">
        <ele>434.4</ele>
        <time>2021-07-29T14:11:36Z</time>
      </trkpt>
      <trkpt lat="47.28382" lon="6.76469">
        <ele>434.4</ele>
        <time>2021-07-29T14:11:37Z</time>
      </trkpt>
      <trkpt lat="47.28379" lon="6.76476">
        <ele>434.4</ele>
        <time>2021-07-29T14:11:38Z</time>
      </trkpt>
      <trkpt lat="47.28377" lon="6.76483">
        <ele>434.4</ele>
        <time>2021-07-29T14:11:39Z</time>
      </trkpt>
      <trkpt lat="47.28374" lon="6.7649">
        <ele>434.4</ele>
        <time>2021-07-29T14:11:40Z</time>
      </trkpt>
      <trkpt lat="47.28371" lon="6.76496">
        <ele>434.2</ele>
        <time>2021-07-29T14:11:41Z</time>
      </trkpt>
      <trkpt lat="47.28369" lon="6.76503">
        <ele>434.2</ele>
        <time>2021-07-29T14:11:42Z</time>
      </trkpt>
      <trkpt lat="47.28366" lon="6.7651">
        <ele>434.2</ele>
        <time>2021-07-29T14:11:43Z</time>
      </trkpt>
      <trkpt lat="47.28363" lon="6.76517">
        <ele>434.2</ele>
        <time>2021-07-29T14:11:44Z</time>
      </trkpt>
      <trkpt lat="47.2836" lon="6.76524">
        <ele>434</ele>
        <time>2021-07-29T14:11:45Z</time>
      </trkpt>
      <trkpt lat="47.28357" lon="6.76531">
        <ele>434</ele>
        <time>2021-07-29T14:11:46Z</time>
      </trkpt>
      <trkpt lat="47.28354" lon="6.76538">
        <ele>434</ele>
        <time>2021-07-29T14:11:47Z</time>
      </trkpt>
      <trkpt lat="47.28351" lon="6.76545">
        <ele>434</ele>
        <time>2021-07-29T14:11:48Z</time>
      </trkpt>
      <trkpt lat="47.28347" lon="6.76552">
        <ele>434.2</ele>
        <time>2021-07-29T14:11:49Z</time>
      </trkpt>
      <trkpt lat="47.28344" lon="6.76559">
        <ele>434</ele>
        <time>2021-07-29T14:11:50Z</time>
      </trkpt>
      <trkpt lat="47.28341" lon="6.76566">
        <ele>434</ele>
        <time>2021-07-29T14:11:51Z</time>
      </trkpt>
      <trkpt lat="47.28339" lon="6.76573">
        <ele>434.2</ele>
        <time>2021-07-29T14:11:52Z</time>
      </trkpt>
      <trkpt lat="47.28335" lon="6.7658">
        <ele>434.2</ele>
        <time>2021-07-29T14:11:53Z</time>
      </trkpt>
      <trkpt lat="47.28333" lon="6.76587">
        <ele>434.2</ele>
        <time>2021-07-29T14:11:54Z</time>
      </trkpt>
      <trkpt lat="47.2833" lon="6.76594">
        <ele>434.2</ele>
        <time>2021-07-29T14:11:55Z</time>
      </trkpt>
      <trkpt lat="47.28327" lon="6.76601">
        <ele>434</ele>
        <time>2021-07-29T14:11:56Z</time>
      </trkpt>
      <trkpt lat="47.28325" lon="6.76608">
        <ele>434</ele>
        <time>2021-07-29T14:11:57Z</time>
      </trkpt>
      <trkpt lat="47.28323" lon="6.76616">
        <ele>434.2</ele>
        <time>2021-07-29T14:11:58Z</time>
      </trkpt>
      <trkpt lat="47.28321" lon="6.76623">
        <ele>434</ele>
        <time>2021-07-29T14:11:59Z</time>
      </trkpt>
      <trkpt lat="47.28319" lon="6.76631">
        <ele>434</ele>
        <time>2021-07-29T14:12:00Z</time>
      </trkpt>
      <trkpt lat="47.28318" lon="6.76639">
        <ele>434</ele>
        <time>2021-07-29T14:12:01Z</time>
      </trkpt>
      <trkpt lat="47.28316" lon="6.76647">
        <ele>434</ele>
        <time>2021-07-29T14:12:02Z</time>
      </trkpt>
      <trkpt lat="47.28315" lon="6.76654">
        <ele>434</ele>
        <time>2021-07-29T14:12:03Z</time>
      </trkpt>
      <trkpt lat="47.28313" lon="6.76662">
        <ele>434</ele>
        <time>2021-07-29T14:12:04Z</time>
      </trkpt>
      <trkpt lat="47.28312" lon="6.76671">
        <ele>434</ele>
        <time>2021-07-29T14:12:05Z</time>
      </trkpt>
      <trkpt lat="47.28311" lon="6.76679">
        <ele>433.8</ele>
        <time>2021-07-29T14:12:06Z</time>
      </trkpt>
      <trkpt lat="47.28309" lon="6.76687">
        <ele>433.8</ele>
        <time>2021-07-29T14:12:07Z</time>
      </trkpt>
      <trkpt lat="47.28308" lon="6.76696">
        <ele>433.8</ele>
        <time>2021-07-29T14:12:08Z</time>
      </trkpt>
      <trkpt lat="47.28307" lon="6.76704">
        <ele>433.8</ele>
        <time>2021-07-29T14:12:09Z</time>
      </trkpt>
      <trkpt lat="47.28305" lon="6.76713">
        <ele>433.8</ele>
        <time>2021-07-29T14:12:10Z</time>
      </trkpt>
      <trkpt lat="47.28304" lon="6.76721">
        <ele>433.8</ele>
        <time>2021-07-29T14:12:11Z</time>
      </trkpt>
      <trkpt lat="47.28303" lon="6.7673">
        <ele>433.6</ele>
        <time>2021-07-29T14:12:12Z</time>
      </trkpt>
      <trkpt lat="47.28302" lon="6.76738">
        <ele>433.6</ele>
        <time>2021-07-29T14:12:13Z</time>
      </trkpt>
      <trkpt lat="47.28302" lon="6.76746">
        <ele>433.6</ele>
        <time>2021-07-29T14:12:14Z</time>
      </trkpt>
      <trkpt lat="47.28301" lon="6.76754">
        <ele>433.8</ele>
        <time>2021-07-29T14:12:15Z</time>
      </trkpt>
      <trkpt lat="47.28301" lon="6.76762">
        <ele>433.8</ele>
        <time>2021-07-29T14:12:16Z</time>
      </trkpt>
      <trkpt lat="47.28301" lon="6.76771">
        <ele>433.8</ele>
        <time>2021-07-29T14:12:17Z</time>
      </trkpt>
      <trkpt lat="47.28302" lon="6.76779">
        <ele>433.8</ele>
        <time>2021-07-29T14:12:18Z</time>
      </trkpt>
      <trkpt lat="47.28302" lon="6.76787">
        <ele>433.6</ele>
        <time>2021-07-29T14:12:19Z</time>
      </trkpt>
      <trkpt lat="47.28303" lon="6.76796">
        <ele>433.6</ele>
        <time>2021-07-29T14:12:20Z</time>
      </trkpt>
      <trkpt lat="47.28304" lon="6.76804">
        <ele>433.6</ele>
        <time>2021-07-29T14:12:21Z</time>
      </trkpt>
      <trkpt lat="47.28306" lon="6.76812">
        <ele>433.6</ele>
        <time>2021-07-29T14:12:22Z</time>
      </trkpt>
      <trkpt lat="47.28307" lon="6.7682">
        <ele>433.6</ele>
        <time>2021-07-29T14:12:23Z</time>
      </trkpt>
      <trkpt lat="47.28309" lon="6.76827">
        <ele>433.6</ele>
        <time>2021-07-29T14:12:24Z</time>
      </trkpt>
      <trkpt lat="47.28312" lon="6.76835">
        <ele>433.8</ele>
        <time>2021-07-29T14:12:25Z</time>
      </trkpt>
      <trkpt lat="47.28314" lon="6.76842">
        <ele>433.6</ele>
        <time>2021-07-29T14:12:26Z</time>
      </trkpt>
      <trkpt lat="47.28317" lon="6.76849">
        <ele>433.8</ele>
        <time>2021-07-29T14:12:27Z</time>
      </trkpt>
      <trkpt lat="47.28321" lon="6.76855">
        <ele>433.6</ele>
        <time>2021-07-29T14:12:28Z</time>
      </trkpt>
      <trkpt lat="47.28324" lon="6.76861">
        <ele>433.6</ele>
        <time>2021-07-29T14:12:29Z</time>
      </trkpt>
      <trkpt lat="47.28328" lon="6.76868">
        <ele>433.8</ele>
        <time>2021-07-29T14:12:30Z</time>
      </trkpt>
      <trkpt lat="47.28331" lon="6.76873">
        <ele>433.8</ele>
        <time>2021-07-29T14:12:31Z</time>
      </trkpt>
      <trkpt lat="47.28335" lon="6.76879">
        <ele>434.2</ele>
        <time>2021-07-29T14:12:32Z</time>
      </trkpt>
      <trkpt lat="47.28339" lon="6.76883">
        <ele>434</ele>
        <time>2021-07-29T14:12:33Z</time>
      </trkpt>
      <trkpt lat="47.28343" lon="6.76888">
        <ele>434</ele>
        <time>2021-07-29T14:12:34Z</time>
      </trkpt>
      <trkpt lat="47.28347" lon="6.76892">
        <ele>434</ele>
        <time>2021-07-29T14:12:35Z</time>
      </trkpt>
      <trkpt lat="47.28351" lon="6.76895">
        <ele>434.2</ele>
        <time>2021-07-29T14:12:36Z</time>
      </trkpt>
      <trkpt lat="47.28355" lon="6.76898">
        <ele>434.2</ele>
        <time>2021-07-29T14:12:37Z</time>
      </trkpt>
      <trkpt lat="47.2836" lon="6.769">
        <ele>434.2</ele>
        <time>2021-07-29T14:12:38Z</time>
      </trkpt>
      <trkpt lat="47.28365" lon="6.76902">
        <ele>434.4</ele>
        <time>2021-07-29T14:12:39Z</time>
      </trkpt>
      <trkpt lat="47.28369" lon="6.76904">
        <ele>434.4</ele>
        <time>2021-07-29T14:12:40Z</time>
      </trkpt>
      <trkpt lat="47.28374" lon="6.76905">
        <ele>434.4</ele>
        <time>2021-07-29T14:12:41Z</time>
      </trkpt>
      <trkpt lat="47.28379" lon="6.76906">
        <ele>434.6</ele>
        <time>2021-07-29T14:12:42Z</time>
      </trkpt>
      <trkpt lat="47.28383" lon="6.76907">
        <ele>434.6</ele>
        <time>2021-07-29T14:12:43Z</time>
      </trkpt>
      <trkpt lat="47.28388" lon="6.76907">
        <ele>434.6</ele>
        <time>2021-07-29T14:12:44Z</time>
      </trkpt>
      <trkpt lat="47.28392" lon="6.76907">
        <ele>434.6</ele>
        <time>2021-07-29T14:12:45Z</time>
      </trkpt>
      <trkpt lat="47.28397" lon="6.76907">
        <ele>434.8</ele>
        <time>2021-07-29T14:12:46Z</time>
      </trkpt>
      <trkpt lat="47.28402" lon="6.76907">
        <ele>434.8</ele>
        <time>2021-07-29T14:12:47Z</time>
      </trkpt>
      <trkpt lat="47.28407" lon="6.76907">
        <ele>434.6</ele>
        <time>2021-07-29T14:12:48Z</time>
      </trkpt>
      <trkpt lat="47.28411" lon="6.76907">
        <ele>434.6</ele>
        <time>2021-07-29T14:12:49Z</time>
      </trkpt>
      <trkpt lat="47.28416" lon="6.76907">
        <ele>434.4</ele>
        <time>2021-07-29T14:12:50Z</time>
      </trkpt>
      <trkpt lat="47.28422" lon="6.76907">
        <ele>434.2</ele>
        <time>2021-07-29T14:12:51Z</time>
      </trkpt>
      <trkpt lat="47.28428" lon="6.76906">
        <ele>434</ele>
        <time>2021-07-29T14:12:52Z</time>
      </trkpt>
      <trkpt lat="47.28434" lon="6.76906">
        <ele>433.8</ele>
        <time>2021-07-29T14:12:53Z</time>
      </trkpt>
      <trkpt lat="47.28441" lon="6.76905">
        <ele>433.6</ele>
        <time>2021-07-29T14:12:54Z</time>
      </trkpt>
      <trkpt lat="47.28447" lon="6.76905">
        <ele>433.4</ele>
        <time>2021-07-29T14:12:55Z</time>
      </trkpt>
      <trkpt lat="47.28454" lon="6.76904">
        <ele>433.2</ele>
        <time>2021-07-29T14:12:56Z</time>
      </trkpt>
      <trkpt lat="47.2846" lon="6.76903">
        <ele>433</ele>
        <time>2021-07-29T14:12:57Z</time>
      </trkpt>
      <trkpt lat="47.28467" lon="6.76902">
        <ele>432.8</ele>
        <time>2021-07-29T14:12:58Z</time>
      </trkpt>
      <trkpt lat="47.28473" lon="6.76901">
        <ele>432.6</ele>
        <time>2021-07-29T14:12:59Z</time>
      </trkpt>
      <trkpt lat="47.2848" lon="6.769">
        <ele>432.4</ele>
        <time>2021-07-29T14:13:00Z</time>
      </trkpt>
      <trkpt lat="47.28487" lon="6.76898">
        <ele>432.4</ele>
        <time>2021-07-29T14:13:01Z</time>
      </trkpt>
      <trkpt lat="47.28494" lon="6.76896">
        <ele>432.4</ele>
        <time>2021-07-29T14:13:02Z</time>
      </trkpt>
      <trkpt lat="47.285" lon="6.76893">
        <ele>432.4</ele>
        <time>2021-07-29T14:13:03Z</time>
      </trkpt>
      <trkpt lat="47.28506" lon="6.76889">
        <ele>432.2</ele>
        <time>2021-07-29T14:13:04Z</time>
      </trkpt>
      <trkpt lat="47.2851" lon="6.76886">
        <ele>432.2</ele>
        <time>2021-07-29T14:13:05Z</time>
      </trkpt>
      <trkpt lat="47.28516" lon="6.76882">
        <ele>432.2</ele>
        <time>2021-07-29T14:13:06Z</time>
      </trkpt>
      <trkpt lat="47.28521" lon="6.76877">
        <ele>432.4</ele>
        <time>2021-07-29T14:13:07Z</time>
      </trkpt>
      <trkpt lat="47.28526" lon="6.76873">
        <ele>432.4</ele>
        <time>2021-07-29T14:13:08Z</time>
      </trkpt>
      <trkpt lat="47.28532" lon="6.76869">
        <ele>432.4</ele>
        <time>2021-07-29T14:13:09Z</time>
      </trkpt>
      <trkpt lat="47.28537" lon="6.76864">
        <ele>432.4</ele>
        <time>2021-07-29T14:13:10Z</time>
      </trkpt>
      <trkpt lat="47.28542" lon="6.76859">
        <ele>432.2</ele>
        <time>2021-07-29T14:13:11Z</time>
      </trkpt>
      <trkpt lat="47.28547" lon="6.76855">
        <ele>432.2</ele>
        <time>2021-07-29T14:13:12Z</time>
      </trkpt>
      <trkpt lat="47.28553" lon="6.7685">
        <ele>432</ele>
        <time>2021-07-29T14:13:13Z</time>
      </trkpt>
      <trkpt lat="47.28559" lon="6.76846">
        <ele>431.8</ele>
        <time>2021-07-29T14:13:14Z</time>
      </trkpt>
      <trkpt lat="47.28565" lon="6.76842">
        <ele>431.8</ele>
        <time>2021-07-29T14:13:15Z</time>
      </trkpt>
      <trkpt lat="47.28571" lon="6.76838">
        <ele>431.6</ele>
        <time>2021-07-29T14:13:16Z</time>
      </trkpt>
      <trkpt lat="47.28576" lon="6.76834">
        <ele>431.6</ele>
        <time>2021-07-29T14:13:17Z</time>
      </trkpt>
      <trkpt lat="47.28582" lon="6.76831">
        <ele>431.4</ele>
        <time>2021-07-29T14:13:18Z</time>
      </trkpt>
      <trkpt lat="47.28587" lon="6.76827">
        <ele>431.4</ele>
        <time>2021-07-29T14:13:19Z</time>
      </trkpt>
      <trkpt lat="47.28593" lon="6.76824">
        <ele>431.4</ele>
        <time>2021-07-29T14:13:20Z</time>
      </trkpt>
      <trkpt lat="47.28599" lon="6.76821">
        <ele>431.4</ele>
        <time>2021-07-29T14:13:21Z</time>
      </trkpt>
      <trkpt lat="47.28604" lon="6.76818">
        <ele>431.4</ele>
        <time>2021-07-29T14:13:22Z</time>
      </trkpt>
      <trkpt lat="47.2861" lon="6.76816">
        <ele>431.4</ele>
        <time>2021-07-29T14:13:23Z</time>
      </trkpt>
      <trkpt lat="47.28616" lon="6.76814">
        <ele>431.4</ele>
        <time>2021-07-29T14:13:24Z</time>
      </trkpt>
      <trkpt lat="47.28621" lon="6.76813">
        <ele>431.4</ele>
        <time>2021-07-29T14:13:25Z</time>
      </trkpt>
      <trkpt lat="47.28627" lon="6.76812">
        <ele>431.4</ele>
        <time>2021-07-29T14:13:26Z</time>
      </trkpt>
      <trkpt lat="47.28632" lon="6.76811">
        <ele>431.4</ele>
        <time>2021-07-29T14:13:27Z</time>
      </trkpt>
      <trkpt lat="47.28638" lon="6.7681">
        <ele>431.4</ele>
        <time>2021-07-29T14:13:28Z</time>
      </trkpt>
      <trkpt lat="47.28644" lon="6.76809">
        <ele>431.4</ele>
        <time>2021-07-29T14:13:29Z</time>
      </trkpt>
      <trkpt lat="47.28649" lon="6.76808">
        <ele>431.4</ele>
        <time>2021-07-29T14:13:30Z</time>
      </trkpt>
      <trkpt lat="47.28655" lon="6.76807">
        <ele>431.2</ele>
        <time>2021-07-29T14:13:31Z</time>
      </trkpt>
      <trkpt lat="47.2866" lon="6.76806">
        <ele>431.2</ele>
        <time>2021-07-29T14:13:32Z</time>
      </trkpt>
      <trkpt lat="47.28666" lon="6.76805">
        <ele>431.2</ele>
        <time>2021-07-29T14:13:33Z</time>
      </trkpt>
      <trkpt lat="47.28671" lon="6.76804">
        <ele>431.2</ele>
        <time>2021-07-29T14:13:34Z</time>
      </trkpt>
      <trkpt lat="47.28676" lon="6.76804">
        <ele>431.2</ele>
        <time>2021-07-29T14:13:35Z</time>
      </trkpt>
      <trkpt lat="47.28681" lon="6.76803">
        <ele>431.2</ele>
        <time>2021-07-29T14:13:36Z</time>
      </trkpt>
      <trkpt lat="47.28687" lon="6.76802">
        <ele>431.2</ele>
        <time>2021-07-29T14:13:37Z</time>
      </trkpt>
      <trkpt lat="47.28692" lon="6.76802">
        <ele>431.2</ele>
        <time>2021-07-29T14:13:38Z</time>
      </trkpt>
      <trkpt lat="47.28697" lon="6.76802">
        <ele>431.2</ele>
        <time>2021-07-29T14:13:39Z</time>
      </trkpt>
      <trkpt lat="47.28702" lon="6.76803">
        <ele>431.2</ele>
        <time>2021-07-29T14:13:40Z</time>
      </trkpt>
      <trkpt lat="47.28707" lon="6.76803">
        <ele>431.2</ele>
        <time>2021-07-29T14:13:41Z</time>
      </trkpt>
      <trkpt lat="47.28712" lon="6.76804">
        <ele>431.4</ele>
        <time>2021-07-29T14:13:42Z</time>
      </trkpt>
      <trkpt lat="47.28717" lon="6.76805">
        <ele>431.4</ele>
        <time>2021-07-29T14:13:43Z</time>
      </trkpt>
      <trkpt lat="47.28721" lon="6.76806">
        <ele>431.4</ele>
        <time>2021-07-29T14:13:44Z</time>
      </trkpt>
      <trkpt lat="47.28726" lon="6.76807">
        <ele>431.4</ele>
        <time>2021-07-29T14:13:45Z</time>
      </trkpt>
      <trkpt lat="47.2873" lon="6.76809">
        <ele>431.4</ele>
        <time>2021-07-29T14:13:46Z</time>
      </trkpt>
      <trkpt lat="47.28734" lon="6.7681">
        <ele>431.6</ele>
        <time>2021-07-29T14:13:47Z</time>
      </trkpt>
      <trkpt lat="47.28739" lon="6.76812">
        <ele>431.6</ele>
        <time>2021-07-29T14:13:48Z</time>
      </trkpt>
      <trkpt lat="47.28743" lon="6.76814">
        <ele>431.6</ele>
        <time>2021-07-29T14:13:49Z</time>
      </trkpt>
      <trkpt lat="47.28748" lon="6.76816">
        <ele>431.6</ele>
        <time>2021-07-29T14:13:50Z</time>
      </trkpt>
      <trkpt lat="47.28752" lon="6.76818">
        <ele>431.6</ele>
        <time>2021-07-29T14:13:51Z</time>
      </trkpt>
      <trkpt lat="47.28757" lon="6.76819">
        <ele>431.4</ele>
        <time>2021-07-29T14:13:52Z</time>
      </trkpt>
      <trkpt lat="47.28762" lon="6.76822">
        <ele>431.4</ele>
        <time>2021-07-29T14:13:53Z</time>
      </trkpt>
      <trkpt lat="47.28767" lon="6.76825">
        <ele>431.2</ele>
        <time>2021-07-29T14:13:54Z</time>
      </trkpt>
      <trkpt lat="47.28772" lon="6.76828">
        <ele>431</ele>
        <time>2021-07-29T14:13:55Z</time>
      </trkpt>
      <trkpt lat="47.28778" lon="6.76831">
        <ele>431</ele>
        <time>2021-07-29T14:13:56Z</time>
      </trkpt>
      <trkpt lat="47.28783" lon="6.76834">
        <ele>431</ele>
        <time>2021-07-29T14:13:57Z</time>
      </trkpt>
      <trkpt lat="47.28788" lon="6.76837">
        <ele>430.8</ele>
        <time>2021-07-29T14:13:58Z</time>
      </trkpt>
      <trkpt lat="47.28793" lon="6.7684">
        <ele>430.8</ele>
        <time>2021-07-29T14:13:59Z</time>
      </trkpt>
      <trkpt lat="47.28799" lon="6.76843">
        <ele>430.8</ele>
        <time>2021-07-29T14:14:00Z</time>
      </trkpt>
      <trkpt lat="47.28804" lon="6.76847">
        <ele>430.8</ele>
        <time>2021-07-29T14:14:01Z</time>
      </trkpt>
      <trkpt lat="47.28809" lon="6.76851">
        <ele>430.6</ele>
        <time>2021-07-29T14:14:02Z</time>
      </trkpt>
      <trkpt lat="47.28814" lon="6.76855">
        <ele>430.6</ele>
        <time>2021-07-29T14:14:03Z</time>
      </trkpt>
      <trkpt lat="47.28819" lon="6.7686">
        <ele>430.6</ele>
        <time>2021-07-29T14:14:04Z</time>
      </trkpt>
      <trkpt lat="47.28824" lon="6.76865">
        <ele>430.6</ele>
        <time>2021-07-29T14:14:05Z</time>
      </trkpt>
      <trkpt lat="47.28828" lon="6.76869">
        <ele>430.6</ele>
        <time>2021-07-29T14:14:06Z</time>
      </trkpt>
      <trkpt lat="47.28833" lon="6.76873">
        <ele>430.6</ele>
        <time>2021-07-29T14:14:07Z</time>
      </trkpt>
      <trkpt lat="47.28838" lon="6.76877">
        <ele>430.6</ele>
        <time>2021-07-29T14:14:08Z</time>
      </trkpt>
      <trkpt lat="47.28842" lon="6.76881">
        <ele>430.6</ele>
        <time>2021-07-29T14:14:09Z</time>
      </trkpt>
      <trkpt lat="47.28846" lon="6.76886">
        <ele>430.8</ele>
        <time>2021-07-29T14:14:10Z</time>
      </trkpt>
      <trkpt lat="47.28851" lon="6.76891">
        <ele>430.8</ele>
        <time>2021-07-29T14:14:11Z</time>
      </trkpt>
      <trkpt lat="47.28855" lon="6.76896">
        <ele>430.6</ele>
        <time>2021-07-29T14:14:12Z</time>
      </trkpt>
      <trkpt lat="47.28858" lon="6.76901">
        <ele>430.6</ele>
        <time>2021-07-29T14:14:13Z</time>
      </trkpt>
      <trkpt lat="47.28862" lon="6.76906">
        <ele>430.6</ele>
        <time>2021-07-29T14:14:14Z</time>
      </trkpt>
      <trkpt lat="47.28866" lon="6.76912">
        <ele>430.6</ele>
        <time>2021-07-29T14:14:15Z</time>
      </trkpt>
      <trkpt lat="47.28869" lon="6.76917">
        <ele>430.8</ele>
        <time>2021-07-29T14:14:16Z</time>
      </trkpt>
      <trkpt lat="47.28873" lon="6.76922">
        <ele>430.8</ele>
        <time>2021-07-29T14:14:17Z</time>
      </trkpt>
      <trkpt lat="47.28876" lon="6.76927">
        <ele>430.8</ele>
        <time>2021-07-29T14:14:18Z</time>
      </trkpt>
      <trkpt lat="47.28879" lon="6.76932">
        <ele>430.8</ele>
        <time>2021-07-29T14:14:19Z</time>
      </trkpt>
      <trkpt lat="47.28883" lon="6.76938">
        <ele>430.8</ele>
        <time>2021-07-29T14:14:20Z</time>
      </trkpt>
      <trkpt lat="47.28886" lon="6.76944">
        <ele>431</ele>
        <time>2021-07-29T14:14:21Z</time>
      </trkpt>
      <trkpt lat="47.28889" lon="6.7695">
        <ele>431</ele>
        <time>2021-07-29T14:14:22Z</time>
      </trkpt>
      <trkpt lat="47.28892" lon="6.76955">
        <ele>431</ele>
        <time>2021-07-29T14:14:23Z</time>
      </trkpt>
      <trkpt lat="47.28894" lon="6.7696">
        <ele>431</ele>
        <time>2021-07-29T14:14:24Z</time>
      </trkpt>
      <trkpt lat="47.28896" lon="6.76966">
        <ele>431</ele>
        <time>2021-07-29T14:14:25Z</time>
      </trkpt>
      <trkpt lat="47.28898" lon="6.76971">
        <ele>431</ele>
        <time>2021-07-29T14:14:26Z</time>
      </trkpt>
      <trkpt lat="47.289" lon="6.76977">
        <ele>431.2</ele>
        <time>2021-07-29T14:14:27Z</time>
      </trkpt>
      <trkpt lat="47.28901" lon="6.76982">
        <ele>431.2</ele>
        <time>2021-07-29T14:14:28Z</time>
      </trkpt>
      <trkpt lat="47.28903" lon="6.76988">
        <ele>431.2</ele>
        <time>2021-07-29T14:14:29Z</time>
      </trkpt>
      <trkpt lat="47.28905" lon="6.76994">
        <ele>431.2</ele>
        <time>2021-07-29T14:14:30Z</time>
      </trkpt>
      <trkpt lat="47.28906" lon="6.77">
        <ele>431.2</ele>
        <time>2021-07-29T14:14:31Z</time>
      </trkpt>
      <trkpt lat="47.28907" lon="6.77007">
        <ele>431.2</ele>
        <time>2021-07-29T14:14:32Z</time>
      </trkpt>
      <trkpt lat="47.28909" lon="6.77013">
        <ele>431.2</ele>
        <time>2021-07-29T14:14:33Z</time>
      </trkpt>
      <trkpt lat="47.2891" lon="6.77019">
        <ele>431</ele>
        <time>2021-07-29T14:14:34Z</time>
      </trkpt>
      <trkpt lat="47.28912" lon="6.77026">
        <ele>431</ele>
        <time>2021-07-29T14:14:35Z</time>
      </trkpt>
      <trkpt lat="47.28914" lon="6.77033">
        <ele>431</ele>
        <time>2021-07-29T14:14:36Z</time>
      </trkpt>
      <trkpt lat="47.28915" lon="6.77039">
        <ele>430.8</ele>
        <time>2021-07-29T14:14:37Z</time>
      </trkpt>
      <trkpt lat="47.28917" lon="6.77046">
        <ele>430.8</ele>
        <time>2021-07-29T14:14:38Z</time>
      </trkpt>
      <trkpt lat="47.28918" lon="6.77053">
        <ele>430.8</ele>
        <time>2021-07-29T14:14:39Z</time>
      </trkpt>
      <trkpt lat="47.2892" lon="6.77061">
        <ele>430.8</ele>
        <time>2021-07-29T14:14:40Z</time>
      </trkpt>
      <trkpt lat="47.28922" lon="6.77068">
        <ele>430.8</ele>
        <time>2021-07-29T14:14:41Z</time>
      </trkpt>
      <trkpt lat="47.28923" lon="6.77075">
        <ele>430.6</ele>
        <time>2021-07-29T14:14:42Z</time>
      </trkpt>
      <trkpt lat="47.28925" lon="6.77082">
        <ele>430.8</ele>
        <time>2021-07-29T14:14:43Z</time>
      </trkpt>
      <trkpt lat="47.28926" lon="6.77089">
        <ele>430.8</ele>
        <time>2021-07-29T14:14:44Z</time>
      </trkpt>
      <trkpt lat="47.28927" lon="6.77096">
        <ele>430.8</ele>
        <time>2021-07-29T14:14:45Z</time>
      </trkpt>
      <trkpt lat="47.28928" lon="6.77103">
        <ele>430.8</ele>
        <time>2021-07-29T14:14:46Z</time>
      </trkpt>
      <trkpt lat="47.28929" lon="6.77111">
        <ele>430.8</ele>
        <time>2021-07-29T14:14:47Z</time>
      </trkpt>
      <trkpt lat="47.2893" lon="6.77118">
        <ele>430.8</ele>
        <time>2021-07-29T14:14:48Z</time>
      </trkpt>
      <trkpt lat="47.28931" lon="6.77124">
        <ele>430.8</ele>
        <time>2021-07-29T14:14:49Z</time>
      </trkpt>
      <trkpt lat="47.28932" lon="6.77131">
        <ele>430.8</ele>
        <time>2021-07-29T14:14:50Z</time>
      </trkpt>
      <trkpt lat="47.28933" lon="6.77138">
        <ele>430.8</ele>
        <time>2021-07-29T14:14:51Z</time>
      </trkpt>
      <trkpt lat="47.28935" lon="6.77145">
        <ele>430.8</ele>
        <time>2021-07-29T14:14:52Z</time>
      </trkpt>
      <trkpt lat="47.28936" lon="6.77152">
        <ele>430.8</ele>
        <time>2021-07-29T14:14:53Z</time>
      </trkpt>
      <trkpt lat="47.28937" lon="6.77159">
        <ele>430.8</ele>
        <time>2021-07-29T14:14:54Z</time>
      </trkpt>
      <trkpt lat="47.28938" lon="6.77166">
        <ele>430.8</ele>
        <time>2021-07-29T14:14:55Z</time>
      </trkpt>
      <trkpt lat="47.28939" lon="6.77173">
        <ele>430.8</ele>
        <time>2021-07-29T14:14:56Z</time>
      </trkpt>
      <trkpt lat="47.2894" lon="6.77181">
        <ele>431</ele>
        <time>2021-07-29T14:14:57Z</time>
      </trkpt>
      <trkpt lat="47.28941" lon="6.77188">
        <ele>431</ele>
        <time>2021-07-29T14:14:58Z</time>
      </trkpt>
      <trkpt lat="47.28942" lon="6.77195">
        <ele>431</ele>
        <time>2021-07-29T14:14:59Z</time>
      </trkpt>
      <trkpt lat="47.28942" lon="6.77202">
        <ele>431</ele>
        <time>2021-07-29T14:15:00Z</time>
      </trkpt>
      <trkpt lat="47.28943" lon="6.77209">
        <ele>431</ele>
        <time>2021-07-29T14:15:01Z</time>
      </trkpt>
      <trkpt lat="47.28943" lon="6.77216">
        <ele>431</ele>
        <time>2021-07-29T14:15:02Z</time>
      </trkpt>
      <trkpt lat="47.28944" lon="6.77222">
        <ele>431</ele>
        <time>2021-07-29T14:15:03Z</time>
      </trkpt>
      <trkpt lat="47.28945" lon="6.77228">
        <ele>431</ele>
        <time>2021-07-29T14:15:04Z</time>
      </trkpt>
      <trkpt lat="47.28946" lon="6.77234">
        <ele>431.2</ele>
        <time>2021-07-29T14:15:05Z</time>
      </trkpt>
      <trkpt lat="47.28946" lon="6.77239">
        <ele>431.2</ele>
        <time>2021-07-29T14:15:06Z</time>
      </trkpt>
      <trkpt lat="47.28946" lon="6.77245">
        <ele>431.2</ele>
        <time>2021-07-29T14:15:07Z</time>
      </trkpt>
      <trkpt lat="47.28946" lon="6.77251">
        <ele>431.2</ele>
        <time>2021-07-29T14:15:08Z</time>
      </trkpt>
      <trkpt lat="47.28947" lon="6.77258">
        <ele>431.2</ele>
        <time>2021-07-29T14:15:09Z</time>
      </trkpt>
      <trkpt lat="47.28947" lon="6.77265">
        <ele>431.2</ele>
        <time>2021-07-29T14:15:10Z</time>
      </trkpt>
      <trkpt lat="47.28948" lon="6.77272">
        <ele>431</ele>
        <time>2021-07-29T14:15:11Z</time>
      </trkpt>
      <trkpt lat="47.28949" lon="6.7728">
        <ele>431</ele>
        <time>2021-07-29T14:15:12Z</time>
      </trkpt>
      <trkpt lat="47.2895" lon="6.77288">
        <ele>431.2</ele>
        <time>2021-07-29T14:15:13Z</time>
      </trkpt>
      <trkpt lat="47.28951" lon="6.77296">
        <ele>431.2</ele>
        <time>2021-07-29T14:15:14Z</time>
      </trkpt>
      <trkpt lat="47.28951" lon="6.77303">
        <ele>431.2</ele>
        <time>2021-07-29T14:15:15Z</time>
      </trkpt>
      <trkpt lat="47.28951" lon="6.77311">
        <ele>431.2</ele>
        <time>2021-07-29T14:15:16Z</time>
      </trkpt>
      <trkpt lat="47.28953" lon="6.77318">
        <ele>431</ele>
        <time>2021-07-29T14:15:17Z</time>
      </trkpt>
      <trkpt lat="47.28954" lon="6.77325">
        <ele>431</ele>
        <time>2021-07-29T14:15:18Z</time>
      </trkpt>
      <trkpt lat="47.28955" lon="6.77332">
        <ele>431</ele>
        <time>2021-07-29T14:15:19Z</time>
      </trkpt>
      <trkpt lat="47.28956" lon="6.77339">
        <ele>431</ele>
        <time>2021-07-29T14:15:20Z</time>
      </trkpt>
      <trkpt lat="47.28957" lon="6.77346">
        <ele>431</ele>
        <time>2021-07-29T14:15:21Z</time>
      </trkpt>
      <trkpt lat="47.28958" lon="6.77353">
        <ele>431.2</ele>
        <time>2021-07-29T14:15:22Z</time>
      </trkpt>
      <trkpt lat="47.28958" lon="6.77359">
        <ele>431.2</ele>
        <time>2021-07-29T14:15:23Z</time>
      </trkpt>
      <trkpt lat="47.28959" lon="6.77365">
        <ele>431.2</ele>
        <time>2021-07-29T14:15:24Z</time>
      </trkpt>
      <trkpt lat="47.28961" lon="6.77372">
        <ele>431.2</ele>
        <time>2021-07-29T14:15:25Z</time>
      </trkpt>
      <trkpt lat="47.28962" lon="6.77378">
        <ele>431.4</ele>
        <time>2021-07-29T14:15:26Z</time>
      </trkpt>
      <trkpt lat="47.28963" lon="6.77385">
        <ele>431.4</ele>
        <time>2021-07-29T14:15:27Z</time>
      </trkpt>
      <trkpt lat="47.28963" lon="6.77391">
        <ele>431.4</ele>
        <time>2021-07-29T14:15:28Z</time>
      </trkpt>
      <trkpt lat="47.28964" lon="6.77398">
        <ele>431.2</ele>
        <time>2021-07-29T14:15:29Z</time>
      </trkpt>
      <trkpt lat="47.28965" lon="6.77405">
        <ele>431.4</ele>
        <time>2021-07-29T14:15:30Z</time>
      </trkpt>
      <trkpt lat="47.28967" lon="6.77411">
        <ele>431.4</ele>
        <time>2021-07-29T14:15:31Z</time>
      </trkpt>
      <trkpt lat="47.28967" lon="6.77417">
        <ele>431.4</ele>
        <time>2021-07-29T14:15:32Z</time>
      </trkpt>
      <trkpt lat="47.2897" lon="6.77424">
        <ele>431.2</ele>
        <time>2021-07-29T14:15:33Z</time>
      </trkpt>
      <trkpt lat="47.28971" lon="6.7743">
        <ele>431.4</ele>
        <time>2021-07-29T14:15:34Z</time>
      </trkpt>
      <trkpt lat="47.28972" lon="6.77437">
        <ele>431.4</ele>
        <time>2021-07-29T14:15:35Z</time>
      </trkpt>
      <trkpt lat="47.28972" lon="6.77444">
        <ele>431.2</ele>
        <time>2021-07-29T14:15:36Z</time>
      </trkpt>
      <trkpt lat="47.28973" lon="6.77452">
        <ele>431.2</ele>
        <time>2021-07-29T14:15:37Z</time>
      </trkpt>
      <trkpt lat="47.28974" lon="6.77459">
        <ele>431.2</ele>
        <time>2021-07-29T14:15:38Z</time>
      </trkpt>
      <trkpt lat="47.28976" lon="6.77467">
        <ele>431</ele>
        <time>2021-07-29T14:15:39Z</time>
      </trkpt>
      <trkpt lat="47.28977" lon="6.77475">
        <ele>431</ele>
        <time>2021-07-29T14:15:40Z</time>
      </trkpt>
      <trkpt lat="47.28978" lon="6.77482">
        <ele>431</ele>
        <time>2021-07-29T14:15:41Z</time>
      </trkpt>
      <trkpt lat="47.28979" lon="6.77489">
        <ele>431</ele>
        <time>2021-07-29T14:15:42Z</time>
      </trkpt>
      <trkpt lat="47.28981" lon="6.77497">
        <ele>431</ele>
        <time>2021-07-29T14:15:43Z</time>
      </trkpt>
      <trkpt lat="47.28982" lon="6.77504">
        <ele>431</ele>
        <time>2021-07-29T14:15:44Z</time>
      </trkpt>
      <trkpt lat="47.28984" lon="6.77511">
        <ele>431</ele>
        <time>2021-07-29T14:15:45Z</time>
      </trkpt>
      <trkpt lat="47.28985" lon="6.77518">
        <ele>431</ele>
        <time>2021-07-29T14:15:46Z</time>
      </trkpt>
      <trkpt lat="47.28987" lon="6.77525">
        <ele>431</ele>
        <time>2021-07-29T14:15:47Z</time>
      </trkpt>
      <trkpt lat="47.28989" lon="6.77533">
        <ele>431</ele>
        <time>2021-07-29T14:15:48Z</time>
      </trkpt>
      <trkpt lat="47.28991" lon="6.7754">
        <ele>431</ele>
        <time>2021-07-29T14:15:49Z</time>
      </trkpt>
      <trkpt lat="47.28994" lon="6.77548">
        <ele>431</ele>
        <time>2021-07-29T14:15:50Z</time>
      </trkpt>
      <trkpt lat="47.28996" lon="6.77555">
        <ele>430.8</ele>
        <time>2021-07-29T14:15:51Z</time>
      </trkpt>
      <trkpt lat="47.28999" lon="6.77562">
        <ele>430.8</ele>
        <time>2021-07-29T14:15:52Z</time>
      </trkpt>
      <trkpt lat="47.29001" lon="6.77569">
        <ele>430.8</ele>
        <time>2021-07-29T14:15:53Z</time>
      </trkpt>
      <trkpt lat="47.29004" lon="6.77576">
        <ele>430.8</ele>
        <time>2021-07-29T14:15:54Z</time>
      </trkpt>
      <trkpt lat="47.29007" lon="6.77583">
        <ele>430.8</ele>
        <time>2021-07-29T14:15:55Z</time>
      </trkpt>
      <trkpt lat="47.29011" lon="6.77589">
        <ele>430.6</ele>
        <time>2021-07-29T14:15:56Z</time>
      </trkpt>
      <trkpt lat="47.29014" lon="6.77595">
        <ele>430.6</ele>
        <time>2021-07-29T14:15:57Z</time>
      </trkpt>
      <trkpt lat="47.29018" lon="6.77602">
        <ele>430.6</ele>
        <time>2021-07-29T14:15:58Z</time>
      </trkpt>
      <trkpt lat="47.29021" lon="6.77608">
        <ele>430.4</ele>
        <time>2021-07-29T14:15:59Z</time>
      </trkpt>
      <trkpt lat="47.29025" lon="6.77614">
        <ele>430.6</ele>
        <time>2021-07-29T14:16:00Z</time>
      </trkpt>
      <trkpt lat="47.29028" lon="6.77621">
        <ele>430.6</ele>
        <time>2021-07-29T14:16:01Z</time>
      </trkpt>
      <trkpt lat="47.29033" lon="6.77627">
        <ele>430.4</ele>
        <time>2021-07-29T14:16:02Z</time>
      </trkpt>
      <trkpt lat="47.29037" lon="6.77633">
        <ele>430.4</ele>
        <time>2021-07-29T14:16:03Z</time>
      </trkpt>
      <trkpt lat="47.29041" lon="6.77639">
        <ele>430.4</ele>
        <time>2021-07-29T14:16:04Z</time>
      </trkpt>
      <trkpt lat="47.29044" lon="6.77645">
        <ele>430.4</ele>
        <time>2021-07-29T14:16:05Z</time>
      </trkpt>
      <trkpt lat="47.29047" lon="6.77652">
        <ele>430.2</ele>
        <time>2021-07-29T14:16:06Z</time>
      </trkpt>
      <trkpt lat="47.29049" lon="6.77659">
        <ele>430.2</ele>
        <time>2021-07-29T14:16:07Z</time>
      </trkpt>
      <trkpt lat="47.29052" lon="6.77667">
        <ele>430.2</ele>
        <time>2021-07-29T14:16:08Z</time>
      </trkpt>
      <trkpt lat="47.29055" lon="6.77673">
        <ele>430</ele>
        <time>2021-07-29T14:16:09Z</time>
      </trkpt>
      <trkpt lat="47.29059" lon="6.7768">
        <ele>430</ele>
        <time>2021-07-29T14:16:10Z</time>
      </trkpt>
      <trkpt lat="47.29062" lon="6.77688">
        <ele>429.8</ele>
        <time>2021-07-29T14:16:11Z</time>
      </trkpt>
      <trkpt lat="47.29065" lon="6.77695">
        <ele>429.8</ele>
        <time>2021-07-29T14:16:12Z</time>
      </trkpt>
      <trkpt lat="47.29068" lon="6.77702">
        <ele>429.8</ele>
        <time>2021-07-29T14:16:13Z</time>
      </trkpt>
      <trkpt lat="47.2907" lon="6.77709">
        <ele>429.8</ele>
        <time>2021-07-29T14:16:14Z</time>
      </trkpt>
      <trkpt lat="47.29073" lon="6.77716">
        <ele>430</ele>
        <time>2021-07-29T14:16:15Z</time>
      </trkpt>
      <trkpt lat="47.29076" lon="6.77723">
        <ele>430</ele>
        <time>2021-07-29T14:16:16Z</time>
      </trkpt>
      <trkpt lat="47.29078" lon="6.77729">
        <ele>430.2</ele>
        <time>2021-07-29T14:16:17Z</time>
      </trkpt>
      <trkpt lat="47.2908" lon="6.77736">
        <ele>430.2</ele>
        <time>2021-07-29T14:16:18Z</time>
      </trkpt>
      <trkpt lat="47.29084" lon="6.77743">
        <ele>430.2</ele>
        <time>2021-07-29T14:16:19Z</time>
      </trkpt>
      <trkpt lat="47.29086" lon="6.7775">
        <ele>430.2</ele>
        <time>2021-07-29T14:16:20Z</time>
      </trkpt>
      <trkpt lat="47.29089" lon="6.77757">
        <ele>430</ele>
        <time>2021-07-29T14:16:21Z</time>
      </trkpt>
      <trkpt lat="47.29091" lon="6.77764">
        <ele>430</ele>
        <time>2021-07-29T14:16:22Z</time>
      </trkpt>
      <trkpt lat="47.29093" lon="6.7777">
        <ele>429.8</ele>
        <time>2021-07-29T14:16:23Z</time>
      </trkpt>
      <trkpt lat="47.29096" lon="6.77777">
        <ele>429.6</ele>
        <time>2021-07-29T14:16:24Z</time>
      </trkpt>
      <trkpt lat="47.29098" lon="6.77784">
        <ele>429.4</ele>
        <time>2021-07-29T14:16:25Z</time>
      </trkpt>
      <trkpt lat="47.29101" lon="6.77791">
        <ele>429.4</ele>
        <time>2021-07-29T14:16:26Z</time>
      </trkpt>
      <trkpt lat="47.29104" lon="6.77798">
        <ele>429.6</ele>
        <time>2021-07-29T14:16:27Z</time>
      </trkpt>
      <trkpt lat="47.29106" lon="6.77805">
        <ele>429.4</ele>
        <time>2021-07-29T14:16:28Z</time>
      </trkpt>
      <trkpt lat="47.29109" lon="6.77813">
        <ele>429.4</ele>
        <time>2021-07-29T14:16:29Z</time>
      </trkpt>
      <trkpt lat="47.29112" lon="6.7782">
        <ele>429.2</ele>
        <time>2021-07-29T14:16:30Z</time>
      </trkpt>
      <trkpt lat="47.29115" lon="6.77827">
        <ele>429.2</ele>
        <time>2021-07-29T14:16:31Z</time>
      </trkpt>
      <trkpt lat="47.29117" lon="6.77835">
        <ele>429.2</ele>
        <time>2021-07-29T14:16:32Z</time>
      </trkpt>
      <trkpt lat="47.2912" lon="6.77843">
        <ele>429.2</ele>
        <time>2021-07-29T14:16:33Z</time>
      </trkpt>
      <trkpt lat="47.29123" lon="6.77851">
        <ele>429.2</ele>
        <time>2021-07-29T14:16:34Z</time>
      </trkpt>
      <trkpt lat="47.29126" lon="6.77858">
        <ele>429.2</ele>
        <time>2021-07-29T14:16:35Z</time>
      </trkpt>
      <trkpt lat="47.2913" lon="6.77866">
        <ele>429.2</ele>
        <time>2021-07-29T14:16:36Z</time>
      </trkpt>
      <trkpt lat="47.29133" lon="6.77874">
        <ele>429.2</ele>
        <time>2021-07-29T14:16:37Z</time>
      </trkpt>
      <trkpt lat="47.29136" lon="6.77881">
        <ele>429.2</ele>
        <time>2021-07-29T14:16:38Z</time>
      </trkpt>
      <trkpt lat="47.29139" lon="6.77889">
        <ele>429.2</ele>
        <time>2021-07-29T14:16:39Z</time>
      </trkpt>
      <trkpt lat="47.29142" lon="6.77896">
        <ele>429.2</ele>
        <time>2021-07-29T14:16:40Z</time>
      </trkpt>
      <trkpt lat="47.29145" lon="6.77904">
        <ele>429</ele>
        <time>2021-07-29T14:16:41Z</time>
      </trkpt>
      <trkpt lat="47.29148" lon="6.77912">
        <ele>429</ele>
        <time>2021-07-29T14:16:42Z</time>
      </trkpt>
      <trkpt lat="47.29151" lon="6.7792">
        <ele>429</ele>
        <time>2021-07-29T14:16:43Z</time>
      </trkpt>
      <trkpt lat="47.29154" lon="6.77927">
        <ele>429.2</ele>
        <time>2021-07-29T14:16:44Z</time>
      </trkpt>
      <trkpt lat="47.29157" lon="6.77935">
        <ele>429.2</ele>
        <time>2021-07-29T14:16:45Z</time>
      </trkpt>
      <trkpt lat="47.2916" lon="6.77942">
        <ele>429.4</ele>
        <time>2021-07-29T14:16:46Z</time>
      </trkpt>
      <trkpt lat="47.29163" lon="6.77949">
        <ele>429.4</ele>
        <time>2021-07-29T14:16:47Z</time>
      </trkpt>
      <trkpt lat="47.29166" lon="6.77956">
        <ele>429.4</ele>
        <time>2021-07-29T14:16:48Z</time>
      </trkpt>
      <trkpt lat="47.29169" lon="6.77964">
        <ele>429.2</ele>
        <time>2021-07-29T14:16:49Z</time>
      </trkpt>
      <trkpt lat="47.29172" lon="6.7797">
        <ele>429</ele>
        <time>2021-07-29T14:16:50Z</time>
      </trkpt>
      <trkpt lat="47.29175" lon="6.77977">
        <ele>429.2</ele>
        <time>2021-07-29T14:16:51Z</time>
      </trkpt>
      <trkpt lat="47.29178" lon="6.77984">
        <ele>429.2</ele>
        <time>2021-07-29T14:16:52Z</time>
      </trkpt>
      <trkpt lat="47.29181" lon="6.77991">
        <ele>429.2</ele>
        <time>2021-07-29T14:16:53Z</time>
      </trkpt>
      <trkpt lat="47.29184" lon="6.77999">
        <ele>429</ele>
        <time>2021-07-29T14:16:54Z</time>
      </trkpt>
      <trkpt lat="47.29186" lon="6.78006">
        <ele>429</ele>
        <time>2021-07-29T14:16:55Z</time>
      </trkpt>
      <trkpt lat="47.29189" lon="6.78013">
        <ele>429</ele>
        <time>2021-07-29T14:16:56Z</time>
      </trkpt>
      <trkpt lat="47.29192" lon="6.7802">
        <ele>429</ele>
        <time>2021-07-29T14:16:57Z</time>
      </trkpt>
      <trkpt lat="47.29195" lon="6.78028">
        <ele>429</ele>
        <time>2021-07-29T14:16:58Z</time>
      </trkpt>
      <trkpt lat="47.29197" lon="6.78035">
        <ele>429.2</ele>
        <time>2021-07-29T14:16:59Z</time>
      </trkpt>
      <trkpt lat="47.29199" lon="6.78042">
        <ele>429.2</ele>
        <time>2021-07-29T14:17:00Z</time>
      </trkpt>
      <trkpt lat="47.29202" lon="6.7805">
        <ele>429.2</ele>
        <time>2021-07-29T14:17:01Z</time>
      </trkpt>
      <trkpt lat="47.29204" lon="6.78057">
        <ele>429.2</ele>
        <time>2021-07-29T14:17:02Z</time>
      </trkpt>
      <trkpt lat="47.29206" lon="6.78065">
        <ele>429.2</ele>
        <time>2021-07-29T14:17:03Z</time>
      </trkpt>
      <trkpt lat="47.29208" lon="6.78072">
        <ele>429.2</ele>
        <time>2021-07-29T14:17:04Z</time>
      </trkpt>
      <trkpt lat="47.2921" lon="6.7808">
        <ele>429.2</ele>
        <time>2021-07-29T14:17:05Z</time>
      </trkpt>
      <trkpt lat="47.29212" lon="6.78088">
        <ele>429.2</ele>
        <time>2021-07-29T14:17:06Z</time>
      </trkpt>
      <trkpt lat="47.29214" lon="6.78095">
        <ele>429.2</ele>
        <time>2021-07-29T14:17:07Z</time>
      </trkpt>
      <trkpt lat="47.29215" lon="6.78103">
        <ele>429.4</ele>
        <time>2021-07-29T14:17:08Z</time>
      </trkpt>
      <trkpt lat="47.29217" lon="6.7811">
        <ele>429.4</ele>
        <time>2021-07-29T14:17:09Z</time>
      </trkpt>
      <trkpt lat="47.29219" lon="6.78117">
        <ele>429.4</ele>
        <time>2021-07-29T14:17:10Z</time>
      </trkpt>
      <trkpt lat="47.29221" lon="6.78124">
        <ele>429.4</ele>
        <time>2021-07-29T14:17:11Z</time>
      </trkpt>
      <trkpt lat="47.29222" lon="6.78131">
        <ele>429.4</ele>
        <time>2021-07-29T14:17:12Z</time>
      </trkpt>
      <trkpt lat="47.29223" lon="6.78138">
        <ele>429.4</ele>
        <time>2021-07-29T14:17:13Z</time>
      </trkpt>
      <trkpt lat="47.29224" lon="6.78146">
        <ele>429.4</ele>
        <time>2021-07-29T14:17:14Z</time>
      </trkpt>
      <trkpt lat="47.29225" lon="6.78154">
        <ele>429.4</ele>
        <time>2021-07-29T14:17:15Z</time>
      </trkpt>
      <trkpt lat="47.29227" lon="6.78162">
        <ele>429.4</ele>
        <time>2021-07-29T14:17:16Z</time>
      </trkpt>
      <trkpt lat="47.29228" lon="6.78169">
        <ele>429.4</ele>
        <time>2021-07-29T14:17:17Z</time>
      </trkpt>
      <trkpt lat="47.29229" lon="6.78176">
        <ele>429.4</ele>
        <time>2021-07-29T14:17:18Z</time>
      </trkpt>
      <trkpt lat="47.2923" lon="6.78184">
        <ele>429.4</ele>
        <time>2021-07-29T14:17:19Z</time>
      </trkpt>
      <trkpt lat="47.29231" lon="6.78192">
        <ele>429.4</ele>
        <time>2021-07-29T14:17:20Z</time>
      </trkpt>
      <trkpt lat="47.29233" lon="6.782">
        <ele>429.4</ele>
        <time>2021-07-29T14:17:21Z</time>
      </trkpt>
      <trkpt lat="47.29234" lon="6.78207">
        <ele>429.6</ele>
        <time>2021-07-29T14:17:22Z</time>
      </trkpt>
      <trkpt lat="47.29235" lon="6.78215">
        <ele>429.6</ele>
        <time>2021-07-29T14:17:23Z</time>
      </trkpt>
      <trkpt lat="47.29236" lon="6.78222">
        <ele>429.6</ele>
        <time>2021-07-29T14:17:24Z</time>
      </trkpt>
      <trkpt lat="47.29237" lon="6.7823">
        <ele>429.6</ele>
        <time>2021-07-29T14:17:25Z</time>
      </trkpt>
      <trkpt lat="47.29239" lon="6.78237">
        <ele>429.8</ele>
        <time>2021-07-29T14:17:26Z</time>
      </trkpt>
      <trkpt lat="47.2924" lon="6.78244">
        <ele>429.8</ele>
        <time>2021-07-29T14:17:27Z</time>
      </trkpt>
      <trkpt lat="47.2924" lon="6.7825">
        <ele>429.6</ele>
        <time>2021-07-29T14:17:28Z</time>
      </trkpt>
      <trkpt lat="47.29241" lon="6.78256">
        <ele>429.8</ele>
        <time>2021-07-29T14:17:29Z</time>
      </trkpt>
      <trkpt lat="47.29242" lon="6.78262">
        <ele>429.8</ele>
        <time>2021-07-29T14:17:30Z</time>
      </trkpt>
      <trkpt lat="47.29243" lon="6.78268">
        <ele>429.8</ele>
        <time>2021-07-29T14:17:31Z</time>
      </trkpt>
      <trkpt lat="47.29244" lon="6.78274">
        <ele>429.8</ele>
        <time>2021-07-29T14:17:32Z</time>
      </trkpt>
      <trkpt lat="47.29245" lon="6.7828">
        <ele>429.8</ele>
        <time>2021-07-29T14:17:33Z</time>
      </trkpt>
      <trkpt lat="47.29245" lon="6.78286">
        <ele>430</ele>
        <time>2021-07-29T14:17:34Z</time>
      </trkpt>
      <trkpt lat="47.29246" lon="6.78293">
        <ele>430</ele>
        <time>2021-07-29T14:17:35Z</time>
      </trkpt>
      <trkpt lat="47.29247" lon="6.78299">
        <ele>430</ele>
        <time>2021-07-29T14:17:36Z</time>
      </trkpt>
      <trkpt lat="47.29247" lon="6.78306">
        <ele>430</ele>
        <time>2021-07-29T14:17:37Z</time>
      </trkpt>
      <trkpt lat="47.29248" lon="6.78312">
        <ele>430.2</ele>
        <time>2021-07-29T14:17:38Z</time>
      </trkpt>
      <trkpt lat="47.29249" lon="6.78318">
        <ele>430</ele>
        <time>2021-07-29T14:17:39Z</time>
      </trkpt>
      <trkpt lat="47.29249" lon="6.78324">
        <ele>430</ele>
        <time>2021-07-29T14:17:40Z</time>
      </trkpt>
      <trkpt lat="47.2925" lon="6.78331">
        <ele>430</ele>
        <time>2021-07-29T14:17:41Z</time>
      </trkpt>
      <trkpt lat="47.29251" lon="6.78337">
        <ele>430</ele>
        <time>2021-07-29T14:17:42Z</time>
      </trkpt>
      <trkpt lat="47.29252" lon="6.78343">
        <ele>430</ele>
        <time>2021-07-29T14:17:43Z</time>
      </trkpt>
      <trkpt lat="47.29252" lon="6.78348">
        <ele>430</ele>
        <time>2021-07-29T14:17:44Z</time>
      </trkpt>
      <trkpt lat="47.29254" lon="6.78354">
        <ele>430</ele>
        <time>2021-07-29T14:17:45Z</time>
      </trkpt>
      <trkpt lat="47.29255" lon="6.78359">
        <ele>430</ele>
        <time>2021-07-29T14:17:46Z</time>
      </trkpt>
      <trkpt lat="47.29256" lon="6.78365">
        <ele>430</ele>
        <time>2021-07-29T14:17:47Z</time>
      </trkpt>
      <trkpt lat="47.29257" lon="6.78369">
        <ele>430</ele>
        <time>2021-07-29T14:17:48Z</time>
      </trkpt>
      <trkpt lat="47.29257" lon="6.78374">
        <ele>430</ele>
        <time>2021-07-29T14:17:49Z</time>
      </trkpt>
      <trkpt lat="47.29258" lon="6.7838">
        <ele>430</ele>
        <time>2021-07-29T14:17:50Z</time>
      </trkpt>
      <trkpt lat="47.29259" lon="6.78384">
        <ele>430</ele>
        <time>2021-07-29T14:17:51Z</time>
      </trkpt>
      <trkpt lat="47.2926" lon="6.78388">
        <ele>430.2</ele>
        <time>2021-07-29T14:17:52Z</time>
      </trkpt>
      <trkpt lat="47.2926" lon="6.78393">
        <ele>430.2</ele>
        <time>2021-07-29T14:17:53Z</time>
      </trkpt>
      <trkpt lat="47.29261" lon="6.78398">
        <ele>430.2</ele>
        <time>2021-07-29T14:17:54Z</time>
      </trkpt>
      <trkpt lat="47.29262" lon="6.78402">
        <ele>430.2</ele>
        <time>2021-07-29T14:17:55Z</time>
      </trkpt>
      <trkpt lat="47.29262" lon="6.78407">
        <ele>430.2</ele>
        <time>2021-07-29T14:17:56Z</time>
      </trkpt>
      <trkpt lat="47.29263" lon="6.78411">
        <ele>430.2</ele>
        <time>2021-07-29T14:17:57Z</time>
      </trkpt>
      <trkpt lat="47.29264" lon="6.78415">
        <ele>430.2</ele>
        <time>2021-07-29T14:17:58Z</time>
      </trkpt>
      <trkpt lat="47.29264" lon="6.7842">
        <ele>430.2</ele>
        <time>2021-07-29T14:17:59Z</time>
      </trkpt>
      <trkpt lat="47.29265" lon="6.78424">
        <ele>430.2</ele>
        <time>2021-07-29T14:18:00Z</time>
      </trkpt>
      <trkpt lat="47.29265" lon="6.7843">
        <ele>430.2</ele>
        <time>2021-07-29T14:18:01Z</time>
      </trkpt>
      <trkpt lat="47.29266" lon="6.78435">
        <ele>430.2</ele>
        <time>2021-07-29T14:18:02Z</time>
      </trkpt>
      <trkpt lat="47.29267" lon="6.7844">
        <ele>430.2</ele>
        <time>2021-07-29T14:18:03Z</time>
      </trkpt>
      <trkpt lat="47.29268" lon="6.78445">
        <ele>430.4</ele>
        <time>2021-07-29T14:18:04Z</time>
      </trkpt>
      <trkpt lat="47.29269" lon="6.78449">
        <ele>430.2</ele>
        <time>2021-07-29T14:18:05Z</time>
      </trkpt>
      <trkpt lat="47.29269" lon="6.78454">
        <ele>430.2</ele>
        <time>2021-07-29T14:18:06Z</time>
      </trkpt>
      <trkpt lat="47.29269" lon="6.78458">
        <ele>430.2</ele>
        <time>2021-07-29T14:18:07Z</time>
      </trkpt>
      <trkpt lat="47.29271" lon="6.78463">
        <ele>430.2</ele>
        <time>2021-07-29T14:18:08Z</time>
      </trkpt>
      <trkpt lat="47.29271" lon="6.78467">
        <ele>430.2</ele>
        <time>2021-07-29T14:18:09Z</time>
      </trkpt>
      <trkpt lat="47.29272" lon="6.78472">
        <ele>430.2</ele>
        <time>2021-07-29T14:18:10Z</time>
      </trkpt>
      <trkpt lat="47.29273" lon="6.78476">
        <ele>430.2</ele>
        <time>2021-07-29T14:18:11Z</time>
      </trkpt>
      <trkpt lat="47.29274" lon="6.78482">
        <ele>430.2</ele>
        <time>2021-07-29T14:18:12Z</time>
      </trkpt>
      <trkpt lat="47.29275" lon="6.78488">
        <ele>430.2</ele>
        <time>2021-07-29T14:18:13Z</time>
      </trkpt>
      <trkpt lat="47.29277" lon="6.78494">
        <ele>430.2</ele>
        <time>2021-07-29T14:18:14Z</time>
      </trkpt>
      <trkpt lat="47.29278" lon="6.785">
        <ele>430.2</ele>
        <time>2021-07-29T14:18:15Z</time>
      </trkpt>
      <trkpt lat="47.29279" lon="6.78507">
        <ele>430.2</ele>
        <time>2021-07-29T14:18:16Z</time>
      </trkpt>
      <trkpt lat="47.29281" lon="6.78513">
        <ele>430.2</ele>
        <time>2021-07-29T14:18:17Z</time>
      </trkpt>
      <trkpt lat="47.29282" lon="6.7852">
        <ele>430.4</ele>
        <time>2021-07-29T14:18:18Z</time>
      </trkpt>
      <trkpt lat="47.29284" lon="6.78527">
        <ele>430.4</ele>
        <time>2021-07-29T14:18:19Z</time>
      </trkpt>
      <trkpt lat="47.29285" lon="6.78533">
        <ele>430.4</ele>
        <time>2021-07-29T14:18:20Z</time>
      </trkpt>
      <trkpt lat="47.29286" lon="6.7854">
        <ele>430.4</ele>
        <time>2021-07-29T14:18:21Z</time>
      </trkpt>
      <trkpt lat="47.29288" lon="6.78547">
        <ele>430.4</ele>
        <time>2021-07-29T14:18:22Z</time>
      </trkpt>
      <trkpt lat="47.2929" lon="6.78554">
        <ele>430.8</ele>
        <time>2021-07-29T14:18:23Z</time>
      </trkpt>
      <trkpt lat="47.29292" lon="6.78561">
        <ele>430.8</ele>
        <time>2021-07-29T14:18:24Z</time>
      </trkpt>
      <trkpt lat="47.29294" lon="6.78566">
        <ele>430.8</ele>
        <time>2021-07-29T14:18:25Z</time>
      </trkpt>
      <trkpt lat="47.29295" lon="6.78571">
        <ele>430.8</ele>
        <time>2021-07-29T14:18:26Z</time>
      </trkpt>
      <trkpt lat="47.29298" lon="6.78577">
        <ele>430.8</ele>
        <time>2021-07-29T14:18:27Z</time>
      </trkpt>
      <trkpt lat="47.293" lon="6.78583">
        <ele>430.8</ele>
        <time>2021-07-29T14:18:28Z</time>
      </trkpt>
      <trkpt lat="47.29303" lon="6.78589">
        <ele>430.8</ele>
        <time>2021-07-29T14:18:29Z</time>
      </trkpt>
      <trkpt lat="47.29307" lon="6.78594">
        <ele>430.8</ele>
        <time>2021-07-29T14:18:30Z</time>
      </trkpt>
      <trkpt lat="47.29311" lon="6.78599">
        <ele>430.8</ele>
        <time>2021-07-29T14:18:31Z</time>
      </trkpt>
      <trkpt lat="47.29314" lon="6.78604">
        <ele>430.8</ele>
        <time>2021-07-29T14:18:32Z</time>
      </trkpt>
      <trkpt lat="47.29319" lon="6.78609">
        <ele>430.8</ele>
        <time>2021-07-29T14:18:33Z</time>
      </trkpt>
      <trkpt lat="47.29323" lon="6.78613">
        <ele>430.6</ele>
        <time>2021-07-29T14:18:34Z</time>
      </trkpt>
      <trkpt lat="47.29328" lon="6.78617">
        <ele>430.6</ele>
        <time>2021-07-29T14:18:35Z</time>
      </trkpt>
      <trkpt lat="47.29333" lon="6.7862">
        <ele>430.6</ele>
        <time>2021-07-29T14:18:36Z</time>
      </trkpt>
      <trkpt lat="47.29337" lon="6.78624">
        <ele>430.6</ele>
        <time>2021-07-29T14:18:37Z</time>
      </trkpt>
      <trkpt lat="47.29342" lon="6.78627">
        <ele>430.6</ele>
        <time>2021-07-29T14:18:38Z</time>
      </trkpt>
      <trkpt lat="47.29348" lon="6.7863">
        <ele>430.6</ele>
        <time>2021-07-29T14:18:39Z</time>
      </trkpt>
      <trkpt lat="47.29353" lon="6.78632">
        <ele>430.6</ele>
        <time>2021-07-29T14:18:40Z</time>
      </trkpt>
      <trkpt lat="47.29358" lon="6.78634">
        <ele>430.6</ele>
        <time>2021-07-29T14:18:41Z</time>
      </trkpt>
      <trkpt lat="47.29363" lon="6.78635">
        <ele>430.4</ele>
        <time>2021-07-29T14:18:42Z</time>
      </trkpt>
      <trkpt lat="47.29369" lon="6.78637">
        <ele>430.6</ele>
        <time>2021-07-29T14:18:43Z</time>
      </trkpt>
      <trkpt lat="47.29374" lon="6.78637">
        <ele>430.4</ele>
        <time>2021-07-29T14:18:44Z</time>
      </trkpt>
      <trkpt lat="47.2938" lon="6.78638">
        <ele>430.4</ele>
        <time>2021-07-29T14:18:45Z</time>
      </trkpt>
      <trkpt lat="47.29385" lon="6.78639">
        <ele>430.4</ele>
        <time>2021-07-29T14:18:46Z</time>
      </trkpt>
      <trkpt lat="47.29391" lon="6.7864">
        <ele>430.2</ele>
        <time>2021-07-29T14:18:47Z</time>
      </trkpt>
      <trkpt lat="47.29397" lon="6.78641">
        <ele>430.2</ele>
        <time>2021-07-29T14:18:48Z</time>
      </trkpt>
      <trkpt lat="47.29402" lon="6.78641">
        <ele>430.2</ele>
        <time>2021-07-29T14:18:49Z</time>
      </trkpt>
      <trkpt lat="47.29408" lon="6.78642">
        <ele>430.2</ele>
        <time>2021-07-29T14:18:50Z</time>
      </trkpt>
      <trkpt lat="47.29413" lon="6.78642">
        <ele>429.8</ele>
        <time>2021-07-29T14:18:51Z</time>
      </trkpt>
      <trkpt lat="47.29418" lon="6.78643">
        <ele>429.8</ele>
        <time>2021-07-29T14:18:52Z</time>
      </trkpt>
      <trkpt lat="47.29423" lon="6.78644">
        <ele>429.6</ele>
        <time>2021-07-29T14:18:53Z</time>
      </trkpt>
      <trkpt lat="47.29427" lon="6.78645">
        <ele>429.6</ele>
        <time>2021-07-29T14:18:54Z</time>
      </trkpt>
      <trkpt lat="47.29432" lon="6.78645">
        <ele>429.6</ele>
        <time>2021-07-29T14:18:55Z</time>
      </trkpt>
      <trkpt lat="47.29437" lon="6.78646">
        <ele>429.6</ele>
        <time>2021-07-29T14:18:56Z</time>
      </trkpt>
      <trkpt lat="47.29442" lon="6.78648">
        <ele>429.6</ele>
        <time>2021-07-29T14:18:57Z</time>
      </trkpt>
      <trkpt lat="47.29447" lon="6.78649">
        <ele>429.6</ele>
        <time>2021-07-29T14:18:58Z</time>
      </trkpt>
      <trkpt lat="47.29452" lon="6.7865">
        <ele>429.4</ele>
        <time>2021-07-29T14:18:59Z</time>
      </trkpt>
      <trkpt lat="47.29457" lon="6.78652">
        <ele>429.4</ele>
        <time>2021-07-29T14:19:00Z</time>
      </trkpt>
      <trkpt lat="47.29462" lon="6.78653">
        <ele>429.2</ele>
        <time>2021-07-29T14:19:01Z</time>
      </trkpt>
      <trkpt lat="47.29467" lon="6.78655">
        <ele>429</ele>
        <time>2021-07-29T14:19:02Z</time>
      </trkpt>
      <trkpt lat="47.29471" lon="6.78655">
        <ele>429</ele>
        <time>2021-07-29T14:19:03Z</time>
      </trkpt>
      <trkpt lat="47.29474" lon="6.78657">
        <ele>429</ele>
        <time>2021-07-29T14:19:04Z</time>
      </trkpt>
      <trkpt lat="47.29479" lon="6.78658">
        <ele>429</ele>
        <time>2021-07-29T14:19:05Z</time>
      </trkpt>
      <trkpt lat="47.29483" lon="6.7866">
        <ele>429</ele>
        <time>2021-07-29T14:19:06Z</time>
      </trkpt>
      <trkpt lat="47.29487" lon="6.78661">
        <ele>429</ele>
        <time>2021-07-29T14:19:07Z</time>
      </trkpt>
      <trkpt lat="47.29491" lon="6.78662">
        <ele>429</ele>
        <time>2021-07-29T14:19:08Z</time>
      </trkpt>
      <trkpt lat="47.29496" lon="6.78664">
        <ele>429</ele>
        <time>2021-07-29T14:19:09Z</time>
      </trkpt>
      <trkpt lat="47.295" lon="6.78666">
        <ele>428.8</ele>
        <time>2021-07-29T14:19:10Z</time>
      </trkpt>
      <trkpt lat="47.29505" lon="6.78668">
        <ele>428.8</ele>
        <time>2021-07-29T14:19:11Z</time>
      </trkpt>
      <trkpt lat="47.2951" lon="6.7867">
        <ele>428.8</ele>
        <time>2021-07-29T14:19:12Z</time>
      </trkpt>
      <trkpt lat="47.29514" lon="6.78672">
        <ele>428.6</ele>
        <time>2021-07-29T14:19:13Z</time>
      </trkpt>
      <trkpt lat="47.29519" lon="6.78674">
        <ele>428.6</ele>
        <time>2021-07-29T14:19:14Z</time>
      </trkpt>
      <trkpt lat="47.29524" lon="6.78676">
        <ele>428.4</ele>
        <time>2021-07-29T14:19:15Z</time>
      </trkpt>
      <trkpt lat="47.29529" lon="6.78679">
        <ele>428.4</ele>
        <time>2021-07-29T14:19:16Z</time>
      </trkpt>
      <trkpt lat="47.29534" lon="6.78683">
        <ele>428.2</ele>
        <time>2021-07-29T14:19:17Z</time>
      </trkpt>
      <trkpt lat="47.29539" lon="6.78687">
        <ele>428.2</ele>
        <time>2021-07-29T14:19:18Z</time>
      </trkpt>
      <trkpt lat="47.29544" lon="6.7869">
        <ele>428.2</ele>
        <time>2021-07-29T14:19:19Z</time>
      </trkpt>
      <trkpt lat="47.29549" lon="6.78695">
        <ele>428</ele>
        <time>2021-07-29T14:19:20Z</time>
      </trkpt>
      <trkpt lat="47.29554" lon="6.78699">
        <ele>428</ele>
        <time>2021-07-29T14:19:21Z</time>
      </trkpt>
      <trkpt lat="47.29559" lon="6.78704">
        <ele>428</ele>
        <time>2021-07-29T14:19:22Z</time>
      </trkpt>
      <trkpt lat="47.29564" lon="6.78709">
        <ele>428</ele>
        <time>2021-07-29T14:19:23Z</time>
      </trkpt>
      <trkpt lat="47.29569" lon="6.78715">
        <ele>428</ele>
        <time>2021-07-29T14:19:24Z</time>
      </trkpt>
      <trkpt lat="47.29573" lon="6.7872">
        <ele>428</ele>
        <time>2021-07-29T14:19:25Z</time>
      </trkpt>
      <trkpt lat="47.29578" lon="6.78726">
        <ele>428</ele>
        <time>2021-07-29T14:19:26Z</time>
      </trkpt>
      <trkpt lat="47.29582" lon="6.78731">
        <ele>427.8</ele>
        <time>2021-07-29T14:19:27Z</time>
      </trkpt>
      <trkpt lat="47.29587" lon="6.78736">
        <ele>427.8</ele>
        <time>2021-07-29T14:19:28Z</time>
      </trkpt>
      <trkpt lat="47.29591" lon="6.7874">
        <ele>427.8</ele>
        <time>2021-07-29T14:19:29Z</time>
      </trkpt>
      <trkpt lat="47.29596" lon="6.78746">
        <ele>427.6</ele>
        <time>2021-07-29T14:19:30Z</time>
      </trkpt>
      <trkpt lat="47.29601" lon="6.78752">
        <ele>427.6</ele>
        <time>2021-07-29T14:19:31Z</time>
      </trkpt>
      <trkpt lat="47.29605" lon="6.78758">
        <ele>427.8</ele>
        <time>2021-07-29T14:19:32Z</time>
      </trkpt>
      <trkpt lat="47.29609" lon="6.78764">
        <ele>427.6</ele>
        <time>2021-07-29T14:19:33Z</time>
      </trkpt>
      <trkpt lat="47.29613" lon="6.78771">
        <ele>427.6</ele>
        <time>2021-07-29T14:19:34Z</time>
      </trkpt>
      <trkpt lat="47.29617" lon="6.78777">
        <ele>427.6</ele>
        <time>2021-07-29T14:19:35Z</time>
      </trkpt>
      <trkpt lat="47.29621" lon="6.78784">
        <ele>427.6</ele>
        <time>2021-07-29T14:19:36Z</time>
      </trkpt>
      <trkpt lat="47.29624" lon="6.78791">
        <ele>427.4</ele>
        <time>2021-07-29T14:19:37Z</time>
      </trkpt>
      <trkpt lat="47.29627" lon="6.78797">
        <ele>427.4</ele>
        <time>2021-07-29T14:19:38Z</time>
      </trkpt>
      <trkpt lat="47.2963" lon="6.78803">
        <ele>427.4</ele>
        <time>2021-07-29T14:19:39Z</time>
      </trkpt>
      <trkpt lat="47.29632" lon="6.78809">
        <ele>427.4</ele>
        <time>2021-07-29T14:19:40Z</time>
      </trkpt>
      <trkpt lat="47.29635" lon="6.78815">
        <ele>427.4</ele>
        <time>2021-07-29T14:19:41Z</time>
      </trkpt>
      <trkpt lat="47.29637" lon="6.78821">
        <ele>427.4</ele>
        <time>2021-07-29T14:19:42Z</time>
      </trkpt>
      <trkpt lat="47.29639" lon="6.78827">
        <ele>427.4</ele>
        <time>2021-07-29T14:19:43Z</time>
      </trkpt>
      <trkpt lat="47.29642" lon="6.78832">
        <ele>427.4</ele>
        <time>2021-07-29T14:19:44Z</time>
      </trkpt>
      <trkpt lat="47.29644" lon="6.78838">
        <ele>427.4</ele>
        <time>2021-07-29T14:19:45Z</time>
      </trkpt>
      <trkpt lat="47.29646" lon="6.78843">
        <ele>427.4</ele>
        <time>2021-07-29T14:19:46Z</time>
      </trkpt>
      <trkpt lat="47.29648" lon="6.78849">
        <ele>427.4</ele>
        <time>2021-07-29T14:19:47Z</time>
      </trkpt>
      <trkpt lat="47.2965" lon="6.78855">
        <ele>427.4</ele>
        <time>2021-07-29T14:19:48Z</time>
      </trkpt>
      <trkpt lat="47.29652" lon="6.78861">
        <ele>427.4</ele>
        <time>2021-07-29T14:19:49Z</time>
      </trkpt>
      <trkpt lat="47.29653" lon="6.78868">
        <ele>427.4</ele>
        <time>2021-07-29T14:19:50Z</time>
      </trkpt>
      <trkpt lat="47.29655" lon="6.78875">
        <ele>427.6</ele>
        <time>2021-07-29T14:19:51Z</time>
      </trkpt>
      <trkpt lat="47.29656" lon="6.78882">
        <ele>427.6</ele>
        <time>2021-07-29T14:19:52Z</time>
      </trkpt>
      <trkpt lat="47.29658" lon="6.78889">
        <ele>427.4</ele>
        <time>2021-07-29T14:19:53Z</time>
      </trkpt>
      <trkpt lat="47.2966" lon="6.78896">
        <ele>427.4</ele>
        <time>2021-07-29T14:19:54Z</time>
      </trkpt>
      <trkpt lat="47.29661" lon="6.78903">
        <ele>427.4</ele>
        <time>2021-07-29T14:19:55Z</time>
      </trkpt>
      <trkpt lat="47.29663" lon="6.7891">
        <ele>427.4</ele>
        <time>2021-07-29T14:19:56Z</time>
      </trkpt>
      <trkpt lat="47.29665" lon="6.78917">
        <ele>427.4</ele>
        <time>2021-07-29T14:19:57Z</time>
      </trkpt>
      <trkpt lat="47.29667" lon="6.78924">
        <ele>427.4</ele>
        <time>2021-07-29T14:19:58Z</time>
      </trkpt>
      <trkpt lat="47.29669" lon="6.78931">
        <ele>427.4</ele>
        <time>2021-07-29T14:19:59Z</time>
      </trkpt>
      <trkpt lat="47.29671" lon="6.78937">
        <ele>427.4</ele>
        <time>2021-07-29T14:20:00Z</time>
      </trkpt>
      <trkpt lat="47.29673" lon="6.78944">
        <ele>427.4</ele>
        <time>2021-07-29T14:20:01Z</time>
      </trkpt>
      <trkpt lat="47.29675" lon="6.78951">
        <ele>427.4</ele>
        <time>2021-07-29T14:20:02Z</time>
      </trkpt>
      <trkpt lat="47.29678" lon="6.78957">
        <ele>427.4</ele>
        <time>2021-07-29T14:20:03Z</time>
      </trkpt>
      <trkpt lat="47.2968" lon="6.78964">
        <ele>427.4</ele>
        <time>2021-07-29T14:20:04Z</time>
      </trkpt>
      <trkpt lat="47.29682" lon="6.78971">
        <ele>427.4</ele>
        <time>2021-07-29T14:20:05Z</time>
      </trkpt>
      <trkpt lat="47.29685" lon="6.78977">
        <ele>427.4</ele>
        <time>2021-07-29T14:20:06Z</time>
      </trkpt>
      <trkpt lat="47.29687" lon="6.78983">
        <ele>427.4</ele>
        <time>2021-07-29T14:20:07Z</time>
      </trkpt>
      <trkpt lat="47.2969" lon="6.7899">
        <ele>427.4</ele>
        <time>2021-07-29T14:20:08Z</time>
      </trkpt>
      <trkpt lat="47.29692" lon="6.78996">
        <ele>427.4</ele>
        <time>2021-07-29T14:20:09Z</time>
      </trkpt>
      <trkpt lat="47.29694" lon="6.79001">
        <ele>427.4</ele>
        <time>2021-07-29T14:20:10Z</time>
      </trkpt>
      <trkpt lat="47.29696" lon="6.79007">
        <ele>427.2</ele>
        <time>2021-07-29T14:20:11Z</time>
      </trkpt>
      <trkpt lat="47.29698" lon="6.79013">
        <ele>427.4</ele>
        <time>2021-07-29T14:20:12Z</time>
      </trkpt>
      <trkpt lat="47.29701" lon="6.79018">
        <ele>427.4</ele>
        <time>2021-07-29T14:20:13Z</time>
      </trkpt>
      <trkpt lat="47.29704" lon="6.79024">
        <ele>427.2</ele>
        <time>2021-07-29T14:20:14Z</time>
      </trkpt>
      <trkpt lat="47.29707" lon="6.7903">
        <ele>427.2</ele>
        <time>2021-07-29T14:20:15Z</time>
      </trkpt>
      <trkpt lat="47.2971" lon="6.79035">
        <ele>427.2</ele>
        <time>2021-07-29T14:20:16Z</time>
      </trkpt>
      <trkpt lat="47.29713" lon="6.79041">
        <ele>427</ele>
        <time>2021-07-29T14:20:17Z</time>
      </trkpt>
      <trkpt lat="47.29716" lon="6.79047">
        <ele>427</ele>
        <time>2021-07-29T14:20:18Z</time>
      </trkpt>
      <trkpt lat="47.2972" lon="6.79052">
        <ele>427.2</ele>
        <time>2021-07-29T14:20:19Z</time>
      </trkpt>
      <trkpt lat="47.29724" lon="6.79057">
        <ele>427</ele>
        <time>2021-07-29T14:20:20Z</time>
      </trkpt>
      <trkpt lat="47.29728" lon="6.79062">
        <ele>427</ele>
        <time>2021-07-29T14:20:21Z</time>
      </trkpt>
      <trkpt lat="47.29732" lon="6.79066">
        <ele>427</ele>
        <time>2021-07-29T14:20:22Z</time>
      </trkpt>
      <trkpt lat="47.29736" lon="6.79071">
        <ele>427</ele>
        <time>2021-07-29T14:20:23Z</time>
      </trkpt>
      <trkpt lat="47.2974" lon="6.79075">
        <ele>427</ele>
        <time>2021-07-29T14:20:24Z</time>
      </trkpt>
      <trkpt lat="47.29744" lon="6.79079">
        <ele>427</ele>
        <time>2021-07-29T14:20:25Z</time>
      </trkpt>
      <trkpt lat="47.29748" lon="6.79083">
        <ele>427.2</ele>
        <time>2021-07-29T14:20:26Z</time>
      </trkpt>
      <trkpt lat="47.29753" lon="6.79087">
        <ele>427</ele>
        <time>2021-07-29T14:20:27Z</time>
      </trkpt>
      <trkpt lat="47.29758" lon="6.7909">
        <ele>427</ele>
        <time>2021-07-29T14:20:28Z</time>
      </trkpt>
      <trkpt lat="47.29763" lon="6.79093">
        <ele>427</ele>
        <time>2021-07-29T14:20:29Z</time>
      </trkpt>
      <trkpt lat="47.29768" lon="6.79096">
        <ele>427</ele>
        <time>2021-07-29T14:20:30Z</time>
      </trkpt>
      <trkpt lat="47.29773" lon="6.79099">
        <ele>427</ele>
        <time>2021-07-29T14:20:31Z</time>
      </trkpt>
      <trkpt lat="47.29777" lon="6.79101">
        <ele>427</ele>
        <time>2021-07-29T14:20:32Z</time>
      </trkpt>
      <trkpt lat="47.29782" lon="6.79102">
        <ele>427.2</ele>
        <time>2021-07-29T14:20:33Z</time>
      </trkpt>
      <trkpt lat="47.29787" lon="6.79104">
        <ele>427.2</ele>
        <time>2021-07-29T14:20:34Z</time>
      </trkpt>
      <trkpt lat="47.29792" lon="6.79105">
        <ele>427</ele>
        <time>2021-07-29T14:20:35Z</time>
      </trkpt>
      <trkpt lat="47.29797" lon="6.79106">
        <ele>427</ele>
        <time>2021-07-29T14:20:36Z</time>
      </trkpt>
      <trkpt lat="47.29801" lon="6.79108">
        <ele>427</ele>
        <time>2021-07-29T14:20:37Z</time>
      </trkpt>
      <trkpt lat="47.29806" lon="6.79108">
        <ele>426.8</ele>
        <time>2021-07-29T14:20:38Z</time>
      </trkpt>
      <trkpt lat="47.29811" lon="6.79108">
        <ele>426.6</ele>
        <time>2021-07-29T14:20:39Z</time>
      </trkpt>
      <trkpt lat="47.29816" lon="6.79107">
        <ele>426.4</ele>
        <time>2021-07-29T14:20:40Z</time>
      </trkpt>
      <trkpt lat="47.29821" lon="6.79106">
        <ele>426.6</ele>
        <time>2021-07-29T14:20:41Z</time>
      </trkpt>
      <trkpt lat="47.29825" lon="6.79106">
        <ele>426.8</ele>
        <time>2021-07-29T14:20:42Z</time>
      </trkpt>
      <trkpt lat="47.2983" lon="6.79105">
        <ele>426.8</ele>
        <time>2021-07-29T14:20:43Z</time>
      </trkpt>
      <trkpt lat="47.29835" lon="6.79103">
        <ele>426.6</ele>
        <time>2021-07-29T14:20:44Z</time>
      </trkpt>
      <trkpt lat="47.2984" lon="6.79101">
        <ele>426.6</ele>
        <time>2021-07-29T14:20:45Z</time>
      </trkpt>
      <trkpt lat="47.29845" lon="6.79099">
        <ele>426.6</ele>
        <time>2021-07-29T14:20:46Z</time>
      </trkpt>
      <trkpt lat="47.2985" lon="6.79096">
        <ele>426.6</ele>
        <time>2021-07-29T14:20:47Z</time>
      </trkpt>
      <trkpt lat="47.29855" lon="6.79094">
        <ele>426.6</ele>
        <time>2021-07-29T14:20:48Z</time>
      </trkpt>
      <trkpt lat="47.2986" lon="6.79091">
        <ele>426.6</ele>
        <time>2021-07-29T14:20:49Z</time>
      </trkpt>
      <trkpt lat="47.29865" lon="6.79088">
        <ele>426.6</ele>
        <time>2021-07-29T14:20:50Z</time>
      </trkpt>
      <trkpt lat="47.29871" lon="6.79086">
        <ele>426.6</ele>
        <time>2021-07-29T14:20:51Z</time>
      </trkpt>
      <trkpt lat="47.29876" lon="6.79083">
        <ele>426.6</ele>
        <time>2021-07-29T14:20:52Z</time>
      </trkpt>
      <trkpt lat="47.29881" lon="6.7908">
        <ele>426.6</ele>
        <time>2021-07-29T14:20:53Z</time>
      </trkpt>
      <trkpt lat="47.29886" lon="6.79077">
        <ele>426.8</ele>
        <time>2021-07-29T14:20:54Z</time>
      </trkpt>
      <trkpt lat="47.29891" lon="6.79074">
        <ele>426.6</ele>
        <time>2021-07-29T14:20:55Z</time>
      </trkpt>
      <trkpt lat="47.29897" lon="6.79072">
        <ele>426.6</ele>
        <time>2021-07-29T14:20:56Z</time>
      </trkpt>
      <trkpt lat="47.29902" lon="6.79069">
        <ele>426.6</ele>
        <time>2021-07-29T14:20:57Z</time>
      </trkpt>
      <trkpt lat="47.29907" lon="6.79066">
        <ele>426.6</ele>
        <time>2021-07-29T14:20:58Z</time>
      </trkpt>
      <trkpt lat="47.29912" lon="6.79063">
        <ele>426.4</ele>
        <time>2021-07-29T14:20:59Z</time>
      </trkpt>
      <trkpt lat="47.29917" lon="6.7906">
        <ele>426.6</ele>
        <time>2021-07-29T14:21:00Z</time>
      </trkpt>
      <trkpt lat="47.29921" lon="6.79057">
        <ele>426.8</ele>
        <time>2021-07-29T14:21:01Z</time>
      </trkpt>
      <trkpt lat="47.29926" lon="6.79054">
        <ele>426.8</ele>
        <time>2021-07-29T14:21:02Z</time>
      </trkpt>
      <trkpt lat="47.29931" lon="6.79051">
        <ele>426.8</ele>
        <time>2021-07-29T14:21:03Z</time>
      </trkpt>
      <trkpt lat="47.29935" lon="6.79048">
        <ele>426.8</ele>
        <time>2021-07-29T14:21:04Z</time>
      </trkpt>
      <trkpt lat="47.2994" lon="6.79046">
        <ele>426.6</ele>
        <time>2021-07-29T14:21:05Z</time>
      </trkpt>
      <trkpt lat="47.29944" lon="6.79043">
        <ele>426.4</ele>
        <time>2021-07-29T14:21:06Z</time>
      </trkpt>
      <trkpt lat="47.29948" lon="6.7904">
        <ele>426.4</ele>
        <time>2021-07-29T14:21:07Z</time>
      </trkpt>
      <trkpt lat="47.29952" lon="6.79038">
        <ele>426.2</ele>
        <time>2021-07-29T14:21:08Z</time>
      </trkpt>
      <trkpt lat="47.29957" lon="6.79035">
        <ele>426</ele>
        <time>2021-07-29T14:21:09Z</time>
      </trkpt>
      <trkpt lat="47.29961" lon="6.79032">
        <ele>426</ele>
        <time>2021-07-29T14:21:10Z</time>
      </trkpt>
      <trkpt lat="47.29966" lon="6.7903">
        <ele>426</ele>
        <time>2021-07-29T14:21:11Z</time>
      </trkpt>
      <trkpt lat="47.2997" lon="6.79028">
        <ele>425.8</ele>
        <time>2021-07-29T14:21:12Z</time>
      </trkpt>
      <trkpt lat="47.29975" lon="6.79025">
        <ele>425.6</ele>
        <time>2021-07-29T14:21:13Z</time>
      </trkpt>
      <trkpt lat="47.29979" lon="6.79023">
        <ele>425.8</ele>
        <time>2021-07-29T14:21:14Z</time>
      </trkpt>
      <trkpt lat="47.29983" lon="6.7902">
        <ele>425.8</ele>
        <time>2021-07-29T14:21:15Z</time>
      </trkpt>
      <trkpt lat="47.29988" lon="6.79018">
        <ele>425.8</ele>
        <time>2021-07-29T14:21:16Z</time>
      </trkpt>
      <trkpt lat="47.29992" lon="6.79015">
        <ele>425.6</ele>
        <time>2021-07-29T14:21:17Z</time>
      </trkpt>
      <trkpt lat="47.29997" lon="6.79013">
        <ele>425.8</ele>
        <time>2021-07-29T14:21:18Z</time>
      </trkpt>
      <trkpt lat="47.30001" lon="6.79011">
        <ele>425.8</ele>
        <time>2021-07-29T14:21:19Z</time>
      </trkpt>
      <trkpt lat="47.30006" lon="6.7901">
        <ele>425.6</ele>
        <time>2021-07-29T14:21:20Z</time>
      </trkpt>
      <trkpt lat="47.30011" lon="6.79008">
        <ele>425.6</ele>
        <time>2021-07-29T14:21:21Z</time>
      </trkpt>
      <trkpt lat="47.30016" lon="6.79007">
        <ele>425.6</ele>
        <time>2021-07-29T14:21:22Z</time>
      </trkpt>
      <trkpt lat="47.30021" lon="6.79005">
        <ele>425.8</ele>
        <time>2021-07-29T14:21:23Z</time>
      </trkpt>
      <trkpt lat="47.30026" lon="6.79005">
        <ele>425.8</ele>
        <time>2021-07-29T14:21:24Z</time>
      </trkpt>
      <trkpt lat="47.3003" lon="6.79004">
        <ele>425.8</ele>
        <time>2021-07-29T14:21:25Z</time>
      </trkpt>
      <trkpt lat="47.30034" lon="6.79004">
        <ele>426</ele>
        <time>2021-07-29T14:21:26Z</time>
      </trkpt>
      <trkpt lat="47.30039" lon="6.79003">
        <ele>426</ele>
        <time>2021-07-29T14:21:27Z</time>
      </trkpt>
      <trkpt lat="47.30044" lon="6.79002">
        <ele>425.8</ele>
        <time>2021-07-29T14:21:28Z</time>
      </trkpt>
      <trkpt lat="47.30048" lon="6.79002">
        <ele>425.8</ele>
        <time>2021-07-29T14:21:29Z</time>
      </trkpt>
      <trkpt lat="47.30053" lon="6.79001">
        <ele>425.8</ele>
        <time>2021-07-29T14:21:30Z</time>
      </trkpt>
      <trkpt lat="47.30058" lon="6.79001">
        <ele>425.8</ele>
        <time>2021-07-29T14:21:31Z</time>
      </trkpt>
      <trkpt lat="47.30063" lon="6.79001">
        <ele>425.6</ele>
        <time>2021-07-29T14:21:32Z</time>
      </trkpt>
      <trkpt lat="47.30068" lon="6.79">
        <ele>425.6</ele>
        <time>2021-07-29T14:21:33Z</time>
      </trkpt>
      <trkpt lat="47.30072" lon="6.79">
        <ele>425.6</ele>
        <time>2021-07-29T14:21:34Z</time>
      </trkpt>
      <trkpt lat="47.30077" lon="6.79">
        <ele>425.4</ele>
        <time>2021-07-29T14:21:35Z</time>
      </trkpt>
      <trkpt lat="47.30082" lon="6.79">
        <ele>425.6</ele>
        <time>2021-07-29T14:21:36Z</time>
      </trkpt>
      <trkpt lat="47.30086" lon="6.78999">
        <ele>425.4</ele>
        <time>2021-07-29T14:21:37Z</time>
      </trkpt>
      <trkpt lat="47.30091" lon="6.78999">
        <ele>425.4</ele>
        <time>2021-07-29T14:21:38Z</time>
      </trkpt>
      <trkpt lat="47.30095" lon="6.78999">
        <ele>425.6</ele>
        <time>2021-07-29T14:21:39Z</time>
      </trkpt>
      <trkpt lat="47.30099" lon="6.78998">
        <ele>425.6</ele>
        <time>2021-07-29T14:21:40Z</time>
      </trkpt>
      <trkpt lat="47.30105" lon="6.78999">
        <ele>425.4</ele>
        <time>2021-07-29T14:21:41Z</time>
      </trkpt>
      <trkpt lat="47.3011" lon="6.79">
        <ele>425.4</ele>
        <time>2021-07-29T14:21:42Z</time>
      </trkpt>
      <trkpt lat="47.30115" lon="6.79002">
        <ele>425.4</ele>
        <time>2021-07-29T14:21:43Z</time>
      </trkpt>
      <trkpt lat="47.3012" lon="6.79004">
        <ele>425.4</ele>
        <time>2021-07-29T14:21:44Z</time>
      </trkpt>
      <trkpt lat="47.30125" lon="6.79005">
        <ele>425.4</ele>
        <time>2021-07-29T14:21:45Z</time>
      </trkpt>
      <trkpt lat="47.30129" lon="6.79008">
        <ele>425.4</ele>
        <time>2021-07-29T14:21:46Z</time>
      </trkpt>
      <trkpt lat="47.30134" lon="6.79012">
        <ele>425.4</ele>
        <time>2021-07-29T14:21:47Z</time>
      </trkpt>
      <trkpt lat="47.3014" lon="6.79016">
        <ele>425.4</ele>
        <time>2021-07-29T14:21:48Z</time>
      </trkpt>
      <trkpt lat="47.30144" lon="6.79019">
        <ele>425.4</ele>
        <time>2021-07-29T14:21:49Z</time>
      </trkpt>
      <trkpt lat="47.30148" lon="6.79022">
        <ele>425.4</ele>
        <time>2021-07-29T14:21:50Z</time>
      </trkpt>
      <trkpt lat="47.30153" lon="6.79025">
        <ele>425.4</ele>
        <time>2021-07-29T14:21:51Z</time>
      </trkpt>
      <trkpt lat="47.30157" lon="6.79029">
        <ele>425.4</ele>
        <time>2021-07-29T14:21:52Z</time>
      </trkpt>
      <trkpt lat="47.30162" lon="6.79033">
        <ele>425.2</ele>
        <time>2021-07-29T14:21:53Z</time>
      </trkpt>
      <trkpt lat="47.30167" lon="6.79036">
        <ele>425.2</ele>
        <time>2021-07-29T14:21:54Z</time>
      </trkpt>
      <trkpt lat="47.30171" lon="6.79041">
        <ele>425.2</ele>
        <time>2021-07-29T14:21:55Z</time>
      </trkpt>
      <trkpt lat="47.30176" lon="6.79044">
        <ele>425.2</ele>
        <time>2021-07-29T14:21:56Z</time>
      </trkpt>
      <trkpt lat="47.30181" lon="6.79048">
        <ele>425.2</ele>
        <time>2021-07-29T14:21:57Z</time>
      </trkpt>
      <trkpt lat="47.30186" lon="6.79053">
        <ele>425</ele>
        <time>2021-07-29T14:21:58Z</time>
      </trkpt>
      <trkpt lat="47.3019" lon="6.79057">
        <ele>425.2</ele>
        <time>2021-07-29T14:21:59Z</time>
      </trkpt>
      <trkpt lat="47.30195" lon="6.79061">
        <ele>425.2</ele>
        <time>2021-07-29T14:22:00Z</time>
      </trkpt>
      <trkpt lat="47.302" lon="6.79065">
        <ele>425.2</ele>
        <time>2021-07-29T14:22:01Z</time>
      </trkpt>
      <trkpt lat="47.30204" lon="6.79069">
        <ele>425</ele>
        <time>2021-07-29T14:22:02Z</time>
      </trkpt>
      <trkpt lat="47.30209" lon="6.79073">
        <ele>425</ele>
        <time>2021-07-29T14:22:03Z</time>
      </trkpt>
      <trkpt lat="47.30213" lon="6.79077">
        <ele>425</ele>
        <time>2021-07-29T14:22:04Z</time>
      </trkpt>
      <trkpt lat="47.30217" lon="6.79081">
        <ele>425</ele>
        <time>2021-07-29T14:22:05Z</time>
      </trkpt>
      <trkpt lat="47.30221" lon="6.79086">
        <ele>425</ele>
        <time>2021-07-29T14:22:06Z</time>
      </trkpt>
      <trkpt lat="47.30225" lon="6.7909">
        <ele>425.2</ele>
        <time>2021-07-29T14:22:07Z</time>
      </trkpt>
      <trkpt lat="47.30229" lon="6.79094">
        <ele>425.2</ele>
        <time>2021-07-29T14:22:08Z</time>
      </trkpt>
      <trkpt lat="47.30233" lon="6.79098">
        <ele>425.2</ele>
        <time>2021-07-29T14:22:09Z</time>
      </trkpt>
      <trkpt lat="47.30237" lon="6.79102">
        <ele>425.2</ele>
        <time>2021-07-29T14:22:10Z</time>
      </trkpt>
      <trkpt lat="47.30242" lon="6.79107">
        <ele>425.2</ele>
        <time>2021-07-29T14:22:11Z</time>
      </trkpt>
      <trkpt lat="47.30246" lon="6.79111">
        <ele>425.2</ele>
        <time>2021-07-29T14:22:12Z</time>
      </trkpt>
      <trkpt lat="47.3025" lon="6.79115">
        <ele>425.2</ele>
        <time>2021-07-29T14:22:13Z</time>
      </trkpt>
      <trkpt lat="47.30254" lon="6.7912">
        <ele>425.2</ele>
        <time>2021-07-29T14:22:14Z</time>
      </trkpt>
      <trkpt lat="47.30258" lon="6.79124">
        <ele>425.2</ele>
        <time>2021-07-29T14:22:15Z</time>
      </trkpt>
      <trkpt lat="47.30263" lon="6.79128">
        <ele>425.2</ele>
        <time>2021-07-29T14:22:16Z</time>
      </trkpt>
      <trkpt lat="47.30267" lon="6.79132">
        <ele>425</ele>
        <time>2021-07-29T14:22:17Z</time>
      </trkpt>
      <trkpt lat="47.30271" lon="6.79136">
        <ele>425</ele>
        <time>2021-07-29T14:22:18Z</time>
      </trkpt>
      <trkpt lat="47.30276" lon="6.79141">
        <ele>425</ele>
        <time>2021-07-29T14:22:19Z</time>
      </trkpt>
      <trkpt lat="47.30281" lon="6.79145">
        <ele>425</ele>
        <time>2021-07-29T14:22:20Z</time>
      </trkpt>
      <trkpt lat="47.30285" lon="6.7915">
        <ele>424.8</ele>
        <time>2021-07-29T14:22:21Z</time>
      </trkpt>
      <trkpt lat="47.30289" lon="6.79154">
        <ele>424.8</ele>
        <time>2021-07-29T14:22:22Z</time>
      </trkpt>
      <trkpt lat="47.30294" lon="6.79159">
        <ele>424.8</ele>
        <time>2021-07-29T14:22:23Z</time>
      </trkpt>
      <trkpt lat="47.30298" lon="6.79164">
        <ele>424.8</ele>
        <time>2021-07-29T14:22:24Z</time>
      </trkpt>
      <trkpt lat="47.30302" lon="6.79169">
        <ele>424.8</ele>
        <time>2021-07-29T14:22:25Z</time>
      </trkpt>
      <trkpt lat="47.30306" lon="6.79173">
        <ele>424.6</ele>
        <time>2021-07-29T14:22:26Z</time>
      </trkpt>
      <trkpt lat="47.30311" lon="6.79178">
        <ele>424.6</ele>
        <time>2021-07-29T14:22:27Z</time>
      </trkpt>
      <trkpt lat="47.30315" lon="6.79183">
        <ele>424.8</ele>
        <time>2021-07-29T14:22:28Z</time>
      </trkpt>
      <trkpt lat="47.30319" lon="6.79188">
        <ele>424.8</ele>
        <time>2021-07-29T14:22:29Z</time>
      </trkpt>
      <trkpt lat="47.30323" lon="6.79192">
        <ele>424.8</ele>
        <time>2021-07-29T14:22:30Z</time>
      </trkpt>
      <trkpt lat="47.30327" lon="6.79197">
        <ele>424.8</ele>
        <time>2021-07-29T14:22:31Z</time>
      </trkpt>
      <trkpt lat="47.3033" lon="6.79201">
        <ele>425</ele>
        <time>2021-07-29T14:22:32Z</time>
      </trkpt>
      <trkpt lat="47.30334" lon="6.79205">
        <ele>425</ele>
        <time>2021-07-29T14:22:33Z</time>
      </trkpt>
      <trkpt lat="47.30338" lon="6.7921">
        <ele>425</ele>
        <time>2021-07-29T14:22:34Z</time>
      </trkpt>
      <trkpt lat="47.30341" lon="6.79214">
        <ele>424.8</ele>
        <time>2021-07-29T14:22:35Z</time>
      </trkpt>
      <trkpt lat="47.30345" lon="6.79219">
        <ele>424.6</ele>
        <time>2021-07-29T14:22:36Z</time>
      </trkpt>
      <trkpt lat="47.30349" lon="6.79224">
        <ele>424.6</ele>
        <time>2021-07-29T14:22:37Z</time>
      </trkpt>
      <trkpt lat="47.30353" lon="6.79228">
        <ele>424.8</ele>
        <time>2021-07-29T14:22:38Z</time>
      </trkpt>
      <trkpt lat="47.30357" lon="6.79233">
        <ele>424.8</ele>
        <time>2021-07-29T14:22:39Z</time>
      </trkpt>
      <trkpt lat="47.3036" lon="6.79237">
        <ele>424.8</ele>
        <time>2021-07-29T14:22:40Z</time>
      </trkpt>
      <trkpt lat="47.30364" lon="6.79241">
        <ele>424.6</ele>
        <time>2021-07-29T14:22:41Z</time>
      </trkpt>
      <trkpt lat="47.30368" lon="6.79246">
        <ele>424.6</ele>
        <time>2021-07-29T14:22:42Z</time>
      </trkpt>
      <trkpt lat="47.30372" lon="6.7925">
        <ele>424.2</ele>
        <time>2021-07-29T14:22:43Z</time>
      </trkpt>
      <trkpt lat="47.30376" lon="6.79254">
        <ele>424.2</ele>
        <time>2021-07-29T14:22:44Z</time>
      </trkpt>
      <trkpt lat="47.30379" lon="6.79258">
        <ele>424.2</ele>
        <time>2021-07-29T14:22:45Z</time>
      </trkpt>
      <trkpt lat="47.30383" lon="6.79262">
        <ele>424.2</ele>
        <time>2021-07-29T14:22:46Z</time>
      </trkpt>
      <trkpt lat="47.30387" lon="6.79266">
        <ele>424.2</ele>
        <time>2021-07-29T14:22:47Z</time>
      </trkpt>
      <trkpt lat="47.30391" lon="6.7927">
        <ele>424</ele>
        <time>2021-07-29T14:22:48Z</time>
      </trkpt>
      <trkpt lat="47.30395" lon="6.79274">
        <ele>424</ele>
        <time>2021-07-29T14:22:49Z</time>
      </trkpt>
      <trkpt lat="47.30399" lon="6.79278">
        <ele>424.2</ele>
        <time>2021-07-29T14:22:50Z</time>
      </trkpt>
      <trkpt lat="47.30403" lon="6.79281">
        <ele>424.2</ele>
        <time>2021-07-29T14:22:51Z</time>
      </trkpt>
      <trkpt lat="47.30407" lon="6.79285">
        <ele>424.2</ele>
        <time>2021-07-29T14:22:52Z</time>
      </trkpt>
      <trkpt lat="47.30411" lon="6.79289">
        <ele>424.2</ele>
        <time>2021-07-29T14:22:53Z</time>
      </trkpt>
      <trkpt lat="47.30416" lon="6.79293">
        <ele>424.2</ele>
        <time>2021-07-29T14:22:54Z</time>
      </trkpt>
      <trkpt lat="47.3042" lon="6.79296">
        <ele>424.2</ele>
        <time>2021-07-29T14:22:55Z</time>
      </trkpt>
      <trkpt lat="47.30424" lon="6.793">
        <ele>424.2</ele>
        <time>2021-07-29T14:22:56Z</time>
      </trkpt>
      <trkpt lat="47.30428" lon="6.79304">
        <ele>424.2</ele>
        <time>2021-07-29T14:22:57Z</time>
      </trkpt>
      <trkpt lat="47.30432" lon="6.79308">
        <ele>424.2</ele>
        <time>2021-07-29T14:22:58Z</time>
      </trkpt>
      <trkpt lat="47.30436" lon="6.79312">
        <ele>424</ele>
        <time>2021-07-29T14:22:59Z</time>
      </trkpt>
      <trkpt lat="47.3044" lon="6.79316">
        <ele>424.2</ele>
        <time>2021-07-29T14:23:00Z</time>
      </trkpt>
      <trkpt lat="47.30444" lon="6.7932">
        <ele>424.2</ele>
        <time>2021-07-29T14:23:01Z</time>
      </trkpt>
      <trkpt lat="47.30449" lon="6.79323">
        <ele>424.2</ele>
        <time>2021-07-29T14:23:02Z</time>
      </trkpt>
      <trkpt lat="47.30453" lon="6.79327">
        <ele>424.2</ele>
        <time>2021-07-29T14:23:03Z</time>
      </trkpt>
      <trkpt lat="47.30457" lon="6.79331">
        <ele>424.2</ele>
        <time>2021-07-29T14:23:04Z</time>
      </trkpt>
      <trkpt lat="47.30462" lon="6.79334">
        <ele>424.2</ele>
        <time>2021-07-29T14:23:05Z</time>
      </trkpt>
      <trkpt lat="47.30466" lon="6.79338">
        <ele>424.2</ele>
        <time>2021-07-29T14:23:06Z</time>
      </trkpt>
      <trkpt lat="47.3047" lon="6.79341">
        <ele>424.2</ele>
        <time>2021-07-29T14:23:07Z</time>
      </trkpt>
      <trkpt lat="47.30475" lon="6.79345">
        <ele>424.2</ele>
        <time>2021-07-29T14:23:08Z</time>
      </trkpt>
      <trkpt lat="47.30479" lon="6.79348">
        <ele>424</ele>
        <time>2021-07-29T14:23:09Z</time>
      </trkpt>
      <trkpt lat="47.30483" lon="6.79352">
        <ele>424</ele>
        <time>2021-07-29T14:23:10Z</time>
      </trkpt>
      <trkpt lat="47.30488" lon="6.79355">
        <ele>424</ele>
        <time>2021-07-29T14:23:11Z</time>
      </trkpt>
      <trkpt lat="47.30493" lon="6.79359">
        <ele>424</ele>
        <time>2021-07-29T14:23:12Z</time>
      </trkpt>
      <trkpt lat="47.30497" lon="6.79362">
        <ele>424</ele>
        <time>2021-07-29T14:23:13Z</time>
      </trkpt>
      <trkpt lat="47.30501" lon="6.79365">
        <ele>424</ele>
        <time>2021-07-29T14:23:14Z</time>
      </trkpt>
      <trkpt lat="47.30506" lon="6.79368">
        <ele>424</ele>
        <time>2021-07-29T14:23:15Z</time>
      </trkpt>
      <trkpt lat="47.3051" lon="6.79371">
        <ele>424</ele>
        <time>2021-07-29T14:23:16Z</time>
      </trkpt>
      <trkpt lat="47.30515" lon="6.79374">
        <ele>424</ele>
        <time>2021-07-29T14:23:17Z</time>
      </trkpt>
      <trkpt lat="47.30519" lon="6.79377">
        <ele>424</ele>
        <time>2021-07-29T14:23:18Z</time>
      </trkpt>
      <trkpt lat="47.30524" lon="6.7938">
        <ele>424</ele>
        <time>2021-07-29T14:23:19Z</time>
      </trkpt>
      <trkpt lat="47.30529" lon="6.79382">
        <ele>424</ele>
        <time>2021-07-29T14:23:20Z</time>
      </trkpt>
      <trkpt lat="47.30533" lon="6.79384">
        <ele>423.8</ele>
        <time>2021-07-29T14:23:21Z</time>
      </trkpt>
      <trkpt lat="47.30538" lon="6.79386">
        <ele>423.8</ele>
        <time>2021-07-29T14:23:22Z</time>
      </trkpt>
      <trkpt lat="47.30543" lon="6.79388">
        <ele>423.8</ele>
        <time>2021-07-29T14:23:23Z</time>
      </trkpt>
      <trkpt lat="47.30548" lon="6.7939">
        <ele>423.8</ele>
        <time>2021-07-29T14:23:24Z</time>
      </trkpt>
      <trkpt lat="47.30552" lon="6.79392">
        <ele>423.8</ele>
        <time>2021-07-29T14:23:25Z</time>
      </trkpt>
      <trkpt lat="47.30557" lon="6.79393">
        <ele>423.8</ele>
        <time>2021-07-29T14:23:26Z</time>
      </trkpt>
      <trkpt lat="47.30562" lon="6.79395">
        <ele>423.6</ele>
        <time>2021-07-29T14:23:27Z</time>
      </trkpt>
      <trkpt lat="47.30567" lon="6.79396">
        <ele>423.6</ele>
        <time>2021-07-29T14:23:28Z</time>
      </trkpt>
      <trkpt lat="47.30572" lon="6.79398">
        <ele>423.4</ele>
        <time>2021-07-29T14:23:29Z</time>
      </trkpt>
      <trkpt lat="47.30577" lon="6.79399">
        <ele>423.4</ele>
        <time>2021-07-29T14:23:30Z</time>
      </trkpt>
      <trkpt lat="47.30583" lon="6.79401">
        <ele>423.4</ele>
        <time>2021-07-29T14:23:31Z</time>
      </trkpt>
      <trkpt lat="47.30588" lon="6.79402">
        <ele>423.4</ele>
        <time>2021-07-29T14:23:32Z</time>
      </trkpt>
      <trkpt lat="47.30593" lon="6.79403">
        <ele>423.2</ele>
        <time>2021-07-29T14:23:33Z</time>
      </trkpt>
      <trkpt lat="47.30598" lon="6.79405">
        <ele>423.2</ele>
        <time>2021-07-29T14:23:34Z</time>
      </trkpt>
      <trkpt lat="47.30603" lon="6.79406">
        <ele>423.2</ele>
        <time>2021-07-29T14:23:35Z</time>
      </trkpt>
      <trkpt lat="47.30608" lon="6.79408">
        <ele>423.2</ele>
        <time>2021-07-29T14:23:36Z</time>
      </trkpt>
      <trkpt lat="47.30613" lon="6.79409">
        <ele>423.2</ele>
        <time>2021-07-29T14:23:37Z</time>
      </trkpt>
      <trkpt lat="47.30618" lon="6.79411">
        <ele>423</ele>
        <time>2021-07-29T14:23:38Z</time>
      </trkpt>
      <trkpt lat="47.30623" lon="6.79412">
        <ele>423.2</ele>
        <time>2021-07-29T14:23:39Z</time>
      </trkpt>
      <trkpt lat="47.30628" lon="6.79413">
        <ele>423</ele>
        <time>2021-07-29T14:23:40Z</time>
      </trkpt>
      <trkpt lat="47.30633" lon="6.79415">
        <ele>423</ele>
        <time>2021-07-29T14:23:41Z</time>
      </trkpt>
      <trkpt lat="47.30638" lon="6.79417">
        <ele>423</ele>
        <time>2021-07-29T14:23:42Z</time>
      </trkpt>
      <trkpt lat="47.30643" lon="6.79418">
        <ele>423.2</ele>
        <time>2021-07-29T14:23:43Z</time>
      </trkpt>
      <trkpt lat="47.30649" lon="6.79419">
        <ele>423</ele>
        <time>2021-07-29T14:23:44Z</time>
      </trkpt>
      <trkpt lat="47.30654" lon="6.7942">
        <ele>423</ele>
        <time>2021-07-29T14:23:45Z</time>
      </trkpt>
      <trkpt lat="47.30659" lon="6.79422">
        <ele>423</ele>
        <time>2021-07-29T14:23:46Z</time>
      </trkpt>
      <trkpt lat="47.30664" lon="6.79423">
        <ele>423</ele>
        <time>2021-07-29T14:23:47Z</time>
      </trkpt>
      <trkpt lat="47.30669" lon="6.79425">
        <ele>423</ele>
        <time>2021-07-29T14:23:48Z</time>
      </trkpt>
      <trkpt lat="47.30674" lon="6.79426">
        <ele>423</ele>
        <time>2021-07-29T14:23:49Z</time>
      </trkpt>
      <trkpt lat="47.30678" lon="6.79428">
        <ele>423</ele>
        <time>2021-07-29T14:23:50Z</time>
      </trkpt>
      <trkpt lat="47.30683" lon="6.7943">
        <ele>423</ele>
        <time>2021-07-29T14:23:51Z</time>
      </trkpt>
      <trkpt lat="47.30688" lon="6.79432">
        <ele>422.6</ele>
        <time>2021-07-29T14:23:52Z</time>
      </trkpt>
      <trkpt lat="47.30693" lon="6.79434">
        <ele>422.4</ele>
        <time>2021-07-29T14:23:53Z</time>
      </trkpt>
      <trkpt lat="47.30698" lon="6.79436">
        <ele>422.4</ele>
        <time>2021-07-29T14:23:54Z</time>
      </trkpt>
      <trkpt lat="47.30702" lon="6.79439">
        <ele>422.4</ele>
        <time>2021-07-29T14:23:55Z</time>
      </trkpt>
      <trkpt lat="47.30707" lon="6.79441">
        <ele>422.4</ele>
        <time>2021-07-29T14:23:56Z</time>
      </trkpt>
      <trkpt lat="47.30712" lon="6.79443">
        <ele>422.4</ele>
        <time>2021-07-29T14:23:57Z</time>
      </trkpt>
      <trkpt lat="47.30716" lon="6.79446">
        <ele>422.6</ele>
        <time>2021-07-29T14:23:58Z</time>
      </trkpt>
      <trkpt lat="47.30721" lon="6.79448">
        <ele>422.6</ele>
        <time>2021-07-29T14:23:59Z</time>
      </trkpt>
      <trkpt lat="47.30726" lon="6.79451">
        <ele>422.6</ele>
        <time>2021-07-29T14:24:00Z</time>
      </trkpt>
      <trkpt lat="47.3073" lon="6.79454">
        <ele>422.6</ele>
        <time>2021-07-29T14:24:01Z</time>
      </trkpt>
      <trkpt lat="47.30735" lon="6.79457">
        <ele>422.6</ele>
        <time>2021-07-29T14:24:02Z</time>
      </trkpt>
      <trkpt lat="47.30739" lon="6.7946">
        <ele>422.6</ele>
        <time>2021-07-29T14:24:03Z</time>
      </trkpt>
      <trkpt lat="47.30744" lon="6.79463">
        <ele>422.6</ele>
        <time>2021-07-29T14:24:04Z</time>
      </trkpt>
      <trkpt lat="47.30749" lon="6.79466">
        <ele>422.4</ele>
        <time>2021-07-29T14:24:05Z</time>
      </trkpt>
      <trkpt lat="47.30753" lon="6.79469">
        <ele>422.6</ele>
        <time>2021-07-29T14:24:06Z</time>
      </trkpt>
      <trkpt lat="47.30758" lon="6.79472">
        <ele>422.4</ele>
        <time>2021-07-29T14:24:07Z</time>
      </trkpt>
      <trkpt lat="47.30762" lon="6.79476">
        <ele>422.4</ele>
        <time>2021-07-29T14:24:08Z</time>
      </trkpt>
      <trkpt lat="47.30767" lon="6.7948">
        <ele>422.2</ele>
        <time>2021-07-29T14:24:09Z</time>
      </trkpt>
      <trkpt lat="47.30771" lon="6.79484">
        <ele>422.2</ele>
        <time>2021-07-29T14:24:10Z</time>
      </trkpt>
      <trkpt lat="47.30775" lon="6.79488">
        <ele>422.2</ele>
        <time>2021-07-29T14:24:11Z</time>
      </trkpt>
      <trkpt lat="47.30779" lon="6.79493">
        <ele>422.2</ele>
        <time>2021-07-29T14:24:12Z</time>
      </trkpt>
      <trkpt lat="47.30783" lon="6.79498">
        <ele>422</ele>
        <time>2021-07-29T14:24:13Z</time>
      </trkpt>
      <trkpt lat="47.30787" lon="6.79503">
        <ele>422</ele>
        <time>2021-07-29T14:24:14Z</time>
      </trkpt>
      <trkpt lat="47.30791" lon="6.79509">
        <ele>422</ele>
        <time>2021-07-29T14:24:15Z</time>
      </trkpt>
      <trkpt lat="47.30794" lon="6.79514">
        <ele>422</ele>
        <time>2021-07-29T14:24:16Z</time>
      </trkpt>
      <trkpt lat="47.30798" lon="6.79521">
        <ele>422</ele>
        <time>2021-07-29T14:24:17Z</time>
      </trkpt>
      <trkpt lat="47.30801" lon="6.79527">
        <ele>422</ele>
        <time>2021-07-29T14:24:18Z</time>
      </trkpt>
      <trkpt lat="47.30803" lon="6.79534">
        <ele>422.2</ele>
        <time>2021-07-29T14:24:19Z</time>
      </trkpt>
      <trkpt lat="47.30806" lon="6.79541">
        <ele>422</ele>
        <time>2021-07-29T14:24:20Z</time>
      </trkpt>
      <trkpt lat="47.30808" lon="6.79548">
        <ele>422</ele>
        <time>2021-07-29T14:24:21Z</time>
      </trkpt>
      <trkpt lat="47.30811" lon="6.79554">
        <ele>422</ele>
        <time>2021-07-29T14:24:22Z</time>
      </trkpt>
      <trkpt lat="47.30813" lon="6.79561">
        <ele>422</ele>
        <time>2021-07-29T14:24:23Z</time>
      </trkpt>
      <trkpt lat="47.30815" lon="6.79568">
        <ele>421.8</ele>
        <time>2021-07-29T14:24:24Z</time>
      </trkpt>
      <trkpt lat="47.30818" lon="6.79574">
        <ele>421.6</ele>
        <time>2021-07-29T14:24:25Z</time>
      </trkpt>
      <trkpt lat="47.3082" lon="6.79579">
        <ele>421.8</ele>
        <time>2021-07-29T14:24:26Z</time>
      </trkpt>
      <trkpt lat="47.30822" lon="6.79585">
        <ele>422</ele>
        <time>2021-07-29T14:24:27Z</time>
      </trkpt>
      <trkpt lat="47.30824" lon="6.79591">
        <ele>422</ele>
        <time>2021-07-29T14:24:28Z</time>
      </trkpt>
      <trkpt lat="47.30825" lon="6.79597">
        <ele>422</ele>
        <time>2021-07-29T14:24:29Z</time>
      </trkpt>
      <trkpt lat="47.30827" lon="6.79602">
        <ele>421.8</ele>
        <time>2021-07-29T14:24:30Z</time>
      </trkpt>
      <trkpt lat="47.30829" lon="6.79607">
        <ele>421.6</ele>
        <time>2021-07-29T14:24:31Z</time>
      </trkpt>
      <trkpt lat="47.3083" lon="6.79613">
        <ele>421.6</ele>
        <time>2021-07-29T14:24:32Z</time>
      </trkpt>
      <trkpt lat="47.30832" lon="6.79618">
        <ele>421.4</ele>
        <time>2021-07-29T14:24:33Z</time>
      </trkpt>
      <trkpt lat="47.30834" lon="6.79624">
        <ele>421.6</ele>
        <time>2021-07-29T14:24:34Z</time>
      </trkpt>
      <trkpt lat="47.30835" lon="6.7963">
        <ele>421.6</ele>
        <time>2021-07-29T14:24:35Z</time>
      </trkpt>
      <trkpt lat="47.30837" lon="6.79636">
        <ele>421.4</ele>
        <time>2021-07-29T14:24:36Z</time>
      </trkpt>
      <trkpt lat="47.30839" lon="6.79642">
        <ele>421.2</ele>
        <time>2021-07-29T14:24:37Z</time>
      </trkpt>
      <trkpt lat="47.30841" lon="6.79648">
        <ele>421.2</ele>
        <time>2021-07-29T14:24:38Z</time>
      </trkpt>
      <trkpt lat="47.30843" lon="6.79655">
        <ele>421</ele>
        <time>2021-07-29T14:24:39Z</time>
      </trkpt>
      <trkpt lat="47.30845" lon="6.79661">
        <ele>421</ele>
        <time>2021-07-29T14:24:40Z</time>
      </trkpt>
      <trkpt lat="47.30847" lon="6.79667">
        <ele>420.8</ele>
        <time>2021-07-29T14:24:41Z</time>
      </trkpt>
      <trkpt lat="47.30849" lon="6.79674">
        <ele>420.8</ele>
        <time>2021-07-29T14:24:42Z</time>
      </trkpt>
      <trkpt lat="47.3085" lon="6.79681">
        <ele>420.8</ele>
        <time>2021-07-29T14:24:43Z</time>
      </trkpt>
      <trkpt lat="47.30852" lon="6.79687">
        <ele>420.8</ele>
        <time>2021-07-29T14:24:44Z</time>
      </trkpt>
      <trkpt lat="47.30854" lon="6.79694">
        <ele>420.8</ele>
        <time>2021-07-29T14:24:45Z</time>
      </trkpt>
      <trkpt lat="47.30856" lon="6.79701">
        <ele>420.6</ele>
        <time>2021-07-29T14:24:46Z</time>
      </trkpt>
      <trkpt lat="47.30857" lon="6.79708">
        <ele>420.6</ele>
        <time>2021-07-29T14:24:47Z</time>
      </trkpt>
      <trkpt lat="47.30858" lon="6.79715">
        <ele>420.6</ele>
        <time>2021-07-29T14:24:48Z</time>
      </trkpt>
      <trkpt lat="47.30859" lon="6.79722">
        <ele>420.6</ele>
        <time>2021-07-29T14:24:49Z</time>
      </trkpt>
      <trkpt lat="47.3086" lon="6.7973">
        <ele>420.4</ele>
        <time>2021-07-29T14:24:50Z</time>
      </trkpt>
      <trkpt lat="47.3086" lon="6.79738">
        <ele>420.6</ele>
        <time>2021-07-29T14:24:51Z</time>
      </trkpt>
      <trkpt lat="47.3086" lon="6.79745">
        <ele>420.6</ele>
        <time>2021-07-29T14:24:52Z</time>
      </trkpt>
      <trkpt lat="47.3086" lon="6.79753">
        <ele>420.6</ele>
        <time>2021-07-29T14:24:53Z</time>
      </trkpt>
      <trkpt lat="47.3086" lon="6.7976">
        <ele>420.6</ele>
        <time>2021-07-29T14:24:54Z</time>
      </trkpt>
      <trkpt lat="47.30859" lon="6.79768">
        <ele>420.6</ele>
        <time>2021-07-29T14:24:55Z</time>
      </trkpt>
      <trkpt lat="47.30858" lon="6.79775">
        <ele>420.4</ele>
        <time>2021-07-29T14:24:56Z</time>
      </trkpt>
      <trkpt lat="47.30857" lon="6.79782">
        <ele>420.4</ele>
        <time>2021-07-29T14:24:57Z</time>
      </trkpt>
      <trkpt lat="47.30856" lon="6.7979">
        <ele>420.4</ele>
        <time>2021-07-29T14:24:58Z</time>
      </trkpt>
      <trkpt lat="47.30855" lon="6.79797">
        <ele>420.4</ele>
        <time>2021-07-29T14:24:59Z</time>
      </trkpt>
      <trkpt lat="47.30853" lon="6.79804">
        <ele>420.4</ele>
        <time>2021-07-29T14:25:00Z</time>
      </trkpt>
      <trkpt lat="47.30851" lon="6.79811">
        <ele>420.2</ele>
        <time>2021-07-29T14:25:01Z</time>
      </trkpt>
      <trkpt lat="47.3085" lon="6.79818">
        <ele>420.4</ele>
        <time>2021-07-29T14:25:02Z</time>
      </trkpt>
      <trkpt lat="47.30848" lon="6.79826">
        <ele>420.4</ele>
        <time>2021-07-29T14:25:03Z</time>
      </trkpt>
      <trkpt lat="47.30846" lon="6.79833">
        <ele>420.4</ele>
        <time>2021-07-29T14:25:04Z</time>
      </trkpt>
      <trkpt lat="47.30845" lon="6.7984">
        <ele>420.4</ele>
        <time>2021-07-29T14:25:05Z</time>
      </trkpt>
      <trkpt lat="47.30843" lon="6.79847">
        <ele>420.2</ele>
        <time>2021-07-29T14:25:06Z</time>
      </trkpt>
      <trkpt lat="47.30841" lon="6.79854">
        <ele>420.2</ele>
        <time>2021-07-29T14:25:07Z</time>
      </trkpt>
      <trkpt lat="47.3084" lon="6.79862">
        <ele>420.2</ele>
        <time>2021-07-29T14:25:08Z</time>
      </trkpt>
      <trkpt lat="47.30839" lon="6.79869">
        <ele>420.2</ele>
        <time>2021-07-29T14:25:09Z</time>
      </trkpt>
      <trkpt lat="47.30837" lon="6.79876">
        <ele>420.2</ele>
        <time>2021-07-29T14:25:10Z</time>
      </trkpt>
      <trkpt lat="47.30836" lon="6.79883">
        <ele>420.2</ele>
        <time>2021-07-29T14:25:11Z</time>
      </trkpt>
      <trkpt lat="47.30835" lon="6.7989">
        <ele>420.2</ele>
        <time>2021-07-29T14:25:12Z</time>
      </trkpt>
      <trkpt lat="47.30833" lon="6.79897">
        <ele>420.2</ele>
        <time>2021-07-29T14:25:13Z</time>
      </trkpt>
      <trkpt lat="47.30831" lon="6.79904">
        <ele>420.2</ele>
        <time>2021-07-29T14:25:14Z</time>
      </trkpt>
      <trkpt lat="47.3083" lon="6.79911">
        <ele>420.2</ele>
        <time>2021-07-29T14:25:15Z</time>
      </trkpt>
      <trkpt lat="47.30828" lon="6.79918">
        <ele>420</ele>
        <time>2021-07-29T14:25:16Z</time>
      </trkpt>
      <trkpt lat="47.30827" lon="6.79925">
        <ele>420</ele>
        <time>2021-07-29T14:25:17Z</time>
      </trkpt>
      <trkpt lat="47.30826" lon="6.79932">
        <ele>420</ele>
        <time>2021-07-29T14:25:18Z</time>
      </trkpt>
      <trkpt lat="47.30825" lon="6.7994">
        <ele>420</ele>
        <time>2021-07-29T14:25:19Z</time>
      </trkpt>
      <trkpt lat="47.30824" lon="6.79947">
        <ele>419.8</ele>
        <time>2021-07-29T14:25:20Z</time>
      </trkpt>
      <trkpt lat="47.30823" lon="6.79955">
        <ele>419.8</ele>
        <time>2021-07-29T14:25:21Z</time>
      </trkpt>
      <trkpt lat="47.30822" lon="6.79962">
        <ele>419.8</ele>
        <time>2021-07-29T14:25:22Z</time>
      </trkpt>
      <trkpt lat="47.30822" lon="6.7997">
        <ele>419.8</ele>
        <time>2021-07-29T14:25:23Z</time>
      </trkpt>
      <trkpt lat="47.30822" lon="6.79977">
        <ele>419.8</ele>
        <time>2021-07-29T14:25:24Z</time>
      </trkpt>
      <trkpt lat="47.30821" lon="6.79985">
        <ele>419.8</ele>
        <time>2021-07-29T14:25:25Z</time>
      </trkpt>
      <trkpt lat="47.3082" lon="6.79993">
        <ele>419.8</ele>
        <time>2021-07-29T14:25:26Z</time>
      </trkpt>
      <trkpt lat="47.3082" lon="6.8">
        <ele>420</ele>
        <time>2021-07-29T14:25:27Z</time>
      </trkpt>
      <trkpt lat="47.3082" lon="6.80008">
        <ele>420</ele>
        <time>2021-07-29T14:25:28Z</time>
      </trkpt>
      <trkpt lat="47.30819" lon="6.80016">
        <ele>420</ele>
        <time>2021-07-29T14:25:29Z</time>
      </trkpt>
      <trkpt lat="47.30819" lon="6.80023">
        <ele>420</ele>
        <time>2021-07-29T14:25:30Z</time>
      </trkpt>
      <trkpt lat="47.30819" lon="6.80031">
        <ele>420</ele>
        <time>2021-07-29T14:25:31Z</time>
      </trkpt>
      <trkpt lat="47.30818" lon="6.80039">
        <ele>419.8</ele>
        <time>2021-07-29T14:25:32Z</time>
      </trkpt>
      <trkpt lat="47.30818" lon="6.80047">
        <ele>420.2</ele>
        <time>2021-07-29T14:25:33Z</time>
      </trkpt>
      <trkpt lat="47.30819" lon="6.80055">
        <ele>420</ele>
        <time>2021-07-29T14:25:34Z</time>
      </trkpt>
      <trkpt lat="47.30819" lon="6.80062">
        <ele>420</ele>
        <time>2021-07-29T14:25:35Z</time>
      </trkpt>
      <trkpt lat="47.30819" lon="6.8007">
        <ele>420</ele>
        <time>2021-07-29T14:25:36Z</time>
      </trkpt>
      <trkpt lat="47.3082" lon="6.80078">
        <ele>419.8</ele>
        <time>2021-07-29T14:25:37Z</time>
      </trkpt>
      <trkpt lat="47.3082" lon="6.80086">
        <ele>419.8</ele>
        <time>2021-07-29T14:25:38Z</time>
      </trkpt>
      <trkpt lat="47.30821" lon="6.80094">
        <ele>419.8</ele>
        <time>2021-07-29T14:25:39Z</time>
      </trkpt>
      <trkpt lat="47.30822" lon="6.80101">
        <ele>419.8</ele>
        <time>2021-07-29T14:25:40Z</time>
      </trkpt>
      <trkpt lat="47.30823" lon="6.8011">
        <ele>419.8</ele>
        <time>2021-07-29T14:25:41Z</time>
      </trkpt>
      <trkpt lat="47.30824" lon="6.80117">
        <ele>419.6</ele>
        <time>2021-07-29T14:25:42Z</time>
      </trkpt>
      <trkpt lat="47.30825" lon="6.80125">
        <ele>419.6</ele>
        <time>2021-07-29T14:25:43Z</time>
      </trkpt>
      <trkpt lat="47.30826" lon="6.80133">
        <ele>419.6</ele>
        <time>2021-07-29T14:25:44Z</time>
      </trkpt>
      <trkpt lat="47.30827" lon="6.80141">
        <ele>419.6</ele>
        <time>2021-07-29T14:25:45Z</time>
      </trkpt>
      <trkpt lat="47.30828" lon="6.80149">
        <ele>419.6</ele>
        <time>2021-07-29T14:25:46Z</time>
      </trkpt>
      <trkpt lat="47.3083" lon="6.80157">
        <ele>419.6</ele>
        <time>2021-07-29T14:25:47Z</time>
      </trkpt>
      <trkpt lat="47.30832" lon="6.80165">
        <ele>419.6</ele>
        <time>2021-07-29T14:25:48Z</time>
      </trkpt>
      <trkpt lat="47.30834" lon="6.80172">
        <ele>419.6</ele>
        <time>2021-07-29T14:25:49Z</time>
      </trkpt>
      <trkpt lat="47.30836" lon="6.8018">
        <ele>419.6</ele>
        <time>2021-07-29T14:25:50Z</time>
      </trkpt>
      <trkpt lat="47.30839" lon="6.80187">
        <ele>419.6</ele>
        <time>2021-07-29T14:25:51Z</time>
      </trkpt>
      <trkpt lat="47.30841" lon="6.80194">
        <ele>419.6</ele>
        <time>2021-07-29T14:25:52Z</time>
      </trkpt>
      <trkpt lat="47.30844" lon="6.80202">
        <ele>419.6</ele>
        <time>2021-07-29T14:25:53Z</time>
      </trkpt>
      <trkpt lat="47.30847" lon="6.80209">
        <ele>419.6</ele>
        <time>2021-07-29T14:25:54Z</time>
      </trkpt>
      <trkpt lat="47.3085" lon="6.80216">
        <ele>419.6</ele>
        <time>2021-07-29T14:25:55Z</time>
      </trkpt>
      <trkpt lat="47.30853" lon="6.80222">
        <ele>419.6</ele>
        <time>2021-07-29T14:25:56Z</time>
      </trkpt>
      <trkpt lat="47.30856" lon="6.80229">
        <ele>419.6</ele>
        <time>2021-07-29T14:25:57Z</time>
      </trkpt>
      <trkpt lat="47.30859" lon="6.80236">
        <ele>419.6</ele>
        <time>2021-07-29T14:25:58Z</time>
      </trkpt>
      <trkpt lat="47.30863" lon="6.80244">
        <ele>419.4</ele>
        <time>2021-07-29T14:25:59Z</time>
      </trkpt>
      <trkpt lat="47.30866" lon="6.8025">
        <ele>419.4</ele>
        <time>2021-07-29T14:26:00Z</time>
      </trkpt>
      <trkpt lat="47.3087" lon="6.80257">
        <ele>419.4</ele>
        <time>2021-07-29T14:26:01Z</time>
      </trkpt>
      <trkpt lat="47.30873" lon="6.80263">
        <ele>419.4</ele>
        <time>2021-07-29T14:26:02Z</time>
      </trkpt>
      <trkpt lat="47.30877" lon="6.80269">
        <ele>419.4</ele>
        <time>2021-07-29T14:26:03Z</time>
      </trkpt>
      <trkpt lat="47.30882" lon="6.80274">
        <ele>419.4</ele>
        <time>2021-07-29T14:26:04Z</time>
      </trkpt>
      <trkpt lat="47.30886" lon="6.8028">
        <ele>419.4</ele>
        <time>2021-07-29T14:26:05Z</time>
      </trkpt>
      <trkpt lat="47.30891" lon="6.80285">
        <ele>419.4</ele>
        <time>2021-07-29T14:26:06Z</time>
      </trkpt>
      <trkpt lat="47.30896" lon="6.80289">
        <ele>419.4</ele>
        <time>2021-07-29T14:26:07Z</time>
      </trkpt>
      <trkpt lat="47.30901" lon="6.80294">
        <ele>419.4</ele>
        <time>2021-07-29T14:26:08Z</time>
      </trkpt>
      <trkpt lat="47.30906" lon="6.80298">
        <ele>419.2</ele>
        <time>2021-07-29T14:26:09Z</time>
      </trkpt>
      <trkpt lat="47.30911" lon="6.80302">
        <ele>419.2</ele>
        <time>2021-07-29T14:26:10Z</time>
      </trkpt>
      <trkpt lat="47.30916" lon="6.80306">
        <ele>419.2</ele>
        <time>2021-07-29T14:26:11Z</time>
      </trkpt>
      <trkpt lat="47.30921" lon="6.80309">
        <ele>419.2</ele>
        <time>2021-07-29T14:26:12Z</time>
      </trkpt>
      <trkpt lat="47.30927" lon="6.80312">
        <ele>419.2</ele>
        <time>2021-07-29T14:26:13Z</time>
      </trkpt>
      <trkpt lat="47.30932" lon="6.80315">
        <ele>419.2</ele>
        <time>2021-07-29T14:26:14Z</time>
      </trkpt>
      <trkpt lat="47.30937" lon="6.80317">
        <ele>419.2</ele>
        <time>2021-07-29T14:26:15Z</time>
      </trkpt>
      <trkpt lat="47.30943" lon="6.8032">
        <ele>419</ele>
        <time>2021-07-29T14:26:16Z</time>
      </trkpt>
      <trkpt lat="47.30948" lon="6.80322">
        <ele>419</ele>
        <time>2021-07-29T14:26:17Z</time>
      </trkpt>
      <trkpt lat="47.30954" lon="6.80324">
        <ele>419</ele>
        <time>2021-07-29T14:26:18Z</time>
      </trkpt>
      <trkpt lat="47.30959" lon="6.80326">
        <ele>418.8</ele>
        <time>2021-07-29T14:26:19Z</time>
      </trkpt>
      <trkpt lat="47.30964" lon="6.80328">
        <ele>418.8</ele>
        <time>2021-07-29T14:26:20Z</time>
      </trkpt>
      <trkpt lat="47.3097" lon="6.8033">
        <ele>418.8</ele>
        <time>2021-07-29T14:26:21Z</time>
      </trkpt>
      <trkpt lat="47.30975" lon="6.80332">
        <ele>418.8</ele>
        <time>2021-07-29T14:26:22Z</time>
      </trkpt>
      <trkpt lat="47.30981" lon="6.80334">
        <ele>418.6</ele>
        <time>2021-07-29T14:26:23Z</time>
      </trkpt>
      <trkpt lat="47.30986" lon="6.80336">
        <ele>418.8</ele>
        <time>2021-07-29T14:26:24Z</time>
      </trkpt>
      <trkpt lat="47.30991" lon="6.80338">
        <ele>418.8</ele>
        <time>2021-07-29T14:26:25Z</time>
      </trkpt>
      <trkpt lat="47.30996" lon="6.8034">
        <ele>418.8</ele>
        <time>2021-07-29T14:26:26Z</time>
      </trkpt>
      <trkpt lat="47.31002" lon="6.80341">
        <ele>418.8</ele>
        <time>2021-07-29T14:26:27Z</time>
      </trkpt>
      <trkpt lat="47.31007" lon="6.80342">
        <ele>418.8</ele>
        <time>2021-07-29T14:26:28Z</time>
      </trkpt>
      <trkpt lat="47.31012" lon="6.80344">
        <ele>418.6</ele>
        <time>2021-07-29T14:26:29Z</time>
      </trkpt>
      <trkpt lat="47.31016" lon="6.80345">
        <ele>418.4</ele>
        <time>2021-07-29T14:26:30Z</time>
      </trkpt>
      <trkpt lat="47.31021" lon="6.80347">
        <ele>418.6</ele>
        <time>2021-07-29T14:26:31Z</time>
      </trkpt>
      <trkpt lat="47.31026" lon="6.80349">
        <ele>418.6</ele>
        <time>2021-07-29T14:26:32Z</time>
      </trkpt>
      <trkpt lat="47.3103" lon="6.80351">
        <ele>418.4</ele>
        <time>2021-07-29T14:26:33Z</time>
      </trkpt>
      <trkpt lat="47.31034" lon="6.80353">
        <ele>418.4</ele>
        <time>2021-07-29T14:26:34Z</time>
      </trkpt>
      <trkpt lat="47.31039" lon="6.80355">
        <ele>418.2</ele>
        <time>2021-07-29T14:26:35Z</time>
      </trkpt>
      <trkpt lat="47.31043" lon="6.80357">
        <ele>418.2</ele>
        <time>2021-07-29T14:26:36Z</time>
      </trkpt>
      <trkpt lat="47.31048" lon="6.8036">
        <ele>418.2</ele>
        <time>2021-07-29T14:26:37Z</time>
      </trkpt>
      <trkpt lat="47.31052" lon="6.80363">
        <ele>418.2</ele>
        <time>2021-07-29T14:26:38Z</time>
      </trkpt>
      <trkpt lat="47.31057" lon="6.80365">
        <ele>418</ele>
        <time>2021-07-29T14:26:39Z</time>
      </trkpt>
      <trkpt lat="47.31061" lon="6.80368">
        <ele>418</ele>
        <time>2021-07-29T14:26:40Z</time>
      </trkpt>
      <trkpt lat="47.31065" lon="6.80371">
        <ele>418.2</ele>
        <time>2021-07-29T14:26:41Z</time>
      </trkpt>
      <trkpt lat="47.31069" lon="6.80374">
        <ele>418.2</ele>
        <time>2021-07-29T14:26:42Z</time>
      </trkpt>
      <trkpt lat="47.31074" lon="6.80377">
        <ele>418.2</ele>
        <time>2021-07-29T14:26:43Z</time>
      </trkpt>
      <trkpt lat="47.31078" lon="6.80381">
        <ele>418.2</ele>
        <time>2021-07-29T14:26:44Z</time>
      </trkpt>
      <trkpt lat="47.31082" lon="6.80385">
        <ele>418.2</ele>
        <time>2021-07-29T14:26:45Z</time>
      </trkpt>
      <trkpt lat="47.31086" lon="6.80389">
        <ele>418.2</ele>
        <time>2021-07-29T14:26:46Z</time>
      </trkpt>
      <trkpt lat="47.3109" lon="6.80394">
        <ele>418.2</ele>
        <time>2021-07-29T14:26:47Z</time>
      </trkpt>
      <trkpt lat="47.31094" lon="6.80399">
        <ele>418</ele>
        <time>2021-07-29T14:26:48Z</time>
      </trkpt>
      <trkpt lat="47.31099" lon="6.80405">
        <ele>418</ele>
        <time>2021-07-29T14:26:49Z</time>
      </trkpt>
      <trkpt lat="47.31103" lon="6.80411">
        <ele>417.8</ele>
        <time>2021-07-29T14:26:50Z</time>
      </trkpt>
      <trkpt lat="47.31107" lon="6.80417">
        <ele>417.8</ele>
        <time>2021-07-29T14:26:51Z</time>
      </trkpt>
      <trkpt lat="47.3111" lon="6.80424">
        <ele>417.6</ele>
        <time>2021-07-29T14:26:52Z</time>
      </trkpt>
      <trkpt lat="47.31114" lon="6.8043">
        <ele>417.6</ele>
        <time>2021-07-29T14:26:53Z</time>
      </trkpt>
      <trkpt lat="47.31116" lon="6.80437">
        <ele>417.6</ele>
        <time>2021-07-29T14:26:54Z</time>
      </trkpt>
      <trkpt lat="47.31119" lon="6.80443">
        <ele>417.6</ele>
        <time>2021-07-29T14:26:55Z</time>
      </trkpt>
      <trkpt lat="47.31122" lon="6.8045">
        <ele>417.6</ele>
        <time>2021-07-29T14:26:56Z</time>
      </trkpt>
      <trkpt lat="47.31124" lon="6.80456">
        <ele>417.6</ele>
        <time>2021-07-29T14:26:57Z</time>
      </trkpt>
      <trkpt lat="47.31127" lon="6.80463">
        <ele>417.6</ele>
        <time>2021-07-29T14:26:58Z</time>
      </trkpt>
      <trkpt lat="47.31129" lon="6.80469">
        <ele>417.8</ele>
        <time>2021-07-29T14:26:59Z</time>
      </trkpt>
      <trkpt lat="47.31131" lon="6.80476">
        <ele>417.8</ele>
        <time>2021-07-29T14:27:00Z</time>
      </trkpt>
      <trkpt lat="47.31133" lon="6.80482">
        <ele>418</ele>
        <time>2021-07-29T14:27:01Z</time>
      </trkpt>
      <trkpt lat="47.31135" lon="6.80489">
        <ele>418</ele>
        <time>2021-07-29T14:27:02Z</time>
      </trkpt>
      <trkpt lat="47.31137" lon="6.80495">
        <ele>417.8</ele>
        <time>2021-07-29T14:27:03Z</time>
      </trkpt>
      <trkpt lat="47.3114" lon="6.80502">
        <ele>417.8</ele>
        <time>2021-07-29T14:27:04Z</time>
      </trkpt>
      <trkpt lat="47.31142" lon="6.80509">
        <ele>417.8</ele>
        <time>2021-07-29T14:27:05Z</time>
      </trkpt>
      <trkpt lat="47.31144" lon="6.80515">
        <ele>417.8</ele>
        <time>2021-07-29T14:27:06Z</time>
      </trkpt>
      <trkpt lat="47.31146" lon="6.80523">
        <ele>417.8</ele>
        <time>2021-07-29T14:27:07Z</time>
      </trkpt>
      <trkpt lat="47.31148" lon="6.8053">
        <ele>417.6</ele>
        <time>2021-07-29T14:27:08Z</time>
      </trkpt>
      <trkpt lat="47.3115" lon="6.80536">
        <ele>417.6</ele>
        <time>2021-07-29T14:27:09Z</time>
      </trkpt>
      <trkpt lat="47.31152" lon="6.80543">
        <ele>417.6</ele>
        <time>2021-07-29T14:27:10Z</time>
      </trkpt>
      <trkpt lat="47.31155" lon="6.80551">
        <ele>417.6</ele>
        <time>2021-07-29T14:27:11Z</time>
      </trkpt>
      <trkpt lat="47.31157" lon="6.80558">
        <ele>417.6</ele>
        <time>2021-07-29T14:27:12Z</time>
      </trkpt>
      <trkpt lat="47.31159" lon="6.80565">
        <ele>417.6</ele>
        <time>2021-07-29T14:27:13Z</time>
      </trkpt>
      <trkpt lat="47.31161" lon="6.80572">
        <ele>417.6</ele>
        <time>2021-07-29T14:27:14Z</time>
      </trkpt>
      <trkpt lat="47.31163" lon="6.80579">
        <ele>417.6</ele>
        <time>2021-07-29T14:27:15Z</time>
      </trkpt>
      <trkpt lat="47.31165" lon="6.80586">
        <ele>417.6</ele>
        <time>2021-07-29T14:27:16Z</time>
      </trkpt>
      <trkpt lat="47.31167" lon="6.80594">
        <ele>417.8</ele>
        <time>2021-07-29T14:27:17Z</time>
      </trkpt>
      <trkpt lat="47.31169" lon="6.80601">
        <ele>417.8</ele>
        <time>2021-07-29T14:27:18Z</time>
      </trkpt>
      <trkpt lat="47.31171" lon="6.80608">
        <ele>417.8</ele>
        <time>2021-07-29T14:27:19Z</time>
      </trkpt>
      <trkpt lat="47.31173" lon="6.80615">
        <ele>417.8</ele>
        <time>2021-07-29T14:27:20Z</time>
      </trkpt>
      <trkpt lat="47.31175" lon="6.80623">
        <ele>417.6</ele>
        <time>2021-07-29T14:27:21Z</time>
      </trkpt>
      <trkpt lat="47.31176" lon="6.80631">
        <ele>417.6</ele>
        <time>2021-07-29T14:27:22Z</time>
      </trkpt>
      <trkpt lat="47.31177" lon="6.80638">
        <ele>417.6</ele>
        <time>2021-07-29T14:27:23Z</time>
      </trkpt>
      <trkpt lat="47.31178" lon="6.80647">
        <ele>417.4</ele>
        <time>2021-07-29T14:27:24Z</time>
      </trkpt>
      <trkpt lat="47.31179" lon="6.80655">
        <ele>417.2</ele>
        <time>2021-07-29T14:27:25Z</time>
      </trkpt>
      <trkpt lat="47.3118" lon="6.80664">
        <ele>417.2</ele>
        <time>2021-07-29T14:27:26Z</time>
      </trkpt>
      <trkpt lat="47.31181" lon="6.80672">
        <ele>417.2</ele>
        <time>2021-07-29T14:27:27Z</time>
      </trkpt>
      <trkpt lat="47.31181" lon="6.80681">
        <ele>417.2</ele>
        <time>2021-07-29T14:27:28Z</time>
      </trkpt>
      <trkpt lat="47.31182" lon="6.8069">
        <ele>417.2</ele>
        <time>2021-07-29T14:27:29Z</time>
      </trkpt>
      <trkpt lat="47.31182" lon="6.80698">
        <ele>417.4</ele>
        <time>2021-07-29T14:27:30Z</time>
      </trkpt>
      <trkpt lat="47.31181" lon="6.80706">
        <ele>417.4</ele>
        <time>2021-07-29T14:27:31Z</time>
      </trkpt>
      <trkpt lat="47.31181" lon="6.80715">
        <ele>417.2</ele>
        <time>2021-07-29T14:27:32Z</time>
      </trkpt>
      <trkpt lat="47.3118" lon="6.80723">
        <ele>417.2</ele>
        <time>2021-07-29T14:27:33Z</time>
      </trkpt>
      <trkpt lat="47.31179" lon="6.80731">
        <ele>417.2</ele>
        <time>2021-07-29T14:27:34Z</time>
      </trkpt>
      <trkpt lat="47.31178" lon="6.80739">
        <ele>417.2</ele>
        <time>2021-07-29T14:27:35Z</time>
      </trkpt>
      <trkpt lat="47.31178" lon="6.80747">
        <ele>417.2</ele>
        <time>2021-07-29T14:27:36Z</time>
      </trkpt>
      <trkpt lat="47.31176" lon="6.80756">
        <ele>417.2</ele>
        <time>2021-07-29T14:27:37Z</time>
      </trkpt>
      <trkpt lat="47.31175" lon="6.80764">
        <ele>417.2</ele>
        <time>2021-07-29T14:27:38Z</time>
      </trkpt>
      <trkpt lat="47.31174" lon="6.80772">
        <ele>417.2</ele>
        <time>2021-07-29T14:27:39Z</time>
      </trkpt>
      <trkpt lat="47.31174" lon="6.8078">
        <ele>417.2</ele>
        <time>2021-07-29T14:27:40Z</time>
      </trkpt>
      <trkpt lat="47.31173" lon="6.80788">
        <ele>417</ele>
        <time>2021-07-29T14:27:41Z</time>
      </trkpt>
      <trkpt lat="47.31172" lon="6.80796">
        <ele>416.8</ele>
        <time>2021-07-29T14:27:42Z</time>
      </trkpt>
      <trkpt lat="47.31171" lon="6.80803">
        <ele>416.8</ele>
        <time>2021-07-29T14:27:43Z</time>
      </trkpt>
      <trkpt lat="47.3117" lon="6.80811">
        <ele>416.8</ele>
        <time>2021-07-29T14:27:44Z</time>
      </trkpt>
      <trkpt lat="47.3117" lon="6.80819">
        <ele>417</ele>
        <time>2021-07-29T14:27:45Z</time>
      </trkpt>
      <trkpt lat="47.3117" lon="6.80826">
        <ele>417</ele>
        <time>2021-07-29T14:27:46Z</time>
      </trkpt>
      <trkpt lat="47.3117" lon="6.80834">
        <ele>417</ele>
        <time>2021-07-29T14:27:47Z</time>
      </trkpt>
      <trkpt lat="47.3117" lon="6.80841">
        <ele>417</ele>
        <time>2021-07-29T14:27:48Z</time>
      </trkpt>
      <trkpt lat="47.3117" lon="6.80848">
        <ele>416.8</ele>
        <time>2021-07-29T14:27:49Z</time>
      </trkpt>
      <trkpt lat="47.3117" lon="6.80856">
        <ele>416.6</ele>
        <time>2021-07-29T14:27:50Z</time>
      </trkpt>
      <trkpt lat="47.3117" lon="6.80863">
        <ele>416.6</ele>
        <time>2021-07-29T14:27:51Z</time>
      </trkpt>
      <trkpt lat="47.3117" lon="6.8087">
        <ele>416.4</ele>
        <time>2021-07-29T14:27:52Z</time>
      </trkpt>
      <trkpt lat="47.3117" lon="6.80878">
        <ele>416.4</ele>
        <time>2021-07-29T14:27:53Z</time>
      </trkpt>
      <trkpt lat="47.3117" lon="6.80885">
        <ele>416.2</ele>
        <time>2021-07-29T14:27:54Z</time>
      </trkpt>
      <trkpt lat="47.31171" lon="6.80892">
        <ele>416.2</ele>
        <time>2021-07-29T14:27:55Z</time>
      </trkpt>
      <trkpt lat="47.31172" lon="6.80899">
        <ele>416</ele>
        <time>2021-07-29T14:27:56Z</time>
      </trkpt>
      <trkpt lat="47.31174" lon="6.80907">
        <ele>415.8</ele>
        <time>2021-07-29T14:27:57Z</time>
      </trkpt>
      <trkpt lat="47.31177" lon="6.80914">
        <ele>415.6</ele>
        <time>2021-07-29T14:27:58Z</time>
      </trkpt>
      <trkpt lat="47.3118" lon="6.8092">
        <ele>415.4</ele>
        <time>2021-07-29T14:27:59Z</time>
      </trkpt>
      <trkpt lat="47.31184" lon="6.80926">
        <ele>415.4</ele>
        <time>2021-07-29T14:28:00Z</time>
      </trkpt>
      <trkpt lat="47.31188" lon="6.80932">
        <ele>415.2</ele>
        <time>2021-07-29T14:28:01Z</time>
      </trkpt>
      <trkpt lat="47.31193" lon="6.80937">
        <ele>415.2</ele>
        <time>2021-07-29T14:28:02Z</time>
      </trkpt>
      <trkpt lat="47.31198" lon="6.80942">
        <ele>415</ele>
        <time>2021-07-29T14:28:03Z</time>
      </trkpt>
      <trkpt lat="47.31203" lon="6.80947">
        <ele>414.8</ele>
        <time>2021-07-29T14:28:04Z</time>
      </trkpt>
      <trkpt lat="47.31209" lon="6.80952">
        <ele>414.6</ele>
        <time>2021-07-29T14:28:05Z</time>
      </trkpt>
      <trkpt lat="47.31215" lon="6.80956">
        <ele>414.6</ele>
        <time>2021-07-29T14:28:06Z</time>
      </trkpt>
      <trkpt lat="47.31221" lon="6.80961">
        <ele>414.4</ele>
        <time>2021-07-29T14:28:07Z</time>
      </trkpt>
      <trkpt lat="47.31227" lon="6.80966">
        <ele>414.2</ele>
        <time>2021-07-29T14:28:08Z</time>
      </trkpt>
      <trkpt lat="47.31233" lon="6.80971">
        <ele>414.2</ele>
        <time>2021-07-29T14:28:09Z</time>
      </trkpt>
      <trkpt lat="47.31239" lon="6.80975">
        <ele>414</ele>
        <time>2021-07-29T14:28:10Z</time>
      </trkpt>
      <trkpt lat="47.31245" lon="6.8098">
        <ele>413.8</ele>
        <time>2021-07-29T14:28:11Z</time>
      </trkpt>
      <trkpt lat="47.31251" lon="6.80985">
        <ele>413.6</ele>
        <time>2021-07-29T14:28:12Z</time>
      </trkpt>
      <trkpt lat="47.31257" lon="6.80989">
        <ele>413.6</ele>
        <time>2021-07-29T14:28:13Z</time>
      </trkpt>
      <trkpt lat="47.31263" lon="6.80994">
        <ele>413.6</ele>
        <time>2021-07-29T14:28:14Z</time>
      </trkpt>
      <trkpt lat="47.31269" lon="6.80998">
        <ele>413.6</ele>
        <time>2021-07-29T14:28:15Z</time>
      </trkpt>
      <trkpt lat="47.31274" lon="6.81002">
        <ele>413.6</ele>
        <time>2021-07-29T14:28:16Z</time>
      </trkpt>
      <trkpt lat="47.3128" lon="6.81006">
        <ele>413.4</ele>
        <time>2021-07-29T14:28:17Z</time>
      </trkpt>
      <trkpt lat="47.31285" lon="6.81009">
        <ele>413.4</ele>
        <time>2021-07-29T14:28:18Z</time>
      </trkpt>
      <trkpt lat="47.31291" lon="6.81012">
        <ele>413.4</ele>
        <time>2021-07-29T14:28:19Z</time>
      </trkpt>
      <trkpt lat="47.31296" lon="6.81013">
        <ele>413.4</ele>
        <time>2021-07-29T14:28:20Z</time>
      </trkpt>
      <trkpt lat="47.31302" lon="6.81014">
        <ele>413.4</ele>
        <time>2021-07-29T14:28:21Z</time>
      </trkpt>
      <trkpt lat="47.31307" lon="6.81016">
        <ele>413.4</ele>
        <time>2021-07-29T14:28:22Z</time>
      </trkpt>
      <trkpt lat="47.31312" lon="6.81017">
        <ele>413.4</ele>
        <time>2021-07-29T14:28:23Z</time>
      </trkpt>
      <trkpt lat="47.31317" lon="6.81016">
        <ele>413.4</ele>
        <time>2021-07-29T14:28:24Z</time>
      </trkpt>
      <trkpt lat="47.31323" lon="6.81016">
        <ele>413.4</ele>
        <time>2021-07-29T14:28:25Z</time>
      </trkpt>
      <trkpt lat="47.31328" lon="6.81016">
        <ele>413.4</ele>
        <time>2021-07-29T14:28:26Z</time>
      </trkpt>
      <trkpt lat="47.31333" lon="6.81016">
        <ele>413.4</ele>
        <time>2021-07-29T14:28:27Z</time>
      </trkpt>
      <trkpt lat="47.31339" lon="6.81015">
        <ele>413.4</ele>
        <time>2021-07-29T14:28:28Z</time>
      </trkpt>
      <trkpt lat="47.31344" lon="6.81014">
        <ele>413.4</ele>
        <time>2021-07-29T14:28:29Z</time>
      </trkpt>
      <trkpt lat="47.3135" lon="6.81014">
        <ele>413.4</ele>
        <time>2021-07-29T14:28:30Z</time>
      </trkpt>
      <trkpt lat="47.31355" lon="6.81014">
        <ele>413.2</ele>
        <time>2021-07-29T14:28:31Z</time>
      </trkpt>
      <trkpt lat="47.3136" lon="6.81012">
        <ele>413.2</ele>
        <time>2021-07-29T14:28:32Z</time>
      </trkpt>
      <trkpt lat="47.31365" lon="6.81012">
        <ele>413.4</ele>
        <time>2021-07-29T14:28:33Z</time>
      </trkpt>
      <trkpt lat="47.3137" lon="6.81011">
        <ele>413.4</ele>
        <time>2021-07-29T14:28:34Z</time>
      </trkpt>
      <trkpt lat="47.31375" lon="6.81011">
        <ele>413.4</ele>
        <time>2021-07-29T14:28:35Z</time>
      </trkpt>
      <trkpt lat="47.31379" lon="6.81011">
        <ele>413.6</ele>
        <time>2021-07-29T14:28:36Z</time>
      </trkpt>
      <trkpt lat="47.31383" lon="6.81011">
        <ele>413.6</ele>
        <time>2021-07-29T14:28:37Z</time>
      </trkpt>
      <trkpt lat="47.31388" lon="6.81011">
        <ele>413.8</ele>
        <time>2021-07-29T14:28:38Z</time>
      </trkpt>
      <trkpt lat="47.31392" lon="6.8101">
        <ele>413.8</ele>
        <time>2021-07-29T14:28:39Z</time>
      </trkpt>
      <trkpt lat="47.31396" lon="6.8101">
        <ele>414</ele>
        <time>2021-07-29T14:28:40Z</time>
      </trkpt>
      <trkpt lat="47.314" lon="6.8101">
        <ele>414</ele>
        <time>2021-07-29T14:28:41Z</time>
      </trkpt>
      <trkpt lat="47.31404" lon="6.81009">
        <ele>414</ele>
        <time>2021-07-29T14:28:42Z</time>
      </trkpt>
      <trkpt lat="47.31408" lon="6.81008">
        <ele>414.2</ele>
        <time>2021-07-29T14:28:43Z</time>
      </trkpt>
      <trkpt lat="47.31412" lon="6.81008">
        <ele>414.2</ele>
        <time>2021-07-29T14:28:44Z</time>
      </trkpt>
      <trkpt lat="47.31416" lon="6.81007">
        <ele>414.4</ele>
        <time>2021-07-29T14:28:45Z</time>
      </trkpt>
      <trkpt lat="47.3142" lon="6.81006">
        <ele>414.4</ele>
        <time>2021-07-29T14:28:46Z</time>
      </trkpt>
      <trkpt lat="47.31424" lon="6.81006">
        <ele>414.4</ele>
        <time>2021-07-29T14:28:47Z</time>
      </trkpt>
      <trkpt lat="47.31428" lon="6.81005">
        <ele>414.6</ele>
        <time>2021-07-29T14:28:48Z</time>
      </trkpt>
      <trkpt lat="47.31431" lon="6.81004">
        <ele>414.8</ele>
        <time>2021-07-29T14:28:49Z</time>
      </trkpt>
      <trkpt lat="47.31435" lon="6.81004">
        <ele>414.8</ele>
        <time>2021-07-29T14:28:50Z</time>
      </trkpt>
      <trkpt lat="47.31439" lon="6.81003">
        <ele>414.8</ele>
        <time>2021-07-29T14:28:51Z</time>
      </trkpt>
      <trkpt lat="47.31443" lon="6.81003">
        <ele>415</ele>
        <time>2021-07-29T14:28:52Z</time>
      </trkpt>
      <trkpt lat="47.31446" lon="6.81002">
        <ele>415</ele>
        <time>2021-07-29T14:28:53Z</time>
      </trkpt>
      <trkpt lat="47.3145" lon="6.81001">
        <ele>415</ele>
        <time>2021-07-29T14:28:54Z</time>
      </trkpt>
      <trkpt lat="47.31454" lon="6.81001">
        <ele>415.2</ele>
        <time>2021-07-29T14:28:55Z</time>
      </trkpt>
      <trkpt lat="47.31458" lon="6.81">
        <ele>415.2</ele>
        <time>2021-07-29T14:28:56Z</time>
      </trkpt>
      <trkpt lat="47.31462" lon="6.81">
        <ele>415.2</ele>
        <time>2021-07-29T14:28:57Z</time>
      </trkpt>
      <trkpt lat="47.31466" lon="6.80999">
        <ele>415.4</ele>
        <time>2021-07-29T14:28:58Z</time>
      </trkpt>
      <trkpt lat="47.31469" lon="6.80999">
        <ele>415.4</ele>
        <time>2021-07-29T14:28:59Z</time>
      </trkpt>
      <trkpt lat="47.31473" lon="6.80999">
        <ele>415.4</ele>
        <time>2021-07-29T14:29:00Z</time>
      </trkpt>
      <trkpt lat="47.31477" lon="6.80999">
        <ele>415.6</ele>
        <time>2021-07-29T14:29:01Z</time>
      </trkpt>
      <trkpt lat="47.3148" lon="6.80999">
        <ele>415.6</ele>
        <time>2021-07-29T14:29:02Z</time>
      </trkpt>
      <trkpt lat="47.31484" lon="6.80999">
        <ele>415.8</ele>
        <time>2021-07-29T14:29:03Z</time>
      </trkpt>
      <trkpt lat="47.31488" lon="6.80998">
        <ele>415.8</ele>
        <time>2021-07-29T14:29:04Z</time>
      </trkpt>
      <trkpt lat="47.31492" lon="6.80998">
        <ele>416</ele>
        <time>2021-07-29T14:29:05Z</time>
      </trkpt>
      <trkpt lat="47.31495" lon="6.80998">
        <ele>416</ele>
        <time>2021-07-29T14:29:06Z</time>
      </trkpt>
      <trkpt lat="47.31499" lon="6.80998">
        <ele>416.2</ele>
        <time>2021-07-29T14:29:07Z</time>
      </trkpt>
      <trkpt lat="47.31502" lon="6.80998">
        <ele>416.2</ele>
        <time>2021-07-29T14:29:08Z</time>
      </trkpt>
      <trkpt lat="47.31506" lon="6.80998">
        <ele>416.2</ele>
        <time>2021-07-29T14:29:09Z</time>
      </trkpt>
      <trkpt lat="47.3151" lon="6.80998">
        <ele>416.2</ele>
        <time>2021-07-29T14:29:10Z</time>
      </trkpt>
      <trkpt lat="47.31513" lon="6.80998">
        <ele>416.2</ele>
        <time>2021-07-29T14:29:11Z</time>
      </trkpt>
      <trkpt lat="47.31517" lon="6.80998">
        <ele>416.2</ele>
        <time>2021-07-29T14:29:12Z</time>
      </trkpt>
      <trkpt lat="47.31521" lon="6.80998">
        <ele>416.2</ele>
        <time>2021-07-29T14:29:13Z</time>
      </trkpt>
      <trkpt lat="47.31525" lon="6.80998">
        <ele>416.2</ele>
        <time>2021-07-29T14:29:14Z</time>
      </trkpt>
      <trkpt lat="47.31529" lon="6.80998">
        <ele>416.2</ele>
        <time>2021-07-29T14:29:15Z</time>
      </trkpt>
      <trkpt lat="47.31534" lon="6.80998">
        <ele>416</ele>
        <time>2021-07-29T14:29:16Z</time>
      </trkpt>
      <trkpt lat="47.31538" lon="6.80998">
        <ele>416</ele>
        <time>2021-07-29T14:29:17Z</time>
      </trkpt>
      <trkpt lat="47.31542" lon="6.80998">
        <ele>415.8</ele>
        <time>2021-07-29T14:29:18Z</time>
      </trkpt>
      <trkpt lat="47.31546" lon="6.80998">
        <ele>415.8</ele>
        <time>2021-07-29T14:29:19Z</time>
      </trkpt>
      <trkpt lat="47.3155" lon="6.80998">
        <ele>415.6</ele>
        <time>2021-07-29T14:29:20Z</time>
      </trkpt>
      <trkpt lat="47.31554" lon="6.80998">
        <ele>415.6</ele>
        <time>2021-07-29T14:29:21Z</time>
      </trkpt>
      <trkpt lat="47.31558" lon="6.80998">
        <ele>415.6</ele>
        <time>2021-07-29T14:29:22Z</time>
      </trkpt>
      <trkpt lat="47.31562" lon="6.80998">
        <ele>415.6</ele>
        <time>2021-07-29T14:29:23Z</time>
      </trkpt>
      <trkpt lat="47.31567" lon="6.80999">
        <ele>415.6</ele>
        <time>2021-07-29T14:29:24Z</time>
      </trkpt>
      <trkpt lat="47.31571" lon="6.80999">
        <ele>415.6</ele>
        <time>2021-07-29T14:29:25Z</time>
      </trkpt>
      <trkpt lat="47.31575" lon="6.81">
        <ele>415.6</ele>
        <time>2021-07-29T14:29:26Z</time>
      </trkpt>
      <trkpt lat="47.31579" lon="6.81001">
        <ele>415.6</ele>
        <time>2021-07-29T14:29:27Z</time>
      </trkpt>
      <trkpt lat="47.31583" lon="6.81001">
        <ele>415.6</ele>
        <time>2021-07-29T14:29:28Z</time>
      </trkpt>
      <trkpt lat="47.31588" lon="6.81001">
        <ele>415.6</ele>
        <time>2021-07-29T14:29:29Z</time>
      </trkpt>
      <trkpt lat="47.31593" lon="6.81002">
        <ele>415.4</ele>
        <time>2021-07-29T14:29:30Z</time>
      </trkpt>
      <trkpt lat="47.31598" lon="6.81002">
        <ele>415.4</ele>
        <time>2021-07-29T14:29:31Z</time>
      </trkpt>
      <trkpt lat="47.31603" lon="6.81002">
        <ele>415.2</ele>
        <time>2021-07-29T14:29:32Z</time>
      </trkpt>
      <trkpt lat="47.31608" lon="6.81003">
        <ele>415.2</ele>
        <time>2021-07-29T14:29:33Z</time>
      </trkpt>
      <trkpt lat="47.31613" lon="6.81003">
        <ele>415</ele>
        <time>2021-07-29T14:29:34Z</time>
      </trkpt>
      <trkpt lat="47.31618" lon="6.81004">
        <ele>415</ele>
        <time>2021-07-29T14:29:35Z</time>
      </trkpt>
      <trkpt lat="47.31623" lon="6.81004">
        <ele>414.8</ele>
        <time>2021-07-29T14:29:36Z</time>
      </trkpt>
      <trkpt lat="47.31629" lon="6.81005">
        <ele>414.6</ele>
        <time>2021-07-29T14:29:37Z</time>
      </trkpt>
      <trkpt lat="47.31634" lon="6.81005">
        <ele>414.6</ele>
        <time>2021-07-29T14:29:38Z</time>
      </trkpt>
      <trkpt lat="47.3164" lon="6.81007">
        <ele>414.2</ele>
        <time>2021-07-29T14:29:39Z</time>
      </trkpt>
      <trkpt lat="47.31645" lon="6.81008">
        <ele>414.2</ele>
        <time>2021-07-29T14:29:40Z</time>
      </trkpt>
      <trkpt lat="47.3165" lon="6.8101">
        <ele>414</ele>
        <time>2021-07-29T14:29:41Z</time>
      </trkpt>
      <trkpt lat="47.31656" lon="6.81012">
        <ele>414</ele>
        <time>2021-07-29T14:29:42Z</time>
      </trkpt>
      <trkpt lat="47.31661" lon="6.81014">
        <ele>413.8</ele>
        <time>2021-07-29T14:29:43Z</time>
      </trkpt>
      <trkpt lat="47.31667" lon="6.81015">
        <ele>413.6</ele>
        <time>2021-07-29T14:29:44Z</time>
      </trkpt>
      <trkpt lat="47.31673" lon="6.81016">
        <ele>413.6</ele>
        <time>2021-07-29T14:29:45Z</time>
      </trkpt>
      <trkpt lat="47.31678" lon="6.81018">
        <ele>413.6</ele>
        <time>2021-07-29T14:29:46Z</time>
      </trkpt>
      <trkpt lat="47.31684" lon="6.8102">
        <ele>413.4</ele>
        <time>2021-07-29T14:29:47Z</time>
      </trkpt>
      <trkpt lat="47.31689" lon="6.81022">
        <ele>413.4</ele>
        <time>2021-07-29T14:29:48Z</time>
      </trkpt>
      <trkpt lat="47.31694" lon="6.81025">
        <ele>413.6</ele>
        <time>2021-07-29T14:29:49Z</time>
      </trkpt>
      <trkpt lat="47.31698" lon="6.81027">
        <ele>413.6</ele>
        <time>2021-07-29T14:29:50Z</time>
      </trkpt>
      <trkpt lat="47.31703" lon="6.81029">
        <ele>413.8</ele>
        <time>2021-07-29T14:29:51Z</time>
      </trkpt>
      <trkpt lat="47.31707" lon="6.81031">
        <ele>414</ele>
        <time>2021-07-29T14:29:52Z</time>
      </trkpt>
      <trkpt lat="47.3171" lon="6.81033">
        <ele>414.2</ele>
        <time>2021-07-29T14:29:53Z</time>
      </trkpt>
      <trkpt lat="47.31714" lon="6.81035">
        <ele>414.4</ele>
        <time>2021-07-29T14:29:54Z</time>
      </trkpt>
      <trkpt lat="47.31717" lon="6.81038">
        <ele>414.6</ele>
        <time>2021-07-29T14:29:55Z</time>
      </trkpt>
      <trkpt lat="47.31719" lon="6.81042">
        <ele>414.8</ele>
        <time>2021-07-29T14:29:56Z</time>
      </trkpt>
      <trkpt lat="47.31722" lon="6.81045">
        <ele>414.8</ele>
        <time>2021-07-29T14:29:57Z</time>
      </trkpt>
      <trkpt lat="47.31724" lon="6.81049">
        <ele>415</ele>
        <time>2021-07-29T14:29:58Z</time>
      </trkpt>
      <trkpt lat="47.31725" lon="6.81053">
        <ele>415.2</ele>
        <time>2021-07-29T14:29:59Z</time>
      </trkpt>
      <trkpt lat="47.31726" lon="6.81058">
        <ele>415.2</ele>
        <time>2021-07-29T14:30:00Z</time>
      </trkpt>
      <trkpt lat="47.31727" lon="6.81062">
        <ele>415.4</ele>
        <time>2021-07-29T14:30:01Z</time>
      </trkpt>
      <trkpt lat="47.31727" lon="6.81066">
        <ele>415.4</ele>
        <time>2021-07-29T14:30:02Z</time>
      </trkpt>
      <trkpt lat="47.31727" lon="6.81071">
        <ele>415.6</ele>
        <time>2021-07-29T14:30:03Z</time>
      </trkpt>
      <trkpt lat="47.31726" lon="6.81075">
        <ele>415.8</ele>
        <time>2021-07-29T14:30:04Z</time>
      </trkpt>
      <trkpt lat="47.31726" lon="6.81079">
        <ele>416</ele>
        <time>2021-07-29T14:30:05Z</time>
      </trkpt>
      <trkpt lat="47.31725" lon="6.81083">
        <ele>416.2</ele>
        <time>2021-07-29T14:30:06Z</time>
      </trkpt>
      <trkpt lat="47.31725" lon="6.81087">
        <ele>416.2</ele>
        <time>2021-07-29T14:30:07Z</time>
      </trkpt>
      <trkpt lat="47.31725" lon="6.81091">
        <ele>416.4</ele>
        <time>2021-07-29T14:30:08Z</time>
      </trkpt>
      <trkpt lat="47.31724" lon="6.81094">
        <ele>416.4</ele>
        <time>2021-07-29T14:30:09Z</time>
      </trkpt>
      <trkpt lat="47.31724" lon="6.81097">
        <ele>416.6</ele>
        <time>2021-07-29T14:30:10Z</time>
      </trkpt>
      <trkpt lat="47.31724" lon="6.81101">
        <ele>416.8</ele>
        <time>2021-07-29T14:30:11Z</time>
      </trkpt>
      <trkpt lat="47.31724" lon="6.81104">
        <ele>416.8</ele>
        <time>2021-07-29T14:30:12Z</time>
      </trkpt>
      <trkpt lat="47.31723" lon="6.81107">
        <ele>417</ele>
        <time>2021-07-29T14:30:13Z</time>
      </trkpt>
      <trkpt lat="47.31723" lon="6.81109">
        <ele>417</ele>
        <time>2021-07-29T14:30:14Z</time>
      </trkpt>
      <trkpt lat="47.31722" lon="6.81112">
        <ele>417.2</ele>
        <time>2021-07-29T14:30:15Z</time>
      </trkpt>
      <trkpt lat="47.31721" lon="6.81116">
        <ele>417.2</ele>
        <time>2021-07-29T14:30:16Z</time>
      </trkpt>
      <trkpt lat="47.3172" lon="6.81118">
        <ele>417.4</ele>
        <time>2021-07-29T14:30:17Z</time>
      </trkpt>
      <trkpt lat="47.3172" lon="6.8112">
        <ele>417.4</ele>
        <time>2021-07-29T14:30:18Z</time>
      </trkpt>
      <trkpt lat="47.3172" lon="6.81122">
        <ele>417.4</ele>
        <time>2021-07-29T14:30:19Z</time>
      </trkpt>
      <trkpt lat="47.3172" lon="6.81123">
        <ele>417.4</ele>
        <time>2021-07-29T14:30:20Z</time>
      </trkpt>
      <trkpt lat="47.3172" lon="6.81124">
        <ele>417.6</ele>
        <time>2021-07-29T14:30:21Z</time>
      </trkpt>
      <trkpt lat="47.3172" lon="6.81124">
        <ele>417.6</ele>
        <time>2021-07-29T14:30:22Z</time>
      </trkpt>
      <trkpt lat="47.31719" lon="6.81124">
        <ele>417.6</ele>
        <time>2021-07-29T14:30:23Z</time>
      </trkpt>
      <trkpt lat="47.31719" lon="6.81124">
        <ele>417.6</ele>
        <time>2021-07-29T14:30:24Z</time>
      </trkpt>
      <trkpt lat="47.31719" lon="6.81124">
        <ele>417.6</ele>
        <time>2021-07-29T14:30:25Z</time>
      </trkpt>
      <trkpt lat="47.31719" lon="6.81124">
        <ele>417.6</ele>
        <time>2021-07-29T14:30:26Z</time>
      </trkpt>
      <trkpt lat="47.31719" lon="6.81124">
        <ele>417.6</ele>
        <time>2021-07-29T14:30:27Z</time>
      </trkpt>
      <trkpt lat="47.31727" lon="6.81148">
        <ele>419.2</ele>
        <time>2021-07-29T14:32:57Z</time>
      </trkpt>
      <trkpt lat="47.31727" lon="6.8115">
        <ele>419.4</ele>
        <time>2021-07-29T14:32:58Z</time>
      </trkpt>
      <trkpt lat="47.31729" lon="6.81153">
        <ele>419.2</ele>
        <time>2021-07-29T14:32:59Z</time>
      </trkpt>
      <trkpt lat="47.31731" lon="6.81155">
        <ele>419.2</ele>
        <time>2021-07-29T14:33:00Z</time>
      </trkpt>
      <trkpt lat="47.31732" lon="6.81157">
        <ele>419.2</ele>
        <time>2021-07-29T14:33:01Z</time>
      </trkpt>
      <trkpt lat="47.31735" lon="6.81158">
        <ele>419.2</ele>
        <time>2021-07-29T14:33:02Z</time>
      </trkpt>
      <trkpt lat="47.31737" lon="6.8116">
        <ele>419.2</ele>
        <time>2021-07-29T14:33:03Z</time>
      </trkpt>
      <trkpt lat="47.3174" lon="6.8116">
        <ele>419</ele>
        <time>2021-07-29T14:33:04Z</time>
      </trkpt>
      <trkpt lat="47.31743" lon="6.81161">
        <ele>419</ele>
        <time>2021-07-29T14:33:05Z</time>
      </trkpt>
      <trkpt lat="47.31746" lon="6.81163">
        <ele>419.2</ele>
        <time>2021-07-29T14:33:06Z</time>
      </trkpt>
      <trkpt lat="47.31749" lon="6.81164">
        <ele>419.2</ele>
        <time>2021-07-29T14:33:07Z</time>
      </trkpt>
      <trkpt lat="47.31752" lon="6.81165">
        <ele>419.2</ele>
        <time>2021-07-29T14:33:08Z</time>
      </trkpt>
      <trkpt lat="47.31755" lon="6.81167">
        <ele>419.2</ele>
        <time>2021-07-29T14:33:09Z</time>
      </trkpt>
      <trkpt lat="47.31758" lon="6.81169">
        <ele>419.2</ele>
        <time>2021-07-29T14:33:10Z</time>
      </trkpt>
      <trkpt lat="47.31761" lon="6.81171">
        <ele>419.2</ele>
        <time>2021-07-29T14:33:11Z</time>
      </trkpt>
      <trkpt lat="47.31765" lon="6.81173">
        <ele>419.2</ele>
        <time>2021-07-29T14:33:12Z</time>
      </trkpt>
      <trkpt lat="47.31768" lon="6.81175">
        <ele>419.2</ele>
        <time>2021-07-29T14:33:13Z</time>
      </trkpt>
      <trkpt lat="47.31771" lon="6.81178">
        <ele>419.2</ele>
        <time>2021-07-29T14:33:14Z</time>
      </trkpt>
      <trkpt lat="47.31774" lon="6.81181">
        <ele>419.2</ele>
        <time>2021-07-29T14:33:15Z</time>
      </trkpt>
      <trkpt lat="47.31777" lon="6.81185">
        <ele>419.2</ele>
        <time>2021-07-29T14:33:16Z</time>
      </trkpt>
      <trkpt lat="47.3178" lon="6.81189">
        <ele>419.4</ele>
        <time>2021-07-29T14:33:17Z</time>
      </trkpt>
      <trkpt lat="47.31782" lon="6.81192">
        <ele>419.4</ele>
        <time>2021-07-29T14:33:18Z</time>
      </trkpt>
      <trkpt lat="47.31784" lon="6.81195">
        <ele>419.4</ele>
        <time>2021-07-29T14:33:19Z</time>
      </trkpt>
      <trkpt lat="47.31787" lon="6.81199">
        <ele>419.4</ele>
        <time>2021-07-29T14:33:20Z</time>
      </trkpt>
      <trkpt lat="47.31789" lon="6.81203">
        <ele>419.4</ele>
        <time>2021-07-29T14:33:21Z</time>
      </trkpt>
      <trkpt lat="47.31791" lon="6.81206">
        <ele>419.4</ele>
        <time>2021-07-29T14:33:22Z</time>
      </trkpt>
      <trkpt lat="47.31793" lon="6.81209">
        <ele>419.4</ele>
        <time>2021-07-29T14:33:23Z</time>
      </trkpt>
      <trkpt lat="47.31795" lon="6.81212">
        <ele>419.2</ele>
        <time>2021-07-29T14:33:24Z</time>
      </trkpt>
      <trkpt lat="47.31797" lon="6.81214">
        <ele>419.2</ele>
        <time>2021-07-29T14:33:25Z</time>
      </trkpt>
      <trkpt lat="47.31799" lon="6.81217">
        <ele>419</ele>
        <time>2021-07-29T14:33:26Z</time>
      </trkpt>
      <trkpt lat="47.31802" lon="6.8122">
        <ele>419</ele>
        <time>2021-07-29T14:33:27Z</time>
      </trkpt>
      <trkpt lat="47.31804" lon="6.81223">
        <ele>419</ele>
        <time>2021-07-29T14:33:28Z</time>
      </trkpt>
      <trkpt lat="47.31806" lon="6.81226">
        <ele>419</ele>
        <time>2021-07-29T14:33:29Z</time>
      </trkpt>
      <trkpt lat="47.31808" lon="6.81229">
        <ele>418.8</ele>
        <time>2021-07-29T14:33:30Z</time>
      </trkpt>
      <trkpt lat="47.31809" lon="6.81233">
        <ele>418.8</ele>
        <time>2021-07-29T14:33:31Z</time>
      </trkpt>
      <trkpt lat="47.31811" lon="6.81236">
        <ele>418.8</ele>
        <time>2021-07-29T14:33:32Z</time>
      </trkpt>
      <trkpt lat="47.31813" lon="6.81239">
        <ele>418.8</ele>
        <time>2021-07-29T14:33:33Z</time>
      </trkpt>
      <trkpt lat="47.31815" lon="6.8124">
        <ele>418.6</ele>
        <time>2021-07-29T14:33:34Z</time>
      </trkpt>
      <trkpt lat="47.31817" lon="6.8124">
        <ele>418.4</ele>
        <time>2021-07-29T14:33:35Z</time>
      </trkpt>
      <trkpt lat="47.31819" lon="6.81239">
        <ele>418.4</ele>
        <time>2021-07-29T14:33:36Z</time>
      </trkpt>
      <trkpt lat="47.31821" lon="6.81239">
        <ele>418.4</ele>
        <time>2021-07-29T14:33:37Z</time>
      </trkpt>
      <trkpt lat="47.31822" lon="6.8124">
        <ele>418.4</ele>
        <time>2021-07-29T14:33:38Z</time>
      </trkpt>
      <trkpt lat="47.31823" lon="6.81241">
        <ele>418.2</ele>
        <time>2021-07-29T14:33:39Z</time>
      </trkpt>
      <trkpt lat="47.31825" lon="6.81242">
        <ele>418.2</ele>
        <time>2021-07-29T14:33:40Z</time>
      </trkpt>
      <trkpt lat="47.31826" lon="6.81242">
        <ele>418</ele>
        <time>2021-07-29T14:33:41Z</time>
      </trkpt>
      <trkpt lat="47.31828" lon="6.81242">
        <ele>418</ele>
        <time>2021-07-29T14:33:42Z</time>
      </trkpt>
      <trkpt lat="47.31829" lon="6.81242">
        <ele>418</ele>
        <time>2021-07-29T14:33:43Z</time>
      </trkpt>
      <trkpt lat="47.3183" lon="6.8124">
        <ele>418</ele>
        <time>2021-07-29T14:33:44Z</time>
      </trkpt>
      <trkpt lat="47.3183" lon="6.81238">
        <ele>418</ele>
        <time>2021-07-29T14:33:45Z</time>
      </trkpt>
      <trkpt lat="47.3183" lon="6.81236">
        <ele>418</ele>
        <time>2021-07-29T14:33:46Z</time>
      </trkpt>
      <trkpt lat="47.31831" lon="6.81234">
        <ele>418</ele>
        <time>2021-07-29T14:33:47Z</time>
      </trkpt>
      <trkpt lat="47.31831" lon="6.81231">
        <ele>418.2</ele>
        <time>2021-07-29T14:33:48Z</time>
      </trkpt>
      <trkpt lat="47.31832" lon="6.81229">
        <ele>418.2</ele>
        <time>2021-07-29T14:33:49Z</time>
      </trkpt>
      <trkpt lat="47.31833" lon="6.81227">
        <ele>418</ele>
        <time>2021-07-29T14:33:50Z</time>
      </trkpt>
      <trkpt lat="47.31834" lon="6.81226">
        <ele>418.2</ele>
        <time>2021-07-29T14:33:51Z</time>
      </trkpt>
      <trkpt lat="47.31834" lon="6.81224">
        <ele>418.2</ele>
        <time>2021-07-29T14:33:52Z</time>
      </trkpt>
      <trkpt lat="47.31834" lon="6.81223">
        <ele>418.2</ele>
        <time>2021-07-29T14:33:53Z</time>
      </trkpt>
      <trkpt lat="47.31834" lon="6.81221">
        <ele>418.2</ele>
        <time>2021-07-29T14:33:54Z</time>
      </trkpt>
      <trkpt lat="47.31834" lon="6.8122">
        <ele>418.2</ele>
        <time>2021-07-29T14:33:55Z</time>
      </trkpt>
      <trkpt lat="47.31834" lon="6.81219">
        <ele>418.4</ele>
        <time>2021-07-29T14:33:56Z</time>
      </trkpt>
      <trkpt lat="47.31835" lon="6.81218">
        <ele>418.4</ele>
        <time>2021-07-29T14:33:57Z</time>
      </trkpt>
      <trkpt lat="47.31835" lon="6.81217">
        <ele>418.4</ele>
        <time>2021-07-29T14:33:58Z</time>
      </trkpt>
      <trkpt lat="47.31835" lon="6.81217">
        <ele>418.4</ele>
        <time>2021-07-29T14:33:59Z</time>
      </trkpt>
      <trkpt lat="47.31835" lon="6.81217">
        <ele>418.2</ele>
        <time>2021-07-29T14:34:00Z</time>
      </trkpt>
      <trkpt lat="47.31835" lon="6.81217">
        <ele>418.4</ele>
        <time>2021-07-29T14:34:01Z</time>
      </trkpt>
      <trkpt lat="47.31835" lon="6.81217">
        <ele>418.4</ele>
        <time>2021-07-29T14:34:02Z</time>
      </trkpt>
      <trkpt lat="47.31835" lon="6.81218">
        <ele>418.4</ele>
        <time>2021-07-29T14:34:03Z</time>
      </trkpt>
      <trkpt lat="47.31836" lon="6.81217">
        <ele>418.4</ele>
        <time>2021-07-29T14:34:04Z</time>
      </trkpt>
      <trkpt lat="47.31836" lon="6.81217">
        <ele>418.4</ele>
        <time>2021-07-29T14:34:05Z</time>
      </trkpt>
      <trkpt lat="47.31824" lon="6.81243">
        <ele>420.6</ele>
        <time>2021-07-29T15:16:21Z</time>
      </trkpt>
      <trkpt lat="47.31824" lon="6.81244">
        <ele>420.6</ele>
        <time>2021-07-29T15:16:22Z</time>
      </trkpt>
      <trkpt lat="47.31825" lon="6.81245">
        <ele>420.6</ele>
        <time>2021-07-29T15:16:23Z</time>
      </trkpt>
      <trkpt lat="47.31825" lon="6.81245">
        <ele>420.6</ele>
        <time>2021-07-29T15:16:24Z</time>
      </trkpt>
      <trkpt lat="47.31825" lon="6.81245">
        <ele>420.6</ele>
        <time>2021-07-29T15:16:25Z</time>
      </trkpt>
      <trkpt lat="47.31825" lon="6.81246">
        <ele>420.6</ele>
        <time>2021-07-29T15:16:26Z</time>
      </trkpt>
      <trkpt lat="47.31825" lon="6.81246">
        <ele>420.6</ele>
        <time>2021-07-29T15:16:27Z</time>
      </trkpt>
      <trkpt lat="47.31824" lon="6.81246">
        <ele>420.6</ele>
        <time>2021-07-29T15:16:28Z</time>
      </trkpt>
      <trkpt lat="47.31842" lon="6.8127">
        <ele>419.6</ele>
        <time>2021-07-29T15:17:32Z</time>
      </trkpt>
      <trkpt lat="47.31848" lon="6.81275">
        <ele>419.4</ele>
        <time>2021-07-29T15:17:34Z</time>
      </trkpt>
      <trkpt lat="47.31852" lon="6.81278">
        <ele>419.6</ele>
        <time>2021-07-29T15:17:35Z</time>
      </trkpt>
      <trkpt lat="47.31855" lon="6.8128">
        <ele>419.4</ele>
        <time>2021-07-29T15:17:36Z</time>
      </trkpt>
      <trkpt lat="47.31859" lon="6.81282">
        <ele>419.2</ele>
        <time>2021-07-29T15:17:37Z</time>
      </trkpt>
      <trkpt lat="47.31863" lon="6.81285">
        <ele>419.2</ele>
        <time>2021-07-29T15:17:38Z</time>
      </trkpt>
      <trkpt lat="47.31867" lon="6.81288">
        <ele>419</ele>
        <time>2021-07-29T15:17:39Z</time>
      </trkpt>
      <trkpt lat="47.31871" lon="6.81291">
        <ele>419</ele>
        <time>2021-07-29T15:17:40Z</time>
      </trkpt>
      <trkpt lat="47.31875" lon="6.81293">
        <ele>418.6</ele>
        <time>2021-07-29T15:17:41Z</time>
      </trkpt>
      <trkpt lat="47.3188" lon="6.81296">
        <ele>418.4</ele>
        <time>2021-07-29T15:17:42Z</time>
      </trkpt>
      <trkpt lat="47.31884" lon="6.81299">
        <ele>418.2</ele>
        <time>2021-07-29T15:17:43Z</time>
      </trkpt>
      <trkpt lat="47.31887" lon="6.81302">
        <ele>418</ele>
        <time>2021-07-29T15:17:44Z</time>
      </trkpt>
      <trkpt lat="47.3189" lon="6.81306">
        <ele>417.6</ele>
        <time>2021-07-29T15:17:45Z</time>
      </trkpt>
      <trkpt lat="47.31893" lon="6.8131">
        <ele>417.6</ele>
        <time>2021-07-29T15:17:46Z</time>
      </trkpt>
      <trkpt lat="47.31895" lon="6.81315">
        <ele>417.4</ele>
        <time>2021-07-29T15:17:47Z</time>
      </trkpt>
      <trkpt lat="47.31897" lon="6.81319">
        <ele>417.4</ele>
        <time>2021-07-29T15:17:48Z</time>
      </trkpt>
      <trkpt lat="47.31899" lon="6.81322">
        <ele>417.6</ele>
        <time>2021-07-29T15:17:49Z</time>
      </trkpt>
      <trkpt lat="47.31901" lon="6.81325">
        <ele>417.6</ele>
        <time>2021-07-29T15:17:50Z</time>
      </trkpt>
      <trkpt lat="47.31904" lon="6.81326">
        <ele>417.6</ele>
        <time>2021-07-29T15:17:51Z</time>
      </trkpt>
      <trkpt lat="47.31906" lon="6.81327">
        <ele>417.6</ele>
        <time>2021-07-29T15:17:52Z</time>
      </trkpt>
      <trkpt lat="47.31909" lon="6.81327">
        <ele>417.6</ele>
        <time>2021-07-29T15:17:53Z</time>
      </trkpt>
      <trkpt lat="47.31912" lon="6.81327">
        <ele>417.8</ele>
        <time>2021-07-29T15:17:54Z</time>
      </trkpt>
      <trkpt lat="47.31914" lon="6.81327">
        <ele>417.8</ele>
        <time>2021-07-29T15:17:55Z</time>
      </trkpt>
      <trkpt lat="47.31917" lon="6.81328">
        <ele>418</ele>
        <time>2021-07-29T15:17:56Z</time>
      </trkpt>
      <trkpt lat="47.31919" lon="6.81329">
        <ele>418</ele>
        <time>2021-07-29T15:17:57Z</time>
      </trkpt>
      <trkpt lat="47.31921" lon="6.81331">
        <ele>418.2</ele>
        <time>2021-07-29T15:17:58Z</time>
      </trkpt>
      <trkpt lat="47.31923" lon="6.81333">
        <ele>418.2</ele>
        <time>2021-07-29T15:17:59Z</time>
      </trkpt>
      <trkpt lat="47.31925" lon="6.81336">
        <ele>418.4</ele>
        <time>2021-07-29T15:18:00Z</time>
      </trkpt>
      <trkpt lat="47.31926" lon="6.81339">
        <ele>418.6</ele>
        <time>2021-07-29T15:18:01Z</time>
      </trkpt>
      <trkpt lat="47.31928" lon="6.81342">
        <ele>418.8</ele>
        <time>2021-07-29T15:18:02Z</time>
      </trkpt>
      <trkpt lat="47.31929" lon="6.81345">
        <ele>418.8</ele>
        <time>2021-07-29T15:18:03Z</time>
      </trkpt>
      <trkpt lat="47.31931" lon="6.81348">
        <ele>419</ele>
        <time>2021-07-29T15:18:04Z</time>
      </trkpt>
      <trkpt lat="47.31932" lon="6.81351">
        <ele>419.2</ele>
        <time>2021-07-29T15:18:05Z</time>
      </trkpt>
      <trkpt lat="47.31934" lon="6.81354">
        <ele>419.2</ele>
        <time>2021-07-29T15:18:06Z</time>
      </trkpt>
      <trkpt lat="47.31935" lon="6.81356">
        <ele>419.4</ele>
        <time>2021-07-29T15:18:07Z</time>
      </trkpt>
      <trkpt lat="47.31937" lon="6.81359">
        <ele>419.4</ele>
        <time>2021-07-29T15:18:08Z</time>
      </trkpt>
      <trkpt lat="47.31939" lon="6.81361">
        <ele>419.6</ele>
        <time>2021-07-29T15:18:09Z</time>
      </trkpt>
      <trkpt lat="47.3194" lon="6.81364">
        <ele>419.8</ele>
        <time>2021-07-29T15:18:10Z</time>
      </trkpt>
      <trkpt lat="47.31942" lon="6.81366">
        <ele>420</ele>
        <time>2021-07-29T15:18:11Z</time>
      </trkpt>
      <trkpt lat="47.31943" lon="6.81368">
        <ele>420</ele>
        <time>2021-07-29T15:18:12Z</time>
      </trkpt>
      <trkpt lat="47.31945" lon="6.81371">
        <ele>420</ele>
        <time>2021-07-29T15:18:13Z</time>
      </trkpt>
      <trkpt lat="47.31946" lon="6.81373">
        <ele>420.2</ele>
        <time>2021-07-29T15:18:14Z</time>
      </trkpt>
      <trkpt lat="47.31948" lon="6.81376">
        <ele>420.2</ele>
        <time>2021-07-29T15:18:15Z</time>
      </trkpt>
      <trkpt lat="47.31949" lon="6.81378">
        <ele>420.4</ele>
        <time>2021-07-29T15:18:16Z</time>
      </trkpt>
      <trkpt lat="47.31951" lon="6.81381">
        <ele>420.4</ele>
        <time>2021-07-29T15:18:17Z</time>
      </trkpt>
      <trkpt lat="47.31952" lon="6.81384">
        <ele>420.4</ele>
        <time>2021-07-29T15:18:18Z</time>
      </trkpt>
      <trkpt lat="47.31953" lon="6.81386">
        <ele>420.6</ele>
        <time>2021-07-29T15:18:19Z</time>
      </trkpt>
      <trkpt lat="47.31955" lon="6.81389">
        <ele>420.8</ele>
        <time>2021-07-29T15:18:20Z</time>
      </trkpt>
      <trkpt lat="47.31956" lon="6.81391">
        <ele>421.2</ele>
        <time>2021-07-29T15:18:21Z</time>
      </trkpt>
      <trkpt lat="47.31957" lon="6.81393">
        <ele>421.2</ele>
        <time>2021-07-29T15:18:22Z</time>
      </trkpt>
      <trkpt lat="47.31958" lon="6.81395">
        <ele>421.2</ele>
        <time>2021-07-29T15:18:23Z</time>
      </trkpt>
      <trkpt lat="47.3196" lon="6.81397">
        <ele>421.4</ele>
        <time>2021-07-29T15:18:24Z</time>
      </trkpt>
      <trkpt lat="47.31961" lon="6.814">
        <ele>421.4</ele>
        <time>2021-07-29T15:18:25Z</time>
      </trkpt>
      <trkpt lat="47.31962" lon="6.81402">
        <ele>421.6</ele>
        <time>2021-07-29T15:18:26Z</time>
      </trkpt>
      <trkpt lat="47.31964" lon="6.81404">
        <ele>421.6</ele>
        <time>2021-07-29T15:18:27Z</time>
      </trkpt>
      <trkpt lat="47.31965" lon="6.81406">
        <ele>421.8</ele>
        <time>2021-07-29T15:18:28Z</time>
      </trkpt>
      <trkpt lat="47.31966" lon="6.81409">
        <ele>421.8</ele>
        <time>2021-07-29T15:18:29Z</time>
      </trkpt>
      <trkpt lat="47.31968" lon="6.81411">
        <ele>422</ele>
        <time>2021-07-29T15:18:30Z</time>
      </trkpt>
      <trkpt lat="47.31969" lon="6.81414">
        <ele>422</ele>
        <time>2021-07-29T15:18:31Z</time>
      </trkpt>
      <trkpt lat="47.3197" lon="6.81416">
        <ele>422.2</ele>
        <time>2021-07-29T15:18:32Z</time>
      </trkpt>
      <trkpt lat="47.31971" lon="6.81419">
        <ele>422.2</ele>
        <time>2021-07-29T15:18:33Z</time>
      </trkpt>
      <trkpt lat="47.31972" lon="6.81421">
        <ele>422.4</ele>
        <time>2021-07-29T15:18:34Z</time>
      </trkpt>
      <trkpt lat="47.31974" lon="6.81424">
        <ele>422.4</ele>
        <time>2021-07-29T15:18:35Z</time>
      </trkpt>
      <trkpt lat="47.31975" lon="6.81426">
        <ele>422.4</ele>
        <time>2021-07-29T15:18:36Z</time>
      </trkpt>
      <trkpt lat="47.31976" lon="6.81429">
        <ele>422.6</ele>
        <time>2021-07-29T15:18:37Z</time>
      </trkpt>
      <trkpt lat="47.31977" lon="6.81431">
        <ele>422.6</ele>
        <time>2021-07-29T15:18:38Z</time>
      </trkpt>
      <trkpt lat="47.31979" lon="6.81433">
        <ele>422.8</ele>
        <time>2021-07-29T15:18:39Z</time>
      </trkpt>
      <trkpt lat="47.3198" lon="6.81435">
        <ele>422.8</ele>
        <time>2021-07-29T15:18:40Z</time>
      </trkpt>
      <trkpt lat="47.31981" lon="6.81438">
        <ele>423</ele>
        <time>2021-07-29T15:18:41Z</time>
      </trkpt>
      <trkpt lat="47.31982" lon="6.81441">
        <ele>423</ele>
        <time>2021-07-29T15:18:42Z</time>
      </trkpt>
      <trkpt lat="47.31983" lon="6.81443">
        <ele>423</ele>
        <time>2021-07-29T15:18:43Z</time>
      </trkpt>
      <trkpt lat="47.31985" lon="6.81446">
        <ele>423.2</ele>
        <time>2021-07-29T15:18:44Z</time>
      </trkpt>
      <trkpt lat="47.31986" lon="6.81449">
        <ele>423.2</ele>
        <time>2021-07-29T15:18:45Z</time>
      </trkpt>
      <trkpt lat="47.31987" lon="6.81451">
        <ele>423.4</ele>
        <time>2021-07-29T15:18:46Z</time>
      </trkpt>
      <trkpt lat="47.31988" lon="6.81453">
        <ele>423.4</ele>
        <time>2021-07-29T15:18:47Z</time>
      </trkpt>
      <trkpt lat="47.31989" lon="6.81456">
        <ele>423.6</ele>
        <time>2021-07-29T15:18:48Z</time>
      </trkpt>
      <trkpt lat="47.3199" lon="6.81458">
        <ele>423.6</ele>
        <time>2021-07-29T15:18:49Z</time>
      </trkpt>
      <trkpt lat="47.31991" lon="6.81461">
        <ele>423.8</ele>
        <time>2021-07-29T15:18:50Z</time>
      </trkpt>
      <trkpt lat="47.31993" lon="6.81463">
        <ele>423.8</ele>
        <time>2021-07-29T15:18:51Z</time>
      </trkpt>
      <trkpt lat="47.31994" lon="6.81465">
        <ele>424</ele>
        <time>2021-07-29T15:18:52Z</time>
      </trkpt>
      <trkpt lat="47.31995" lon="6.81468">
        <ele>424</ele>
        <time>2021-07-29T15:18:53Z</time>
      </trkpt>
      <trkpt lat="47.31996" lon="6.8147">
        <ele>424.2</ele>
        <time>2021-07-29T15:18:54Z</time>
      </trkpt>
      <trkpt lat="47.31996" lon="6.81473">
        <ele>424.4</ele>
        <time>2021-07-29T15:18:55Z</time>
      </trkpt>
      <trkpt lat="47.31997" lon="6.81476">
        <ele>424.6</ele>
        <time>2021-07-29T15:18:56Z</time>
      </trkpt>
      <trkpt lat="47.31998" lon="6.81478">
        <ele>424.6</ele>
        <time>2021-07-29T15:18:57Z</time>
      </trkpt>
      <trkpt lat="47.31999" lon="6.81481">
        <ele>424.6</ele>
        <time>2021-07-29T15:18:58Z</time>
      </trkpt>
      <trkpt lat="47.31999" lon="6.81484">
        <ele>424.8</ele>
        <time>2021-07-29T15:18:59Z</time>
      </trkpt>
      <trkpt lat="47.32" lon="6.81486">
        <ele>424.8</ele>
        <time>2021-07-29T15:19:00Z</time>
      </trkpt>
      <trkpt lat="47.32001" lon="6.81488">
        <ele>424.8</ele>
        <time>2021-07-29T15:19:01Z</time>
      </trkpt>
      <trkpt lat="47.32002" lon="6.8149">
        <ele>424.8</ele>
        <time>2021-07-29T15:19:02Z</time>
      </trkpt>
      <trkpt lat="47.32004" lon="6.81492">
        <ele>425</ele>
        <time>2021-07-29T15:19:03Z</time>
      </trkpt>
      <trkpt lat="47.32006" lon="6.81494">
        <ele>425</ele>
        <time>2021-07-29T15:19:04Z</time>
      </trkpt>
      <trkpt lat="47.32008" lon="6.81495">
        <ele>425</ele>
        <time>2021-07-29T15:19:05Z</time>
      </trkpt>
      <trkpt lat="47.3201" lon="6.81495">
        <ele>425</ele>
        <time>2021-07-29T15:19:06Z</time>
      </trkpt>
      <trkpt lat="47.32012" lon="6.81493">
        <ele>425</ele>
        <time>2021-07-29T15:19:07Z</time>
      </trkpt>
      <trkpt lat="47.32014" lon="6.81492">
        <ele>425</ele>
        <time>2021-07-29T15:19:08Z</time>
      </trkpt>
      <trkpt lat="47.32016" lon="6.8149">
        <ele>425</ele>
        <time>2021-07-29T15:19:09Z</time>
      </trkpt>
      <trkpt lat="47.32018" lon="6.8149">
        <ele>425</ele>
        <time>2021-07-29T15:19:10Z</time>
      </trkpt>
      <trkpt lat="47.3202" lon="6.8149">
        <ele>425</ele>
        <time>2021-07-29T15:19:11Z</time>
      </trkpt>
      <trkpt lat="47.32022" lon="6.81491">
        <ele>425.2</ele>
        <time>2021-07-29T15:19:12Z</time>
      </trkpt>
      <trkpt lat="47.32023" lon="6.81494">
        <ele>425.2</ele>
        <time>2021-07-29T15:19:13Z</time>
      </trkpt>
      <trkpt lat="47.32024" lon="6.81496">
        <ele>425.4</ele>
        <time>2021-07-29T15:19:14Z</time>
      </trkpt>
      <trkpt lat="47.32024" lon="6.81498">
        <ele>425.6</ele>
        <time>2021-07-29T15:19:15Z</time>
      </trkpt>
      <trkpt lat="47.32025" lon="6.81501">
        <ele>425.6</ele>
        <time>2021-07-29T15:19:16Z</time>
      </trkpt>
      <trkpt lat="47.32026" lon="6.81503">
        <ele>425.6</ele>
        <time>2021-07-29T15:19:17Z</time>
      </trkpt>
      <trkpt lat="47.32027" lon="6.81505">
        <ele>425.6</ele>
        <time>2021-07-29T15:19:18Z</time>
      </trkpt>
      <trkpt lat="47.32028" lon="6.81505">
        <ele>425.6</ele>
        <time>2021-07-29T15:19:19Z</time>
      </trkpt>
      <trkpt lat="47.3203" lon="6.81507">
        <ele>425.8</ele>
        <time>2021-07-29T15:19:20Z</time>
      </trkpt>
      <trkpt lat="47.32032" lon="6.81507">
        <ele>425.8</ele>
        <time>2021-07-29T15:19:21Z</time>
      </trkpt>
      <trkpt lat="47.32033" lon="6.81508">
        <ele>425.8</ele>
        <time>2021-07-29T15:19:22Z</time>
      </trkpt>
      <trkpt lat="47.32035" lon="6.81508">
        <ele>425.8</ele>
        <time>2021-07-29T15:19:23Z</time>
      </trkpt>
      <trkpt lat="47.32037" lon="6.81509">
        <ele>426</ele>
        <time>2021-07-29T15:19:24Z</time>
      </trkpt>
      <trkpt lat="47.32038" lon="6.81509">
        <ele>426</ele>
        <time>2021-07-29T15:19:25Z</time>
      </trkpt>
      <trkpt lat="47.32039" lon="6.81509">
        <ele>426</ele>
        <time>2021-07-29T15:19:26Z</time>
      </trkpt>
      <trkpt lat="47.3204" lon="6.81509">
        <ele>426.2</ele>
        <time>2021-07-29T15:19:27Z</time>
      </trkpt>
      <trkpt lat="47.32041" lon="6.81508">
        <ele>426.2</ele>
        <time>2021-07-29T15:19:28Z</time>
      </trkpt>
      <trkpt lat="47.32041" lon="6.81507">
        <ele>426.2</ele>
        <time>2021-07-29T15:19:29Z</time>
      </trkpt>
      <trkpt lat="47.3204" lon="6.81507">
        <ele>426.2</ele>
        <time>2021-07-29T15:19:30Z</time>
      </trkpt>
      <trkpt lat="47.3204" lon="6.81507">
        <ele>426.2</ele>
        <time>2021-07-29T15:19:31Z</time>
      </trkpt>
      <trkpt lat="47.3204" lon="6.81507">
        <ele>426.2</ele>
        <time>2021-07-29T15:19:32Z</time>
      </trkpt>
      <trkpt lat="47.3204" lon="6.81507">
        <ele>426.2</ele>
        <time>2021-07-29T15:19:33Z</time>
      </trkpt>
      <trkpt lat="47.32041" lon="6.81506">
        <ele>426.2</ele>
        <time>2021-07-29T15:19:34Z</time>
      </trkpt>
      <trkpt lat="47.3204" lon="6.81506">
        <ele>426.2</ele>
        <time>2021-07-29T15:19:35Z</time>
      </trkpt>
      <trkpt lat="47.3204" lon="6.81506">
        <ele>426.2</ele>
        <time>2021-07-29T15:19:36Z</time>
      </trkpt>
      <trkpt lat="47.32028" lon="6.81501">
        <ele>427.4</ele>
        <time>2021-07-29T15:48:12Z</time>
      </trkpt>
      <trkpt lat="47.32027" lon="6.81498">
        <ele>427.2</ele>
        <time>2021-07-29T15:48:13Z</time>
      </trkpt>
      <trkpt lat="47.32025" lon="6.81495">
        <ele>427.2</ele>
        <time>2021-07-29T15:48:14Z</time>
      </trkpt>
      <trkpt lat="47.32024" lon="6.81491">
        <ele>427</ele>
        <time>2021-07-29T15:48:15Z</time>
      </trkpt>
      <trkpt lat="47.32023" lon="6.81488">
        <ele>427</ele>
        <time>2021-07-29T15:48:16Z</time>
      </trkpt>
      <trkpt lat="47.32021" lon="6.81485">
        <ele>426.8</ele>
        <time>2021-07-29T15:48:17Z</time>
      </trkpt>
      <trkpt lat="47.3202" lon="6.81482">
        <ele>426.6</ele>
        <time>2021-07-29T15:48:18Z</time>
      </trkpt>
      <trkpt lat="47.32018" lon="6.8148">
        <ele>426.6</ele>
        <time>2021-07-29T15:48:19Z</time>
      </trkpt>
      <trkpt lat="47.32017" lon="6.81477">
        <ele>426.4</ele>
        <time>2021-07-29T15:48:20Z</time>
      </trkpt>
      <trkpt lat="47.32015" lon="6.81475">
        <ele>426.4</ele>
        <time>2021-07-29T15:48:21Z</time>
      </trkpt>
      <trkpt lat="47.32013" lon="6.81475">
        <ele>426.2</ele>
        <time>2021-07-29T15:48:22Z</time>
      </trkpt>
      <trkpt lat="47.3201" lon="6.81474">
        <ele>426.2</ele>
        <time>2021-07-29T15:48:23Z</time>
      </trkpt>
      <trkpt lat="47.32007" lon="6.81473">
        <ele>426.2</ele>
        <time>2021-07-29T15:48:24Z</time>
      </trkpt>
      <trkpt lat="47.32004" lon="6.81471">
        <ele>426.2</ele>
        <time>2021-07-29T15:48:25Z</time>
      </trkpt>
      <trkpt lat="47.32002" lon="6.81468">
        <ele>426</ele>
        <time>2021-07-29T15:48:26Z</time>
      </trkpt>
      <trkpt lat="47.31999" lon="6.81464">
        <ele>425.8</ele>
        <time>2021-07-29T15:48:27Z</time>
      </trkpt>
      <trkpt lat="47.31997" lon="6.81459">
        <ele>425.6</ele>
        <time>2021-07-29T15:48:28Z</time>
      </trkpt>
      <trkpt lat="47.31994" lon="6.81454">
        <ele>425.4</ele>
        <time>2021-07-29T15:48:29Z</time>
      </trkpt>
      <trkpt lat="47.31991" lon="6.81449">
        <ele>425.2</ele>
        <time>2021-07-29T15:48:30Z</time>
      </trkpt>
      <trkpt lat="47.31988" lon="6.81444">
        <ele>425</ele>
        <time>2021-07-29T15:48:31Z</time>
      </trkpt>
      <trkpt lat="47.31985" lon="6.81438">
        <ele>424.8</ele>
        <time>2021-07-29T15:48:32Z</time>
      </trkpt>
      <trkpt lat="47.31981" lon="6.81432">
        <ele>424.6</ele>
        <time>2021-07-29T15:48:33Z</time>
      </trkpt>
      <trkpt lat="47.31978" lon="6.81425">
        <ele>424.4</ele>
        <time>2021-07-29T15:48:34Z</time>
      </trkpt>
      <trkpt lat="47.31974" lon="6.81418">
        <ele>424.2</ele>
        <time>2021-07-29T15:48:35Z</time>
      </trkpt>
      <trkpt lat="47.3197" lon="6.81411">
        <ele>423.8</ele>
        <time>2021-07-29T15:48:36Z</time>
      </trkpt>
      <trkpt lat="47.31966" lon="6.81403">
        <ele>423.6</ele>
        <time>2021-07-29T15:48:37Z</time>
      </trkpt>
      <trkpt lat="47.31961" lon="6.81396">
        <ele>423.4</ele>
        <time>2021-07-29T15:48:38Z</time>
      </trkpt>
      <trkpt lat="47.31957" lon="6.81388">
        <ele>423</ele>
        <time>2021-07-29T15:48:39Z</time>
      </trkpt>
      <trkpt lat="47.31953" lon="6.81381">
        <ele>422.8</ele>
        <time>2021-07-29T15:48:40Z</time>
      </trkpt>
      <trkpt lat="47.31949" lon="6.81374">
        <ele>422.4</ele>
        <time>2021-07-29T15:48:41Z</time>
      </trkpt>
      <trkpt lat="47.31945" lon="6.81367">
        <ele>422.2</ele>
        <time>2021-07-29T15:48:42Z</time>
      </trkpt>
      <trkpt lat="47.31941" lon="6.81361">
        <ele>421.8</ele>
        <time>2021-07-29T15:48:43Z</time>
      </trkpt>
      <trkpt lat="47.31937" lon="6.81355">
        <ele>421.6</ele>
        <time>2021-07-29T15:48:44Z</time>
      </trkpt>
      <trkpt lat="47.31935" lon="6.8135">
        <ele>421.4</ele>
        <time>2021-07-29T15:48:45Z</time>
      </trkpt>
      <trkpt lat="47.31933" lon="6.81346">
        <ele>421.2</ele>
        <time>2021-07-29T15:48:46Z</time>
      </trkpt>
      <trkpt lat="47.31931" lon="6.81342">
        <ele>421</ele>
        <time>2021-07-29T15:48:47Z</time>
      </trkpt>
      <trkpt lat="47.3193" lon="6.81338">
        <ele>420.8</ele>
        <time>2021-07-29T15:48:48Z</time>
      </trkpt>
      <trkpt lat="47.31928" lon="6.81334">
        <ele>420.6</ele>
        <time>2021-07-29T15:48:49Z</time>
      </trkpt>
      <trkpt lat="47.31925" lon="6.81329">
        <ele>420.4</ele>
        <time>2021-07-29T15:48:50Z</time>
      </trkpt>
      <trkpt lat="47.31922" lon="6.81325">
        <ele>420.4</ele>
        <time>2021-07-29T15:48:51Z</time>
      </trkpt>
      <trkpt lat="47.31919" lon="6.81322">
        <ele>420.2</ele>
        <time>2021-07-29T15:48:52Z</time>
      </trkpt>
      <trkpt lat="47.31914" lon="6.81319">
        <ele>420</ele>
        <time>2021-07-29T15:48:53Z</time>
      </trkpt>
      <trkpt lat="47.3191" lon="6.81316">
        <ele>420</ele>
        <time>2021-07-29T15:48:54Z</time>
      </trkpt>
      <trkpt lat="47.31906" lon="6.81311">
        <ele>419.8</ele>
        <time>2021-07-29T15:48:55Z</time>
      </trkpt>
      <trkpt lat="47.31901" lon="6.81307">
        <ele>419.8</ele>
        <time>2021-07-29T15:48:56Z</time>
      </trkpt>
      <trkpt lat="47.31896" lon="6.81303">
        <ele>419.8</ele>
        <time>2021-07-29T15:48:57Z</time>
      </trkpt>
      <trkpt lat="47.31891" lon="6.81299">
        <ele>419.8</ele>
        <time>2021-07-29T15:48:58Z</time>
      </trkpt>
      <trkpt lat="47.31887" lon="6.81296">
        <ele>419.8</ele>
        <time>2021-07-29T15:48:59Z</time>
      </trkpt>
      <trkpt lat="47.31882" lon="6.81293">
        <ele>420.2</ele>
        <time>2021-07-29T15:49:00Z</time>
      </trkpt>
      <trkpt lat="47.31878" lon="6.8129">
        <ele>420.4</ele>
        <time>2021-07-29T15:49:01Z</time>
      </trkpt>
      <trkpt lat="47.31874" lon="6.81287">
        <ele>420.4</ele>
        <time>2021-07-29T15:49:02Z</time>
      </trkpt>
      <trkpt lat="47.3187" lon="6.81285">
        <ele>420.6</ele>
        <time>2021-07-29T15:49:03Z</time>
      </trkpt>
      <trkpt lat="47.31866" lon="6.81282">
        <ele>420.8</ele>
        <time>2021-07-29T15:49:04Z</time>
      </trkpt>
      <trkpt lat="47.31862" lon="6.81279">
        <ele>421</ele>
        <time>2021-07-29T15:49:05Z</time>
      </trkpt>
      <trkpt lat="47.31859" lon="6.81277">
        <ele>421.2</ele>
        <time>2021-07-29T15:49:06Z</time>
      </trkpt>
      <trkpt lat="47.31855" lon="6.81275">
        <ele>421.4</ele>
        <time>2021-07-29T15:49:07Z</time>
      </trkpt>
      <trkpt lat="47.31852" lon="6.81272">
        <ele>421.4</ele>
        <time>2021-07-29T15:49:08Z</time>
      </trkpt>
      <trkpt lat="47.31848" lon="6.8127">
        <ele>421.6</ele>
        <time>2021-07-29T15:49:09Z</time>
      </trkpt>
      <trkpt lat="47.31845" lon="6.81268">
        <ele>421.6</ele>
        <time>2021-07-29T15:49:10Z</time>
      </trkpt>
      <trkpt lat="47.31842" lon="6.81266">
        <ele>421.8</ele>
        <time>2021-07-29T15:49:11Z</time>
      </trkpt>
      <trkpt lat="47.31839" lon="6.81264">
        <ele>422</ele>
        <time>2021-07-29T15:49:12Z</time>
      </trkpt>
      <trkpt lat="47.31836" lon="6.81261">
        <ele>422.2</ele>
        <time>2021-07-29T15:49:13Z</time>
      </trkpt>
      <trkpt lat="47.31833" lon="6.81259">
        <ele>422.2</ele>
        <time>2021-07-29T15:49:14Z</time>
      </trkpt>
      <trkpt lat="47.3183" lon="6.81257">
        <ele>422.4</ele>
        <time>2021-07-29T15:49:15Z</time>
      </trkpt>
      <trkpt lat="47.31828" lon="6.81255">
        <ele>422.4</ele>
        <time>2021-07-29T15:49:16Z</time>
      </trkpt>
      <trkpt lat="47.31826" lon="6.81254">
        <ele>422.6</ele>
        <time>2021-07-29T15:49:17Z</time>
      </trkpt>
      <trkpt lat="47.31824" lon="6.81252">
        <ele>422.8</ele>
        <time>2021-07-29T15:49:18Z</time>
      </trkpt>
      <trkpt lat="47.31822" lon="6.8125">
        <ele>422.8</ele>
        <time>2021-07-29T15:49:19Z</time>
      </trkpt>
      <trkpt lat="47.3182" lon="6.81249">
        <ele>422.8</ele>
        <time>2021-07-29T15:49:20Z</time>
      </trkpt>
      <trkpt lat="47.31819" lon="6.81247">
        <ele>423.2</ele>
        <time>2021-07-29T15:49:21Z</time>
      </trkpt>
      <trkpt lat="47.31817" lon="6.81247">
        <ele>423.2</ele>
        <time>2021-07-29T15:49:22Z</time>
      </trkpt>
      <trkpt lat="47.31815" lon="6.81249">
        <ele>423.2</ele>
        <time>2021-07-29T15:49:23Z</time>
      </trkpt>
      <trkpt lat="47.31813" lon="6.81252">
        <ele>423.2</ele>
        <time>2021-07-29T15:49:24Z</time>
      </trkpt>
      <trkpt lat="47.31812" lon="6.81255">
        <ele>423.2</ele>
        <time>2021-07-29T15:49:25Z</time>
      </trkpt>
      <trkpt lat="47.3181" lon="6.81258">
        <ele>423.2</ele>
        <time>2021-07-29T15:49:26Z</time>
      </trkpt>
      <trkpt lat="47.3181" lon="6.81261">
        <ele>423.2</ele>
        <time>2021-07-29T15:49:27Z</time>
      </trkpt>
      <trkpt lat="47.31809" lon="6.81264">
        <ele>423.4</ele>
        <time>2021-07-29T15:49:28Z</time>
      </trkpt>
      <trkpt lat="47.31808" lon="6.81268">
        <ele>423.4</ele>
        <time>2021-07-29T15:49:29Z</time>
      </trkpt>
      <trkpt lat="47.31808" lon="6.81272">
        <ele>423.4</ele>
        <time>2021-07-29T15:49:30Z</time>
      </trkpt>
      <trkpt lat="47.31807" lon="6.81275">
        <ele>423.6</ele>
        <time>2021-07-29T15:49:31Z</time>
      </trkpt>
      <trkpt lat="47.31807" lon="6.81279">
        <ele>423.6</ele>
        <time>2021-07-29T15:49:32Z</time>
      </trkpt>
      <trkpt lat="47.31806" lon="6.81282">
        <ele>423.8</ele>
        <time>2021-07-29T15:49:33Z</time>
      </trkpt>
      <trkpt lat="47.31806" lon="6.81286">
        <ele>423.8</ele>
        <time>2021-07-29T15:49:34Z</time>
      </trkpt>
      <trkpt lat="47.31806" lon="6.81289">
        <ele>423.8</ele>
        <time>2021-07-29T15:49:35Z</time>
      </trkpt>
      <trkpt lat="47.31805" lon="6.81292">
        <ele>424</ele>
        <time>2021-07-29T15:49:36Z</time>
      </trkpt>
      <trkpt lat="47.31803" lon="6.81295">
        <ele>424</ele>
        <time>2021-07-29T15:49:37Z</time>
      </trkpt>
      <trkpt lat="47.31801" lon="6.81297">
        <ele>424.2</ele>
        <time>2021-07-29T15:49:38Z</time>
      </trkpt>
      <trkpt lat="47.31799" lon="6.81299">
        <ele>424.4</ele>
        <time>2021-07-29T15:49:39Z</time>
      </trkpt>
      <trkpt lat="47.31797" lon="6.81301">
        <ele>424.6</ele>
        <time>2021-07-29T15:49:40Z</time>
      </trkpt>
      <trkpt lat="47.31795" lon="6.81302">
        <ele>424.8</ele>
        <time>2021-07-29T15:49:41Z</time>
      </trkpt>
      <trkpt lat="47.31794" lon="6.81304">
        <ele>425</ele>
        <time>2021-07-29T15:49:42Z</time>
      </trkpt>
      <trkpt lat="47.31792" lon="6.81305">
        <ele>425</ele>
        <time>2021-07-29T15:49:43Z</time>
      </trkpt>
      <trkpt lat="47.31791" lon="6.81307">
        <ele>425.2</ele>
        <time>2021-07-29T15:49:44Z</time>
      </trkpt>
      <trkpt lat="47.31789" lon="6.81308">
        <ele>425.2</ele>
        <time>2021-07-29T15:49:45Z</time>
      </trkpt>
      <trkpt lat="47.31788" lon="6.8131">
        <ele>425.2</ele>
        <time>2021-07-29T15:49:46Z</time>
      </trkpt>
      <trkpt lat="47.31788" lon="6.81314">
        <ele>425.4</ele>
        <time>2021-07-29T15:49:47Z</time>
      </trkpt>
      <trkpt lat="47.31788" lon="6.81317">
        <ele>425.4</ele>
        <time>2021-07-29T15:49:48Z</time>
      </trkpt>
      <trkpt lat="47.31788" lon="6.81322">
        <ele>425.6</ele>
        <time>2021-07-29T15:49:49Z</time>
      </trkpt>
      <trkpt lat="47.31788" lon="6.81327">
        <ele>425.6</ele>
        <time>2021-07-29T15:49:50Z</time>
      </trkpt>
      <trkpt lat="47.31788" lon="6.8133">
        <ele>425.6</ele>
        <time>2021-07-29T15:49:51Z</time>
      </trkpt>
      <trkpt lat="47.31788" lon="6.81334">
        <ele>425.6</ele>
        <time>2021-07-29T15:49:52Z</time>
      </trkpt>
      <trkpt lat="47.31787" lon="6.81338">
        <ele>426</ele>
        <time>2021-07-29T15:49:53Z</time>
      </trkpt>
      <trkpt lat="47.31787" lon="6.81341">
        <ele>426</ele>
        <time>2021-07-29T15:49:54Z</time>
      </trkpt>
      <trkpt lat="47.31787" lon="6.81344">
        <ele>426.2</ele>
        <time>2021-07-29T15:49:55Z</time>
      </trkpt>
      <trkpt lat="47.31786" lon="6.81347">
        <ele>426.4</ele>
        <time>2021-07-29T15:49:56Z</time>
      </trkpt>
      <trkpt lat="47.31785" lon="6.8135">
        <ele>426.6</ele>
        <time>2021-07-29T15:49:57Z</time>
      </trkpt>
      <trkpt lat="47.31785" lon="6.81353">
        <ele>426.8</ele>
        <time>2021-07-29T15:49:58Z</time>
      </trkpt>
      <trkpt lat="47.31784" lon="6.81356">
        <ele>427</ele>
        <time>2021-07-29T15:49:59Z</time>
      </trkpt>
      <trkpt lat="47.31784" lon="6.81358">
        <ele>427</ele>
        <time>2021-07-29T15:50:00Z</time>
      </trkpt>
      <trkpt lat="47.31784" lon="6.81361">
        <ele>427.2</ele>
        <time>2021-07-29T15:50:01Z</time>
      </trkpt>
      <trkpt lat="47.31783" lon="6.81364">
        <ele>427.4</ele>
        <time>2021-07-29T15:50:02Z</time>
      </trkpt>
      <trkpt lat="47.31783" lon="6.81368">
        <ele>427.6</ele>
        <time>2021-07-29T15:50:03Z</time>
      </trkpt>
      <trkpt lat="47.31783" lon="6.81371">
        <ele>427.8</ele>
        <time>2021-07-29T15:50:04Z</time>
      </trkpt>
      <trkpt lat="47.31782" lon="6.81374">
        <ele>427.8</ele>
        <time>2021-07-29T15:50:05Z</time>
      </trkpt>
      <trkpt lat="47.31782" lon="6.81377">
        <ele>428</ele>
        <time>2021-07-29T15:50:06Z</time>
      </trkpt>
      <trkpt lat="47.31782" lon="6.8138">
        <ele>428</ele>
        <time>2021-07-29T15:50:07Z</time>
      </trkpt>
      <trkpt lat="47.31782" lon="6.81382">
        <ele>428</ele>
        <time>2021-07-29T15:50:08Z</time>
      </trkpt>
      <trkpt lat="47.31783" lon="6.81385">
        <ele>428.2</ele>
        <time>2021-07-29T15:50:09Z</time>
      </trkpt>
      <trkpt lat="47.31783" lon="6.81387">
        <ele>428.2</ele>
        <time>2021-07-29T15:50:10Z</time>
      </trkpt>
      <trkpt lat="47.31783" lon="6.81391">
        <ele>428.4</ele>
        <time>2021-07-29T15:50:11Z</time>
      </trkpt>
      <trkpt lat="47.31783" lon="6.81394">
        <ele>428.6</ele>
        <time>2021-07-29T15:50:12Z</time>
      </trkpt>
      <trkpt lat="47.31783" lon="6.81397">
        <ele>428.6</ele>
        <time>2021-07-29T15:50:13Z</time>
      </trkpt>
      <trkpt lat="47.31784" lon="6.81399">
        <ele>428.8</ele>
        <time>2021-07-29T15:50:14Z</time>
      </trkpt>
      <trkpt lat="47.31784" lon="6.81402">
        <ele>428.8</ele>
        <time>2021-07-29T15:50:15Z</time>
      </trkpt>
      <trkpt lat="47.31784" lon="6.81405">
        <ele>429</ele>
        <time>2021-07-29T15:50:16Z</time>
      </trkpt>
      <trkpt lat="47.31784" lon="6.81408">
        <ele>429</ele>
        <time>2021-07-29T15:50:17Z</time>
      </trkpt>
      <trkpt lat="47.31784" lon="6.8141">
        <ele>429.2</ele>
        <time>2021-07-29T15:50:18Z</time>
      </trkpt>
      <trkpt lat="47.31784" lon="6.81413">
        <ele>429.2</ele>
        <time>2021-07-29T15:50:19Z</time>
      </trkpt>
      <trkpt lat="47.31784" lon="6.81416">
        <ele>429.4</ele>
        <time>2021-07-29T15:50:20Z</time>
      </trkpt>
      <trkpt lat="47.31784" lon="6.81419">
        <ele>429.4</ele>
        <time>2021-07-29T15:50:21Z</time>
      </trkpt>
      <trkpt lat="47.31784" lon="6.81422">
        <ele>429.4</ele>
        <time>2021-07-29T15:50:22Z</time>
      </trkpt>
      <trkpt lat="47.31784" lon="6.81425">
        <ele>429.6</ele>
        <time>2021-07-29T15:50:23Z</time>
      </trkpt>
      <trkpt lat="47.31784" lon="6.81428">
        <ele>429.6</ele>
        <time>2021-07-29T15:50:24Z</time>
      </trkpt>
      <trkpt lat="47.31784" lon="6.81432">
        <ele>429.8</ele>
        <time>2021-07-29T15:50:25Z</time>
      </trkpt>
      <trkpt lat="47.31785" lon="6.81435">
        <ele>429.8</ele>
        <time>2021-07-29T15:50:26Z</time>
      </trkpt>
      <trkpt lat="47.31785" lon="6.81438">
        <ele>430</ele>
        <time>2021-07-29T15:50:27Z</time>
      </trkpt>
      <trkpt lat="47.31786" lon="6.81441">
        <ele>430</ele>
        <time>2021-07-29T15:50:28Z</time>
      </trkpt>
      <trkpt lat="47.31786" lon="6.81444">
        <ele>430.2</ele>
        <time>2021-07-29T15:50:29Z</time>
      </trkpt>
      <trkpt lat="47.31786" lon="6.81448">
        <ele>430.2</ele>
        <time>2021-07-29T15:50:30Z</time>
      </trkpt>
      <trkpt lat="47.31786" lon="6.81451">
        <ele>430.2</ele>
        <time>2021-07-29T15:50:31Z</time>
      </trkpt>
      <trkpt lat="47.31786" lon="6.81455">
        <ele>430.2</ele>
        <time>2021-07-29T15:50:32Z</time>
      </trkpt>
      <trkpt lat="47.31786" lon="6.81458">
        <ele>430.4</ele>
        <time>2021-07-29T15:50:33Z</time>
      </trkpt>
      <trkpt lat="47.31787" lon="6.81462">
        <ele>430.4</ele>
        <time>2021-07-29T15:50:34Z</time>
      </trkpt>
      <trkpt lat="47.31787" lon="6.81466">
        <ele>430.4</ele>
        <time>2021-07-29T15:50:35Z</time>
      </trkpt>
      <trkpt lat="47.31787" lon="6.81469">
        <ele>430.4</ele>
        <time>2021-07-29T15:50:36Z</time>
      </trkpt>
      <trkpt lat="47.31788" lon="6.81474">
        <ele>430.6</ele>
        <time>2021-07-29T15:50:37Z</time>
      </trkpt>
      <trkpt lat="47.31788" lon="6.81478">
        <ele>430.4</ele>
        <time>2021-07-29T15:50:38Z</time>
      </trkpt>
      <trkpt lat="47.31788" lon="6.81482">
        <ele>430.4</ele>
        <time>2021-07-29T15:50:39Z</time>
      </trkpt>
      <trkpt lat="47.31789" lon="6.81486">
        <ele>430.6</ele>
        <time>2021-07-29T15:50:40Z</time>
      </trkpt>
      <trkpt lat="47.3179" lon="6.81489">
        <ele>430.6</ele>
        <time>2021-07-29T15:50:41Z</time>
      </trkpt>
      <trkpt lat="47.3179" lon="6.81493">
        <ele>430.6</ele>
        <time>2021-07-29T15:50:42Z</time>
      </trkpt>
      <trkpt lat="47.31791" lon="6.81497">
        <ele>430.8</ele>
        <time>2021-07-29T15:50:43Z</time>
      </trkpt>
      <trkpt lat="47.31791" lon="6.81501">
        <ele>430.8</ele>
        <time>2021-07-29T15:50:44Z</time>
      </trkpt>
      <trkpt lat="47.31792" lon="6.81505">
        <ele>430.8</ele>
        <time>2021-07-29T15:50:45Z</time>
      </trkpt>
      <trkpt lat="47.31792" lon="6.81508">
        <ele>430.8</ele>
        <time>2021-07-29T15:50:46Z</time>
      </trkpt>
      <trkpt lat="47.31792" lon="6.81511">
        <ele>430.8</ele>
        <time>2021-07-29T15:50:47Z</time>
      </trkpt>
      <trkpt lat="47.31793" lon="6.81515">
        <ele>430.8</ele>
        <time>2021-07-29T15:50:48Z</time>
      </trkpt>
      <trkpt lat="47.31794" lon="6.81519">
        <ele>430.8</ele>
        <time>2021-07-29T15:50:49Z</time>
      </trkpt>
      <trkpt lat="47.31794" lon="6.81524">
        <ele>430.8</ele>
        <time>2021-07-29T15:50:50Z</time>
      </trkpt>
      <trkpt lat="47.31794" lon="6.81528">
        <ele>430.8</ele>
        <time>2021-07-29T15:50:51Z</time>
      </trkpt>
      <trkpt lat="47.31795" lon="6.81533">
        <ele>430.8</ele>
        <time>2021-07-29T15:50:52Z</time>
      </trkpt>
      <trkpt lat="47.31796" lon="6.81538">
        <ele>430.8</ele>
        <time>2021-07-29T15:50:53Z</time>
      </trkpt>
      <trkpt lat="47.31796" lon="6.81544">
        <ele>430.6</ele>
        <time>2021-07-29T15:50:54Z</time>
      </trkpt>
      <trkpt lat="47.31797" lon="6.81549">
        <ele>430.6</ele>
        <time>2021-07-29T15:50:55Z</time>
      </trkpt>
      <trkpt lat="47.31798" lon="6.81555">
        <ele>430.6</ele>
        <time>2021-07-29T15:50:56Z</time>
      </trkpt>
      <trkpt lat="47.31798" lon="6.81561">
        <ele>430.4</ele>
        <time>2021-07-29T15:50:57Z</time>
      </trkpt>
      <trkpt lat="47.31799" lon="6.81567">
        <ele>430.4</ele>
        <time>2021-07-29T15:50:58Z</time>
      </trkpt>
      <trkpt lat="47.31799" lon="6.81573">
        <ele>430.4</ele>
        <time>2021-07-29T15:50:59Z</time>
      </trkpt>
      <trkpt lat="47.31799" lon="6.8158">
        <ele>430.4</ele>
        <time>2021-07-29T15:51:00Z</time>
      </trkpt>
      <trkpt lat="47.318" lon="6.81586">
        <ele>430.4</ele>
        <time>2021-07-29T15:51:01Z</time>
      </trkpt>
      <trkpt lat="47.318" lon="6.81593">
        <ele>430.2</ele>
        <time>2021-07-29T15:51:02Z</time>
      </trkpt>
      <trkpt lat="47.318" lon="6.81599">
        <ele>430.2</ele>
        <time>2021-07-29T15:51:03Z</time>
      </trkpt>
      <trkpt lat="47.318" lon="6.81606">
        <ele>430.2</ele>
        <time>2021-07-29T15:51:04Z</time>
      </trkpt>
      <trkpt lat="47.318" lon="6.81612">
        <ele>430.2</ele>
        <time>2021-07-29T15:51:05Z</time>
      </trkpt>
      <trkpt lat="47.31801" lon="6.81619">
        <ele>430</ele>
        <time>2021-07-29T15:51:06Z</time>
      </trkpt>
      <trkpt lat="47.31801" lon="6.81625">
        <ele>430</ele>
        <time>2021-07-29T15:51:07Z</time>
      </trkpt>
      <trkpt lat="47.31801" lon="6.81632">
        <ele>430</ele>
        <time>2021-07-29T15:51:08Z</time>
      </trkpt>
      <trkpt lat="47.31802" lon="6.81639">
        <ele>430</ele>
        <time>2021-07-29T15:51:09Z</time>
      </trkpt>
      <trkpt lat="47.31802" lon="6.81645">
        <ele>430</ele>
        <time>2021-07-29T15:51:10Z</time>
      </trkpt>
      <trkpt lat="47.31803" lon="6.81653">
        <ele>430</ele>
        <time>2021-07-29T15:51:11Z</time>
      </trkpt>
      <trkpt lat="47.31803" lon="6.81659">
        <ele>430</ele>
        <time>2021-07-29T15:51:12Z</time>
      </trkpt>
      <trkpt lat="47.31803" lon="6.81665">
        <ele>430</ele>
        <time>2021-07-29T15:51:13Z</time>
      </trkpt>
      <trkpt lat="47.31804" lon="6.81672">
        <ele>429.8</ele>
        <time>2021-07-29T15:51:14Z</time>
      </trkpt>
      <trkpt lat="47.31804" lon="6.81678">
        <ele>430.2</ele>
        <time>2021-07-29T15:51:15Z</time>
      </trkpt>
      <trkpt lat="47.31804" lon="6.81684">
        <ele>429.8</ele>
        <time>2021-07-29T15:51:16Z</time>
      </trkpt>
      <trkpt lat="47.31804" lon="6.8169">
        <ele>429.8</ele>
        <time>2021-07-29T15:51:17Z</time>
      </trkpt>
      <trkpt lat="47.31804" lon="6.81696">
        <ele>430</ele>
        <time>2021-07-29T15:51:18Z</time>
      </trkpt>
      <trkpt lat="47.31805" lon="6.81702">
        <ele>430</ele>
        <time>2021-07-29T15:51:19Z</time>
      </trkpt>
      <trkpt lat="47.31805" lon="6.81708">
        <ele>430</ele>
        <time>2021-07-29T15:51:20Z</time>
      </trkpt>
      <trkpt lat="47.31805" lon="6.81713">
        <ele>430</ele>
        <time>2021-07-29T15:51:21Z</time>
      </trkpt>
      <trkpt lat="47.31806" lon="6.81719">
        <ele>430</ele>
        <time>2021-07-29T15:51:22Z</time>
      </trkpt>
      <trkpt lat="47.31806" lon="6.81724">
        <ele>430</ele>
        <time>2021-07-29T15:51:23Z</time>
      </trkpt>
      <trkpt lat="47.31806" lon="6.81729">
        <ele>430</ele>
        <time>2021-07-29T15:51:24Z</time>
      </trkpt>
      <trkpt lat="47.31807" lon="6.81735">
        <ele>430</ele>
        <time>2021-07-29T15:51:25Z</time>
      </trkpt>
      <trkpt lat="47.31807" lon="6.8174">
        <ele>430</ele>
        <time>2021-07-29T15:51:26Z</time>
      </trkpt>
      <trkpt lat="47.31807" lon="6.81745">
        <ele>430</ele>
        <time>2021-07-29T15:51:27Z</time>
      </trkpt>
      <trkpt lat="47.31808" lon="6.8175">
        <ele>430</ele>
        <time>2021-07-29T15:51:28Z</time>
      </trkpt>
      <trkpt lat="47.31808" lon="6.81756">
        <ele>430</ele>
        <time>2021-07-29T15:51:29Z</time>
      </trkpt>
      <trkpt lat="47.31809" lon="6.81762">
        <ele>430</ele>
        <time>2021-07-29T15:51:30Z</time>
      </trkpt>
      <trkpt lat="47.31809" lon="6.81767">
        <ele>430</ele>
        <time>2021-07-29T15:51:31Z</time>
      </trkpt>
      <trkpt lat="47.3181" lon="6.81772">
        <ele>430</ele>
        <time>2021-07-29T15:51:32Z</time>
      </trkpt>
      <trkpt lat="47.31811" lon="6.81777">
        <ele>430</ele>
        <time>2021-07-29T15:51:33Z</time>
      </trkpt>
      <trkpt lat="47.31811" lon="6.81783">
        <ele>430</ele>
        <time>2021-07-29T15:51:34Z</time>
      </trkpt>
      <trkpt lat="47.31812" lon="6.81788">
        <ele>430</ele>
        <time>2021-07-29T15:51:35Z</time>
      </trkpt>
      <trkpt lat="47.31813" lon="6.81793">
        <ele>430</ele>
        <time>2021-07-29T15:51:36Z</time>
      </trkpt>
      <trkpt lat="47.31813" lon="6.81798">
        <ele>430</ele>
        <time>2021-07-29T15:51:37Z</time>
      </trkpt>
      <trkpt lat="47.31814" lon="6.81804">
        <ele>430</ele>
        <time>2021-07-29T15:51:38Z</time>
      </trkpt>
      <trkpt lat="47.31815" lon="6.81809">
        <ele>430</ele>
        <time>2021-07-29T15:51:39Z</time>
      </trkpt>
      <trkpt lat="47.31816" lon="6.81814">
        <ele>430</ele>
        <time>2021-07-29T15:51:40Z</time>
      </trkpt>
      <trkpt lat="47.31816" lon="6.81819">
        <ele>430</ele>
        <time>2021-07-29T15:51:41Z</time>
      </trkpt>
      <trkpt lat="47.31817" lon="6.81824">
        <ele>430.2</ele>
        <time>2021-07-29T15:51:42Z</time>
      </trkpt>
      <trkpt lat="47.31818" lon="6.81828">
        <ele>430</ele>
        <time>2021-07-29T15:51:43Z</time>
      </trkpt>
      <trkpt lat="47.31819" lon="6.81833">
        <ele>430</ele>
        <time>2021-07-29T15:51:44Z</time>
      </trkpt>
      <trkpt lat="47.3182" lon="6.81838">
        <ele>430</ele>
        <time>2021-07-29T15:51:45Z</time>
      </trkpt>
      <trkpt lat="47.31821" lon="6.81842">
        <ele>430</ele>
        <time>2021-07-29T15:51:46Z</time>
      </trkpt>
      <trkpt lat="47.31823" lon="6.81847">
        <ele>430.2</ele>
        <time>2021-07-29T15:51:47Z</time>
      </trkpt>
      <trkpt lat="47.31824" lon="6.81851">
        <ele>430.2</ele>
        <time>2021-07-29T15:51:48Z</time>
      </trkpt>
      <trkpt lat="47.31825" lon="6.81855">
        <ele>430.2</ele>
        <time>2021-07-29T15:51:49Z</time>
      </trkpt>
      <trkpt lat="47.31827" lon="6.81859">
        <ele>430.2</ele>
        <time>2021-07-29T15:51:50Z</time>
      </trkpt>
      <trkpt lat="47.31829" lon="6.81863">
        <ele>430.4</ele>
        <time>2021-07-29T15:51:51Z</time>
      </trkpt>
      <trkpt lat="47.31831" lon="6.81867">
        <ele>430.4</ele>
        <time>2021-07-29T15:51:52Z</time>
      </trkpt>
      <trkpt lat="47.31832" lon="6.8187">
        <ele>430.4</ele>
        <time>2021-07-29T15:51:53Z</time>
      </trkpt>
      <trkpt lat="47.31835" lon="6.81874">
        <ele>430.4</ele>
        <time>2021-07-29T15:51:54Z</time>
      </trkpt>
      <trkpt lat="47.31837" lon="6.81878">
        <ele>430.6</ele>
        <time>2021-07-29T15:51:55Z</time>
      </trkpt>
      <trkpt lat="47.31839" lon="6.81882">
        <ele>430.6</ele>
        <time>2021-07-29T15:51:56Z</time>
      </trkpt>
      <trkpt lat="47.31841" lon="6.81885">
        <ele>430.6</ele>
        <time>2021-07-29T15:51:57Z</time>
      </trkpt>
      <trkpt lat="47.31842" lon="6.81889">
        <ele>430.6</ele>
        <time>2021-07-29T15:51:58Z</time>
      </trkpt>
      <trkpt lat="47.31844" lon="6.81893">
        <ele>430.8</ele>
        <time>2021-07-29T15:51:59Z</time>
      </trkpt>
      <trkpt lat="47.31845" lon="6.81896">
        <ele>430.8</ele>
        <time>2021-07-29T15:52:00Z</time>
      </trkpt>
      <trkpt lat="47.31847" lon="6.819">
        <ele>431</ele>
        <time>2021-07-29T15:52:01Z</time>
      </trkpt>
      <trkpt lat="47.31849" lon="6.81903">
        <ele>431</ele>
        <time>2021-07-29T15:52:02Z</time>
      </trkpt>
      <trkpt lat="47.31851" lon="6.81906">
        <ele>431.2</ele>
        <time>2021-07-29T15:52:03Z</time>
      </trkpt>
      <trkpt lat="47.31853" lon="6.8191">
        <ele>431.2</ele>
        <time>2021-07-29T15:52:04Z</time>
      </trkpt>
      <trkpt lat="47.31855" lon="6.81913">
        <ele>431.4</ele>
        <time>2021-07-29T15:52:05Z</time>
      </trkpt>
      <trkpt lat="47.31857" lon="6.81916">
        <ele>431.4</ele>
        <time>2021-07-29T15:52:06Z</time>
      </trkpt>
      <trkpt lat="47.31859" lon="6.81919">
        <ele>431.6</ele>
        <time>2021-07-29T15:52:07Z</time>
      </trkpt>
      <trkpt lat="47.31861" lon="6.81922">
        <ele>431.6</ele>
        <time>2021-07-29T15:52:08Z</time>
      </trkpt>
      <trkpt lat="47.31863" lon="6.81925">
        <ele>431.8</ele>
        <time>2021-07-29T15:52:09Z</time>
      </trkpt>
      <trkpt lat="47.31865" lon="6.81928">
        <ele>431.8</ele>
        <time>2021-07-29T15:52:10Z</time>
      </trkpt>
      <trkpt lat="47.31867" lon="6.81931">
        <ele>432</ele>
        <time>2021-07-29T15:52:11Z</time>
      </trkpt>
      <trkpt lat="47.31869" lon="6.81934">
        <ele>432</ele>
        <time>2021-07-29T15:52:12Z</time>
      </trkpt>
      <trkpt lat="47.31871" lon="6.81937">
        <ele>432.2</ele>
        <time>2021-07-29T15:52:13Z</time>
      </trkpt>
      <trkpt lat="47.31873" lon="6.8194">
        <ele>432.2</ele>
        <time>2021-07-29T15:52:14Z</time>
      </trkpt>
      <trkpt lat="47.31874" lon="6.81943">
        <ele>432.2</ele>
        <time>2021-07-29T15:52:15Z</time>
      </trkpt>
      <trkpt lat="47.31876" lon="6.81946">
        <ele>432.4</ele>
        <time>2021-07-29T15:52:16Z</time>
      </trkpt>
      <trkpt lat="47.31878" lon="6.81948">
        <ele>432.6</ele>
        <time>2021-07-29T15:52:17Z</time>
      </trkpt>
      <trkpt lat="47.31879" lon="6.81951">
        <ele>432.6</ele>
        <time>2021-07-29T15:52:18Z</time>
      </trkpt>
      <trkpt lat="47.31881" lon="6.81954">
        <ele>432.8</ele>
        <time>2021-07-29T15:52:19Z</time>
      </trkpt>
      <trkpt lat="47.31882" lon="6.81956">
        <ele>432.8</ele>
        <time>2021-07-29T15:52:20Z</time>
      </trkpt>
      <trkpt lat="47.31884" lon="6.81958">
        <ele>433</ele>
        <time>2021-07-29T15:52:21Z</time>
      </trkpt>
      <trkpt lat="47.31886" lon="6.81961">
        <ele>433</ele>
        <time>2021-07-29T15:52:22Z</time>
      </trkpt>
      <trkpt lat="47.31887" lon="6.81963">
        <ele>433.2</ele>
        <time>2021-07-29T15:52:23Z</time>
      </trkpt>
      <trkpt lat="47.31889" lon="6.81966">
        <ele>433.2</ele>
        <time>2021-07-29T15:52:24Z</time>
      </trkpt>
      <trkpt lat="47.3189" lon="6.81968">
        <ele>433.4</ele>
        <time>2021-07-29T15:52:25Z</time>
      </trkpt>
      <trkpt lat="47.31892" lon="6.81971">
        <ele>433.4</ele>
        <time>2021-07-29T15:52:26Z</time>
      </trkpt>
      <trkpt lat="47.31893" lon="6.81973">
        <ele>433.6</ele>
        <time>2021-07-29T15:52:27Z</time>
      </trkpt>
      <trkpt lat="47.31895" lon="6.81975">
        <ele>433.8</ele>
        <time>2021-07-29T15:52:28Z</time>
      </trkpt>
      <trkpt lat="47.31897" lon="6.81978">
        <ele>433.8</ele>
        <time>2021-07-29T15:52:29Z</time>
      </trkpt>
      <trkpt lat="47.31898" lon="6.8198">
        <ele>433.8</ele>
        <time>2021-07-29T15:52:30Z</time>
      </trkpt>
      <trkpt lat="47.319" lon="6.81983">
        <ele>434</ele>
        <time>2021-07-29T15:52:31Z</time>
      </trkpt>
      <trkpt lat="47.31901" lon="6.81985">
        <ele>434</ele>
        <time>2021-07-29T15:52:32Z</time>
      </trkpt>
      <trkpt lat="47.31903" lon="6.81988">
        <ele>434.2</ele>
        <time>2021-07-29T15:52:33Z</time>
      </trkpt>
      <trkpt lat="47.31904" lon="6.81991">
        <ele>434.2</ele>
        <time>2021-07-29T15:52:34Z</time>
      </trkpt>
      <trkpt lat="47.31906" lon="6.81993">
        <ele>434.4</ele>
        <time>2021-07-29T15:52:35Z</time>
      </trkpt>
      <trkpt lat="47.31907" lon="6.81996">
        <ele>434.4</ele>
        <time>2021-07-29T15:52:36Z</time>
      </trkpt>
      <trkpt lat="47.31908" lon="6.81998">
        <ele>434.4</ele>
        <time>2021-07-29T15:52:37Z</time>
      </trkpt>
      <trkpt lat="47.3191" lon="6.82001">
        <ele>434.6</ele>
        <time>2021-07-29T15:52:38Z</time>
      </trkpt>
      <trkpt lat="47.31911" lon="6.82003">
        <ele>434.6</ele>
        <time>2021-07-29T15:52:39Z</time>
      </trkpt>
      <trkpt lat="47.31913" lon="6.82006">
        <ele>434.8</ele>
        <time>2021-07-29T15:52:40Z</time>
      </trkpt>
      <trkpt lat="47.31914" lon="6.82008">
        <ele>434.8</ele>
        <time>2021-07-29T15:52:41Z</time>
      </trkpt>
      <trkpt lat="47.31916" lon="6.82011">
        <ele>435</ele>
        <time>2021-07-29T15:52:42Z</time>
      </trkpt>
      <trkpt lat="47.31917" lon="6.82013">
        <ele>435</ele>
        <time>2021-07-29T15:52:43Z</time>
      </trkpt>
      <trkpt lat="47.31919" lon="6.82016">
        <ele>435.2</ele>
        <time>2021-07-29T15:52:44Z</time>
      </trkpt>
      <trkpt lat="47.3192" lon="6.82018">
        <ele>435.2</ele>
        <time>2021-07-29T15:52:45Z</time>
      </trkpt>
      <trkpt lat="47.31921" lon="6.8202">
        <ele>435.4</ele>
        <time>2021-07-29T15:52:46Z</time>
      </trkpt>
      <trkpt lat="47.31923" lon="6.82023">
        <ele>435.4</ele>
        <time>2021-07-29T15:52:47Z</time>
      </trkpt>
      <trkpt lat="47.31924" lon="6.82025">
        <ele>435.6</ele>
        <time>2021-07-29T15:52:48Z</time>
      </trkpt>
      <trkpt lat="47.31926" lon="6.82027">
        <ele>435.8</ele>
        <time>2021-07-29T15:52:49Z</time>
      </trkpt>
      <trkpt lat="47.31927" lon="6.8203">
        <ele>435.8</ele>
        <time>2021-07-29T15:52:50Z</time>
      </trkpt>
      <trkpt lat="47.31928" lon="6.82032">
        <ele>436</ele>
        <time>2021-07-29T15:52:51Z</time>
      </trkpt>
      <trkpt lat="47.3193" lon="6.82035">
        <ele>436</ele>
        <time>2021-07-29T15:52:52Z</time>
      </trkpt>
      <trkpt lat="47.31931" lon="6.82037">
        <ele>436</ele>
        <time>2021-07-29T15:52:53Z</time>
      </trkpt>
      <trkpt lat="47.31932" lon="6.82039">
        <ele>436.2</ele>
        <time>2021-07-29T15:52:54Z</time>
      </trkpt>
      <trkpt lat="47.31934" lon="6.82041">
        <ele>436.2</ele>
        <time>2021-07-29T15:52:55Z</time>
      </trkpt>
      <trkpt lat="47.31935" lon="6.82044">
        <ele>436.2</ele>
        <time>2021-07-29T15:52:56Z</time>
      </trkpt>
      <trkpt lat="47.31936" lon="6.82046">
        <ele>436.4</ele>
        <time>2021-07-29T15:52:57Z</time>
      </trkpt>
      <trkpt lat="47.31938" lon="6.82049">
        <ele>436.4</ele>
        <time>2021-07-29T15:52:58Z</time>
      </trkpt>
      <trkpt lat="47.31939" lon="6.82051">
        <ele>436.6</ele>
        <time>2021-07-29T15:52:59Z</time>
      </trkpt>
      <trkpt lat="47.31941" lon="6.82053">
        <ele>436.6</ele>
        <time>2021-07-29T15:53:00Z</time>
      </trkpt>
      <trkpt lat="47.31942" lon="6.82055">
        <ele>436.8</ele>
        <time>2021-07-29T15:53:01Z</time>
      </trkpt>
      <trkpt lat="47.31943" lon="6.82058">
        <ele>436.8</ele>
        <time>2021-07-29T15:53:02Z</time>
      </trkpt>
      <trkpt lat="47.31944" lon="6.8206">
        <ele>436.8</ele>
        <time>2021-07-29T15:53:03Z</time>
      </trkpt>
      <trkpt lat="47.31946" lon="6.82063">
        <ele>437</ele>
        <time>2021-07-29T15:53:04Z</time>
      </trkpt>
      <trkpt lat="47.31947" lon="6.82065">
        <ele>437</ele>
        <time>2021-07-29T15:53:05Z</time>
      </trkpt>
      <trkpt lat="47.31949" lon="6.82068">
        <ele>437</ele>
        <time>2021-07-29T15:53:06Z</time>
      </trkpt>
      <trkpt lat="47.3195" lon="6.8207">
        <ele>437</ele>
        <time>2021-07-29T15:53:07Z</time>
      </trkpt>
      <trkpt lat="47.31952" lon="6.82073">
        <ele>437.2</ele>
        <time>2021-07-29T15:53:08Z</time>
      </trkpt>
      <trkpt lat="47.31954" lon="6.82076">
        <ele>437.2</ele>
        <time>2021-07-29T15:53:09Z</time>
      </trkpt>
      <trkpt lat="47.31955" lon="6.82079">
        <ele>437.2</ele>
        <time>2021-07-29T15:53:10Z</time>
      </trkpt>
      <trkpt lat="47.31957" lon="6.82082">
        <ele>437.2</ele>
        <time>2021-07-29T15:53:11Z</time>
      </trkpt>
      <trkpt lat="47.31958" lon="6.82085">
        <ele>437.4</ele>
        <time>2021-07-29T15:53:12Z</time>
      </trkpt>
      <trkpt lat="47.3196" lon="6.82088">
        <ele>437.4</ele>
        <time>2021-07-29T15:53:13Z</time>
      </trkpt>
      <trkpt lat="47.31961" lon="6.82091">
        <ele>437.4</ele>
        <time>2021-07-29T15:53:14Z</time>
      </trkpt>
      <trkpt lat="47.31962" lon="6.82094">
        <ele>437.6</ele>
        <time>2021-07-29T15:53:15Z</time>
      </trkpt>
      <trkpt lat="47.31964" lon="6.82097">
        <ele>437.6</ele>
        <time>2021-07-29T15:53:16Z</time>
      </trkpt>
      <trkpt lat="47.31966" lon="6.821">
        <ele>437.6</ele>
        <time>2021-07-29T15:53:17Z</time>
      </trkpt>
      <trkpt lat="47.31967" lon="6.82103">
        <ele>437.6</ele>
        <time>2021-07-29T15:53:18Z</time>
      </trkpt>
      <trkpt lat="47.31969" lon="6.82106">
        <ele>437.8</ele>
        <time>2021-07-29T15:53:19Z</time>
      </trkpt>
      <trkpt lat="47.3197" lon="6.8211">
        <ele>437.8</ele>
        <time>2021-07-29T15:53:20Z</time>
      </trkpt>
      <trkpt lat="47.31972" lon="6.82113">
        <ele>437.8</ele>
        <time>2021-07-29T15:53:21Z</time>
      </trkpt>
      <trkpt lat="47.31974" lon="6.82116">
        <ele>437.8</ele>
        <time>2021-07-29T15:53:22Z</time>
      </trkpt>
      <trkpt lat="47.31976" lon="6.82119">
        <ele>438</ele>
        <time>2021-07-29T15:53:23Z</time>
      </trkpt>
      <trkpt lat="47.31977" lon="6.82123">
        <ele>438</ele>
        <time>2021-07-29T15:53:24Z</time>
      </trkpt>
      <trkpt lat="47.31979" lon="6.82126">
        <ele>438</ele>
        <time>2021-07-29T15:53:25Z</time>
      </trkpt>
      <trkpt lat="47.31981" lon="6.82129">
        <ele>438</ele>
        <time>2021-07-29T15:53:26Z</time>
      </trkpt>
      <trkpt lat="47.31983" lon="6.82133">
        <ele>438</ele>
        <time>2021-07-29T15:53:27Z</time>
      </trkpt>
      <trkpt lat="47.31984" lon="6.82136">
        <ele>438</ele>
        <time>2021-07-29T15:53:28Z</time>
      </trkpt>
      <trkpt lat="47.31986" lon="6.8214">
        <ele>438.2</ele>
        <time>2021-07-29T15:53:29Z</time>
      </trkpt>
      <trkpt lat="47.31988" lon="6.82144">
        <ele>438.2</ele>
        <time>2021-07-29T15:53:30Z</time>
      </trkpt>
      <trkpt lat="47.3199" lon="6.82147">
        <ele>438.2</ele>
        <time>2021-07-29T15:53:31Z</time>
      </trkpt>
      <trkpt lat="47.31992" lon="6.82151">
        <ele>438.2</ele>
        <time>2021-07-29T15:53:32Z</time>
      </trkpt>
      <trkpt lat="47.31994" lon="6.82155">
        <ele>438.2</ele>
        <time>2021-07-29T15:53:33Z</time>
      </trkpt>
      <trkpt lat="47.31996" lon="6.82159">
        <ele>438.2</ele>
        <time>2021-07-29T15:53:34Z</time>
      </trkpt>
      <trkpt lat="47.31998" lon="6.82163">
        <ele>438.2</ele>
        <time>2021-07-29T15:53:35Z</time>
      </trkpt>
      <trkpt lat="47.32" lon="6.82167">
        <ele>438.2</ele>
        <time>2021-07-29T15:53:36Z</time>
      </trkpt>
      <trkpt lat="47.32002" lon="6.82171">
        <ele>438.4</ele>
        <time>2021-07-29T15:53:37Z</time>
      </trkpt>
      <trkpt lat="47.32004" lon="6.82175">
        <ele>438.4</ele>
        <time>2021-07-29T15:53:38Z</time>
      </trkpt>
      <trkpt lat="47.32007" lon="6.82179">
        <ele>438.4</ele>
        <time>2021-07-29T15:53:39Z</time>
      </trkpt>
      <trkpt lat="47.32008" lon="6.82183">
        <ele>438.6</ele>
        <time>2021-07-29T15:53:40Z</time>
      </trkpt>
      <trkpt lat="47.32011" lon="6.82187">
        <ele>438.6</ele>
        <time>2021-07-29T15:53:41Z</time>
      </trkpt>
      <trkpt lat="47.32013" lon="6.82191">
        <ele>438.6</ele>
        <time>2021-07-29T15:53:42Z</time>
      </trkpt>
      <trkpt lat="47.32015" lon="6.82195">
        <ele>438.6</ele>
        <time>2021-07-29T15:53:43Z</time>
      </trkpt>
      <trkpt lat="47.32017" lon="6.82199">
        <ele>438.6</ele>
        <time>2021-07-29T15:53:44Z</time>
      </trkpt>
      <trkpt lat="47.32019" lon="6.82203">
        <ele>438.8</ele>
        <time>2021-07-29T15:53:45Z</time>
      </trkpt>
      <trkpt lat="47.32021" lon="6.82207">
        <ele>438.8</ele>
        <time>2021-07-29T15:53:46Z</time>
      </trkpt>
      <trkpt lat="47.32023" lon="6.82211">
        <ele>438.8</ele>
        <time>2021-07-29T15:53:47Z</time>
      </trkpt>
      <trkpt lat="47.32025" lon="6.82215">
        <ele>438.8</ele>
        <time>2021-07-29T15:53:48Z</time>
      </trkpt>
      <trkpt lat="47.32027" lon="6.82219">
        <ele>439</ele>
        <time>2021-07-29T15:53:49Z</time>
      </trkpt>
      <trkpt lat="47.32029" lon="6.82223">
        <ele>439</ele>
        <time>2021-07-29T15:53:50Z</time>
      </trkpt>
      <trkpt lat="47.32031" lon="6.82227">
        <ele>439.2</ele>
        <time>2021-07-29T15:53:51Z</time>
      </trkpt>
      <trkpt lat="47.32033" lon="6.82231">
        <ele>439.2</ele>
        <time>2021-07-29T15:53:52Z</time>
      </trkpt>
      <trkpt lat="47.32035" lon="6.82234">
        <ele>439.2</ele>
        <time>2021-07-29T15:53:53Z</time>
      </trkpt>
      <trkpt lat="47.32036" lon="6.82238">
        <ele>439.4</ele>
        <time>2021-07-29T15:53:54Z</time>
      </trkpt>
      <trkpt lat="47.32038" lon="6.82241">
        <ele>439.4</ele>
        <time>2021-07-29T15:53:55Z</time>
      </trkpt>
      <trkpt lat="47.3204" lon="6.82245">
        <ele>439.6</ele>
        <time>2021-07-29T15:53:56Z</time>
      </trkpt>
      <trkpt lat="47.32041" lon="6.82248">
        <ele>439.6</ele>
        <time>2021-07-29T15:53:57Z</time>
      </trkpt>
      <trkpt lat="47.32043" lon="6.82252">
        <ele>439.6</ele>
        <time>2021-07-29T15:53:58Z</time>
      </trkpt>
      <trkpt lat="47.32044" lon="6.82255">
        <ele>439.8</ele>
        <time>2021-07-29T15:53:59Z</time>
      </trkpt>
      <trkpt lat="47.32045" lon="6.82259">
        <ele>439.8</ele>
        <time>2021-07-29T15:54:00Z</time>
      </trkpt>
      <trkpt lat="47.32047" lon="6.82262">
        <ele>440</ele>
        <time>2021-07-29T15:54:01Z</time>
      </trkpt>
      <trkpt lat="47.32048" lon="6.82266">
        <ele>440</ele>
        <time>2021-07-29T15:54:02Z</time>
      </trkpt>
      <trkpt lat="47.32049" lon="6.82269">
        <ele>440.2</ele>
        <time>2021-07-29T15:54:03Z</time>
      </trkpt>
      <trkpt lat="47.32051" lon="6.82273">
        <ele>440.2</ele>
        <time>2021-07-29T15:54:04Z</time>
      </trkpt>
      <trkpt lat="47.32052" lon="6.82276">
        <ele>440.4</ele>
        <time>2021-07-29T15:54:05Z</time>
      </trkpt>
      <trkpt lat="47.32053" lon="6.82279">
        <ele>440.6</ele>
        <time>2021-07-29T15:54:06Z</time>
      </trkpt>
      <trkpt lat="47.32054" lon="6.82283">
        <ele>440.6</ele>
        <time>2021-07-29T15:54:07Z</time>
      </trkpt>
      <trkpt lat="47.32054" lon="6.82286">
        <ele>440.6</ele>
        <time>2021-07-29T15:54:08Z</time>
      </trkpt>
      <trkpt lat="47.32055" lon="6.82289">
        <ele>440.8</ele>
        <time>2021-07-29T15:54:09Z</time>
      </trkpt>
      <trkpt lat="47.32056" lon="6.82293">
        <ele>440.8</ele>
        <time>2021-07-29T15:54:10Z</time>
      </trkpt>
      <trkpt lat="47.32057" lon="6.82296">
        <ele>441</ele>
        <time>2021-07-29T15:54:11Z</time>
      </trkpt>
      <trkpt lat="47.32058" lon="6.82299">
        <ele>441</ele>
        <time>2021-07-29T15:54:12Z</time>
      </trkpt>
      <trkpt lat="47.32058" lon="6.82303">
        <ele>441.2</ele>
        <time>2021-07-29T15:54:13Z</time>
      </trkpt>
      <trkpt lat="47.32059" lon="6.82306">
        <ele>441.4</ele>
        <time>2021-07-29T15:54:14Z</time>
      </trkpt>
      <trkpt lat="47.3206" lon="6.82309">
        <ele>441.4</ele>
        <time>2021-07-29T15:54:15Z</time>
      </trkpt>
      <trkpt lat="47.32061" lon="6.82312">
        <ele>441.6</ele>
        <time>2021-07-29T15:54:16Z</time>
      </trkpt>
      <trkpt lat="47.32061" lon="6.82315">
        <ele>441.8</ele>
        <time>2021-07-29T15:54:17Z</time>
      </trkpt>
      <trkpt lat="47.32062" lon="6.82318">
        <ele>441.8</ele>
        <time>2021-07-29T15:54:18Z</time>
      </trkpt>
      <trkpt lat="47.32062" lon="6.82321">
        <ele>442</ele>
        <time>2021-07-29T15:54:19Z</time>
      </trkpt>
      <trkpt lat="47.32062" lon="6.82324">
        <ele>442</ele>
        <time>2021-07-29T15:54:20Z</time>
      </trkpt>
      <trkpt lat="47.32062" lon="6.82327">
        <ele>442.2</ele>
        <time>2021-07-29T15:54:21Z</time>
      </trkpt>
      <trkpt lat="47.32063" lon="6.8233">
        <ele>442.2</ele>
        <time>2021-07-29T15:54:22Z</time>
      </trkpt>
      <trkpt lat="47.32063" lon="6.82332">
        <ele>442.4</ele>
        <time>2021-07-29T15:54:23Z</time>
      </trkpt>
      <trkpt lat="47.32064" lon="6.82335">
        <ele>442.4</ele>
        <time>2021-07-29T15:54:24Z</time>
      </trkpt>
      <trkpt lat="47.32064" lon="6.82338">
        <ele>442.6</ele>
        <time>2021-07-29T15:54:25Z</time>
      </trkpt>
      <trkpt lat="47.32064" lon="6.82341">
        <ele>442.8</ele>
        <time>2021-07-29T15:54:26Z</time>
      </trkpt>
      <trkpt lat="47.32065" lon="6.82344">
        <ele>442.8</ele>
        <time>2021-07-29T15:54:27Z</time>
      </trkpt>
      <trkpt lat="47.32065" lon="6.82347">
        <ele>442.8</ele>
        <time>2021-07-29T15:54:28Z</time>
      </trkpt>
      <trkpt lat="47.32066" lon="6.8235">
        <ele>443</ele>
        <time>2021-07-29T15:54:29Z</time>
      </trkpt>
      <trkpt lat="47.32066" lon="6.82352">
        <ele>443.2</ele>
        <time>2021-07-29T15:54:30Z</time>
      </trkpt>
      <trkpt lat="47.32067" lon="6.82355">
        <ele>443.2</ele>
        <time>2021-07-29T15:54:31Z</time>
      </trkpt>
      <trkpt lat="47.32067" lon="6.82358">
        <ele>443.4</ele>
        <time>2021-07-29T15:54:32Z</time>
      </trkpt>
      <trkpt lat="47.32067" lon="6.8236">
        <ele>443.4</ele>
        <time>2021-07-29T15:54:33Z</time>
      </trkpt>
      <trkpt lat="47.32068" lon="6.82363">
        <ele>443.6</ele>
        <time>2021-07-29T15:54:34Z</time>
      </trkpt>
      <trkpt lat="47.32068" lon="6.82366">
        <ele>443.6</ele>
        <time>2021-07-29T15:54:35Z</time>
      </trkpt>
      <trkpt lat="47.32069" lon="6.82368">
        <ele>443.8</ele>
        <time>2021-07-29T15:54:36Z</time>
      </trkpt>
      <trkpt lat="47.32069" lon="6.82371">
        <ele>443.8</ele>
        <time>2021-07-29T15:54:37Z</time>
      </trkpt>
      <trkpt lat="47.32069" lon="6.82374">
        <ele>444</ele>
        <time>2021-07-29T15:54:38Z</time>
      </trkpt>
      <trkpt lat="47.3207" lon="6.82376">
        <ele>444</ele>
        <time>2021-07-29T15:54:39Z</time>
      </trkpt>
      <trkpt lat="47.32071" lon="6.82378">
        <ele>444</ele>
        <time>2021-07-29T15:54:40Z</time>
      </trkpt>
      <trkpt lat="47.32072" lon="6.82381">
        <ele>444.4</ele>
        <time>2021-07-29T15:54:41Z</time>
      </trkpt>
      <trkpt lat="47.32072" lon="6.82383">
        <ele>444.4</ele>
        <time>2021-07-29T15:54:42Z</time>
      </trkpt>
      <trkpt lat="47.32073" lon="6.82386">
        <ele>444.6</ele>
        <time>2021-07-29T15:54:43Z</time>
      </trkpt>
      <trkpt lat="47.32074" lon="6.82388">
        <ele>444.6</ele>
        <time>2021-07-29T15:54:44Z</time>
      </trkpt>
      <trkpt lat="47.32074" lon="6.82391">
        <ele>444.8</ele>
        <time>2021-07-29T15:54:45Z</time>
      </trkpt>
      <trkpt lat="47.32074" lon="6.82393">
        <ele>445</ele>
        <time>2021-07-29T15:54:46Z</time>
      </trkpt>
      <trkpt lat="47.32075" lon="6.82395">
        <ele>445</ele>
        <time>2021-07-29T15:54:47Z</time>
      </trkpt>
      <trkpt lat="47.32075" lon="6.82398">
        <ele>445.2</ele>
        <time>2021-07-29T15:54:48Z</time>
      </trkpt>
      <trkpt lat="47.32076" lon="6.82401">
        <ele>445.4</ele>
        <time>2021-07-29T15:54:49Z</time>
      </trkpt>
      <trkpt lat="47.32076" lon="6.82403">
        <ele>445.4</ele>
        <time>2021-07-29T15:54:50Z</time>
      </trkpt>
      <trkpt lat="47.32076" lon="6.82406">
        <ele>445.6</ele>
        <time>2021-07-29T15:54:51Z</time>
      </trkpt>
      <trkpt lat="47.32077" lon="6.82409">
        <ele>445.6</ele>
        <time>2021-07-29T15:54:52Z</time>
      </trkpt>
      <trkpt lat="47.32077" lon="6.82411">
        <ele>445.6</ele>
        <time>2021-07-29T15:54:53Z</time>
      </trkpt>
      <trkpt lat="47.32078" lon="6.82414">
        <ele>445.8</ele>
        <time>2021-07-29T15:54:54Z</time>
      </trkpt>
      <trkpt lat="47.32078" lon="6.82417">
        <ele>445.8</ele>
        <time>2021-07-29T15:54:55Z</time>
      </trkpt>
      <trkpt lat="47.32079" lon="6.8242">
        <ele>446</ele>
        <time>2021-07-29T15:54:56Z</time>
      </trkpt>
      <trkpt lat="47.32079" lon="6.82422">
        <ele>445.8</ele>
        <time>2021-07-29T15:54:57Z</time>
      </trkpt>
      <trkpt lat="47.3208" lon="6.82425">
        <ele>445.8</ele>
        <time>2021-07-29T15:54:58Z</time>
      </trkpt>
      <trkpt lat="47.3208" lon="6.82428">
        <ele>446</ele>
        <time>2021-07-29T15:54:59Z</time>
      </trkpt>
      <trkpt lat="47.32081" lon="6.8243">
        <ele>446</ele>
        <time>2021-07-29T15:55:00Z</time>
      </trkpt>
      <trkpt lat="47.32081" lon="6.82433">
        <ele>446.2</ele>
        <time>2021-07-29T15:55:01Z</time>
      </trkpt>
      <trkpt lat="47.32082" lon="6.82435">
        <ele>446.4</ele>
        <time>2021-07-29T15:55:02Z</time>
      </trkpt>
      <trkpt lat="47.32082" lon="6.82437">
        <ele>446.4</ele>
        <time>2021-07-29T15:55:03Z</time>
      </trkpt>
      <trkpt lat="47.32083" lon="6.8244">
        <ele>446.6</ele>
        <time>2021-07-29T15:55:04Z</time>
      </trkpt>
      <trkpt lat="47.32084" lon="6.82443">
        <ele>446.6</ele>
        <time>2021-07-29T15:55:05Z</time>
      </trkpt>
      <trkpt lat="47.32084" lon="6.82445">
        <ele>446.8</ele>
        <time>2021-07-29T15:55:06Z</time>
      </trkpt>
      <trkpt lat="47.32086" lon="6.82448">
        <ele>446.8</ele>
        <time>2021-07-29T15:55:07Z</time>
      </trkpt>
      <trkpt lat="47.32086" lon="6.82451">
        <ele>447</ele>
        <time>2021-07-29T15:55:08Z</time>
      </trkpt>
      <trkpt lat="47.32086" lon="6.82453">
        <ele>447</ele>
        <time>2021-07-29T15:55:09Z</time>
      </trkpt>
      <trkpt lat="47.32087" lon="6.82456">
        <ele>447</ele>
        <time>2021-07-29T15:55:10Z</time>
      </trkpt>
      <trkpt lat="47.32088" lon="6.82459">
        <ele>447.2</ele>
        <time>2021-07-29T15:55:11Z</time>
      </trkpt>
      <trkpt lat="47.32089" lon="6.82461">
        <ele>447.2</ele>
        <time>2021-07-29T15:55:12Z</time>
      </trkpt>
      <trkpt lat="47.32089" lon="6.82464">
        <ele>447.4</ele>
        <time>2021-07-29T15:55:13Z</time>
      </trkpt>
      <trkpt lat="47.3209" lon="6.82467">
        <ele>447.4</ele>
        <time>2021-07-29T15:55:14Z</time>
      </trkpt>
      <trkpt lat="47.32091" lon="6.8247">
        <ele>447.6</ele>
        <time>2021-07-29T15:55:15Z</time>
      </trkpt>
      <trkpt lat="47.32092" lon="6.82473">
        <ele>447.6</ele>
        <time>2021-07-29T15:55:16Z</time>
      </trkpt>
      <trkpt lat="47.32093" lon="6.82476">
        <ele>447.8</ele>
        <time>2021-07-29T15:55:17Z</time>
      </trkpt>
      <trkpt lat="47.32095" lon="6.82479">
        <ele>447.8</ele>
        <time>2021-07-29T15:55:18Z</time>
      </trkpt>
      <trkpt lat="47.32096" lon="6.82482">
        <ele>448</ele>
        <time>2021-07-29T15:55:19Z</time>
      </trkpt>
      <trkpt lat="47.32097" lon="6.82484">
        <ele>448</ele>
        <time>2021-07-29T15:55:20Z</time>
      </trkpt>
      <trkpt lat="47.32098" lon="6.82487">
        <ele>448</ele>
        <time>2021-07-29T15:55:21Z</time>
      </trkpt>
      <trkpt lat="47.32098" lon="6.8249">
        <ele>448.2</ele>
        <time>2021-07-29T15:55:22Z</time>
      </trkpt>
      <trkpt lat="47.32099" lon="6.82493">
        <ele>448.2</ele>
        <time>2021-07-29T15:55:23Z</time>
      </trkpt>
      <trkpt lat="47.321" lon="6.82496">
        <ele>448.2</ele>
        <time>2021-07-29T15:55:24Z</time>
      </trkpt>
      <trkpt lat="47.32101" lon="6.82499">
        <ele>448.4</ele>
        <time>2021-07-29T15:55:25Z</time>
      </trkpt>
      <trkpt lat="47.32103" lon="6.82502">
        <ele>448.4</ele>
        <time>2021-07-29T15:55:26Z</time>
      </trkpt>
      <trkpt lat="47.32104" lon="6.82505">
        <ele>448.6</ele>
        <time>2021-07-29T15:55:27Z</time>
      </trkpt>
      <trkpt lat="47.32105" lon="6.82508">
        <ele>448.6</ele>
        <time>2021-07-29T15:55:28Z</time>
      </trkpt>
      <trkpt lat="47.32106" lon="6.82511">
        <ele>448.6</ele>
        <time>2021-07-29T15:55:29Z</time>
      </trkpt>
      <trkpt lat="47.32107" lon="6.82514">
        <ele>448.8</ele>
        <time>2021-07-29T15:55:30Z</time>
      </trkpt>
      <trkpt lat="47.32108" lon="6.82518">
        <ele>448.8</ele>
        <time>2021-07-29T15:55:31Z</time>
      </trkpt>
      <trkpt lat="47.32109" lon="6.82521">
        <ele>449</ele>
        <time>2021-07-29T15:55:32Z</time>
      </trkpt>
      <trkpt lat="47.3211" lon="6.82524">
        <ele>449</ele>
        <time>2021-07-29T15:55:33Z</time>
      </trkpt>
      <trkpt lat="47.32112" lon="6.82528">
        <ele>449.2</ele>
        <time>2021-07-29T15:55:34Z</time>
      </trkpt>
      <trkpt lat="47.32113" lon="6.82531">
        <ele>449.2</ele>
        <time>2021-07-29T15:55:35Z</time>
      </trkpt>
      <trkpt lat="47.32114" lon="6.82535">
        <ele>449.2</ele>
        <time>2021-07-29T15:55:36Z</time>
      </trkpt>
      <trkpt lat="47.32115" lon="6.82538">
        <ele>449.4</ele>
        <time>2021-07-29T15:55:37Z</time>
      </trkpt>
      <trkpt lat="47.32116" lon="6.82542">
        <ele>449.4</ele>
        <time>2021-07-29T15:55:38Z</time>
      </trkpt>
      <trkpt lat="47.32118" lon="6.82546">
        <ele>449.4</ele>
        <time>2021-07-29T15:55:39Z</time>
      </trkpt>
      <trkpt lat="47.32119" lon="6.82549">
        <ele>449.4</ele>
        <time>2021-07-29T15:55:40Z</time>
      </trkpt>
      <trkpt lat="47.3212" lon="6.82553">
        <ele>449.6</ele>
        <time>2021-07-29T15:55:41Z</time>
      </trkpt>
      <trkpt lat="47.32122" lon="6.82557">
        <ele>449.6</ele>
        <time>2021-07-29T15:55:42Z</time>
      </trkpt>
      <trkpt lat="47.32123" lon="6.8256">
        <ele>449.6</ele>
        <time>2021-07-29T15:55:43Z</time>
      </trkpt>
      <trkpt lat="47.32125" lon="6.82564">
        <ele>449.8</ele>
        <time>2021-07-29T15:55:44Z</time>
      </trkpt>
      <trkpt lat="47.32126" lon="6.82567">
        <ele>449.8</ele>
        <time>2021-07-29T15:55:45Z</time>
      </trkpt>
      <trkpt lat="47.32127" lon="6.82571">
        <ele>450</ele>
        <time>2021-07-29T15:55:46Z</time>
      </trkpt>
      <trkpt lat="47.32128" lon="6.82574">
        <ele>450</ele>
        <time>2021-07-29T15:55:47Z</time>
      </trkpt>
      <trkpt lat="47.3213" lon="6.82577">
        <ele>450.2</ele>
        <time>2021-07-29T15:55:48Z</time>
      </trkpt>
      <trkpt lat="47.32131" lon="6.82581">
        <ele>450.4</ele>
        <time>2021-07-29T15:55:49Z</time>
      </trkpt>
      <trkpt lat="47.32132" lon="6.82584">
        <ele>450.4</ele>
        <time>2021-07-29T15:55:50Z</time>
      </trkpt>
      <trkpt lat="47.32134" lon="6.82588">
        <ele>450.4</ele>
        <time>2021-07-29T15:55:51Z</time>
      </trkpt>
      <trkpt lat="47.32135" lon="6.82591">
        <ele>450.4</ele>
        <time>2021-07-29T15:55:52Z</time>
      </trkpt>
      <trkpt lat="47.32136" lon="6.82595">
        <ele>450.6</ele>
        <time>2021-07-29T15:55:53Z</time>
      </trkpt>
      <trkpt lat="47.32137" lon="6.82598">
        <ele>450.6</ele>
        <time>2021-07-29T15:55:54Z</time>
      </trkpt>
      <trkpt lat="47.32138" lon="6.82601">
        <ele>450.8</ele>
        <time>2021-07-29T15:55:55Z</time>
      </trkpt>
      <trkpt lat="47.3214" lon="6.82604">
        <ele>451</ele>
        <time>2021-07-29T15:55:56Z</time>
      </trkpt>
      <trkpt lat="47.32141" lon="6.82608">
        <ele>451</ele>
        <time>2021-07-29T15:55:57Z</time>
      </trkpt>
      <trkpt lat="47.32142" lon="6.82611">
        <ele>450.8</ele>
        <time>2021-07-29T15:55:58Z</time>
      </trkpt>
      <trkpt lat="47.32143" lon="6.82614">
        <ele>451</ele>
        <time>2021-07-29T15:55:59Z</time>
      </trkpt>
      <trkpt lat="47.32144" lon="6.82617">
        <ele>451</ele>
        <time>2021-07-29T15:56:00Z</time>
      </trkpt>
      <trkpt lat="47.32146" lon="6.8262">
        <ele>451</ele>
        <time>2021-07-29T15:56:01Z</time>
      </trkpt>
      <trkpt lat="47.32147" lon="6.82623">
        <ele>451.2</ele>
        <time>2021-07-29T15:56:02Z</time>
      </trkpt>
      <trkpt lat="47.32148" lon="6.82626">
        <ele>451.4</ele>
        <time>2021-07-29T15:56:03Z</time>
      </trkpt>
      <trkpt lat="47.32149" lon="6.82629">
        <ele>451.4</ele>
        <time>2021-07-29T15:56:04Z</time>
      </trkpt>
      <trkpt lat="47.3215" lon="6.82632">
        <ele>451.6</ele>
        <time>2021-07-29T15:56:05Z</time>
      </trkpt>
      <trkpt lat="47.32151" lon="6.82635">
        <ele>451.6</ele>
        <time>2021-07-29T15:56:06Z</time>
      </trkpt>
      <trkpt lat="47.32153" lon="6.82638">
        <ele>451.8</ele>
        <time>2021-07-29T15:56:07Z</time>
      </trkpt>
      <trkpt lat="47.32154" lon="6.82641">
        <ele>451.8</ele>
        <time>2021-07-29T15:56:08Z</time>
      </trkpt>
      <trkpt lat="47.32155" lon="6.82644">
        <ele>452</ele>
        <time>2021-07-29T15:56:09Z</time>
      </trkpt>
      <trkpt lat="47.32156" lon="6.82647">
        <ele>452</ele>
        <time>2021-07-29T15:56:10Z</time>
      </trkpt>
      <trkpt lat="47.32157" lon="6.82651">
        <ele>452</ele>
        <time>2021-07-29T15:56:11Z</time>
      </trkpt>
      <trkpt lat="47.32159" lon="6.82654">
        <ele>452.2</ele>
        <time>2021-07-29T15:56:12Z</time>
      </trkpt>
      <trkpt lat="47.3216" lon="6.82656">
        <ele>452.2</ele>
        <time>2021-07-29T15:56:13Z</time>
      </trkpt>
      <trkpt lat="47.32161" lon="6.82659">
        <ele>452.4</ele>
        <time>2021-07-29T15:56:14Z</time>
      </trkpt>
      <trkpt lat="47.32162" lon="6.82662">
        <ele>452.4</ele>
        <time>2021-07-29T15:56:15Z</time>
      </trkpt>
      <trkpt lat="47.32163" lon="6.82665">
        <ele>452.6</ele>
        <time>2021-07-29T15:56:16Z</time>
      </trkpt>
      <trkpt lat="47.32164" lon="6.82668">
        <ele>452.8</ele>
        <time>2021-07-29T15:56:17Z</time>
      </trkpt>
      <trkpt lat="47.32166" lon="6.82671">
        <ele>452.8</ele>
        <time>2021-07-29T15:56:18Z</time>
      </trkpt>
      <trkpt lat="47.32167" lon="6.82674">
        <ele>452.8</ele>
        <time>2021-07-29T15:56:19Z</time>
      </trkpt>
      <trkpt lat="47.32168" lon="6.82677">
        <ele>453</ele>
        <time>2021-07-29T15:56:20Z</time>
      </trkpt>
      <trkpt lat="47.32169" lon="6.8268">
        <ele>453.2</ele>
        <time>2021-07-29T15:56:21Z</time>
      </trkpt>
      <trkpt lat="47.3217" lon="6.82682">
        <ele>453.2</ele>
        <time>2021-07-29T15:56:22Z</time>
      </trkpt>
      <trkpt lat="47.32171" lon="6.82685">
        <ele>453.2</ele>
        <time>2021-07-29T15:56:23Z</time>
      </trkpt>
      <trkpt lat="47.32172" lon="6.82688">
        <ele>453.4</ele>
        <time>2021-07-29T15:56:24Z</time>
      </trkpt>
      <trkpt lat="47.32173" lon="6.82691">
        <ele>453.4</ele>
        <time>2021-07-29T15:56:25Z</time>
      </trkpt>
      <trkpt lat="47.32174" lon="6.82694">
        <ele>453.6</ele>
        <time>2021-07-29T15:56:26Z</time>
      </trkpt>
      <trkpt lat="47.32176" lon="6.82696">
        <ele>453.6</ele>
        <time>2021-07-29T15:56:27Z</time>
      </trkpt>
      <trkpt lat="47.32177" lon="6.82699">
        <ele>453.6</ele>
        <time>2021-07-29T15:56:28Z</time>
      </trkpt>
      <trkpt lat="47.32178" lon="6.82702">
        <ele>453.6</ele>
        <time>2021-07-29T15:56:29Z</time>
      </trkpt>
      <trkpt lat="47.32179" lon="6.82705">
        <ele>453.8</ele>
        <time>2021-07-29T15:56:30Z</time>
      </trkpt>
      <trkpt lat="47.3218" lon="6.82707">
        <ele>454</ele>
        <time>2021-07-29T15:56:31Z</time>
      </trkpt>
      <trkpt lat="47.32181" lon="6.8271">
        <ele>454</ele>
        <time>2021-07-29T15:56:32Z</time>
      </trkpt>
      <trkpt lat="47.32182" lon="6.82713">
        <ele>454.2</ele>
        <time>2021-07-29T15:56:33Z</time>
      </trkpt>
      <trkpt lat="47.32183" lon="6.82715">
        <ele>454.2</ele>
        <time>2021-07-29T15:56:34Z</time>
      </trkpt>
      <trkpt lat="47.32184" lon="6.82718">
        <ele>454.4</ele>
        <time>2021-07-29T15:56:35Z</time>
      </trkpt>
      <trkpt lat="47.32185" lon="6.8272">
        <ele>454.4</ele>
        <time>2021-07-29T15:56:36Z</time>
      </trkpt>
      <trkpt lat="47.32186" lon="6.82723">
        <ele>454.6</ele>
        <time>2021-07-29T15:56:37Z</time>
      </trkpt>
      <trkpt lat="47.32187" lon="6.82725">
        <ele>454.8</ele>
        <time>2021-07-29T15:56:38Z</time>
      </trkpt>
      <trkpt lat="47.32188" lon="6.82728">
        <ele>454.8</ele>
        <time>2021-07-29T15:56:39Z</time>
      </trkpt>
      <trkpt lat="47.32189" lon="6.82731">
        <ele>455</ele>
        <time>2021-07-29T15:56:40Z</time>
      </trkpt>
      <trkpt lat="47.3219" lon="6.82733">
        <ele>455.2</ele>
        <time>2021-07-29T15:56:41Z</time>
      </trkpt>
      <trkpt lat="47.32191" lon="6.82736">
        <ele>455.2</ele>
        <time>2021-07-29T15:56:42Z</time>
      </trkpt>
      <trkpt lat="47.32192" lon="6.82739">
        <ele>455.6</ele>
        <time>2021-07-29T15:56:43Z</time>
      </trkpt>
      <trkpt lat="47.32193" lon="6.82741">
        <ele>455.6</ele>
        <time>2021-07-29T15:56:44Z</time>
      </trkpt>
      <trkpt lat="47.32194" lon="6.82744">
        <ele>455.6</ele>
        <time>2021-07-29T15:56:45Z</time>
      </trkpt>
      <trkpt lat="47.32195" lon="6.82746">
        <ele>455.8</ele>
        <time>2021-07-29T15:56:46Z</time>
      </trkpt>
      <trkpt lat="47.32196" lon="6.82749">
        <ele>456</ele>
        <time>2021-07-29T15:56:47Z</time>
      </trkpt>
      <trkpt lat="47.32197" lon="6.82752">
        <ele>456</ele>
        <time>2021-07-29T15:56:48Z</time>
      </trkpt>
      <trkpt lat="47.32198" lon="6.82754">
        <ele>456.2</ele>
        <time>2021-07-29T15:56:49Z</time>
      </trkpt>
      <trkpt lat="47.32199" lon="6.82757">
        <ele>456.6</ele>
        <time>2021-07-29T15:56:50Z</time>
      </trkpt>
      <trkpt lat="47.322" lon="6.82759">
        <ele>456.8</ele>
        <time>2021-07-29T15:56:51Z</time>
      </trkpt>
      <trkpt lat="47.32202" lon="6.82761">
        <ele>456.8</ele>
        <time>2021-07-29T15:56:52Z</time>
      </trkpt>
      <trkpt lat="47.32203" lon="6.82764">
        <ele>457</ele>
        <time>2021-07-29T15:56:53Z</time>
      </trkpt>
      <trkpt lat="47.32204" lon="6.82766">
        <ele>457.2</ele>
        <time>2021-07-29T15:56:54Z</time>
      </trkpt>
      <trkpt lat="47.32205" lon="6.82769">
        <ele>457.4</ele>
        <time>2021-07-29T15:56:55Z</time>
      </trkpt>
      <trkpt lat="47.32206" lon="6.82772">
        <ele>457.4</ele>
        <time>2021-07-29T15:56:56Z</time>
      </trkpt>
      <trkpt lat="47.32207" lon="6.82774">
        <ele>457.4</ele>
        <time>2021-07-29T15:56:57Z</time>
      </trkpt>
      <trkpt lat="47.32208" lon="6.82777">
        <ele>457.8</ele>
        <time>2021-07-29T15:56:58Z</time>
      </trkpt>
      <trkpt lat="47.32209" lon="6.82779">
        <ele>457.8</ele>
        <time>2021-07-29T15:56:59Z</time>
      </trkpt>
      <trkpt lat="47.3221" lon="6.82781">
        <ele>457.8</ele>
        <time>2021-07-29T15:57:00Z</time>
      </trkpt>
      <trkpt lat="47.32211" lon="6.82784">
        <ele>458</ele>
        <time>2021-07-29T15:57:01Z</time>
      </trkpt>
      <trkpt lat="47.32212" lon="6.82786">
        <ele>458</ele>
        <time>2021-07-29T15:57:02Z</time>
      </trkpt>
      <trkpt lat="47.32213" lon="6.82789">
        <ele>458.2</ele>
        <time>2021-07-29T15:57:03Z</time>
      </trkpt>
      <trkpt lat="47.32214" lon="6.82791">
        <ele>458.4</ele>
        <time>2021-07-29T15:57:04Z</time>
      </trkpt>
      <trkpt lat="47.32215" lon="6.82793">
        <ele>458.4</ele>
        <time>2021-07-29T15:57:05Z</time>
      </trkpt>
      <trkpt lat="47.32216" lon="6.82796">
        <ele>458.4</ele>
        <time>2021-07-29T15:57:06Z</time>
      </trkpt>
      <trkpt lat="47.32217" lon="6.82798">
        <ele>458.6</ele>
        <time>2021-07-29T15:57:07Z</time>
      </trkpt>
      <trkpt lat="47.32218" lon="6.828">
        <ele>458.8</ele>
        <time>2021-07-29T15:57:08Z</time>
      </trkpt>
      <trkpt lat="47.32219" lon="6.82803">
        <ele>458.8</ele>
        <time>2021-07-29T15:57:09Z</time>
      </trkpt>
      <trkpt lat="47.3222" lon="6.82805">
        <ele>459</ele>
        <time>2021-07-29T15:57:10Z</time>
      </trkpt>
      <trkpt lat="47.32221" lon="6.82807">
        <ele>459.2</ele>
        <time>2021-07-29T15:57:11Z</time>
      </trkpt>
      <trkpt lat="47.32222" lon="6.8281">
        <ele>459.4</ele>
        <time>2021-07-29T15:57:12Z</time>
      </trkpt>
      <trkpt lat="47.32223" lon="6.82813">
        <ele>459.6</ele>
        <time>2021-07-29T15:57:13Z</time>
      </trkpt>
      <trkpt lat="47.32224" lon="6.82815">
        <ele>459.6</ele>
        <time>2021-07-29T15:57:14Z</time>
      </trkpt>
      <trkpt lat="47.32225" lon="6.82818">
        <ele>459.8</ele>
        <time>2021-07-29T15:57:15Z</time>
      </trkpt>
      <trkpt lat="47.32227" lon="6.8282">
        <ele>459.8</ele>
        <time>2021-07-29T15:57:16Z</time>
      </trkpt>
      <trkpt lat="47.32228" lon="6.82823">
        <ele>459.8</ele>
        <time>2021-07-29T15:57:17Z</time>
      </trkpt>
      <trkpt lat="47.32229" lon="6.82825">
        <ele>460</ele>
        <time>2021-07-29T15:57:18Z</time>
      </trkpt>
      <trkpt lat="47.3223" lon="6.82828">
        <ele>460</ele>
        <time>2021-07-29T15:57:19Z</time>
      </trkpt>
      <trkpt lat="47.32231" lon="6.8283">
        <ele>460</ele>
        <time>2021-07-29T15:57:20Z</time>
      </trkpt>
      <trkpt lat="47.32232" lon="6.82833">
        <ele>460.2</ele>
        <time>2021-07-29T15:57:21Z</time>
      </trkpt>
      <trkpt lat="47.32233" lon="6.82836">
        <ele>460.2</ele>
        <time>2021-07-29T15:57:22Z</time>
      </trkpt>
      <trkpt lat="47.32234" lon="6.82838">
        <ele>460.2</ele>
        <time>2021-07-29T15:57:23Z</time>
      </trkpt>
      <trkpt lat="47.32235" lon="6.82841">
        <ele>460.4</ele>
        <time>2021-07-29T15:57:24Z</time>
      </trkpt>
      <trkpt lat="47.32236" lon="6.82843">
        <ele>460.4</ele>
        <time>2021-07-29T15:57:25Z</time>
      </trkpt>
      <trkpt lat="47.32237" lon="6.82846">
        <ele>460.6</ele>
        <time>2021-07-29T15:57:26Z</time>
      </trkpt>
      <trkpt lat="47.32239" lon="6.82848">
        <ele>460.8</ele>
        <time>2021-07-29T15:57:27Z</time>
      </trkpt>
      <trkpt lat="47.3224" lon="6.82851">
        <ele>460.8</ele>
        <time>2021-07-29T15:57:28Z</time>
      </trkpt>
      <trkpt lat="47.32241" lon="6.82854">
        <ele>460.8</ele>
        <time>2021-07-29T15:57:29Z</time>
      </trkpt>
      <trkpt lat="47.32242" lon="6.82856">
        <ele>461.2</ele>
        <time>2021-07-29T15:57:30Z</time>
      </trkpt>
      <trkpt lat="47.32243" lon="6.82859">
        <ele>461.2</ele>
        <time>2021-07-29T15:57:31Z</time>
      </trkpt>
      <trkpt lat="47.32244" lon="6.82862">
        <ele>461.2</ele>
        <time>2021-07-29T15:57:32Z</time>
      </trkpt>
      <trkpt lat="47.32246" lon="6.82865">
        <ele>461.4</ele>
        <time>2021-07-29T15:57:33Z</time>
      </trkpt>
      <trkpt lat="47.32247" lon="6.82868">
        <ele>461.4</ele>
        <time>2021-07-29T15:57:34Z</time>
      </trkpt>
      <trkpt lat="47.32248" lon="6.8287">
        <ele>461.4</ele>
        <time>2021-07-29T15:57:35Z</time>
      </trkpt>
      <trkpt lat="47.3225" lon="6.82873">
        <ele>461.4</ele>
        <time>2021-07-29T15:57:36Z</time>
      </trkpt>
      <trkpt lat="47.32251" lon="6.82876">
        <ele>461.6</ele>
        <time>2021-07-29T15:57:37Z</time>
      </trkpt>
      <trkpt lat="47.32252" lon="6.82879">
        <ele>461.6</ele>
        <time>2021-07-29T15:57:38Z</time>
      </trkpt>
      <trkpt lat="47.32254" lon="6.82882">
        <ele>461.8</ele>
        <time>2021-07-29T15:57:39Z</time>
      </trkpt>
      <trkpt lat="47.32255" lon="6.82885">
        <ele>461.8</ele>
        <time>2021-07-29T15:57:40Z</time>
      </trkpt>
      <trkpt lat="47.32256" lon="6.82888">
        <ele>461.8</ele>
        <time>2021-07-29T15:57:41Z</time>
      </trkpt>
      <trkpt lat="47.32258" lon="6.82892">
        <ele>461.8</ele>
        <time>2021-07-29T15:57:42Z</time>
      </trkpt>
      <trkpt lat="47.32259" lon="6.82895">
        <ele>461.8</ele>
        <time>2021-07-29T15:57:43Z</time>
      </trkpt>
      <trkpt lat="47.32261" lon="6.82899">
        <ele>461.8</ele>
        <time>2021-07-29T15:57:44Z</time>
      </trkpt>
      <trkpt lat="47.32263" lon="6.82902">
        <ele>462</ele>
        <time>2021-07-29T15:57:45Z</time>
      </trkpt>
      <trkpt lat="47.32264" lon="6.82906">
        <ele>462</ele>
        <time>2021-07-29T15:57:46Z</time>
      </trkpt>
      <trkpt lat="47.32266" lon="6.82909">
        <ele>462</ele>
        <time>2021-07-29T15:57:47Z</time>
      </trkpt>
      <trkpt lat="47.32267" lon="6.82913">
        <ele>462</ele>
        <time>2021-07-29T15:57:48Z</time>
      </trkpt>
      <trkpt lat="47.32269" lon="6.82916">
        <ele>462</ele>
        <time>2021-07-29T15:57:49Z</time>
      </trkpt>
      <trkpt lat="47.32271" lon="6.8292">
        <ele>462</ele>
        <time>2021-07-29T15:57:50Z</time>
      </trkpt>
      <trkpt lat="47.32273" lon="6.82924">
        <ele>462</ele>
        <time>2021-07-29T15:57:51Z</time>
      </trkpt>
      <trkpt lat="47.32274" lon="6.82928">
        <ele>462</ele>
        <time>2021-07-29T15:57:52Z</time>
      </trkpt>
      <trkpt lat="47.32276" lon="6.82932">
        <ele>462</ele>
        <time>2021-07-29T15:57:53Z</time>
      </trkpt>
      <trkpt lat="47.32278" lon="6.82936">
        <ele>462</ele>
        <time>2021-07-29T15:57:54Z</time>
      </trkpt>
      <trkpt lat="47.3228" lon="6.8294">
        <ele>462</ele>
        <time>2021-07-29T15:57:55Z</time>
      </trkpt>
      <trkpt lat="47.32283" lon="6.82944">
        <ele>462</ele>
        <time>2021-07-29T15:57:56Z</time>
      </trkpt>
      <trkpt lat="47.32285" lon="6.82948">
        <ele>462</ele>
        <time>2021-07-29T15:57:57Z</time>
      </trkpt>
      <trkpt lat="47.32287" lon="6.82953">
        <ele>462</ele>
        <time>2021-07-29T15:57:58Z</time>
      </trkpt>
      <trkpt lat="47.32289" lon="6.82957">
        <ele>462</ele>
        <time>2021-07-29T15:57:59Z</time>
      </trkpt>
      <trkpt lat="47.32291" lon="6.82961">
        <ele>462</ele>
        <time>2021-07-29T15:58:00Z</time>
      </trkpt>
      <trkpt lat="47.32293" lon="6.82965">
        <ele>462</ele>
        <time>2021-07-29T15:58:01Z</time>
      </trkpt>
      <trkpt lat="47.32295" lon="6.8297">
        <ele>462</ele>
        <time>2021-07-29T15:58:02Z</time>
      </trkpt>
      <trkpt lat="47.32297" lon="6.82974">
        <ele>462</ele>
        <time>2021-07-29T15:58:03Z</time>
      </trkpt>
      <trkpt lat="47.323" lon="6.82978">
        <ele>462</ele>
        <time>2021-07-29T15:58:04Z</time>
      </trkpt>
      <trkpt lat="47.32302" lon="6.82983">
        <ele>461.8</ele>
        <time>2021-07-29T15:58:05Z</time>
      </trkpt>
      <trkpt lat="47.32304" lon="6.82987">
        <ele>461.8</ele>
        <time>2021-07-29T15:58:06Z</time>
      </trkpt>
      <trkpt lat="47.32307" lon="6.82992">
        <ele>461.8</ele>
        <time>2021-07-29T15:58:07Z</time>
      </trkpt>
      <trkpt lat="47.3231" lon="6.82996">
        <ele>461.8</ele>
        <time>2021-07-29T15:58:08Z</time>
      </trkpt>
      <trkpt lat="47.32313" lon="6.83001">
        <ele>461.6</ele>
        <time>2021-07-29T15:58:09Z</time>
      </trkpt>
      <trkpt lat="47.32317" lon="6.83005">
        <ele>461.6</ele>
        <time>2021-07-29T15:58:10Z</time>
      </trkpt>
      <trkpt lat="47.3232" lon="6.83009">
        <ele>461.6</ele>
        <time>2021-07-29T15:58:11Z</time>
      </trkpt>
      <trkpt lat="47.32324" lon="6.83013">
        <ele>461.6</ele>
        <time>2021-07-29T15:58:12Z</time>
      </trkpt>
      <trkpt lat="47.32328" lon="6.83016">
        <ele>461.4</ele>
        <time>2021-07-29T15:58:13Z</time>
      </trkpt>
      <trkpt lat="47.32332" lon="6.8302">
        <ele>461.2</ele>
        <time>2021-07-29T15:58:14Z</time>
      </trkpt>
      <trkpt lat="47.32336" lon="6.83025">
        <ele>461.2</ele>
        <time>2021-07-29T15:58:15Z</time>
      </trkpt>
      <trkpt lat="47.32341" lon="6.83029">
        <ele>461</ele>
        <time>2021-07-29T15:58:16Z</time>
      </trkpt>
      <trkpt lat="47.32345" lon="6.83035">
        <ele>460.8</ele>
        <time>2021-07-29T15:58:17Z</time>
      </trkpt>
      <trkpt lat="47.32348" lon="6.83041">
        <ele>460.6</ele>
        <time>2021-07-29T15:58:18Z</time>
      </trkpt>
      <trkpt lat="47.32352" lon="6.83048">
        <ele>460.4</ele>
        <time>2021-07-29T15:58:19Z</time>
      </trkpt>
      <trkpt lat="47.32355" lon="6.83055">
        <ele>460.2</ele>
        <time>2021-07-29T15:58:20Z</time>
      </trkpt>
      <trkpt lat="47.32358" lon="6.83062">
        <ele>460.2</ele>
        <time>2021-07-29T15:58:21Z</time>
      </trkpt>
      <trkpt lat="47.32361" lon="6.83069">
        <ele>460.2</ele>
        <time>2021-07-29T15:58:22Z</time>
      </trkpt>
      <trkpt lat="47.32363" lon="6.83076">
        <ele>460</ele>
        <time>2021-07-29T15:58:23Z</time>
      </trkpt>
      <trkpt lat="47.32366" lon="6.83084">
        <ele>460</ele>
        <time>2021-07-29T15:58:24Z</time>
      </trkpt>
      <trkpt lat="47.32367" lon="6.83092">
        <ele>459.8</ele>
        <time>2021-07-29T15:58:25Z</time>
      </trkpt>
      <trkpt lat="47.32369" lon="6.83102">
        <ele>459.6</ele>
        <time>2021-07-29T15:58:26Z</time>
      </trkpt>
      <trkpt lat="47.3237" lon="6.8311">
        <ele>459.4</ele>
        <time>2021-07-29T15:58:27Z</time>
      </trkpt>
      <trkpt lat="47.32371" lon="6.83118">
        <ele>459.4</ele>
        <time>2021-07-29T15:58:28Z</time>
      </trkpt>
      <trkpt lat="47.32373" lon="6.83126">
        <ele>459.2</ele>
        <time>2021-07-29T15:58:29Z</time>
      </trkpt>
      <trkpt lat="47.32375" lon="6.83133">
        <ele>459.2</ele>
        <time>2021-07-29T15:58:30Z</time>
      </trkpt>
      <trkpt lat="47.32377" lon="6.83141">
        <ele>459</ele>
        <time>2021-07-29T15:58:31Z</time>
      </trkpt>
      <trkpt lat="47.32379" lon="6.83148">
        <ele>459</ele>
        <time>2021-07-29T15:58:32Z</time>
      </trkpt>
      <trkpt lat="47.32382" lon="6.83155">
        <ele>458.8</ele>
        <time>2021-07-29T15:58:33Z</time>
      </trkpt>
      <trkpt lat="47.32386" lon="6.83163">
        <ele>458.8</ele>
        <time>2021-07-29T15:58:34Z</time>
      </trkpt>
      <trkpt lat="47.32389" lon="6.8317">
        <ele>458.8</ele>
        <time>2021-07-29T15:58:35Z</time>
      </trkpt>
      <trkpt lat="47.32392" lon="6.83176">
        <ele>458.6</ele>
        <time>2021-07-29T15:58:36Z</time>
      </trkpt>
      <trkpt lat="47.32396" lon="6.83182">
        <ele>458.6</ele>
        <time>2021-07-29T15:58:37Z</time>
      </trkpt>
      <trkpt lat="47.32399" lon="6.83187">
        <ele>458.6</ele>
        <time>2021-07-29T15:58:38Z</time>
      </trkpt>
      <trkpt lat="47.32402" lon="6.83193">
        <ele>458.6</ele>
        <time>2021-07-29T15:58:39Z</time>
      </trkpt>
      <trkpt lat="47.32405" lon="6.832">
        <ele>458.4</ele>
        <time>2021-07-29T15:58:40Z</time>
      </trkpt>
      <trkpt lat="47.32408" lon="6.83206">
        <ele>458.4</ele>
        <time>2021-07-29T15:58:41Z</time>
      </trkpt>
      <trkpt lat="47.32412" lon="6.83211">
        <ele>458.2</ele>
        <time>2021-07-29T15:58:42Z</time>
      </trkpt>
      <trkpt lat="47.32417" lon="6.83216">
        <ele>458</ele>
        <time>2021-07-29T15:58:43Z</time>
      </trkpt>
      <trkpt lat="47.32421" lon="6.83221">
        <ele>458</ele>
        <time>2021-07-29T15:58:44Z</time>
      </trkpt>
      <trkpt lat="47.32424" lon="6.83226">
        <ele>457.8</ele>
        <time>2021-07-29T15:58:45Z</time>
      </trkpt>
      <trkpt lat="47.32429" lon="6.8323">
        <ele>457.8</ele>
        <time>2021-07-29T15:58:46Z</time>
      </trkpt>
      <trkpt lat="47.32433" lon="6.83234">
        <ele>457.8</ele>
        <time>2021-07-29T15:58:47Z</time>
      </trkpt>
      <trkpt lat="47.32437" lon="6.83239">
        <ele>457.6</ele>
        <time>2021-07-29T15:58:48Z</time>
      </trkpt>
      <trkpt lat="47.32442" lon="6.83244">
        <ele>457.4</ele>
        <time>2021-07-29T15:58:49Z</time>
      </trkpt>
      <trkpt lat="47.32448" lon="6.83249">
        <ele>457.2</ele>
        <time>2021-07-29T15:58:50Z</time>
      </trkpt>
      <trkpt lat="47.32453" lon="6.83257">
        <ele>457</ele>
        <time>2021-07-29T15:58:51Z</time>
      </trkpt>
      <trkpt lat="47.32457" lon="6.83265">
        <ele>456.8</ele>
        <time>2021-07-29T15:58:52Z</time>
      </trkpt>
      <trkpt lat="47.32458" lon="6.83273">
        <ele>456.6</ele>
        <time>2021-07-29T15:58:53Z</time>
      </trkpt>
      <trkpt lat="47.3246" lon="6.83281">
        <ele>456.6</ele>
        <time>2021-07-29T15:58:54Z</time>
      </trkpt>
      <trkpt lat="47.3246" lon="6.83291">
        <ele>456.4</ele>
        <time>2021-07-29T15:58:55Z</time>
      </trkpt>
      <trkpt lat="47.3246" lon="6.83301">
        <ele>456.4</ele>
        <time>2021-07-29T15:58:56Z</time>
      </trkpt>
      <trkpt lat="47.32459" lon="6.83313">
        <ele>456.2</ele>
        <time>2021-07-29T15:58:57Z</time>
      </trkpt>
      <trkpt lat="47.32458" lon="6.83323">
        <ele>456.2</ele>
        <time>2021-07-29T15:58:58Z</time>
      </trkpt>
      <trkpt lat="47.32458" lon="6.83333">
        <ele>456</ele>
        <time>2021-07-29T15:58:59Z</time>
      </trkpt>
      <trkpt lat="47.32459" lon="6.83343">
        <ele>455.8</ele>
        <time>2021-07-29T15:59:00Z</time>
      </trkpt>
      <trkpt lat="47.3246" lon="6.83352">
        <ele>455.8</ele>
        <time>2021-07-29T15:59:01Z</time>
      </trkpt>
      <trkpt lat="47.32461" lon="6.83362">
        <ele>455.6</ele>
        <time>2021-07-29T15:59:02Z</time>
      </trkpt>
      <trkpt lat="47.32462" lon="6.83372">
        <ele>455.6</ele>
        <time>2021-07-29T15:59:03Z</time>
      </trkpt>
      <trkpt lat="47.32462" lon="6.83383">
        <ele>455.4</ele>
        <time>2021-07-29T15:59:04Z</time>
      </trkpt>
      <trkpt lat="47.32462" lon="6.83394">
        <ele>455.2</ele>
        <time>2021-07-29T15:59:05Z</time>
      </trkpt>
      <trkpt lat="47.32462" lon="6.83403">
        <ele>455</ele>
        <time>2021-07-29T15:59:06Z</time>
      </trkpt>
      <trkpt lat="47.32462" lon="6.83413">
        <ele>454.8</ele>
        <time>2021-07-29T15:59:07Z</time>
      </trkpt>
      <trkpt lat="47.32461" lon="6.83421">
        <ele>454.6</ele>
        <time>2021-07-29T15:59:08Z</time>
      </trkpt>
      <trkpt lat="47.32461" lon="6.8343">
        <ele>454.4</ele>
        <time>2021-07-29T15:59:09Z</time>
      </trkpt>
      <trkpt lat="47.3246" lon="6.83438">
        <ele>454.4</ele>
        <time>2021-07-29T15:59:10Z</time>
      </trkpt>
      <trkpt lat="47.3246" lon="6.83447">
        <ele>454.2</ele>
        <time>2021-07-29T15:59:11Z</time>
      </trkpt>
      <trkpt lat="47.32461" lon="6.83456">
        <ele>454.2</ele>
        <time>2021-07-29T15:59:12Z</time>
      </trkpt>
      <trkpt lat="47.32462" lon="6.83464">
        <ele>454</ele>
        <time>2021-07-29T15:59:13Z</time>
      </trkpt>
      <trkpt lat="47.32463" lon="6.83473">
        <ele>454</ele>
        <time>2021-07-29T15:59:14Z</time>
      </trkpt>
      <trkpt lat="47.32463" lon="6.83483">
        <ele>453.8</ele>
        <time>2021-07-29T15:59:15Z</time>
      </trkpt>
      <trkpt lat="47.32463" lon="6.83492">
        <ele>453.8</ele>
        <time>2021-07-29T15:59:16Z</time>
      </trkpt>
      <trkpt lat="47.32462" lon="6.83501">
        <ele>453.6</ele>
        <time>2021-07-29T15:59:17Z</time>
      </trkpt>
      <trkpt lat="47.32461" lon="6.8351">
        <ele>453.6</ele>
        <time>2021-07-29T15:59:18Z</time>
      </trkpt>
      <trkpt lat="47.32461" lon="6.83519">
        <ele>453.6</ele>
        <time>2021-07-29T15:59:19Z</time>
      </trkpt>
      <trkpt lat="47.3246" lon="6.83527">
        <ele>453.2</ele>
        <time>2021-07-29T15:59:20Z</time>
      </trkpt>
      <trkpt lat="47.32459" lon="6.83537">
        <ele>453.2</ele>
        <time>2021-07-29T15:59:21Z</time>
      </trkpt>
      <trkpt lat="47.32458" lon="6.83546">
        <ele>453.2</ele>
        <time>2021-07-29T15:59:22Z</time>
      </trkpt>
      <trkpt lat="47.32459" lon="6.83555">
        <ele>453</ele>
        <time>2021-07-29T15:59:23Z</time>
      </trkpt>
      <trkpt lat="47.32459" lon="6.83564">
        <ele>453</ele>
        <time>2021-07-29T15:59:24Z</time>
      </trkpt>
      <trkpt lat="47.32458" lon="6.83574">
        <ele>453</ele>
        <time>2021-07-29T15:59:25Z</time>
      </trkpt>
      <trkpt lat="47.32459" lon="6.83584">
        <ele>453</ele>
        <time>2021-07-29T15:59:26Z</time>
      </trkpt>
      <trkpt lat="47.32459" lon="6.83593">
        <ele>453</ele>
        <time>2021-07-29T15:59:27Z</time>
      </trkpt>
      <trkpt lat="47.32459" lon="6.83604">
        <ele>452.8</ele>
        <time>2021-07-29T15:59:28Z</time>
      </trkpt>
      <trkpt lat="47.32458" lon="6.83614">
        <ele>452.8</ele>
        <time>2021-07-29T15:59:29Z</time>
      </trkpt>
      <trkpt lat="47.32457" lon="6.83624">
        <ele>452.6</ele>
        <time>2021-07-29T15:59:30Z</time>
      </trkpt>
      <trkpt lat="47.32457" lon="6.83634">
        <ele>452.6</ele>
        <time>2021-07-29T15:59:31Z</time>
      </trkpt>
      <trkpt lat="47.32456" lon="6.83644">
        <ele>452.4</ele>
        <time>2021-07-29T15:59:32Z</time>
      </trkpt>
      <trkpt lat="47.32453" lon="6.83653">
        <ele>452.4</ele>
        <time>2021-07-29T15:59:33Z</time>
      </trkpt>
      <trkpt lat="47.32451" lon="6.83663">
        <ele>452.2</ele>
        <time>2021-07-29T15:59:34Z</time>
      </trkpt>
      <trkpt lat="47.3245" lon="6.83673">
        <ele>452.2</ele>
        <time>2021-07-29T15:59:35Z</time>
      </trkpt>
      <trkpt lat="47.32449" lon="6.83683">
        <ele>452.2</ele>
        <time>2021-07-29T15:59:36Z</time>
      </trkpt>
      <trkpt lat="47.32448" lon="6.83693">
        <ele>452</ele>
        <time>2021-07-29T15:59:37Z</time>
      </trkpt>
      <trkpt lat="47.32448" lon="6.83703">
        <ele>452</ele>
        <time>2021-07-29T15:59:38Z</time>
      </trkpt>
      <trkpt lat="47.32448" lon="6.83712">
        <ele>451.8</ele>
        <time>2021-07-29T15:59:39Z</time>
      </trkpt>
      <trkpt lat="47.32448" lon="6.83722">
        <ele>451.6</ele>
        <time>2021-07-29T15:59:40Z</time>
      </trkpt>
      <trkpt lat="47.32449" lon="6.83732">
        <ele>451.4</ele>
        <time>2021-07-29T15:59:41Z</time>
      </trkpt>
      <trkpt lat="47.32449" lon="6.83743">
        <ele>451.2</ele>
        <time>2021-07-29T15:59:42Z</time>
      </trkpt>
      <trkpt lat="47.32449" lon="6.83754">
        <ele>451.2</ele>
        <time>2021-07-29T15:59:43Z</time>
      </trkpt>
      <trkpt lat="47.32449" lon="6.83765">
        <ele>451</ele>
        <time>2021-07-29T15:59:44Z</time>
      </trkpt>
      <trkpt lat="47.32449" lon="6.83776">
        <ele>450.8</ele>
        <time>2021-07-29T15:59:45Z</time>
      </trkpt>
      <trkpt lat="47.32448" lon="6.83786">
        <ele>450.4</ele>
        <time>2021-07-29T15:59:46Z</time>
      </trkpt>
      <trkpt lat="47.32449" lon="6.83797">
        <ele>450.2</ele>
        <time>2021-07-29T15:59:47Z</time>
      </trkpt>
      <trkpt lat="47.3245" lon="6.83808">
        <ele>450</ele>
        <time>2021-07-29T15:59:48Z</time>
      </trkpt>
      <trkpt lat="47.3245" lon="6.8382">
        <ele>449.8</ele>
        <time>2021-07-29T15:59:49Z</time>
      </trkpt>
      <trkpt lat="47.32451" lon="6.83831">
        <ele>449.6</ele>
        <time>2021-07-29T15:59:50Z</time>
      </trkpt>
      <trkpt lat="47.32451" lon="6.83842">
        <ele>449.6</ele>
        <time>2021-07-29T15:59:51Z</time>
      </trkpt>
      <trkpt lat="47.32451" lon="6.83852">
        <ele>449.4</ele>
        <time>2021-07-29T15:59:52Z</time>
      </trkpt>
      <trkpt lat="47.32451" lon="6.83863">
        <ele>449.2</ele>
        <time>2021-07-29T15:59:53Z</time>
      </trkpt>
      <trkpt lat="47.3245" lon="6.83874">
        <ele>449</ele>
        <time>2021-07-29T15:59:54Z</time>
      </trkpt>
      <trkpt lat="47.32448" lon="6.83884">
        <ele>448.6</ele>
        <time>2021-07-29T15:59:55Z</time>
      </trkpt>
      <trkpt lat="47.32445" lon="6.83894">
        <ele>448.6</ele>
        <time>2021-07-29T15:59:56Z</time>
      </trkpt>
      <trkpt lat="47.32443" lon="6.83903">
        <ele>448.6</ele>
        <time>2021-07-29T15:59:57Z</time>
      </trkpt>
      <trkpt lat="47.3244" lon="6.83912">
        <ele>448.4</ele>
        <time>2021-07-29T15:59:58Z</time>
      </trkpt>
      <trkpt lat="47.32438" lon="6.8392">
        <ele>448.4</ele>
        <time>2021-07-29T15:59:59Z</time>
      </trkpt>
      <trkpt lat="47.32435" lon="6.83928">
        <ele>448.2</ele>
        <time>2021-07-29T16:00:00Z</time>
      </trkpt>
      <trkpt lat="47.32432" lon="6.83936">
        <ele>447.8</ele>
        <time>2021-07-29T16:00:01Z</time>
      </trkpt>
      <trkpt lat="47.32429" lon="6.83945">
        <ele>447.8</ele>
        <time>2021-07-29T16:00:02Z</time>
      </trkpt>
      <trkpt lat="47.32427" lon="6.83955">
        <ele>447.6</ele>
        <time>2021-07-29T16:00:03Z</time>
      </trkpt>
      <trkpt lat="47.32426" lon="6.83964">
        <ele>447.4</ele>
        <time>2021-07-29T16:00:04Z</time>
      </trkpt>
      <trkpt lat="47.32424" lon="6.83973">
        <ele>447.2</ele>
        <time>2021-07-29T16:00:05Z</time>
      </trkpt>
      <trkpt lat="47.32422" lon="6.83982">
        <ele>447.2</ele>
        <time>2021-07-29T16:00:06Z</time>
      </trkpt>
      <trkpt lat="47.32421" lon="6.83992">
        <ele>447</ele>
        <time>2021-07-29T16:00:07Z</time>
      </trkpt>
      <trkpt lat="47.3242" lon="6.84001">
        <ele>446.6</ele>
        <time>2021-07-29T16:00:08Z</time>
      </trkpt>
      <trkpt lat="47.32419" lon="6.84011">
        <ele>446.4</ele>
        <time>2021-07-29T16:00:09Z</time>
      </trkpt>
      <trkpt lat="47.3242" lon="6.84021">
        <ele>446.2</ele>
        <time>2021-07-29T16:00:10Z</time>
      </trkpt>
      <trkpt lat="47.3242" lon="6.8403">
        <ele>446.2</ele>
        <time>2021-07-29T16:00:11Z</time>
      </trkpt>
      <trkpt lat="47.3242" lon="6.8404">
        <ele>446</ele>
        <time>2021-07-29T16:00:12Z</time>
      </trkpt>
      <trkpt lat="47.3242" lon="6.8405">
        <ele>445.8</ele>
        <time>2021-07-29T16:00:13Z</time>
      </trkpt>
      <trkpt lat="47.3242" lon="6.84061">
        <ele>445.6</ele>
        <time>2021-07-29T16:00:14Z</time>
      </trkpt>
      <trkpt lat="47.32419" lon="6.84072">
        <ele>445.4</ele>
        <time>2021-07-29T16:00:15Z</time>
      </trkpt>
      <trkpt lat="47.32418" lon="6.84083">
        <ele>445.2</ele>
        <time>2021-07-29T16:00:16Z</time>
      </trkpt>
      <trkpt lat="47.32416" lon="6.84094">
        <ele>445</ele>
        <time>2021-07-29T16:00:17Z</time>
      </trkpt>
      <trkpt lat="47.32413" lon="6.84105">
        <ele>444.8</ele>
        <time>2021-07-29T16:00:18Z</time>
      </trkpt>
      <trkpt lat="47.32412" lon="6.84116">
        <ele>444.8</ele>
        <time>2021-07-29T16:00:19Z</time>
      </trkpt>
      <trkpt lat="47.3241" lon="6.84126">
        <ele>444.6</ele>
        <time>2021-07-29T16:00:20Z</time>
      </trkpt>
      <trkpt lat="47.32408" lon="6.84136">
        <ele>444.4</ele>
        <time>2021-07-29T16:00:21Z</time>
      </trkpt>
      <trkpt lat="47.32406" lon="6.84146">
        <ele>444.2</ele>
        <time>2021-07-29T16:00:22Z</time>
      </trkpt>
      <trkpt lat="47.32404" lon="6.84157">
        <ele>444.2</ele>
        <time>2021-07-29T16:00:23Z</time>
      </trkpt>
      <trkpt lat="47.32402" lon="6.84167">
        <ele>444</ele>
        <time>2021-07-29T16:00:24Z</time>
      </trkpt>
      <trkpt lat="47.32401" lon="6.84178">
        <ele>443.8</ele>
        <time>2021-07-29T16:00:25Z</time>
      </trkpt>
      <trkpt lat="47.324" lon="6.84189">
        <ele>443.6</ele>
        <time>2021-07-29T16:00:26Z</time>
      </trkpt>
      <trkpt lat="47.32398" lon="6.84199">
        <ele>443.4</ele>
        <time>2021-07-29T16:00:27Z</time>
      </trkpt>
      <trkpt lat="47.32397" lon="6.8421">
        <ele>443.4</ele>
        <time>2021-07-29T16:00:28Z</time>
      </trkpt>
      <trkpt lat="47.32395" lon="6.8422">
        <ele>443.2</ele>
        <time>2021-07-29T16:00:29Z</time>
      </trkpt>
      <trkpt lat="47.32394" lon="6.8423">
        <ele>443</ele>
        <time>2021-07-29T16:00:30Z</time>
      </trkpt>
      <trkpt lat="47.32392" lon="6.84241">
        <ele>442.8</ele>
        <time>2021-07-29T16:00:31Z</time>
      </trkpt>
      <trkpt lat="47.3239" lon="6.84252">
        <ele>442.8</ele>
        <time>2021-07-29T16:00:32Z</time>
      </trkpt>
      <trkpt lat="47.32389" lon="6.84263">
        <ele>442.4</ele>
        <time>2021-07-29T16:00:33Z</time>
      </trkpt>
      <trkpt lat="47.32387" lon="6.84274">
        <ele>442.2</ele>
        <time>2021-07-29T16:00:34Z</time>
      </trkpt>
      <trkpt lat="47.32385" lon="6.84284">
        <ele>441.6</ele>
        <time>2021-07-29T16:00:35Z</time>
      </trkpt>
      <trkpt lat="47.32383" lon="6.84295">
        <ele>441.4</ele>
        <time>2021-07-29T16:00:36Z</time>
      </trkpt>
      <trkpt lat="47.32381" lon="6.84306">
        <ele>441.4</ele>
        <time>2021-07-29T16:00:37Z</time>
      </trkpt>
      <trkpt lat="47.3238" lon="6.84318">
        <ele>441.2</ele>
        <time>2021-07-29T16:00:38Z</time>
      </trkpt>
      <trkpt lat="47.32378" lon="6.84329">
        <ele>441</ele>
        <time>2021-07-29T16:00:39Z</time>
      </trkpt>
      <trkpt lat="47.32376" lon="6.84341">
        <ele>440.8</ele>
        <time>2021-07-29T16:00:40Z</time>
      </trkpt>
      <trkpt lat="47.32374" lon="6.84352">
        <ele>440.6</ele>
        <time>2021-07-29T16:00:41Z</time>
      </trkpt>
      <trkpt lat="47.32372" lon="6.84363">
        <ele>440.4</ele>
        <time>2021-07-29T16:00:42Z</time>
      </trkpt>
      <trkpt lat="47.32369" lon="6.84375">
        <ele>440.2</ele>
        <time>2021-07-29T16:00:43Z</time>
      </trkpt>
      <trkpt lat="47.32365" lon="6.84384">
        <ele>440</ele>
        <time>2021-07-29T16:00:44Z</time>
      </trkpt>
      <trkpt lat="47.32362" lon="6.84395">
        <ele>439.6</ele>
        <time>2021-07-29T16:00:45Z</time>
      </trkpt>
      <trkpt lat="47.32358" lon="6.84404">
        <ele>439.4</ele>
        <time>2021-07-29T16:00:46Z</time>
      </trkpt>
      <trkpt lat="47.32355" lon="6.84414">
        <ele>439</ele>
        <time>2021-07-29T16:00:47Z</time>
      </trkpt>
      <trkpt lat="47.32351" lon="6.84422">
        <ele>438.8</ele>
        <time>2021-07-29T16:00:48Z</time>
      </trkpt>
      <trkpt lat="47.32348" lon="6.84431">
        <ele>438.6</ele>
        <time>2021-07-29T16:00:49Z</time>
      </trkpt>
      <trkpt lat="47.32342" lon="6.84441">
        <ele>438.4</ele>
        <time>2021-07-29T16:00:50Z</time>
      </trkpt>
      <trkpt lat="47.32337" lon="6.84451">
        <ele>438</ele>
        <time>2021-07-29T16:00:51Z</time>
      </trkpt>
      <trkpt lat="47.32332" lon="6.8446">
        <ele>437.8</ele>
        <time>2021-07-29T16:00:52Z</time>
      </trkpt>
      <trkpt lat="47.32326" lon="6.84469">
        <ele>437.6</ele>
        <time>2021-07-29T16:00:53Z</time>
      </trkpt>
      <trkpt lat="47.32321" lon="6.84479">
        <ele>437.4</ele>
        <time>2021-07-29T16:00:54Z</time>
      </trkpt>
      <trkpt lat="47.32315" lon="6.84489">
        <ele>437.2</ele>
        <time>2021-07-29T16:00:55Z</time>
      </trkpt>
      <trkpt lat="47.32311" lon="6.845">
        <ele>437.2</ele>
        <time>2021-07-29T16:00:56Z</time>
      </trkpt>
      <trkpt lat="47.32306" lon="6.84511">
        <ele>437</ele>
        <time>2021-07-29T16:00:57Z</time>
      </trkpt>
      <trkpt lat="47.32302" lon="6.84521">
        <ele>436.6</ele>
        <time>2021-07-29T16:00:58Z</time>
      </trkpt>
      <trkpt lat="47.32298" lon="6.84532">
        <ele>436.4</ele>
        <time>2021-07-29T16:00:59Z</time>
      </trkpt>
      <trkpt lat="47.32295" lon="6.84544">
        <ele>436.4</ele>
        <time>2021-07-29T16:01:00Z</time>
      </trkpt>
      <trkpt lat="47.32293" lon="6.84555">
        <ele>436.2</ele>
        <time>2021-07-29T16:01:01Z</time>
      </trkpt>
      <trkpt lat="47.32291" lon="6.84566">
        <ele>436.2</ele>
        <time>2021-07-29T16:01:02Z</time>
      </trkpt>
      <trkpt lat="47.32289" lon="6.84578">
        <ele>436</ele>
        <time>2021-07-29T16:01:03Z</time>
      </trkpt>
      <trkpt lat="47.32289" lon="6.8459">
        <ele>436</ele>
        <time>2021-07-29T16:01:04Z</time>
      </trkpt>
      <trkpt lat="47.32288" lon="6.84601">
        <ele>435.8</ele>
        <time>2021-07-29T16:01:05Z</time>
      </trkpt>
      <trkpt lat="47.32288" lon="6.84613">
        <ele>435.6</ele>
        <time>2021-07-29T16:01:06Z</time>
      </trkpt>
      <trkpt lat="47.32287" lon="6.84624">
        <ele>435.4</ele>
        <time>2021-07-29T16:01:07Z</time>
      </trkpt>
      <trkpt lat="47.32287" lon="6.84636">
        <ele>435.4</ele>
        <time>2021-07-29T16:01:08Z</time>
      </trkpt>
      <trkpt lat="47.32286" lon="6.84648">
        <ele>435.2</ele>
        <time>2021-07-29T16:01:09Z</time>
      </trkpt>
      <trkpt lat="47.32285" lon="6.84659">
        <ele>435</ele>
        <time>2021-07-29T16:01:10Z</time>
      </trkpt>
      <trkpt lat="47.32284" lon="6.84671">
        <ele>434.8</ele>
        <time>2021-07-29T16:01:11Z</time>
      </trkpt>
      <trkpt lat="47.32281" lon="6.84682">
        <ele>434.6</ele>
        <time>2021-07-29T16:01:12Z</time>
      </trkpt>
      <trkpt lat="47.32279" lon="6.84693">
        <ele>434.4</ele>
        <time>2021-07-29T16:01:13Z</time>
      </trkpt>
      <trkpt lat="47.32276" lon="6.84703">
        <ele>434.4</ele>
        <time>2021-07-29T16:01:14Z</time>
      </trkpt>
      <trkpt lat="47.32273" lon="6.84714">
        <ele>434.2</ele>
        <time>2021-07-29T16:01:15Z</time>
      </trkpt>
      <trkpt lat="47.3227" lon="6.84725">
        <ele>434</ele>
        <time>2021-07-29T16:01:16Z</time>
      </trkpt>
      <trkpt lat="47.32266" lon="6.84735">
        <ele>434</ele>
        <time>2021-07-29T16:01:17Z</time>
      </trkpt>
      <trkpt lat="47.32263" lon="6.84746">
        <ele>433.8</ele>
        <time>2021-07-29T16:01:18Z</time>
      </trkpt>
      <trkpt lat="47.3226" lon="6.84756">
        <ele>433.6</ele>
        <time>2021-07-29T16:01:19Z</time>
      </trkpt>
      <trkpt lat="47.32257" lon="6.84767">
        <ele>433.4</ele>
        <time>2021-07-29T16:01:20Z</time>
      </trkpt>
      <trkpt lat="47.32254" lon="6.84777">
        <ele>433.4</ele>
        <time>2021-07-29T16:01:21Z</time>
      </trkpt>
      <trkpt lat="47.3225" lon="6.84787">
        <ele>433.2</ele>
        <time>2021-07-29T16:01:22Z</time>
      </trkpt>
      <trkpt lat="47.32247" lon="6.84797">
        <ele>433</ele>
        <time>2021-07-29T16:01:23Z</time>
      </trkpt>
      <trkpt lat="47.32243" lon="6.84806">
        <ele>432.8</ele>
        <time>2021-07-29T16:01:24Z</time>
      </trkpt>
      <trkpt lat="47.32238" lon="6.84815">
        <ele>432.6</ele>
        <time>2021-07-29T16:01:25Z</time>
      </trkpt>
      <trkpt lat="47.32233" lon="6.84823">
        <ele>432.4</ele>
        <time>2021-07-29T16:01:26Z</time>
      </trkpt>
      <trkpt lat="47.32226" lon="6.84829">
        <ele>432.4</ele>
        <time>2021-07-29T16:01:27Z</time>
      </trkpt>
      <trkpt lat="47.3222" lon="6.84835">
        <ele>432.4</ele>
        <time>2021-07-29T16:01:28Z</time>
      </trkpt>
      <trkpt lat="47.32214" lon="6.84839">
        <ele>432.2</ele>
        <time>2021-07-29T16:01:29Z</time>
      </trkpt>
      <trkpt lat="47.32207" lon="6.84843">
        <ele>432</ele>
        <time>2021-07-29T16:01:30Z</time>
      </trkpt>
      <trkpt lat="47.32201" lon="6.84847">
        <ele>432</ele>
        <time>2021-07-29T16:01:31Z</time>
      </trkpt>
      <trkpt lat="47.32195" lon="6.84853">
        <ele>431.8</ele>
        <time>2021-07-29T16:01:32Z</time>
      </trkpt>
      <trkpt lat="47.32189" lon="6.8486">
        <ele>431.8</ele>
        <time>2021-07-29T16:01:33Z</time>
      </trkpt>
      <trkpt lat="47.32184" lon="6.84867">
        <ele>431.6</ele>
        <time>2021-07-29T16:01:34Z</time>
      </trkpt>
      <trkpt lat="47.32179" lon="6.84875">
        <ele>431.4</ele>
        <time>2021-07-29T16:01:35Z</time>
      </trkpt>
      <trkpt lat="47.32175" lon="6.84885">
        <ele>431.2</ele>
        <time>2021-07-29T16:01:36Z</time>
      </trkpt>
      <trkpt lat="47.32172" lon="6.84896">
        <ele>431.2</ele>
        <time>2021-07-29T16:01:37Z</time>
      </trkpt>
      <trkpt lat="47.3217" lon="6.84907">
        <ele>431</ele>
        <time>2021-07-29T16:01:38Z</time>
      </trkpt>
      <trkpt lat="47.32168" lon="6.84918">
        <ele>431</ele>
        <time>2021-07-29T16:01:39Z</time>
      </trkpt>
      <trkpt lat="47.32167" lon="6.8493">
        <ele>430.8</ele>
        <time>2021-07-29T16:01:40Z</time>
      </trkpt>
      <trkpt lat="47.32165" lon="6.84941">
        <ele>430.8</ele>
        <time>2021-07-29T16:01:41Z</time>
      </trkpt>
      <trkpt lat="47.32163" lon="6.84952">
        <ele>430.6</ele>
        <time>2021-07-29T16:01:42Z</time>
      </trkpt>
      <trkpt lat="47.32161" lon="6.84963">
        <ele>430.6</ele>
        <time>2021-07-29T16:01:43Z</time>
      </trkpt>
      <trkpt lat="47.32159" lon="6.84973">
        <ele>430.4</ele>
        <time>2021-07-29T16:01:44Z</time>
      </trkpt>
      <trkpt lat="47.32158" lon="6.84984">
        <ele>430.4</ele>
        <time>2021-07-29T16:01:45Z</time>
      </trkpt>
      <trkpt lat="47.32158" lon="6.84995">
        <ele>430.4</ele>
        <time>2021-07-29T16:01:46Z</time>
      </trkpt>
      <trkpt lat="47.32158" lon="6.85005">
        <ele>430.2</ele>
        <time>2021-07-29T16:01:47Z</time>
      </trkpt>
      <trkpt lat="47.32158" lon="6.85015">
        <ele>430.4</ele>
        <time>2021-07-29T16:01:48Z</time>
      </trkpt>
      <trkpt lat="47.32159" lon="6.85025">
        <ele>430.4</ele>
        <time>2021-07-29T16:01:49Z</time>
      </trkpt>
      <trkpt lat="47.32159" lon="6.85034">
        <ele>430.4</ele>
        <time>2021-07-29T16:01:50Z</time>
      </trkpt>
      <trkpt lat="47.3216" lon="6.85044">
        <ele>430.4</ele>
        <time>2021-07-29T16:01:51Z</time>
      </trkpt>
      <trkpt lat="47.32162" lon="6.85053">
        <ele>430.6</ele>
        <time>2021-07-29T16:01:52Z</time>
      </trkpt>
      <trkpt lat="47.32163" lon="6.85062">
        <ele>430.6</ele>
        <time>2021-07-29T16:01:53Z</time>
      </trkpt>
      <trkpt lat="47.32165" lon="6.8507">
        <ele>430.6</ele>
        <time>2021-07-29T16:01:54Z</time>
      </trkpt>
      <trkpt lat="47.32167" lon="6.85078">
        <ele>430.6</ele>
        <time>2021-07-29T16:01:55Z</time>
      </trkpt>
      <trkpt lat="47.32168" lon="6.85086">
        <ele>430.8</ele>
        <time>2021-07-29T16:01:56Z</time>
      </trkpt>
      <trkpt lat="47.32169" lon="6.85094">
        <ele>430.8</ele>
        <time>2021-07-29T16:01:57Z</time>
      </trkpt>
      <trkpt lat="47.32171" lon="6.85102">
        <ele>430.6</ele>
        <time>2021-07-29T16:01:58Z</time>
      </trkpt>
      <trkpt lat="47.32172" lon="6.8511">
        <ele>430.6</ele>
        <time>2021-07-29T16:01:59Z</time>
      </trkpt>
      <trkpt lat="47.32174" lon="6.85117">
        <ele>430.6</ele>
        <time>2021-07-29T16:02:00Z</time>
      </trkpt>
      <trkpt lat="47.32176" lon="6.85125">
        <ele>430.8</ele>
        <time>2021-07-29T16:02:01Z</time>
      </trkpt>
      <trkpt lat="47.32179" lon="6.85132">
        <ele>430.8</ele>
        <time>2021-07-29T16:02:02Z</time>
      </trkpt>
      <trkpt lat="47.32181" lon="6.85139">
        <ele>430.8</ele>
        <time>2021-07-29T16:02:03Z</time>
      </trkpt>
      <trkpt lat="47.32183" lon="6.85145">
        <ele>430.8</ele>
        <time>2021-07-29T16:02:04Z</time>
      </trkpt>
      <trkpt lat="47.32186" lon="6.85152">
        <ele>431</ele>
        <time>2021-07-29T16:02:05Z</time>
      </trkpt>
      <trkpt lat="47.32188" lon="6.85158">
        <ele>431</ele>
        <time>2021-07-29T16:02:06Z</time>
      </trkpt>
      <trkpt lat="47.32191" lon="6.85164">
        <ele>431</ele>
        <time>2021-07-29T16:02:07Z</time>
      </trkpt>
      <trkpt lat="47.32194" lon="6.8517">
        <ele>431</ele>
        <time>2021-07-29T16:02:08Z</time>
      </trkpt>
      <trkpt lat="47.32197" lon="6.85176">
        <ele>431</ele>
        <time>2021-07-29T16:02:09Z</time>
      </trkpt>
      <trkpt lat="47.32199" lon="6.85182">
        <ele>431</ele>
        <time>2021-07-29T16:02:10Z</time>
      </trkpt>
      <trkpt lat="47.32202" lon="6.85189">
        <ele>431</ele>
        <time>2021-07-29T16:02:11Z</time>
      </trkpt>
      <trkpt lat="47.32206" lon="6.85195">
        <ele>431.2</ele>
        <time>2021-07-29T16:02:12Z</time>
      </trkpt>
      <trkpt lat="47.32209" lon="6.852">
        <ele>431.2</ele>
        <time>2021-07-29T16:02:13Z</time>
      </trkpt>
      <trkpt lat="47.32212" lon="6.85206">
        <ele>431.2</ele>
        <time>2021-07-29T16:02:14Z</time>
      </trkpt>
      <trkpt lat="47.32216" lon="6.85211">
        <ele>431.4</ele>
        <time>2021-07-29T16:02:15Z</time>
      </trkpt>
      <trkpt lat="47.32219" lon="6.85216">
        <ele>431.4</ele>
        <time>2021-07-29T16:02:16Z</time>
      </trkpt>
      <trkpt lat="47.32222" lon="6.85221">
        <ele>431.6</ele>
        <time>2021-07-29T16:02:17Z</time>
      </trkpt>
      <trkpt lat="47.32226" lon="6.85226">
        <ele>431.6</ele>
        <time>2021-07-29T16:02:18Z</time>
      </trkpt>
      <trkpt lat="47.32229" lon="6.8523">
        <ele>431.6</ele>
        <time>2021-07-29T16:02:19Z</time>
      </trkpt>
      <trkpt lat="47.32232" lon="6.85235">
        <ele>431.6</ele>
        <time>2021-07-29T16:02:20Z</time>
      </trkpt>
      <trkpt lat="47.32235" lon="6.85239">
        <ele>431.8</ele>
        <time>2021-07-29T16:02:21Z</time>
      </trkpt>
      <trkpt lat="47.32238" lon="6.85244">
        <ele>431.8</ele>
        <time>2021-07-29T16:02:22Z</time>
      </trkpt>
      <trkpt lat="47.32242" lon="6.85249">
        <ele>431.6</ele>
        <time>2021-07-29T16:02:23Z</time>
      </trkpt>
      <trkpt lat="47.32245" lon="6.85254">
        <ele>431.6</ele>
        <time>2021-07-29T16:02:24Z</time>
      </trkpt>
      <trkpt lat="47.32248" lon="6.85259">
        <ele>431.6</ele>
        <time>2021-07-29T16:02:25Z</time>
      </trkpt>
      <trkpt lat="47.32252" lon="6.85263">
        <ele>431.6</ele>
        <time>2021-07-29T16:02:26Z</time>
      </trkpt>
      <trkpt lat="47.32255" lon="6.85269">
        <ele>431.6</ele>
        <time>2021-07-29T16:02:27Z</time>
      </trkpt>
      <trkpt lat="47.32258" lon="6.85274">
        <ele>431.6</ele>
        <time>2021-07-29T16:02:28Z</time>
      </trkpt>
      <trkpt lat="47.32262" lon="6.85279">
        <ele>431.6</ele>
        <time>2021-07-29T16:02:29Z</time>
      </trkpt>
      <trkpt lat="47.32265" lon="6.85284">
        <ele>431.6</ele>
        <time>2021-07-29T16:02:30Z</time>
      </trkpt>
      <trkpt lat="47.32268" lon="6.85289">
        <ele>431.8</ele>
        <time>2021-07-29T16:02:31Z</time>
      </trkpt>
      <trkpt lat="47.32271" lon="6.85295">
        <ele>431.8</ele>
        <time>2021-07-29T16:02:32Z</time>
      </trkpt>
      <trkpt lat="47.32274" lon="6.85301">
        <ele>431.8</ele>
        <time>2021-07-29T16:02:33Z</time>
      </trkpt>
      <trkpt lat="47.32277" lon="6.85307">
        <ele>431.8</ele>
        <time>2021-07-29T16:02:34Z</time>
      </trkpt>
      <trkpt lat="47.3228" lon="6.85312">
        <ele>432</ele>
        <time>2021-07-29T16:02:35Z</time>
      </trkpt>
      <trkpt lat="47.32283" lon="6.85318">
        <ele>432</ele>
        <time>2021-07-29T16:02:36Z</time>
      </trkpt>
      <trkpt lat="47.32286" lon="6.85323">
        <ele>432</ele>
        <time>2021-07-29T16:02:37Z</time>
      </trkpt>
      <trkpt lat="47.32288" lon="6.85329">
        <ele>432.2</ele>
        <time>2021-07-29T16:02:38Z</time>
      </trkpt>
      <trkpt lat="47.32291" lon="6.85333">
        <ele>432.2</ele>
        <time>2021-07-29T16:02:39Z</time>
      </trkpt>
      <trkpt lat="47.32293" lon="6.85338">
        <ele>432.2</ele>
        <time>2021-07-29T16:02:40Z</time>
      </trkpt>
      <trkpt lat="47.32296" lon="6.85342">
        <ele>432.2</ele>
        <time>2021-07-29T16:02:41Z</time>
      </trkpt>
      <trkpt lat="47.32298" lon="6.85347">
        <ele>432.4</ele>
        <time>2021-07-29T16:02:42Z</time>
      </trkpt>
      <trkpt lat="47.323" lon="6.85352">
        <ele>432.4</ele>
        <time>2021-07-29T16:02:43Z</time>
      </trkpt>
      <trkpt lat="47.32302" lon="6.85357">
        <ele>432.4</ele>
        <time>2021-07-29T16:02:44Z</time>
      </trkpt>
      <trkpt lat="47.32305" lon="6.85362">
        <ele>432.4</ele>
        <time>2021-07-29T16:02:45Z</time>
      </trkpt>
      <trkpt lat="47.32307" lon="6.85366">
        <ele>432.4</ele>
        <time>2021-07-29T16:02:46Z</time>
      </trkpt>
      <trkpt lat="47.32309" lon="6.85371">
        <ele>432.6</ele>
        <time>2021-07-29T16:02:47Z</time>
      </trkpt>
      <trkpt lat="47.32312" lon="6.85376">
        <ele>432.6</ele>
        <time>2021-07-29T16:02:48Z</time>
      </trkpt>
      <trkpt lat="47.32314" lon="6.8538">
        <ele>432.6</ele>
        <time>2021-07-29T16:02:49Z</time>
      </trkpt>
      <trkpt lat="47.32316" lon="6.85385">
        <ele>432.8</ele>
        <time>2021-07-29T16:02:50Z</time>
      </trkpt>
      <trkpt lat="47.32319" lon="6.85389">
        <ele>433</ele>
        <time>2021-07-29T16:02:51Z</time>
      </trkpt>
      <trkpt lat="47.32321" lon="6.85393">
        <ele>433</ele>
        <time>2021-07-29T16:02:52Z</time>
      </trkpt>
      <trkpt lat="47.32323" lon="6.85397">
        <ele>433.2</ele>
        <time>2021-07-29T16:02:53Z</time>
      </trkpt>
      <trkpt lat="47.32325" lon="6.85401">
        <ele>433.2</ele>
        <time>2021-07-29T16:02:54Z</time>
      </trkpt>
      <trkpt lat="47.32327" lon="6.85405">
        <ele>433.2</ele>
        <time>2021-07-29T16:02:55Z</time>
      </trkpt>
      <trkpt lat="47.32329" lon="6.8541">
        <ele>433.2</ele>
        <time>2021-07-29T16:02:56Z</time>
      </trkpt>
      <trkpt lat="47.32331" lon="6.85414">
        <ele>433.2</ele>
        <time>2021-07-29T16:02:57Z</time>
      </trkpt>
      <trkpt lat="47.32333" lon="6.85418">
        <ele>433.2</ele>
        <time>2021-07-29T16:02:58Z</time>
      </trkpt>
      <trkpt lat="47.32336" lon="6.85423">
        <ele>433.2</ele>
        <time>2021-07-29T16:02:59Z</time>
      </trkpt>
      <trkpt lat="47.32338" lon="6.85427">
        <ele>433.2</ele>
        <time>2021-07-29T16:03:00Z</time>
      </trkpt>
      <trkpt lat="47.3234" lon="6.85432">
        <ele>433.2</ele>
        <time>2021-07-29T16:03:01Z</time>
      </trkpt>
      <trkpt lat="47.32343" lon="6.85436">
        <ele>433.2</ele>
        <time>2021-07-29T16:03:02Z</time>
      </trkpt>
      <trkpt lat="47.32345" lon="6.85441">
        <ele>433.4</ele>
        <time>2021-07-29T16:03:03Z</time>
      </trkpt>
      <trkpt lat="47.32347" lon="6.85446">
        <ele>433.4</ele>
        <time>2021-07-29T16:03:04Z</time>
      </trkpt>
      <trkpt lat="47.32349" lon="6.85451">
        <ele>433.4</ele>
        <time>2021-07-29T16:03:05Z</time>
      </trkpt>
      <trkpt lat="47.32351" lon="6.85456">
        <ele>433.4</ele>
        <time>2021-07-29T16:03:06Z</time>
      </trkpt>
      <trkpt lat="47.32353" lon="6.85461">
        <ele>433.4</ele>
        <time>2021-07-29T16:03:07Z</time>
      </trkpt>
      <trkpt lat="47.32355" lon="6.85467">
        <ele>433.4</ele>
        <time>2021-07-29T16:03:08Z</time>
      </trkpt>
      <trkpt lat="47.32357" lon="6.85472">
        <ele>433.2</ele>
        <time>2021-07-29T16:03:09Z</time>
      </trkpt>
      <trkpt lat="47.32359" lon="6.85477">
        <ele>433.2</ele>
        <time>2021-07-29T16:03:10Z</time>
      </trkpt>
      <trkpt lat="47.32361" lon="6.85482">
        <ele>433.4</ele>
        <time>2021-07-29T16:03:11Z</time>
      </trkpt>
      <trkpt lat="47.32363" lon="6.85488">
        <ele>433.4</ele>
        <time>2021-07-29T16:03:12Z</time>
      </trkpt>
      <trkpt lat="47.32365" lon="6.85493">
        <ele>433.4</ele>
        <time>2021-07-29T16:03:13Z</time>
      </trkpt>
      <trkpt lat="47.32367" lon="6.85499">
        <ele>433.4</ele>
        <time>2021-07-29T16:03:14Z</time>
      </trkpt>
      <trkpt lat="47.32369" lon="6.85504">
        <ele>433.4</ele>
        <time>2021-07-29T16:03:15Z</time>
      </trkpt>
      <trkpt lat="47.32371" lon="6.8551">
        <ele>433.4</ele>
        <time>2021-07-29T16:03:16Z</time>
      </trkpt>
      <trkpt lat="47.32372" lon="6.85515">
        <ele>433.4</ele>
        <time>2021-07-29T16:03:17Z</time>
      </trkpt>
      <trkpt lat="47.32374" lon="6.85521">
        <ele>433.4</ele>
        <time>2021-07-29T16:03:18Z</time>
      </trkpt>
      <trkpt lat="47.32376" lon="6.85526">
        <ele>433.4</ele>
        <time>2021-07-29T16:03:19Z</time>
      </trkpt>
      <trkpt lat="47.32378" lon="6.85532">
        <ele>433.4</ele>
        <time>2021-07-29T16:03:20Z</time>
      </trkpt>
      <trkpt lat="47.32381" lon="6.85537">
        <ele>433.4</ele>
        <time>2021-07-29T16:03:21Z</time>
      </trkpt>
      <trkpt lat="47.32383" lon="6.85543">
        <ele>433.4</ele>
        <time>2021-07-29T16:03:22Z</time>
      </trkpt>
      <trkpt lat="47.32385" lon="6.85548">
        <ele>433.4</ele>
        <time>2021-07-29T16:03:23Z</time>
      </trkpt>
      <trkpt lat="47.32387" lon="6.85554">
        <ele>433.2</ele>
        <time>2021-07-29T16:03:24Z</time>
      </trkpt>
      <trkpt lat="47.32389" lon="6.8556">
        <ele>433.2</ele>
        <time>2021-07-29T16:03:25Z</time>
      </trkpt>
      <trkpt lat="47.32391" lon="6.85566">
        <ele>433.2</ele>
        <time>2021-07-29T16:03:26Z</time>
      </trkpt>
      <trkpt lat="47.32393" lon="6.85572">
        <ele>433.2</ele>
        <time>2021-07-29T16:03:27Z</time>
      </trkpt>
      <trkpt lat="47.32395" lon="6.85578">
        <ele>433.2</ele>
        <time>2021-07-29T16:03:28Z</time>
      </trkpt>
      <trkpt lat="47.32397" lon="6.85584">
        <ele>433.2</ele>
        <time>2021-07-29T16:03:29Z</time>
      </trkpt>
      <trkpt lat="47.32399" lon="6.85589">
        <ele>433.2</ele>
        <time>2021-07-29T16:03:30Z</time>
      </trkpt>
      <trkpt lat="47.32401" lon="6.85595">
        <ele>433.2</ele>
        <time>2021-07-29T16:03:31Z</time>
      </trkpt>
      <trkpt lat="47.32403" lon="6.85601">
        <ele>433.2</ele>
        <time>2021-07-29T16:03:32Z</time>
      </trkpt>
      <trkpt lat="47.32405" lon="6.85606">
        <ele>433</ele>
        <time>2021-07-29T16:03:33Z</time>
      </trkpt>
      <trkpt lat="47.32407" lon="6.85612">
        <ele>433</ele>
        <time>2021-07-29T16:03:34Z</time>
      </trkpt>
      <trkpt lat="47.3241" lon="6.85618">
        <ele>433</ele>
        <time>2021-07-29T16:03:35Z</time>
      </trkpt>
      <trkpt lat="47.32412" lon="6.85624">
        <ele>433</ele>
        <time>2021-07-29T16:03:36Z</time>
      </trkpt>
      <trkpt lat="47.32414" lon="6.8563">
        <ele>433</ele>
        <time>2021-07-29T16:03:37Z</time>
      </trkpt>
      <trkpt lat="47.32416" lon="6.85636">
        <ele>433</ele>
        <time>2021-07-29T16:03:38Z</time>
      </trkpt>
      <trkpt lat="47.32419" lon="6.85642">
        <ele>433</ele>
        <time>2021-07-29T16:03:39Z</time>
      </trkpt>
      <trkpt lat="47.32421" lon="6.85648">
        <ele>433</ele>
        <time>2021-07-29T16:03:40Z</time>
      </trkpt>
      <trkpt lat="47.32424" lon="6.85653">
        <ele>433.2</ele>
        <time>2021-07-29T16:03:41Z</time>
      </trkpt>
      <trkpt lat="47.32427" lon="6.85659">
        <ele>433.2</ele>
        <time>2021-07-29T16:03:42Z</time>
      </trkpt>
      <trkpt lat="47.3243" lon="6.85664">
        <ele>433.2</ele>
        <time>2021-07-29T16:03:43Z</time>
      </trkpt>
      <trkpt lat="47.32433" lon="6.85669">
        <ele>433.2</ele>
        <time>2021-07-29T16:03:44Z</time>
      </trkpt>
      <trkpt lat="47.32436" lon="6.85674">
        <ele>433.2</ele>
        <time>2021-07-29T16:03:45Z</time>
      </trkpt>
      <trkpt lat="47.32439" lon="6.8568">
        <ele>433.2</ele>
        <time>2021-07-29T16:03:46Z</time>
      </trkpt>
      <trkpt lat="47.32443" lon="6.85685">
        <ele>433</ele>
        <time>2021-07-29T16:03:47Z</time>
      </trkpt>
      <trkpt lat="47.32446" lon="6.8569">
        <ele>433</ele>
        <time>2021-07-29T16:03:48Z</time>
      </trkpt>
      <trkpt lat="47.32449" lon="6.85695">
        <ele>433</ele>
        <time>2021-07-29T16:03:49Z</time>
      </trkpt>
      <trkpt lat="47.32452" lon="6.857">
        <ele>433</ele>
        <time>2021-07-29T16:03:50Z</time>
      </trkpt>
      <trkpt lat="47.32455" lon="6.85705">
        <ele>433</ele>
        <time>2021-07-29T16:03:51Z</time>
      </trkpt>
      <trkpt lat="47.32458" lon="6.8571">
        <ele>433</ele>
        <time>2021-07-29T16:03:52Z</time>
      </trkpt>
      <trkpt lat="47.32461" lon="6.85715">
        <ele>433</ele>
        <time>2021-07-29T16:03:53Z</time>
      </trkpt>
      <trkpt lat="47.32464" lon="6.85721">
        <ele>432.8</ele>
        <time>2021-07-29T16:03:54Z</time>
      </trkpt>
      <trkpt lat="47.32467" lon="6.85726">
        <ele>432.8</ele>
        <time>2021-07-29T16:03:55Z</time>
      </trkpt>
      <trkpt lat="47.3247" lon="6.85731">
        <ele>432.6</ele>
        <time>2021-07-29T16:03:56Z</time>
      </trkpt>
      <trkpt lat="47.32473" lon="6.85736">
        <ele>432.8</ele>
        <time>2021-07-29T16:03:57Z</time>
      </trkpt>
      <trkpt lat="47.32476" lon="6.85741">
        <ele>432.8</ele>
        <time>2021-07-29T16:03:58Z</time>
      </trkpt>
      <trkpt lat="47.32479" lon="6.85746">
        <ele>432.8</ele>
        <time>2021-07-29T16:03:59Z</time>
      </trkpt>
      <trkpt lat="47.32482" lon="6.85751">
        <ele>432.8</ele>
        <time>2021-07-29T16:04:00Z</time>
      </trkpt>
      <trkpt lat="47.32485" lon="6.85756">
        <ele>432.8</ele>
        <time>2021-07-29T16:04:01Z</time>
      </trkpt>
      <trkpt lat="47.32488" lon="6.8576">
        <ele>432.8</ele>
        <time>2021-07-29T16:04:02Z</time>
      </trkpt>
      <trkpt lat="47.32491" lon="6.85765">
        <ele>432.8</ele>
        <time>2021-07-29T16:04:03Z</time>
      </trkpt>
      <trkpt lat="47.32494" lon="6.8577">
        <ele>432.8</ele>
        <time>2021-07-29T16:04:04Z</time>
      </trkpt>
      <trkpt lat="47.32497" lon="6.85775">
        <ele>433</ele>
        <time>2021-07-29T16:04:05Z</time>
      </trkpt>
      <trkpt lat="47.325" lon="6.85779">
        <ele>433</ele>
        <time>2021-07-29T16:04:06Z</time>
      </trkpt>
      <trkpt lat="47.32503" lon="6.85784">
        <ele>433</ele>
        <time>2021-07-29T16:04:07Z</time>
      </trkpt>
      <trkpt lat="47.32506" lon="6.85789">
        <ele>433</ele>
        <time>2021-07-29T16:04:08Z</time>
      </trkpt>
      <trkpt lat="47.32509" lon="6.85794">
        <ele>433</ele>
        <time>2021-07-29T16:04:09Z</time>
      </trkpt>
      <trkpt lat="47.32512" lon="6.85799">
        <ele>433</ele>
        <time>2021-07-29T16:04:10Z</time>
      </trkpt>
      <trkpt lat="47.32515" lon="6.85804">
        <ele>432.8</ele>
        <time>2021-07-29T16:04:11Z</time>
      </trkpt>
      <trkpt lat="47.32518" lon="6.85808">
        <ele>432.8</ele>
        <time>2021-07-29T16:04:12Z</time>
      </trkpt>
      <trkpt lat="47.32521" lon="6.85813">
        <ele>432.8</ele>
        <time>2021-07-29T16:04:13Z</time>
      </trkpt>
      <trkpt lat="47.32524" lon="6.85818">
        <ele>432.8</ele>
        <time>2021-07-29T16:04:14Z</time>
      </trkpt>
      <trkpt lat="47.32527" lon="6.85823">
        <ele>432.8</ele>
        <time>2021-07-29T16:04:15Z</time>
      </trkpt>
      <trkpt lat="47.3253" lon="6.85828">
        <ele>432.8</ele>
        <time>2021-07-29T16:04:16Z</time>
      </trkpt>
      <trkpt lat="47.32533" lon="6.85833">
        <ele>432.8</ele>
        <time>2021-07-29T16:04:17Z</time>
      </trkpt>
      <trkpt lat="47.32536" lon="6.85837">
        <ele>432.8</ele>
        <time>2021-07-29T16:04:18Z</time>
      </trkpt>
      <trkpt lat="47.32539" lon="6.85842">
        <ele>432.8</ele>
        <time>2021-07-29T16:04:19Z</time>
      </trkpt>
      <trkpt lat="47.32542" lon="6.85847">
        <ele>432.8</ele>
        <time>2021-07-29T16:04:20Z</time>
      </trkpt>
      <trkpt lat="47.32545" lon="6.85852">
        <ele>432.8</ele>
        <time>2021-07-29T16:04:21Z</time>
      </trkpt>
      <trkpt lat="47.32548" lon="6.85857">
        <ele>433</ele>
        <time>2021-07-29T16:04:22Z</time>
      </trkpt>
      <trkpt lat="47.32551" lon="6.85861">
        <ele>433</ele>
        <time>2021-07-29T16:04:23Z</time>
      </trkpt>
      <trkpt lat="47.32555" lon="6.85866">
        <ele>433</ele>
        <time>2021-07-29T16:04:24Z</time>
      </trkpt>
      <trkpt lat="47.32558" lon="6.85871">
        <ele>433</ele>
        <time>2021-07-29T16:04:25Z</time>
      </trkpt>
      <trkpt lat="47.32561" lon="6.85875">
        <ele>433</ele>
        <time>2021-07-29T16:04:26Z</time>
      </trkpt>
      <trkpt lat="47.32564" lon="6.8588">
        <ele>433</ele>
        <time>2021-07-29T16:04:27Z</time>
      </trkpt>
      <trkpt lat="47.32567" lon="6.85885">
        <ele>433</ele>
        <time>2021-07-29T16:04:28Z</time>
      </trkpt>
      <trkpt lat="47.3257" lon="6.85891">
        <ele>433</ele>
        <time>2021-07-29T16:04:29Z</time>
      </trkpt>
      <trkpt lat="47.32573" lon="6.85896">
        <ele>433</ele>
        <time>2021-07-29T16:04:30Z</time>
      </trkpt>
      <trkpt lat="47.32575" lon="6.85902">
        <ele>432.8</ele>
        <time>2021-07-29T16:04:31Z</time>
      </trkpt>
      <trkpt lat="47.32577" lon="6.85909">
        <ele>432.8</ele>
        <time>2021-07-29T16:04:32Z</time>
      </trkpt>
      <trkpt lat="47.32578" lon="6.85915">
        <ele>432.8</ele>
        <time>2021-07-29T16:04:33Z</time>
      </trkpt>
      <trkpt lat="47.3258" lon="6.85922">
        <ele>432.8</ele>
        <time>2021-07-29T16:04:34Z</time>
      </trkpt>
      <trkpt lat="47.32583" lon="6.85929">
        <ele>432.8</ele>
        <time>2021-07-29T16:04:35Z</time>
      </trkpt>
      <trkpt lat="47.32585" lon="6.85935">
        <ele>432.6</ele>
        <time>2021-07-29T16:04:36Z</time>
      </trkpt>
      <trkpt lat="47.32587" lon="6.85943">
        <ele>432.6</ele>
        <time>2021-07-29T16:04:37Z</time>
      </trkpt>
      <trkpt lat="47.32588" lon="6.8595">
        <ele>432.4</ele>
        <time>2021-07-29T16:04:38Z</time>
      </trkpt>
      <trkpt lat="47.32589" lon="6.85957">
        <ele>432.6</ele>
        <time>2021-07-29T16:04:39Z</time>
      </trkpt>
      <trkpt lat="47.3259" lon="6.85965">
        <ele>432.6</ele>
        <time>2021-07-29T16:04:40Z</time>
      </trkpt>
      <trkpt lat="47.32591" lon="6.85973">
        <ele>432.6</ele>
        <time>2021-07-29T16:04:41Z</time>
      </trkpt>
      <trkpt lat="47.32591" lon="6.85981">
        <ele>432.6</ele>
        <time>2021-07-29T16:04:42Z</time>
      </trkpt>
      <trkpt lat="47.32591" lon="6.85988">
        <ele>432.6</ele>
        <time>2021-07-29T16:04:43Z</time>
      </trkpt>
      <trkpt lat="47.3259" lon="6.85996">
        <ele>432.4</ele>
        <time>2021-07-29T16:04:44Z</time>
      </trkpt>
      <trkpt lat="47.32589" lon="6.86003">
        <ele>432.4</ele>
        <time>2021-07-29T16:04:45Z</time>
      </trkpt>
      <trkpt lat="47.32588" lon="6.8601">
        <ele>432.6</ele>
        <time>2021-07-29T16:04:46Z</time>
      </trkpt>
      <trkpt lat="47.32586" lon="6.86017">
        <ele>432.6</ele>
        <time>2021-07-29T16:04:47Z</time>
      </trkpt>
      <trkpt lat="47.32584" lon="6.86024">
        <ele>432.6</ele>
        <time>2021-07-29T16:04:48Z</time>
      </trkpt>
      <trkpt lat="47.32582" lon="6.8603">
        <ele>432.6</ele>
        <time>2021-07-29T16:04:49Z</time>
      </trkpt>
      <trkpt lat="47.3258" lon="6.86036">
        <ele>432.6</ele>
        <time>2021-07-29T16:04:50Z</time>
      </trkpt>
      <trkpt lat="47.32578" lon="6.86042">
        <ele>432.8</ele>
        <time>2021-07-29T16:04:51Z</time>
      </trkpt>
      <trkpt lat="47.32576" lon="6.86047">
        <ele>432.8</ele>
        <time>2021-07-29T16:04:52Z</time>
      </trkpt>
      <trkpt lat="47.32574" lon="6.86053">
        <ele>432.8</ele>
        <time>2021-07-29T16:04:53Z</time>
      </trkpt>
      <trkpt lat="47.32573" lon="6.86058">
        <ele>432.8</ele>
        <time>2021-07-29T16:04:54Z</time>
      </trkpt>
      <trkpt lat="47.32571" lon="6.86063">
        <ele>433</ele>
        <time>2021-07-29T16:04:55Z</time>
      </trkpt>
      <trkpt lat="47.32569" lon="6.86068">
        <ele>433</ele>
        <time>2021-07-29T16:04:56Z</time>
      </trkpt>
      <trkpt lat="47.32566" lon="6.86073">
        <ele>433</ele>
        <time>2021-07-29T16:04:57Z</time>
      </trkpt>
      <trkpt lat="47.32564" lon="6.86078">
        <ele>433</ele>
        <time>2021-07-29T16:04:58Z</time>
      </trkpt>
      <trkpt lat="47.32562" lon="6.86084">
        <ele>433</ele>
        <time>2021-07-29T16:04:59Z</time>
      </trkpt>
      <trkpt lat="47.3256" lon="6.86089">
        <ele>433</ele>
        <time>2021-07-29T16:05:00Z</time>
      </trkpt>
      <trkpt lat="47.32558" lon="6.86094">
        <ele>433</ele>
        <time>2021-07-29T16:05:01Z</time>
      </trkpt>
      <trkpt lat="47.32556" lon="6.861">
        <ele>433</ele>
        <time>2021-07-29T16:05:02Z</time>
      </trkpt>
      <trkpt lat="47.32554" lon="6.86105">
        <ele>433</ele>
        <time>2021-07-29T16:05:03Z</time>
      </trkpt>
      <trkpt lat="47.32552" lon="6.8611">
        <ele>433</ele>
        <time>2021-07-29T16:05:04Z</time>
      </trkpt>
      <trkpt lat="47.3255" lon="6.86116">
        <ele>433</ele>
        <time>2021-07-29T16:05:05Z</time>
      </trkpt>
      <trkpt lat="47.32548" lon="6.86121">
        <ele>433</ele>
        <time>2021-07-29T16:05:06Z</time>
      </trkpt>
      <trkpt lat="47.32546" lon="6.86127">
        <ele>433</ele>
        <time>2021-07-29T16:05:07Z</time>
      </trkpt>
      <trkpt lat="47.32544" lon="6.86133">
        <ele>433</ele>
        <time>2021-07-29T16:05:08Z</time>
      </trkpt>
      <trkpt lat="47.32541" lon="6.86138">
        <ele>433</ele>
        <time>2021-07-29T16:05:09Z</time>
      </trkpt>
      <trkpt lat="47.32539" lon="6.86144">
        <ele>433</ele>
        <time>2021-07-29T16:05:10Z</time>
      </trkpt>
      <trkpt lat="47.32537" lon="6.8615">
        <ele>433</ele>
        <time>2021-07-29T16:05:11Z</time>
      </trkpt>
      <trkpt lat="47.32535" lon="6.86156">
        <ele>433</ele>
        <time>2021-07-29T16:05:12Z</time>
      </trkpt>
      <trkpt lat="47.32534" lon="6.86161">
        <ele>433</ele>
        <time>2021-07-29T16:05:13Z</time>
      </trkpt>
      <trkpt lat="47.32532" lon="6.86167">
        <ele>433</ele>
        <time>2021-07-29T16:05:14Z</time>
      </trkpt>
      <trkpt lat="47.3253" lon="6.86173">
        <ele>433</ele>
        <time>2021-07-29T16:05:15Z</time>
      </trkpt>
      <trkpt lat="47.32528" lon="6.86179">
        <ele>433</ele>
        <time>2021-07-29T16:05:16Z</time>
      </trkpt>
      <trkpt lat="47.32526" lon="6.86184">
        <ele>433</ele>
        <time>2021-07-29T16:05:17Z</time>
      </trkpt>
      <trkpt lat="47.32524" lon="6.8619">
        <ele>433.2</ele>
        <time>2021-07-29T16:05:18Z</time>
      </trkpt>
      <trkpt lat="47.32522" lon="6.86196">
        <ele>433.2</ele>
        <time>2021-07-29T16:05:19Z</time>
      </trkpt>
      <trkpt lat="47.32521" lon="6.86202">
        <ele>433.2</ele>
        <time>2021-07-29T16:05:20Z</time>
      </trkpt>
      <trkpt lat="47.32519" lon="6.86208">
        <ele>433.2</ele>
        <time>2021-07-29T16:05:21Z</time>
      </trkpt>
      <trkpt lat="47.32517" lon="6.86214">
        <ele>433.4</ele>
        <time>2021-07-29T16:05:22Z</time>
      </trkpt>
      <trkpt lat="47.32516" lon="6.8622">
        <ele>433.4</ele>
        <time>2021-07-29T16:05:23Z</time>
      </trkpt>
      <trkpt lat="47.32514" lon="6.86225">
        <ele>433.4</ele>
        <time>2021-07-29T16:05:24Z</time>
      </trkpt>
      <trkpt lat="47.32513" lon="6.86231">
        <ele>433.4</ele>
        <time>2021-07-29T16:05:25Z</time>
      </trkpt>
      <trkpt lat="47.32511" lon="6.86237">
        <ele>433.4</ele>
        <time>2021-07-29T16:05:26Z</time>
      </trkpt>
      <trkpt lat="47.3251" lon="6.86243">
        <ele>433.4</ele>
        <time>2021-07-29T16:05:27Z</time>
      </trkpt>
      <trkpt lat="47.32509" lon="6.86249">
        <ele>433.4</ele>
        <time>2021-07-29T16:05:28Z</time>
      </trkpt>
      <trkpt lat="47.32508" lon="6.86256">
        <ele>433.4</ele>
        <time>2021-07-29T16:05:29Z</time>
      </trkpt>
      <trkpt lat="47.32507" lon="6.86262">
        <ele>433.4</ele>
        <time>2021-07-29T16:05:30Z</time>
      </trkpt>
      <trkpt lat="47.32506" lon="6.86268">
        <ele>433.4</ele>
        <time>2021-07-29T16:05:31Z</time>
      </trkpt>
      <trkpt lat="47.32505" lon="6.86274">
        <ele>433.4</ele>
        <time>2021-07-29T16:05:32Z</time>
      </trkpt>
      <trkpt lat="47.32504" lon="6.86281">
        <ele>433.4</ele>
        <time>2021-07-29T16:05:33Z</time>
      </trkpt>
      <trkpt lat="47.32502" lon="6.86287">
        <ele>433.2</ele>
        <time>2021-07-29T16:05:34Z</time>
      </trkpt>
      <trkpt lat="47.32501" lon="6.86294">
        <ele>433.4</ele>
        <time>2021-07-29T16:05:35Z</time>
      </trkpt>
      <trkpt lat="47.325" lon="6.863">
        <ele>433.4</ele>
        <time>2021-07-29T16:05:36Z</time>
      </trkpt>
      <trkpt lat="47.32499" lon="6.86306">
        <ele>433.4</ele>
        <time>2021-07-29T16:05:37Z</time>
      </trkpt>
      <trkpt lat="47.32499" lon="6.86312">
        <ele>433.2</ele>
        <time>2021-07-29T16:05:38Z</time>
      </trkpt>
      <trkpt lat="47.32499" lon="6.86317">
        <ele>433.2</ele>
        <time>2021-07-29T16:05:39Z</time>
      </trkpt>
      <trkpt lat="47.325" lon="6.8632">
        <ele>433</ele>
        <time>2021-07-29T16:05:40Z</time>
      </trkpt>
      <trkpt lat="47.325" lon="6.86323">
        <ele>433.2</ele>
        <time>2021-07-29T16:05:41Z</time>
      </trkpt>
      <trkpt lat="47.325" lon="6.86326">
        <ele>433</ele>
        <time>2021-07-29T16:05:42Z</time>
      </trkpt>
      <trkpt lat="47.325" lon="6.86328">
        <ele>433.2</ele>
        <time>2021-07-29T16:05:43Z</time>
      </trkpt>
      <trkpt lat="47.32499" lon="6.8633">
        <ele>433.2</ele>
        <time>2021-07-29T16:05:44Z</time>
      </trkpt>
      <trkpt lat="47.32498" lon="6.86333">
        <ele>433.2</ele>
        <time>2021-07-29T16:05:45Z</time>
      </trkpt>
      <trkpt lat="47.32497" lon="6.86336">
        <ele>433.2</ele>
        <time>2021-07-29T16:05:46Z</time>
      </trkpt>
      <trkpt lat="47.32496" lon="6.86339">
        <ele>433.2</ele>
        <time>2021-07-29T16:05:47Z</time>
      </trkpt>
      <trkpt lat="47.32496" lon="6.86342">
        <ele>433.2</ele>
        <time>2021-07-29T16:05:48Z</time>
      </trkpt>
      <trkpt lat="47.32495" lon="6.86345">
        <ele>433.2</ele>
        <time>2021-07-29T16:05:49Z</time>
      </trkpt>
      <trkpt lat="47.32494" lon="6.86348">
        <ele>433.2</ele>
        <time>2021-07-29T16:05:50Z</time>
      </trkpt>
      <trkpt lat="47.32492" lon="6.86351">
        <ele>433.2</ele>
        <time>2021-07-29T16:05:51Z</time>
      </trkpt>
      <trkpt lat="47.32491" lon="6.86354">
        <ele>433.2</ele>
        <time>2021-07-29T16:05:52Z</time>
      </trkpt>
      <trkpt lat="47.3249" lon="6.86357">
        <ele>433.2</ele>
        <time>2021-07-29T16:05:53Z</time>
      </trkpt>
      <trkpt lat="47.32489" lon="6.86361">
        <ele>433.2</ele>
        <time>2021-07-29T16:05:54Z</time>
      </trkpt>
      <trkpt lat="47.32489" lon="6.86364">
        <ele>433.2</ele>
        <time>2021-07-29T16:05:55Z</time>
      </trkpt>
      <trkpt lat="47.32488" lon="6.86366">
        <ele>433.2</ele>
        <time>2021-07-29T16:05:56Z</time>
      </trkpt>
      <trkpt lat="47.32487" lon="6.86372">
        <ele>433.2</ele>
        <time>2021-07-29T16:05:57Z</time>
      </trkpt>
      <trkpt lat="47.32486" lon="6.86376">
        <ele>433.2</ele>
        <time>2021-07-29T16:05:58Z</time>
      </trkpt>
      <trkpt lat="47.32485" lon="6.8638">
        <ele>433.2</ele>
        <time>2021-07-29T16:05:59Z</time>
      </trkpt>
      <trkpt lat="47.32485" lon="6.86384">
        <ele>433.2</ele>
        <time>2021-07-29T16:06:00Z</time>
      </trkpt>
      <trkpt lat="47.32484" lon="6.86388">
        <ele>433.2</ele>
        <time>2021-07-29T16:06:01Z</time>
      </trkpt>
      <trkpt lat="47.32484" lon="6.86392">
        <ele>433.2</ele>
        <time>2021-07-29T16:06:02Z</time>
      </trkpt>
      <trkpt lat="47.32483" lon="6.86396">
        <ele>433.2</ele>
        <time>2021-07-29T16:06:03Z</time>
      </trkpt>
      <trkpt lat="47.32482" lon="6.864">
        <ele>433.2</ele>
        <time>2021-07-29T16:06:04Z</time>
      </trkpt>
      <trkpt lat="47.32482" lon="6.86404">
        <ele>433.2</ele>
        <time>2021-07-29T16:06:05Z</time>
      </trkpt>
      <trkpt lat="47.32481" lon="6.86408">
        <ele>433.2</ele>
        <time>2021-07-29T16:06:06Z</time>
      </trkpt>
      <trkpt lat="47.3248" lon="6.86412">
        <ele>433.6</ele>
        <time>2021-07-29T16:07:26Z</time>
      </trkpt>
      <trkpt lat="47.3248" lon="6.86416">
        <ele>433.6</ele>
        <time>2021-07-29T16:07:27Z</time>
      </trkpt>
      <trkpt lat="47.3248" lon="6.86416">
        <ele>433.6</ele>
        <time>2021-07-29T16:07:28Z</time>
      </trkpt>
      <trkpt lat="47.32479" lon="6.86421">
        <ele>433.6</ele>
        <time>2021-07-29T16:07:29Z</time>
      </trkpt>
      <trkpt lat="47.32478" lon="6.86425">
        <ele>433.8</ele>
        <time>2021-07-29T16:07:30Z</time>
      </trkpt>
      <trkpt lat="47.32477" lon="6.8643">
        <ele>433.8</ele>
        <time>2021-07-29T16:07:31Z</time>
      </trkpt>
      <trkpt lat="47.32477" lon="6.86435">
        <ele>433.8</ele>
        <time>2021-07-29T16:07:32Z</time>
      </trkpt>
      <trkpt lat="47.32476" lon="6.8644">
        <ele>434</ele>
        <time>2021-07-29T16:07:33Z</time>
      </trkpt>
      <trkpt lat="47.32475" lon="6.86445">
        <ele>434</ele>
        <time>2021-07-29T16:07:34Z</time>
      </trkpt>
      <trkpt lat="47.32474" lon="6.8645">
        <ele>434</ele>
        <time>2021-07-29T16:07:35Z</time>
      </trkpt>
      <trkpt lat="47.32473" lon="6.86455">
        <ele>434</ele>
        <time>2021-07-29T16:07:36Z</time>
      </trkpt>
      <trkpt lat="47.32472" lon="6.8646">
        <ele>434</ele>
        <time>2021-07-29T16:07:37Z</time>
      </trkpt>
      <trkpt lat="47.32471" lon="6.86465">
        <ele>434.2</ele>
        <time>2021-07-29T16:07:38Z</time>
      </trkpt>
      <trkpt lat="47.32469" lon="6.8647">
        <ele>434.2</ele>
        <time>2021-07-29T16:07:39Z</time>
      </trkpt>
      <trkpt lat="47.32468" lon="6.86475">
        <ele>434.2</ele>
        <time>2021-07-29T16:07:40Z</time>
      </trkpt>
      <trkpt lat="47.32467" lon="6.8648">
        <ele>434.4</ele>
        <time>2021-07-29T16:07:41Z</time>
      </trkpt>
      <trkpt lat="47.32466" lon="6.86485">
        <ele>434.4</ele>
        <time>2021-07-29T16:07:42Z</time>
      </trkpt>
      <trkpt lat="47.32465" lon="6.8649">
        <ele>434.4</ele>
        <time>2021-07-29T16:07:43Z</time>
      </trkpt>
      <trkpt lat="47.32464" lon="6.86494">
        <ele>434.4</ele>
        <time>2021-07-29T16:07:44Z</time>
      </trkpt>
      <trkpt lat="47.32463" lon="6.86499">
        <ele>434.6</ele>
        <time>2021-07-29T16:07:45Z</time>
      </trkpt>
      <trkpt lat="47.32462" lon="6.86504">
        <ele>434.6</ele>
        <time>2021-07-29T16:07:46Z</time>
      </trkpt>
      <trkpt lat="47.32461" lon="6.86509">
        <ele>434.8</ele>
        <time>2021-07-29T16:07:47Z</time>
      </trkpt>
      <trkpt lat="47.3246" lon="6.86514">
        <ele>434.8</ele>
        <time>2021-07-29T16:07:48Z</time>
      </trkpt>
      <trkpt lat="47.32459" lon="6.86519">
        <ele>434.8</ele>
        <time>2021-07-29T16:07:49Z</time>
      </trkpt>
      <trkpt lat="47.32457" lon="6.86524">
        <ele>434.8</ele>
        <time>2021-07-29T16:07:50Z</time>
      </trkpt>
      <trkpt lat="47.32456" lon="6.8653">
        <ele>434.8</ele>
        <time>2021-07-29T16:07:51Z</time>
      </trkpt>
      <trkpt lat="47.32455" lon="6.86536">
        <ele>434.8</ele>
        <time>2021-07-29T16:07:52Z</time>
      </trkpt>
      <trkpt lat="47.32453" lon="6.86542">
        <ele>434.8</ele>
        <time>2021-07-29T16:07:53Z</time>
      </trkpt>
      <trkpt lat="47.32452" lon="6.86548">
        <ele>435</ele>
        <time>2021-07-29T16:07:54Z</time>
      </trkpt>
      <trkpt lat="47.32451" lon="6.86554">
        <ele>435</ele>
        <time>2021-07-29T16:07:55Z</time>
      </trkpt>
      <trkpt lat="47.32449" lon="6.8656">
        <ele>435</ele>
        <time>2021-07-29T16:07:56Z</time>
      </trkpt>
      <trkpt lat="47.32448" lon="6.86566">
        <ele>435.2</ele>
        <time>2021-07-29T16:07:57Z</time>
      </trkpt>
      <trkpt lat="47.32446" lon="6.86572">
        <ele>435.2</ele>
        <time>2021-07-29T16:07:58Z</time>
      </trkpt>
      <trkpt lat="47.32445" lon="6.86577">
        <ele>435.2</ele>
        <time>2021-07-29T16:07:59Z</time>
      </trkpt>
      <trkpt lat="47.32443" lon="6.86583">
        <ele>435.2</ele>
        <time>2021-07-29T16:08:00Z</time>
      </trkpt>
      <trkpt lat="47.32442" lon="6.86589">
        <ele>435.4</ele>
        <time>2021-07-29T16:08:01Z</time>
      </trkpt>
      <trkpt lat="47.3244" lon="6.86595">
        <ele>435.4</ele>
        <time>2021-07-29T16:08:02Z</time>
      </trkpt>
      <trkpt lat="47.32439" lon="6.866">
        <ele>435.4</ele>
        <time>2021-07-29T16:08:03Z</time>
      </trkpt>
      <trkpt lat="47.32438" lon="6.86606">
        <ele>435.4</ele>
        <time>2021-07-29T16:08:04Z</time>
      </trkpt>
      <trkpt lat="47.32437" lon="6.86612">
        <ele>435.4</ele>
        <time>2021-07-29T16:08:05Z</time>
      </trkpt>
      <trkpt lat="47.32435" lon="6.86618">
        <ele>435.6</ele>
        <time>2021-07-29T16:08:06Z</time>
      </trkpt>
      <trkpt lat="47.32434" lon="6.86624">
        <ele>435.6</ele>
        <time>2021-07-29T16:08:07Z</time>
      </trkpt>
      <trkpt lat="47.32433" lon="6.8663">
        <ele>435.6</ele>
        <time>2021-07-29T16:08:08Z</time>
      </trkpt>
      <trkpt lat="47.32431" lon="6.86636">
        <ele>435.6</ele>
        <time>2021-07-29T16:08:09Z</time>
      </trkpt>
      <trkpt lat="47.3243" lon="6.86641">
        <ele>435.6</ele>
        <time>2021-07-29T16:08:10Z</time>
      </trkpt>
      <trkpt lat="47.32429" lon="6.86647">
        <ele>435.8</ele>
        <time>2021-07-29T16:08:11Z</time>
      </trkpt>
      <trkpt lat="47.32428" lon="6.86653">
        <ele>435.8</ele>
        <time>2021-07-29T16:08:12Z</time>
      </trkpt>
      <trkpt lat="47.32427" lon="6.86659">
        <ele>435.8</ele>
        <time>2021-07-29T16:08:13Z</time>
      </trkpt>
      <trkpt lat="47.32426" lon="6.86665">
        <ele>436</ele>
        <time>2021-07-29T16:08:14Z</time>
      </trkpt>
      <trkpt lat="47.32426" lon="6.86671">
        <ele>436</ele>
        <time>2021-07-29T16:08:15Z</time>
      </trkpt>
      <trkpt lat="47.32425" lon="6.86677">
        <ele>436</ele>
        <time>2021-07-29T16:08:16Z</time>
      </trkpt>
      <trkpt lat="47.32425" lon="6.86682">
        <ele>436.2</ele>
        <time>2021-07-29T16:08:17Z</time>
      </trkpt>
      <trkpt lat="47.32425" lon="6.86688">
        <ele>436.2</ele>
        <time>2021-07-29T16:08:18Z</time>
      </trkpt>
      <trkpt lat="47.32425" lon="6.86694">
        <ele>436.2</ele>
        <time>2021-07-29T16:08:19Z</time>
      </trkpt>
      <trkpt lat="47.32425" lon="6.86699">
        <ele>436.4</ele>
        <time>2021-07-29T16:08:20Z</time>
      </trkpt>
      <trkpt lat="47.32425" lon="6.86705">
        <ele>436.4</ele>
        <time>2021-07-29T16:08:21Z</time>
      </trkpt>
      <trkpt lat="47.32426" lon="6.8671">
        <ele>436.6</ele>
        <time>2021-07-29T16:08:22Z</time>
      </trkpt>
      <trkpt lat="47.32426" lon="6.86716">
        <ele>436.6</ele>
        <time>2021-07-29T16:08:23Z</time>
      </trkpt>
      <trkpt lat="47.32426" lon="6.86721">
        <ele>436.8</ele>
        <time>2021-07-29T16:08:24Z</time>
      </trkpt>
      <trkpt lat="47.32426" lon="6.86727">
        <ele>436.8</ele>
        <time>2021-07-29T16:08:25Z</time>
      </trkpt>
      <trkpt lat="47.32427" lon="6.86732">
        <ele>436.8</ele>
        <time>2021-07-29T16:08:26Z</time>
      </trkpt>
      <trkpt lat="47.32427" lon="6.86738">
        <ele>437</ele>
        <time>2021-07-29T16:08:27Z</time>
      </trkpt>
      <trkpt lat="47.32428" lon="6.86743">
        <ele>437.2</ele>
        <time>2021-07-29T16:08:28Z</time>
      </trkpt>
      <trkpt lat="47.32428" lon="6.86749">
        <ele>437.2</ele>
        <time>2021-07-29T16:08:29Z</time>
      </trkpt>
      <trkpt lat="47.32429" lon="6.86754">
        <ele>437.2</ele>
        <time>2021-07-29T16:08:30Z</time>
      </trkpt>
      <trkpt lat="47.3243" lon="6.8676">
        <ele>437.4</ele>
        <time>2021-07-29T16:08:31Z</time>
      </trkpt>
      <trkpt lat="47.3243" lon="6.86765">
        <ele>437.4</ele>
        <time>2021-07-29T16:08:32Z</time>
      </trkpt>
      <trkpt lat="47.32431" lon="6.86771">
        <ele>437.4</ele>
        <time>2021-07-29T16:08:33Z</time>
      </trkpt>
      <trkpt lat="47.32432" lon="6.86776">
        <ele>437.6</ele>
        <time>2021-07-29T16:08:34Z</time>
      </trkpt>
      <trkpt lat="47.32433" lon="6.86781">
        <ele>437.6</ele>
        <time>2021-07-29T16:08:35Z</time>
      </trkpt>
      <trkpt lat="47.32433" lon="6.86787">
        <ele>437.8</ele>
        <time>2021-07-29T16:08:36Z</time>
      </trkpt>
      <trkpt lat="47.32434" lon="6.86792">
        <ele>437.8</ele>
        <time>2021-07-29T16:08:37Z</time>
      </trkpt>
      <trkpt lat="47.32434" lon="6.86798">
        <ele>437.8</ele>
        <time>2021-07-29T16:08:38Z</time>
      </trkpt>
      <trkpt lat="47.32435" lon="6.86803">
        <ele>437.8</ele>
        <time>2021-07-29T16:08:39Z</time>
      </trkpt>
      <trkpt lat="47.32437" lon="6.86809">
        <ele>437.8</ele>
        <time>2021-07-29T16:08:40Z</time>
      </trkpt>
      <trkpt lat="47.32438" lon="6.86815">
        <ele>437.8</ele>
        <time>2021-07-29T16:08:41Z</time>
      </trkpt>
      <trkpt lat="47.32439" lon="6.86821">
        <ele>438</ele>
        <time>2021-07-29T16:08:42Z</time>
      </trkpt>
      <trkpt lat="47.3244" lon="6.86826">
        <ele>438</ele>
        <time>2021-07-29T16:08:43Z</time>
      </trkpt>
      <trkpt lat="47.32441" lon="6.86832">
        <ele>438</ele>
        <time>2021-07-29T16:08:44Z</time>
      </trkpt>
      <trkpt lat="47.32442" lon="6.86838">
        <ele>438</ele>
        <time>2021-07-29T16:08:45Z</time>
      </trkpt>
      <trkpt lat="47.32443" lon="6.86844">
        <ele>438</ele>
        <time>2021-07-29T16:08:46Z</time>
      </trkpt>
      <trkpt lat="47.32444" lon="6.8685">
        <ele>438</ele>
        <time>2021-07-29T16:08:47Z</time>
      </trkpt>
      <trkpt lat="47.32445" lon="6.86857">
        <ele>438</ele>
        <time>2021-07-29T16:08:48Z</time>
      </trkpt>
      <trkpt lat="47.32446" lon="6.86863">
        <ele>438</ele>
        <time>2021-07-29T16:08:49Z</time>
      </trkpt>
      <trkpt lat="47.32447" lon="6.86869">
        <ele>438</ele>
        <time>2021-07-29T16:08:50Z</time>
      </trkpt>
      <trkpt lat="47.32449" lon="6.86876">
        <ele>437.8</ele>
        <time>2021-07-29T16:08:51Z</time>
      </trkpt>
      <trkpt lat="47.3245" lon="6.86882">
        <ele>437.8</ele>
        <time>2021-07-29T16:08:52Z</time>
      </trkpt>
      <trkpt lat="47.3245" lon="6.86889">
        <ele>437.8</ele>
        <time>2021-07-29T16:08:53Z</time>
      </trkpt>
      <trkpt lat="47.32451" lon="6.86895">
        <ele>437.8</ele>
        <time>2021-07-29T16:08:54Z</time>
      </trkpt>
      <trkpt lat="47.32452" lon="6.86902">
        <ele>437.8</ele>
        <time>2021-07-29T16:08:55Z</time>
      </trkpt>
      <trkpt lat="47.32454" lon="6.86909">
        <ele>437.6</ele>
        <time>2021-07-29T16:08:56Z</time>
      </trkpt>
      <trkpt lat="47.32456" lon="6.86916">
        <ele>437.6</ele>
        <time>2021-07-29T16:08:57Z</time>
      </trkpt>
      <trkpt lat="47.32458" lon="6.86923">
        <ele>437.6</ele>
        <time>2021-07-29T16:08:58Z</time>
      </trkpt>
      <trkpt lat="47.32459" lon="6.86931">
        <ele>437.6</ele>
        <time>2021-07-29T16:08:59Z</time>
      </trkpt>
      <trkpt lat="47.32461" lon="6.86938">
        <ele>437.6</ele>
        <time>2021-07-29T16:09:00Z</time>
      </trkpt>
      <trkpt lat="47.32462" lon="6.86945">
        <ele>437.4</ele>
        <time>2021-07-29T16:09:01Z</time>
      </trkpt>
      <trkpt lat="47.32463" lon="6.86953">
        <ele>437.4</ele>
        <time>2021-07-29T16:09:02Z</time>
      </trkpt>
      <trkpt lat="47.32464" lon="6.8696">
        <ele>437.4</ele>
        <time>2021-07-29T16:09:03Z</time>
      </trkpt>
      <trkpt lat="47.32465" lon="6.86967">
        <ele>437.4</ele>
        <time>2021-07-29T16:09:04Z</time>
      </trkpt>
      <trkpt lat="47.32468" lon="6.86975">
        <ele>437.4</ele>
        <time>2021-07-29T16:09:05Z</time>
      </trkpt>
      <trkpt lat="47.32469" lon="6.86982">
        <ele>437.6</ele>
        <time>2021-07-29T16:09:06Z</time>
      </trkpt>
      <trkpt lat="47.32472" lon="6.8699">
        <ele>437.6</ele>
        <time>2021-07-29T16:09:07Z</time>
      </trkpt>
      <trkpt lat="47.32474" lon="6.86997">
        <ele>437.6</ele>
        <time>2021-07-29T16:09:08Z</time>
      </trkpt>
      <trkpt lat="47.32476" lon="6.87005">
        <ele>437.6</ele>
        <time>2021-07-29T16:09:09Z</time>
      </trkpt>
      <trkpt lat="47.32477" lon="6.87012">
        <ele>437.6</ele>
        <time>2021-07-29T16:09:10Z</time>
      </trkpt>
      <trkpt lat="47.32479" lon="6.87019">
        <ele>437.8</ele>
        <time>2021-07-29T16:09:11Z</time>
      </trkpt>
      <trkpt lat="47.32481" lon="6.87026">
        <ele>437.8</ele>
        <time>2021-07-29T16:09:12Z</time>
      </trkpt>
      <trkpt lat="47.32482" lon="6.87032">
        <ele>438</ele>
        <time>2021-07-29T16:09:13Z</time>
      </trkpt>
      <trkpt lat="47.32483" lon="6.87039">
        <ele>438</ele>
        <time>2021-07-29T16:09:14Z</time>
      </trkpt>
      <trkpt lat="47.32484" lon="6.87045">
        <ele>438.2</ele>
        <time>2021-07-29T16:09:15Z</time>
      </trkpt>
      <trkpt lat="47.32485" lon="6.87051">
        <ele>438.2</ele>
        <time>2021-07-29T16:09:16Z</time>
      </trkpt>
      <trkpt lat="47.32486" lon="6.87057">
        <ele>438.2</ele>
        <time>2021-07-29T16:09:17Z</time>
      </trkpt>
      <trkpt lat="47.32488" lon="6.87063">
        <ele>438.6</ele>
        <time>2021-07-29T16:09:18Z</time>
      </trkpt>
      <trkpt lat="47.32488" lon="6.87069">
        <ele>438.6</ele>
        <time>2021-07-29T16:09:19Z</time>
      </trkpt>
      <trkpt lat="47.3249" lon="6.87074">
        <ele>438.6</ele>
        <time>2021-07-29T16:09:20Z</time>
      </trkpt>
      <trkpt lat="47.3249" lon="6.87081">
        <ele>438.6</ele>
        <time>2021-07-29T16:09:21Z</time>
      </trkpt>
      <trkpt lat="47.32492" lon="6.87087">
        <ele>438.8</ele>
        <time>2021-07-29T16:09:22Z</time>
      </trkpt>
      <trkpt lat="47.32493" lon="6.87093">
        <ele>438.8</ele>
        <time>2021-07-29T16:09:23Z</time>
      </trkpt>
      <trkpt lat="47.32495" lon="6.87098">
        <ele>439</ele>
        <time>2021-07-29T16:09:24Z</time>
      </trkpt>
      <trkpt lat="47.32497" lon="6.87104">
        <ele>439</ele>
        <time>2021-07-29T16:09:25Z</time>
      </trkpt>
      <trkpt lat="47.32499" lon="6.8711">
        <ele>439</ele>
        <time>2021-07-29T16:09:26Z</time>
      </trkpt>
      <trkpt lat="47.32501" lon="6.87116">
        <ele>439.2</ele>
        <time>2021-07-29T16:09:27Z</time>
      </trkpt>
      <trkpt lat="47.32503" lon="6.87121">
        <ele>439.2</ele>
        <time>2021-07-29T16:09:28Z</time>
      </trkpt>
      <trkpt lat="47.32506" lon="6.87127">
        <ele>439.2</ele>
        <time>2021-07-29T16:09:29Z</time>
      </trkpt>
      <trkpt lat="47.32508" lon="6.87132">
        <ele>439.2</ele>
        <time>2021-07-29T16:09:30Z</time>
      </trkpt>
      <trkpt lat="47.32511" lon="6.87137">
        <ele>439.4</ele>
        <time>2021-07-29T16:09:31Z</time>
      </trkpt>
      <trkpt lat="47.32513" lon="6.87142">
        <ele>439.4</ele>
        <time>2021-07-29T16:09:32Z</time>
      </trkpt>
      <trkpt lat="47.32516" lon="6.87147">
        <ele>439.4</ele>
        <time>2021-07-29T16:09:33Z</time>
      </trkpt>
      <trkpt lat="47.32519" lon="6.87151">
        <ele>439.6</ele>
        <time>2021-07-29T16:09:34Z</time>
      </trkpt>
      <trkpt lat="47.32521" lon="6.87156">
        <ele>439.6</ele>
        <time>2021-07-29T16:09:35Z</time>
      </trkpt>
      <trkpt lat="47.32524" lon="6.87161">
        <ele>439.6</ele>
        <time>2021-07-29T16:09:36Z</time>
      </trkpt>
      <trkpt lat="47.32527" lon="6.87166">
        <ele>439.6</ele>
        <time>2021-07-29T16:09:37Z</time>
      </trkpt>
      <trkpt lat="47.3253" lon="6.87171">
        <ele>439.6</ele>
        <time>2021-07-29T16:09:38Z</time>
      </trkpt>
      <trkpt lat="47.32535" lon="6.87181">
        <ele>439.6</ele>
        <time>2021-07-29T16:09:39Z</time>
      </trkpt>
      <trkpt lat="47.32537" lon="6.87183">
        <ele>439.6</ele>
        <time>2021-07-29T16:09:40Z</time>
      </trkpt>
      <trkpt lat="47.32538" lon="6.87186">
        <ele>439.6</ele>
        <time>2021-07-29T16:09:41Z</time>
      </trkpt>
      <trkpt lat="47.32541" lon="6.87191">
        <ele>439.6</ele>
        <time>2021-07-29T16:09:42Z</time>
      </trkpt>
      <trkpt lat="47.32544" lon="6.87196">
        <ele>439.8</ele>
        <time>2021-07-29T16:09:43Z</time>
      </trkpt>
      <trkpt lat="47.32547" lon="6.87201">
        <ele>439.6</ele>
        <time>2021-07-29T16:09:44Z</time>
      </trkpt>
      <trkpt lat="47.32554" lon="6.87211">
        <ele>439.6</ele>
        <time>2021-07-29T16:09:45Z</time>
      </trkpt>
      <trkpt lat="47.32556" lon="6.87213">
        <ele>439.8</ele>
        <time>2021-07-29T16:09:46Z</time>
      </trkpt>
      <trkpt lat="47.32557" lon="6.87215">
        <ele>439.8</ele>
        <time>2021-07-29T16:09:47Z</time>
      </trkpt>
      <trkpt lat="47.32561" lon="6.87219">
        <ele>439.8</ele>
        <time>2021-07-29T16:09:48Z</time>
      </trkpt>
      <trkpt lat="47.32565" lon="6.87222">
        <ele>439.8</ele>
        <time>2021-07-29T16:09:49Z</time>
      </trkpt>
      <trkpt lat="47.3257" lon="6.87226">
        <ele>439.8</ele>
        <time>2021-07-29T16:09:50Z</time>
      </trkpt>
      <trkpt lat="47.32574" lon="6.87229">
        <ele>439.6</ele>
        <time>2021-07-29T16:09:51Z</time>
      </trkpt>
      <trkpt lat="47.32579" lon="6.87232">
        <ele>439.6</ele>
        <time>2021-07-29T16:09:52Z</time>
      </trkpt>
      <trkpt lat="47.32584" lon="6.87234">
        <ele>439.6</ele>
        <time>2021-07-29T16:09:53Z</time>
      </trkpt>
      <trkpt lat="47.3259" lon="6.87234">
        <ele>439.4</ele>
        <time>2021-07-29T16:09:54Z</time>
      </trkpt>
      <trkpt lat="47.32601" lon="6.87234">
        <ele>439.4</ele>
        <time>2021-07-29T16:09:55Z</time>
      </trkpt>
      <trkpt lat="47.32604" lon="6.87234">
        <ele>439.4</ele>
        <time>2021-07-29T16:09:56Z</time>
      </trkpt>
      <trkpt lat="47.32607" lon="6.87234">
        <ele>439.2</ele>
        <time>2021-07-29T16:09:57Z</time>
      </trkpt>
      <trkpt lat="47.32613" lon="6.87233">
        <ele>439</ele>
        <time>2021-07-29T16:09:58Z</time>
      </trkpt>
      <trkpt lat="47.32619" lon="6.87232">
        <ele>439</ele>
        <time>2021-07-29T16:09:59Z</time>
      </trkpt>
      <trkpt lat="47.32625" lon="6.87231">
        <ele>438.8</ele>
        <time>2021-07-29T16:10:00Z</time>
      </trkpt>
      <trkpt lat="47.32631" lon="6.87231">
        <ele>438.8</ele>
        <time>2021-07-29T16:10:01Z</time>
      </trkpt>
      <trkpt lat="47.32637" lon="6.87232">
        <ele>438.6</ele>
        <time>2021-07-29T16:10:02Z</time>
      </trkpt>
      <trkpt lat="47.32644" lon="6.87234">
        <ele>438.4</ele>
        <time>2021-07-29T16:10:03Z</time>
      </trkpt>
      <trkpt lat="47.32656" lon="6.8724">
        <ele>438.2</ele>
        <time>2021-07-29T16:10:04Z</time>
      </trkpt>
      <trkpt lat="47.32659" lon="6.87242">
        <ele>438.6</ele>
        <time>2021-07-29T16:10:05Z</time>
      </trkpt>
      <trkpt lat="47.32662" lon="6.87244">
        <ele>438</ele>
        <time>2021-07-29T16:10:06Z</time>
      </trkpt>
      <trkpt lat="47.32667" lon="6.87247">
        <ele>437.8</ele>
        <time>2021-07-29T16:10:07Z</time>
      </trkpt>
      <trkpt lat="47.32673" lon="6.8725">
        <ele>437.8</ele>
        <time>2021-07-29T16:10:08Z</time>
      </trkpt>
      <trkpt lat="47.32679" lon="6.87252">
        <ele>437.6</ele>
        <time>2021-07-29T16:10:09Z</time>
      </trkpt>
      <trkpt lat="47.32692" lon="6.87256">
        <ele>437.6</ele>
        <time>2021-07-29T16:10:10Z</time>
      </trkpt>
      <trkpt lat="47.32695" lon="6.87256">
        <ele>437.6</ele>
        <time>2021-07-29T16:10:11Z</time>
      </trkpt>
      <trkpt lat="47.32698" lon="6.87257">
        <ele>437.4</ele>
        <time>2021-07-29T16:10:12Z</time>
      </trkpt>
      <trkpt lat="47.32705" lon="6.87258">
        <ele>437.4</ele>
        <time>2021-07-29T16:10:13Z</time>
      </trkpt>
      <trkpt lat="47.32712" lon="6.87259">
        <ele>437.2</ele>
        <time>2021-07-29T16:10:14Z</time>
      </trkpt>
      <trkpt lat="47.32725" lon="6.87261">
        <ele>437.2</ele>
        <time>2021-07-29T16:10:15Z</time>
      </trkpt>
      <trkpt lat="47.32729" lon="6.87262">
        <ele>437</ele>
        <time>2021-07-29T16:10:16Z</time>
      </trkpt>
      <trkpt lat="47.32732" lon="6.87263">
        <ele>436.8</ele>
        <time>2021-07-29T16:10:17Z</time>
      </trkpt>
      <trkpt lat="47.32746" lon="6.87266">
        <ele>436.6</ele>
        <time>2021-07-29T16:10:18Z</time>
      </trkpt>
      <trkpt lat="47.32749" lon="6.87267">
        <ele>436.6</ele>
        <time>2021-07-29T16:10:19Z</time>
      </trkpt>
      <trkpt lat="47.32753" lon="6.87268">
        <ele>436.2</ele>
        <time>2021-07-29T16:10:20Z</time>
      </trkpt>
      <trkpt lat="47.3276" lon="6.87271">
        <ele>436</ele>
        <time>2021-07-29T16:10:21Z</time>
      </trkpt>
      <trkpt lat="47.32767" lon="6.87273">
        <ele>435.8</ele>
        <time>2021-07-29T16:10:22Z</time>
      </trkpt>
      <trkpt lat="47.32783" lon="6.87276">
        <ele>435.4</ele>
        <time>2021-07-29T16:10:23Z</time>
      </trkpt>
      <trkpt lat="47.32787" lon="6.87277">
        <ele>435.4</ele>
        <time>2021-07-29T16:10:24Z</time>
      </trkpt>
      <trkpt lat="47.3279" lon="6.87277">
        <ele>435.2</ele>
        <time>2021-07-29T16:10:25Z</time>
      </trkpt>
      <trkpt lat="47.32798" lon="6.87276">
        <ele>435.2</ele>
        <time>2021-07-29T16:10:26Z</time>
      </trkpt>
      <trkpt lat="47.32805" lon="6.87274">
        <ele>435.2</ele>
        <time>2021-07-29T16:10:27Z</time>
      </trkpt>
      <trkpt lat="47.32812" lon="6.87271">
        <ele>435.2</ele>
        <time>2021-07-29T16:10:28Z</time>
      </trkpt>
      <trkpt lat="47.32819" lon="6.87268">
        <ele>435.2</ele>
        <time>2021-07-29T16:10:29Z</time>
      </trkpt>
      <trkpt lat="47.32826" lon="6.87265">
        <ele>435.2</ele>
        <time>2021-07-29T16:10:30Z</time>
      </trkpt>
      <trkpt lat="47.32838" lon="6.87257">
        <ele>435.2</ele>
        <time>2021-07-29T16:10:31Z</time>
      </trkpt>
      <trkpt lat="47.32841" lon="6.87255">
        <ele>435.2</ele>
        <time>2021-07-29T16:10:32Z</time>
      </trkpt>
      <trkpt lat="47.32844" lon="6.87253">
        <ele>435.2</ele>
        <time>2021-07-29T16:10:33Z</time>
      </trkpt>
      <trkpt lat="47.3285" lon="6.87249">
        <ele>435.2</ele>
        <time>2021-07-29T16:10:34Z</time>
      </trkpt>
      <trkpt lat="47.32856" lon="6.87245">
        <ele>435</ele>
        <time>2021-07-29T16:10:35Z</time>
      </trkpt>
      <trkpt lat="47.32862" lon="6.87241">
        <ele>435</ele>
        <time>2021-07-29T16:10:36Z</time>
      </trkpt>
      <trkpt lat="47.32868" lon="6.87237">
        <ele>435</ele>
        <time>2021-07-29T16:10:37Z</time>
      </trkpt>
      <trkpt lat="47.32873" lon="6.87233">
        <ele>435</ele>
        <time>2021-07-29T16:10:38Z</time>
      </trkpt>
      <trkpt lat="47.32884" lon="6.87225">
        <ele>435</ele>
        <time>2021-07-29T16:10:39Z</time>
      </trkpt>
      <trkpt lat="47.32886" lon="6.87223">
        <ele>435</ele>
        <time>2021-07-29T16:10:40Z</time>
      </trkpt>
      <trkpt lat="47.32889" lon="6.87221">
        <ele>435</ele>
        <time>2021-07-29T16:10:41Z</time>
      </trkpt>
      <trkpt lat="47.32899" lon="6.87212">
        <ele>435</ele>
        <time>2021-07-29T16:10:42Z</time>
      </trkpt>
      <trkpt lat="47.32901" lon="6.8721">
        <ele>435</ele>
        <time>2021-07-29T16:10:43Z</time>
      </trkpt>
      <trkpt lat="47.32904" lon="6.87208">
        <ele>435.2</ele>
        <time>2021-07-29T16:10:44Z</time>
      </trkpt>
      <trkpt lat="47.32908" lon="6.87203">
        <ele>435.2</ele>
        <time>2021-07-29T16:10:45Z</time>
      </trkpt>
      <trkpt lat="47.32913" lon="6.87199">
        <ele>435.2</ele>
        <time>2021-07-29T16:10:46Z</time>
      </trkpt>
      <trkpt lat="47.32921" lon="6.8719">
        <ele>435.2</ele>
        <time>2021-07-29T16:10:47Z</time>
      </trkpt>
      <trkpt lat="47.32924" lon="6.87188">
        <ele>435.4</ele>
        <time>2021-07-29T16:10:48Z</time>
      </trkpt>
      <trkpt lat="47.32926" lon="6.87186">
        <ele>435.4</ele>
        <time>2021-07-29T16:10:49Z</time>
      </trkpt>
      <trkpt lat="47.32934" lon="6.87178">
        <ele>435.4</ele>
        <time>2021-07-29T16:10:50Z</time>
      </trkpt>
      <trkpt lat="47.32938" lon="6.87174">
        <ele>435.4</ele>
        <time>2021-07-29T16:10:51Z</time>
      </trkpt>
      <trkpt lat="47.32942" lon="6.8717">
        <ele>435.4</ele>
        <time>2021-07-29T16:10:52Z</time>
      </trkpt>
      <trkpt lat="47.32946" lon="6.87166">
        <ele>435.6</ele>
        <time>2021-07-29T16:10:53Z</time>
      </trkpt>
      <trkpt lat="47.32948" lon="6.87164">
        <ele>435.6</ele>
        <time>2021-07-29T16:10:54Z</time>
      </trkpt>
      <trkpt lat="47.3295" lon="6.87162">
        <ele>435.8</ele>
        <time>2021-07-29T16:10:55Z</time>
      </trkpt>
      <trkpt lat="47.32953" lon="6.87158">
        <ele>436</ele>
        <time>2021-07-29T16:10:56Z</time>
      </trkpt>
      <trkpt lat="47.32957" lon="6.87154">
        <ele>436</ele>
        <time>2021-07-29T16:10:57Z</time>
      </trkpt>
      <trkpt lat="47.32961" lon="6.87151">
        <ele>436.2</ele>
        <time>2021-07-29T16:10:58Z</time>
      </trkpt>
      <trkpt lat="47.32968" lon="6.87144">
        <ele>436.4</ele>
        <time>2021-07-29T16:10:59Z</time>
      </trkpt>
      <trkpt lat="47.32969" lon="6.87143">
        <ele>436.4</ele>
        <time>2021-07-29T16:11:00Z</time>
      </trkpt>
      <trkpt lat="47.32971" lon="6.87141">
        <ele>436.6</ele>
        <time>2021-07-29T16:11:01Z</time>
      </trkpt>
      <trkpt lat="47.32978" lon="6.87135">
        <ele>436.6</ele>
        <time>2021-07-29T16:11:02Z</time>
      </trkpt>
      <trkpt lat="47.32981" lon="6.87131">
        <ele>436.6</ele>
        <time>2021-07-29T16:11:03Z</time>
      </trkpt>
      <trkpt lat="47.32984" lon="6.87128">
        <ele>436.8</ele>
        <time>2021-07-29T16:11:04Z</time>
      </trkpt>
      <trkpt lat="47.32987" lon="6.87124">
        <ele>436.8</ele>
        <time>2021-07-29T16:11:05Z</time>
      </trkpt>
      <trkpt lat="47.32991" lon="6.87121">
        <ele>436.8</ele>
        <time>2021-07-29T16:11:06Z</time>
      </trkpt>
      <trkpt lat="47.32994" lon="6.87118">
        <ele>437</ele>
        <time>2021-07-29T16:11:07Z</time>
      </trkpt>
      <trkpt lat="47.32996" lon="6.87117">
        <ele>437</ele>
        <time>2021-07-29T16:11:08Z</time>
      </trkpt>
      <trkpt lat="47.32998" lon="6.87115">
        <ele>437</ele>
        <time>2021-07-29T16:11:09Z</time>
      </trkpt>
      <trkpt lat="47.33001" lon="6.87112">
        <ele>437</ele>
        <time>2021-07-29T16:11:10Z</time>
      </trkpt>
      <trkpt lat="47.33008" lon="6.87106">
        <ele>436.8</ele>
        <time>2021-07-29T16:11:11Z</time>
      </trkpt>
      <trkpt lat="47.33011" lon="6.87102">
        <ele>437.2</ele>
        <time>2021-07-29T16:11:12Z</time>
      </trkpt>
      <trkpt lat="47.33015" lon="6.87098">
        <ele>437</ele>
        <time>2021-07-29T16:11:13Z</time>
      </trkpt>
      <trkpt lat="47.33017" lon="6.87096">
        <ele>437</ele>
        <time>2021-07-29T16:11:14Z</time>
      </trkpt>
      <trkpt lat="47.33019" lon="6.87094">
        <ele>436.8</ele>
        <time>2021-07-29T16:11:15Z</time>
      </trkpt>
      <trkpt lat="47.33023" lon="6.87091">
        <ele>436.8</ele>
        <time>2021-07-29T16:11:16Z</time>
      </trkpt>
      <trkpt lat="47.33027" lon="6.87087">
        <ele>436.8</ele>
        <time>2021-07-29T16:11:17Z</time>
      </trkpt>
      <trkpt lat="47.33035" lon="6.8708">
        <ele>436.6</ele>
        <time>2021-07-29T16:11:18Z</time>
      </trkpt>
      <trkpt lat="47.33037" lon="6.87078">
        <ele>436.6</ele>
        <time>2021-07-29T16:11:19Z</time>
      </trkpt>
      <trkpt lat="47.33039" lon="6.87076">
        <ele>436.4</ele>
        <time>2021-07-29T16:11:20Z</time>
      </trkpt>
      <trkpt lat="47.33044" lon="6.87071">
        <ele>436.4</ele>
        <time>2021-07-29T16:11:21Z</time>
      </trkpt>
      <trkpt lat="47.33053" lon="6.87063">
        <ele>436.4</ele>
        <time>2021-07-29T16:11:22Z</time>
      </trkpt>
      <trkpt lat="47.33057" lon="6.8706">
        <ele>436.2</ele>
        <time>2021-07-29T16:11:23Z</time>
      </trkpt>
      <trkpt lat="47.3306" lon="6.87057">
        <ele>436.2</ele>
        <time>2021-07-29T16:11:24Z</time>
      </trkpt>
      <trkpt lat="47.33067" lon="6.8705">
        <ele>436.2</ele>
        <time>2021-07-29T16:11:25Z</time>
      </trkpt>
      <trkpt lat="47.33071" lon="6.87046">
        <ele>436.2</ele>
        <time>2021-07-29T16:11:26Z</time>
      </trkpt>
      <trkpt lat="47.33074" lon="6.87044">
        <ele>436.2</ele>
        <time>2021-07-29T16:11:27Z</time>
      </trkpt>
      <trkpt lat="47.33076" lon="6.87042">
        <ele>436.2</ele>
        <time>2021-07-29T16:11:28Z</time>
      </trkpt>
      <trkpt lat="47.3308" lon="6.87038">
        <ele>436</ele>
        <time>2021-07-29T16:11:29Z</time>
      </trkpt>
      <trkpt lat="47.33089" lon="6.87031">
        <ele>436</ele>
        <time>2021-07-29T16:11:30Z</time>
      </trkpt>
      <trkpt lat="47.33093" lon="6.87027">
        <ele>436.2</ele>
        <time>2021-07-29T16:11:31Z</time>
      </trkpt>
      <trkpt lat="47.33098" lon="6.87023">
        <ele>436.2</ele>
        <time>2021-07-29T16:11:32Z</time>
      </trkpt>
      <trkpt lat="47.331" lon="6.87021">
        <ele>436.2</ele>
        <time>2021-07-29T16:11:33Z</time>
      </trkpt>
      <trkpt lat="47.33102" lon="6.87019">
        <ele>436.2</ele>
        <time>2021-07-29T16:11:34Z</time>
      </trkpt>
      <trkpt lat="47.33106" lon="6.87016">
        <ele>436.2</ele>
        <time>2021-07-29T16:11:35Z</time>
      </trkpt>
      <trkpt lat="47.3311" lon="6.87012">
        <ele>436.4</ele>
        <time>2021-07-29T16:11:36Z</time>
      </trkpt>
      <trkpt lat="47.33119" lon="6.87005">
        <ele>436.4</ele>
        <time>2021-07-29T16:11:37Z</time>
      </trkpt>
      <trkpt lat="47.33121" lon="6.87003">
        <ele>436.2</ele>
        <time>2021-07-29T16:11:38Z</time>
      </trkpt>
      <trkpt lat="47.33123" lon="6.87001">
        <ele>436.2</ele>
        <time>2021-07-29T16:11:39Z</time>
      </trkpt>
      <trkpt lat="47.33131" lon="6.86993">
        <ele>436.4</ele>
        <time>2021-07-29T16:11:40Z</time>
      </trkpt>
      <trkpt lat="47.33135" lon="6.86989">
        <ele>436.4</ele>
        <time>2021-07-29T16:11:41Z</time>
      </trkpt>
      <trkpt lat="47.33139" lon="6.86985">
        <ele>436.4</ele>
        <time>2021-07-29T16:11:42Z</time>
      </trkpt>
      <trkpt lat="47.33143" lon="6.86981">
        <ele>436.6</ele>
        <time>2021-07-29T16:11:43Z</time>
      </trkpt>
      <trkpt lat="47.33145" lon="6.86979">
        <ele>436.6</ele>
        <time>2021-07-29T16:11:44Z</time>
      </trkpt>
      <trkpt lat="47.33147" lon="6.86977">
        <ele>436.8</ele>
        <time>2021-07-29T16:11:45Z</time>
      </trkpt>
      <trkpt lat="47.33154" lon="6.8697">
        <ele>437</ele>
        <time>2021-07-29T16:11:46Z</time>
      </trkpt>
      <trkpt lat="47.33155" lon="6.86968">
        <ele>437</ele>
        <time>2021-07-29T16:11:47Z</time>
      </trkpt>
      <trkpt lat="47.33157" lon="6.86967">
        <ele>437.2</ele>
        <time>2021-07-29T16:11:48Z</time>
      </trkpt>
      <trkpt lat="47.33163" lon="6.86961">
        <ele>437.4</ele>
        <time>2021-07-29T16:11:49Z</time>
      </trkpt>
      <trkpt lat="47.33166" lon="6.86957">
        <ele>437.6</ele>
        <time>2021-07-29T16:11:50Z</time>
      </trkpt>
      <trkpt lat="47.33169" lon="6.86953">
        <ele>437.6</ele>
        <time>2021-07-29T16:11:51Z</time>
      </trkpt>
      <trkpt lat="47.33172" lon="6.8695">
        <ele>437.8</ele>
        <time>2021-07-29T16:11:52Z</time>
      </trkpt>
      <trkpt lat="47.33174" lon="6.86947">
        <ele>437.8</ele>
        <time>2021-07-29T16:11:53Z</time>
      </trkpt>
      <trkpt lat="47.33177" lon="6.86944">
        <ele>438</ele>
        <time>2021-07-29T16:11:54Z</time>
      </trkpt>
      <trkpt lat="47.33179" lon="6.86941">
        <ele>438.2</ele>
        <time>2021-07-29T16:11:55Z</time>
      </trkpt>
      <trkpt lat="47.33182" lon="6.86938">
        <ele>438.2</ele>
        <time>2021-07-29T16:11:56Z</time>
      </trkpt>
      <trkpt lat="47.33184" lon="6.86935">
        <ele>438.4</ele>
        <time>2021-07-29T16:11:57Z</time>
      </trkpt>
      <trkpt lat="47.33187" lon="6.86933">
        <ele>438.6</ele>
        <time>2021-07-29T16:11:58Z</time>
      </trkpt>
      <trkpt lat="47.33189" lon="6.8693">
        <ele>438.6</ele>
        <time>2021-07-29T16:11:59Z</time>
      </trkpt>
      <trkpt lat="47.33191" lon="6.86928">
        <ele>438.8</ele>
        <time>2021-07-29T16:12:00Z</time>
      </trkpt>
      <trkpt lat="47.33194" lon="6.86925">
        <ele>438.8</ele>
        <time>2021-07-29T16:12:01Z</time>
      </trkpt>
      <trkpt lat="47.33196" lon="6.86923">
        <ele>439</ele>
        <time>2021-07-29T16:12:02Z</time>
      </trkpt>
      <trkpt lat="47.33198" lon="6.8692">
        <ele>439.2</ele>
        <time>2021-07-29T16:12:03Z</time>
      </trkpt>
      <trkpt lat="47.332" lon="6.86918">
        <ele>439.2</ele>
        <time>2021-07-29T16:12:04Z</time>
      </trkpt>
      <trkpt lat="47.33202" lon="6.86916">
        <ele>439.4</ele>
        <time>2021-07-29T16:12:05Z</time>
      </trkpt>
      <trkpt lat="47.33204" lon="6.86913">
        <ele>439.6</ele>
        <time>2021-07-29T16:12:06Z</time>
      </trkpt>
      <trkpt lat="47.33206" lon="6.86911">
        <ele>439.6</ele>
        <time>2021-07-29T16:12:07Z</time>
      </trkpt>
      <trkpt lat="47.33208" lon="6.86909">
        <ele>439.8</ele>
        <time>2021-07-29T16:12:08Z</time>
      </trkpt>
      <trkpt lat="47.3321" lon="6.86906">
        <ele>439.8</ele>
        <time>2021-07-29T16:12:09Z</time>
      </trkpt>
      <trkpt lat="47.33211" lon="6.86904">
        <ele>440</ele>
        <time>2021-07-29T16:12:10Z</time>
      </trkpt>
      <trkpt lat="47.33213" lon="6.86903">
        <ele>440</ele>
        <time>2021-07-29T16:12:11Z</time>
      </trkpt>
      <trkpt lat="47.33215" lon="6.86901">
        <ele>440.2</ele>
        <time>2021-07-29T16:12:12Z</time>
      </trkpt>
      <trkpt lat="47.33217" lon="6.86899">
        <ele>440.4</ele>
        <time>2021-07-29T16:12:13Z</time>
      </trkpt>
      <trkpt lat="47.33217" lon="6.86899">
        <ele>440.4</ele>
        <time>2021-07-29T16:12:14Z</time>
      </trkpt>
      <trkpt lat="47.33219" lon="6.86897">
        <ele>440.6</ele>
        <time>2021-07-29T16:12:15Z</time>
      </trkpt>
      <trkpt lat="47.33222" lon="6.86893">
        <ele>440.6</ele>
        <time>2021-07-29T16:12:16Z</time>
      </trkpt>
      <trkpt lat="47.33224" lon="6.86891">
        <ele>440.8</ele>
        <time>2021-07-29T16:12:17Z</time>
      </trkpt>
      <trkpt lat="47.33225" lon="6.86889">
        <ele>440.8</ele>
        <time>2021-07-29T16:12:18Z</time>
      </trkpt>
      <trkpt lat="47.33227" lon="6.86887">
        <ele>441</ele>
        <time>2021-07-29T16:12:19Z</time>
      </trkpt>
      <trkpt lat="47.33229" lon="6.86884">
        <ele>441</ele>
        <time>2021-07-29T16:12:20Z</time>
      </trkpt>
      <trkpt lat="47.33231" lon="6.86883">
        <ele>441.2</ele>
        <time>2021-07-29T16:12:21Z</time>
      </trkpt>
      <trkpt lat="47.33233" lon="6.86881">
        <ele>441.2</ele>
        <time>2021-07-29T16:12:22Z</time>
      </trkpt>
      <trkpt lat="47.33235" lon="6.86879">
        <ele>441.4</ele>
        <time>2021-07-29T16:12:23Z</time>
      </trkpt>
      <trkpt lat="47.33237" lon="6.86877">
        <ele>441.6</ele>
        <time>2021-07-29T16:12:24Z</time>
      </trkpt>
      <trkpt lat="47.33237" lon="6.86877">
        <ele>441.6</ele>
        <time>2021-07-29T16:12:25Z</time>
      </trkpt>
      <trkpt lat="47.33239" lon="6.86876">
        <ele>441.8</ele>
        <time>2021-07-29T16:12:26Z</time>
      </trkpt>
      <trkpt lat="47.33242" lon="6.86872">
        <ele>441.8</ele>
        <time>2021-07-29T16:12:27Z</time>
      </trkpt>
      <trkpt lat="47.33245" lon="6.8687">
        <ele>442</ele>
        <time>2021-07-29T16:12:28Z</time>
      </trkpt>
      <trkpt lat="47.33247" lon="6.86869">
        <ele>442</ele>
        <time>2021-07-29T16:12:29Z</time>
      </trkpt>
      <trkpt lat="47.33249" lon="6.86868">
        <ele>442.2</ele>
        <time>2021-07-29T16:12:30Z</time>
      </trkpt>
      <trkpt lat="47.33251" lon="6.86866">
        <ele>442.2</ele>
        <time>2021-07-29T16:12:31Z</time>
      </trkpt>
      <trkpt lat="47.33253" lon="6.86865">
        <ele>442.2</ele>
        <time>2021-07-29T16:12:32Z</time>
      </trkpt>
      <trkpt lat="47.33255" lon="6.86863">
        <ele>442.4</ele>
        <time>2021-07-29T16:12:33Z</time>
      </trkpt>
      <trkpt lat="47.33257" lon="6.86861">
        <ele>442.6</ele>
        <time>2021-07-29T16:12:34Z</time>
      </trkpt>
      <trkpt lat="47.33259" lon="6.8686">
        <ele>442.6</ele>
        <time>2021-07-29T16:12:35Z</time>
      </trkpt>
      <trkpt lat="47.33261" lon="6.86859">
        <ele>442.8</ele>
        <time>2021-07-29T16:12:36Z</time>
      </trkpt>
      <trkpt lat="47.33263" lon="6.86858">
        <ele>443</ele>
        <time>2021-07-29T16:12:37Z</time>
      </trkpt>
      <trkpt lat="47.33265" lon="6.86857">
        <ele>443</ele>
        <time>2021-07-29T16:12:38Z</time>
      </trkpt>
      <trkpt lat="47.33267" lon="6.86856">
        <ele>443.2</ele>
        <time>2021-07-29T16:12:39Z</time>
      </trkpt>
      <trkpt lat="47.33269" lon="6.86855">
        <ele>443.2</ele>
        <time>2021-07-29T16:12:40Z</time>
      </trkpt>
      <trkpt lat="47.33271" lon="6.86854">
        <ele>443.4</ele>
        <time>2021-07-29T16:12:41Z</time>
      </trkpt>
      <trkpt lat="47.33274" lon="6.86853">
        <ele>443.4</ele>
        <time>2021-07-29T16:12:42Z</time>
      </trkpt>
      <trkpt lat="47.33276" lon="6.86852">
        <ele>443.6</ele>
        <time>2021-07-29T16:12:43Z</time>
      </trkpt>
      <trkpt lat="47.33278" lon="6.86851">
        <ele>443.6</ele>
        <time>2021-07-29T16:12:44Z</time>
      </trkpt>
      <trkpt lat="47.3328" lon="6.86851">
        <ele>443.8</ele>
        <time>2021-07-29T16:12:45Z</time>
      </trkpt>
      <trkpt lat="47.33282" lon="6.8685">
        <ele>444</ele>
        <time>2021-07-29T16:12:46Z</time>
      </trkpt>
      <trkpt lat="47.33284" lon="6.8685">
        <ele>444.2</ele>
        <time>2021-07-29T16:12:47Z</time>
      </trkpt>
      <trkpt lat="47.33285" lon="6.8685">
        <ele>444.2</ele>
        <time>2021-07-29T16:12:48Z</time>
      </trkpt>
      <trkpt lat="47.33287" lon="6.86849">
        <ele>444.6</ele>
        <time>2021-07-29T16:12:49Z</time>
      </trkpt>
      <trkpt lat="47.33289" lon="6.86848">
        <ele>444.8</ele>
        <time>2021-07-29T16:12:50Z</time>
      </trkpt>
      <trkpt lat="47.33291" lon="6.86848">
        <ele>444.8</ele>
        <time>2021-07-29T16:12:51Z</time>
      </trkpt>
      <trkpt lat="47.33293" lon="6.86848">
        <ele>445</ele>
        <time>2021-07-29T16:12:52Z</time>
      </trkpt>
      <trkpt lat="47.33295" lon="6.86848">
        <ele>445</ele>
        <time>2021-07-29T16:12:53Z</time>
      </trkpt>
      <trkpt lat="47.33297" lon="6.86848">
        <ele>445</ele>
        <time>2021-07-29T16:12:54Z</time>
      </trkpt>
      <trkpt lat="47.333" lon="6.86848">
        <ele>445.2</ele>
        <time>2021-07-29T16:12:55Z</time>
      </trkpt>
      <trkpt lat="47.33302" lon="6.86848">
        <ele>445.2</ele>
        <time>2021-07-29T16:12:56Z</time>
      </trkpt>
      <trkpt lat="47.33304" lon="6.86848">
        <ele>445.4</ele>
        <time>2021-07-29T16:12:57Z</time>
      </trkpt>
      <trkpt lat="47.33306" lon="6.86848">
        <ele>445.6</ele>
        <time>2021-07-29T16:12:58Z</time>
      </trkpt>
      <trkpt lat="47.33308" lon="6.86848">
        <ele>445.6</ele>
        <time>2021-07-29T16:12:59Z</time>
      </trkpt>
      <trkpt lat="47.3331" lon="6.86849">
        <ele>445.8</ele>
        <time>2021-07-29T16:13:00Z</time>
      </trkpt>
      <trkpt lat="47.33312" lon="6.86849">
        <ele>445.8</ele>
        <time>2021-07-29T16:13:01Z</time>
      </trkpt>
      <trkpt lat="47.33315" lon="6.8685">
        <ele>445.8</ele>
        <time>2021-07-29T16:13:02Z</time>
      </trkpt>
      <trkpt lat="47.33317" lon="6.8685">
        <ele>446</ele>
        <time>2021-07-29T16:13:03Z</time>
      </trkpt>
      <trkpt lat="47.33319" lon="6.86851">
        <ele>446.2</ele>
        <time>2021-07-29T16:13:04Z</time>
      </trkpt>
      <trkpt lat="47.33321" lon="6.86851">
        <ele>446.2</ele>
        <time>2021-07-29T16:13:05Z</time>
      </trkpt>
      <trkpt lat="47.33324" lon="6.86851">
        <ele>446.4</ele>
        <time>2021-07-29T16:13:06Z</time>
      </trkpt>
      <trkpt lat="47.33326" lon="6.86851">
        <ele>446.4</ele>
        <time>2021-07-29T16:13:07Z</time>
      </trkpt>
      <trkpt lat="47.33329" lon="6.86851">
        <ele>446.4</ele>
        <time>2021-07-29T16:13:08Z</time>
      </trkpt>
      <trkpt lat="47.33331" lon="6.86851">
        <ele>446.4</ele>
        <time>2021-07-29T16:13:09Z</time>
      </trkpt>
      <trkpt lat="47.33333" lon="6.86851">
        <ele>446.6</ele>
        <time>2021-07-29T16:13:10Z</time>
      </trkpt>
      <trkpt lat="47.33336" lon="6.86852">
        <ele>446.6</ele>
        <time>2021-07-29T16:13:11Z</time>
      </trkpt>
      <trkpt lat="47.33338" lon="6.86852">
        <ele>446.6</ele>
        <time>2021-07-29T16:13:12Z</time>
      </trkpt>
      <trkpt lat="47.33341" lon="6.86853">
        <ele>446.6</ele>
        <time>2021-07-29T16:13:13Z</time>
      </trkpt>
      <trkpt lat="47.33344" lon="6.86853">
        <ele>446.6</ele>
        <time>2021-07-29T16:13:14Z</time>
      </trkpt>
      <trkpt lat="47.33346" lon="6.86854">
        <ele>446.6</ele>
        <time>2021-07-29T16:13:15Z</time>
      </trkpt>
      <trkpt lat="47.33349" lon="6.86854">
        <ele>446.8</ele>
        <time>2021-07-29T16:13:16Z</time>
      </trkpt>
      <trkpt lat="47.33352" lon="6.86854">
        <ele>446.8</ele>
        <time>2021-07-29T16:13:17Z</time>
      </trkpt>
      <trkpt lat="47.33355" lon="6.86854">
        <ele>446.8</ele>
        <time>2021-07-29T16:13:18Z</time>
      </trkpt>
      <trkpt lat="47.33357" lon="6.86855">
        <ele>447</ele>
        <time>2021-07-29T16:13:19Z</time>
      </trkpt>
      <trkpt lat="47.3336" lon="6.86855">
        <ele>447</ele>
        <time>2021-07-29T16:13:20Z</time>
      </trkpt>
      <trkpt lat="47.33363" lon="6.86855">
        <ele>447</ele>
        <time>2021-07-29T16:13:21Z</time>
      </trkpt>
      <trkpt lat="47.33366" lon="6.86855">
        <ele>447.2</ele>
        <time>2021-07-29T16:13:22Z</time>
      </trkpt>
      <trkpt lat="47.33369" lon="6.86856">
        <ele>447.2</ele>
        <time>2021-07-29T16:13:23Z</time>
      </trkpt>
      <trkpt lat="47.33372" lon="6.86856">
        <ele>447.2</ele>
        <time>2021-07-29T16:13:24Z</time>
      </trkpt>
      <trkpt lat="47.33375" lon="6.86856">
        <ele>447.2</ele>
        <time>2021-07-29T16:13:25Z</time>
      </trkpt>
      <trkpt lat="47.33378" lon="6.86856">
        <ele>447.4</ele>
        <time>2021-07-29T16:13:26Z</time>
      </trkpt>
      <trkpt lat="47.33381" lon="6.86856">
        <ele>447.4</ele>
        <time>2021-07-29T16:13:27Z</time>
      </trkpt>
      <trkpt lat="47.33384" lon="6.86857">
        <ele>447.4</ele>
        <time>2021-07-29T16:13:28Z</time>
      </trkpt>
      <trkpt lat="47.33387" lon="6.86857">
        <ele>447.4</ele>
        <time>2021-07-29T16:13:29Z</time>
      </trkpt>
      <trkpt lat="47.3339" lon="6.86857">
        <ele>447.4</ele>
        <time>2021-07-29T16:13:30Z</time>
      </trkpt>
      <trkpt lat="47.33393" lon="6.86857">
        <ele>447.4</ele>
        <time>2021-07-29T16:13:31Z</time>
      </trkpt>
      <trkpt lat="47.33396" lon="6.86857">
        <ele>447.4</ele>
        <time>2021-07-29T16:13:32Z</time>
      </trkpt>
      <trkpt lat="47.33399" lon="6.86857">
        <ele>447.4</ele>
        <time>2021-07-29T16:13:33Z</time>
      </trkpt>
      <trkpt lat="47.33402" lon="6.86856">
        <ele>447.4</ele>
        <time>2021-07-29T16:13:34Z</time>
      </trkpt>
      <trkpt lat="47.33406" lon="6.86857">
        <ele>447.4</ele>
        <time>2021-07-29T16:13:35Z</time>
      </trkpt>
      <trkpt lat="47.3341" lon="6.86857">
        <ele>447.4</ele>
        <time>2021-07-29T16:13:36Z</time>
      </trkpt>
      <trkpt lat="47.33414" lon="6.86857">
        <ele>447.4</ele>
        <time>2021-07-29T16:13:37Z</time>
      </trkpt>
      <trkpt lat="47.33418" lon="6.86857">
        <ele>447.4</ele>
        <time>2021-07-29T16:13:38Z</time>
      </trkpt>
      <trkpt lat="47.33422" lon="6.86857">
        <ele>447.4</ele>
        <time>2021-07-29T16:13:39Z</time>
      </trkpt>
      <trkpt lat="47.33426" lon="6.86857">
        <ele>447.2</ele>
        <time>2021-07-29T16:13:40Z</time>
      </trkpt>
      <trkpt lat="47.33431" lon="6.86858">
        <ele>447.2</ele>
        <time>2021-07-29T16:13:41Z</time>
      </trkpt>
      <trkpt lat="47.33436" lon="6.86859">
        <ele>447.2</ele>
        <time>2021-07-29T16:13:42Z</time>
      </trkpt>
      <trkpt lat="47.33441" lon="6.86859">
        <ele>447</ele>
        <time>2021-07-29T16:13:43Z</time>
      </trkpt>
      <trkpt lat="47.33446" lon="6.86859">
        <ele>447</ele>
        <time>2021-07-29T16:13:44Z</time>
      </trkpt>
      <trkpt lat="47.33451" lon="6.86859">
        <ele>447</ele>
        <time>2021-07-29T16:13:45Z</time>
      </trkpt>
      <trkpt lat="47.33457" lon="6.8686">
        <ele>446.8</ele>
        <time>2021-07-29T16:13:46Z</time>
      </trkpt>
      <trkpt lat="47.33463" lon="6.86861">
        <ele>446.8</ele>
        <time>2021-07-29T16:13:47Z</time>
      </trkpt>
      <trkpt lat="47.33468" lon="6.86862">
        <ele>446.8</ele>
        <time>2021-07-29T16:13:48Z</time>
      </trkpt>
      <trkpt lat="47.33474" lon="6.86862">
        <ele>446.6</ele>
        <time>2021-07-29T16:13:49Z</time>
      </trkpt>
      <trkpt lat="47.3348" lon="6.86864">
        <ele>446.6</ele>
        <time>2021-07-29T16:13:50Z</time>
      </trkpt>
      <trkpt lat="47.33485" lon="6.86866">
        <ele>446.6</ele>
        <time>2021-07-29T16:13:51Z</time>
      </trkpt>
      <trkpt lat="47.33491" lon="6.86868">
        <ele>446.6</ele>
        <time>2021-07-29T16:13:52Z</time>
      </trkpt>
      <trkpt lat="47.33496" lon="6.86871">
        <ele>446.6</ele>
        <time>2021-07-29T16:13:53Z</time>
      </trkpt>
      <trkpt lat="47.33501" lon="6.86875">
        <ele>446.6</ele>
        <time>2021-07-29T16:13:54Z</time>
      </trkpt>
      <trkpt lat="47.33506" lon="6.86879">
        <ele>446.4</ele>
        <time>2021-07-29T16:13:55Z</time>
      </trkpt>
      <trkpt lat="47.3351" lon="6.86884">
        <ele>446.6</ele>
        <time>2021-07-29T16:13:56Z</time>
      </trkpt>
      <trkpt lat="47.33515" lon="6.86888">
        <ele>446.6</ele>
        <time>2021-07-29T16:13:57Z</time>
      </trkpt>
      <trkpt lat="47.33519" lon="6.86893">
        <ele>446.6</ele>
        <time>2021-07-29T16:13:58Z</time>
      </trkpt>
      <trkpt lat="47.33523" lon="6.86898">
        <ele>446.6</ele>
        <time>2021-07-29T16:13:59Z</time>
      </trkpt>
      <trkpt lat="47.33527" lon="6.86903">
        <ele>446.8</ele>
        <time>2021-07-29T16:14:00Z</time>
      </trkpt>
      <trkpt lat="47.3353" lon="6.86908">
        <ele>446.6</ele>
        <time>2021-07-29T16:14:01Z</time>
      </trkpt>
      <trkpt lat="47.33534" lon="6.86913">
        <ele>446.8</ele>
        <time>2021-07-29T16:14:02Z</time>
      </trkpt>
      <trkpt lat="47.33537" lon="6.86918">
        <ele>446.8</ele>
        <time>2021-07-29T16:14:03Z</time>
      </trkpt>
      <trkpt lat="47.3354" lon="6.86923">
        <ele>446.6</ele>
        <time>2021-07-29T16:14:04Z</time>
      </trkpt>
      <trkpt lat="47.33543" lon="6.86928">
        <ele>446.8</ele>
        <time>2021-07-29T16:14:05Z</time>
      </trkpt>
      <trkpt lat="47.33546" lon="6.86933">
        <ele>446.8</ele>
        <time>2021-07-29T16:14:06Z</time>
      </trkpt>
      <trkpt lat="47.33549" lon="6.86939">
        <ele>446.8</ele>
        <time>2021-07-29T16:14:07Z</time>
      </trkpt>
      <trkpt lat="47.33552" lon="6.86944">
        <ele>446.8</ele>
        <time>2021-07-29T16:14:08Z</time>
      </trkpt>
      <trkpt lat="47.33555" lon="6.86949">
        <ele>446.8</ele>
        <time>2021-07-29T16:14:09Z</time>
      </trkpt>
      <trkpt lat="47.33558" lon="6.86954">
        <ele>446.8</ele>
        <time>2021-07-29T16:14:10Z</time>
      </trkpt>
      <trkpt lat="47.33561" lon="6.86959">
        <ele>446.8</ele>
        <time>2021-07-29T16:14:11Z</time>
      </trkpt>
      <trkpt lat="47.33564" lon="6.86964">
        <ele>446.8</ele>
        <time>2021-07-29T16:14:12Z</time>
      </trkpt>
      <trkpt lat="47.33567" lon="6.86969">
        <ele>447</ele>
        <time>2021-07-29T16:14:13Z</time>
      </trkpt>
      <trkpt lat="47.3357" lon="6.86974">
        <ele>446.8</ele>
        <time>2021-07-29T16:14:14Z</time>
      </trkpt>
      <trkpt lat="47.33573" lon="6.8698">
        <ele>446.8</ele>
        <time>2021-07-29T16:14:15Z</time>
      </trkpt>
      <trkpt lat="47.33576" lon="6.86985">
        <ele>446.8</ele>
        <time>2021-07-29T16:14:16Z</time>
      </trkpt>
      <trkpt lat="47.33579" lon="6.8699">
        <ele>446.8</ele>
        <time>2021-07-29T16:14:17Z</time>
      </trkpt>
      <trkpt lat="47.33582" lon="6.86995">
        <ele>447</ele>
        <time>2021-07-29T16:14:18Z</time>
      </trkpt>
      <trkpt lat="47.33586" lon="6.87001">
        <ele>446.8</ele>
        <time>2021-07-29T16:14:19Z</time>
      </trkpt>
      <trkpt lat="47.33589" lon="6.87006">
        <ele>446.8</ele>
        <time>2021-07-29T16:14:20Z</time>
      </trkpt>
      <trkpt lat="47.33592" lon="6.87011">
        <ele>447</ele>
        <time>2021-07-29T16:14:21Z</time>
      </trkpt>
      <trkpt lat="47.33595" lon="6.87016">
        <ele>447</ele>
        <time>2021-07-29T16:14:22Z</time>
      </trkpt>
      <trkpt lat="47.33598" lon="6.87021">
        <ele>447.2</ele>
        <time>2021-07-29T16:14:23Z</time>
      </trkpt>
      <trkpt lat="47.33601" lon="6.87027">
        <ele>447.2</ele>
        <time>2021-07-29T16:14:24Z</time>
      </trkpt>
      <trkpt lat="47.33604" lon="6.87032">
        <ele>447.2</ele>
        <time>2021-07-29T16:14:25Z</time>
      </trkpt>
      <trkpt lat="47.33607" lon="6.87036">
        <ele>447.2</ele>
        <time>2021-07-29T16:14:26Z</time>
      </trkpt>
      <trkpt lat="47.3361" lon="6.87041">
        <ele>447.2</ele>
        <time>2021-07-29T16:14:27Z</time>
      </trkpt>
      <trkpt lat="47.33613" lon="6.87046">
        <ele>447.2</ele>
        <time>2021-07-29T16:14:28Z</time>
      </trkpt>
      <trkpt lat="47.33616" lon="6.87051">
        <ele>447.4</ele>
        <time>2021-07-29T16:14:29Z</time>
      </trkpt>
      <trkpt lat="47.33618" lon="6.87056">
        <ele>447.4</ele>
        <time>2021-07-29T16:14:30Z</time>
      </trkpt>
      <trkpt lat="47.33621" lon="6.8706">
        <ele>447.4</ele>
        <time>2021-07-29T16:14:31Z</time>
      </trkpt>
      <trkpt lat="47.33624" lon="6.87065">
        <ele>447.6</ele>
        <time>2021-07-29T16:14:32Z</time>
      </trkpt>
      <trkpt lat="47.33627" lon="6.8707">
        <ele>447.6</ele>
        <time>2021-07-29T16:14:33Z</time>
      </trkpt>
      <trkpt lat="47.3363" lon="6.87074">
        <ele>447.6</ele>
        <time>2021-07-29T16:14:34Z</time>
      </trkpt>
      <trkpt lat="47.33633" lon="6.87079">
        <ele>447.6</ele>
        <time>2021-07-29T16:14:35Z</time>
      </trkpt>
      <trkpt lat="47.33636" lon="6.87083">
        <ele>447.8</ele>
        <time>2021-07-29T16:14:36Z</time>
      </trkpt>
      <trkpt lat="47.33638" lon="6.87088">
        <ele>447.8</ele>
        <time>2021-07-29T16:14:37Z</time>
      </trkpt>
      <trkpt lat="47.33641" lon="6.87093">
        <ele>447.8</ele>
        <time>2021-07-29T16:14:38Z</time>
      </trkpt>
      <trkpt lat="47.33644" lon="6.87098">
        <ele>448</ele>
        <time>2021-07-29T16:14:39Z</time>
      </trkpt>
      <trkpt lat="47.33647" lon="6.87102">
        <ele>448</ele>
        <time>2021-07-29T16:14:40Z</time>
      </trkpt>
      <trkpt lat="47.3365" lon="6.87107">
        <ele>448</ele>
        <time>2021-07-29T16:14:41Z</time>
      </trkpt>
      <trkpt lat="47.33653" lon="6.87111">
        <ele>448</ele>
        <time>2021-07-29T16:14:42Z</time>
      </trkpt>
      <trkpt lat="47.33657" lon="6.87116">
        <ele>448</ele>
        <time>2021-07-29T16:14:43Z</time>
      </trkpt>
      <trkpt lat="47.3366" lon="6.8712">
        <ele>448</ele>
        <time>2021-07-29T16:14:44Z</time>
      </trkpt>
      <trkpt lat="47.33663" lon="6.87125">
        <ele>448</ele>
        <time>2021-07-29T16:14:45Z</time>
      </trkpt>
      <trkpt lat="47.33666" lon="6.87129">
        <ele>448.2</ele>
        <time>2021-07-29T16:14:46Z</time>
      </trkpt>
      <trkpt lat="47.33669" lon="6.87134">
        <ele>448.2</ele>
        <time>2021-07-29T16:14:47Z</time>
      </trkpt>
      <trkpt lat="47.33673" lon="6.87138">
        <ele>448.2</ele>
        <time>2021-07-29T16:14:48Z</time>
      </trkpt>
      <trkpt lat="47.33676" lon="6.87142">
        <ele>448.2</ele>
        <time>2021-07-29T16:14:49Z</time>
      </trkpt>
      <trkpt lat="47.33679" lon="6.87146">
        <ele>448.2</ele>
        <time>2021-07-29T16:14:50Z</time>
      </trkpt>
      <trkpt lat="47.33682" lon="6.8715">
        <ele>448.2</ele>
        <time>2021-07-29T16:14:51Z</time>
      </trkpt>
      <trkpt lat="47.33686" lon="6.87154">
        <ele>448</ele>
        <time>2021-07-29T16:14:52Z</time>
      </trkpt>
      <trkpt lat="47.33689" lon="6.87158">
        <ele>448.2</ele>
        <time>2021-07-29T16:14:53Z</time>
      </trkpt>
      <trkpt lat="47.33692" lon="6.87162">
        <ele>448.2</ele>
        <time>2021-07-29T16:14:54Z</time>
      </trkpt>
      <trkpt lat="47.33696" lon="6.87167">
        <ele>448.2</ele>
        <time>2021-07-29T16:14:55Z</time>
      </trkpt>
      <trkpt lat="47.33699" lon="6.87171">
        <ele>448.2</ele>
        <time>2021-07-29T16:14:56Z</time>
      </trkpt>
      <trkpt lat="47.33702" lon="6.87175">
        <ele>448.2</ele>
        <time>2021-07-29T16:14:57Z</time>
      </trkpt>
      <trkpt lat="47.33705" lon="6.8718">
        <ele>448.2</ele>
        <time>2021-07-29T16:14:58Z</time>
      </trkpt>
      <trkpt lat="47.33709" lon="6.87184">
        <ele>448.2</ele>
        <time>2021-07-29T16:14:59Z</time>
      </trkpt>
      <trkpt lat="47.33712" lon="6.87188">
        <ele>448.2</ele>
        <time>2021-07-29T16:15:00Z</time>
      </trkpt>
      <trkpt lat="47.33715" lon="6.87193">
        <ele>448.4</ele>
        <time>2021-07-29T16:15:01Z</time>
      </trkpt>
      <trkpt lat="47.33718" lon="6.87197">
        <ele>448.4</ele>
        <time>2021-07-29T16:15:02Z</time>
      </trkpt>
      <trkpt lat="47.3372" lon="6.87202">
        <ele>448.2</ele>
        <time>2021-07-29T16:15:03Z</time>
      </trkpt>
      <trkpt lat="47.33723" lon="6.87207">
        <ele>448.2</ele>
        <time>2021-07-29T16:15:04Z</time>
      </trkpt>
      <trkpt lat="47.33726" lon="6.87213">
        <ele>448.2</ele>
        <time>2021-07-29T16:15:05Z</time>
      </trkpt>
      <trkpt lat="47.33728" lon="6.87219">
        <ele>448</ele>
        <time>2021-07-29T16:15:06Z</time>
      </trkpt>
      <trkpt lat="47.33731" lon="6.87225">
        <ele>448</ele>
        <time>2021-07-29T16:15:07Z</time>
      </trkpt>
      <trkpt lat="47.33733" lon="6.87231">
        <ele>448</ele>
        <time>2021-07-29T16:15:08Z</time>
      </trkpt>
      <trkpt lat="47.33735" lon="6.87237">
        <ele>448</ele>
        <time>2021-07-29T16:15:09Z</time>
      </trkpt>
      <trkpt lat="47.33737" lon="6.87244">
        <ele>448</ele>
        <time>2021-07-29T16:15:10Z</time>
      </trkpt>
      <trkpt lat="47.33739" lon="6.87251">
        <ele>448</ele>
        <time>2021-07-29T16:15:11Z</time>
      </trkpt>
      <trkpt lat="47.3374" lon="6.87258">
        <ele>447.8</ele>
        <time>2021-07-29T16:15:12Z</time>
      </trkpt>
      <trkpt lat="47.3374" lon="6.87265">
        <ele>447.8</ele>
        <time>2021-07-29T16:15:13Z</time>
      </trkpt>
      <trkpt lat="47.33741" lon="6.87272">
        <ele>447.8</ele>
        <time>2021-07-29T16:15:14Z</time>
      </trkpt>
      <trkpt lat="47.33741" lon="6.87279">
        <ele>447.8</ele>
        <time>2021-07-29T16:15:15Z</time>
      </trkpt>
      <trkpt lat="47.33741" lon="6.87287">
        <ele>447.8</ele>
        <time>2021-07-29T16:15:16Z</time>
      </trkpt>
      <trkpt lat="47.33741" lon="6.87295">
        <ele>447.8</ele>
        <time>2021-07-29T16:15:17Z</time>
      </trkpt>
      <trkpt lat="47.33741" lon="6.87302">
        <ele>447.8</ele>
        <time>2021-07-29T16:15:18Z</time>
      </trkpt>
      <trkpt lat="47.33741" lon="6.8731">
        <ele>447.8</ele>
        <time>2021-07-29T16:15:19Z</time>
      </trkpt>
      <trkpt lat="47.3374" lon="6.87317">
        <ele>447.8</ele>
        <time>2021-07-29T16:15:20Z</time>
      </trkpt>
      <trkpt lat="47.3374" lon="6.87324">
        <ele>447.6</ele>
        <time>2021-07-29T16:15:21Z</time>
      </trkpt>
      <trkpt lat="47.33739" lon="6.87332">
        <ele>447.6</ele>
        <time>2021-07-29T16:15:22Z</time>
      </trkpt>
      <trkpt lat="47.33739" lon="6.87339">
        <ele>447.6</ele>
        <time>2021-07-29T16:15:23Z</time>
      </trkpt>
      <trkpt lat="47.33739" lon="6.87347">
        <ele>447.6</ele>
        <time>2021-07-29T16:15:24Z</time>
      </trkpt>
      <trkpt lat="47.33739" lon="6.87354">
        <ele>447.6</ele>
        <time>2021-07-29T16:15:25Z</time>
      </trkpt>
      <trkpt lat="47.33739" lon="6.87361">
        <ele>447.6</ele>
        <time>2021-07-29T16:15:26Z</time>
      </trkpt>
      <trkpt lat="47.33739" lon="6.87369">
        <ele>447.8</ele>
        <time>2021-07-29T16:15:27Z</time>
      </trkpt>
      <trkpt lat="47.3374" lon="6.87377">
        <ele>447.8</ele>
        <time>2021-07-29T16:15:28Z</time>
      </trkpt>
      <trkpt lat="47.3374" lon="6.87384">
        <ele>447.6</ele>
        <time>2021-07-29T16:15:29Z</time>
      </trkpt>
      <trkpt lat="47.33741" lon="6.87391">
        <ele>447.6</ele>
        <time>2021-07-29T16:15:30Z</time>
      </trkpt>
      <trkpt lat="47.33742" lon="6.87398">
        <ele>447.6</ele>
        <time>2021-07-29T16:15:31Z</time>
      </trkpt>
      <trkpt lat="47.33743" lon="6.87406">
        <ele>447.6</ele>
        <time>2021-07-29T16:15:32Z</time>
      </trkpt>
      <trkpt lat="47.33744" lon="6.87413">
        <ele>447.6</ele>
        <time>2021-07-29T16:15:33Z</time>
      </trkpt>
      <trkpt lat="47.33746" lon="6.8742">
        <ele>447.6</ele>
        <time>2021-07-29T16:15:34Z</time>
      </trkpt>
      <trkpt lat="47.33748" lon="6.87427">
        <ele>447.6</ele>
        <time>2021-07-29T16:15:35Z</time>
      </trkpt>
      <trkpt lat="47.3375" lon="6.87434">
        <ele>447.6</ele>
        <time>2021-07-29T16:15:36Z</time>
      </trkpt>
      <trkpt lat="47.33752" lon="6.87441">
        <ele>447.6</ele>
        <time>2021-07-29T16:15:37Z</time>
      </trkpt>
      <trkpt lat="47.33754" lon="6.87448">
        <ele>447.6</ele>
        <time>2021-07-29T16:15:38Z</time>
      </trkpt>
      <trkpt lat="47.33757" lon="6.87455">
        <ele>447.4</ele>
        <time>2021-07-29T16:15:39Z</time>
      </trkpt>
      <trkpt lat="47.3376" lon="6.87462">
        <ele>447.4</ele>
        <time>2021-07-29T16:15:40Z</time>
      </trkpt>
      <trkpt lat="47.33763" lon="6.87468">
        <ele>447.4</ele>
        <time>2021-07-29T16:15:41Z</time>
      </trkpt>
      <trkpt lat="47.33766" lon="6.87474">
        <ele>447.4</ele>
        <time>2021-07-29T16:15:42Z</time>
      </trkpt>
      <trkpt lat="47.33769" lon="6.8748">
        <ele>447.4</ele>
        <time>2021-07-29T16:15:43Z</time>
      </trkpt>
      <trkpt lat="47.33772" lon="6.87487">
        <ele>447.4</ele>
        <time>2021-07-29T16:15:44Z</time>
      </trkpt>
      <trkpt lat="47.33775" lon="6.87493">
        <ele>447.6</ele>
        <time>2021-07-29T16:15:45Z</time>
      </trkpt>
      <trkpt lat="47.33778" lon="6.87499">
        <ele>447.6</ele>
        <time>2021-07-29T16:15:46Z</time>
      </trkpt>
      <trkpt lat="47.33781" lon="6.87506">
        <ele>447.6</ele>
        <time>2021-07-29T16:15:47Z</time>
      </trkpt>
      <trkpt lat="47.33784" lon="6.87512">
        <ele>447.6</ele>
        <time>2021-07-29T16:15:48Z</time>
      </trkpt>
      <trkpt lat="47.33787" lon="6.87518">
        <ele>447.6</ele>
        <time>2021-07-29T16:15:49Z</time>
      </trkpt>
      <trkpt lat="47.3379" lon="6.87524">
        <ele>447.6</ele>
        <time>2021-07-29T16:15:50Z</time>
      </trkpt>
      <trkpt lat="47.33793" lon="6.87531">
        <ele>447.6</ele>
        <time>2021-07-29T16:15:51Z</time>
      </trkpt>
      <trkpt lat="47.33796" lon="6.87537">
        <ele>447.6</ele>
        <time>2021-07-29T16:15:52Z</time>
      </trkpt>
      <trkpt lat="47.33799" lon="6.87543">
        <ele>447.6</ele>
        <time>2021-07-29T16:15:53Z</time>
      </trkpt>
      <trkpt lat="47.33802" lon="6.87549">
        <ele>447.8</ele>
        <time>2021-07-29T16:15:54Z</time>
      </trkpt>
      <trkpt lat="47.33805" lon="6.87555">
        <ele>447.8</ele>
        <time>2021-07-29T16:15:55Z</time>
      </trkpt>
      <trkpt lat="47.33808" lon="6.87561">
        <ele>447.8</ele>
        <time>2021-07-29T16:15:56Z</time>
      </trkpt>
      <trkpt lat="47.33811" lon="6.87567">
        <ele>447.8</ele>
        <time>2021-07-29T16:15:57Z</time>
      </trkpt>
      <trkpt lat="47.33814" lon="6.87573">
        <ele>447.8</ele>
        <time>2021-07-29T16:15:58Z</time>
      </trkpt>
      <trkpt lat="47.33817" lon="6.87579">
        <ele>447.6</ele>
        <time>2021-07-29T16:15:59Z</time>
      </trkpt>
      <trkpt lat="47.33821" lon="6.87585">
        <ele>447.6</ele>
        <time>2021-07-29T16:16:00Z</time>
      </trkpt>
      <trkpt lat="47.33824" lon="6.87592">
        <ele>447.6</ele>
        <time>2021-07-29T16:16:01Z</time>
      </trkpt>
      <trkpt lat="47.33828" lon="6.87598">
        <ele>447.4</ele>
        <time>2021-07-29T16:16:02Z</time>
      </trkpt>
      <trkpt lat="47.33831" lon="6.87604">
        <ele>447.4</ele>
        <time>2021-07-29T16:16:03Z</time>
      </trkpt>
      <trkpt lat="47.33835" lon="6.87611">
        <ele>447.2</ele>
        <time>2021-07-29T16:16:04Z</time>
      </trkpt>
      <trkpt lat="47.33838" lon="6.87618">
        <ele>447.2</ele>
        <time>2021-07-29T16:16:05Z</time>
      </trkpt>
      <trkpt lat="47.33842" lon="6.87625">
        <ele>447</ele>
        <time>2021-07-29T16:16:06Z</time>
      </trkpt>
      <trkpt lat="47.33846" lon="6.87632">
        <ele>447</ele>
        <time>2021-07-29T16:16:07Z</time>
      </trkpt>
      <trkpt lat="47.3385" lon="6.87639">
        <ele>446.6</ele>
        <time>2021-07-29T16:16:08Z</time>
      </trkpt>
      <trkpt lat="47.33854" lon="6.87646">
        <ele>446.4</ele>
        <time>2021-07-29T16:16:09Z</time>
      </trkpt>
      <trkpt lat="47.33858" lon="6.87654">
        <ele>446.2</ele>
        <time>2021-07-29T16:16:10Z</time>
      </trkpt>
      <trkpt lat="47.33862" lon="6.87662">
        <ele>446</ele>
        <time>2021-07-29T16:16:11Z</time>
      </trkpt>
      <trkpt lat="47.33867" lon="6.87669">
        <ele>445.8</ele>
        <time>2021-07-29T16:16:12Z</time>
      </trkpt>
      <trkpt lat="47.33871" lon="6.87678">
        <ele>445.8</ele>
        <time>2021-07-29T16:16:13Z</time>
      </trkpt>
      <trkpt lat="47.33876" lon="6.87685">
        <ele>445.6</ele>
        <time>2021-07-29T16:16:14Z</time>
      </trkpt>
      <trkpt lat="47.3388" lon="6.87693">
        <ele>445.6</ele>
        <time>2021-07-29T16:16:15Z</time>
      </trkpt>
      <trkpt lat="47.33884" lon="6.87701">
        <ele>445.6</ele>
        <time>2021-07-29T16:16:16Z</time>
      </trkpt>
      <trkpt lat="47.33889" lon="6.87708">
        <ele>445.6</ele>
        <time>2021-07-29T16:16:17Z</time>
      </trkpt>
      <trkpt lat="47.33894" lon="6.87715">
        <ele>445.6</ele>
        <time>2021-07-29T16:16:18Z</time>
      </trkpt>
      <trkpt lat="47.33898" lon="6.87722">
        <ele>445.4</ele>
        <time>2021-07-29T16:16:19Z</time>
      </trkpt>
      <trkpt lat="47.33903" lon="6.8773">
        <ele>445.4</ele>
        <time>2021-07-29T16:16:20Z</time>
      </trkpt>
      <trkpt lat="47.33907" lon="6.87737">
        <ele>445.2</ele>
        <time>2021-07-29T16:16:21Z</time>
      </trkpt>
      <trkpt lat="47.33912" lon="6.87743">
        <ele>445</ele>
        <time>2021-07-29T16:16:22Z</time>
      </trkpt>
      <trkpt lat="47.33917" lon="6.8775">
        <ele>444.8</ele>
        <time>2021-07-29T16:16:23Z</time>
      </trkpt>
      <trkpt lat="47.33922" lon="6.87756">
        <ele>444.8</ele>
        <time>2021-07-29T16:16:24Z</time>
      </trkpt>
      <trkpt lat="47.33926" lon="6.87763">
        <ele>444.8</ele>
        <time>2021-07-29T16:16:25Z</time>
      </trkpt>
      <trkpt lat="47.33931" lon="6.8777">
        <ele>444.8</ele>
        <time>2021-07-29T16:16:26Z</time>
      </trkpt>
      <trkpt lat="47.33935" lon="6.87777">
        <ele>444.8</ele>
        <time>2021-07-29T16:16:27Z</time>
      </trkpt>
      <trkpt lat="47.33939" lon="6.87784">
        <ele>444.8</ele>
        <time>2021-07-29T16:16:28Z</time>
      </trkpt>
      <trkpt lat="47.33944" lon="6.87791">
        <ele>444.8</ele>
        <time>2021-07-29T16:16:29Z</time>
      </trkpt>
      <trkpt lat="47.33948" lon="6.87798">
        <ele>444.8</ele>
        <time>2021-07-29T16:16:30Z</time>
      </trkpt>
      <trkpt lat="47.33952" lon="6.87804">
        <ele>444.8</ele>
        <time>2021-07-29T16:16:31Z</time>
      </trkpt>
      <trkpt lat="47.33956" lon="6.8781">
        <ele>444.8</ele>
        <time>2021-07-29T16:16:32Z</time>
      </trkpt>
      <trkpt lat="47.3396" lon="6.87817">
        <ele>445</ele>
        <time>2021-07-29T16:16:33Z</time>
      </trkpt>
      <trkpt lat="47.33964" lon="6.87824">
        <ele>445</ele>
        <time>2021-07-29T16:16:34Z</time>
      </trkpt>
      <trkpt lat="47.33968" lon="6.87831">
        <ele>445</ele>
        <time>2021-07-29T16:16:35Z</time>
      </trkpt>
      <trkpt lat="47.33971" lon="6.87838">
        <ele>445</ele>
        <time>2021-07-29T16:16:36Z</time>
      </trkpt>
      <trkpt lat="47.33974" lon="6.87845">
        <ele>445</ele>
        <time>2021-07-29T16:16:37Z</time>
      </trkpt>
      <trkpt lat="47.33978" lon="6.87851">
        <ele>445.2</ele>
        <time>2021-07-29T16:16:38Z</time>
      </trkpt>
      <trkpt lat="47.33981" lon="6.87858">
        <ele>445.2</ele>
        <time>2021-07-29T16:16:39Z</time>
      </trkpt>
      <trkpt lat="47.33985" lon="6.87865">
        <ele>445.2</ele>
        <time>2021-07-29T16:16:40Z</time>
      </trkpt>
      <trkpt lat="47.33988" lon="6.87871">
        <ele>445.2</ele>
        <time>2021-07-29T16:16:41Z</time>
      </trkpt>
      <trkpt lat="47.33992" lon="6.87878">
        <ele>445.4</ele>
        <time>2021-07-29T16:16:42Z</time>
      </trkpt>
      <trkpt lat="47.33995" lon="6.87884">
        <ele>445.4</ele>
        <time>2021-07-29T16:16:43Z</time>
      </trkpt>
      <trkpt lat="47.33999" lon="6.87891">
        <ele>445.4</ele>
        <time>2021-07-29T16:16:44Z</time>
      </trkpt>
      <trkpt lat="47.34002" lon="6.87897">
        <ele>445.4</ele>
        <time>2021-07-29T16:16:45Z</time>
      </trkpt>
      <trkpt lat="47.34005" lon="6.87903">
        <ele>445.4</ele>
        <time>2021-07-29T16:16:46Z</time>
      </trkpt>
      <trkpt lat="47.34009" lon="6.8791">
        <ele>445.4</ele>
        <time>2021-07-29T16:16:47Z</time>
      </trkpt>
      <trkpt lat="47.34012" lon="6.87916">
        <ele>445.4</ele>
        <time>2021-07-29T16:16:48Z</time>
      </trkpt>
      <trkpt lat="47.34015" lon="6.87922">
        <ele>445.4</ele>
        <time>2021-07-29T16:16:49Z</time>
      </trkpt>
      <trkpt lat="47.34019" lon="6.87929">
        <ele>445.4</ele>
        <time>2021-07-29T16:16:50Z</time>
      </trkpt>
      <trkpt lat="47.34022" lon="6.87935">
        <ele>445.2</ele>
        <time>2021-07-29T16:16:51Z</time>
      </trkpt>
      <trkpt lat="47.34025" lon="6.87941">
        <ele>445.2</ele>
        <time>2021-07-29T16:16:52Z</time>
      </trkpt>
      <trkpt lat="47.34029" lon="6.87947">
        <ele>445.2</ele>
        <time>2021-07-29T16:16:53Z</time>
      </trkpt>
      <trkpt lat="47.34032" lon="6.87952">
        <ele>445.2</ele>
        <time>2021-07-29T16:16:54Z</time>
      </trkpt>
      <trkpt lat="47.34036" lon="6.87958">
        <ele>445.2</ele>
        <time>2021-07-29T16:16:55Z</time>
      </trkpt>
      <trkpt lat="47.34039" lon="6.87964">
        <ele>445.2</ele>
        <time>2021-07-29T16:16:56Z</time>
      </trkpt>
      <trkpt lat="47.34043" lon="6.8797">
        <ele>445.2</ele>
        <time>2021-07-29T16:16:57Z</time>
      </trkpt>
      <trkpt lat="47.34047" lon="6.87975">
        <ele>445.2</ele>
        <time>2021-07-29T16:16:58Z</time>
      </trkpt>
      <trkpt lat="47.3405" lon="6.87981">
        <ele>445.2</ele>
        <time>2021-07-29T16:16:59Z</time>
      </trkpt>
      <trkpt lat="47.34053" lon="6.87987">
        <ele>445.2</ele>
        <time>2021-07-29T16:17:00Z</time>
      </trkpt>
      <trkpt lat="47.34057" lon="6.87993">
        <ele>445.2</ele>
        <time>2021-07-29T16:17:01Z</time>
      </trkpt>
      <trkpt lat="47.34061" lon="6.87999">
        <ele>445</ele>
        <time>2021-07-29T16:17:02Z</time>
      </trkpt>
      <trkpt lat="47.34064" lon="6.88005">
        <ele>445</ele>
        <time>2021-07-29T16:17:03Z</time>
      </trkpt>
      <trkpt lat="47.34068" lon="6.88011">
        <ele>445</ele>
        <time>2021-07-29T16:17:04Z</time>
      </trkpt>
      <trkpt lat="47.34071" lon="6.88017">
        <ele>445</ele>
        <time>2021-07-29T16:17:05Z</time>
      </trkpt>
      <trkpt lat="47.34074" lon="6.88023">
        <ele>445</ele>
        <time>2021-07-29T16:17:06Z</time>
      </trkpt>
      <trkpt lat="47.34078" lon="6.88029">
        <ele>445</ele>
        <time>2021-07-29T16:17:07Z</time>
      </trkpt>
      <trkpt lat="47.34082" lon="6.88035">
        <ele>445</ele>
        <time>2021-07-29T16:17:08Z</time>
      </trkpt>
      <trkpt lat="47.34086" lon="6.8804">
        <ele>445</ele>
        <time>2021-07-29T16:17:09Z</time>
      </trkpt>
      <trkpt lat="47.3409" lon="6.88046">
        <ele>445</ele>
        <time>2021-07-29T16:17:10Z</time>
      </trkpt>
      <trkpt lat="47.34094" lon="6.88052">
        <ele>445</ele>
        <time>2021-07-29T16:17:11Z</time>
      </trkpt>
      <trkpt lat="47.34097" lon="6.88058">
        <ele>445</ele>
        <time>2021-07-29T16:17:12Z</time>
      </trkpt>
      <trkpt lat="47.34101" lon="6.88064">
        <ele>445</ele>
        <time>2021-07-29T16:17:13Z</time>
      </trkpt>
      <trkpt lat="47.34105" lon="6.8807">
        <ele>445</ele>
        <time>2021-07-29T16:17:14Z</time>
      </trkpt>
      <trkpt lat="47.34108" lon="6.88076">
        <ele>445</ele>
        <time>2021-07-29T16:17:15Z</time>
      </trkpt>
      <trkpt lat="47.34113" lon="6.88082">
        <ele>445</ele>
        <time>2021-07-29T16:17:16Z</time>
      </trkpt>
      <trkpt lat="47.34116" lon="6.88088">
        <ele>445</ele>
        <time>2021-07-29T16:17:17Z</time>
      </trkpt>
      <trkpt lat="47.3412" lon="6.88094">
        <ele>445</ele>
        <time>2021-07-29T16:17:18Z</time>
      </trkpt>
      <trkpt lat="47.34124" lon="6.88099">
        <ele>445</ele>
        <time>2021-07-29T16:17:19Z</time>
      </trkpt>
      <trkpt lat="47.34127" lon="6.88105">
        <ele>445.2</ele>
        <time>2021-07-29T16:17:20Z</time>
      </trkpt>
      <trkpt lat="47.3413" lon="6.8811">
        <ele>445.2</ele>
        <time>2021-07-29T16:17:21Z</time>
      </trkpt>
      <trkpt lat="47.34133" lon="6.88116">
        <ele>445.2</ele>
        <time>2021-07-29T16:17:22Z</time>
      </trkpt>
      <trkpt lat="47.34137" lon="6.88121">
        <ele>445.2</ele>
        <time>2021-07-29T16:17:23Z</time>
      </trkpt>
      <trkpt lat="47.3414" lon="6.88128">
        <ele>445.4</ele>
        <time>2021-07-29T16:17:24Z</time>
      </trkpt>
      <trkpt lat="47.34143" lon="6.88133">
        <ele>445.6</ele>
        <time>2021-07-29T16:17:25Z</time>
      </trkpt>
      <trkpt lat="47.34146" lon="6.88138">
        <ele>445.6</ele>
        <time>2021-07-29T16:17:26Z</time>
      </trkpt>
      <trkpt lat="47.34149" lon="6.88143">
        <ele>445.8</ele>
        <time>2021-07-29T16:17:27Z</time>
      </trkpt>
      <trkpt lat="47.34152" lon="6.88148">
        <ele>446</ele>
        <time>2021-07-29T16:17:28Z</time>
      </trkpt>
      <trkpt lat="47.34154" lon="6.88153">
        <ele>446</ele>
        <time>2021-07-29T16:17:29Z</time>
      </trkpt>
      <trkpt lat="47.34157" lon="6.88156">
        <ele>446.2</ele>
        <time>2021-07-29T16:17:30Z</time>
      </trkpt>
      <trkpt lat="47.34159" lon="6.8816">
        <ele>446.4</ele>
        <time>2021-07-29T16:17:31Z</time>
      </trkpt>
      <trkpt lat="47.34162" lon="6.88164">
        <ele>446.6</ele>
        <time>2021-07-29T16:17:32Z</time>
      </trkpt>
      <trkpt lat="47.34165" lon="6.88168">
        <ele>446.6</ele>
        <time>2021-07-29T16:17:33Z</time>
      </trkpt>
      <trkpt lat="47.34167" lon="6.88172">
        <ele>446.8</ele>
        <time>2021-07-29T16:17:34Z</time>
      </trkpt>
      <trkpt lat="47.3417" lon="6.88175">
        <ele>446.8</ele>
        <time>2021-07-29T16:17:35Z</time>
      </trkpt>
      <trkpt lat="47.34173" lon="6.88178">
        <ele>447</ele>
        <time>2021-07-29T16:17:36Z</time>
      </trkpt>
      <trkpt lat="47.34175" lon="6.88181">
        <ele>447</ele>
        <time>2021-07-29T16:17:37Z</time>
      </trkpt>
      <trkpt lat="47.34178" lon="6.88184">
        <ele>447.2</ele>
        <time>2021-07-29T16:17:38Z</time>
      </trkpt>
      <trkpt lat="47.3418" lon="6.88188">
        <ele>447.4</ele>
        <time>2021-07-29T16:17:39Z</time>
      </trkpt>
      <trkpt lat="47.34181" lon="6.88192">
        <ele>447.4</ele>
        <time>2021-07-29T16:17:40Z</time>
      </trkpt>
      <trkpt lat="47.34184" lon="6.88197">
        <ele>447.4</ele>
        <time>2021-07-29T16:17:41Z</time>
      </trkpt>
      <trkpt lat="47.34186" lon="6.88202">
        <ele>447.6</ele>
        <time>2021-07-29T16:17:42Z</time>
      </trkpt>
      <trkpt lat="47.34189" lon="6.88206">
        <ele>447.8</ele>
        <time>2021-07-29T16:17:43Z</time>
      </trkpt>
      <trkpt lat="47.34191" lon="6.8821">
        <ele>447.8</ele>
        <time>2021-07-29T16:17:44Z</time>
      </trkpt>
      <trkpt lat="47.34194" lon="6.88214">
        <ele>447.8</ele>
        <time>2021-07-29T16:17:45Z</time>
      </trkpt>
      <trkpt lat="47.34196" lon="6.88218">
        <ele>448</ele>
        <time>2021-07-29T16:17:46Z</time>
      </trkpt>
      <trkpt lat="47.34199" lon="6.88222">
        <ele>448</ele>
        <time>2021-07-29T16:17:47Z</time>
      </trkpt>
      <trkpt lat="47.34202" lon="6.88227">
        <ele>448.2</ele>
        <time>2021-07-29T16:17:48Z</time>
      </trkpt>
      <trkpt lat="47.34205" lon="6.88231">
        <ele>448.2</ele>
        <time>2021-07-29T16:17:49Z</time>
      </trkpt>
      <trkpt lat="47.34207" lon="6.88234">
        <ele>448.4</ele>
        <time>2021-07-29T16:17:50Z</time>
      </trkpt>
      <trkpt lat="47.3421" lon="6.88238">
        <ele>448.4</ele>
        <time>2021-07-29T16:17:51Z</time>
      </trkpt>
      <trkpt lat="47.34213" lon="6.88242">
        <ele>448.6</ele>
        <time>2021-07-29T16:17:52Z</time>
      </trkpt>
      <trkpt lat="47.34215" lon="6.88246">
        <ele>448.6</ele>
        <time>2021-07-29T16:17:53Z</time>
      </trkpt>
      <trkpt lat="47.34217" lon="6.8825">
        <ele>448.6</ele>
        <time>2021-07-29T16:17:54Z</time>
      </trkpt>
      <trkpt lat="47.34219" lon="6.88254">
        <ele>448.6</ele>
        <time>2021-07-29T16:17:55Z</time>
      </trkpt>
      <trkpt lat="47.34222" lon="6.88257">
        <ele>448.6</ele>
        <time>2021-07-29T16:17:56Z</time>
      </trkpt>
      <trkpt lat="47.34225" lon="6.88261">
        <ele>448.8</ele>
        <time>2021-07-29T16:17:57Z</time>
      </trkpt>
      <trkpt lat="47.34228" lon="6.88265">
        <ele>448.8</ele>
        <time>2021-07-29T16:17:58Z</time>
      </trkpt>
      <trkpt lat="47.3423" lon="6.88268">
        <ele>449</ele>
        <time>2021-07-29T16:17:59Z</time>
      </trkpt>
      <trkpt lat="47.34232" lon="6.88272">
        <ele>449</ele>
        <time>2021-07-29T16:18:00Z</time>
      </trkpt>
      <trkpt lat="47.34235" lon="6.88275">
        <ele>449</ele>
        <time>2021-07-29T16:18:01Z</time>
      </trkpt>
      <trkpt lat="47.34237" lon="6.88279">
        <ele>449.2</ele>
        <time>2021-07-29T16:18:02Z</time>
      </trkpt>
      <trkpt lat="47.34239" lon="6.88283">
        <ele>449.4</ele>
        <time>2021-07-29T16:18:03Z</time>
      </trkpt>
      <trkpt lat="47.34242" lon="6.88287">
        <ele>449.4</ele>
        <time>2021-07-29T16:18:04Z</time>
      </trkpt>
      <trkpt lat="47.34244" lon="6.88291">
        <ele>449.4</ele>
        <time>2021-07-29T16:18:05Z</time>
      </trkpt>
      <trkpt lat="47.34246" lon="6.88295">
        <ele>449.6</ele>
        <time>2021-07-29T16:18:06Z</time>
      </trkpt>
      <trkpt lat="47.34248" lon="6.88299">
        <ele>449.6</ele>
        <time>2021-07-29T16:18:07Z</time>
      </trkpt>
      <trkpt lat="47.3425" lon="6.88304">
        <ele>449.8</ele>
        <time>2021-07-29T16:18:08Z</time>
      </trkpt>
      <trkpt lat="47.34252" lon="6.88308">
        <ele>449.8</ele>
        <time>2021-07-29T16:18:09Z</time>
      </trkpt>
      <trkpt lat="47.34253" lon="6.88312">
        <ele>450</ele>
        <time>2021-07-29T16:18:10Z</time>
      </trkpt>
      <trkpt lat="47.34255" lon="6.88316">
        <ele>450</ele>
        <time>2021-07-29T16:18:11Z</time>
      </trkpt>
      <trkpt lat="47.34257" lon="6.88321">
        <ele>450.2</ele>
        <time>2021-07-29T16:18:12Z</time>
      </trkpt>
      <trkpt lat="47.34259" lon="6.88325">
        <ele>450.2</ele>
        <time>2021-07-29T16:18:13Z</time>
      </trkpt>
      <trkpt lat="47.3426" lon="6.88328">
        <ele>450.4</ele>
        <time>2021-07-29T16:18:14Z</time>
      </trkpt>
      <trkpt lat="47.34262" lon="6.88332">
        <ele>450.4</ele>
        <time>2021-07-29T16:18:15Z</time>
      </trkpt>
      <trkpt lat="47.34263" lon="6.88336">
        <ele>450.6</ele>
        <time>2021-07-29T16:18:16Z</time>
      </trkpt>
      <trkpt lat="47.34264" lon="6.8834">
        <ele>450.6</ele>
        <time>2021-07-29T16:18:17Z</time>
      </trkpt>
      <trkpt lat="47.34266" lon="6.88344">
        <ele>450.8</ele>
        <time>2021-07-29T16:18:18Z</time>
      </trkpt>
      <trkpt lat="47.34267" lon="6.88348">
        <ele>450.8</ele>
        <time>2021-07-29T16:18:19Z</time>
      </trkpt>
      <trkpt lat="47.34268" lon="6.88352">
        <ele>450.8</ele>
        <time>2021-07-29T16:18:20Z</time>
      </trkpt>
      <trkpt lat="47.3427" lon="6.88356">
        <ele>451</ele>
        <time>2021-07-29T16:18:21Z</time>
      </trkpt>
      <trkpt lat="47.34272" lon="6.8836">
        <ele>451</ele>
        <time>2021-07-29T16:18:22Z</time>
      </trkpt>
      <trkpt lat="47.34273" lon="6.88364">
        <ele>451</ele>
        <time>2021-07-29T16:18:23Z</time>
      </trkpt>
      <trkpt lat="47.34275" lon="6.88367">
        <ele>451.2</ele>
        <time>2021-07-29T16:18:24Z</time>
      </trkpt>
      <trkpt lat="47.34277" lon="6.88371">
        <ele>451.4</ele>
        <time>2021-07-29T16:18:25Z</time>
      </trkpt>
      <trkpt lat="47.34278" lon="6.88374">
        <ele>451.4</ele>
        <time>2021-07-29T16:18:26Z</time>
      </trkpt>
      <trkpt lat="47.3428" lon="6.88378">
        <ele>451.6</ele>
        <time>2021-07-29T16:18:27Z</time>
      </trkpt>
      <trkpt lat="47.34281" lon="6.88382">
        <ele>451.6</ele>
        <time>2021-07-29T16:18:28Z</time>
      </trkpt>
      <trkpt lat="47.34283" lon="6.88386">
        <ele>451.8</ele>
        <time>2021-07-29T16:18:29Z</time>
      </trkpt>
      <trkpt lat="47.34285" lon="6.88389">
        <ele>451.8</ele>
        <time>2021-07-29T16:18:30Z</time>
      </trkpt>
      <trkpt lat="47.34286" lon="6.88394">
        <ele>452</ele>
        <time>2021-07-29T16:18:31Z</time>
      </trkpt>
      <trkpt lat="47.34287" lon="6.88398">
        <ele>452</ele>
        <time>2021-07-29T16:18:32Z</time>
      </trkpt>
      <trkpt lat="47.34289" lon="6.88401">
        <ele>452.2</ele>
        <time>2021-07-29T16:18:33Z</time>
      </trkpt>
      <trkpt lat="47.34291" lon="6.88405">
        <ele>452.2</ele>
        <time>2021-07-29T16:18:34Z</time>
      </trkpt>
      <trkpt lat="47.34292" lon="6.88408">
        <ele>452.4</ele>
        <time>2021-07-29T16:18:35Z</time>
      </trkpt>
      <trkpt lat="47.34294" lon="6.88412">
        <ele>452.4</ele>
        <time>2021-07-29T16:18:36Z</time>
      </trkpt>
      <trkpt lat="47.34295" lon="6.88416">
        <ele>452.6</ele>
        <time>2021-07-29T16:18:37Z</time>
      </trkpt>
      <trkpt lat="47.34297" lon="6.8842">
        <ele>452.6</ele>
        <time>2021-07-29T16:18:38Z</time>
      </trkpt>
      <trkpt lat="47.34299" lon="6.88424">
        <ele>452.8</ele>
        <time>2021-07-29T16:18:39Z</time>
      </trkpt>
      <trkpt lat="47.343" lon="6.88427">
        <ele>452.8</ele>
        <time>2021-07-29T16:18:40Z</time>
      </trkpt>
      <trkpt lat="47.34302" lon="6.88431">
        <ele>453</ele>
        <time>2021-07-29T16:18:41Z</time>
      </trkpt>
      <trkpt lat="47.34303" lon="6.88434">
        <ele>453</ele>
        <time>2021-07-29T16:18:42Z</time>
      </trkpt>
      <trkpt lat="47.34303" lon="6.88437">
        <ele>453.2</ele>
        <time>2021-07-29T16:18:43Z</time>
      </trkpt>
      <trkpt lat="47.34305" lon="6.88441">
        <ele>453.2</ele>
        <time>2021-07-29T16:18:44Z</time>
      </trkpt>
      <trkpt lat="47.34306" lon="6.88444">
        <ele>453.4</ele>
        <time>2021-07-29T16:18:45Z</time>
      </trkpt>
      <trkpt lat="47.34307" lon="6.88446">
        <ele>453.6</ele>
        <time>2021-07-29T16:18:46Z</time>
      </trkpt>
      <trkpt lat="47.34309" lon="6.88449">
        <ele>453.6</ele>
        <time>2021-07-29T16:18:47Z</time>
      </trkpt>
      <trkpt lat="47.34311" lon="6.88451">
        <ele>453.6</ele>
        <time>2021-07-29T16:18:48Z</time>
      </trkpt>
      <trkpt lat="47.34313" lon="6.88454">
        <ele>453.8</ele>
        <time>2021-07-29T16:18:49Z</time>
      </trkpt>
      <trkpt lat="47.34314" lon="6.88458">
        <ele>453.8</ele>
        <time>2021-07-29T16:18:50Z</time>
      </trkpt>
      <trkpt lat="47.34316" lon="6.88462">
        <ele>454</ele>
        <time>2021-07-29T16:18:51Z</time>
      </trkpt>
      <trkpt lat="47.34317" lon="6.88465">
        <ele>454</ele>
        <time>2021-07-29T16:18:52Z</time>
      </trkpt>
      <trkpt lat="47.34319" lon="6.88468">
        <ele>454.2</ele>
        <time>2021-07-29T16:18:53Z</time>
      </trkpt>
      <trkpt lat="47.34319" lon="6.88471">
        <ele>454.4</ele>
        <time>2021-07-29T16:18:54Z</time>
      </trkpt>
      <trkpt lat="47.34319" lon="6.88474">
        <ele>454.4</ele>
        <time>2021-07-29T16:18:55Z</time>
      </trkpt>
      <trkpt lat="47.34321" lon="6.88478">
        <ele>454.6</ele>
        <time>2021-07-29T16:18:56Z</time>
      </trkpt>
      <trkpt lat="47.34322" lon="6.88481">
        <ele>454.8</ele>
        <time>2021-07-29T16:18:57Z</time>
      </trkpt>
      <trkpt lat="47.34323" lon="6.88485">
        <ele>454.8</ele>
        <time>2021-07-29T16:18:58Z</time>
      </trkpt>
      <trkpt lat="47.34325" lon="6.88489">
        <ele>455</ele>
        <time>2021-07-29T16:18:59Z</time>
      </trkpt>
      <trkpt lat="47.34326" lon="6.88494">
        <ele>455</ele>
        <time>2021-07-29T16:19:00Z</time>
      </trkpt>
      <trkpt lat="47.34326" lon="6.88499">
        <ele>455</ele>
        <time>2021-07-29T16:19:01Z</time>
      </trkpt>
      <trkpt lat="47.34327" lon="6.88504">
        <ele>455.2</ele>
        <time>2021-07-29T16:19:02Z</time>
      </trkpt>
      <trkpt lat="47.34328" lon="6.88509">
        <ele>455.4</ele>
        <time>2021-07-29T16:19:03Z</time>
      </trkpt>
      <trkpt lat="47.34328" lon="6.88514">
        <ele>455.4</ele>
        <time>2021-07-29T16:19:04Z</time>
      </trkpt>
      <trkpt lat="47.34329" lon="6.88519">
        <ele>455.6</ele>
        <time>2021-07-29T16:19:05Z</time>
      </trkpt>
      <trkpt lat="47.34329" lon="6.88524">
        <ele>455.8</ele>
        <time>2021-07-29T16:19:06Z</time>
      </trkpt>
      <trkpt lat="47.3433" lon="6.88529">
        <ele>455.8</ele>
        <time>2021-07-29T16:19:07Z</time>
      </trkpt>
      <trkpt lat="47.3433" lon="6.88533">
        <ele>455.8</ele>
        <time>2021-07-29T16:19:08Z</time>
      </trkpt>
      <trkpt lat="47.34332" lon="6.88538">
        <ele>455.8</ele>
        <time>2021-07-29T16:19:09Z</time>
      </trkpt>
      <trkpt lat="47.34332" lon="6.88543">
        <ele>455.8</ele>
        <time>2021-07-29T16:19:10Z</time>
      </trkpt>
      <trkpt lat="47.34334" lon="6.88548">
        <ele>455.8</ele>
        <time>2021-07-29T16:19:11Z</time>
      </trkpt>
      <trkpt lat="47.34334" lon="6.88553">
        <ele>456</ele>
        <time>2021-07-29T16:19:12Z</time>
      </trkpt>
      <trkpt lat="47.34335" lon="6.88558">
        <ele>456</ele>
        <time>2021-07-29T16:19:13Z</time>
      </trkpt>
      <trkpt lat="47.34335" lon="6.88563">
        <ele>456</ele>
        <time>2021-07-29T16:19:14Z</time>
      </trkpt>
      <trkpt lat="47.34336" lon="6.88567">
        <ele>456.2</ele>
        <time>2021-07-29T16:19:15Z</time>
      </trkpt>
      <trkpt lat="47.34336" lon="6.88572">
        <ele>456.2</ele>
        <time>2021-07-29T16:19:16Z</time>
      </trkpt>
      <trkpt lat="47.34337" lon="6.88577">
        <ele>456.2</ele>
        <time>2021-07-29T16:19:17Z</time>
      </trkpt>
      <trkpt lat="47.34339" lon="6.88582">
        <ele>456.2</ele>
        <time>2021-07-29T16:19:18Z</time>
      </trkpt>
      <trkpt lat="47.3434" lon="6.88587">
        <ele>456.2</ele>
        <time>2021-07-29T16:19:19Z</time>
      </trkpt>
      <trkpt lat="47.34341" lon="6.88592">
        <ele>456.2</ele>
        <time>2021-07-29T16:19:20Z</time>
      </trkpt>
      <trkpt lat="47.34343" lon="6.88597">
        <ele>456.4</ele>
        <time>2021-07-29T16:19:21Z</time>
      </trkpt>
      <trkpt lat="47.34344" lon="6.88602">
        <ele>456.2</ele>
        <time>2021-07-29T16:19:22Z</time>
      </trkpt>
      <trkpt lat="47.34346" lon="6.88607">
        <ele>456.6</ele>
        <time>2021-07-29T16:19:23Z</time>
      </trkpt>
      <trkpt lat="47.34348" lon="6.88612">
        <ele>456.6</ele>
        <time>2021-07-29T16:19:24Z</time>
      </trkpt>
      <trkpt lat="47.34349" lon="6.88617">
        <ele>456.6</ele>
        <time>2021-07-29T16:19:25Z</time>
      </trkpt>
      <trkpt lat="47.3435" lon="6.88622">
        <ele>456.4</ele>
        <time>2021-07-29T16:19:26Z</time>
      </trkpt>
      <trkpt lat="47.34352" lon="6.88627">
        <ele>456.4</ele>
        <time>2021-07-29T16:19:27Z</time>
      </trkpt>
      <trkpt lat="47.34353" lon="6.88632">
        <ele>456.6</ele>
        <time>2021-07-29T16:19:28Z</time>
      </trkpt>
      <trkpt lat="47.34355" lon="6.88638">
        <ele>456.4</ele>
        <time>2021-07-29T16:19:29Z</time>
      </trkpt>
      <trkpt lat="47.34356" lon="6.88643">
        <ele>456.4</ele>
        <time>2021-07-29T16:19:30Z</time>
      </trkpt>
      <trkpt lat="47.34358" lon="6.88649">
        <ele>456.4</ele>
        <time>2021-07-29T16:19:31Z</time>
      </trkpt>
      <trkpt lat="47.3436" lon="6.88654">
        <ele>456.4</ele>
        <time>2021-07-29T16:19:32Z</time>
      </trkpt>
      <trkpt lat="47.34361" lon="6.8866">
        <ele>456.4</ele>
        <time>2021-07-29T16:19:33Z</time>
      </trkpt>
      <trkpt lat="47.34363" lon="6.88666">
        <ele>456.4</ele>
        <time>2021-07-29T16:19:34Z</time>
      </trkpt>
      <trkpt lat="47.34365" lon="6.88671">
        <ele>456.4</ele>
        <time>2021-07-29T16:19:35Z</time>
      </trkpt>
      <trkpt lat="47.34367" lon="6.88677">
        <ele>456.4</ele>
        <time>2021-07-29T16:19:36Z</time>
      </trkpt>
      <trkpt lat="47.34368" lon="6.88683">
        <ele>456.4</ele>
        <time>2021-07-29T16:19:37Z</time>
      </trkpt>
      <trkpt lat="47.3437" lon="6.88689">
        <ele>456.4</ele>
        <time>2021-07-29T16:19:38Z</time>
      </trkpt>
      <trkpt lat="47.34371" lon="6.88695">
        <ele>456.4</ele>
        <time>2021-07-29T16:19:39Z</time>
      </trkpt>
      <trkpt lat="47.34373" lon="6.88701">
        <ele>456.6</ele>
        <time>2021-07-29T16:19:40Z</time>
      </trkpt>
      <trkpt lat="47.34374" lon="6.88707">
        <ele>456.6</ele>
        <time>2021-07-29T16:19:41Z</time>
      </trkpt>
      <trkpt lat="47.34375" lon="6.88713">
        <ele>456.6</ele>
        <time>2021-07-29T16:19:42Z</time>
      </trkpt>
      <trkpt lat="47.34376" lon="6.88719">
        <ele>456.6</ele>
        <time>2021-07-29T16:19:43Z</time>
      </trkpt>
      <trkpt lat="47.34376" lon="6.88726">
        <ele>456.6</ele>
        <time>2021-07-29T16:19:44Z</time>
      </trkpt>
      <trkpt lat="47.34376" lon="6.88732">
        <ele>456.6</ele>
        <time>2021-07-29T16:19:45Z</time>
      </trkpt>
      <trkpt lat="47.34376" lon="6.88739">
        <ele>456.6</ele>
        <time>2021-07-29T16:19:46Z</time>
      </trkpt>
      <trkpt lat="47.34376" lon="6.88746">
        <ele>456.6</ele>
        <time>2021-07-29T16:19:47Z</time>
      </trkpt>
      <trkpt lat="47.34376" lon="6.88753">
        <ele>456.6</ele>
        <time>2021-07-29T16:19:48Z</time>
      </trkpt>
      <trkpt lat="47.34376" lon="6.88759">
        <ele>456.6</ele>
        <time>2021-07-29T16:19:49Z</time>
      </trkpt>
      <trkpt lat="47.34375" lon="6.88766">
        <ele>456.6</ele>
        <time>2021-07-29T16:19:50Z</time>
      </trkpt>
      <trkpt lat="47.34375" lon="6.88772">
        <ele>456.8</ele>
        <time>2021-07-29T16:19:51Z</time>
      </trkpt>
      <trkpt lat="47.34375" lon="6.88779">
        <ele>456.6</ele>
        <time>2021-07-29T16:19:52Z</time>
      </trkpt>
      <trkpt lat="47.34375" lon="6.88785">
        <ele>456.6</ele>
        <time>2021-07-29T16:19:53Z</time>
      </trkpt>
      <trkpt lat="47.34374" lon="6.88792">
        <ele>456.8</ele>
        <time>2021-07-29T16:19:54Z</time>
      </trkpt>
      <trkpt lat="47.34374" lon="6.88799">
        <ele>456.8</ele>
        <time>2021-07-29T16:19:55Z</time>
      </trkpt>
      <trkpt lat="47.34374" lon="6.88806">
        <ele>456.8</ele>
        <time>2021-07-29T16:19:56Z</time>
      </trkpt>
      <trkpt lat="47.34375" lon="6.88812">
        <ele>457</ele>
        <time>2021-07-29T16:19:57Z</time>
      </trkpt>
      <trkpt lat="47.34375" lon="6.88819">
        <ele>457</ele>
        <time>2021-07-29T16:19:58Z</time>
      </trkpt>
      <trkpt lat="47.34376" lon="6.88826">
        <ele>456.8</ele>
        <time>2021-07-29T16:19:59Z</time>
      </trkpt>
      <trkpt lat="47.34377" lon="6.88832">
        <ele>456.8</ele>
        <time>2021-07-29T16:20:00Z</time>
      </trkpt>
      <trkpt lat="47.34378" lon="6.88839">
        <ele>456.8</ele>
        <time>2021-07-29T16:20:01Z</time>
      </trkpt>
      <trkpt lat="47.34379" lon="6.88846">
        <ele>456.8</ele>
        <time>2021-07-29T16:20:02Z</time>
      </trkpt>
      <trkpt lat="47.3438" lon="6.88853">
        <ele>456.6</ele>
        <time>2021-07-29T16:20:03Z</time>
      </trkpt>
      <trkpt lat="47.34382" lon="6.8886">
        <ele>456.6</ele>
        <time>2021-07-29T16:20:04Z</time>
      </trkpt>
      <trkpt lat="47.34383" lon="6.88867">
        <ele>456.6</ele>
        <time>2021-07-29T16:20:05Z</time>
      </trkpt>
      <trkpt lat="47.34384" lon="6.88875">
        <ele>456.6</ele>
        <time>2021-07-29T16:20:06Z</time>
      </trkpt>
      <trkpt lat="47.34386" lon="6.88882">
        <ele>456.4</ele>
        <time>2021-07-29T16:20:07Z</time>
      </trkpt>
      <trkpt lat="47.34388" lon="6.8889">
        <ele>456.2</ele>
        <time>2021-07-29T16:20:08Z</time>
      </trkpt>
      <trkpt lat="47.34389" lon="6.88898">
        <ele>456.2</ele>
        <time>2021-07-29T16:20:09Z</time>
      </trkpt>
      <trkpt lat="47.34391" lon="6.88905">
        <ele>456.2</ele>
        <time>2021-07-29T16:20:10Z</time>
      </trkpt>
      <trkpt lat="47.34392" lon="6.88914">
        <ele>456.2</ele>
        <time>2021-07-29T16:20:11Z</time>
      </trkpt>
      <trkpt lat="47.34393" lon="6.88922">
        <ele>456</ele>
        <time>2021-07-29T16:20:12Z</time>
      </trkpt>
      <trkpt lat="47.34395" lon="6.8893">
        <ele>456</ele>
        <time>2021-07-29T16:20:13Z</time>
      </trkpt>
      <trkpt lat="47.34396" lon="6.88939">
        <ele>455.8</ele>
        <time>2021-07-29T16:20:14Z</time>
      </trkpt>
      <trkpt lat="47.34397" lon="6.88948">
        <ele>455.6</ele>
        <time>2021-07-29T16:20:15Z</time>
      </trkpt>
      <trkpt lat="47.34397" lon="6.88957">
        <ele>455.6</ele>
        <time>2021-07-29T16:20:16Z</time>
      </trkpt>
      <trkpt lat="47.34397" lon="6.88967">
        <ele>455.4</ele>
        <time>2021-07-29T16:20:17Z</time>
      </trkpt>
      <trkpt lat="47.34397" lon="6.88976">
        <ele>455.2</ele>
        <time>2021-07-29T16:20:18Z</time>
      </trkpt>
      <trkpt lat="47.34397" lon="6.88986">
        <ele>455</ele>
        <time>2021-07-29T16:20:19Z</time>
      </trkpt>
      <trkpt lat="47.34397" lon="6.88997">
        <ele>454.8</ele>
        <time>2021-07-29T16:20:20Z</time>
      </trkpt>
      <trkpt lat="47.34397" lon="6.89007">
        <ele>454.6</ele>
        <time>2021-07-29T16:20:21Z</time>
      </trkpt>
      <trkpt lat="47.34397" lon="6.89018">
        <ele>454.2</ele>
        <time>2021-07-29T16:20:23Z</time>
      </trkpt>
      <trkpt lat="47.34397" lon="6.89035">
        <ele>453.8</ele>
        <time>2021-07-29T16:20:24Z</time>
      </trkpt>
      <trkpt lat="47.34397" lon="6.89051">
        <ele>453.2</ele>
        <time>2021-07-29T16:20:25Z</time>
      </trkpt>
      <trkpt lat="47.34398" lon="6.89063">
        <ele>453</ele>
        <time>2021-07-29T16:20:26Z</time>
      </trkpt>
      <trkpt lat="47.34398" lon="6.89074">
        <ele>453</ele>
        <time>2021-07-29T16:20:28Z</time>
      </trkpt>
      <trkpt lat="47.34398" lon="6.89091">
        <ele>453.2</ele>
        <time>2021-07-29T16:20:29Z</time>
      </trkpt>
      <trkpt lat="47.34398" lon="6.89108">
        <ele>453.2</ele>
        <time>2021-07-29T16:20:30Z</time>
      </trkpt>
      <trkpt lat="47.34397" lon="6.89119">
        <ele>453</ele>
        <time>2021-07-29T16:20:31Z</time>
      </trkpt>
      <trkpt lat="47.34397" lon="6.89129">
        <ele>453.2</ele>
        <time>2021-07-29T16:20:32Z</time>
      </trkpt>
      <trkpt lat="47.34397" lon="6.89139">
        <ele>453.2</ele>
        <time>2021-07-29T16:20:34Z</time>
      </trkpt>
      <trkpt lat="47.34395" lon="6.89157">
        <ele>453.2</ele>
        <time>2021-07-29T16:20:36Z</time>
      </trkpt>
      <trkpt lat="47.34393" lon="6.89172">
        <ele>453.4</ele>
        <time>2021-07-29T16:20:38Z</time>
      </trkpt>
      <trkpt lat="47.3439" lon="6.89187">
        <ele>453.6</ele>
        <time>2021-07-29T16:20:39Z</time>
      </trkpt>
      <trkpt lat="47.34389" lon="6.89194">
        <ele>453.8</ele>
        <time>2021-07-29T16:20:41Z</time>
      </trkpt>
      <trkpt lat="47.34387" lon="6.89207">
        <ele>454</ele>
        <time>2021-07-29T16:20:42Z</time>
      </trkpt>
      <trkpt lat="47.34386" lon="6.89213">
        <ele>454.2</ele>
        <time>2021-07-29T16:20:44Z</time>
      </trkpt>
      <trkpt lat="47.34384" lon="6.89225">
        <ele>454.6</ele>
        <time>2021-07-29T16:20:45Z</time>
      </trkpt>
      <trkpt lat="47.34383" lon="6.8923">
        <ele>454.8</ele>
        <time>2021-07-29T16:20:47Z</time>
      </trkpt>
      <trkpt lat="47.34381" lon="6.89241">
        <ele>455.2</ele>
        <time>2021-07-29T16:20:49Z</time>
      </trkpt>
      <trkpt lat="47.34379" lon="6.89251">
        <ele>455.4</ele>
        <time>2021-07-29T16:20:51Z</time>
      </trkpt>
      <trkpt lat="47.34378" lon="6.89261">
        <ele>455.6</ele>
        <time>2021-07-29T16:20:52Z</time>
      </trkpt>
      <trkpt lat="47.34377" lon="6.89265">
        <ele>455.8</ele>
        <time>2021-07-29T16:20:53Z</time>
      </trkpt>
      <trkpt lat="47.34375" lon="6.89274">
        <ele>456</ele>
        <time>2021-07-29T16:20:55Z</time>
      </trkpt>
      <trkpt lat="47.34374" lon="6.89279">
        <ele>456.2</ele>
        <time>2021-07-29T16:20:56Z</time>
      </trkpt>
      <trkpt lat="47.34373" lon="6.89283">
        <ele>456.4</ele>
        <time>2021-07-29T16:20:57Z</time>
      </trkpt>
      <trkpt lat="47.34372" lon="6.89288">
        <ele>456.6</ele>
        <time>2021-07-29T16:20:59Z</time>
      </trkpt>
      <trkpt lat="47.34371" lon="6.89297">
        <ele>456.8</ele>
        <time>2021-07-29T16:21:01Z</time>
      </trkpt>
      <trkpt lat="47.34369" lon="6.89306">
        <ele>457</ele>
        <time>2021-07-29T16:21:03Z</time>
      </trkpt>
      <trkpt lat="47.34367" lon="6.89314">
        <ele>457.4</ele>
        <time>2021-07-29T16:21:05Z</time>
      </trkpt>
      <trkpt lat="47.34365" lon="6.89322">
        <ele>457.6</ele>
        <time>2021-07-29T16:21:07Z</time>
      </trkpt>
      <trkpt lat="47.34363" lon="6.8933">
        <ele>457.8</ele>
        <time>2021-07-29T16:21:09Z</time>
      </trkpt>
      <trkpt lat="47.34362" lon="6.89339">
        <ele>458</ele>
        <time>2021-07-29T16:21:11Z</time>
      </trkpt>
      <trkpt lat="47.34361" lon="6.89347">
        <ele>458</ele>
        <time>2021-07-29T16:21:13Z</time>
      </trkpt>
      <trkpt lat="47.34359" lon="6.89355">
        <ele>458.2</ele>
        <time>2021-07-29T16:21:14Z</time>
      </trkpt>
      <trkpt lat="47.34358" lon="6.8936">
        <ele>458.2</ele>
        <time>2021-07-29T16:21:16Z</time>
      </trkpt>
      <trkpt lat="47.34355" lon="6.89368">
        <ele>458.4</ele>
        <time>2021-07-29T16:21:18Z</time>
      </trkpt>
      <trkpt lat="47.34352" lon="6.89377">
        <ele>458.4</ele>
        <time>2021-07-29T16:21:20Z</time>
      </trkpt>
      <trkpt lat="47.34349" lon="6.89385">
        <ele>458.4</ele>
        <time>2021-07-29T16:21:22Z</time>
      </trkpt>
      <trkpt lat="47.34346" lon="6.89394">
        <ele>458.4</ele>
        <time>2021-07-29T16:21:24Z</time>
      </trkpt>
      <trkpt lat="47.34343" lon="6.89403">
        <ele>458.6</ele>
        <time>2021-07-29T16:21:25Z</time>
      </trkpt>
      <trkpt lat="47.34341" lon="6.89413">
        <ele>458.6</ele>
        <time>2021-07-29T16:21:27Z</time>
      </trkpt>
      <trkpt lat="47.34339" lon="6.89418">
        <ele>458.6</ele>
        <time>2021-07-29T16:21:28Z</time>
      </trkpt>
      <trkpt lat="47.34338" lon="6.89423">
        <ele>458.6</ele>
        <time>2021-07-29T16:21:30Z</time>
      </trkpt>
      <trkpt lat="47.34336" lon="6.89434">
        <ele>458.6</ele>
        <time>2021-07-29T16:21:31Z</time>
      </trkpt>
      <trkpt lat="47.34336" lon="6.8944">
        <ele>458.6</ele>
        <time>2021-07-29T16:21:32Z</time>
      </trkpt>
      <trkpt lat="47.34336" lon="6.89446">
        <ele>458.8</ele>
        <time>2021-07-29T16:21:34Z</time>
      </trkpt>
      <trkpt lat="47.34336" lon="6.89457">
        <ele>458.8</ele>
        <time>2021-07-29T16:21:36Z</time>
      </trkpt>
      <trkpt lat="47.34336" lon="6.89469">
        <ele>458.8</ele>
        <time>2021-07-29T16:21:38Z</time>
      </trkpt>
      <trkpt lat="47.34337" lon="6.8948">
        <ele>459</ele>
        <time>2021-07-29T16:21:40Z</time>
      </trkpt>
      <trkpt lat="47.34338" lon="6.89492">
        <ele>459</ele>
        <time>2021-07-29T16:21:42Z</time>
      </trkpt>
      <trkpt lat="47.34339" lon="6.89498">
        <ele>459</ele>
        <time>2021-07-29T16:21:43Z</time>
      </trkpt>
      <trkpt lat="47.34339" lon="6.89504">
        <ele>459</ele>
        <time>2021-07-29T16:21:44Z</time>
      </trkpt>
      <trkpt lat="47.3434" lon="6.8951">
        <ele>458.8</ele>
        <time>2021-07-29T16:21:45Z</time>
      </trkpt>
      <trkpt lat="47.34341" lon="6.89517">
        <ele>458.8</ele>
        <time>2021-07-29T16:21:46Z</time>
      </trkpt>
      <trkpt lat="47.34342" lon="6.89524">
        <ele>458.6</ele>
        <time>2021-07-29T16:21:47Z</time>
      </trkpt>
      <trkpt lat="47.34343" lon="6.89531">
        <ele>458.6</ele>
        <time>2021-07-29T16:21:48Z</time>
      </trkpt>
      <trkpt lat="47.34344" lon="6.89538">
        <ele>458.6</ele>
        <time>2021-07-29T16:21:49Z</time>
      </trkpt>
      <trkpt lat="47.34346" lon="6.89544">
        <ele>458.6</ele>
        <time>2021-07-29T16:21:50Z</time>
      </trkpt>
      <trkpt lat="47.34347" lon="6.89551">
        <ele>458.6</ele>
        <time>2021-07-29T16:21:51Z</time>
      </trkpt>
      <trkpt lat="47.34348" lon="6.89558">
        <ele>458.6</ele>
        <time>2021-07-29T16:21:52Z</time>
      </trkpt>
      <trkpt lat="47.34349" lon="6.89565">
        <ele>458.6</ele>
        <time>2021-07-29T16:21:53Z</time>
      </trkpt>
      <trkpt lat="47.34351" lon="6.89572">
        <ele>458.6</ele>
        <time>2021-07-29T16:21:54Z</time>
      </trkpt>
      <trkpt lat="47.34352" lon="6.89579">
        <ele>458.6</ele>
        <time>2021-07-29T16:21:55Z</time>
      </trkpt>
      <trkpt lat="47.34353" lon="6.89586">
        <ele>458.6</ele>
        <time>2021-07-29T16:21:56Z</time>
      </trkpt>
      <trkpt lat="47.34354" lon="6.89593">
        <ele>458.6</ele>
        <time>2021-07-29T16:21:57Z</time>
      </trkpt>
      <trkpt lat="47.34355" lon="6.896">
        <ele>458.4</ele>
        <time>2021-07-29T16:21:58Z</time>
      </trkpt>
      <trkpt lat="47.34357" lon="6.89607">
        <ele>458.6</ele>
        <time>2021-07-29T16:21:59Z</time>
      </trkpt>
      <trkpt lat="47.34358" lon="6.89614">
        <ele>458.6</ele>
        <time>2021-07-29T16:22:00Z</time>
      </trkpt>
      <trkpt lat="47.3436" lon="6.89621">
        <ele>458.8</ele>
        <time>2021-07-29T16:22:01Z</time>
      </trkpt>
      <trkpt lat="47.34361" lon="6.89628">
        <ele>458.8</ele>
        <time>2021-07-29T16:22:02Z</time>
      </trkpt>
      <trkpt lat="47.34362" lon="6.89634">
        <ele>458.6</ele>
        <time>2021-07-29T16:22:03Z</time>
      </trkpt>
      <trkpt lat="47.34364" lon="6.89641">
        <ele>458.6</ele>
        <time>2021-07-29T16:22:04Z</time>
      </trkpt>
      <trkpt lat="47.34365" lon="6.89648">
        <ele>458.6</ele>
        <time>2021-07-29T16:22:05Z</time>
      </trkpt>
      <trkpt lat="47.34367" lon="6.89654">
        <ele>458.6</ele>
        <time>2021-07-29T16:22:06Z</time>
      </trkpt>
      <trkpt lat="47.34369" lon="6.89661">
        <ele>458.8</ele>
        <time>2021-07-29T16:22:07Z</time>
      </trkpt>
      <trkpt lat="47.3437" lon="6.89668">
        <ele>458.8</ele>
        <time>2021-07-29T16:22:08Z</time>
      </trkpt>
      <trkpt lat="47.34372" lon="6.89675">
        <ele>459</ele>
        <time>2021-07-29T16:22:09Z</time>
      </trkpt>
      <trkpt lat="47.34373" lon="6.89682">
        <ele>459</ele>
        <time>2021-07-29T16:22:10Z</time>
      </trkpt>
      <trkpt lat="47.34375" lon="6.89689">
        <ele>458.8</ele>
        <time>2021-07-29T16:22:11Z</time>
      </trkpt>
      <trkpt lat="47.34376" lon="6.89696">
        <ele>458.6</ele>
        <time>2021-07-29T16:22:12Z</time>
      </trkpt>
      <trkpt lat="47.34378" lon="6.89703">
        <ele>458.6</ele>
        <time>2021-07-29T16:22:13Z</time>
      </trkpt>
      <trkpt lat="47.3438" lon="6.8971">
        <ele>458.6</ele>
        <time>2021-07-29T16:22:14Z</time>
      </trkpt>
      <trkpt lat="47.34381" lon="6.89717">
        <ele>458.4</ele>
        <time>2021-07-29T16:22:15Z</time>
      </trkpt>
      <trkpt lat="47.34383" lon="6.89724">
        <ele>458.4</ele>
        <time>2021-07-29T16:22:16Z</time>
      </trkpt>
      <trkpt lat="47.34385" lon="6.89731">
        <ele>458.2</ele>
        <time>2021-07-29T16:22:17Z</time>
      </trkpt>
      <trkpt lat="47.34387" lon="6.89738">
        <ele>458</ele>
        <time>2021-07-29T16:22:18Z</time>
      </trkpt>
      <trkpt lat="47.34388" lon="6.89746">
        <ele>458</ele>
        <time>2021-07-29T16:22:19Z</time>
      </trkpt>
      <trkpt lat="47.3439" lon="6.89753">
        <ele>457.8</ele>
        <time>2021-07-29T16:22:20Z</time>
      </trkpt>
      <trkpt lat="47.34392" lon="6.89761">
        <ele>457.8</ele>
        <time>2021-07-29T16:22:21Z</time>
      </trkpt>
      <trkpt lat="47.34394" lon="6.89769">
        <ele>457.6</ele>
        <time>2021-07-29T16:22:22Z</time>
      </trkpt>
      <trkpt lat="47.34395" lon="6.89777">
        <ele>457.8</ele>
        <time>2021-07-29T16:22:23Z</time>
      </trkpt>
      <trkpt lat="47.34397" lon="6.89785">
        <ele>457.8</ele>
        <time>2021-07-29T16:22:24Z</time>
      </trkpt>
      <trkpt lat="47.344" lon="6.89792">
        <ele>457.6</ele>
        <time>2021-07-29T16:22:25Z</time>
      </trkpt>
      <trkpt lat="47.34402" lon="6.898">
        <ele>457.6</ele>
        <time>2021-07-29T16:22:26Z</time>
      </trkpt>
      <trkpt lat="47.34404" lon="6.89808">
        <ele>457.4</ele>
        <time>2021-07-29T16:22:27Z</time>
      </trkpt>
      <trkpt lat="47.34406" lon="6.89816">
        <ele>457.4</ele>
        <time>2021-07-29T16:22:28Z</time>
      </trkpt>
      <trkpt lat="47.34408" lon="6.89824">
        <ele>457.4</ele>
        <time>2021-07-29T16:22:29Z</time>
      </trkpt>
      <trkpt lat="47.34411" lon="6.89831">
        <ele>457.4</ele>
        <time>2021-07-29T16:22:30Z</time>
      </trkpt>
      <trkpt lat="47.34413" lon="6.89839">
        <ele>457.4</ele>
        <time>2021-07-29T16:22:31Z</time>
      </trkpt>
      <trkpt lat="47.34415" lon="6.89846">
        <ele>457.4</ele>
        <time>2021-07-29T16:22:32Z</time>
      </trkpt>
      <trkpt lat="47.34417" lon="6.89854">
        <ele>457.4</ele>
        <time>2021-07-29T16:22:33Z</time>
      </trkpt>
      <trkpt lat="47.34419" lon="6.89861">
        <ele>457.4</ele>
        <time>2021-07-29T16:22:34Z</time>
      </trkpt>
      <trkpt lat="47.34422" lon="6.89869">
        <ele>457.4</ele>
        <time>2021-07-29T16:22:35Z</time>
      </trkpt>
      <trkpt lat="47.34424" lon="6.89876">
        <ele>457.6</ele>
        <time>2021-07-29T16:22:36Z</time>
      </trkpt>
      <trkpt lat="47.34426" lon="6.89883">
        <ele>457.6</ele>
        <time>2021-07-29T16:22:37Z</time>
      </trkpt>
      <trkpt lat="47.34429" lon="6.8989">
        <ele>457.6</ele>
        <time>2021-07-29T16:22:38Z</time>
      </trkpt>
      <trkpt lat="47.34432" lon="6.89897">
        <ele>457.6</ele>
        <time>2021-07-29T16:22:39Z</time>
      </trkpt>
      <trkpt lat="47.34435" lon="6.89904">
        <ele>457.6</ele>
        <time>2021-07-29T16:22:40Z</time>
      </trkpt>
      <trkpt lat="47.34438" lon="6.89911">
        <ele>457.6</ele>
        <time>2021-07-29T16:22:41Z</time>
      </trkpt>
      <trkpt lat="47.34442" lon="6.89918">
        <ele>457.4</ele>
        <time>2021-07-29T16:22:42Z</time>
      </trkpt>
      <trkpt lat="47.34445" lon="6.89925">
        <ele>457.4</ele>
        <time>2021-07-29T16:22:43Z</time>
      </trkpt>
      <trkpt lat="47.34449" lon="6.89932">
        <ele>457.4</ele>
        <time>2021-07-29T16:22:44Z</time>
      </trkpt>
      <trkpt lat="47.34452" lon="6.8994">
        <ele>457.2</ele>
        <time>2021-07-29T16:22:45Z</time>
      </trkpt>
      <trkpt lat="47.34456" lon="6.89947">
        <ele>457</ele>
        <time>2021-07-29T16:22:46Z</time>
      </trkpt>
      <trkpt lat="47.3446" lon="6.89955">
        <ele>456.8</ele>
        <time>2021-07-29T16:22:47Z</time>
      </trkpt>
      <trkpt lat="47.34465" lon="6.89962">
        <ele>456.6</ele>
        <time>2021-07-29T16:22:48Z</time>
      </trkpt>
      <trkpt lat="47.34469" lon="6.89969">
        <ele>456.4</ele>
        <time>2021-07-29T16:22:49Z</time>
      </trkpt>
      <trkpt lat="47.34473" lon="6.89977">
        <ele>456.2</ele>
        <time>2021-07-29T16:22:50Z</time>
      </trkpt>
      <trkpt lat="47.34478" lon="6.89985">
        <ele>456</ele>
        <time>2021-07-29T16:22:51Z</time>
      </trkpt>
      <trkpt lat="47.34482" lon="6.89993">
        <ele>455.8</ele>
        <time>2021-07-29T16:22:52Z</time>
      </trkpt>
      <trkpt lat="47.34487" lon="6.9">
        <ele>455.6</ele>
        <time>2021-07-29T16:22:53Z</time>
      </trkpt>
      <trkpt lat="47.34492" lon="6.90008">
        <ele>455.4</ele>
        <time>2021-07-29T16:22:54Z</time>
      </trkpt>
      <trkpt lat="47.34496" lon="6.90016">
        <ele>455.2</ele>
        <time>2021-07-29T16:22:55Z</time>
      </trkpt>
      <trkpt lat="47.34501" lon="6.90024">
        <ele>455</ele>
        <time>2021-07-29T16:22:56Z</time>
      </trkpt>
      <trkpt lat="47.34506" lon="6.90032">
        <ele>454.8</ele>
        <time>2021-07-29T16:22:57Z</time>
      </trkpt>
      <trkpt lat="47.34511" lon="6.9004">
        <ele>454.6</ele>
        <time>2021-07-29T16:22:58Z</time>
      </trkpt>
      <trkpt lat="47.34516" lon="6.90048">
        <ele>454.4</ele>
        <time>2021-07-29T16:22:59Z</time>
      </trkpt>
      <trkpt lat="47.34521" lon="6.90056">
        <ele>454.2</ele>
        <time>2021-07-29T16:23:00Z</time>
      </trkpt>
      <trkpt lat="47.34525" lon="6.90064">
        <ele>454</ele>
        <time>2021-07-29T16:23:01Z</time>
      </trkpt>
      <trkpt lat="47.3453" lon="6.90072">
        <ele>453.8</ele>
        <time>2021-07-29T16:23:02Z</time>
      </trkpt>
      <trkpt lat="47.34535" lon="6.90081">
        <ele>453.6</ele>
        <time>2021-07-29T16:23:03Z</time>
      </trkpt>
      <trkpt lat="47.3454" lon="6.90089">
        <ele>453.4</ele>
        <time>2021-07-29T16:23:04Z</time>
      </trkpt>
      <trkpt lat="47.34545" lon="6.90097">
        <ele>453.4</ele>
        <time>2021-07-29T16:23:05Z</time>
      </trkpt>
      <trkpt lat="47.3455" lon="6.90106">
        <ele>453</ele>
        <time>2021-07-29T16:23:06Z</time>
      </trkpt>
      <trkpt lat="47.34555" lon="6.90114">
        <ele>452.8</ele>
        <time>2021-07-29T16:23:07Z</time>
      </trkpt>
      <trkpt lat="47.3456" lon="6.90122">
        <ele>452.6</ele>
        <time>2021-07-29T16:23:08Z</time>
      </trkpt>
      <trkpt lat="47.34565" lon="6.90131">
        <ele>452.6</ele>
        <time>2021-07-29T16:23:09Z</time>
      </trkpt>
      <trkpt lat="47.3457" lon="6.90139">
        <ele>452.4</ele>
        <time>2021-07-29T16:23:10Z</time>
      </trkpt>
      <trkpt lat="47.34575" lon="6.90147">
        <ele>452.4</ele>
        <time>2021-07-29T16:23:11Z</time>
      </trkpt>
      <trkpt lat="47.34581" lon="6.90155">
        <ele>452.4</ele>
        <time>2021-07-29T16:23:12Z</time>
      </trkpt>
      <trkpt lat="47.34586" lon="6.90163">
        <ele>452.2</ele>
        <time>2021-07-29T16:23:13Z</time>
      </trkpt>
      <trkpt lat="47.34591" lon="6.90172">
        <ele>452</ele>
        <time>2021-07-29T16:23:14Z</time>
      </trkpt>
      <trkpt lat="47.34596" lon="6.9018">
        <ele>451.8</ele>
        <time>2021-07-29T16:23:15Z</time>
      </trkpt>
      <trkpt lat="47.34601" lon="6.9019">
        <ele>451.4</ele>
        <time>2021-07-29T16:23:16Z</time>
      </trkpt>
      <trkpt lat="47.34606" lon="6.90199">
        <ele>451.2</ele>
        <time>2021-07-29T16:23:17Z</time>
      </trkpt>
      <trkpt lat="47.34611" lon="6.90208">
        <ele>451</ele>
        <time>2021-07-29T16:23:18Z</time>
      </trkpt>
      <trkpt lat="47.34615" lon="6.90218">
        <ele>450.8</ele>
        <time>2021-07-29T16:23:19Z</time>
      </trkpt>
      <trkpt lat="47.3462" lon="6.90227">
        <ele>450.4</ele>
        <time>2021-07-29T16:23:20Z</time>
      </trkpt>
      <trkpt lat="47.34625" lon="6.90237">
        <ele>450.2</ele>
        <time>2021-07-29T16:23:21Z</time>
      </trkpt>
      <trkpt lat="47.34629" lon="6.90246">
        <ele>450</ele>
        <time>2021-07-29T16:23:22Z</time>
      </trkpt>
      <trkpt lat="47.34634" lon="6.90256">
        <ele>449.8</ele>
        <time>2021-07-29T16:23:23Z</time>
      </trkpt>
      <trkpt lat="47.34637" lon="6.90266">
        <ele>449.6</ele>
        <time>2021-07-29T16:23:24Z</time>
      </trkpt>
      <trkpt lat="47.34641" lon="6.90275">
        <ele>449.6</ele>
        <time>2021-07-29T16:23:25Z</time>
      </trkpt>
      <trkpt lat="47.34644" lon="6.90285">
        <ele>449.6</ele>
        <time>2021-07-29T16:23:26Z</time>
      </trkpt>
      <trkpt lat="47.34646" lon="6.90295">
        <ele>449.6</ele>
        <time>2021-07-29T16:23:27Z</time>
      </trkpt>
      <trkpt lat="47.34649" lon="6.90304">
        <ele>449.6</ele>
        <time>2021-07-29T16:23:28Z</time>
      </trkpt>
      <trkpt lat="47.34651" lon="6.90314">
        <ele>449.8</ele>
        <time>2021-07-29T16:23:29Z</time>
      </trkpt>
      <trkpt lat="47.34653" lon="6.90323">
        <ele>449.6</ele>
        <time>2021-07-29T16:23:30Z</time>
      </trkpt>
      <trkpt lat="47.34655" lon="6.90332">
        <ele>449.8</ele>
        <time>2021-07-29T16:23:31Z</time>
      </trkpt>
      <trkpt lat="47.34656" lon="6.9034">
        <ele>450</ele>
        <time>2021-07-29T16:23:32Z</time>
      </trkpt>
      <trkpt lat="47.34657" lon="6.90348">
        <ele>450.2</ele>
        <time>2021-07-29T16:23:33Z</time>
      </trkpt>
      <trkpt lat="47.34659" lon="6.90355">
        <ele>450.6</ele>
        <time>2021-07-29T16:23:34Z</time>
      </trkpt>
      <trkpt lat="47.34661" lon="6.90362">
        <ele>450.8</ele>
        <time>2021-07-29T16:23:35Z</time>
      </trkpt>
      <trkpt lat="47.34662" lon="6.90369">
        <ele>451</ele>
        <time>2021-07-29T16:23:36Z</time>
      </trkpt>
      <trkpt lat="47.34664" lon="6.90375">
        <ele>451.2</ele>
        <time>2021-07-29T16:23:37Z</time>
      </trkpt>
      <trkpt lat="47.34664" lon="6.90381">
        <ele>451.4</ele>
        <time>2021-07-29T16:23:38Z</time>
      </trkpt>
      <trkpt lat="47.34665" lon="6.90387">
        <ele>451.6</ele>
        <time>2021-07-29T16:23:39Z</time>
      </trkpt>
      <trkpt lat="47.34666" lon="6.90392">
        <ele>451.8</ele>
        <time>2021-07-29T16:23:40Z</time>
      </trkpt>
      <trkpt lat="47.34666" lon="6.90397">
        <ele>452</ele>
        <time>2021-07-29T16:23:41Z</time>
      </trkpt>
      <trkpt lat="47.34667" lon="6.90402">
        <ele>452</ele>
        <time>2021-07-29T16:23:42Z</time>
      </trkpt>
      <trkpt lat="47.34669" lon="6.90406">
        <ele>452.2</ele>
        <time>2021-07-29T16:23:43Z</time>
      </trkpt>
      <trkpt lat="47.3467" lon="6.9041">
        <ele>452.2</ele>
        <time>2021-07-29T16:23:44Z</time>
      </trkpt>
      <trkpt lat="47.3467" lon="6.90414">
        <ele>452.4</ele>
        <time>2021-07-29T16:23:45Z</time>
      </trkpt>
      <trkpt lat="47.34671" lon="6.90419">
        <ele>452.4</ele>
        <time>2021-07-29T16:23:46Z</time>
      </trkpt>
      <trkpt lat="47.34671" lon="6.90423">
        <ele>452.6</ele>
        <time>2021-07-29T16:23:47Z</time>
      </trkpt>
      <trkpt lat="47.34672" lon="6.90427">
        <ele>452.6</ele>
        <time>2021-07-29T16:23:48Z</time>
      </trkpt>
      <trkpt lat="47.34673" lon="6.9043">
        <ele>452.8</ele>
        <time>2021-07-29T16:23:49Z</time>
      </trkpt>
      <trkpt lat="47.34674" lon="6.90434">
        <ele>452.8</ele>
        <time>2021-07-29T16:23:50Z</time>
      </trkpt>
      <trkpt lat="47.34675" lon="6.90438">
        <ele>453</ele>
        <time>2021-07-29T16:23:51Z</time>
      </trkpt>
      <trkpt lat="47.34675" lon="6.90442">
        <ele>453</ele>
        <time>2021-07-29T16:23:52Z</time>
      </trkpt>
      <trkpt lat="47.34676" lon="6.90446">
        <ele>453.2</ele>
        <time>2021-07-29T16:23:53Z</time>
      </trkpt>
      <trkpt lat="47.34677" lon="6.90451">
        <ele>453.4</ele>
        <time>2021-07-29T16:23:54Z</time>
      </trkpt>
      <trkpt lat="47.34678" lon="6.90455">
        <ele>453.4</ele>
        <time>2021-07-29T16:23:55Z</time>
      </trkpt>
      <trkpt lat="47.34678" lon="6.90459">
        <ele>453.6</ele>
        <time>2021-07-29T16:23:56Z</time>
      </trkpt>
      <trkpt lat="47.34679" lon="6.90463">
        <ele>453.8</ele>
        <time>2021-07-29T16:23:57Z</time>
      </trkpt>
      <trkpt lat="47.3468" lon="6.90467">
        <ele>453.8</ele>
        <time>2021-07-29T16:23:58Z</time>
      </trkpt>
      <trkpt lat="47.34681" lon="6.90471">
        <ele>454</ele>
        <time>2021-07-29T16:23:59Z</time>
      </trkpt>
      <trkpt lat="47.34681" lon="6.90475">
        <ele>454</ele>
        <time>2021-07-29T16:24:00Z</time>
      </trkpt>
      <trkpt lat="47.34682" lon="6.90479">
        <ele>454.2</ele>
        <time>2021-07-29T16:24:01Z</time>
      </trkpt>
      <trkpt lat="47.34682" lon="6.90483">
        <ele>454.2</ele>
        <time>2021-07-29T16:24:02Z</time>
      </trkpt>
      <trkpt lat="47.34683" lon="6.90487">
        <ele>454.4</ele>
        <time>2021-07-29T16:24:03Z</time>
      </trkpt>
      <trkpt lat="47.34683" lon="6.90491">
        <ele>454.4</ele>
        <time>2021-07-29T16:24:04Z</time>
      </trkpt>
      <trkpt lat="47.34684" lon="6.90495">
        <ele>454.6</ele>
        <time>2021-07-29T16:24:05Z</time>
      </trkpt>
      <trkpt lat="47.34685" lon="6.90499">
        <ele>454.8</ele>
        <time>2021-07-29T16:24:06Z</time>
      </trkpt>
      <trkpt lat="47.34685" lon="6.90503">
        <ele>455</ele>
        <time>2021-07-29T16:24:07Z</time>
      </trkpt>
      <trkpt lat="47.34685" lon="6.90507">
        <ele>455</ele>
        <time>2021-07-29T16:24:08Z</time>
      </trkpt>
      <trkpt lat="47.34685" lon="6.90511">
        <ele>455.2</ele>
        <time>2021-07-29T16:24:09Z</time>
      </trkpt>
      <trkpt lat="47.34685" lon="6.90515">
        <ele>455.2</ele>
        <time>2021-07-29T16:24:10Z</time>
      </trkpt>
      <trkpt lat="47.34685" lon="6.9052">
        <ele>455.4</ele>
        <time>2021-07-29T16:24:11Z</time>
      </trkpt>
      <trkpt lat="47.34685" lon="6.90524">
        <ele>455.4</ele>
        <time>2021-07-29T16:24:12Z</time>
      </trkpt>
      <trkpt lat="47.34686" lon="6.90528">
        <ele>455.4</ele>
        <time>2021-07-29T16:24:13Z</time>
      </trkpt>
      <trkpt lat="47.34686" lon="6.90533">
        <ele>455.6</ele>
        <time>2021-07-29T16:24:14Z</time>
      </trkpt>
      <trkpt lat="47.34686" lon="6.90537">
        <ele>455.6</ele>
        <time>2021-07-29T16:24:15Z</time>
      </trkpt>
      <trkpt lat="47.34686" lon="6.90542">
        <ele>455.8</ele>
        <time>2021-07-29T16:24:16Z</time>
      </trkpt>
      <trkpt lat="47.34686" lon="6.90546">
        <ele>455.8</ele>
        <time>2021-07-29T16:24:17Z</time>
      </trkpt>
      <trkpt lat="47.34686" lon="6.90551">
        <ele>455.8</ele>
        <time>2021-07-29T16:24:18Z</time>
      </trkpt>
      <trkpt lat="47.34686" lon="6.90555">
        <ele>455.8</ele>
        <time>2021-07-29T16:24:19Z</time>
      </trkpt>
      <trkpt lat="47.34686" lon="6.9056">
        <ele>455.8</ele>
        <time>2021-07-29T16:24:20Z</time>
      </trkpt>
      <trkpt lat="47.34685" lon="6.90565">
        <ele>456</ele>
        <time>2021-07-29T16:24:21Z</time>
      </trkpt>
      <trkpt lat="47.34685" lon="6.9057">
        <ele>456</ele>
        <time>2021-07-29T16:24:22Z</time>
      </trkpt>
      <trkpt lat="47.34685" lon="6.90575">
        <ele>456</ele>
        <time>2021-07-29T16:24:23Z</time>
      </trkpt>
      <trkpt lat="47.34684" lon="6.90579">
        <ele>456</ele>
        <time>2021-07-29T16:24:24Z</time>
      </trkpt>
      <trkpt lat="47.34684" lon="6.90584">
        <ele>456</ele>
        <time>2021-07-29T16:24:25Z</time>
      </trkpt>
      <trkpt lat="47.34683" lon="6.90589">
        <ele>456</ele>
        <time>2021-07-29T16:24:26Z</time>
      </trkpt>
      <trkpt lat="47.34683" lon="6.90594">
        <ele>456.2</ele>
        <time>2021-07-29T16:24:27Z</time>
      </trkpt>
      <trkpt lat="47.34682" lon="6.90599">
        <ele>456</ele>
        <time>2021-07-29T16:24:28Z</time>
      </trkpt>
      <trkpt lat="47.34681" lon="6.90605">
        <ele>456</ele>
        <time>2021-07-29T16:24:29Z</time>
      </trkpt>
      <trkpt lat="47.3468" lon="6.90611">
        <ele>456</ele>
        <time>2021-07-29T16:24:30Z</time>
      </trkpt>
      <trkpt lat="47.34679" lon="6.90617">
        <ele>456</ele>
        <time>2021-07-29T16:24:31Z</time>
      </trkpt>
      <trkpt lat="47.34679" lon="6.90624">
        <ele>455.8</ele>
        <time>2021-07-29T16:24:32Z</time>
      </trkpt>
      <trkpt lat="47.34678" lon="6.90631">
        <ele>455.8</ele>
        <time>2021-07-29T16:24:33Z</time>
      </trkpt>
      <trkpt lat="47.34676" lon="6.90638">
        <ele>455.6</ele>
        <time>2021-07-29T16:24:34Z</time>
      </trkpt>
      <trkpt lat="47.34675" lon="6.90646">
        <ele>455.2</ele>
        <time>2021-07-29T16:24:35Z</time>
      </trkpt>
      <trkpt lat="47.34674" lon="6.90655">
        <ele>455</ele>
        <time>2021-07-29T16:24:36Z</time>
      </trkpt>
      <trkpt lat="47.34673" lon="6.90664">
        <ele>454.6</ele>
        <time>2021-07-29T16:24:37Z</time>
      </trkpt>
      <trkpt lat="47.34672" lon="6.90673">
        <ele>454.4</ele>
        <time>2021-07-29T16:24:38Z</time>
      </trkpt>
      <trkpt lat="47.34671" lon="6.90683">
        <ele>454.2</ele>
        <time>2021-07-29T16:24:39Z</time>
      </trkpt>
      <trkpt lat="47.34669" lon="6.90692">
        <ele>453.8</ele>
        <time>2021-07-29T16:24:40Z</time>
      </trkpt>
      <trkpt lat="47.34668" lon="6.90703">
        <ele>453.6</ele>
        <time>2021-07-29T16:24:41Z</time>
      </trkpt>
      <trkpt lat="47.34668" lon="6.90713">
        <ele>453.2</ele>
        <time>2021-07-29T16:24:42Z</time>
      </trkpt>
      <trkpt lat="47.34667" lon="6.90724">
        <ele>453.2</ele>
        <time>2021-07-29T16:24:43Z</time>
      </trkpt>
      <trkpt lat="47.34668" lon="6.90735">
        <ele>452.8</ele>
        <time>2021-07-29T16:24:44Z</time>
      </trkpt>
      <trkpt lat="47.34668" lon="6.90746">
        <ele>452.8</ele>
        <time>2021-07-29T16:24:45Z</time>
      </trkpt>
      <trkpt lat="47.34668" lon="6.90757">
        <ele>452.6</ele>
        <time>2021-07-29T16:24:46Z</time>
      </trkpt>
      <trkpt lat="47.34669" lon="6.90767">
        <ele>452.4</ele>
        <time>2021-07-29T16:24:47Z</time>
      </trkpt>
      <trkpt lat="47.3467" lon="6.90778">
        <ele>452.2</ele>
        <time>2021-07-29T16:24:48Z</time>
      </trkpt>
      <trkpt lat="47.34671" lon="6.90789">
        <ele>452</ele>
        <time>2021-07-29T16:24:49Z</time>
      </trkpt>
      <trkpt lat="47.34672" lon="6.90799">
        <ele>452</ele>
        <time>2021-07-29T16:24:50Z</time>
      </trkpt>
      <trkpt lat="47.34673" lon="6.9081">
        <ele>452</ele>
        <time>2021-07-29T16:24:51Z</time>
      </trkpt>
      <trkpt lat="47.34674" lon="6.90822">
        <ele>451.8</ele>
        <time>2021-07-29T16:24:52Z</time>
      </trkpt>
      <trkpt lat="47.34674" lon="6.90832">
        <ele>451.6</ele>
        <time>2021-07-29T16:24:53Z</time>
      </trkpt>
      <trkpt lat="47.34675" lon="6.90843">
        <ele>451.6</ele>
        <time>2021-07-29T16:24:54Z</time>
      </trkpt>
      <trkpt lat="47.34676" lon="6.90854">
        <ele>451.6</ele>
        <time>2021-07-29T16:24:55Z</time>
      </trkpt>
      <trkpt lat="47.34676" lon="6.90864">
        <ele>451.8</ele>
        <time>2021-07-29T16:24:56Z</time>
      </trkpt>
      <trkpt lat="47.34676" lon="6.90874">
        <ele>452</ele>
        <time>2021-07-29T16:24:57Z</time>
      </trkpt>
      <trkpt lat="47.34676" lon="6.90884">
        <ele>452</ele>
        <time>2021-07-29T16:24:58Z</time>
      </trkpt>
      <trkpt lat="47.34676" lon="6.90892">
        <ele>452.6</ele>
        <time>2021-07-29T16:24:59Z</time>
      </trkpt>
      <trkpt lat="47.34676" lon="6.90901">
        <ele>452.8</ele>
        <time>2021-07-29T16:25:00Z</time>
      </trkpt>
      <trkpt lat="47.34675" lon="6.90908">
        <ele>453</ele>
        <time>2021-07-29T16:25:01Z</time>
      </trkpt>
      <trkpt lat="47.34674" lon="6.90916">
        <ele>453.2</ele>
        <time>2021-07-29T16:25:02Z</time>
      </trkpt>
      <trkpt lat="47.34674" lon="6.90923">
        <ele>453.2</ele>
        <time>2021-07-29T16:25:03Z</time>
      </trkpt>
      <trkpt lat="47.34673" lon="6.90931">
        <ele>453.4</ele>
        <time>2021-07-29T16:25:04Z</time>
      </trkpt>
      <trkpt lat="47.34673" lon="6.90938">
        <ele>453.4</ele>
        <time>2021-07-29T16:25:05Z</time>
      </trkpt>
      <trkpt lat="47.34672" lon="6.90945">
        <ele>453.6</ele>
        <time>2021-07-29T16:25:06Z</time>
      </trkpt>
      <trkpt lat="47.34671" lon="6.90951">
        <ele>453.6</ele>
        <time>2021-07-29T16:25:07Z</time>
      </trkpt>
      <trkpt lat="47.3467" lon="6.90958">
        <ele>453.6</ele>
        <time>2021-07-29T16:25:08Z</time>
      </trkpt>
      <trkpt lat="47.34669" lon="6.90965">
        <ele>453.8</ele>
        <time>2021-07-29T16:25:09Z</time>
      </trkpt>
      <trkpt lat="47.34667" lon="6.90971">
        <ele>453.8</ele>
        <time>2021-07-29T16:25:10Z</time>
      </trkpt>
      <trkpt lat="47.34666" lon="6.90978">
        <ele>453.8</ele>
        <time>2021-07-29T16:25:11Z</time>
      </trkpt>
      <trkpt lat="47.34665" lon="6.90986">
        <ele>453.6</ele>
        <time>2021-07-29T16:25:12Z</time>
      </trkpt>
      <trkpt lat="47.34664" lon="6.90993">
        <ele>453.6</ele>
        <time>2021-07-29T16:25:13Z</time>
      </trkpt>
      <trkpt lat="47.34663" lon="6.91001">
        <ele>453.6</ele>
        <time>2021-07-29T16:25:14Z</time>
      </trkpt>
      <trkpt lat="47.34662" lon="6.91009">
        <ele>453.6</ele>
        <time>2021-07-29T16:25:15Z</time>
      </trkpt>
      <trkpt lat="47.34661" lon="6.91017">
        <ele>453.4</ele>
        <time>2021-07-29T16:25:16Z</time>
      </trkpt>
      <trkpt lat="47.3466" lon="6.91025">
        <ele>453.4</ele>
        <time>2021-07-29T16:25:17Z</time>
      </trkpt>
      <trkpt lat="47.34659" lon="6.91033">
        <ele>453.6</ele>
        <time>2021-07-29T16:25:18Z</time>
      </trkpt>
      <trkpt lat="47.34658" lon="6.91041">
        <ele>453.8</ele>
        <time>2021-07-29T16:25:19Z</time>
      </trkpt>
      <trkpt lat="47.34657" lon="6.91048">
        <ele>453.8</ele>
        <time>2021-07-29T16:25:20Z</time>
      </trkpt>
      <trkpt lat="47.34656" lon="6.91056">
        <ele>454</ele>
        <time>2021-07-29T16:25:21Z</time>
      </trkpt>
      <trkpt lat="47.34656" lon="6.91062">
        <ele>454.2</ele>
        <time>2021-07-29T16:25:22Z</time>
      </trkpt>
      <trkpt lat="47.34655" lon="6.91069">
        <ele>454.2</ele>
        <time>2021-07-29T16:25:23Z</time>
      </trkpt>
      <trkpt lat="47.34654" lon="6.91075">
        <ele>454.2</ele>
        <time>2021-07-29T16:25:24Z</time>
      </trkpt>
      <trkpt lat="47.34654" lon="6.91081">
        <ele>454.4</ele>
        <time>2021-07-29T16:25:25Z</time>
      </trkpt>
      <trkpt lat="47.34653" lon="6.91087">
        <ele>454.6</ele>
        <time>2021-07-29T16:25:26Z</time>
      </trkpt>
      <trkpt lat="47.34653" lon="6.91093">
        <ele>454.6</ele>
        <time>2021-07-29T16:25:27Z</time>
      </trkpt>
      <trkpt lat="47.34653" lon="6.91099">
        <ele>454.6</ele>
        <time>2021-07-29T16:25:28Z</time>
      </trkpt>
      <trkpt lat="47.34653" lon="6.91105">
        <ele>454.8</ele>
        <time>2021-07-29T16:25:29Z</time>
      </trkpt>
      <trkpt lat="47.34653" lon="6.9111">
        <ele>454.8</ele>
        <time>2021-07-29T16:25:30Z</time>
      </trkpt>
      <trkpt lat="47.34653" lon="6.91116">
        <ele>455</ele>
        <time>2021-07-29T16:25:31Z</time>
      </trkpt>
      <trkpt lat="47.34653" lon="6.91121">
        <ele>455</ele>
        <time>2021-07-29T16:25:32Z</time>
      </trkpt>
      <trkpt lat="47.34653" lon="6.91126">
        <ele>455.2</ele>
        <time>2021-07-29T16:25:33Z</time>
      </trkpt>
      <trkpt lat="47.34654" lon="6.91132">
        <ele>455.2</ele>
        <time>2021-07-29T16:25:34Z</time>
      </trkpt>
      <trkpt lat="47.34654" lon="6.91137">
        <ele>455.4</ele>
        <time>2021-07-29T16:25:35Z</time>
      </trkpt>
      <trkpt lat="47.34654" lon="6.91143">
        <ele>455.4</ele>
        <time>2021-07-29T16:25:36Z</time>
      </trkpt>
      <trkpt lat="47.34655" lon="6.91148">
        <ele>455.6</ele>
        <time>2021-07-29T16:25:37Z</time>
      </trkpt>
      <trkpt lat="47.34655" lon="6.91153">
        <ele>455.8</ele>
        <time>2021-07-29T16:25:38Z</time>
      </trkpt>
      <trkpt lat="47.34656" lon="6.91158">
        <ele>455.8</ele>
        <time>2021-07-29T16:25:39Z</time>
      </trkpt>
      <trkpt lat="47.34657" lon="6.91163">
        <ele>456</ele>
        <time>2021-07-29T16:25:40Z</time>
      </trkpt>
      <trkpt lat="47.34658" lon="6.91168">
        <ele>456.2</ele>
        <time>2021-07-29T16:25:41Z</time>
      </trkpt>
      <trkpt lat="47.34659" lon="6.91173">
        <ele>456.2</ele>
        <time>2021-07-29T16:25:42Z</time>
      </trkpt>
      <trkpt lat="47.3466" lon="6.91178">
        <ele>456.4</ele>
        <time>2021-07-29T16:25:43Z</time>
      </trkpt>
      <trkpt lat="47.34661" lon="6.91182">
        <ele>456.6</ele>
        <time>2021-07-29T16:25:44Z</time>
      </trkpt>
      <trkpt lat="47.34661" lon="6.91187">
        <ele>456.6</ele>
        <time>2021-07-29T16:25:45Z</time>
      </trkpt>
      <trkpt lat="47.34662" lon="6.91192">
        <ele>456.6</ele>
        <time>2021-07-29T16:25:46Z</time>
      </trkpt>
      <trkpt lat="47.34664" lon="6.91197">
        <ele>456.6</ele>
        <time>2021-07-29T16:25:47Z</time>
      </trkpt>
      <trkpt lat="47.34665" lon="6.91202">
        <ele>456.8</ele>
        <time>2021-07-29T16:25:48Z</time>
      </trkpt>
      <trkpt lat="47.34666" lon="6.91207">
        <ele>456.8</ele>
        <time>2021-07-29T16:25:49Z</time>
      </trkpt>
      <trkpt lat="47.34667" lon="6.91212">
        <ele>456.8</ele>
        <time>2021-07-29T16:25:50Z</time>
      </trkpt>
      <trkpt lat="47.34668" lon="6.91217">
        <ele>457</ele>
        <time>2021-07-29T16:25:51Z</time>
      </trkpt>
      <trkpt lat="47.34669" lon="6.91223">
        <ele>457</ele>
        <time>2021-07-29T16:25:52Z</time>
      </trkpt>
      <trkpt lat="47.34671" lon="6.91228">
        <ele>457</ele>
        <time>2021-07-29T16:25:53Z</time>
      </trkpt>
      <trkpt lat="47.34672" lon="6.91233">
        <ele>457</ele>
        <time>2021-07-29T16:25:54Z</time>
      </trkpt>
      <trkpt lat="47.34673" lon="6.91239">
        <ele>457</ele>
        <time>2021-07-29T16:25:55Z</time>
      </trkpt>
      <trkpt lat="47.34674" lon="6.91244">
        <ele>457</ele>
        <time>2021-07-29T16:25:56Z</time>
      </trkpt>
      <trkpt lat="47.34676" lon="6.9125">
        <ele>457</ele>
        <time>2021-07-29T16:25:57Z</time>
      </trkpt>
      <trkpt lat="47.34677" lon="6.91256">
        <ele>457</ele>
        <time>2021-07-29T16:25:58Z</time>
      </trkpt>
      <trkpt lat="47.34679" lon="6.91262">
        <ele>457</ele>
        <time>2021-07-29T16:25:59Z</time>
      </trkpt>
      <trkpt lat="47.3468" lon="6.91269">
        <ele>456.8</ele>
        <time>2021-07-29T16:26:00Z</time>
      </trkpt>
      <trkpt lat="47.34682" lon="6.91276">
        <ele>456.6</ele>
        <time>2021-07-29T16:26:01Z</time>
      </trkpt>
      <trkpt lat="47.34683" lon="6.91283">
        <ele>456.6</ele>
        <time>2021-07-29T16:26:02Z</time>
      </trkpt>
      <trkpt lat="47.34685" lon="6.9129">
        <ele>456.4</ele>
        <time>2021-07-29T16:26:03Z</time>
      </trkpt>
      <trkpt lat="47.34686" lon="6.91297">
        <ele>456.2</ele>
        <time>2021-07-29T16:26:04Z</time>
      </trkpt>
      <trkpt lat="47.34688" lon="6.91305">
        <ele>456.2</ele>
        <time>2021-07-29T16:26:05Z</time>
      </trkpt>
      <trkpt lat="47.3469" lon="6.91312">
        <ele>456.2</ele>
        <time>2021-07-29T16:26:06Z</time>
      </trkpt>
      <trkpt lat="47.34691" lon="6.9132">
        <ele>456</ele>
        <time>2021-07-29T16:26:07Z</time>
      </trkpt>
      <trkpt lat="47.34693" lon="6.91328">
        <ele>456</ele>
        <time>2021-07-29T16:26:08Z</time>
      </trkpt>
      <trkpt lat="47.34695" lon="6.91337">
        <ele>455.8</ele>
        <time>2021-07-29T16:26:09Z</time>
      </trkpt>
      <trkpt lat="47.34697" lon="6.91345">
        <ele>455.6</ele>
        <time>2021-07-29T16:26:10Z</time>
      </trkpt>
      <trkpt lat="47.34699" lon="6.91354">
        <ele>455.6</ele>
        <time>2021-07-29T16:26:11Z</time>
      </trkpt>
      <trkpt lat="47.34701" lon="6.91363">
        <ele>455.6</ele>
        <time>2021-07-29T16:26:12Z</time>
      </trkpt>
      <trkpt lat="47.34703" lon="6.91372">
        <ele>455.4</ele>
        <time>2021-07-29T16:26:13Z</time>
      </trkpt>
      <trkpt lat="47.34705" lon="6.91381">
        <ele>455</ele>
        <time>2021-07-29T16:26:14Z</time>
      </trkpt>
      <trkpt lat="47.34707" lon="6.9139">
        <ele>454.8</ele>
        <time>2021-07-29T16:26:15Z</time>
      </trkpt>
      <trkpt lat="47.34709" lon="6.91399">
        <ele>454.6</ele>
        <time>2021-07-29T16:26:16Z</time>
      </trkpt>
      <trkpt lat="47.34711" lon="6.91409">
        <ele>454.4</ele>
        <time>2021-07-29T16:26:17Z</time>
      </trkpt>
      <trkpt lat="47.34714" lon="6.91419">
        <ele>454</ele>
        <time>2021-07-29T16:26:18Z</time>
      </trkpt>
      <trkpt lat="47.34716" lon="6.9143">
        <ele>453.6</ele>
        <time>2021-07-29T16:26:19Z</time>
      </trkpt>
      <trkpt lat="47.34719" lon="6.91441">
        <ele>453</ele>
        <time>2021-07-29T16:26:20Z</time>
      </trkpt>
      <trkpt lat="47.34721" lon="6.91453">
        <ele>452.8</ele>
        <time>2021-07-29T16:26:21Z</time>
      </trkpt>
      <trkpt lat="47.34724" lon="6.91465">
        <ele>452.2</ele>
        <time>2021-07-29T16:26:22Z</time>
      </trkpt>
      <trkpt lat="47.34727" lon="6.91478">
        <ele>451.6</ele>
        <time>2021-07-29T16:26:23Z</time>
      </trkpt>
      <trkpt lat="47.3473" lon="6.9149">
        <ele>451.2</ele>
        <time>2021-07-29T16:26:24Z</time>
      </trkpt>
      <trkpt lat="47.34732" lon="6.91503">
        <ele>451</ele>
        <time>2021-07-29T16:26:25Z</time>
      </trkpt>
      <trkpt lat="47.34735" lon="6.91516">
        <ele>450.8</ele>
        <time>2021-07-29T16:26:26Z</time>
      </trkpt>
      <trkpt lat="47.34737" lon="6.91529">
        <ele>450.6</ele>
        <time>2021-07-29T16:26:27Z</time>
      </trkpt>
      <trkpt lat="47.34739" lon="6.91542">
        <ele>450.6</ele>
        <time>2021-07-29T16:26:28Z</time>
      </trkpt>
      <trkpt lat="47.34741" lon="6.91555">
        <ele>450.6</ele>
        <time>2021-07-29T16:26:29Z</time>
      </trkpt>
      <trkpt lat="47.34742" lon="6.91568">
        <ele>450.2</ele>
        <time>2021-07-29T16:26:30Z</time>
      </trkpt>
      <trkpt lat="47.34744" lon="6.9158">
        <ele>450.2</ele>
        <time>2021-07-29T16:26:31Z</time>
      </trkpt>
      <trkpt lat="47.34745" lon="6.91592">
        <ele>450</ele>
        <time>2021-07-29T16:26:32Z</time>
      </trkpt>
      <trkpt lat="47.34746" lon="6.91604">
        <ele>450.2</ele>
        <time>2021-07-29T16:26:33Z</time>
      </trkpt>
      <trkpt lat="47.34747" lon="6.91616">
        <ele>450.2</ele>
        <time>2021-07-29T16:26:34Z</time>
      </trkpt>
      <trkpt lat="47.34748" lon="6.91628">
        <ele>450.2</ele>
        <time>2021-07-29T16:26:35Z</time>
      </trkpt>
      <trkpt lat="47.34748" lon="6.91639">
        <ele>450</ele>
        <time>2021-07-29T16:26:36Z</time>
      </trkpt>
      <trkpt lat="47.34749" lon="6.9165">
        <ele>450</ele>
        <time>2021-07-29T16:26:37Z</time>
      </trkpt>
      <trkpt lat="47.34749" lon="6.91661">
        <ele>450</ele>
        <time>2021-07-29T16:26:38Z</time>
      </trkpt>
      <trkpt lat="47.34749" lon="6.91671">
        <ele>450</ele>
        <time>2021-07-29T16:26:39Z</time>
      </trkpt>
      <trkpt lat="47.34749" lon="6.91682">
        <ele>450</ele>
        <time>2021-07-29T16:26:40Z</time>
      </trkpt>
      <trkpt lat="47.34749" lon="6.91693">
        <ele>450</ele>
        <time>2021-07-29T16:26:41Z</time>
      </trkpt>
      <trkpt lat="47.34749" lon="6.91703">
        <ele>450.2</ele>
        <time>2021-07-29T16:26:42Z</time>
      </trkpt>
      <trkpt lat="47.34749" lon="6.91714">
        <ele>450</ele>
        <time>2021-07-29T16:26:43Z</time>
      </trkpt>
      <trkpt lat="47.34749" lon="6.91724">
        <ele>450</ele>
        <time>2021-07-29T16:26:44Z</time>
      </trkpt>
      <trkpt lat="47.34749" lon="6.91734">
        <ele>450</ele>
        <time>2021-07-29T16:26:45Z</time>
      </trkpt>
      <trkpt lat="47.34749" lon="6.91744">
        <ele>450</ele>
        <time>2021-07-29T16:26:46Z</time>
      </trkpt>
      <trkpt lat="47.34748" lon="6.91754">
        <ele>449.8</ele>
        <time>2021-07-29T16:26:47Z</time>
      </trkpt>
      <trkpt lat="47.34748" lon="6.91764">
        <ele>449.8</ele>
        <time>2021-07-29T16:26:48Z</time>
      </trkpt>
      <trkpt lat="47.34747" lon="6.91774">
        <ele>449.8</ele>
        <time>2021-07-29T16:26:49Z</time>
      </trkpt>
      <trkpt lat="47.34746" lon="6.91784">
        <ele>449.6</ele>
        <time>2021-07-29T16:26:50Z</time>
      </trkpt>
      <trkpt lat="47.34745" lon="6.91794">
        <ele>449.8</ele>
        <time>2021-07-29T16:26:51Z</time>
      </trkpt>
      <trkpt lat="47.34744" lon="6.91805">
        <ele>449.8</ele>
        <time>2021-07-29T16:26:52Z</time>
      </trkpt>
      <trkpt lat="47.34742" lon="6.91815">
        <ele>449.8</ele>
        <time>2021-07-29T16:26:53Z</time>
      </trkpt>
      <trkpt lat="47.3474" lon="6.91824">
        <ele>449.8</ele>
        <time>2021-07-29T16:26:54Z</time>
      </trkpt>
      <trkpt lat="47.34739" lon="6.91834">
        <ele>449.8</ele>
        <time>2021-07-29T16:26:55Z</time>
      </trkpt>
      <trkpt lat="47.34737" lon="6.91844">
        <ele>449.8</ele>
        <time>2021-07-29T16:26:56Z</time>
      </trkpt>
      <trkpt lat="47.34734" lon="6.91854">
        <ele>449.6</ele>
        <time>2021-07-29T16:26:57Z</time>
      </trkpt>
      <trkpt lat="47.34732" lon="6.91863">
        <ele>449.8</ele>
        <time>2021-07-29T16:26:58Z</time>
      </trkpt>
      <trkpt lat="47.34729" lon="6.91873">
        <ele>449.8</ele>
        <time>2021-07-29T16:26:59Z</time>
      </trkpt>
      <trkpt lat="47.34727" lon="6.91882">
        <ele>450</ele>
        <time>2021-07-29T16:27:00Z</time>
      </trkpt>
      <trkpt lat="47.34724" lon="6.91891">
        <ele>449.8</ele>
        <time>2021-07-29T16:27:01Z</time>
      </trkpt>
      <trkpt lat="47.34721" lon="6.919">
        <ele>449.8</ele>
        <time>2021-07-29T16:27:02Z</time>
      </trkpt>
      <trkpt lat="47.34719" lon="6.91908">
        <ele>449.8</ele>
        <time>2021-07-29T16:27:03Z</time>
      </trkpt>
      <trkpt lat="47.34716" lon="6.91917">
        <ele>449.8</ele>
        <time>2021-07-29T16:27:04Z</time>
      </trkpt>
      <trkpt lat="47.34713" lon="6.91925">
        <ele>449.8</ele>
        <time>2021-07-29T16:27:05Z</time>
      </trkpt>
      <trkpt lat="47.3471" lon="6.91933">
        <ele>450</ele>
        <time>2021-07-29T16:27:06Z</time>
      </trkpt>
      <trkpt lat="47.34707" lon="6.91941">
        <ele>450</ele>
        <time>2021-07-29T16:27:07Z</time>
      </trkpt>
      <trkpt lat="47.34705" lon="6.91949">
        <ele>450</ele>
        <time>2021-07-29T16:27:08Z</time>
      </trkpt>
      <trkpt lat="47.34702" lon="6.91956">
        <ele>450</ele>
        <time>2021-07-29T16:27:09Z</time>
      </trkpt>
      <trkpt lat="47.34698" lon="6.91964">
        <ele>450</ele>
        <time>2021-07-29T16:27:10Z</time>
      </trkpt>
      <trkpt lat="47.34695" lon="6.91971">
        <ele>450.2</ele>
        <time>2021-07-29T16:27:11Z</time>
      </trkpt>
      <trkpt lat="47.34692" lon="6.91978">
        <ele>450.2</ele>
        <time>2021-07-29T16:27:12Z</time>
      </trkpt>
      <trkpt lat="47.34688" lon="6.91985">
        <ele>450.2</ele>
        <time>2021-07-29T16:27:13Z</time>
      </trkpt>
      <trkpt lat="47.34685" lon="6.91992">
        <ele>450.4</ele>
        <time>2021-07-29T16:27:14Z</time>
      </trkpt>
      <trkpt lat="47.34682" lon="6.91999">
        <ele>450.4</ele>
        <time>2021-07-29T16:27:15Z</time>
      </trkpt>
      <trkpt lat="47.34679" lon="6.92006">
        <ele>450.4</ele>
        <time>2021-07-29T16:27:16Z</time>
      </trkpt>
      <trkpt lat="47.34676" lon="6.92012">
        <ele>450.4</ele>
        <time>2021-07-29T16:27:17Z</time>
      </trkpt>
      <trkpt lat="47.34673" lon="6.92019">
        <ele>450.6</ele>
        <time>2021-07-29T16:27:18Z</time>
      </trkpt>
      <trkpt lat="47.3467" lon="6.92025">
        <ele>450.4</ele>
        <time>2021-07-29T16:27:19Z</time>
      </trkpt>
      <trkpt lat="47.34666" lon="6.92032">
        <ele>450.6</ele>
        <time>2021-07-29T16:27:20Z</time>
      </trkpt>
      <trkpt lat="47.34663" lon="6.92038">
        <ele>450.6</ele>
        <time>2021-07-29T16:27:21Z</time>
      </trkpt>
      <trkpt lat="47.3466" lon="6.92044">
        <ele>450.6</ele>
        <time>2021-07-29T16:27:22Z</time>
      </trkpt>
      <trkpt lat="47.34657" lon="6.92051">
        <ele>450.6</ele>
        <time>2021-07-29T16:27:23Z</time>
      </trkpt>
      <trkpt lat="47.34654" lon="6.92057">
        <ele>450.6</ele>
        <time>2021-07-29T16:27:24Z</time>
      </trkpt>
      <trkpt lat="47.34651" lon="6.92063">
        <ele>450.6</ele>
        <time>2021-07-29T16:27:25Z</time>
      </trkpt>
      <trkpt lat="47.34648" lon="6.92069">
        <ele>450.6</ele>
        <time>2021-07-29T16:27:26Z</time>
      </trkpt>
      <trkpt lat="47.34644" lon="6.92075">
        <ele>450.6</ele>
        <time>2021-07-29T16:27:27Z</time>
      </trkpt>
      <trkpt lat="47.34642" lon="6.92082">
        <ele>450.6</ele>
        <time>2021-07-29T16:27:28Z</time>
      </trkpt>
      <trkpt lat="47.34639" lon="6.92087">
        <ele>450.6</ele>
        <time>2021-07-29T16:27:29Z</time>
      </trkpt>
      <trkpt lat="47.34636" lon="6.92093">
        <ele>450.6</ele>
        <time>2021-07-29T16:27:30Z</time>
      </trkpt>
      <trkpt lat="47.34633" lon="6.92098">
        <ele>450.6</ele>
        <time>2021-07-29T16:27:31Z</time>
      </trkpt>
      <trkpt lat="47.34631" lon="6.92103">
        <ele>450.6</ele>
        <time>2021-07-29T16:27:32Z</time>
      </trkpt>
      <trkpt lat="47.34628" lon="6.92108">
        <ele>450.6</ele>
        <time>2021-07-29T16:27:33Z</time>
      </trkpt>
      <trkpt lat="47.34626" lon="6.92112">
        <ele>450.6</ele>
        <time>2021-07-29T16:27:34Z</time>
      </trkpt>
      <trkpt lat="47.34623" lon="6.92117">
        <ele>450.8</ele>
        <time>2021-07-29T16:27:35Z</time>
      </trkpt>
      <trkpt lat="47.34621" lon="6.92121">
        <ele>450.8</ele>
        <time>2021-07-29T16:27:36Z</time>
      </trkpt>
      <trkpt lat="47.34618" lon="6.92126">
        <ele>450.8</ele>
        <time>2021-07-29T16:27:37Z</time>
      </trkpt>
      <trkpt lat="47.34616" lon="6.92131">
        <ele>450.8</ele>
        <time>2021-07-29T16:27:38Z</time>
      </trkpt>
      <trkpt lat="47.34613" lon="6.92135">
        <ele>450.8</ele>
        <time>2021-07-29T16:27:39Z</time>
      </trkpt>
      <trkpt lat="47.34611" lon="6.9214">
        <ele>451</ele>
        <time>2021-07-29T16:27:40Z</time>
      </trkpt>
      <trkpt lat="47.34608" lon="6.92145">
        <ele>451</ele>
        <time>2021-07-29T16:27:41Z</time>
      </trkpt>
      <trkpt lat="47.34606" lon="6.9215">
        <ele>451</ele>
        <time>2021-07-29T16:27:42Z</time>
      </trkpt>
      <trkpt lat="47.34604" lon="6.92155">
        <ele>451</ele>
        <time>2021-07-29T16:27:43Z</time>
      </trkpt>
      <trkpt lat="47.34602" lon="6.9216">
        <ele>451.2</ele>
        <time>2021-07-29T16:27:44Z</time>
      </trkpt>
      <trkpt lat="47.34599" lon="6.92165">
        <ele>451.2</ele>
        <time>2021-07-29T16:27:45Z</time>
      </trkpt>
      <trkpt lat="47.34597" lon="6.9217">
        <ele>451.2</ele>
        <time>2021-07-29T16:27:46Z</time>
      </trkpt>
      <trkpt lat="47.34596" lon="6.92176">
        <ele>451.2</ele>
        <time>2021-07-29T16:27:47Z</time>
      </trkpt>
      <trkpt lat="47.34594" lon="6.92181">
        <ele>451.2</ele>
        <time>2021-07-29T16:27:48Z</time>
      </trkpt>
      <trkpt lat="47.34594" lon="6.92187">
        <ele>451</ele>
        <time>2021-07-29T16:27:49Z</time>
      </trkpt>
      <trkpt lat="47.34594" lon="6.92193">
        <ele>451</ele>
        <time>2021-07-29T16:27:50Z</time>
      </trkpt>
      <trkpt lat="47.34595" lon="6.922">
        <ele>450.6</ele>
        <time>2021-07-29T16:27:51Z</time>
      </trkpt>
      <trkpt lat="47.34597" lon="6.92207">
        <ele>450.4</ele>
        <time>2021-07-29T16:27:52Z</time>
      </trkpt>
      <trkpt lat="47.346" lon="6.92213">
        <ele>450.2</ele>
        <time>2021-07-29T16:27:53Z</time>
      </trkpt>
      <trkpt lat="47.34604" lon="6.92219">
        <ele>450</ele>
        <time>2021-07-29T16:27:54Z</time>
      </trkpt>
      <trkpt lat="47.34609" lon="6.92225">
        <ele>449.6</ele>
        <time>2021-07-29T16:27:55Z</time>
      </trkpt>
      <trkpt lat="47.34614" lon="6.9223">
        <ele>449.4</ele>
        <time>2021-07-29T16:27:56Z</time>
      </trkpt>
      <trkpt lat="47.3462" lon="6.92236">
        <ele>449</ele>
        <time>2021-07-29T16:27:57Z</time>
      </trkpt>
      <trkpt lat="47.34625" lon="6.92243">
        <ele>448.6</ele>
        <time>2021-07-29T16:27:58Z</time>
      </trkpt>
      <trkpt lat="47.34631" lon="6.92249">
        <ele>448.4</ele>
        <time>2021-07-29T16:27:59Z</time>
      </trkpt>
      <trkpt lat="47.34637" lon="6.92255">
        <ele>448.4</ele>
        <time>2021-07-29T16:28:00Z</time>
      </trkpt>
      <trkpt lat="47.34642" lon="6.92261">
        <ele>448.4</ele>
        <time>2021-07-29T16:28:01Z</time>
      </trkpt>
      <trkpt lat="47.34647" lon="6.92267">
        <ele>448.2</ele>
        <time>2021-07-29T16:28:02Z</time>
      </trkpt>
      <trkpt lat="47.34653" lon="6.92273">
        <ele>448.2</ele>
        <time>2021-07-29T16:28:03Z</time>
      </trkpt>
      <trkpt lat="47.34658" lon="6.92278">
        <ele>448.2</ele>
        <time>2021-07-29T16:28:04Z</time>
      </trkpt>
      <trkpt lat="47.34663" lon="6.92283">
        <ele>448</ele>
        <time>2021-07-29T16:28:05Z</time>
      </trkpt>
      <trkpt lat="47.34668" lon="6.92288">
        <ele>447.8</ele>
        <time>2021-07-29T16:28:06Z</time>
      </trkpt>
      <trkpt lat="47.34674" lon="6.92294">
        <ele>447.6</ele>
        <time>2021-07-29T16:28:07Z</time>
      </trkpt>
      <trkpt lat="47.34679" lon="6.92299">
        <ele>447.4</ele>
        <time>2021-07-29T16:28:08Z</time>
      </trkpt>
      <trkpt lat="47.34685" lon="6.92305">
        <ele>447.4</ele>
        <time>2021-07-29T16:28:09Z</time>
      </trkpt>
      <trkpt lat="47.3469" lon="6.9231">
        <ele>447.2</ele>
        <time>2021-07-29T16:28:10Z</time>
      </trkpt>
      <trkpt lat="47.34696" lon="6.92316">
        <ele>447.4</ele>
        <time>2021-07-29T16:28:11Z</time>
      </trkpt>
      <trkpt lat="47.34701" lon="6.92321">
        <ele>447.4</ele>
        <time>2021-07-29T16:28:12Z</time>
      </trkpt>
      <trkpt lat="47.34706" lon="6.92326">
        <ele>447.4</ele>
        <time>2021-07-29T16:28:13Z</time>
      </trkpt>
      <trkpt lat="47.34711" lon="6.9233">
        <ele>447.4</ele>
        <time>2021-07-29T16:28:14Z</time>
      </trkpt>
      <trkpt lat="47.34716" lon="6.92334">
        <ele>447.4</ele>
        <time>2021-07-29T16:28:15Z</time>
      </trkpt>
      <trkpt lat="47.34721" lon="6.92338">
        <ele>447.6</ele>
        <time>2021-07-29T16:28:16Z</time>
      </trkpt>
      <trkpt lat="47.34725" lon="6.92342">
        <ele>447.8</ele>
        <time>2021-07-29T16:28:17Z</time>
      </trkpt>
      <trkpt lat="47.34729" lon="6.92346">
        <ele>448</ele>
        <time>2021-07-29T16:28:18Z</time>
      </trkpt>
      <trkpt lat="47.34733" lon="6.92349">
        <ele>448.2</ele>
        <time>2021-07-29T16:28:19Z</time>
      </trkpt>
      <trkpt lat="47.34736" lon="6.92352">
        <ele>448.4</ele>
        <time>2021-07-29T16:28:20Z</time>
      </trkpt>
      <trkpt lat="47.3474" lon="6.92354">
        <ele>448.6</ele>
        <time>2021-07-29T16:28:21Z</time>
      </trkpt>
      <trkpt lat="47.34743" lon="6.92356">
        <ele>448.8</ele>
        <time>2021-07-29T16:28:22Z</time>
      </trkpt>
      <trkpt lat="47.34746" lon="6.92359">
        <ele>449.2</ele>
        <time>2021-07-29T16:28:23Z</time>
      </trkpt>
      <trkpt lat="47.34749" lon="6.92362">
        <ele>449.4</ele>
        <time>2021-07-29T16:28:24Z</time>
      </trkpt>
      <trkpt lat="47.34752" lon="6.92365">
        <ele>449.6</ele>
        <time>2021-07-29T16:28:25Z</time>
      </trkpt>
      <trkpt lat="47.34754" lon="6.92369">
        <ele>449.6</ele>
        <time>2021-07-29T16:28:26Z</time>
      </trkpt>
      <trkpt lat="47.34756" lon="6.92373">
        <ele>449.8</ele>
        <time>2021-07-29T16:28:27Z</time>
      </trkpt>
      <trkpt lat="47.34757" lon="6.92376">
        <ele>450.2</ele>
        <time>2021-07-29T16:28:28Z</time>
      </trkpt>
      <trkpt lat="47.34758" lon="6.9238">
        <ele>450.2</ele>
        <time>2021-07-29T16:28:29Z</time>
      </trkpt>
      <trkpt lat="47.34759" lon="6.92384">
        <ele>450.4</ele>
        <time>2021-07-29T16:28:30Z</time>
      </trkpt>
      <trkpt lat="47.34759" lon="6.92388">
        <ele>450.6</ele>
        <time>2021-07-29T16:28:31Z</time>
      </trkpt>
      <trkpt lat="47.3476" lon="6.92392">
        <ele>450.8</ele>
        <time>2021-07-29T16:28:32Z</time>
      </trkpt>
      <trkpt lat="47.3476" lon="6.92396">
        <ele>451</ele>
        <time>2021-07-29T16:28:33Z</time>
      </trkpt>
      <trkpt lat="47.3476" lon="6.924">
        <ele>451.2</ele>
        <time>2021-07-29T16:28:34Z</time>
      </trkpt>
      <trkpt lat="47.3476" lon="6.92404">
        <ele>451.2</ele>
        <time>2021-07-29T16:28:35Z</time>
      </trkpt>
      <trkpt lat="47.34761" lon="6.92408">
        <ele>451.4</ele>
        <time>2021-07-29T16:28:36Z</time>
      </trkpt>
      <trkpt lat="47.34761" lon="6.92412">
        <ele>451.4</ele>
        <time>2021-07-29T16:28:37Z</time>
      </trkpt>
      <trkpt lat="47.34761" lon="6.92416">
        <ele>451.6</ele>
        <time>2021-07-29T16:28:38Z</time>
      </trkpt>
      <trkpt lat="47.34762" lon="6.92421">
        <ele>451.6</ele>
        <time>2021-07-29T16:28:39Z</time>
      </trkpt>
      <trkpt lat="47.34762" lon="6.92425">
        <ele>451.8</ele>
        <time>2021-07-29T16:28:40Z</time>
      </trkpt>
      <trkpt lat="47.34762" lon="6.92429">
        <ele>451.8</ele>
        <time>2021-07-29T16:28:41Z</time>
      </trkpt>
      <trkpt lat="47.34762" lon="6.92434">
        <ele>452</ele>
        <time>2021-07-29T16:28:42Z</time>
      </trkpt>
      <trkpt lat="47.34762" lon="6.92438">
        <ele>452</ele>
        <time>2021-07-29T16:28:43Z</time>
      </trkpt>
      <trkpt lat="47.34763" lon="6.92442">
        <ele>452.2</ele>
        <time>2021-07-29T16:28:44Z</time>
      </trkpt>
      <trkpt lat="47.34763" lon="6.92447">
        <ele>452.2</ele>
        <time>2021-07-29T16:28:45Z</time>
      </trkpt>
      <trkpt lat="47.34763" lon="6.92451">
        <ele>452.4</ele>
        <time>2021-07-29T16:28:46Z</time>
      </trkpt>
      <trkpt lat="47.34763" lon="6.92455">
        <ele>452.6</ele>
        <time>2021-07-29T16:28:47Z</time>
      </trkpt>
      <trkpt lat="47.34763" lon="6.9246">
        <ele>452.6</ele>
        <time>2021-07-29T16:28:48Z</time>
      </trkpt>
      <trkpt lat="47.34763" lon="6.92464">
        <ele>452.6</ele>
        <time>2021-07-29T16:28:49Z</time>
      </trkpt>
      <trkpt lat="47.34763" lon="6.92468">
        <ele>452.8</ele>
        <time>2021-07-29T16:28:50Z</time>
      </trkpt>
      <trkpt lat="47.34763" lon="6.92472">
        <ele>453</ele>
        <time>2021-07-29T16:28:51Z</time>
      </trkpt>
      <trkpt lat="47.34762" lon="6.92475">
        <ele>453</ele>
        <time>2021-07-29T16:28:52Z</time>
      </trkpt>
      <trkpt lat="47.34762" lon="6.92479">
        <ele>453.2</ele>
        <time>2021-07-29T16:28:53Z</time>
      </trkpt>
      <trkpt lat="47.34762" lon="6.92483">
        <ele>453.2</ele>
        <time>2021-07-29T16:28:54Z</time>
      </trkpt>
      <trkpt lat="47.34761" lon="6.92486">
        <ele>453.4</ele>
        <time>2021-07-29T16:28:55Z</time>
      </trkpt>
      <trkpt lat="47.34761" lon="6.9249">
        <ele>453.4</ele>
        <time>2021-07-29T16:28:56Z</time>
      </trkpt>
      <trkpt lat="47.3476" lon="6.92493">
        <ele>453.4</ele>
        <time>2021-07-29T16:28:57Z</time>
      </trkpt>
      <trkpt lat="47.34759" lon="6.92497">
        <ele>453.6</ele>
        <time>2021-07-29T16:28:58Z</time>
      </trkpt>
      <trkpt lat="47.34758" lon="6.92501">
        <ele>453.8</ele>
        <time>2021-07-29T16:28:59Z</time>
      </trkpt>
      <trkpt lat="47.34757" lon="6.92505">
        <ele>453.8</ele>
        <time>2021-07-29T16:29:00Z</time>
      </trkpt>
      <trkpt lat="47.34756" lon="6.9251">
        <ele>453.8</ele>
        <time>2021-07-29T16:29:01Z</time>
      </trkpt>
      <trkpt lat="47.34755" lon="6.92514">
        <ele>453.8</ele>
        <time>2021-07-29T16:29:02Z</time>
      </trkpt>
      <trkpt lat="47.34754" lon="6.92518">
        <ele>453.8</ele>
        <time>2021-07-29T16:29:03Z</time>
      </trkpt>
      <trkpt lat="47.34754" lon="6.92523">
        <ele>453.8</ele>
        <time>2021-07-29T16:29:04Z</time>
      </trkpt>
      <trkpt lat="47.34753" lon="6.92528">
        <ele>453.8</ele>
        <time>2021-07-29T16:29:05Z</time>
      </trkpt>
      <trkpt lat="47.34752" lon="6.92532">
        <ele>453.8</ele>
        <time>2021-07-29T16:29:06Z</time>
      </trkpt>
      <trkpt lat="47.3475" lon="6.92537">
        <ele>453.8</ele>
        <time>2021-07-29T16:29:07Z</time>
      </trkpt>
      <trkpt lat="47.34749" lon="6.92542">
        <ele>453.8</ele>
        <time>2021-07-29T16:29:08Z</time>
      </trkpt>
      <trkpt lat="47.34748" lon="6.92547">
        <ele>453.6</ele>
        <time>2021-07-29T16:29:09Z</time>
      </trkpt>
      <trkpt lat="47.34747" lon="6.92552">
        <ele>453.6</ele>
        <time>2021-07-29T16:29:10Z</time>
      </trkpt>
      <trkpt lat="47.34745" lon="6.92556">
        <ele>453.6</ele>
        <time>2021-07-29T16:29:11Z</time>
      </trkpt>
      <trkpt lat="47.34744" lon="6.92557">
        <ele>453.6</ele>
        <time>2021-07-29T16:29:12Z</time>
      </trkpt>
      <trkpt lat="47.34744" lon="6.92557">
        <ele>453.4</ele>
        <time>2021-07-29T16:29:13Z</time>
      </trkpt>
      <trkpt lat="47.34743" lon="6.92558">
        <ele>453.4</ele>
        <time>2021-07-29T16:29:14Z</time>
      </trkpt>
      <trkpt lat="47.34743" lon="6.92558">
        <ele>453.4</ele>
        <time>2021-07-29T16:29:15Z</time>
      </trkpt>
      <trkpt lat="47.34743" lon="6.92558">
        <ele>453.4</ele>
        <time>2021-07-29T16:29:16Z</time>
      </trkpt>
      <trkpt lat="47.34743" lon="6.92558">
        <ele>453.4</ele>
        <time>2021-07-29T16:29:17Z</time>
      </trkpt>
      <trkpt lat="47.34743" lon="6.92558">
        <ele>453.4</ele>
        <time>2021-07-29T16:29:18Z</time>
      </trkpt>
      <trkpt lat="47.34744" lon="6.92558">
        <ele>453.4</ele>
        <time>2021-07-29T16:29:19Z</time>
      </trkpt>
      <trkpt lat="47.34744" lon="6.92558">
        <ele>453.4</ele>
        <time>2021-07-29T16:29:20Z</time>
      </trkpt>
      <trkpt lat="47.34726" lon="6.92591">
        <ele>453.4</ele>
        <time>2021-07-29T16:30:13Z</time>
      </trkpt>
      <trkpt lat="47.34723" lon="6.92594">
        <ele>453.4</ele>
        <time>2021-07-29T16:30:14Z</time>
      </trkpt>
      <trkpt lat="47.3472" lon="6.92597">
        <ele>453.4</ele>
        <time>2021-07-29T16:30:15Z</time>
      </trkpt>
      <trkpt lat="47.34717" lon="6.92601">
        <ele>453.4</ele>
        <time>2021-07-29T16:30:16Z</time>
      </trkpt>
      <trkpt lat="47.34713" lon="6.92604">
        <ele>453.4</ele>
        <time>2021-07-29T16:30:17Z</time>
      </trkpt>
      <trkpt lat="47.3471" lon="6.92608">
        <ele>453.4</ele>
        <time>2021-07-29T16:30:18Z</time>
      </trkpt>
      <trkpt lat="47.34706" lon="6.92611">
        <ele>453.4</ele>
        <time>2021-07-29T16:30:19Z</time>
      </trkpt>
      <trkpt lat="47.34702" lon="6.92615">
        <ele>453.4</ele>
        <time>2021-07-29T16:30:20Z</time>
      </trkpt>
      <trkpt lat="47.34698" lon="6.92618">
        <ele>453.2</ele>
        <time>2021-07-29T16:30:21Z</time>
      </trkpt>
      <trkpt lat="47.34694" lon="6.92621">
        <ele>453.2</ele>
        <time>2021-07-29T16:30:22Z</time>
      </trkpt>
      <trkpt lat="47.3469" lon="6.92624">
        <ele>453.2</ele>
        <time>2021-07-29T16:30:23Z</time>
      </trkpt>
      <trkpt lat="47.34686" lon="6.92628">
        <ele>453.2</ele>
        <time>2021-07-29T16:30:24Z</time>
      </trkpt>
      <trkpt lat="47.34681" lon="6.92631">
        <ele>453.4</ele>
        <time>2021-07-29T16:30:25Z</time>
      </trkpt>
      <trkpt lat="47.34677" lon="6.92634">
        <ele>453.4</ele>
        <time>2021-07-29T16:30:26Z</time>
      </trkpt>
      <trkpt lat="47.34672" lon="6.92636">
        <ele>453.2</ele>
        <time>2021-07-29T16:30:27Z</time>
      </trkpt>
      <trkpt lat="47.34668" lon="6.92638">
        <ele>453.2</ele>
        <time>2021-07-29T16:30:28Z</time>
      </trkpt>
      <trkpt lat="47.34663" lon="6.9264">
        <ele>453</ele>
        <time>2021-07-29T16:30:29Z</time>
      </trkpt>
      <trkpt lat="47.34658" lon="6.92642">
        <ele>452.6</ele>
        <time>2021-07-29T16:30:30Z</time>
      </trkpt>
      <trkpt lat="47.34653" lon="6.92643">
        <ele>452.6</ele>
        <time>2021-07-29T16:30:31Z</time>
      </trkpt>
      <trkpt lat="47.34648" lon="6.92645">
        <ele>452.4</ele>
        <time>2021-07-29T16:30:32Z</time>
      </trkpt>
      <trkpt lat="47.34642" lon="6.92647">
        <ele>452.4</ele>
        <time>2021-07-29T16:30:33Z</time>
      </trkpt>
      <trkpt lat="47.34637" lon="6.92649">
        <ele>452.4</ele>
        <time>2021-07-29T16:30:34Z</time>
      </trkpt>
      <trkpt lat="47.34632" lon="6.92651">
        <ele>452.4</ele>
        <time>2021-07-29T16:30:35Z</time>
      </trkpt>
      <trkpt lat="47.34627" lon="6.92653">
        <ele>452.4</ele>
        <time>2021-07-29T16:30:36Z</time>
      </trkpt>
      <trkpt lat="47.34621" lon="6.92655">
        <ele>452.2</ele>
        <time>2021-07-29T16:30:37Z</time>
      </trkpt>
      <trkpt lat="47.34616" lon="6.92657">
        <ele>452.2</ele>
        <time>2021-07-29T16:30:38Z</time>
      </trkpt>
      <trkpt lat="47.34612" lon="6.92659">
        <ele>452.4</ele>
        <time>2021-07-29T16:30:39Z</time>
      </trkpt>
      <trkpt lat="47.34607" lon="6.9266">
        <ele>452.4</ele>
        <time>2021-07-29T16:30:40Z</time>
      </trkpt>
      <trkpt lat="47.34602" lon="6.92663">
        <ele>452.4</ele>
        <time>2021-07-29T16:30:41Z</time>
      </trkpt>
      <trkpt lat="47.34598" lon="6.92665">
        <ele>452.4</ele>
        <time>2021-07-29T16:30:42Z</time>
      </trkpt>
      <trkpt lat="47.34593" lon="6.92667">
        <ele>452.4</ele>
        <time>2021-07-29T16:30:43Z</time>
      </trkpt>
      <trkpt lat="47.34589" lon="6.9267">
        <ele>452.6</ele>
        <time>2021-07-29T16:30:44Z</time>
      </trkpt>
      <trkpt lat="47.34585" lon="6.92673">
        <ele>452.8</ele>
        <time>2021-07-29T16:30:45Z</time>
      </trkpt>
      <trkpt lat="47.34581" lon="6.92676">
        <ele>453</ele>
        <time>2021-07-29T16:30:46Z</time>
      </trkpt>
      <trkpt lat="47.34578" lon="6.92679">
        <ele>453.2</ele>
        <time>2021-07-29T16:30:47Z</time>
      </trkpt>
      <trkpt lat="47.34574" lon="6.92682">
        <ele>453.4</ele>
        <time>2021-07-29T16:30:48Z</time>
      </trkpt>
      <trkpt lat="47.34571" lon="6.92685">
        <ele>453.6</ele>
        <time>2021-07-29T16:30:49Z</time>
      </trkpt>
      <trkpt lat="47.34567" lon="6.92687">
        <ele>453.8</ele>
        <time>2021-07-29T16:30:50Z</time>
      </trkpt>
      <trkpt lat="47.34564" lon="6.92689">
        <ele>453.8</ele>
        <time>2021-07-29T16:30:51Z</time>
      </trkpt>
      <trkpt lat="47.34561" lon="6.92691">
        <ele>454</ele>
        <time>2021-07-29T16:30:52Z</time>
      </trkpt>
      <trkpt lat="47.34558" lon="6.92693">
        <ele>454.2</ele>
        <time>2021-07-29T16:30:53Z</time>
      </trkpt>
      <trkpt lat="47.34555" lon="6.92696">
        <ele>454.4</ele>
        <time>2021-07-29T16:30:54Z</time>
      </trkpt>
      <trkpt lat="47.34552" lon="6.92698">
        <ele>454.4</ele>
        <time>2021-07-29T16:30:55Z</time>
      </trkpt>
      <trkpt lat="47.3455" lon="6.927">
        <ele>454.6</ele>
        <time>2021-07-29T16:30:56Z</time>
      </trkpt>
      <trkpt lat="47.34547" lon="6.92702">
        <ele>454.8</ele>
        <time>2021-07-29T16:30:57Z</time>
      </trkpt>
      <trkpt lat="47.34544" lon="6.92704">
        <ele>454.8</ele>
        <time>2021-07-29T16:30:58Z</time>
      </trkpt>
      <trkpt lat="47.34541" lon="6.92706">
        <ele>455</ele>
        <time>2021-07-29T16:30:59Z</time>
      </trkpt>
      <trkpt lat="47.34539" lon="6.92708">
        <ele>455.2</ele>
        <time>2021-07-29T16:31:00Z</time>
      </trkpt>
      <trkpt lat="47.34536" lon="6.92709">
        <ele>455.4</ele>
        <time>2021-07-29T16:31:01Z</time>
      </trkpt>
      <trkpt lat="47.34533" lon="6.92711">
        <ele>455.4</ele>
        <time>2021-07-29T16:31:02Z</time>
      </trkpt>
      <trkpt lat="47.3453" lon="6.92713">
        <ele>455.6</ele>
        <time>2021-07-29T16:31:03Z</time>
      </trkpt>
      <trkpt lat="47.34527" lon="6.92716">
        <ele>455.6</ele>
        <time>2021-07-29T16:31:04Z</time>
      </trkpt>
      <trkpt lat="47.34525" lon="6.92718">
        <ele>455.8</ele>
        <time>2021-07-29T16:31:05Z</time>
      </trkpt>
      <trkpt lat="47.34522" lon="6.9272">
        <ele>456</ele>
        <time>2021-07-29T16:31:06Z</time>
      </trkpt>
      <trkpt lat="47.3452" lon="6.92722">
        <ele>456</ele>
        <time>2021-07-29T16:31:07Z</time>
      </trkpt>
      <trkpt lat="47.34517" lon="6.92723">
        <ele>456.2</ele>
        <time>2021-07-29T16:31:08Z</time>
      </trkpt>
      <trkpt lat="47.34515" lon="6.92725">
        <ele>456.4</ele>
        <time>2021-07-29T16:31:09Z</time>
      </trkpt>
      <trkpt lat="47.34512" lon="6.92727">
        <ele>456.6</ele>
        <time>2021-07-29T16:31:10Z</time>
      </trkpt>
      <trkpt lat="47.3451" lon="6.92728">
        <ele>456.6</ele>
        <time>2021-07-29T16:31:11Z</time>
      </trkpt>
      <trkpt lat="47.34507" lon="6.92729">
        <ele>456.8</ele>
        <time>2021-07-29T16:31:12Z</time>
      </trkpt>
      <trkpt lat="47.34505" lon="6.92729">
        <ele>456.8</ele>
        <time>2021-07-29T16:31:13Z</time>
      </trkpt>
      <trkpt lat="47.34502" lon="6.9273">
        <ele>456.8</ele>
        <time>2021-07-29T16:31:14Z</time>
      </trkpt>
      <trkpt lat="47.34499" lon="6.92731">
        <ele>456.8</ele>
        <time>2021-07-29T16:31:15Z</time>
      </trkpt>
      <trkpt lat="47.34495" lon="6.92732">
        <ele>456.8</ele>
        <time>2021-07-29T16:31:16Z</time>
      </trkpt>
      <trkpt lat="47.34492" lon="6.92733">
        <ele>456.8</ele>
        <time>2021-07-29T16:31:17Z</time>
      </trkpt>
      <trkpt lat="47.34488" lon="6.92733">
        <ele>456.6</ele>
        <time>2021-07-29T16:31:18Z</time>
      </trkpt>
      <trkpt lat="47.34483" lon="6.92733">
        <ele>456.6</ele>
        <time>2021-07-29T16:31:19Z</time>
      </trkpt>
      <trkpt lat="47.34479" lon="6.92733">
        <ele>456.6</ele>
        <time>2021-07-29T16:31:20Z</time>
      </trkpt>
      <trkpt lat="47.34475" lon="6.92733">
        <ele>456.8</ele>
        <time>2021-07-29T16:31:21Z</time>
      </trkpt>
      <trkpt lat="47.34471" lon="6.92733">
        <ele>456.8</ele>
        <time>2021-07-29T16:31:22Z</time>
      </trkpt>
      <trkpt lat="47.34467" lon="6.92734">
        <ele>456.8</ele>
        <time>2021-07-29T16:31:23Z</time>
      </trkpt>
      <trkpt lat="47.34462" lon="6.92734">
        <ele>456.8</ele>
        <time>2021-07-29T16:31:24Z</time>
      </trkpt>
      <trkpt lat="47.34458" lon="6.92734">
        <ele>456.8</ele>
        <time>2021-07-29T16:31:25Z</time>
      </trkpt>
      <trkpt lat="47.34454" lon="6.92736">
        <ele>456.8</ele>
        <time>2021-07-29T16:31:26Z</time>
      </trkpt>
      <trkpt lat="47.3445" lon="6.92738">
        <ele>456.8</ele>
        <time>2021-07-29T16:31:27Z</time>
      </trkpt>
      <trkpt lat="47.34445" lon="6.9274">
        <ele>456.8</ele>
        <time>2021-07-29T16:31:28Z</time>
      </trkpt>
      <trkpt lat="47.34441" lon="6.92743">
        <ele>457</ele>
        <time>2021-07-29T16:31:29Z</time>
      </trkpt>
      <trkpt lat="47.34437" lon="6.92746">
        <ele>457</ele>
        <time>2021-07-29T16:31:30Z</time>
      </trkpt>
      <trkpt lat="47.34433" lon="6.9275">
        <ele>457</ele>
        <time>2021-07-29T16:31:31Z</time>
      </trkpt>
      <trkpt lat="47.3443" lon="6.92753">
        <ele>457</ele>
        <time>2021-07-29T16:31:32Z</time>
      </trkpt>
      <trkpt lat="47.34426" lon="6.92758">
        <ele>457.2</ele>
        <time>2021-07-29T16:31:33Z</time>
      </trkpt>
      <trkpt lat="47.34424" lon="6.92762">
        <ele>457.4</ele>
        <time>2021-07-29T16:31:34Z</time>
      </trkpt>
      <trkpt lat="47.34422" lon="6.92766">
        <ele>457.4</ele>
        <time>2021-07-29T16:31:35Z</time>
      </trkpt>
      <trkpt lat="47.3442" lon="6.9277">
        <ele>457.6</ele>
        <time>2021-07-29T16:31:36Z</time>
      </trkpt>
      <trkpt lat="47.34418" lon="6.92775">
        <ele>457.8</ele>
        <time>2021-07-29T16:31:37Z</time>
      </trkpt>
      <trkpt lat="47.34417" lon="6.92778">
        <ele>458</ele>
        <time>2021-07-29T16:31:38Z</time>
      </trkpt>
      <trkpt lat="47.34416" lon="6.92782">
        <ele>458.2</ele>
        <time>2021-07-29T16:31:39Z</time>
      </trkpt>
      <trkpt lat="47.34415" lon="6.92786">
        <ele>458.4</ele>
        <time>2021-07-29T16:31:40Z</time>
      </trkpt>
      <trkpt lat="47.34415" lon="6.92791">
        <ele>458.4</ele>
        <time>2021-07-29T16:31:41Z</time>
      </trkpt>
      <trkpt lat="47.34414" lon="6.92794">
        <ele>458.4</ele>
        <time>2021-07-29T16:31:42Z</time>
      </trkpt>
      <trkpt lat="47.34413" lon="6.92798">
        <ele>458.6</ele>
        <time>2021-07-29T16:31:43Z</time>
      </trkpt>
      <trkpt lat="47.34411" lon="6.92802">
        <ele>458.8</ele>
        <time>2021-07-29T16:31:44Z</time>
      </trkpt>
      <trkpt lat="47.3441" lon="6.92806">
        <ele>458.8</ele>
        <time>2021-07-29T16:31:45Z</time>
      </trkpt>
      <trkpt lat="47.34409" lon="6.9281">
        <ele>459</ele>
        <time>2021-07-29T16:31:46Z</time>
      </trkpt>
      <trkpt lat="47.34408" lon="6.92814">
        <ele>459</ele>
        <time>2021-07-29T16:31:47Z</time>
      </trkpt>
      <trkpt lat="47.34407" lon="6.92818">
        <ele>459.2</ele>
        <time>2021-07-29T16:31:48Z</time>
      </trkpt>
      <trkpt lat="47.34406" lon="6.92821">
        <ele>459.4</ele>
        <time>2021-07-29T16:31:49Z</time>
      </trkpt>
      <trkpt lat="47.34405" lon="6.92825">
        <ele>459.4</ele>
        <time>2021-07-29T16:31:50Z</time>
      </trkpt>
      <trkpt lat="47.34404" lon="6.92828">
        <ele>459.6</ele>
        <time>2021-07-29T16:31:51Z</time>
      </trkpt>
      <trkpt lat="47.34403" lon="6.92832">
        <ele>459.8</ele>
        <time>2021-07-29T16:31:52Z</time>
      </trkpt>
      <trkpt lat="47.34402" lon="6.92835">
        <ele>460</ele>
        <time>2021-07-29T16:31:53Z</time>
      </trkpt>
      <trkpt lat="47.344" lon="6.92838">
        <ele>460.2</ele>
        <time>2021-07-29T16:31:54Z</time>
      </trkpt>
      <trkpt lat="47.34399" lon="6.9284">
        <ele>460.4</ele>
        <time>2021-07-29T16:31:55Z</time>
      </trkpt>
      <trkpt lat="47.34398" lon="6.92843">
        <ele>460.6</ele>
        <time>2021-07-29T16:31:56Z</time>
      </trkpt>
      <trkpt lat="47.34396" lon="6.92846">
        <ele>460.8</ele>
        <time>2021-07-29T16:31:57Z</time>
      </trkpt>
      <trkpt lat="47.34395" lon="6.92848">
        <ele>461</ele>
        <time>2021-07-29T16:31:58Z</time>
      </trkpt>
      <trkpt lat="47.34393" lon="6.92851">
        <ele>461</ele>
        <time>2021-07-29T16:31:59Z</time>
      </trkpt>
      <trkpt lat="47.34392" lon="6.92854">
        <ele>461.2</ele>
        <time>2021-07-29T16:32:00Z</time>
      </trkpt>
      <trkpt lat="47.3439" lon="6.92857">
        <ele>461.4</ele>
        <time>2021-07-29T16:32:01Z</time>
      </trkpt>
      <trkpt lat="47.34388" lon="6.9286">
        <ele>461.4</ele>
        <time>2021-07-29T16:32:02Z</time>
      </trkpt>
      <trkpt lat="47.34387" lon="6.92863">
        <ele>461.6</ele>
        <time>2021-07-29T16:32:03Z</time>
      </trkpt>
      <trkpt lat="47.34385" lon="6.92866">
        <ele>461.6</ele>
        <time>2021-07-29T16:32:04Z</time>
      </trkpt>
      <trkpt lat="47.34384" lon="6.92868">
        <ele>461.6</ele>
        <time>2021-07-29T16:32:05Z</time>
      </trkpt>
      <trkpt lat="47.34382" lon="6.92871">
        <ele>461.8</ele>
        <time>2021-07-29T16:32:06Z</time>
      </trkpt>
      <trkpt lat="47.3438" lon="6.92874">
        <ele>461.8</ele>
        <time>2021-07-29T16:32:07Z</time>
      </trkpt>
      <trkpt lat="47.34378" lon="6.92877">
        <ele>462</ele>
        <time>2021-07-29T16:32:08Z</time>
      </trkpt>
      <trkpt lat="47.34376" lon="6.9288">
        <ele>462</ele>
        <time>2021-07-29T16:32:09Z</time>
      </trkpt>
      <trkpt lat="47.34374" lon="6.92883">
        <ele>462</ele>
        <time>2021-07-29T16:32:10Z</time>
      </trkpt>
      <trkpt lat="47.34371" lon="6.92886">
        <ele>462</ele>
        <time>2021-07-29T16:32:11Z</time>
      </trkpt>
      <trkpt lat="47.34369" lon="6.92889">
        <ele>462</ele>
        <time>2021-07-29T16:32:12Z</time>
      </trkpt>
      <trkpt lat="47.34367" lon="6.92892">
        <ele>462</ele>
        <time>2021-07-29T16:32:13Z</time>
      </trkpt>
      <trkpt lat="47.34365" lon="6.92895">
        <ele>462.2</ele>
        <time>2021-07-29T16:32:14Z</time>
      </trkpt>
      <trkpt lat="47.34362" lon="6.92898">
        <ele>462.2</ele>
        <time>2021-07-29T16:32:15Z</time>
      </trkpt>
      <trkpt lat="47.3436" lon="6.92901">
        <ele>462.2</ele>
        <time>2021-07-29T16:32:16Z</time>
      </trkpt>
      <trkpt lat="47.34358" lon="6.92904">
        <ele>462.4</ele>
        <time>2021-07-29T16:32:17Z</time>
      </trkpt>
      <trkpt lat="47.34355" lon="6.92907">
        <ele>462.4</ele>
        <time>2021-07-29T16:32:18Z</time>
      </trkpt>
      <trkpt lat="47.34353" lon="6.9291">
        <ele>462.4</ele>
        <time>2021-07-29T16:32:19Z</time>
      </trkpt>
      <trkpt lat="47.34351" lon="6.92913">
        <ele>462.6</ele>
        <time>2021-07-29T16:32:20Z</time>
      </trkpt>
      <trkpt lat="47.3435" lon="6.92915">
        <ele>462.8</ele>
        <time>2021-07-29T16:32:21Z</time>
      </trkpt>
      <trkpt lat="47.34348" lon="6.92918">
        <ele>462.8</ele>
        <time>2021-07-29T16:32:22Z</time>
      </trkpt>
      <trkpt lat="47.34346" lon="6.9292">
        <ele>462.8</ele>
        <time>2021-07-29T16:32:23Z</time>
      </trkpt>
      <trkpt lat="47.34344" lon="6.92923">
        <ele>463</ele>
        <time>2021-07-29T16:32:24Z</time>
      </trkpt>
      <trkpt lat="47.34342" lon="6.92925">
        <ele>463.2</ele>
        <time>2021-07-29T16:32:25Z</time>
      </trkpt>
      <trkpt lat="47.3434" lon="6.92928">
        <ele>463.4</ele>
        <time>2021-07-29T16:32:26Z</time>
      </trkpt>
      <trkpt lat="47.34338" lon="6.9293">
        <ele>463.4</ele>
        <time>2021-07-29T16:32:27Z</time>
      </trkpt>
      <trkpt lat="47.34336" lon="6.92932">
        <ele>463.4</ele>
        <time>2021-07-29T16:32:28Z</time>
      </trkpt>
      <trkpt lat="47.34334" lon="6.92934">
        <ele>463.6</ele>
        <time>2021-07-29T16:32:29Z</time>
      </trkpt>
      <trkpt lat="47.34332" lon="6.92937">
        <ele>463.6</ele>
        <time>2021-07-29T16:32:30Z</time>
      </trkpt>
      <trkpt lat="47.34331" lon="6.92939">
        <ele>463.8</ele>
        <time>2021-07-29T16:32:31Z</time>
      </trkpt>
      <trkpt lat="47.34329" lon="6.92941">
        <ele>464</ele>
        <time>2021-07-29T16:32:32Z</time>
      </trkpt>
      <trkpt lat="47.34328" lon="6.92943">
        <ele>464</ele>
        <time>2021-07-29T16:32:33Z</time>
      </trkpt>
      <trkpt lat="47.34326" lon="6.92945">
        <ele>464.2</ele>
        <time>2021-07-29T16:32:34Z</time>
      </trkpt>
      <trkpt lat="47.34324" lon="6.92947">
        <ele>464.4</ele>
        <time>2021-07-29T16:32:35Z</time>
      </trkpt>
      <trkpt lat="47.34323" lon="6.92949">
        <ele>464.4</ele>
        <time>2021-07-29T16:32:36Z</time>
      </trkpt>
      <trkpt lat="47.34321" lon="6.92951">
        <ele>464.6</ele>
        <time>2021-07-29T16:32:37Z</time>
      </trkpt>
      <trkpt lat="47.34319" lon="6.92953">
        <ele>464.6</ele>
        <time>2021-07-29T16:32:38Z</time>
      </trkpt>
      <trkpt lat="47.34318" lon="6.92955">
        <ele>465</ele>
        <time>2021-07-29T16:32:39Z</time>
      </trkpt>
      <trkpt lat="47.34316" lon="6.92957">
        <ele>465</ele>
        <time>2021-07-29T16:32:40Z</time>
      </trkpt>
      <trkpt lat="47.34314" lon="6.9296">
        <ele>465.2</ele>
        <time>2021-07-29T16:32:41Z</time>
      </trkpt>
      <trkpt lat="47.34314" lon="6.92962">
        <ele>465.2</ele>
        <time>2021-07-29T16:32:42Z</time>
      </trkpt>
      <trkpt lat="47.34312" lon="6.92965">
        <ele>465.4</ele>
        <time>2021-07-29T16:32:43Z</time>
      </trkpt>
      <trkpt lat="47.34311" lon="6.92966">
        <ele>465.6</ele>
        <time>2021-07-29T16:32:44Z</time>
      </trkpt>
      <trkpt lat="47.34309" lon="6.92969">
        <ele>465.8</ele>
        <time>2021-07-29T16:32:45Z</time>
      </trkpt>
      <trkpt lat="47.34308" lon="6.92971">
        <ele>466</ele>
        <time>2021-07-29T16:32:46Z</time>
      </trkpt>
      <trkpt lat="47.34306" lon="6.92972">
        <ele>466</ele>
        <time>2021-07-29T16:32:47Z</time>
      </trkpt>
      <trkpt lat="47.34305" lon="6.92974">
        <ele>466.2</ele>
        <time>2021-07-29T16:32:48Z</time>
      </trkpt>
      <trkpt lat="47.34303" lon="6.92976">
        <ele>466.4</ele>
        <time>2021-07-29T16:32:49Z</time>
      </trkpt>
      <trkpt lat="47.34302" lon="6.92978">
        <ele>466.4</ele>
        <time>2021-07-29T16:32:50Z</time>
      </trkpt>
      <trkpt lat="47.343" lon="6.9298">
        <ele>466.6</ele>
        <time>2021-07-29T16:32:51Z</time>
      </trkpt>
      <trkpt lat="47.34298" lon="6.92983">
        <ele>466.8</ele>
        <time>2021-07-29T16:32:52Z</time>
      </trkpt>
      <trkpt lat="47.34296" lon="6.92985">
        <ele>466.8</ele>
        <time>2021-07-29T16:32:53Z</time>
      </trkpt>
      <trkpt lat="47.34294" lon="6.92987">
        <ele>466.8</ele>
        <time>2021-07-29T16:32:54Z</time>
      </trkpt>
      <trkpt lat="47.34293" lon="6.9299">
        <ele>467</ele>
        <time>2021-07-29T16:32:55Z</time>
      </trkpt>
      <trkpt lat="47.34291" lon="6.92992">
        <ele>467.2</ele>
        <time>2021-07-29T16:32:56Z</time>
      </trkpt>
      <trkpt lat="47.34289" lon="6.92994">
        <ele>467.4</ele>
        <time>2021-07-29T16:32:57Z</time>
      </trkpt>
      <trkpt lat="47.34287" lon="6.92996">
        <ele>467.4</ele>
        <time>2021-07-29T16:32:58Z</time>
      </trkpt>
      <trkpt lat="47.34285" lon="6.92998">
        <ele>467.6</ele>
        <time>2021-07-29T16:32:59Z</time>
      </trkpt>
      <trkpt lat="47.34283" lon="6.93001">
        <ele>467.6</ele>
        <time>2021-07-29T16:33:00Z</time>
      </trkpt>
      <trkpt lat="47.34281" lon="6.93003">
        <ele>467.8</ele>
        <time>2021-07-29T16:33:01Z</time>
      </trkpt>
      <trkpt lat="47.34279" lon="6.93005">
        <ele>468</ele>
        <time>2021-07-29T16:33:02Z</time>
      </trkpt>
      <trkpt lat="47.34278" lon="6.93007">
        <ele>468.2</ele>
        <time>2021-07-29T16:33:03Z</time>
      </trkpt>
      <trkpt lat="47.34276" lon="6.9301">
        <ele>468.2</ele>
        <time>2021-07-29T16:33:04Z</time>
      </trkpt>
      <trkpt lat="47.34274" lon="6.93012">
        <ele>468.4</ele>
        <time>2021-07-29T16:33:05Z</time>
      </trkpt>
      <trkpt lat="47.34273" lon="6.93015">
        <ele>468.4</ele>
        <time>2021-07-29T16:33:06Z</time>
      </trkpt>
      <trkpt lat="47.34271" lon="6.93017">
        <ele>468.6</ele>
        <time>2021-07-29T16:33:07Z</time>
      </trkpt>
      <trkpt lat="47.34269" lon="6.9302">
        <ele>468.6</ele>
        <time>2021-07-29T16:33:08Z</time>
      </trkpt>
      <trkpt lat="47.34268" lon="6.93022">
        <ele>468.8</ele>
        <time>2021-07-29T16:33:09Z</time>
      </trkpt>
      <trkpt lat="47.34266" lon="6.93024">
        <ele>469</ele>
        <time>2021-07-29T16:33:10Z</time>
      </trkpt>
      <trkpt lat="47.34264" lon="6.93027">
        <ele>469</ele>
        <time>2021-07-29T16:33:11Z</time>
      </trkpt>
      <trkpt lat="47.34263" lon="6.9303">
        <ele>469.2</ele>
        <time>2021-07-29T16:33:12Z</time>
      </trkpt>
      <trkpt lat="47.34261" lon="6.93032">
        <ele>469.2</ele>
        <time>2021-07-29T16:33:13Z</time>
      </trkpt>
      <trkpt lat="47.3426" lon="6.93035">
        <ele>469.4</ele>
        <time>2021-07-29T16:33:14Z</time>
      </trkpt>
      <trkpt lat="47.34258" lon="6.93038">
        <ele>469.4</ele>
        <time>2021-07-29T16:33:15Z</time>
      </trkpt>
      <trkpt lat="47.34257" lon="6.9304">
        <ele>469.6</ele>
        <time>2021-07-29T16:33:16Z</time>
      </trkpt>
      <trkpt lat="47.34255" lon="6.93043">
        <ele>469.8</ele>
        <time>2021-07-29T16:33:17Z</time>
      </trkpt>
      <trkpt lat="47.34254" lon="6.93046">
        <ele>469.8</ele>
        <time>2021-07-29T16:33:18Z</time>
      </trkpt>
      <trkpt lat="47.34252" lon="6.93049">
        <ele>470</ele>
        <time>2021-07-29T16:33:19Z</time>
      </trkpt>
      <trkpt lat="47.34251" lon="6.93051">
        <ele>470.2</ele>
        <time>2021-07-29T16:33:20Z</time>
      </trkpt>
      <trkpt lat="47.3425" lon="6.93054">
        <ele>470.2</ele>
        <time>2021-07-29T16:33:21Z</time>
      </trkpt>
      <trkpt lat="47.34248" lon="6.93057">
        <ele>470.4</ele>
        <time>2021-07-29T16:33:22Z</time>
      </trkpt>
      <trkpt lat="47.34247" lon="6.9306">
        <ele>470.4</ele>
        <time>2021-07-29T16:33:23Z</time>
      </trkpt>
      <trkpt lat="47.34245" lon="6.93062">
        <ele>470.6</ele>
        <time>2021-07-29T16:33:24Z</time>
      </trkpt>
      <trkpt lat="47.34244" lon="6.93065">
        <ele>470.6</ele>
        <time>2021-07-29T16:33:25Z</time>
      </trkpt>
      <trkpt lat="47.34242" lon="6.93068">
        <ele>470.8</ele>
        <time>2021-07-29T16:33:26Z</time>
      </trkpt>
      <trkpt lat="47.34241" lon="6.93071">
        <ele>471</ele>
        <time>2021-07-29T16:33:27Z</time>
      </trkpt>
      <trkpt lat="47.3424" lon="6.93073">
        <ele>471</ele>
        <time>2021-07-29T16:33:28Z</time>
      </trkpt>
      <trkpt lat="47.34239" lon="6.93076">
        <ele>471.2</ele>
        <time>2021-07-29T16:33:29Z</time>
      </trkpt>
      <trkpt lat="47.34237" lon="6.93078">
        <ele>471.2</ele>
        <time>2021-07-29T16:33:30Z</time>
      </trkpt>
      <trkpt lat="47.34235" lon="6.93081">
        <ele>471.4</ele>
        <time>2021-07-29T16:33:31Z</time>
      </trkpt>
      <trkpt lat="47.34234" lon="6.93084">
        <ele>471.6</ele>
        <time>2021-07-29T16:33:32Z</time>
      </trkpt>
      <trkpt lat="47.34232" lon="6.93086">
        <ele>471.6</ele>
        <time>2021-07-29T16:33:33Z</time>
      </trkpt>
      <trkpt lat="47.34231" lon="6.93089">
        <ele>471.8</ele>
        <time>2021-07-29T16:33:34Z</time>
      </trkpt>
      <trkpt lat="47.3423" lon="6.93092">
        <ele>472</ele>
        <time>2021-07-29T16:33:35Z</time>
      </trkpt>
      <trkpt lat="47.34228" lon="6.93094">
        <ele>472</ele>
        <time>2021-07-29T16:33:36Z</time>
      </trkpt>
      <trkpt lat="47.34226" lon="6.93097">
        <ele>472.2</ele>
        <time>2021-07-29T16:33:37Z</time>
      </trkpt>
      <trkpt lat="47.34225" lon="6.931">
        <ele>472.4</ele>
        <time>2021-07-29T16:33:38Z</time>
      </trkpt>
      <trkpt lat="47.34223" lon="6.93103">
        <ele>472.4</ele>
        <time>2021-07-29T16:33:39Z</time>
      </trkpt>
      <trkpt lat="47.34222" lon="6.93105">
        <ele>472.6</ele>
        <time>2021-07-29T16:33:40Z</time>
      </trkpt>
      <trkpt lat="47.3422" lon="6.93108">
        <ele>472.8</ele>
        <time>2021-07-29T16:33:41Z</time>
      </trkpt>
      <trkpt lat="47.34219" lon="6.9311">
        <ele>472.8</ele>
        <time>2021-07-29T16:33:42Z</time>
      </trkpt>
      <trkpt lat="47.34218" lon="6.93113">
        <ele>473</ele>
        <time>2021-07-29T16:33:43Z</time>
      </trkpt>
      <trkpt lat="47.34217" lon="6.93115">
        <ele>473</ele>
        <time>2021-07-29T16:33:44Z</time>
      </trkpt>
      <trkpt lat="47.34215" lon="6.93118">
        <ele>473.2</ele>
        <time>2021-07-29T16:33:45Z</time>
      </trkpt>
      <trkpt lat="47.34214" lon="6.9312">
        <ele>473.2</ele>
        <time>2021-07-29T16:33:46Z</time>
      </trkpt>
      <trkpt lat="47.34212" lon="6.93123">
        <ele>473.4</ele>
        <time>2021-07-29T16:33:47Z</time>
      </trkpt>
      <trkpt lat="47.34211" lon="6.93126">
        <ele>473.6</ele>
        <time>2021-07-29T16:33:48Z</time>
      </trkpt>
      <trkpt lat="47.34209" lon="6.93128">
        <ele>473.6</ele>
        <time>2021-07-29T16:33:49Z</time>
      </trkpt>
      <trkpt lat="47.34208" lon="6.93131">
        <ele>473.8</ele>
        <time>2021-07-29T16:33:50Z</time>
      </trkpt>
      <trkpt lat="47.34207" lon="6.93133">
        <ele>473.8</ele>
        <time>2021-07-29T16:33:51Z</time>
      </trkpt>
      <trkpt lat="47.34206" lon="6.93136">
        <ele>474</ele>
        <time>2021-07-29T16:33:52Z</time>
      </trkpt>
      <trkpt lat="47.34205" lon="6.93138">
        <ele>474.2</ele>
        <time>2021-07-29T16:33:53Z</time>
      </trkpt>
      <trkpt lat="47.34204" lon="6.9314">
        <ele>474.2</ele>
        <time>2021-07-29T16:33:54Z</time>
      </trkpt>
      <trkpt lat="47.34203" lon="6.93143">
        <ele>474.4</ele>
        <time>2021-07-29T16:33:55Z</time>
      </trkpt>
      <trkpt lat="47.34202" lon="6.93145">
        <ele>474.6</ele>
        <time>2021-07-29T16:33:56Z</time>
      </trkpt>
      <trkpt lat="47.342" lon="6.93148">
        <ele>474.6</ele>
        <time>2021-07-29T16:33:57Z</time>
      </trkpt>
      <trkpt lat="47.34199" lon="6.9315">
        <ele>474.8</ele>
        <time>2021-07-29T16:33:58Z</time>
      </trkpt>
      <trkpt lat="47.34197" lon="6.93152">
        <ele>474.8</ele>
        <time>2021-07-29T16:33:59Z</time>
      </trkpt>
      <trkpt lat="47.34196" lon="6.93154">
        <ele>475</ele>
        <time>2021-07-29T16:34:00Z</time>
      </trkpt>
      <trkpt lat="47.34194" lon="6.93157">
        <ele>475</ele>
        <time>2021-07-29T16:34:01Z</time>
      </trkpt>
      <trkpt lat="47.34193" lon="6.93159">
        <ele>475.2</ele>
        <time>2021-07-29T16:34:02Z</time>
      </trkpt>
      <trkpt lat="47.34192" lon="6.93162">
        <ele>475.4</ele>
        <time>2021-07-29T16:34:03Z</time>
      </trkpt>
      <trkpt lat="47.34191" lon="6.93164">
        <ele>475.4</ele>
        <time>2021-07-29T16:34:04Z</time>
      </trkpt>
      <trkpt lat="47.34189" lon="6.93166">
        <ele>475.6</ele>
        <time>2021-07-29T16:34:05Z</time>
      </trkpt>
      <trkpt lat="47.34188" lon="6.93169">
        <ele>475.6</ele>
        <time>2021-07-29T16:34:06Z</time>
      </trkpt>
      <trkpt lat="47.34187" lon="6.93171">
        <ele>475.8</ele>
        <time>2021-07-29T16:34:07Z</time>
      </trkpt>
      <trkpt lat="47.34185" lon="6.93174">
        <ele>475.8</ele>
        <time>2021-07-29T16:34:08Z</time>
      </trkpt>
      <trkpt lat="47.34184" lon="6.93176">
        <ele>476</ele>
        <time>2021-07-29T16:34:09Z</time>
      </trkpt>
      <trkpt lat="47.34182" lon="6.93179">
        <ele>476</ele>
        <time>2021-07-29T16:34:10Z</time>
      </trkpt>
      <trkpt lat="47.34181" lon="6.93181">
        <ele>476.2</ele>
        <time>2021-07-29T16:34:11Z</time>
      </trkpt>
      <trkpt lat="47.3418" lon="6.93184">
        <ele>476.4</ele>
        <time>2021-07-29T16:34:12Z</time>
      </trkpt>
      <trkpt lat="47.34179" lon="6.93186">
        <ele>476.4</ele>
        <time>2021-07-29T16:34:13Z</time>
      </trkpt>
      <trkpt lat="47.34177" lon="6.93189">
        <ele>476.6</ele>
        <time>2021-07-29T16:34:14Z</time>
      </trkpt>
      <trkpt lat="47.34176" lon="6.93191">
        <ele>476.6</ele>
        <time>2021-07-29T16:34:15Z</time>
      </trkpt>
      <trkpt lat="47.34175" lon="6.93194">
        <ele>476.8</ele>
        <time>2021-07-29T16:34:16Z</time>
      </trkpt>
      <trkpt lat="47.34173" lon="6.93197">
        <ele>476.8</ele>
        <time>2021-07-29T16:34:17Z</time>
      </trkpt>
      <trkpt lat="47.34172" lon="6.932">
        <ele>476.8</ele>
        <time>2021-07-29T16:34:18Z</time>
      </trkpt>
      <trkpt lat="47.34171" lon="6.93203">
        <ele>477</ele>
        <time>2021-07-29T16:34:19Z</time>
      </trkpt>
      <trkpt lat="47.34169" lon="6.93205">
        <ele>477</ele>
        <time>2021-07-29T16:34:20Z</time>
      </trkpt>
      <trkpt lat="47.34168" lon="6.93208">
        <ele>477</ele>
        <time>2021-07-29T16:34:21Z</time>
      </trkpt>
      <trkpt lat="47.34166" lon="6.93211">
        <ele>477.2</ele>
        <time>2021-07-29T16:34:22Z</time>
      </trkpt>
      <trkpt lat="47.34165" lon="6.93215">
        <ele>477.2</ele>
        <time>2021-07-29T16:34:23Z</time>
      </trkpt>
      <trkpt lat="47.34163" lon="6.93218">
        <ele>477.2</ele>
        <time>2021-07-29T16:34:24Z</time>
      </trkpt>
      <trkpt lat="47.34161" lon="6.93221">
        <ele>477.4</ele>
        <time>2021-07-29T16:34:25Z</time>
      </trkpt>
      <trkpt lat="47.3416" lon="6.93224">
        <ele>477.4</ele>
        <time>2021-07-29T16:34:26Z</time>
      </trkpt>
      <trkpt lat="47.34158" lon="6.93228">
        <ele>477.4</ele>
        <time>2021-07-29T16:34:27Z</time>
      </trkpt>
      <trkpt lat="47.34157" lon="6.93232">
        <ele>477.6</ele>
        <time>2021-07-29T16:34:28Z</time>
      </trkpt>
      <trkpt lat="47.34156" lon="6.93237">
        <ele>477.6</ele>
        <time>2021-07-29T16:34:29Z</time>
      </trkpt>
      <trkpt lat="47.34155" lon="6.93241">
        <ele>477.6</ele>
        <time>2021-07-29T16:34:30Z</time>
      </trkpt>
      <trkpt lat="47.34154" lon="6.93245">
        <ele>477.6</ele>
        <time>2021-07-29T16:34:31Z</time>
      </trkpt>
      <trkpt lat="47.34153" lon="6.9325">
        <ele>477.6</ele>
        <time>2021-07-29T16:34:32Z</time>
      </trkpt>
      <trkpt lat="47.34152" lon="6.93254">
        <ele>477.6</ele>
        <time>2021-07-29T16:34:33Z</time>
      </trkpt>
      <trkpt lat="47.34151" lon="6.93258">
        <ele>477.8</ele>
        <time>2021-07-29T16:34:34Z</time>
      </trkpt>
      <trkpt lat="47.3415" lon="6.93263">
        <ele>477.8</ele>
        <time>2021-07-29T16:34:35Z</time>
      </trkpt>
      <trkpt lat="47.34148" lon="6.93268">
        <ele>477.8</ele>
        <time>2021-07-29T16:34:36Z</time>
      </trkpt>
      <trkpt lat="47.34147" lon="6.93272">
        <ele>477.8</ele>
        <time>2021-07-29T16:34:37Z</time>
      </trkpt>
      <trkpt lat="47.34145" lon="6.93277">
        <ele>477.8</ele>
        <time>2021-07-29T16:34:38Z</time>
      </trkpt>
      <trkpt lat="47.34144" lon="6.93282">
        <ele>477.8</ele>
        <time>2021-07-29T16:34:39Z</time>
      </trkpt>
      <trkpt lat="47.34142" lon="6.93287">
        <ele>477.8</ele>
        <time>2021-07-29T16:34:40Z</time>
      </trkpt>
      <trkpt lat="47.3414" lon="6.93292">
        <ele>477.8</ele>
        <time>2021-07-29T16:34:41Z</time>
      </trkpt>
      <trkpt lat="47.34138" lon="6.93297">
        <ele>477.8</ele>
        <time>2021-07-29T16:34:42Z</time>
      </trkpt>
      <trkpt lat="47.34136" lon="6.93302">
        <ele>478</ele>
        <time>2021-07-29T16:34:43Z</time>
      </trkpt>
      <trkpt lat="47.34134" lon="6.93306">
        <ele>478</ele>
        <time>2021-07-29T16:34:44Z</time>
      </trkpt>
      <trkpt lat="47.34131" lon="6.93311">
        <ele>478</ele>
        <time>2021-07-29T16:34:45Z</time>
      </trkpt>
      <trkpt lat="47.34129" lon="6.93315">
        <ele>478</ele>
        <time>2021-07-29T16:34:46Z</time>
      </trkpt>
      <trkpt lat="47.34127" lon="6.93319">
        <ele>478</ele>
        <time>2021-07-29T16:34:47Z</time>
      </trkpt>
      <trkpt lat="47.34124" lon="6.93324">
        <ele>478</ele>
        <time>2021-07-29T16:34:48Z</time>
      </trkpt>
      <trkpt lat="47.34122" lon="6.93328">
        <ele>478.2</ele>
        <time>2021-07-29T16:34:49Z</time>
      </trkpt>
      <trkpt lat="47.3412" lon="6.93333">
        <ele>478.2</ele>
        <time>2021-07-29T16:34:50Z</time>
      </trkpt>
      <trkpt lat="47.34117" lon="6.93337">
        <ele>478.2</ele>
        <time>2021-07-29T16:34:51Z</time>
      </trkpt>
      <trkpt lat="47.34115" lon="6.93341">
        <ele>478.4</ele>
        <time>2021-07-29T16:34:52Z</time>
      </trkpt>
      <trkpt lat="47.34113" lon="6.93345">
        <ele>478.4</ele>
        <time>2021-07-29T16:34:53Z</time>
      </trkpt>
      <trkpt lat="47.34111" lon="6.93349">
        <ele>478.6</ele>
        <time>2021-07-29T16:34:54Z</time>
      </trkpt>
      <trkpt lat="47.34108" lon="6.93353">
        <ele>478.6</ele>
        <time>2021-07-29T16:34:55Z</time>
      </trkpt>
      <trkpt lat="47.34106" lon="6.93357">
        <ele>478.6</ele>
        <time>2021-07-29T16:34:56Z</time>
      </trkpt>
      <trkpt lat="47.34104" lon="6.93361">
        <ele>478.8</ele>
        <time>2021-07-29T16:34:57Z</time>
      </trkpt>
      <trkpt lat="47.34102" lon="6.93364">
        <ele>478.8</ele>
        <time>2021-07-29T16:34:58Z</time>
      </trkpt>
      <trkpt lat="47.341" lon="6.93368">
        <ele>479</ele>
        <time>2021-07-29T16:34:59Z</time>
      </trkpt>
      <trkpt lat="47.34098" lon="6.93372">
        <ele>479</ele>
        <time>2021-07-29T16:35:00Z</time>
      </trkpt>
      <trkpt lat="47.34096" lon="6.93376">
        <ele>479.2</ele>
        <time>2021-07-29T16:35:01Z</time>
      </trkpt>
      <trkpt lat="47.34094" lon="6.93379">
        <ele>479.2</ele>
        <time>2021-07-29T16:35:02Z</time>
      </trkpt>
      <trkpt lat="47.34092" lon="6.93383">
        <ele>479.2</ele>
        <time>2021-07-29T16:35:03Z</time>
      </trkpt>
      <trkpt lat="47.3409" lon="6.93386">
        <ele>479.4</ele>
        <time>2021-07-29T16:35:04Z</time>
      </trkpt>
      <trkpt lat="47.34088" lon="6.9339">
        <ele>479.6</ele>
        <time>2021-07-29T16:35:05Z</time>
      </trkpt>
      <trkpt lat="47.34086" lon="6.93394">
        <ele>479.6</ele>
        <time>2021-07-29T16:35:06Z</time>
      </trkpt>
      <trkpt lat="47.34084" lon="6.93397">
        <ele>479.6</ele>
        <time>2021-07-29T16:35:07Z</time>
      </trkpt>
      <trkpt lat="47.34082" lon="6.93401">
        <ele>479.6</ele>
        <time>2021-07-29T16:35:08Z</time>
      </trkpt>
      <trkpt lat="47.3408" lon="6.93404">
        <ele>479.8</ele>
        <time>2021-07-29T16:35:09Z</time>
      </trkpt>
      <trkpt lat="47.34079" lon="6.93408">
        <ele>479.8</ele>
        <time>2021-07-29T16:35:10Z</time>
      </trkpt>
      <trkpt lat="47.34077" lon="6.93411">
        <ele>479.8</ele>
        <time>2021-07-29T16:35:11Z</time>
      </trkpt>
      <trkpt lat="47.34075" lon="6.93415">
        <ele>480</ele>
        <time>2021-07-29T16:35:12Z</time>
      </trkpt>
      <trkpt lat="47.34073" lon="6.93419">
        <ele>480.2</ele>
        <time>2021-07-29T16:35:13Z</time>
      </trkpt>
      <trkpt lat="47.34071" lon="6.93422">
        <ele>480.2</ele>
        <time>2021-07-29T16:35:14Z</time>
      </trkpt>
      <trkpt lat="47.3407" lon="6.93425">
        <ele>480.4</ele>
        <time>2021-07-29T16:35:15Z</time>
      </trkpt>
      <trkpt lat="47.34068" lon="6.93429">
        <ele>480.4</ele>
        <time>2021-07-29T16:35:16Z</time>
      </trkpt>
      <trkpt lat="47.34066" lon="6.93433">
        <ele>480.6</ele>
        <time>2021-07-29T16:35:17Z</time>
      </trkpt>
      <trkpt lat="47.34065" lon="6.93436">
        <ele>480.6</ele>
        <time>2021-07-29T16:35:18Z</time>
      </trkpt>
      <trkpt lat="47.34063" lon="6.93439">
        <ele>480.8</ele>
        <time>2021-07-29T16:35:19Z</time>
      </trkpt>
      <trkpt lat="47.34061" lon="6.93443">
        <ele>480.8</ele>
        <time>2021-07-29T16:35:20Z</time>
      </trkpt>
      <trkpt lat="47.34059" lon="6.93446">
        <ele>481</ele>
        <time>2021-07-29T16:35:21Z</time>
      </trkpt>
      <trkpt lat="47.34057" lon="6.9345">
        <ele>481</ele>
        <time>2021-07-29T16:35:22Z</time>
      </trkpt>
      <trkpt lat="47.34055" lon="6.93453">
        <ele>481.2</ele>
        <time>2021-07-29T16:35:23Z</time>
      </trkpt>
      <trkpt lat="47.34053" lon="6.93457">
        <ele>481.2</ele>
        <time>2021-07-29T16:35:24Z</time>
      </trkpt>
      <trkpt lat="47.34051" lon="6.9346">
        <ele>481.4</ele>
        <time>2021-07-29T16:35:25Z</time>
      </trkpt>
      <trkpt lat="47.34049" lon="6.93464">
        <ele>481.4</ele>
        <time>2021-07-29T16:35:26Z</time>
      </trkpt>
      <trkpt lat="47.34047" lon="6.93467">
        <ele>481.6</ele>
        <time>2021-07-29T16:35:27Z</time>
      </trkpt>
      <trkpt lat="47.34045" lon="6.93471">
        <ele>481.6</ele>
        <time>2021-07-29T16:35:28Z</time>
      </trkpt>
      <trkpt lat="47.34043" lon="6.93475">
        <ele>481.8</ele>
        <time>2021-07-29T16:35:29Z</time>
      </trkpt>
      <trkpt lat="47.34041" lon="6.93478">
        <ele>481.8</ele>
        <time>2021-07-29T16:35:30Z</time>
      </trkpt>
      <trkpt lat="47.34039" lon="6.93482">
        <ele>482</ele>
        <time>2021-07-29T16:35:31Z</time>
      </trkpt>
      <trkpt lat="47.34037" lon="6.93486">
        <ele>482</ele>
        <time>2021-07-29T16:35:32Z</time>
      </trkpt>
      <trkpt lat="47.34035" lon="6.93489">
        <ele>482</ele>
        <time>2021-07-29T16:35:33Z</time>
      </trkpt>
      <trkpt lat="47.34033" lon="6.93493">
        <ele>482.2</ele>
        <time>2021-07-29T16:35:34Z</time>
      </trkpt>
      <trkpt lat="47.3403" lon="6.93496">
        <ele>482.2</ele>
        <time>2021-07-29T16:35:35Z</time>
      </trkpt>
      <trkpt lat="47.34028" lon="6.935">
        <ele>482.4</ele>
        <time>2021-07-29T16:35:36Z</time>
      </trkpt>
      <trkpt lat="47.34027" lon="6.93503">
        <ele>482.4</ele>
        <time>2021-07-29T16:35:37Z</time>
      </trkpt>
      <trkpt lat="47.34025" lon="6.93507">
        <ele>482.6</ele>
        <time>2021-07-29T16:35:38Z</time>
      </trkpt>
      <trkpt lat="47.34023" lon="6.9351">
        <ele>482.6</ele>
        <time>2021-07-29T16:35:39Z</time>
      </trkpt>
      <trkpt lat="47.34021" lon="6.93513">
        <ele>482.8</ele>
        <time>2021-07-29T16:35:40Z</time>
      </trkpt>
      <trkpt lat="47.34019" lon="6.93516">
        <ele>482.8</ele>
        <time>2021-07-29T16:35:41Z</time>
      </trkpt>
      <trkpt lat="47.34016" lon="6.9352">
        <ele>483</ele>
        <time>2021-07-29T16:35:42Z</time>
      </trkpt>
      <trkpt lat="47.34014" lon="6.93523">
        <ele>483</ele>
        <time>2021-07-29T16:35:43Z</time>
      </trkpt>
      <trkpt lat="47.34012" lon="6.93526">
        <ele>483.2</ele>
        <time>2021-07-29T16:35:44Z</time>
      </trkpt>
      <trkpt lat="47.3401" lon="6.93528">
        <ele>483.2</ele>
        <time>2021-07-29T16:35:45Z</time>
      </trkpt>
      <trkpt lat="47.34007" lon="6.93531">
        <ele>483.4</ele>
        <time>2021-07-29T16:35:46Z</time>
      </trkpt>
      <trkpt lat="47.34005" lon="6.93533">
        <ele>483.4</ele>
        <time>2021-07-29T16:35:47Z</time>
      </trkpt>
      <trkpt lat="47.34003" lon="6.93536">
        <ele>483.6</ele>
        <time>2021-07-29T16:35:48Z</time>
      </trkpt>
      <trkpt lat="47.34" lon="6.93538">
        <ele>483.6</ele>
        <time>2021-07-29T16:35:49Z</time>
      </trkpt>
      <trkpt lat="47.33998" lon="6.9354">
        <ele>483.8</ele>
        <time>2021-07-29T16:35:50Z</time>
      </trkpt>
      <trkpt lat="47.33995" lon="6.93542">
        <ele>483.8</ele>
        <time>2021-07-29T16:35:51Z</time>
      </trkpt>
      <trkpt lat="47.33993" lon="6.93544">
        <ele>483.8</ele>
        <time>2021-07-29T16:35:52Z</time>
      </trkpt>
      <trkpt lat="47.3399" lon="6.93546">
        <ele>484</ele>
        <time>2021-07-29T16:35:53Z</time>
      </trkpt>
      <trkpt lat="47.33987" lon="6.93548">
        <ele>484.2</ele>
        <time>2021-07-29T16:35:54Z</time>
      </trkpt>
      <trkpt lat="47.33985" lon="6.9355">
        <ele>484.2</ele>
        <time>2021-07-29T16:35:55Z</time>
      </trkpt>
      <trkpt lat="47.33983" lon="6.93551">
        <ele>484.4</ele>
        <time>2021-07-29T16:35:56Z</time>
      </trkpt>
      <trkpt lat="47.3398" lon="6.93553">
        <ele>484.4</ele>
        <time>2021-07-29T16:35:57Z</time>
      </trkpt>
      <trkpt lat="47.33978" lon="6.93554">
        <ele>484.6</ele>
        <time>2021-07-29T16:35:58Z</time>
      </trkpt>
      <trkpt lat="47.33976" lon="6.93555">
        <ele>484.6</ele>
        <time>2021-07-29T16:35:59Z</time>
      </trkpt>
      <trkpt lat="47.33973" lon="6.93557">
        <ele>484.6</ele>
        <time>2021-07-29T16:36:00Z</time>
      </trkpt>
      <trkpt lat="47.3397" lon="6.93558">
        <ele>484.8</ele>
        <time>2021-07-29T16:36:01Z</time>
      </trkpt>
      <trkpt lat="47.33968" lon="6.9356">
        <ele>484.8</ele>
        <time>2021-07-29T16:36:02Z</time>
      </trkpt>
      <trkpt lat="47.33965" lon="6.93561">
        <ele>485</ele>
        <time>2021-07-29T16:36:03Z</time>
      </trkpt>
      <trkpt lat="47.33963" lon="6.93563">
        <ele>485</ele>
        <time>2021-07-29T16:36:04Z</time>
      </trkpt>
      <trkpt lat="47.3396" lon="6.93564">
        <ele>485</ele>
        <time>2021-07-29T16:36:05Z</time>
      </trkpt>
      <trkpt lat="47.33957" lon="6.93566">
        <ele>485.2</ele>
        <time>2021-07-29T16:36:06Z</time>
      </trkpt>
      <trkpt lat="47.33954" lon="6.93567">
        <ele>485.2</ele>
        <time>2021-07-29T16:36:07Z</time>
      </trkpt>
      <trkpt lat="47.33952" lon="6.93569">
        <ele>485.4</ele>
        <time>2021-07-29T16:36:08Z</time>
      </trkpt>
      <trkpt lat="47.33949" lon="6.9357">
        <ele>485.6</ele>
        <time>2021-07-29T16:36:09Z</time>
      </trkpt>
      <trkpt lat="47.33946" lon="6.93572">
        <ele>485.6</ele>
        <time>2021-07-29T16:36:10Z</time>
      </trkpt>
      <trkpt lat="47.33943" lon="6.93574">
        <ele>485.6</ele>
        <time>2021-07-29T16:36:11Z</time>
      </trkpt>
      <trkpt lat="47.33941" lon="6.93576">
        <ele>485.8</ele>
        <time>2021-07-29T16:36:12Z</time>
      </trkpt>
      <trkpt lat="47.33939" lon="6.93578">
        <ele>486</ele>
        <time>2021-07-29T16:36:13Z</time>
      </trkpt>
      <trkpt lat="47.33937" lon="6.9358">
        <ele>486</ele>
        <time>2021-07-29T16:36:14Z</time>
      </trkpt>
      <trkpt lat="47.33935" lon="6.93583">
        <ele>486.2</ele>
        <time>2021-07-29T16:36:15Z</time>
      </trkpt>
      <trkpt lat="47.33933" lon="6.93586">
        <ele>486.2</ele>
        <time>2021-07-29T16:36:16Z</time>
      </trkpt>
      <trkpt lat="47.33931" lon="6.93589">
        <ele>486.4</ele>
        <time>2021-07-29T16:36:17Z</time>
      </trkpt>
      <trkpt lat="47.33929" lon="6.93593">
        <ele>486.6</ele>
        <time>2021-07-29T16:36:18Z</time>
      </trkpt>
      <trkpt lat="47.33927" lon="6.93597">
        <ele>486.6</ele>
        <time>2021-07-29T16:36:19Z</time>
      </trkpt>
      <trkpt lat="47.33925" lon="6.936">
        <ele>486.6</ele>
        <time>2021-07-29T16:36:20Z</time>
      </trkpt>
      <trkpt lat="47.33924" lon="6.93604">
        <ele>486.8</ele>
        <time>2021-07-29T16:36:21Z</time>
      </trkpt>
      <trkpt lat="47.33923" lon="6.93608">
        <ele>487</ele>
        <time>2021-07-29T16:36:22Z</time>
      </trkpt>
      <trkpt lat="47.33922" lon="6.93613">
        <ele>487</ele>
        <time>2021-07-29T16:36:23Z</time>
      </trkpt>
      <trkpt lat="47.33922" lon="6.93617">
        <ele>487.2</ele>
        <time>2021-07-29T16:36:24Z</time>
      </trkpt>
      <trkpt lat="47.33921" lon="6.93622">
        <ele>487.2</ele>
        <time>2021-07-29T16:36:25Z</time>
      </trkpt>
      <trkpt lat="47.33921" lon="6.93626">
        <ele>487.4</ele>
        <time>2021-07-29T16:36:26Z</time>
      </trkpt>
      <trkpt lat="47.33921" lon="6.93631">
        <ele>487.4</ele>
        <time>2021-07-29T16:36:27Z</time>
      </trkpt>
      <trkpt lat="47.33922" lon="6.93636">
        <ele>487.4</ele>
        <time>2021-07-29T16:36:28Z</time>
      </trkpt>
      <trkpt lat="47.33923" lon="6.9364">
        <ele>487.4</ele>
        <time>2021-07-29T16:36:29Z</time>
      </trkpt>
      <trkpt lat="47.33923" lon="6.93645">
        <ele>487.4</ele>
        <time>2021-07-29T16:36:30Z</time>
      </trkpt>
      <trkpt lat="47.33924" lon="6.93649">
        <ele>487.6</ele>
        <time>2021-07-29T16:36:31Z</time>
      </trkpt>
      <trkpt lat="47.33926" lon="6.93654">
        <ele>487.6</ele>
        <time>2021-07-29T16:36:32Z</time>
      </trkpt>
      <trkpt lat="47.33927" lon="6.93659">
        <ele>487.6</ele>
        <time>2021-07-29T16:36:33Z</time>
      </trkpt>
      <trkpt lat="47.33928" lon="6.93664">
        <ele>487.6</ele>
        <time>2021-07-29T16:36:34Z</time>
      </trkpt>
      <trkpt lat="47.3393" lon="6.93668">
        <ele>487.6</ele>
        <time>2021-07-29T16:36:35Z</time>
      </trkpt>
      <trkpt lat="47.33931" lon="6.93674">
        <ele>487.6</ele>
        <time>2021-07-29T16:36:36Z</time>
      </trkpt>
      <trkpt lat="47.33933" lon="6.93678">
        <ele>487.6</ele>
        <time>2021-07-29T16:36:37Z</time>
      </trkpt>
      <trkpt lat="47.33936" lon="6.93683">
        <ele>487.8</ele>
        <time>2021-07-29T16:36:38Z</time>
      </trkpt>
      <trkpt lat="47.33938" lon="6.93688">
        <ele>487.8</ele>
        <time>2021-07-29T16:36:39Z</time>
      </trkpt>
      <trkpt lat="47.3394" lon="6.93693">
        <ele>487.8</ele>
        <time>2021-07-29T16:36:40Z</time>
      </trkpt>
      <trkpt lat="47.33942" lon="6.93698">
        <ele>487.8</ele>
        <time>2021-07-29T16:36:41Z</time>
      </trkpt>
      <trkpt lat="47.33944" lon="6.93703">
        <ele>487.8</ele>
        <time>2021-07-29T16:36:42Z</time>
      </trkpt>
      <trkpt lat="47.33946" lon="6.93708">
        <ele>487.8</ele>
        <time>2021-07-29T16:36:43Z</time>
      </trkpt>
      <trkpt lat="47.33948" lon="6.93714">
        <ele>488</ele>
        <time>2021-07-29T16:36:44Z</time>
      </trkpt>
      <trkpt lat="47.3395" lon="6.93719">
        <ele>488</ele>
        <time>2021-07-29T16:36:45Z</time>
      </trkpt>
      <trkpt lat="47.33952" lon="6.93724">
        <ele>488</ele>
        <time>2021-07-29T16:36:46Z</time>
      </trkpt>
      <trkpt lat="47.33954" lon="6.9373">
        <ele>488</ele>
        <time>2021-07-29T16:36:47Z</time>
      </trkpt>
      <trkpt lat="47.33955" lon="6.93736">
        <ele>488</ele>
        <time>2021-07-29T16:36:48Z</time>
      </trkpt>
      <trkpt lat="47.33957" lon="6.93741">
        <ele>488</ele>
        <time>2021-07-29T16:36:49Z</time>
      </trkpt>
      <trkpt lat="47.33958" lon="6.93747">
        <ele>488</ele>
        <time>2021-07-29T16:36:50Z</time>
      </trkpt>
      <trkpt lat="47.3396" lon="6.93753">
        <ele>488</ele>
        <time>2021-07-29T16:36:51Z</time>
      </trkpt>
      <trkpt lat="47.33961" lon="6.93759">
        <ele>488</ele>
        <time>2021-07-29T16:36:52Z</time>
      </trkpt>
      <trkpt lat="47.33962" lon="6.93766">
        <ele>488</ele>
        <time>2021-07-29T16:36:53Z</time>
      </trkpt>
      <trkpt lat="47.33963" lon="6.93772">
        <ele>488</ele>
        <time>2021-07-29T16:36:54Z</time>
      </trkpt>
      <trkpt lat="47.33964" lon="6.93778">
        <ele>488</ele>
        <time>2021-07-29T16:36:55Z</time>
      </trkpt>
      <trkpt lat="47.33965" lon="6.93784">
        <ele>488</ele>
        <time>2021-07-29T16:36:56Z</time>
      </trkpt>
      <trkpt lat="47.33966" lon="6.93789">
        <ele>488</ele>
        <time>2021-07-29T16:36:57Z</time>
      </trkpt>
      <trkpt lat="47.33968" lon="6.93795">
        <ele>488</ele>
        <time>2021-07-29T16:36:58Z</time>
      </trkpt>
      <trkpt lat="47.33969" lon="6.938">
        <ele>488</ele>
        <time>2021-07-29T16:36:59Z</time>
      </trkpt>
      <trkpt lat="47.33971" lon="6.93806">
        <ele>487.8</ele>
        <time>2021-07-29T16:37:00Z</time>
      </trkpt>
      <trkpt lat="47.33973" lon="6.93812">
        <ele>487.8</ele>
        <time>2021-07-29T16:37:01Z</time>
      </trkpt>
      <trkpt lat="47.33976" lon="6.93817">
        <ele>488</ele>
        <time>2021-07-29T16:37:02Z</time>
      </trkpt>
      <trkpt lat="47.33977" lon="6.93822">
        <ele>488</ele>
        <time>2021-07-29T16:37:03Z</time>
      </trkpt>
      <trkpt lat="47.33979" lon="6.93828">
        <ele>488</ele>
        <time>2021-07-29T16:37:04Z</time>
      </trkpt>
      <trkpt lat="47.33981" lon="6.93835">
        <ele>488</ele>
        <time>2021-07-29T16:37:05Z</time>
      </trkpt>
      <trkpt lat="47.33983" lon="6.9384">
        <ele>488</ele>
        <time>2021-07-29T16:37:06Z</time>
      </trkpt>
      <trkpt lat="47.33984" lon="6.93846">
        <ele>488.2</ele>
        <time>2021-07-29T16:37:07Z</time>
      </trkpt>
      <trkpt lat="47.33986" lon="6.93851">
        <ele>488.2</ele>
        <time>2021-07-29T16:37:08Z</time>
      </trkpt>
      <trkpt lat="47.33987" lon="6.93857">
        <ele>488.2</ele>
        <time>2021-07-29T16:37:09Z</time>
      </trkpt>
      <trkpt lat="47.33988" lon="6.93863">
        <ele>488.2</ele>
        <time>2021-07-29T16:37:10Z</time>
      </trkpt>
      <trkpt lat="47.33988" lon="6.93869">
        <ele>488.2</ele>
        <time>2021-07-29T16:37:11Z</time>
      </trkpt>
      <trkpt lat="47.33989" lon="6.93876">
        <ele>488.2</ele>
        <time>2021-07-29T16:37:12Z</time>
      </trkpt>
      <trkpt lat="47.33989" lon="6.93882">
        <ele>488.2</ele>
        <time>2021-07-29T16:37:13Z</time>
      </trkpt>
      <trkpt lat="47.33989" lon="6.93889">
        <ele>488.4</ele>
        <time>2021-07-29T16:37:14Z</time>
      </trkpt>
      <trkpt lat="47.33989" lon="6.93895">
        <ele>488.4</ele>
        <time>2021-07-29T16:37:15Z</time>
      </trkpt>
      <trkpt lat="47.33989" lon="6.93902">
        <ele>488.4</ele>
        <time>2021-07-29T16:37:16Z</time>
      </trkpt>
      <trkpt lat="47.33989" lon="6.93908">
        <ele>488.4</ele>
        <time>2021-07-29T16:37:17Z</time>
      </trkpt>
      <trkpt lat="47.33989" lon="6.93915">
        <ele>488.4</ele>
        <time>2021-07-29T16:37:18Z</time>
      </trkpt>
      <trkpt lat="47.33988" lon="6.93922">
        <ele>488.4</ele>
        <time>2021-07-29T16:37:19Z</time>
      </trkpt>
      <trkpt lat="47.33988" lon="6.93929">
        <ele>488.4</ele>
        <time>2021-07-29T16:37:20Z</time>
      </trkpt>
      <trkpt lat="47.33988" lon="6.93936">
        <ele>488.6</ele>
        <time>2021-07-29T16:37:21Z</time>
      </trkpt>
      <trkpt lat="47.33988" lon="6.93943">
        <ele>488.6</ele>
        <time>2021-07-29T16:37:22Z</time>
      </trkpt>
      <trkpt lat="47.33988" lon="6.9395">
        <ele>488.6</ele>
        <time>2021-07-29T16:37:23Z</time>
      </trkpt>
      <trkpt lat="47.33988" lon="6.93957">
        <ele>488.6</ele>
        <time>2021-07-29T16:37:24Z</time>
      </trkpt>
      <trkpt lat="47.33989" lon="6.93964">
        <ele>488.6</ele>
        <time>2021-07-29T16:37:25Z</time>
      </trkpt>
      <trkpt lat="47.33989" lon="6.93971">
        <ele>488.6</ele>
        <time>2021-07-29T16:37:26Z</time>
      </trkpt>
      <trkpt lat="47.3399" lon="6.93978">
        <ele>488.6</ele>
        <time>2021-07-29T16:37:27Z</time>
      </trkpt>
      <trkpt lat="47.3399" lon="6.93984">
        <ele>488.6</ele>
        <time>2021-07-29T16:37:28Z</time>
      </trkpt>
      <trkpt lat="47.33992" lon="6.93991">
        <ele>488.6</ele>
        <time>2021-07-29T16:37:29Z</time>
      </trkpt>
      <trkpt lat="47.33993" lon="6.93997">
        <ele>488.8</ele>
        <time>2021-07-29T16:37:30Z</time>
      </trkpt>
      <trkpt lat="47.33994" lon="6.94003">
        <ele>488.8</ele>
        <time>2021-07-29T16:37:31Z</time>
      </trkpt>
      <trkpt lat="47.33996" lon="6.94009">
        <ele>489</ele>
        <time>2021-07-29T16:37:32Z</time>
      </trkpt>
      <trkpt lat="47.33997" lon="6.94014">
        <ele>489</ele>
        <time>2021-07-29T16:37:33Z</time>
      </trkpt>
      <trkpt lat="47.34" lon="6.94018">
        <ele>489.2</ele>
        <time>2021-07-29T16:37:34Z</time>
      </trkpt>
      <trkpt lat="47.34002" lon="6.94023">
        <ele>489.2</ele>
        <time>2021-07-29T16:37:35Z</time>
      </trkpt>
      <trkpt lat="47.34004" lon="6.94028">
        <ele>489.2</ele>
        <time>2021-07-29T16:37:36Z</time>
      </trkpt>
      <trkpt lat="47.34005" lon="6.94034">
        <ele>489.2</ele>
        <time>2021-07-29T16:37:37Z</time>
      </trkpt>
      <trkpt lat="47.34007" lon="6.94039">
        <ele>489.2</ele>
        <time>2021-07-29T16:37:38Z</time>
      </trkpt>
      <trkpt lat="47.34008" lon="6.94045">
        <ele>489.4</ele>
        <time>2021-07-29T16:37:39Z</time>
      </trkpt>
      <trkpt lat="47.34009" lon="6.94051">
        <ele>489.2</ele>
        <time>2021-07-29T16:37:40Z</time>
      </trkpt>
      <trkpt lat="47.3401" lon="6.94057">
        <ele>489.2</ele>
        <time>2021-07-29T16:37:41Z</time>
      </trkpt>
      <trkpt lat="47.3401" lon="6.94064">
        <ele>489.4</ele>
        <time>2021-07-29T16:37:42Z</time>
      </trkpt>
      <trkpt lat="47.3401" lon="6.94072">
        <ele>489.2</ele>
        <time>2021-07-29T16:37:43Z</time>
      </trkpt>
      <trkpt lat="47.34009" lon="6.94079">
        <ele>489.4</ele>
        <time>2021-07-29T16:37:44Z</time>
      </trkpt>
      <trkpt lat="47.34008" lon="6.94085">
        <ele>489.4</ele>
        <time>2021-07-29T16:37:45Z</time>
      </trkpt>
      <trkpt lat="47.34007" lon="6.94092">
        <ele>489.4</ele>
        <time>2021-07-29T16:37:46Z</time>
      </trkpt>
      <trkpt lat="47.34005" lon="6.94098">
        <ele>489.4</ele>
        <time>2021-07-29T16:37:47Z</time>
      </trkpt>
      <trkpt lat="47.34003" lon="6.94104">
        <ele>489.4</ele>
        <time>2021-07-29T16:37:48Z</time>
      </trkpt>
      <trkpt lat="47.34002" lon="6.9411">
        <ele>489.4</ele>
        <time>2021-07-29T16:37:49Z</time>
      </trkpt>
      <trkpt lat="47.34001" lon="6.94116">
        <ele>489.4</ele>
        <time>2021-07-29T16:37:50Z</time>
      </trkpt>
      <trkpt lat="47.33999" lon="6.94123">
        <ele>489.4</ele>
        <time>2021-07-29T16:37:51Z</time>
      </trkpt>
      <trkpt lat="47.33998" lon="6.94129">
        <ele>489.4</ele>
        <time>2021-07-29T16:37:52Z</time>
      </trkpt>
      <trkpt lat="47.33997" lon="6.94136">
        <ele>489.4</ele>
        <time>2021-07-29T16:37:53Z</time>
      </trkpt>
      <trkpt lat="47.33997" lon="6.94143">
        <ele>489.4</ele>
        <time>2021-07-29T16:37:54Z</time>
      </trkpt>
      <trkpt lat="47.33996" lon="6.9415">
        <ele>489.4</ele>
        <time>2021-07-29T16:37:55Z</time>
      </trkpt>
      <trkpt lat="47.33995" lon="6.94157">
        <ele>489.4</ele>
        <time>2021-07-29T16:37:56Z</time>
      </trkpt>
      <trkpt lat="47.33995" lon="6.94165">
        <ele>489.4</ele>
        <time>2021-07-29T16:37:57Z</time>
      </trkpt>
      <trkpt lat="47.33995" lon="6.94172">
        <ele>489.4</ele>
        <time>2021-07-29T16:37:58Z</time>
      </trkpt>
      <trkpt lat="47.33995" lon="6.94179">
        <ele>489.4</ele>
        <time>2021-07-29T16:37:59Z</time>
      </trkpt>
      <trkpt lat="47.33994" lon="6.94187">
        <ele>489.4</ele>
        <time>2021-07-29T16:38:00Z</time>
      </trkpt>
      <trkpt lat="47.33994" lon="6.94195">
        <ele>489.4</ele>
        <time>2021-07-29T16:38:01Z</time>
      </trkpt>
      <trkpt lat="47.33994" lon="6.94202">
        <ele>489.4</ele>
        <time>2021-07-29T16:38:02Z</time>
      </trkpt>
      <trkpt lat="47.33995" lon="6.9421">
        <ele>489.4</ele>
        <time>2021-07-29T16:38:03Z</time>
      </trkpt>
      <trkpt lat="47.33995" lon="6.94217">
        <ele>489.4</ele>
        <time>2021-07-29T16:38:04Z</time>
      </trkpt>
      <trkpt lat="47.33995" lon="6.94225">
        <ele>489.4</ele>
        <time>2021-07-29T16:38:05Z</time>
      </trkpt>
      <trkpt lat="47.33996" lon="6.94233">
        <ele>489.2</ele>
        <time>2021-07-29T16:38:06Z</time>
      </trkpt>
      <trkpt lat="47.33996" lon="6.94241">
        <ele>489.2</ele>
        <time>2021-07-29T16:38:07Z</time>
      </trkpt>
      <trkpt lat="47.33995" lon="6.94249">
        <ele>489.2</ele>
        <time>2021-07-29T16:38:08Z</time>
      </trkpt>
      <trkpt lat="47.33994" lon="6.94257">
        <ele>489.2</ele>
        <time>2021-07-29T16:38:09Z</time>
      </trkpt>
      <trkpt lat="47.33993" lon="6.94264">
        <ele>489.2</ele>
        <time>2021-07-29T16:38:10Z</time>
      </trkpt>
      <trkpt lat="47.33991" lon="6.94271">
        <ele>489.2</ele>
        <time>2021-07-29T16:38:11Z</time>
      </trkpt>
      <trkpt lat="47.33988" lon="6.94278">
        <ele>489.2</ele>
        <time>2021-07-29T16:38:12Z</time>
      </trkpt>
      <trkpt lat="47.33986" lon="6.94285">
        <ele>489.4</ele>
        <time>2021-07-29T16:38:13Z</time>
      </trkpt>
      <trkpt lat="47.33984" lon="6.94292">
        <ele>489.2</ele>
        <time>2021-07-29T16:38:14Z</time>
      </trkpt>
      <trkpt lat="47.33982" lon="6.94299">
        <ele>489.2</ele>
        <time>2021-07-29T16:38:15Z</time>
      </trkpt>
      <trkpt lat="47.3398" lon="6.94306">
        <ele>489.2</ele>
        <time>2021-07-29T16:38:16Z</time>
      </trkpt>
      <trkpt lat="47.33978" lon="6.94313">
        <ele>489.2</ele>
        <time>2021-07-29T16:38:17Z</time>
      </trkpt>
      <trkpt lat="47.33977" lon="6.94321">
        <ele>489</ele>
        <time>2021-07-29T16:38:18Z</time>
      </trkpt>
      <trkpt lat="47.33976" lon="6.94329">
        <ele>489</ele>
        <time>2021-07-29T16:38:19Z</time>
      </trkpt>
      <trkpt lat="47.33975" lon="6.94337">
        <ele>488.8</ele>
        <time>2021-07-29T16:38:20Z</time>
      </trkpt>
      <trkpt lat="47.33974" lon="6.94345">
        <ele>488.8</ele>
        <time>2021-07-29T16:38:21Z</time>
      </trkpt>
      <trkpt lat="47.33974" lon="6.94352">
        <ele>488.8</ele>
        <time>2021-07-29T16:38:22Z</time>
      </trkpt>
      <trkpt lat="47.33974" lon="6.9436">
        <ele>488.8</ele>
        <time>2021-07-29T16:38:23Z</time>
      </trkpt>
      <trkpt lat="47.33975" lon="6.94368">
        <ele>488.6</ele>
        <time>2021-07-29T16:38:24Z</time>
      </trkpt>
      <trkpt lat="47.33975" lon="6.94377">
        <ele>488.6</ele>
        <time>2021-07-29T16:38:25Z</time>
      </trkpt>
      <trkpt lat="47.33976" lon="6.94385">
        <ele>488.6</ele>
        <time>2021-07-29T16:38:26Z</time>
      </trkpt>
      <trkpt lat="47.33976" lon="6.94393">
        <ele>488.4</ele>
        <time>2021-07-29T16:38:27Z</time>
      </trkpt>
      <trkpt lat="47.33977" lon="6.94402">
        <ele>488.4</ele>
        <time>2021-07-29T16:38:28Z</time>
      </trkpt>
      <trkpt lat="47.33978" lon="6.9441">
        <ele>488.4</ele>
        <time>2021-07-29T16:38:29Z</time>
      </trkpt>
      <trkpt lat="47.33978" lon="6.94419">
        <ele>488.2</ele>
        <time>2021-07-29T16:38:30Z</time>
      </trkpt>
      <trkpt lat="47.3398" lon="6.94427">
        <ele>488.2</ele>
        <time>2021-07-29T16:38:31Z</time>
      </trkpt>
      <trkpt lat="47.33981" lon="6.94436">
        <ele>488</ele>
        <time>2021-07-29T16:38:32Z</time>
      </trkpt>
      <trkpt lat="47.33982" lon="6.94444">
        <ele>488</ele>
        <time>2021-07-29T16:38:33Z</time>
      </trkpt>
      <trkpt lat="47.33983" lon="6.94453">
        <ele>488</ele>
        <time>2021-07-29T16:38:34Z</time>
      </trkpt>
      <trkpt lat="47.33983" lon="6.94461">
        <ele>488</ele>
        <time>2021-07-29T16:38:35Z</time>
      </trkpt>
      <trkpt lat="47.33984" lon="6.9447">
        <ele>487.8</ele>
        <time>2021-07-29T16:38:36Z</time>
      </trkpt>
      <trkpt lat="47.33985" lon="6.94478">
        <ele>487.8</ele>
        <time>2021-07-29T16:38:37Z</time>
      </trkpt>
      <trkpt lat="47.33985" lon="6.94487">
        <ele>487.8</ele>
        <time>2021-07-29T16:38:38Z</time>
      </trkpt>
      <trkpt lat="47.33986" lon="6.94495">
        <ele>487.6</ele>
        <time>2021-07-29T16:38:39Z</time>
      </trkpt>
      <trkpt lat="47.33987" lon="6.94503">
        <ele>487.6</ele>
        <time>2021-07-29T16:38:40Z</time>
      </trkpt>
      <trkpt lat="47.33987" lon="6.94512">
        <ele>487.4</ele>
        <time>2021-07-29T16:38:41Z</time>
      </trkpt>
      <trkpt lat="47.33986" lon="6.94521">
        <ele>487.4</ele>
        <time>2021-07-29T16:38:42Z</time>
      </trkpt>
      <trkpt lat="47.33986" lon="6.9453">
        <ele>487.2</ele>
        <time>2021-07-29T16:38:43Z</time>
      </trkpt>
      <trkpt lat="47.33986" lon="6.94539">
        <ele>487.2</ele>
        <time>2021-07-29T16:38:44Z</time>
      </trkpt>
      <trkpt lat="47.33986" lon="6.94549">
        <ele>487.2</ele>
        <time>2021-07-29T16:38:45Z</time>
      </trkpt>
      <trkpt lat="47.33987" lon="6.94558">
        <ele>487</ele>
        <time>2021-07-29T16:38:46Z</time>
      </trkpt>
      <trkpt lat="47.33988" lon="6.94567">
        <ele>487</ele>
        <time>2021-07-29T16:38:47Z</time>
      </trkpt>
      <trkpt lat="47.33988" lon="6.94576">
        <ele>487</ele>
        <time>2021-07-29T16:38:48Z</time>
      </trkpt>
      <trkpt lat="47.33988" lon="6.94585">
        <ele>487</ele>
        <time>2021-07-29T16:38:49Z</time>
      </trkpt>
      <trkpt lat="47.33988" lon="6.94594">
        <ele>487</ele>
        <time>2021-07-29T16:38:50Z</time>
      </trkpt>
      <trkpt lat="47.33988" lon="6.94604">
        <ele>486.8</ele>
        <time>2021-07-29T16:38:51Z</time>
      </trkpt>
      <trkpt lat="47.33989" lon="6.94612">
        <ele>486.8</ele>
        <time>2021-07-29T16:38:52Z</time>
      </trkpt>
      <trkpt lat="47.3399" lon="6.94621">
        <ele>486.6</ele>
        <time>2021-07-29T16:38:53Z</time>
      </trkpt>
      <trkpt lat="47.33992" lon="6.9463">
        <ele>486.6</ele>
        <time>2021-07-29T16:38:54Z</time>
      </trkpt>
      <trkpt lat="47.33994" lon="6.94638">
        <ele>486.6</ele>
        <time>2021-07-29T16:38:55Z</time>
      </trkpt>
      <trkpt lat="47.33996" lon="6.94647">
        <ele>486.6</ele>
        <time>2021-07-29T16:38:56Z</time>
      </trkpt>
      <trkpt lat="47.33998" lon="6.94656">
        <ele>486.4</ele>
        <time>2021-07-29T16:38:57Z</time>
      </trkpt>
      <trkpt lat="47.34001" lon="6.94664">
        <ele>486.4</ele>
        <time>2021-07-29T16:38:58Z</time>
      </trkpt>
      <trkpt lat="47.34003" lon="6.94673">
        <ele>486.2</ele>
        <time>2021-07-29T16:38:59Z</time>
      </trkpt>
      <trkpt lat="47.34006" lon="6.94681">
        <ele>486.2</ele>
        <time>2021-07-29T16:39:00Z</time>
      </trkpt>
      <trkpt lat="47.34008" lon="6.9469">
        <ele>486.2</ele>
        <time>2021-07-29T16:39:01Z</time>
      </trkpt>
      <trkpt lat="47.34011" lon="6.94699">
        <ele>486</ele>
        <time>2021-07-29T16:39:02Z</time>
      </trkpt>
      <trkpt lat="47.34013" lon="6.94708">
        <ele>485.8</ele>
        <time>2021-07-29T16:39:03Z</time>
      </trkpt>
      <trkpt lat="47.34016" lon="6.94716">
        <ele>485.8</ele>
        <time>2021-07-29T16:39:04Z</time>
      </trkpt>
      <trkpt lat="47.34019" lon="6.94725">
        <ele>485.6</ele>
        <time>2021-07-29T16:39:05Z</time>
      </trkpt>
      <trkpt lat="47.34022" lon="6.94734">
        <ele>485.6</ele>
        <time>2021-07-29T16:39:06Z</time>
      </trkpt>
      <trkpt lat="47.34024" lon="6.94743">
        <ele>485.4</ele>
        <time>2021-07-29T16:39:07Z</time>
      </trkpt>
      <trkpt lat="47.34027" lon="6.94752">
        <ele>485.2</ele>
        <time>2021-07-29T16:39:08Z</time>
      </trkpt>
      <trkpt lat="47.3403" lon="6.9476">
        <ele>485.2</ele>
        <time>2021-07-29T16:39:09Z</time>
      </trkpt>
      <trkpt lat="47.34033" lon="6.94769">
        <ele>485</ele>
        <time>2021-07-29T16:39:10Z</time>
      </trkpt>
      <trkpt lat="47.34036" lon="6.94777">
        <ele>485</ele>
        <time>2021-07-29T16:39:11Z</time>
      </trkpt>
      <trkpt lat="47.34039" lon="6.94786">
        <ele>484.8</ele>
        <time>2021-07-29T16:39:12Z</time>
      </trkpt>
      <trkpt lat="47.34042" lon="6.94794">
        <ele>484.8</ele>
        <time>2021-07-29T16:39:13Z</time>
      </trkpt>
      <trkpt lat="47.34045" lon="6.94802">
        <ele>484.4</ele>
        <time>2021-07-29T16:39:14Z</time>
      </trkpt>
      <trkpt lat="47.34049" lon="6.94809">
        <ele>484.2</ele>
        <time>2021-07-29T16:39:15Z</time>
      </trkpt>
      <trkpt lat="47.34053" lon="6.94817">
        <ele>484</ele>
        <time>2021-07-29T16:39:16Z</time>
      </trkpt>
      <trkpt lat="47.34058" lon="6.94826">
        <ele>483.4</ele>
        <time>2021-07-29T16:39:17Z</time>
      </trkpt>
      <trkpt lat="47.34062" lon="6.94835">
        <ele>483</ele>
        <time>2021-07-29T16:39:18Z</time>
      </trkpt>
      <trkpt lat="47.34067" lon="6.94844">
        <ele>482.8</ele>
        <time>2021-07-29T16:39:19Z</time>
      </trkpt>
      <trkpt lat="47.34072" lon="6.94854">
        <ele>482.2</ele>
        <time>2021-07-29T16:39:20Z</time>
      </trkpt>
      <trkpt lat="47.34077" lon="6.94863">
        <ele>481.8</ele>
        <time>2021-07-29T16:39:21Z</time>
      </trkpt>
      <trkpt lat="47.34082" lon="6.94873">
        <ele>481.4</ele>
        <time>2021-07-29T16:39:22Z</time>
      </trkpt>
      <trkpt lat="47.34087" lon="6.94883">
        <ele>481</ele>
        <time>2021-07-29T16:39:23Z</time>
      </trkpt>
      <trkpt lat="47.34092" lon="6.94894">
        <ele>480.6</ele>
        <time>2021-07-29T16:39:24Z</time>
      </trkpt>
      <trkpt lat="47.34097" lon="6.94904">
        <ele>480.2</ele>
        <time>2021-07-29T16:39:25Z</time>
      </trkpt>
      <trkpt lat="47.34102" lon="6.94914">
        <ele>480</ele>
        <time>2021-07-29T16:39:26Z</time>
      </trkpt>
      <trkpt lat="47.34108" lon="6.94924">
        <ele>479.6</ele>
        <time>2021-07-29T16:39:27Z</time>
      </trkpt>
      <trkpt lat="47.34114" lon="6.94934">
        <ele>479.2</ele>
        <time>2021-07-29T16:39:28Z</time>
      </trkpt>
      <trkpt lat="47.3412" lon="6.94943">
        <ele>478.8</ele>
        <time>2021-07-29T16:39:29Z</time>
      </trkpt>
      <trkpt lat="47.34128" lon="6.94952">
        <ele>478.4</ele>
        <time>2021-07-29T16:39:30Z</time>
      </trkpt>
      <trkpt lat="47.34136" lon="6.94959">
        <ele>477.8</ele>
        <time>2021-07-29T16:39:31Z</time>
      </trkpt>
      <trkpt lat="47.34144" lon="6.94966">
        <ele>477.4</ele>
        <time>2021-07-29T16:39:32Z</time>
      </trkpt>
      <trkpt lat="47.34153" lon="6.94973">
        <ele>477</ele>
        <time>2021-07-29T16:39:33Z</time>
      </trkpt>
      <trkpt lat="47.34162" lon="6.94978">
        <ele>476.4</ele>
        <time>2021-07-29T16:39:34Z</time>
      </trkpt>
      <trkpt lat="47.34171" lon="6.94985">
        <ele>476</ele>
        <time>2021-07-29T16:39:35Z</time>
      </trkpt>
      <trkpt lat="47.3418" lon="6.94994">
        <ele>475.2</ele>
        <time>2021-07-29T16:39:36Z</time>
      </trkpt>
      <trkpt lat="47.34187" lon="6.95004">
        <ele>474.6</ele>
        <time>2021-07-29T16:39:37Z</time>
      </trkpt>
      <trkpt lat="47.34194" lon="6.95016">
        <ele>473.8</ele>
        <time>2021-07-29T16:39:38Z</time>
      </trkpt>
      <trkpt lat="47.342" lon="6.95028">
        <ele>473.4</ele>
        <time>2021-07-29T16:39:39Z</time>
      </trkpt>
      <trkpt lat="47.34205" lon="6.95042">
        <ele>472.8</ele>
        <time>2021-07-29T16:39:40Z</time>
      </trkpt>
      <trkpt lat="47.34209" lon="6.95056">
        <ele>472.2</ele>
        <time>2021-07-29T16:39:41Z</time>
      </trkpt>
      <trkpt lat="47.34213" lon="6.95071">
        <ele>471.6</ele>
        <time>2021-07-29T16:39:42Z</time>
      </trkpt>
      <trkpt lat="47.34217" lon="6.95085">
        <ele>471.2</ele>
        <time>2021-07-29T16:39:43Z</time>
      </trkpt>
      <trkpt lat="47.34221" lon="6.951">
        <ele>470.8</ele>
        <time>2021-07-29T16:39:44Z</time>
      </trkpt>
      <trkpt lat="47.34225" lon="6.95114">
        <ele>470.4</ele>
        <time>2021-07-29T16:39:45Z</time>
      </trkpt>
      <trkpt lat="47.3423" lon="6.95128">
        <ele>470.2</ele>
        <time>2021-07-29T16:39:46Z</time>
      </trkpt>
      <trkpt lat="47.34235" lon="6.95141">
        <ele>469.8</ele>
        <time>2021-07-29T16:39:47Z</time>
      </trkpt>
      <trkpt lat="47.3424" lon="6.95154">
        <ele>469.6</ele>
        <time>2021-07-29T16:39:48Z</time>
      </trkpt>
      <trkpt lat="47.34244" lon="6.95168">
        <ele>469.2</ele>
        <time>2021-07-29T16:39:49Z</time>
      </trkpt>
      <trkpt lat="47.34247" lon="6.95182">
        <ele>468.8</ele>
        <time>2021-07-29T16:39:50Z</time>
      </trkpt>
      <trkpt lat="47.34248" lon="6.95196">
        <ele>468.6</ele>
        <time>2021-07-29T16:39:51Z</time>
      </trkpt>
      <trkpt lat="47.34248" lon="6.9521">
        <ele>468.6</ele>
        <time>2021-07-29T16:39:52Z</time>
      </trkpt>
      <trkpt lat="47.34245" lon="6.95223">
        <ele>468.4</ele>
        <time>2021-07-29T16:39:53Z</time>
      </trkpt>
      <trkpt lat="47.3424" lon="6.95234">
        <ele>468.4</ele>
        <time>2021-07-29T16:39:54Z</time>
      </trkpt>
      <trkpt lat="47.34235" lon="6.95243">
        <ele>468.4</ele>
        <time>2021-07-29T16:39:55Z</time>
      </trkpt>
      <trkpt lat="47.34228" lon="6.95251">
        <ele>468.4</ele>
        <time>2021-07-29T16:39:56Z</time>
      </trkpt>
      <trkpt lat="47.34222" lon="6.95258">
        <ele>468.2</ele>
        <time>2021-07-29T16:39:57Z</time>
      </trkpt>
      <trkpt lat="47.34215" lon="6.95264">
        <ele>468</ele>
        <time>2021-07-29T16:39:58Z</time>
      </trkpt>
      <trkpt lat="47.34208" lon="6.9527">
        <ele>467.4</ele>
        <time>2021-07-29T16:39:59Z</time>
      </trkpt>
      <trkpt lat="47.34201" lon="6.95276">
        <ele>467</ele>
        <time>2021-07-29T16:40:00Z</time>
      </trkpt>
      <trkpt lat="47.34193" lon="6.95282">
        <ele>466.8</ele>
        <time>2021-07-29T16:40:01Z</time>
      </trkpt>
      <trkpt lat="47.34186" lon="6.95289">
        <ele>466.6</ele>
        <time>2021-07-29T16:40:02Z</time>
      </trkpt>
      <trkpt lat="47.34179" lon="6.95295">
        <ele>466</ele>
        <time>2021-07-29T16:40:03Z</time>
      </trkpt>
      <trkpt lat="47.34172" lon="6.95302">
        <ele>465.8</ele>
        <time>2021-07-29T16:40:04Z</time>
      </trkpt>
      <trkpt lat="47.34165" lon="6.95308">
        <ele>465.4</ele>
        <time>2021-07-29T16:40:05Z</time>
      </trkpt>
      <trkpt lat="47.34158" lon="6.95315">
        <ele>465</ele>
        <time>2021-07-29T16:40:06Z</time>
      </trkpt>
      <trkpt lat="47.3415" lon="6.95321">
        <ele>464.8</ele>
        <time>2021-07-29T16:40:07Z</time>
      </trkpt>
      <trkpt lat="47.34143" lon="6.95328">
        <ele>465</ele>
        <time>2021-07-29T16:40:08Z</time>
      </trkpt>
      <trkpt lat="47.34136" lon="6.95335">
        <ele>464.4</ele>
        <time>2021-07-29T16:40:09Z</time>
      </trkpt>
      <trkpt lat="47.3413" lon="6.95343">
        <ele>464</ele>
        <time>2021-07-29T16:40:10Z</time>
      </trkpt>
      <trkpt lat="47.34124" lon="6.95352">
        <ele>463.8</ele>
        <time>2021-07-29T16:40:11Z</time>
      </trkpt>
      <trkpt lat="47.34118" lon="6.95362">
        <ele>463.6</ele>
        <time>2021-07-29T16:40:12Z</time>
      </trkpt>
      <trkpt lat="47.34112" lon="6.95373">
        <ele>463.2</ele>
        <time>2021-07-29T16:40:13Z</time>
      </trkpt>
      <trkpt lat="47.34106" lon="6.95383">
        <ele>463</ele>
        <time>2021-07-29T16:40:14Z</time>
      </trkpt>
      <trkpt lat="47.341" lon="6.95394">
        <ele>462.8</ele>
        <time>2021-07-29T16:40:15Z</time>
      </trkpt>
      <trkpt lat="47.34095" lon="6.95405">
        <ele>462.4</ele>
        <time>2021-07-29T16:40:16Z</time>
      </trkpt>
      <trkpt lat="47.3409" lon="6.95416">
        <ele>462</ele>
        <time>2021-07-29T16:40:17Z</time>
      </trkpt>
      <trkpt lat="47.34084" lon="6.95427">
        <ele>461.6</ele>
        <time>2021-07-29T16:40:18Z</time>
      </trkpt>
      <trkpt lat="47.34079" lon="6.95439">
        <ele>461.4</ele>
        <time>2021-07-29T16:40:19Z</time>
      </trkpt>
      <trkpt lat="47.34073" lon="6.95451">
        <ele>461.2</ele>
        <time>2021-07-29T16:40:20Z</time>
      </trkpt>
      <trkpt lat="47.34067" lon="6.95462">
        <ele>460.8</ele>
        <time>2021-07-29T16:40:21Z</time>
      </trkpt>
      <trkpt lat="47.34061" lon="6.95474">
        <ele>460.6</ele>
        <time>2021-07-29T16:40:22Z</time>
      </trkpt>
      <trkpt lat="47.34055" lon="6.95486">
        <ele>460.2</ele>
        <time>2021-07-29T16:40:23Z</time>
      </trkpt>
      <trkpt lat="47.3405" lon="6.95497">
        <ele>460.2</ele>
        <time>2021-07-29T16:40:24Z</time>
      </trkpt>
      <trkpt lat="47.34045" lon="6.95509">
        <ele>460.2</ele>
        <time>2021-07-29T16:40:25Z</time>
      </trkpt>
      <trkpt lat="47.34039" lon="6.9552">
        <ele>460</ele>
        <time>2021-07-29T16:40:26Z</time>
      </trkpt>
      <trkpt lat="47.34033" lon="6.9553">
        <ele>460</ele>
        <time>2021-07-29T16:40:27Z</time>
      </trkpt>
      <trkpt lat="47.34028" lon="6.95541">
        <ele>460</ele>
        <time>2021-07-29T16:40:28Z</time>
      </trkpt>
      <trkpt lat="47.34024" lon="6.95551">
        <ele>460.4</ele>
        <time>2021-07-29T16:40:29Z</time>
      </trkpt>
      <trkpt lat="47.3402" lon="6.9556">
        <ele>460.6</ele>
        <time>2021-07-29T16:40:30Z</time>
      </trkpt>
      <trkpt lat="47.34017" lon="6.9557">
        <ele>460.6</ele>
        <time>2021-07-29T16:40:31Z</time>
      </trkpt>
      <trkpt lat="47.34014" lon="6.9558">
        <ele>460.6</ele>
        <time>2021-07-29T16:40:32Z</time>
      </trkpt>
      <trkpt lat="47.34013" lon="6.9559">
        <ele>461</ele>
        <time>2021-07-29T16:40:33Z</time>
      </trkpt>
      <trkpt lat="47.34012" lon="6.956">
        <ele>460.8</ele>
        <time>2021-07-29T16:40:34Z</time>
      </trkpt>
      <trkpt lat="47.34011" lon="6.9561">
        <ele>460.8</ele>
        <time>2021-07-29T16:40:35Z</time>
      </trkpt>
      <trkpt lat="47.34011" lon="6.9562">
        <ele>460.6</ele>
        <time>2021-07-29T16:40:36Z</time>
      </trkpt>
      <trkpt lat="47.34011" lon="6.95631">
        <ele>460.4</ele>
        <time>2021-07-29T16:40:37Z</time>
      </trkpt>
      <trkpt lat="47.3401" lon="6.95641">
        <ele>460.4</ele>
        <time>2021-07-29T16:40:38Z</time>
      </trkpt>
      <trkpt lat="47.34009" lon="6.95652">
        <ele>460.2</ele>
        <time>2021-07-29T16:40:39Z</time>
      </trkpt>
      <trkpt lat="47.34009" lon="6.95662">
        <ele>460.2</ele>
        <time>2021-07-29T16:40:40Z</time>
      </trkpt>
      <trkpt lat="47.34009" lon="6.95673">
        <ele>460</ele>
        <time>2021-07-29T16:40:41Z</time>
      </trkpt>
      <trkpt lat="47.34009" lon="6.95683">
        <ele>460</ele>
        <time>2021-07-29T16:40:42Z</time>
      </trkpt>
      <trkpt lat="47.34009" lon="6.95694">
        <ele>460</ele>
        <time>2021-07-29T16:40:43Z</time>
      </trkpt>
      <trkpt lat="47.34009" lon="6.95704">
        <ele>460</ele>
        <time>2021-07-29T16:40:44Z</time>
      </trkpt>
      <trkpt lat="47.34009" lon="6.95714">
        <ele>460</ele>
        <time>2021-07-29T16:40:45Z</time>
      </trkpt>
      <trkpt lat="47.3401" lon="6.95724">
        <ele>460</ele>
        <time>2021-07-29T16:40:46Z</time>
      </trkpt>
      <trkpt lat="47.34011" lon="6.95733">
        <ele>460</ele>
        <time>2021-07-29T16:40:47Z</time>
      </trkpt>
      <trkpt lat="47.34012" lon="6.95743">
        <ele>460</ele>
        <time>2021-07-29T16:40:48Z</time>
      </trkpt>
      <trkpt lat="47.34013" lon="6.95751">
        <ele>460</ele>
        <time>2021-07-29T16:40:49Z</time>
      </trkpt>
      <trkpt lat="47.34015" lon="6.9576">
        <ele>460</ele>
        <time>2021-07-29T16:40:50Z</time>
      </trkpt>
      <trkpt lat="47.34017" lon="6.95769">
        <ele>460</ele>
        <time>2021-07-29T16:40:51Z</time>
      </trkpt>
      <trkpt lat="47.34019" lon="6.95777">
        <ele>460</ele>
        <time>2021-07-29T16:40:52Z</time>
      </trkpt>
      <trkpt lat="47.34021" lon="6.95785">
        <ele>460</ele>
        <time>2021-07-29T16:40:53Z</time>
      </trkpt>
      <trkpt lat="47.34023" lon="6.95792">
        <ele>460</ele>
        <time>2021-07-29T16:40:54Z</time>
      </trkpt>
      <trkpt lat="47.34026" lon="6.95799">
        <ele>460.2</ele>
        <time>2021-07-29T16:40:55Z</time>
      </trkpt>
      <trkpt lat="47.34029" lon="6.95806">
        <ele>460.2</ele>
        <time>2021-07-29T16:40:56Z</time>
      </trkpt>
      <trkpt lat="47.34032" lon="6.95813">
        <ele>460.2</ele>
        <time>2021-07-29T16:40:57Z</time>
      </trkpt>
      <trkpt lat="47.34035" lon="6.9582">
        <ele>460.4</ele>
        <time>2021-07-29T16:40:58Z</time>
      </trkpt>
      <trkpt lat="47.34038" lon="6.95826">
        <ele>460.4</ele>
        <time>2021-07-29T16:40:59Z</time>
      </trkpt>
      <trkpt lat="47.34041" lon="6.95832">
        <ele>460.4</ele>
        <time>2021-07-29T16:41:00Z</time>
      </trkpt>
      <trkpt lat="47.34045" lon="6.95838">
        <ele>460.6</ele>
        <time>2021-07-29T16:41:01Z</time>
      </trkpt>
      <trkpt lat="47.34048" lon="6.95844">
        <ele>460.6</ele>
        <time>2021-07-29T16:41:02Z</time>
      </trkpt>
      <trkpt lat="47.34051" lon="6.95849">
        <ele>460.6</ele>
        <time>2021-07-29T16:41:03Z</time>
      </trkpt>
      <trkpt lat="47.34055" lon="6.95854">
        <ele>460.6</ele>
        <time>2021-07-29T16:41:04Z</time>
      </trkpt>
      <trkpt lat="47.34059" lon="6.95859">
        <ele>460.6</ele>
        <time>2021-07-29T16:41:05Z</time>
      </trkpt>
      <trkpt lat="47.34063" lon="6.95864">
        <ele>460.6</ele>
        <time>2021-07-29T16:41:06Z</time>
      </trkpt>
      <trkpt lat="47.34067" lon="6.95868">
        <ele>460.6</ele>
        <time>2021-07-29T16:41:07Z</time>
      </trkpt>
      <trkpt lat="47.34071" lon="6.95872">
        <ele>460.6</ele>
        <time>2021-07-29T16:41:08Z</time>
      </trkpt>
      <trkpt lat="47.34075" lon="6.95876">
        <ele>460.6</ele>
        <time>2021-07-29T16:41:09Z</time>
      </trkpt>
      <trkpt lat="47.34079" lon="6.9588">
        <ele>460.4</ele>
        <time>2021-07-29T16:41:10Z</time>
      </trkpt>
      <trkpt lat="47.34084" lon="6.95883">
        <ele>460.4</ele>
        <time>2021-07-29T16:41:11Z</time>
      </trkpt>
      <trkpt lat="47.34088" lon="6.95887">
        <ele>460.4</ele>
        <time>2021-07-29T16:41:12Z</time>
      </trkpt>
      <trkpt lat="47.34093" lon="6.9589">
        <ele>460.2</ele>
        <time>2021-07-29T16:41:13Z</time>
      </trkpt>
      <trkpt lat="47.34098" lon="6.95893">
        <ele>460.2</ele>
        <time>2021-07-29T16:41:14Z</time>
      </trkpt>
      <trkpt lat="47.34103" lon="6.95896">
        <ele>460</ele>
        <time>2021-07-29T16:41:15Z</time>
      </trkpt>
      <trkpt lat="47.34108" lon="6.95899">
        <ele>460</ele>
        <time>2021-07-29T16:41:16Z</time>
      </trkpt>
      <trkpt lat="47.34114" lon="6.95902">
        <ele>459.8</ele>
        <time>2021-07-29T16:41:17Z</time>
      </trkpt>
      <trkpt lat="47.34118" lon="6.95906">
        <ele>459.8</ele>
        <time>2021-07-29T16:41:18Z</time>
      </trkpt>
      <trkpt lat="47.34123" lon="6.95909">
        <ele>459.8</ele>
        <time>2021-07-29T16:41:19Z</time>
      </trkpt>
      <trkpt lat="47.34128" lon="6.95913">
        <ele>459.6</ele>
        <time>2021-07-29T16:41:20Z</time>
      </trkpt>
      <trkpt lat="47.34133" lon="6.95917">
        <ele>459.6</ele>
        <time>2021-07-29T16:41:21Z</time>
      </trkpt>
      <trkpt lat="47.34139" lon="6.9592">
        <ele>459.4</ele>
        <time>2021-07-29T16:41:22Z</time>
      </trkpt>
      <trkpt lat="47.34144" lon="6.95923">
        <ele>459.4</ele>
        <time>2021-07-29T16:41:23Z</time>
      </trkpt>
      <trkpt lat="47.34149" lon="6.95926">
        <ele>459.4</ele>
        <time>2021-07-29T16:41:24Z</time>
      </trkpt>
      <trkpt lat="47.34154" lon="6.9593">
        <ele>459.4</ele>
        <time>2021-07-29T16:41:25Z</time>
      </trkpt>
      <trkpt lat="47.34159" lon="6.95933">
        <ele>459.4</ele>
        <time>2021-07-29T16:41:26Z</time>
      </trkpt>
      <trkpt lat="47.34164" lon="6.95936">
        <ele>459.6</ele>
        <time>2021-07-29T16:41:27Z</time>
      </trkpt>
      <trkpt lat="47.34168" lon="6.95939">
        <ele>459.6</ele>
        <time>2021-07-29T16:41:28Z</time>
      </trkpt>
      <trkpt lat="47.34173" lon="6.95944">
        <ele>459.4</ele>
        <time>2021-07-29T16:41:29Z</time>
      </trkpt>
      <trkpt lat="47.34177" lon="6.95948">
        <ele>459.6</ele>
        <time>2021-07-29T16:41:30Z</time>
      </trkpt>
      <trkpt lat="47.34182" lon="6.95951">
        <ele>459.6</ele>
        <time>2021-07-29T16:41:31Z</time>
      </trkpt>
      <trkpt lat="47.34186" lon="6.95954">
        <ele>459.6</ele>
        <time>2021-07-29T16:41:32Z</time>
      </trkpt>
      <trkpt lat="47.3419" lon="6.95958">
        <ele>459.8</ele>
        <time>2021-07-29T16:41:33Z</time>
      </trkpt>
      <trkpt lat="47.34194" lon="6.95961">
        <ele>459.8</ele>
        <time>2021-07-29T16:41:34Z</time>
      </trkpt>
      <trkpt lat="47.34198" lon="6.95964">
        <ele>459.8</ele>
        <time>2021-07-29T16:41:35Z</time>
      </trkpt>
      <trkpt lat="47.34202" lon="6.95968">
        <ele>459.8</ele>
        <time>2021-07-29T16:41:36Z</time>
      </trkpt>
      <trkpt lat="47.34206" lon="6.95971">
        <ele>459.8</ele>
        <time>2021-07-29T16:41:37Z</time>
      </trkpt>
      <trkpt lat="47.34209" lon="6.95974">
        <ele>460</ele>
        <time>2021-07-29T16:41:38Z</time>
      </trkpt>
      <trkpt lat="47.34212" lon="6.95977">
        <ele>460</ele>
        <time>2021-07-29T16:41:39Z</time>
      </trkpt>
      <trkpt lat="47.34215" lon="6.9598">
        <ele>460</ele>
        <time>2021-07-29T16:41:40Z</time>
      </trkpt>
      <trkpt lat="47.34218" lon="6.95984">
        <ele>460</ele>
        <time>2021-07-29T16:41:41Z</time>
      </trkpt>
      <trkpt lat="47.34221" lon="6.95987">
        <ele>460</ele>
        <time>2021-07-29T16:41:42Z</time>
      </trkpt>
      <trkpt lat="47.34224" lon="6.95989">
        <ele>460</ele>
        <time>2021-07-29T16:41:43Z</time>
      </trkpt>
      <trkpt lat="47.34226" lon="6.95992">
        <ele>460</ele>
        <time>2021-07-29T16:41:44Z</time>
      </trkpt>
      <trkpt lat="47.34228" lon="6.95995">
        <ele>460</ele>
        <time>2021-07-29T16:41:45Z</time>
      </trkpt>
      <trkpt lat="47.34231" lon="6.95998">
        <ele>460</ele>
        <time>2021-07-29T16:41:46Z</time>
      </trkpt>
      <trkpt lat="47.34234" lon="6.96001">
        <ele>460</ele>
        <time>2021-07-29T16:41:47Z</time>
      </trkpt>
      <trkpt lat="47.34237" lon="6.96005">
        <ele>460</ele>
        <time>2021-07-29T16:41:48Z</time>
      </trkpt>
      <trkpt lat="47.3424" lon="6.96009">
        <ele>459.8</ele>
        <time>2021-07-29T16:41:49Z</time>
      </trkpt>
      <trkpt lat="47.34243" lon="6.96013">
        <ele>459.8</ele>
        <time>2021-07-29T16:41:50Z</time>
      </trkpt>
      <trkpt lat="47.34246" lon="6.96017">
        <ele>459.8</ele>
        <time>2021-07-29T16:41:51Z</time>
      </trkpt>
      <trkpt lat="47.34249" lon="6.96021">
        <ele>459.8</ele>
        <time>2021-07-29T16:41:52Z</time>
      </trkpt>
      <trkpt lat="47.34251" lon="6.96026">
        <ele>459.6</ele>
        <time>2021-07-29T16:41:53Z</time>
      </trkpt>
      <trkpt lat="47.34253" lon="6.9603">
        <ele>459.6</ele>
        <time>2021-07-29T16:41:54Z</time>
      </trkpt>
      <trkpt lat="47.34255" lon="6.96035">
        <ele>459.4</ele>
        <time>2021-07-29T16:41:55Z</time>
      </trkpt>
      <trkpt lat="47.34258" lon="6.96039">
        <ele>459.4</ele>
        <time>2021-07-29T16:41:56Z</time>
      </trkpt>
      <trkpt lat="47.3426" lon="6.96043">
        <ele>459.4</ele>
        <time>2021-07-29T16:41:57Z</time>
      </trkpt>
      <trkpt lat="47.34262" lon="6.96047">
        <ele>459.4</ele>
        <time>2021-07-29T16:41:58Z</time>
      </trkpt>
      <trkpt lat="47.34265" lon="6.96052">
        <ele>459.4</ele>
        <time>2021-07-29T16:41:59Z</time>
      </trkpt>
      <trkpt lat="47.34267" lon="6.96056">
        <ele>459.4</ele>
        <time>2021-07-29T16:42:00Z</time>
      </trkpt>
      <trkpt lat="47.3427" lon="6.96062">
        <ele>459.4</ele>
        <time>2021-07-29T16:42:01Z</time>
      </trkpt>
      <trkpt lat="47.34272" lon="6.96068">
        <ele>459.4</ele>
        <time>2021-07-29T16:42:02Z</time>
      </trkpt>
      <trkpt lat="47.34274" lon="6.96074">
        <ele>459.4</ele>
        <time>2021-07-29T16:42:03Z</time>
      </trkpt>
      <trkpt lat="47.34276" lon="6.9608">
        <ele>459.4</ele>
        <time>2021-07-29T16:42:04Z</time>
      </trkpt>
      <trkpt lat="47.34278" lon="6.96085">
        <ele>459.4</ele>
        <time>2021-07-29T16:42:05Z</time>
      </trkpt>
      <trkpt lat="47.3428" lon="6.96091">
        <ele>459.6</ele>
        <time>2021-07-29T16:42:06Z</time>
      </trkpt>
      <trkpt lat="47.34282" lon="6.96097">
        <ele>459.6</ele>
        <time>2021-07-29T16:42:07Z</time>
      </trkpt>
      <trkpt lat="47.34285" lon="6.96103">
        <ele>459.6</ele>
        <time>2021-07-29T16:42:08Z</time>
      </trkpt>
      <trkpt lat="47.34287" lon="6.96109">
        <ele>459.6</ele>
        <time>2021-07-29T16:42:09Z</time>
      </trkpt>
      <trkpt lat="47.34289" lon="6.96116">
        <ele>459.8</ele>
        <time>2021-07-29T16:42:10Z</time>
      </trkpt>
      <trkpt lat="47.34291" lon="6.96122">
        <ele>459.8</ele>
        <time>2021-07-29T16:42:11Z</time>
      </trkpt>
      <trkpt lat="47.34293" lon="6.96127">
        <ele>460</ele>
        <time>2021-07-29T16:42:12Z</time>
      </trkpt>
      <trkpt lat="47.34295" lon="6.96133">
        <ele>460</ele>
        <time>2021-07-29T16:42:13Z</time>
      </trkpt>
      <trkpt lat="47.34297" lon="6.96139">
        <ele>460</ele>
        <time>2021-07-29T16:42:14Z</time>
      </trkpt>
      <trkpt lat="47.34299" lon="6.96144">
        <ele>460.2</ele>
        <time>2021-07-29T16:42:15Z</time>
      </trkpt>
      <trkpt lat="47.34301" lon="6.9615">
        <ele>460.2</ele>
        <time>2021-07-29T16:42:16Z</time>
      </trkpt>
      <trkpt lat="47.34303" lon="6.96156">
        <ele>460.2</ele>
        <time>2021-07-29T16:42:17Z</time>
      </trkpt>
      <trkpt lat="47.34305" lon="6.96162">
        <ele>460.4</ele>
        <time>2021-07-29T16:42:18Z</time>
      </trkpt>
      <trkpt lat="47.34307" lon="6.96168">
        <ele>460.4</ele>
        <time>2021-07-29T16:42:19Z</time>
      </trkpt>
      <trkpt lat="47.34308" lon="6.96173">
        <ele>460.4</ele>
        <time>2021-07-29T16:42:20Z</time>
      </trkpt>
      <trkpt lat="47.3431" lon="6.96178">
        <ele>460.4</ele>
        <time>2021-07-29T16:42:21Z</time>
      </trkpt>
      <trkpt lat="47.34312" lon="6.96184">
        <ele>460.6</ele>
        <time>2021-07-29T16:42:22Z</time>
      </trkpt>
      <trkpt lat="47.34314" lon="6.96189">
        <ele>460.6</ele>
        <time>2021-07-29T16:42:23Z</time>
      </trkpt>
      <trkpt lat="47.34316" lon="6.96195">
        <ele>460.6</ele>
        <time>2021-07-29T16:42:24Z</time>
      </trkpt>
      <trkpt lat="47.34318" lon="6.962">
        <ele>461</ele>
        <time>2021-07-29T16:42:25Z</time>
      </trkpt>
      <trkpt lat="47.3432" lon="6.96205">
        <ele>461</ele>
        <time>2021-07-29T16:42:26Z</time>
      </trkpt>
      <trkpt lat="47.34322" lon="6.9621">
        <ele>461</ele>
        <time>2021-07-29T16:42:27Z</time>
      </trkpt>
      <trkpt lat="47.34324" lon="6.96215">
        <ele>461</ele>
        <time>2021-07-29T16:42:28Z</time>
      </trkpt>
      <trkpt lat="47.34326" lon="6.96221">
        <ele>461</ele>
        <time>2021-07-29T16:42:29Z</time>
      </trkpt>
      <trkpt lat="47.34328" lon="6.96226">
        <ele>461.2</ele>
        <time>2021-07-29T16:42:30Z</time>
      </trkpt>
      <trkpt lat="47.3433" lon="6.96231">
        <ele>461.2</ele>
        <time>2021-07-29T16:42:31Z</time>
      </trkpt>
      <trkpt lat="47.34332" lon="6.96236">
        <ele>461.4</ele>
        <time>2021-07-29T16:42:32Z</time>
      </trkpt>
      <trkpt lat="47.34333" lon="6.96241">
        <ele>461.4</ele>
        <time>2021-07-29T16:42:33Z</time>
      </trkpt>
      <trkpt lat="47.34334" lon="6.96246">
        <ele>461.4</ele>
        <time>2021-07-29T16:42:34Z</time>
      </trkpt>
      <trkpt lat="47.34336" lon="6.96251">
        <ele>461.6</ele>
        <time>2021-07-29T16:42:35Z</time>
      </trkpt>
      <trkpt lat="47.34338" lon="6.96255">
        <ele>461.6</ele>
        <time>2021-07-29T16:42:36Z</time>
      </trkpt>
      <trkpt lat="47.34339" lon="6.9626">
        <ele>461.6</ele>
        <time>2021-07-29T16:42:37Z</time>
      </trkpt>
      <trkpt lat="47.34342" lon="6.96265">
        <ele>461.8</ele>
        <time>2021-07-29T16:42:38Z</time>
      </trkpt>
      <trkpt lat="47.34344" lon="6.9627">
        <ele>461.8</ele>
        <time>2021-07-29T16:42:39Z</time>
      </trkpt>
      <trkpt lat="47.34345" lon="6.96275">
        <ele>461.8</ele>
        <time>2021-07-29T16:42:40Z</time>
      </trkpt>
      <trkpt lat="47.34347" lon="6.9628">
        <ele>462</ele>
        <time>2021-07-29T16:42:41Z</time>
      </trkpt>
      <trkpt lat="47.34348" lon="6.96285">
        <ele>462</ele>
        <time>2021-07-29T16:42:42Z</time>
      </trkpt>
      <trkpt lat="47.3435" lon="6.96289">
        <ele>462</ele>
        <time>2021-07-29T16:42:43Z</time>
      </trkpt>
      <trkpt lat="47.34352" lon="6.96294">
        <ele>462</ele>
        <time>2021-07-29T16:42:44Z</time>
      </trkpt>
      <trkpt lat="47.34353" lon="6.96299">
        <ele>462</ele>
        <time>2021-07-29T16:42:45Z</time>
      </trkpt>
      <trkpt lat="47.34355" lon="6.96304">
        <ele>462.2</ele>
        <time>2021-07-29T16:42:46Z</time>
      </trkpt>
      <trkpt lat="47.34357" lon="6.96308">
        <ele>462.2</ele>
        <time>2021-07-29T16:42:47Z</time>
      </trkpt>
      <trkpt lat="47.34358" lon="6.96314">
        <ele>462.2</ele>
        <time>2021-07-29T16:42:48Z</time>
      </trkpt>
      <trkpt lat="47.3436" lon="6.96319">
        <ele>462.2</ele>
        <time>2021-07-29T16:42:49Z</time>
      </trkpt>
      <trkpt lat="47.34362" lon="6.96324">
        <ele>462.2</ele>
        <time>2021-07-29T16:42:50Z</time>
      </trkpt>
      <trkpt lat="47.34363" lon="6.96329">
        <ele>462.4</ele>
        <time>2021-07-29T16:42:51Z</time>
      </trkpt>
      <trkpt lat="47.34365" lon="6.96335">
        <ele>462.4</ele>
        <time>2021-07-29T16:42:52Z</time>
      </trkpt>
      <trkpt lat="47.34367" lon="6.9634">
        <ele>462.4</ele>
        <time>2021-07-29T16:42:53Z</time>
      </trkpt>
      <trkpt lat="47.34369" lon="6.96345">
        <ele>462.4</ele>
        <time>2021-07-29T16:42:54Z</time>
      </trkpt>
      <trkpt lat="47.34371" lon="6.9635">
        <ele>462.4</ele>
        <time>2021-07-29T16:42:55Z</time>
      </trkpt>
      <trkpt lat="47.34373" lon="6.96356">
        <ele>462.4</ele>
        <time>2021-07-29T16:42:56Z</time>
      </trkpt>
      <trkpt lat="47.34375" lon="6.96361">
        <ele>462.4</ele>
        <time>2021-07-29T16:42:57Z</time>
      </trkpt>
      <trkpt lat="47.34377" lon="6.96367">
        <ele>462.4</ele>
        <time>2021-07-29T16:42:58Z</time>
      </trkpt>
      <trkpt lat="47.34378" lon="6.96372">
        <ele>462.4</ele>
        <time>2021-07-29T16:42:59Z</time>
      </trkpt>
      <trkpt lat="47.3438" lon="6.96378">
        <ele>462.4</ele>
        <time>2021-07-29T16:43:00Z</time>
      </trkpt>
      <trkpt lat="47.34383" lon="6.96383">
        <ele>462.4</ele>
        <time>2021-07-29T16:43:01Z</time>
      </trkpt>
      <trkpt lat="47.34385" lon="6.9639">
        <ele>462.4</ele>
        <time>2021-07-29T16:43:02Z</time>
      </trkpt>
      <trkpt lat="47.34388" lon="6.96395">
        <ele>462.2</ele>
        <time>2021-07-29T16:43:03Z</time>
      </trkpt>
      <trkpt lat="47.34389" lon="6.96401">
        <ele>462.2</ele>
        <time>2021-07-29T16:43:04Z</time>
      </trkpt>
      <trkpt lat="47.34392" lon="6.96407">
        <ele>462.2</ele>
        <time>2021-07-29T16:43:05Z</time>
      </trkpt>
      <trkpt lat="47.34394" lon="6.96413">
        <ele>462.2</ele>
        <time>2021-07-29T16:43:06Z</time>
      </trkpt>
      <trkpt lat="47.34396" lon="6.9642">
        <ele>462</ele>
        <time>2021-07-29T16:43:07Z</time>
      </trkpt>
      <trkpt lat="47.34398" lon="6.96426">
        <ele>462</ele>
        <time>2021-07-29T16:43:08Z</time>
      </trkpt>
      <trkpt lat="47.34401" lon="6.96433">
        <ele>461.8</ele>
        <time>2021-07-29T16:43:09Z</time>
      </trkpt>
      <trkpt lat="47.34402" lon="6.9644">
        <ele>461.8</ele>
        <time>2021-07-29T16:43:10Z</time>
      </trkpt>
      <trkpt lat="47.34405" lon="6.96447">
        <ele>461.8</ele>
        <time>2021-07-29T16:43:11Z</time>
      </trkpt>
      <trkpt lat="47.34407" lon="6.96454">
        <ele>461.6</ele>
        <time>2021-07-29T16:43:12Z</time>
      </trkpt>
      <trkpt lat="47.34409" lon="6.96461">
        <ele>461.6</ele>
        <time>2021-07-29T16:43:13Z</time>
      </trkpt>
      <trkpt lat="47.34411" lon="6.96468">
        <ele>461.6</ele>
        <time>2021-07-29T16:43:14Z</time>
      </trkpt>
      <trkpt lat="47.34413" lon="6.96475">
        <ele>461.4</ele>
        <time>2021-07-29T16:43:15Z</time>
      </trkpt>
      <trkpt lat="47.34416" lon="6.96482">
        <ele>461.4</ele>
        <time>2021-07-29T16:43:16Z</time>
      </trkpt>
      <trkpt lat="47.34418" lon="6.96489">
        <ele>461.4</ele>
        <time>2021-07-29T16:43:17Z</time>
      </trkpt>
      <trkpt lat="47.3442" lon="6.96496">
        <ele>461.4</ele>
        <time>2021-07-29T16:43:18Z</time>
      </trkpt>
      <trkpt lat="47.34422" lon="6.96504">
        <ele>461.2</ele>
        <time>2021-07-29T16:43:19Z</time>
      </trkpt>
      <trkpt lat="47.34424" lon="6.96511">
        <ele>461.2</ele>
        <time>2021-07-29T16:43:20Z</time>
      </trkpt>
      <trkpt lat="47.34426" lon="6.96519">
        <ele>461.2</ele>
        <time>2021-07-29T16:43:21Z</time>
      </trkpt>
      <trkpt lat="47.34429" lon="6.96526">
        <ele>461.2</ele>
        <time>2021-07-29T16:43:22Z</time>
      </trkpt>
      <trkpt lat="47.34431" lon="6.96534">
        <ele>461.2</ele>
        <time>2021-07-29T16:43:23Z</time>
      </trkpt>
      <trkpt lat="47.34433" lon="6.96541">
        <ele>461</ele>
        <time>2021-07-29T16:43:24Z</time>
      </trkpt>
      <trkpt lat="47.34436" lon="6.96549">
        <ele>461</ele>
        <time>2021-07-29T16:43:25Z</time>
      </trkpt>
      <trkpt lat="47.34438" lon="6.96557">
        <ele>461</ele>
        <time>2021-07-29T16:43:26Z</time>
      </trkpt>
      <trkpt lat="47.3444" lon="6.96565">
        <ele>460.8</ele>
        <time>2021-07-29T16:43:27Z</time>
      </trkpt>
      <trkpt lat="47.34442" lon="6.96573">
        <ele>460.8</ele>
        <time>2021-07-29T16:43:28Z</time>
      </trkpt>
      <trkpt lat="47.34444" lon="6.96581">
        <ele>460.8</ele>
        <time>2021-07-29T16:43:29Z</time>
      </trkpt>
      <trkpt lat="47.34445" lon="6.9659">
        <ele>460.6</ele>
        <time>2021-07-29T16:43:30Z</time>
      </trkpt>
      <trkpt lat="47.34446" lon="6.96598">
        <ele>460.6</ele>
        <time>2021-07-29T16:43:31Z</time>
      </trkpt>
      <trkpt lat="47.34447" lon="6.96607">
        <ele>460.6</ele>
        <time>2021-07-29T16:43:32Z</time>
      </trkpt>
      <trkpt lat="47.34448" lon="6.96616">
        <ele>460.4</ele>
        <time>2021-07-29T16:43:33Z</time>
      </trkpt>
      <trkpt lat="47.34448" lon="6.96624">
        <ele>460.4</ele>
        <time>2021-07-29T16:43:34Z</time>
      </trkpt>
      <trkpt lat="47.34448" lon="6.96634">
        <ele>460.4</ele>
        <time>2021-07-29T16:43:35Z</time>
      </trkpt>
      <trkpt lat="47.34449" lon="6.96643">
        <ele>460.2</ele>
        <time>2021-07-29T16:43:36Z</time>
      </trkpt>
      <trkpt lat="47.34449" lon="6.96652">
        <ele>460.2</ele>
        <time>2021-07-29T16:43:37Z</time>
      </trkpt>
      <trkpt lat="47.34448" lon="6.9666">
        <ele>460.2</ele>
        <time>2021-07-29T16:43:38Z</time>
      </trkpt>
      <trkpt lat="47.34447" lon="6.96669">
        <ele>460</ele>
        <time>2021-07-29T16:43:39Z</time>
      </trkpt>
      <trkpt lat="47.34445" lon="6.96677">
        <ele>460</ele>
        <time>2021-07-29T16:43:40Z</time>
      </trkpt>
      <trkpt lat="47.34443" lon="6.96685">
        <ele>460</ele>
        <time>2021-07-29T16:43:41Z</time>
      </trkpt>
      <trkpt lat="47.34441" lon="6.96693">
        <ele>460</ele>
        <time>2021-07-29T16:43:42Z</time>
      </trkpt>
      <trkpt lat="47.34439" lon="6.96701">
        <ele>460</ele>
        <time>2021-07-29T16:43:43Z</time>
      </trkpt>
      <trkpt lat="47.34437" lon="6.96708">
        <ele>460.2</ele>
        <time>2021-07-29T16:43:44Z</time>
      </trkpt>
      <trkpt lat="47.34434" lon="6.96715">
        <ele>460.2</ele>
        <time>2021-07-29T16:43:45Z</time>
      </trkpt>
      <trkpt lat="47.34432" lon="6.96721">
        <ele>460.2</ele>
        <time>2021-07-29T16:43:46Z</time>
      </trkpt>
      <trkpt lat="47.34429" lon="6.96727">
        <ele>460.2</ele>
        <time>2021-07-29T16:43:47Z</time>
      </trkpt>
      <trkpt lat="47.34426" lon="6.96733">
        <ele>460.4</ele>
        <time>2021-07-29T16:43:48Z</time>
      </trkpt>
      <trkpt lat="47.34423" lon="6.96738">
        <ele>460.4</ele>
        <time>2021-07-29T16:43:49Z</time>
      </trkpt>
      <trkpt lat="47.34419" lon="6.96744">
        <ele>460.4</ele>
        <time>2021-07-29T16:43:50Z</time>
      </trkpt>
      <trkpt lat="47.34416" lon="6.96749">
        <ele>460.4</ele>
        <time>2021-07-29T16:43:51Z</time>
      </trkpt>
      <trkpt lat="47.34413" lon="6.96755">
        <ele>460.4</ele>
        <time>2021-07-29T16:43:52Z</time>
      </trkpt>
      <trkpt lat="47.3441" lon="6.96761">
        <ele>460.4</ele>
        <time>2021-07-29T16:43:53Z</time>
      </trkpt>
      <trkpt lat="47.34406" lon="6.96766">
        <ele>460.4</ele>
        <time>2021-07-29T16:43:54Z</time>
      </trkpt>
      <trkpt lat="47.34403" lon="6.96771">
        <ele>460.2</ele>
        <time>2021-07-29T16:43:55Z</time>
      </trkpt>
      <trkpt lat="47.34399" lon="6.96777">
        <ele>460.2</ele>
        <time>2021-07-29T16:43:56Z</time>
      </trkpt>
      <trkpt lat="47.34396" lon="6.96782">
        <ele>460.4</ele>
        <time>2021-07-29T16:43:57Z</time>
      </trkpt>
      <trkpt lat="47.34392" lon="6.96788">
        <ele>460.4</ele>
        <time>2021-07-29T16:43:58Z</time>
      </trkpt>
      <trkpt lat="47.34388" lon="6.96794">
        <ele>460.4</ele>
        <time>2021-07-29T16:43:59Z</time>
      </trkpt>
      <trkpt lat="47.34384" lon="6.968">
        <ele>460.4</ele>
        <time>2021-07-29T16:44:00Z</time>
      </trkpt>
      <trkpt lat="47.3438" lon="6.96805">
        <ele>460.6</ele>
        <time>2021-07-29T16:44:01Z</time>
      </trkpt>
      <trkpt lat="47.34376" lon="6.9681">
        <ele>460.6</ele>
        <time>2021-07-29T16:44:02Z</time>
      </trkpt>
      <trkpt lat="47.34371" lon="6.96815">
        <ele>460.6</ele>
        <time>2021-07-29T16:44:03Z</time>
      </trkpt>
      <trkpt lat="47.34367" lon="6.96819">
        <ele>460.6</ele>
        <time>2021-07-29T16:44:04Z</time>
      </trkpt>
      <trkpt lat="47.34362" lon="6.96823">
        <ele>460.6</ele>
        <time>2021-07-29T16:44:05Z</time>
      </trkpt>
      <trkpt lat="47.34358" lon="6.96827">
        <ele>460.8</ele>
        <time>2021-07-29T16:44:06Z</time>
      </trkpt>
      <trkpt lat="47.34353" lon="6.96831">
        <ele>460.8</ele>
        <time>2021-07-29T16:44:07Z</time>
      </trkpt>
      <trkpt lat="47.34348" lon="6.96834">
        <ele>460.8</ele>
        <time>2021-07-29T16:44:08Z</time>
      </trkpt>
      <trkpt lat="47.34344" lon="6.96837">
        <ele>461</ele>
        <time>2021-07-29T16:44:09Z</time>
      </trkpt>
      <trkpt lat="47.3434" lon="6.9684">
        <ele>461</ele>
        <time>2021-07-29T16:44:10Z</time>
      </trkpt>
      <trkpt lat="47.34336" lon="6.96843">
        <ele>461</ele>
        <time>2021-07-29T16:44:11Z</time>
      </trkpt>
      <trkpt lat="47.34332" lon="6.96846">
        <ele>461.2</ele>
        <time>2021-07-29T16:44:12Z</time>
      </trkpt>
      <trkpt lat="47.34328" lon="6.96848">
        <ele>461.2</ele>
        <time>2021-07-29T16:44:13Z</time>
      </trkpt>
      <trkpt lat="47.34324" lon="6.96851">
        <ele>461.2</ele>
        <time>2021-07-29T16:44:14Z</time>
      </trkpt>
      <trkpt lat="47.34319" lon="6.96854">
        <ele>461.2</ele>
        <time>2021-07-29T16:44:15Z</time>
      </trkpt>
      <trkpt lat="47.34314" lon="6.96857">
        <ele>461.2</ele>
        <time>2021-07-29T16:44:16Z</time>
      </trkpt>
      <trkpt lat="47.3431" lon="6.9686">
        <ele>461.2</ele>
        <time>2021-07-29T16:44:17Z</time>
      </trkpt>
      <trkpt lat="47.34305" lon="6.96863">
        <ele>461</ele>
        <time>2021-07-29T16:44:18Z</time>
      </trkpt>
      <trkpt lat="47.34301" lon="6.96866">
        <ele>461</ele>
        <time>2021-07-29T16:44:19Z</time>
      </trkpt>
      <trkpt lat="47.34296" lon="6.96869">
        <ele>461</ele>
        <time>2021-07-29T16:44:20Z</time>
      </trkpt>
      <trkpt lat="47.34292" lon="6.96872">
        <ele>461</ele>
        <time>2021-07-29T16:44:21Z</time>
      </trkpt>
      <trkpt lat="47.34288" lon="6.96874">
        <ele>461</ele>
        <time>2021-07-29T16:44:22Z</time>
      </trkpt>
      <trkpt lat="47.34283" lon="6.96877">
        <ele>460.8</ele>
        <time>2021-07-29T16:44:23Z</time>
      </trkpt>
      <trkpt lat="47.34279" lon="6.96881">
        <ele>460.8</ele>
        <time>2021-07-29T16:44:24Z</time>
      </trkpt>
      <trkpt lat="47.34274" lon="6.96883">
        <ele>460.8</ele>
        <time>2021-07-29T16:44:25Z</time>
      </trkpt>
      <trkpt lat="47.34269" lon="6.96886">
        <ele>461</ele>
        <time>2021-07-29T16:44:26Z</time>
      </trkpt>
      <trkpt lat="47.34265" lon="6.96888">
        <ele>461</ele>
        <time>2021-07-29T16:44:27Z</time>
      </trkpt>
      <trkpt lat="47.3426" lon="6.96891">
        <ele>461</ele>
        <time>2021-07-29T16:44:28Z</time>
      </trkpt>
      <trkpt lat="47.34256" lon="6.96895">
        <ele>461.2</ele>
        <time>2021-07-29T16:44:29Z</time>
      </trkpt>
      <trkpt lat="47.34251" lon="6.96898">
        <ele>461.2</ele>
        <time>2021-07-29T16:44:30Z</time>
      </trkpt>
      <trkpt lat="47.34246" lon="6.96902">
        <ele>461.4</ele>
        <time>2021-07-29T16:44:31Z</time>
      </trkpt>
      <trkpt lat="47.34242" lon="6.96905">
        <ele>461.4</ele>
        <time>2021-07-29T16:44:32Z</time>
      </trkpt>
      <trkpt lat="47.34238" lon="6.96908">
        <ele>461.6</ele>
        <time>2021-07-29T16:44:33Z</time>
      </trkpt>
      <trkpt lat="47.34233" lon="6.96912">
        <ele>461.6</ele>
        <time>2021-07-29T16:44:34Z</time>
      </trkpt>
      <trkpt lat="47.3423" lon="6.96916">
        <ele>461.8</ele>
        <time>2021-07-29T16:44:35Z</time>
      </trkpt>
      <trkpt lat="47.34226" lon="6.9692">
        <ele>461.8</ele>
        <time>2021-07-29T16:44:36Z</time>
      </trkpt>
      <trkpt lat="47.34222" lon="6.96924">
        <ele>462</ele>
        <time>2021-07-29T16:44:37Z</time>
      </trkpt>
      <trkpt lat="47.34219" lon="6.96929">
        <ele>462</ele>
        <time>2021-07-29T16:44:38Z</time>
      </trkpt>
      <trkpt lat="47.34216" lon="6.96934">
        <ele>462.2</ele>
        <time>2021-07-29T16:44:39Z</time>
      </trkpt>
      <trkpt lat="47.34214" lon="6.96939">
        <ele>462.2</ele>
        <time>2021-07-29T16:44:40Z</time>
      </trkpt>
      <trkpt lat="47.34211" lon="6.96943">
        <ele>462.4</ele>
        <time>2021-07-29T16:44:41Z</time>
      </trkpt>
      <trkpt lat="47.34209" lon="6.96948">
        <ele>462.4</ele>
        <time>2021-07-29T16:44:42Z</time>
      </trkpt>
      <trkpt lat="47.34206" lon="6.96954">
        <ele>462.6</ele>
        <time>2021-07-29T16:44:43Z</time>
      </trkpt>
      <trkpt lat="47.34204" lon="6.96959">
        <ele>462.6</ele>
        <time>2021-07-29T16:44:44Z</time>
      </trkpt>
      <trkpt lat="47.34202" lon="6.96964">
        <ele>462.8</ele>
        <time>2021-07-29T16:44:45Z</time>
      </trkpt>
      <trkpt lat="47.342" lon="6.96969">
        <ele>462.8</ele>
        <time>2021-07-29T16:44:46Z</time>
      </trkpt>
      <trkpt lat="47.34198" lon="6.96973">
        <ele>463</ele>
        <time>2021-07-29T16:44:47Z</time>
      </trkpt>
      <trkpt lat="47.34197" lon="6.96978">
        <ele>463</ele>
        <time>2021-07-29T16:44:48Z</time>
      </trkpt>
      <trkpt lat="47.34195" lon="6.96983">
        <ele>463</ele>
        <time>2021-07-29T16:44:49Z</time>
      </trkpt>
      <trkpt lat="47.34194" lon="6.96987">
        <ele>463.2</ele>
        <time>2021-07-29T16:44:50Z</time>
      </trkpt>
      <trkpt lat="47.34193" lon="6.96992">
        <ele>463.2</ele>
        <time>2021-07-29T16:44:51Z</time>
      </trkpt>
      <trkpt lat="47.34191" lon="6.96997">
        <ele>463.4</ele>
        <time>2021-07-29T16:44:52Z</time>
      </trkpt>
      <trkpt lat="47.34189" lon="6.97002">
        <ele>463.4</ele>
        <time>2021-07-29T16:44:53Z</time>
      </trkpt>
      <trkpt lat="47.34187" lon="6.97008">
        <ele>463.6</ele>
        <time>2021-07-29T16:44:54Z</time>
      </trkpt>
      <trkpt lat="47.34186" lon="6.97013">
        <ele>463.6</ele>
        <time>2021-07-29T16:44:55Z</time>
      </trkpt>
      <trkpt lat="47.34184" lon="6.97018">
        <ele>463.6</ele>
        <time>2021-07-29T16:44:56Z</time>
      </trkpt>
      <trkpt lat="47.34183" lon="6.97023">
        <ele>463.8</ele>
        <time>2021-07-29T16:44:57Z</time>
      </trkpt>
      <trkpt lat="47.34182" lon="6.97029">
        <ele>463.8</ele>
        <time>2021-07-29T16:44:58Z</time>
      </trkpt>
      <trkpt lat="47.3418" lon="6.97035">
        <ele>463.8</ele>
        <time>2021-07-29T16:44:59Z</time>
      </trkpt>
      <trkpt lat="47.34179" lon="6.97041">
        <ele>463.8</ele>
        <time>2021-07-29T16:45:00Z</time>
      </trkpt>
      <trkpt lat="47.34177" lon="6.97048">
        <ele>463.8</ele>
        <time>2021-07-29T16:45:01Z</time>
      </trkpt>
      <trkpt lat="47.34176" lon="6.97054">
        <ele>463.8</ele>
        <time>2021-07-29T16:45:02Z</time>
      </trkpt>
      <trkpt lat="47.34175" lon="6.97061">
        <ele>463.6</ele>
        <time>2021-07-29T16:45:03Z</time>
      </trkpt>
      <trkpt lat="47.34174" lon="6.97067">
        <ele>463.6</ele>
        <time>2021-07-29T16:45:04Z</time>
      </trkpt>
      <trkpt lat="47.34173" lon="6.97075">
        <ele>463.6</ele>
        <time>2021-07-29T16:45:05Z</time>
      </trkpt>
      <trkpt lat="47.34173" lon="6.97082">
        <ele>463.6</ele>
        <time>2021-07-29T16:45:06Z</time>
      </trkpt>
      <trkpt lat="47.34173" lon="6.97089">
        <ele>463.6</ele>
        <time>2021-07-29T16:45:07Z</time>
      </trkpt>
      <trkpt lat="47.34172" lon="6.97096">
        <ele>463.6</ele>
        <time>2021-07-29T16:45:08Z</time>
      </trkpt>
      <trkpt lat="47.34172" lon="6.97104">
        <ele>463.6</ele>
        <time>2021-07-29T16:45:09Z</time>
      </trkpt>
      <trkpt lat="47.34172" lon="6.97111">
        <ele>463.6</ele>
        <time>2021-07-29T16:45:10Z</time>
      </trkpt>
      <trkpt lat="47.34172" lon="6.97119">
        <ele>463.6</ele>
        <time>2021-07-29T16:45:11Z</time>
      </trkpt>
      <trkpt lat="47.34172" lon="6.97126">
        <ele>463.6</ele>
        <time>2021-07-29T16:45:12Z</time>
      </trkpt>
      <trkpt lat="47.34171" lon="6.97134">
        <ele>463.6</ele>
        <time>2021-07-29T16:45:13Z</time>
      </trkpt>
      <trkpt lat="47.34171" lon="6.97141">
        <ele>463.4</ele>
        <time>2021-07-29T16:45:14Z</time>
      </trkpt>
      <trkpt lat="47.34171" lon="6.97149">
        <ele>463.4</ele>
        <time>2021-07-29T16:45:15Z</time>
      </trkpt>
      <trkpt lat="47.34171" lon="6.97157">
        <ele>463.2</ele>
        <time>2021-07-29T16:45:16Z</time>
      </trkpt>
      <trkpt lat="47.34172" lon="6.97165">
        <ele>463.2</ele>
        <time>2021-07-29T16:45:17Z</time>
      </trkpt>
      <trkpt lat="47.34171" lon="6.97173">
        <ele>463</ele>
        <time>2021-07-29T16:45:18Z</time>
      </trkpt>
      <trkpt lat="47.34171" lon="6.97181">
        <ele>463</ele>
        <time>2021-07-29T16:45:19Z</time>
      </trkpt>
      <trkpt lat="47.34172" lon="6.97189">
        <ele>463</ele>
        <time>2021-07-29T16:45:20Z</time>
      </trkpt>
      <trkpt lat="47.34172" lon="6.97197">
        <ele>462.8</ele>
        <time>2021-07-29T16:45:21Z</time>
      </trkpt>
      <trkpt lat="47.34171" lon="6.97205">
        <ele>462.8</ele>
        <time>2021-07-29T16:45:22Z</time>
      </trkpt>
      <trkpt lat="47.34171" lon="6.97213">
        <ele>462.8</ele>
        <time>2021-07-29T16:45:23Z</time>
      </trkpt>
      <trkpt lat="47.34171" lon="6.97221">
        <ele>462.6</ele>
        <time>2021-07-29T16:45:24Z</time>
      </trkpt>
      <trkpt lat="47.34172" lon="6.97229">
        <ele>462.6</ele>
        <time>2021-07-29T16:45:25Z</time>
      </trkpt>
      <trkpt lat="47.34172" lon="6.97237">
        <ele>462.6</ele>
        <time>2021-07-29T16:45:26Z</time>
      </trkpt>
      <trkpt lat="47.34172" lon="6.97244">
        <ele>462.4</ele>
        <time>2021-07-29T16:45:27Z</time>
      </trkpt>
      <trkpt lat="47.34172" lon="6.97252">
        <ele>462.4</ele>
        <time>2021-07-29T16:45:28Z</time>
      </trkpt>
      <trkpt lat="47.34173" lon="6.9726">
        <ele>462.4</ele>
        <time>2021-07-29T16:45:29Z</time>
      </trkpt>
      <trkpt lat="47.34173" lon="6.97267">
        <ele>462.4</ele>
        <time>2021-07-29T16:45:30Z</time>
      </trkpt>
      <trkpt lat="47.34174" lon="6.97274">
        <ele>462.4</ele>
        <time>2021-07-29T16:45:31Z</time>
      </trkpt>
      <trkpt lat="47.34174" lon="6.97282">
        <ele>462.4</ele>
        <time>2021-07-29T16:45:32Z</time>
      </trkpt>
      <trkpt lat="47.34174" lon="6.97288">
        <ele>462.4</ele>
        <time>2021-07-29T16:45:33Z</time>
      </trkpt>
      <trkpt lat="47.34175" lon="6.97295">
        <ele>462.6</ele>
        <time>2021-07-29T16:45:34Z</time>
      </trkpt>
      <trkpt lat="47.34177" lon="6.97302">
        <ele>462.6</ele>
        <time>2021-07-29T16:45:35Z</time>
      </trkpt>
      <trkpt lat="47.34178" lon="6.97308">
        <ele>462.4</ele>
        <time>2021-07-29T16:45:36Z</time>
      </trkpt>
      <trkpt lat="47.34179" lon="6.97314">
        <ele>462.6</ele>
        <time>2021-07-29T16:45:37Z</time>
      </trkpt>
      <trkpt lat="47.34181" lon="6.9732">
        <ele>462.6</ele>
        <time>2021-07-29T16:45:38Z</time>
      </trkpt>
      <trkpt lat="47.34182" lon="6.97326">
        <ele>462.6</ele>
        <time>2021-07-29T16:45:39Z</time>
      </trkpt>
      <trkpt lat="47.34183" lon="6.97333">
        <ele>462.6</ele>
        <time>2021-07-29T16:45:40Z</time>
      </trkpt>
      <trkpt lat="47.34185" lon="6.97339">
        <ele>462.6</ele>
        <time>2021-07-29T16:45:41Z</time>
      </trkpt>
      <trkpt lat="47.34187" lon="6.97345">
        <ele>462.6</ele>
        <time>2021-07-29T16:45:42Z</time>
      </trkpt>
      <trkpt lat="47.34188" lon="6.97351">
        <ele>462.8</ele>
        <time>2021-07-29T16:45:43Z</time>
      </trkpt>
      <trkpt lat="47.34189" lon="6.97356">
        <ele>462.8</ele>
        <time>2021-07-29T16:45:44Z</time>
      </trkpt>
      <trkpt lat="47.3419" lon="6.97362">
        <ele>462.8</ele>
        <time>2021-07-29T16:45:45Z</time>
      </trkpt>
      <trkpt lat="47.34192" lon="6.97368">
        <ele>462.8</ele>
        <time>2021-07-29T16:45:46Z</time>
      </trkpt>
      <trkpt lat="47.34193" lon="6.97373">
        <ele>463</ele>
        <time>2021-07-29T16:45:47Z</time>
      </trkpt>
      <trkpt lat="47.34195" lon="6.97379">
        <ele>463</ele>
        <time>2021-07-29T16:45:48Z</time>
      </trkpt>
      <trkpt lat="47.34197" lon="6.97385">
        <ele>463</ele>
        <time>2021-07-29T16:45:49Z</time>
      </trkpt>
      <trkpt lat="47.34199" lon="6.9739">
        <ele>463</ele>
        <time>2021-07-29T16:45:50Z</time>
      </trkpt>
      <trkpt lat="47.34201" lon="6.97394">
        <ele>463</ele>
        <time>2021-07-29T16:45:51Z</time>
      </trkpt>
      <trkpt lat="47.34204" lon="6.97399">
        <ele>463.2</ele>
        <time>2021-07-29T16:45:52Z</time>
      </trkpt>
      <trkpt lat="47.34206" lon="6.97404">
        <ele>463.2</ele>
        <time>2021-07-29T16:45:53Z</time>
      </trkpt>
      <trkpt lat="47.34209" lon="6.97409">
        <ele>463.2</ele>
        <time>2021-07-29T16:45:54Z</time>
      </trkpt>
      <trkpt lat="47.3421" lon="6.97414">
        <ele>463.2</ele>
        <time>2021-07-29T16:45:55Z</time>
      </trkpt>
      <trkpt lat="47.34212" lon="6.97419">
        <ele>463.4</ele>
        <time>2021-07-29T16:45:56Z</time>
      </trkpt>
      <trkpt lat="47.34213" lon="6.97424">
        <ele>463.4</ele>
        <time>2021-07-29T16:45:57Z</time>
      </trkpt>
      <trkpt lat="47.34215" lon="6.97429">
        <ele>463.4</ele>
        <time>2021-07-29T16:45:58Z</time>
      </trkpt>
      <trkpt lat="47.34217" lon="6.97434">
        <ele>463.4</ele>
        <time>2021-07-29T16:45:59Z</time>
      </trkpt>
      <trkpt lat="47.3422" lon="6.97438">
        <ele>463.4</ele>
        <time>2021-07-29T16:46:00Z</time>
      </trkpt>
      <trkpt lat="47.34222" lon="6.97442">
        <ele>463.6</ele>
        <time>2021-07-29T16:46:01Z</time>
      </trkpt>
      <trkpt lat="47.34225" lon="6.97447">
        <ele>463.6</ele>
        <time>2021-07-29T16:46:02Z</time>
      </trkpt>
      <trkpt lat="47.34228" lon="6.97451">
        <ele>463.6</ele>
        <time>2021-07-29T16:46:03Z</time>
      </trkpt>
      <trkpt lat="47.34232" lon="6.97456">
        <ele>463.6</ele>
        <time>2021-07-29T16:46:04Z</time>
      </trkpt>
      <trkpt lat="47.34235" lon="6.97459">
        <ele>463.6</ele>
        <time>2021-07-29T16:46:05Z</time>
      </trkpt>
      <trkpt lat="47.34238" lon="6.97463">
        <ele>463.6</ele>
        <time>2021-07-29T16:46:06Z</time>
      </trkpt>
      <trkpt lat="47.34242" lon="6.97467">
        <ele>463.6</ele>
        <time>2021-07-29T16:46:07Z</time>
      </trkpt>
      <trkpt lat="47.34246" lon="6.97471">
        <ele>463.6</ele>
        <time>2021-07-29T16:46:08Z</time>
      </trkpt>
      <trkpt lat="47.3425" lon="6.97475">
        <ele>463.6</ele>
        <time>2021-07-29T16:46:09Z</time>
      </trkpt>
      <trkpt lat="47.34254" lon="6.97478">
        <ele>463.6</ele>
        <time>2021-07-29T16:46:10Z</time>
      </trkpt>
      <trkpt lat="47.34258" lon="6.97482">
        <ele>463.6</ele>
        <time>2021-07-29T16:46:11Z</time>
      </trkpt>
      <trkpt lat="47.34263" lon="6.97486">
        <ele>463.6</ele>
        <time>2021-07-29T16:46:12Z</time>
      </trkpt>
      <trkpt lat="47.34267" lon="6.9749">
        <ele>463.6</ele>
        <time>2021-07-29T16:46:13Z</time>
      </trkpt>
      <trkpt lat="47.34271" lon="6.97495">
        <ele>463.6</ele>
        <time>2021-07-29T16:46:14Z</time>
      </trkpt>
      <trkpt lat="47.34274" lon="6.975">
        <ele>463.4</ele>
        <time>2021-07-29T16:46:15Z</time>
      </trkpt>
      <trkpt lat="47.34277" lon="6.97505">
        <ele>463.4</ele>
        <time>2021-07-29T16:46:16Z</time>
      </trkpt>
      <trkpt lat="47.34281" lon="6.97509">
        <ele>463.2</ele>
        <time>2021-07-29T16:46:17Z</time>
      </trkpt>
      <trkpt lat="47.34286" lon="6.97512">
        <ele>463.2</ele>
        <time>2021-07-29T16:46:18Z</time>
      </trkpt>
      <trkpt lat="47.34289" lon="6.97518">
        <ele>463</ele>
        <time>2021-07-29T16:46:19Z</time>
      </trkpt>
      <trkpt lat="47.34293" lon="6.97524">
        <ele>463</ele>
        <time>2021-07-29T16:46:20Z</time>
      </trkpt>
      <trkpt lat="47.34298" lon="6.97528">
        <ele>462.8</ele>
        <time>2021-07-29T16:46:21Z</time>
      </trkpt>
      <trkpt lat="47.34302" lon="6.97534">
        <ele>462.8</ele>
        <time>2021-07-29T16:46:22Z</time>
      </trkpt>
      <trkpt lat="47.34307" lon="6.9754">
        <ele>462.6</ele>
        <time>2021-07-29T16:46:23Z</time>
      </trkpt>
      <trkpt lat="47.3431" lon="6.97547">
        <ele>462.4</ele>
        <time>2021-07-29T16:46:24Z</time>
      </trkpt>
      <trkpt lat="47.34314" lon="6.97553">
        <ele>462.4</ele>
        <time>2021-07-29T16:46:25Z</time>
      </trkpt>
      <trkpt lat="47.34318" lon="6.9756">
        <ele>462.2</ele>
        <time>2021-07-29T16:46:26Z</time>
      </trkpt>
      <trkpt lat="47.34321" lon="6.97566">
        <ele>462</ele>
        <time>2021-07-29T16:46:27Z</time>
      </trkpt>
      <trkpt lat="47.34325" lon="6.97573">
        <ele>462</ele>
        <time>2021-07-29T16:46:28Z</time>
      </trkpt>
      <trkpt lat="47.34328" lon="6.9758">
        <ele>461.8</ele>
        <time>2021-07-29T16:46:29Z</time>
      </trkpt>
      <trkpt lat="47.34332" lon="6.97587">
        <ele>461.8</ele>
        <time>2021-07-29T16:46:30Z</time>
      </trkpt>
      <trkpt lat="47.34335" lon="6.97593">
        <ele>461.8</ele>
        <time>2021-07-29T16:46:31Z</time>
      </trkpt>
      <trkpt lat="47.34339" lon="6.97598">
        <ele>461.8</ele>
        <time>2021-07-29T16:46:32Z</time>
      </trkpt>
      <trkpt lat="47.34341" lon="6.97607">
        <ele>462</ele>
        <time>2021-07-29T16:46:33Z</time>
      </trkpt>
      <trkpt lat="47.34343" lon="6.97614">
        <ele>462</ele>
        <time>2021-07-29T16:46:34Z</time>
      </trkpt>
      <trkpt lat="47.34345" lon="6.9762">
        <ele>462</ele>
        <time>2021-07-29T16:46:35Z</time>
      </trkpt>
      <trkpt lat="47.34348" lon="6.97624">
        <ele>462</ele>
        <time>2021-07-29T16:46:36Z</time>
      </trkpt>
      <trkpt lat="47.34352" lon="6.97628">
        <ele>462.2</ele>
        <time>2021-07-29T16:46:37Z</time>
      </trkpt>
      <trkpt lat="47.34354" lon="6.97636">
        <ele>462.2</ele>
        <time>2021-07-29T16:46:38Z</time>
      </trkpt>
      <trkpt lat="47.34357" lon="6.97641">
        <ele>462</ele>
        <time>2021-07-29T16:46:39Z</time>
      </trkpt>
      <trkpt lat="47.34361" lon="6.97645">
        <ele>462</ele>
        <time>2021-07-29T16:46:40Z</time>
      </trkpt>
      <trkpt lat="47.34365" lon="6.9765">
        <ele>462</ele>
        <time>2021-07-29T16:46:41Z</time>
      </trkpt>
      <trkpt lat="47.34367" lon="6.97657">
        <ele>461.8</ele>
        <time>2021-07-29T16:46:42Z</time>
      </trkpt>
      <trkpt lat="47.34372" lon="6.97662">
        <ele>461.8</ele>
        <time>2021-07-29T16:46:43Z</time>
      </trkpt>
      <trkpt lat="47.34374" lon="6.97669">
        <ele>461.8</ele>
        <time>2021-07-29T16:46:44Z</time>
      </trkpt>
      <trkpt lat="47.34376" lon="6.97676">
        <ele>461.6</ele>
        <time>2021-07-29T16:46:45Z</time>
      </trkpt>
      <trkpt lat="47.34379" lon="6.97682">
        <ele>461.6</ele>
        <time>2021-07-29T16:46:46Z</time>
      </trkpt>
      <trkpt lat="47.34382" lon="6.97687">
        <ele>461.4</ele>
        <time>2021-07-29T16:46:47Z</time>
      </trkpt>
      <trkpt lat="47.34386" lon="6.97693">
        <ele>461.4</ele>
        <time>2021-07-29T16:46:48Z</time>
      </trkpt>
      <trkpt lat="47.34389" lon="6.977">
        <ele>461.4</ele>
        <time>2021-07-29T16:46:49Z</time>
      </trkpt>
      <trkpt lat="47.34392" lon="6.97707">
        <ele>461.4</ele>
        <time>2021-07-29T16:46:50Z</time>
      </trkpt>
      <trkpt lat="47.34395" lon="6.97713">
        <ele>461.4</ele>
        <time>2021-07-29T16:46:51Z</time>
      </trkpt>
      <trkpt lat="47.34398" lon="6.97721">
        <ele>461.2</ele>
        <time>2021-07-29T16:46:52Z</time>
      </trkpt>
      <trkpt lat="47.344" lon="6.9773">
        <ele>461.2</ele>
        <time>2021-07-29T16:46:53Z</time>
      </trkpt>
      <trkpt lat="47.34404" lon="6.97737">
        <ele>461.2</ele>
        <time>2021-07-29T16:46:54Z</time>
      </trkpt>
      <trkpt lat="47.34408" lon="6.97743">
        <ele>461</ele>
        <time>2021-07-29T16:46:55Z</time>
      </trkpt>
      <trkpt lat="47.3441" lon="6.97751">
        <ele>461</ele>
        <time>2021-07-29T16:46:56Z</time>
      </trkpt>
      <trkpt lat="47.34412" lon="6.9776">
        <ele>461</ele>
        <time>2021-07-29T16:46:57Z</time>
      </trkpt>
      <trkpt lat="47.34415" lon="6.97768">
        <ele>461</ele>
        <time>2021-07-29T16:46:58Z</time>
      </trkpt>
      <trkpt lat="47.34418" lon="6.97775">
        <ele>460.8</ele>
        <time>2021-07-29T16:46:59Z</time>
      </trkpt>
      <trkpt lat="47.3442" lon="6.97783">
        <ele>460.8</ele>
        <time>2021-07-29T16:47:00Z</time>
      </trkpt>
      <trkpt lat="47.34422" lon="6.97792">
        <ele>460.8</ele>
        <time>2021-07-29T16:47:01Z</time>
      </trkpt>
      <trkpt lat="47.34424" lon="6.97799">
        <ele>460.8</ele>
        <time>2021-07-29T16:47:02Z</time>
      </trkpt>
      <trkpt lat="47.34427" lon="6.97806">
        <ele>460.6</ele>
        <time>2021-07-29T16:47:03Z</time>
      </trkpt>
      <trkpt lat="47.3443" lon="6.97814">
        <ele>460.6</ele>
        <time>2021-07-29T16:47:04Z</time>
      </trkpt>
      <trkpt lat="47.34433" lon="6.97822">
        <ele>460.6</ele>
        <time>2021-07-29T16:47:05Z</time>
      </trkpt>
      <trkpt lat="47.34436" lon="6.97831">
        <ele>460.4</ele>
        <time>2021-07-29T16:47:06Z</time>
      </trkpt>
      <trkpt lat="47.34439" lon="6.97838">
        <ele>460.4</ele>
        <time>2021-07-29T16:47:07Z</time>
      </trkpt>
      <trkpt lat="47.34442" lon="6.97846">
        <ele>460.2</ele>
        <time>2021-07-29T16:47:08Z</time>
      </trkpt>
      <trkpt lat="47.34445" lon="6.97855">
        <ele>460.2</ele>
        <time>2021-07-29T16:47:09Z</time>
      </trkpt>
      <trkpt lat="47.34447" lon="6.97863">
        <ele>460.2</ele>
        <time>2021-07-29T16:47:10Z</time>
      </trkpt>
      <trkpt lat="47.34448" lon="6.97873">
        <ele>460.2</ele>
        <time>2021-07-29T16:47:11Z</time>
      </trkpt>
      <trkpt lat="47.34448" lon="6.97883">
        <ele>460.2</ele>
        <time>2021-07-29T16:47:12Z</time>
      </trkpt>
      <trkpt lat="47.34449" lon="6.97893">
        <ele>460.2</ele>
        <time>2021-07-29T16:47:13Z</time>
      </trkpt>
      <trkpt lat="47.3445" lon="6.97901">
        <ele>460.4</ele>
        <time>2021-07-29T16:47:14Z</time>
      </trkpt>
      <trkpt lat="47.34452" lon="6.97909">
        <ele>460.4</ele>
        <time>2021-07-29T16:47:15Z</time>
      </trkpt>
      <trkpt lat="47.34453" lon="6.97917">
        <ele>460.4</ele>
        <time>2021-07-29T16:47:16Z</time>
      </trkpt>
      <trkpt lat="47.34455" lon="6.97925">
        <ele>460.4</ele>
        <time>2021-07-29T16:47:17Z</time>
      </trkpt>
      <trkpt lat="47.34456" lon="6.97931">
        <ele>460.6</ele>
        <time>2021-07-29T16:47:18Z</time>
      </trkpt>
      <trkpt lat="47.34459" lon="6.97938">
        <ele>460.6</ele>
        <time>2021-07-29T16:47:19Z</time>
      </trkpt>
      <trkpt lat="47.34462" lon="6.97943">
        <ele>460.6</ele>
        <time>2021-07-29T16:47:20Z</time>
      </trkpt>
      <trkpt lat="47.34464" lon="6.9795">
        <ele>460.6</ele>
        <time>2021-07-29T16:47:21Z</time>
      </trkpt>
      <trkpt lat="47.34465" lon="6.97957">
        <ele>460.8</ele>
        <time>2021-07-29T16:47:22Z</time>
      </trkpt>
      <trkpt lat="47.34466" lon="6.97964">
        <ele>460.8</ele>
        <time>2021-07-29T16:47:23Z</time>
      </trkpt>
      <trkpt lat="47.34466" lon="6.97971">
        <ele>460.8</ele>
        <time>2021-07-29T16:47:24Z</time>
      </trkpt>
      <trkpt lat="47.34467" lon="6.97976">
        <ele>461</ele>
        <time>2021-07-29T16:47:25Z</time>
      </trkpt>
      <trkpt lat="47.34468" lon="6.97983">
        <ele>461</ele>
        <time>2021-07-29T16:47:26Z</time>
      </trkpt>
      <trkpt lat="47.3447" lon="6.97989">
        <ele>461</ele>
        <time>2021-07-29T16:47:27Z</time>
      </trkpt>
      <trkpt lat="47.34471" lon="6.97995">
        <ele>461</ele>
        <time>2021-07-29T16:47:28Z</time>
      </trkpt>
      <trkpt lat="47.34472" lon="6.98001">
        <ele>461</ele>
        <time>2021-07-29T16:47:29Z</time>
      </trkpt>
      <trkpt lat="47.34473" lon="6.98007">
        <ele>461.2</ele>
        <time>2021-07-29T16:47:30Z</time>
      </trkpt>
      <trkpt lat="47.34475" lon="6.98013">
        <ele>461.2</ele>
        <time>2021-07-29T16:47:31Z</time>
      </trkpt>
      <trkpt lat="47.34476" lon="6.9802">
        <ele>461.2</ele>
        <time>2021-07-29T16:47:32Z</time>
      </trkpt>
      <trkpt lat="47.34477" lon="6.98026">
        <ele>461.2</ele>
        <time>2021-07-29T16:47:33Z</time>
      </trkpt>
      <trkpt lat="47.34477" lon="6.98032">
        <ele>461.2</ele>
        <time>2021-07-29T16:47:34Z</time>
      </trkpt>
      <trkpt lat="47.34478" lon="6.98038">
        <ele>461.2</ele>
        <time>2021-07-29T16:47:35Z</time>
      </trkpt>
      <trkpt lat="47.34478" lon="6.98044">
        <ele>461.2</ele>
        <time>2021-07-29T16:47:36Z</time>
      </trkpt>
      <trkpt lat="47.34479" lon="6.9805">
        <ele>461.4</ele>
        <time>2021-07-29T16:47:37Z</time>
      </trkpt>
      <trkpt lat="47.34479" lon="6.98057">
        <ele>461.4</ele>
        <time>2021-07-29T16:47:38Z</time>
      </trkpt>
      <trkpt lat="47.3448" lon="6.98063">
        <ele>461.4</ele>
        <time>2021-07-29T16:47:39Z</time>
      </trkpt>
      <trkpt lat="47.3448" lon="6.98069">
        <ele>461.4</ele>
        <time>2021-07-29T16:47:40Z</time>
      </trkpt>
      <trkpt lat="47.34479" lon="6.98076">
        <ele>461.4</ele>
        <time>2021-07-29T16:47:41Z</time>
      </trkpt>
      <trkpt lat="47.34477" lon="6.98084">
        <ele>461.4</ele>
        <time>2021-07-29T16:47:42Z</time>
      </trkpt>
      <trkpt lat="47.34477" lon="6.98091">
        <ele>461.4</ele>
        <time>2021-07-29T16:47:43Z</time>
      </trkpt>
      <trkpt lat="47.34475" lon="6.98098">
        <ele>461.4</ele>
        <time>2021-07-29T16:47:44Z</time>
      </trkpt>
      <trkpt lat="47.34474" lon="6.98106">
        <ele>461.4</ele>
        <time>2021-07-29T16:47:45Z</time>
      </trkpt>
      <trkpt lat="47.34473" lon="6.98113">
        <ele>461.4</ele>
        <time>2021-07-29T16:47:46Z</time>
      </trkpt>
      <trkpt lat="47.34472" lon="6.98121">
        <ele>461.4</ele>
        <time>2021-07-29T16:47:47Z</time>
      </trkpt>
      <trkpt lat="47.34471" lon="6.98128">
        <ele>461.2</ele>
        <time>2021-07-29T16:47:48Z</time>
      </trkpt>
      <trkpt lat="47.3447" lon="6.98136">
        <ele>461.2</ele>
        <time>2021-07-29T16:47:49Z</time>
      </trkpt>
      <trkpt lat="47.3447" lon="6.98143">
        <ele>461.2</ele>
        <time>2021-07-29T16:47:50Z</time>
      </trkpt>
      <trkpt lat="47.34469" lon="6.98151">
        <ele>461.2</ele>
        <time>2021-07-29T16:47:51Z</time>
      </trkpt>
      <trkpt lat="47.34468" lon="6.98158">
        <ele>461.2</ele>
        <time>2021-07-29T16:47:52Z</time>
      </trkpt>
      <trkpt lat="47.34467" lon="6.98166">
        <ele>461</ele>
        <time>2021-07-29T16:47:53Z</time>
      </trkpt>
      <trkpt lat="47.34466" lon="6.98175">
        <ele>461</ele>
        <time>2021-07-29T16:47:54Z</time>
      </trkpt>
      <trkpt lat="47.34465" lon="6.98183">
        <ele>461</ele>
        <time>2021-07-29T16:47:55Z</time>
      </trkpt>
      <trkpt lat="47.34465" lon="6.98191">
        <ele>461</ele>
        <time>2021-07-29T16:47:56Z</time>
      </trkpt>
      <trkpt lat="47.34464" lon="6.98199">
        <ele>461</ele>
        <time>2021-07-29T16:47:57Z</time>
      </trkpt>
      <trkpt lat="47.34463" lon="6.98206">
        <ele>461</ele>
        <time>2021-07-29T16:47:58Z</time>
      </trkpt>
      <trkpt lat="47.34462" lon="6.98214">
        <ele>461</ele>
        <time>2021-07-29T16:47:59Z</time>
      </trkpt>
      <trkpt lat="47.34461" lon="6.98222">
        <ele>461</ele>
        <time>2021-07-29T16:48:00Z</time>
      </trkpt>
      <trkpt lat="47.3446" lon="6.9823">
        <ele>461</ele>
        <time>2021-07-29T16:48:01Z</time>
      </trkpt>
      <trkpt lat="47.34459" lon="6.98238">
        <ele>461</ele>
        <time>2021-07-29T16:48:02Z</time>
      </trkpt>
      <trkpt lat="47.34458" lon="6.98246">
        <ele>461</ele>
        <time>2021-07-29T16:48:03Z</time>
      </trkpt>
      <trkpt lat="47.34456" lon="6.98254">
        <ele>460.8</ele>
        <time>2021-07-29T16:48:04Z</time>
      </trkpt>
      <trkpt lat="47.34455" lon="6.98262">
        <ele>460.8</ele>
        <time>2021-07-29T16:48:05Z</time>
      </trkpt>
      <trkpt lat="47.34453" lon="6.98269">
        <ele>460.8</ele>
        <time>2021-07-29T16:48:06Z</time>
      </trkpt>
      <trkpt lat="47.34452" lon="6.98277">
        <ele>460.6</ele>
        <time>2021-07-29T16:48:07Z</time>
      </trkpt>
      <trkpt lat="47.3445" lon="6.98284">
        <ele>460.6</ele>
        <time>2021-07-29T16:48:08Z</time>
      </trkpt>
      <trkpt lat="47.34448" lon="6.98292">
        <ele>460.4</ele>
        <time>2021-07-29T16:48:09Z</time>
      </trkpt>
      <trkpt lat="47.34446" lon="6.983">
        <ele>460.4</ele>
        <time>2021-07-29T16:48:10Z</time>
      </trkpt>
      <trkpt lat="47.34443" lon="6.98307">
        <ele>460.4</ele>
        <time>2021-07-29T16:48:11Z</time>
      </trkpt>
      <trkpt lat="47.34441" lon="6.98315">
        <ele>460.4</ele>
        <time>2021-07-29T16:48:12Z</time>
      </trkpt>
      <trkpt lat="47.34439" lon="6.98322">
        <ele>460.6</ele>
        <time>2021-07-29T16:48:13Z</time>
      </trkpt>
      <trkpt lat="47.34437" lon="6.98328">
        <ele>460.6</ele>
        <time>2021-07-29T16:48:14Z</time>
      </trkpt>
      <trkpt lat="47.34434" lon="6.98335">
        <ele>460.6</ele>
        <time>2021-07-29T16:48:15Z</time>
      </trkpt>
      <trkpt lat="47.34432" lon="6.98341">
        <ele>460.8</ele>
        <time>2021-07-29T16:48:16Z</time>
      </trkpt>
      <trkpt lat="47.3443" lon="6.98348">
        <ele>460.8</ele>
        <time>2021-07-29T16:48:17Z</time>
      </trkpt>
      <trkpt lat="47.34428" lon="6.98354">
        <ele>460.8</ele>
        <time>2021-07-29T16:48:18Z</time>
      </trkpt>
      <trkpt lat="47.34425" lon="6.9836">
        <ele>460.8</ele>
        <time>2021-07-29T16:48:19Z</time>
      </trkpt>
      <trkpt lat="47.34422" lon="6.98366">
        <ele>460.8</ele>
        <time>2021-07-29T16:48:20Z</time>
      </trkpt>
      <trkpt lat="47.3442" lon="6.98372">
        <ele>460.8</ele>
        <time>2021-07-29T16:48:21Z</time>
      </trkpt>
      <trkpt lat="47.34417" lon="6.98377">
        <ele>460.8</ele>
        <time>2021-07-29T16:48:22Z</time>
      </trkpt>
      <trkpt lat="47.34414" lon="6.98383">
        <ele>460.8</ele>
        <time>2021-07-29T16:48:23Z</time>
      </trkpt>
      <trkpt lat="47.34411" lon="6.98388">
        <ele>460.8</ele>
        <time>2021-07-29T16:48:24Z</time>
      </trkpt>
      <trkpt lat="47.34408" lon="6.98394">
        <ele>460.8</ele>
        <time>2021-07-29T16:48:25Z</time>
      </trkpt>
      <trkpt lat="47.34405" lon="6.98399">
        <ele>461</ele>
        <time>2021-07-29T16:48:26Z</time>
      </trkpt>
      <trkpt lat="47.34402" lon="6.98404">
        <ele>460.8</ele>
        <time>2021-07-29T16:48:27Z</time>
      </trkpt>
      <trkpt lat="47.34399" lon="6.9841">
        <ele>460.8</ele>
        <time>2021-07-29T16:48:28Z</time>
      </trkpt>
      <trkpt lat="47.34397" lon="6.98415">
        <ele>460.8</ele>
        <time>2021-07-29T16:48:29Z</time>
      </trkpt>
      <trkpt lat="47.34394" lon="6.98421">
        <ele>460.8</ele>
        <time>2021-07-29T16:48:30Z</time>
      </trkpt>
      <trkpt lat="47.34391" lon="6.98427">
        <ele>460.8</ele>
        <time>2021-07-29T16:48:31Z</time>
      </trkpt>
      <trkpt lat="47.34387" lon="6.98432">
        <ele>460.8</ele>
        <time>2021-07-29T16:48:32Z</time>
      </trkpt>
      <trkpt lat="47.34384" lon="6.98438">
        <ele>461</ele>
        <time>2021-07-29T16:48:33Z</time>
      </trkpt>
      <trkpt lat="47.34381" lon="6.98443">
        <ele>460.8</ele>
        <time>2021-07-29T16:48:34Z</time>
      </trkpt>
      <trkpt lat="47.34378" lon="6.98449">
        <ele>461</ele>
        <time>2021-07-29T16:48:35Z</time>
      </trkpt>
      <trkpt lat="47.34375" lon="6.98455">
        <ele>461</ele>
        <time>2021-07-29T16:48:36Z</time>
      </trkpt>
      <trkpt lat="47.34372" lon="6.98461">
        <ele>460.8</ele>
        <time>2021-07-29T16:48:37Z</time>
      </trkpt>
      <trkpt lat="47.34369" lon="6.98467">
        <ele>460.8</ele>
        <time>2021-07-29T16:48:38Z</time>
      </trkpt>
      <trkpt lat="47.34366" lon="6.98473">
        <ele>460.6</ele>
        <time>2021-07-29T16:48:39Z</time>
      </trkpt>
      <trkpt lat="47.34362" lon="6.98479">
        <ele>460.6</ele>
        <time>2021-07-29T16:48:40Z</time>
      </trkpt>
      <trkpt lat="47.34359" lon="6.98485">
        <ele>460.6</ele>
        <time>2021-07-29T16:48:41Z</time>
      </trkpt>
      <trkpt lat="47.34356" lon="6.98491">
        <ele>460.4</ele>
        <time>2021-07-29T16:48:42Z</time>
      </trkpt>
      <trkpt lat="47.34353" lon="6.98498">
        <ele>460.4</ele>
        <time>2021-07-29T16:48:43Z</time>
      </trkpt>
      <trkpt lat="47.34349" lon="6.98504">
        <ele>460.4</ele>
        <time>2021-07-29T16:48:44Z</time>
      </trkpt>
      <trkpt lat="47.34346" lon="6.9851">
        <ele>460.4</ele>
        <time>2021-07-29T16:48:45Z</time>
      </trkpt>
      <trkpt lat="47.34342" lon="6.98516">
        <ele>460.4</ele>
        <time>2021-07-29T16:48:46Z</time>
      </trkpt>
      <trkpt lat="47.34339" lon="6.98522">
        <ele>460.4</ele>
        <time>2021-07-29T16:48:47Z</time>
      </trkpt>
      <trkpt lat="47.34335" lon="6.98528">
        <ele>460.4</ele>
        <time>2021-07-29T16:48:48Z</time>
      </trkpt>
      <trkpt lat="47.34331" lon="6.98534">
        <ele>460.4</ele>
        <time>2021-07-29T16:48:49Z</time>
      </trkpt>
      <trkpt lat="47.34328" lon="6.98539">
        <ele>460.4</ele>
        <time>2021-07-29T16:48:50Z</time>
      </trkpt>
      <trkpt lat="47.34324" lon="6.98544">
        <ele>460.6</ele>
        <time>2021-07-29T16:48:51Z</time>
      </trkpt>
      <trkpt lat="47.3432" lon="6.98548">
        <ele>460.6</ele>
        <time>2021-07-29T16:48:52Z</time>
      </trkpt>
      <trkpt lat="47.34317" lon="6.98553">
        <ele>460.6</ele>
        <time>2021-07-29T16:48:53Z</time>
      </trkpt>
      <trkpt lat="47.34313" lon="6.98558">
        <ele>460.6</ele>
        <time>2021-07-29T16:48:54Z</time>
      </trkpt>
      <trkpt lat="47.34309" lon="6.98562">
        <ele>460.8</ele>
        <time>2021-07-29T16:48:55Z</time>
      </trkpt>
      <trkpt lat="47.34306" lon="6.98566">
        <ele>460.8</ele>
        <time>2021-07-29T16:48:56Z</time>
      </trkpt>
      <trkpt lat="47.34302" lon="6.98571">
        <ele>460.8</ele>
        <time>2021-07-29T16:48:57Z</time>
      </trkpt>
      <trkpt lat="47.34299" lon="6.98575">
        <ele>460.8</ele>
        <time>2021-07-29T16:48:58Z</time>
      </trkpt>
      <trkpt lat="47.34295" lon="6.98579">
        <ele>460.8</ele>
        <time>2021-07-29T16:48:59Z</time>
      </trkpt>
      <trkpt lat="47.34291" lon="6.98583">
        <ele>460.8</ele>
        <time>2021-07-29T16:49:00Z</time>
      </trkpt>
      <trkpt lat="47.34287" lon="6.98587">
        <ele>461</ele>
        <time>2021-07-29T16:49:01Z</time>
      </trkpt>
      <trkpt lat="47.34283" lon="6.98592">
        <ele>461</ele>
        <time>2021-07-29T16:49:02Z</time>
      </trkpt>
      <trkpt lat="47.34279" lon="6.98596">
        <ele>461</ele>
        <time>2021-07-29T16:49:03Z</time>
      </trkpt>
      <trkpt lat="47.34275" lon="6.986">
        <ele>460.8</ele>
        <time>2021-07-29T16:49:04Z</time>
      </trkpt>
      <trkpt lat="47.34271" lon="6.98604">
        <ele>460.8</ele>
        <time>2021-07-29T16:49:05Z</time>
      </trkpt>
      <trkpt lat="47.34267" lon="6.98607">
        <ele>460.8</ele>
        <time>2021-07-29T16:49:06Z</time>
      </trkpt>
      <trkpt lat="47.34263" lon="6.98611">
        <ele>460.8</ele>
        <time>2021-07-29T16:49:07Z</time>
      </trkpt>
      <trkpt lat="47.34258" lon="6.98614">
        <ele>460.8</ele>
        <time>2021-07-29T16:49:08Z</time>
      </trkpt>
      <trkpt lat="47.34254" lon="6.98618">
        <ele>460.8</ele>
        <time>2021-07-29T16:49:09Z</time>
      </trkpt>
      <trkpt lat="47.3425" lon="6.98621">
        <ele>460.8</ele>
        <time>2021-07-29T16:49:10Z</time>
      </trkpt>
      <trkpt lat="47.34245" lon="6.98624">
        <ele>460.8</ele>
        <time>2021-07-29T16:49:11Z</time>
      </trkpt>
      <trkpt lat="47.34241" lon="6.98627">
        <ele>461</ele>
        <time>2021-07-29T16:49:12Z</time>
      </trkpt>
      <trkpt lat="47.34237" lon="6.98631">
        <ele>461</ele>
        <time>2021-07-29T16:49:13Z</time>
      </trkpt>
      <trkpt lat="47.34232" lon="6.98634">
        <ele>461</ele>
        <time>2021-07-29T16:49:14Z</time>
      </trkpt>
      <trkpt lat="47.34228" lon="6.98637">
        <ele>461</ele>
        <time>2021-07-29T16:49:15Z</time>
      </trkpt>
      <trkpt lat="47.34223" lon="6.9864">
        <ele>460.8</ele>
        <time>2021-07-29T16:49:16Z</time>
      </trkpt>
      <trkpt lat="47.34219" lon="6.98644">
        <ele>461</ele>
        <time>2021-07-29T16:49:17Z</time>
      </trkpt>
      <trkpt lat="47.34215" lon="6.98647">
        <ele>461</ele>
        <time>2021-07-29T16:49:18Z</time>
      </trkpt>
      <trkpt lat="47.34211" lon="6.9865">
        <ele>461</ele>
        <time>2021-07-29T16:49:19Z</time>
      </trkpt>
      <trkpt lat="47.34207" lon="6.98653">
        <ele>461</ele>
        <time>2021-07-29T16:49:20Z</time>
      </trkpt>
      <trkpt lat="47.34203" lon="6.98656">
        <ele>461</ele>
        <time>2021-07-29T16:49:21Z</time>
      </trkpt>
      <trkpt lat="47.34199" lon="6.9866">
        <ele>461</ele>
        <time>2021-07-29T16:49:22Z</time>
      </trkpt>
      <trkpt lat="47.34195" lon="6.98663">
        <ele>461</ele>
        <time>2021-07-29T16:49:23Z</time>
      </trkpt>
      <trkpt lat="47.34191" lon="6.98666">
        <ele>461</ele>
        <time>2021-07-29T16:49:24Z</time>
      </trkpt>
      <trkpt lat="47.34187" lon="6.98669">
        <ele>461</ele>
        <time>2021-07-29T16:49:25Z</time>
      </trkpt>
      <trkpt lat="47.34183" lon="6.98672">
        <ele>461</ele>
        <time>2021-07-29T16:49:26Z</time>
      </trkpt>
      <trkpt lat="47.34178" lon="6.98675">
        <ele>461</ele>
        <time>2021-07-29T16:49:27Z</time>
      </trkpt>
      <trkpt lat="47.34174" lon="6.98679">
        <ele>461</ele>
        <time>2021-07-29T16:49:28Z</time>
      </trkpt>
      <trkpt lat="47.34171" lon="6.98683">
        <ele>461</ele>
        <time>2021-07-29T16:49:29Z</time>
      </trkpt>
      <trkpt lat="47.34167" lon="6.98687">
        <ele>461</ele>
        <time>2021-07-29T16:49:30Z</time>
      </trkpt>
      <trkpt lat="47.34163" lon="6.98691">
        <ele>461</ele>
        <time>2021-07-29T16:49:31Z</time>
      </trkpt>
      <trkpt lat="47.34159" lon="6.98696">
        <ele>461</ele>
        <time>2021-07-29T16:49:32Z</time>
      </trkpt>
      <trkpt lat="47.34155" lon="6.987">
        <ele>461</ele>
        <time>2021-07-29T16:49:33Z</time>
      </trkpt>
      <trkpt lat="47.34152" lon="6.98705">
        <ele>461</ele>
        <time>2021-07-29T16:49:34Z</time>
      </trkpt>
      <trkpt lat="47.34148" lon="6.9871">
        <ele>461</ele>
        <time>2021-07-29T16:49:35Z</time>
      </trkpt>
      <trkpt lat="47.34145" lon="6.98716">
        <ele>461</ele>
        <time>2021-07-29T16:49:36Z</time>
      </trkpt>
      <trkpt lat="47.34142" lon="6.98721">
        <ele>461</ele>
        <time>2021-07-29T16:49:37Z</time>
      </trkpt>
      <trkpt lat="47.34138" lon="6.98727">
        <ele>461</ele>
        <time>2021-07-29T16:49:38Z</time>
      </trkpt>
      <trkpt lat="47.34135" lon="6.98733">
        <ele>461</ele>
        <time>2021-07-29T16:49:39Z</time>
      </trkpt>
      <trkpt lat="47.34133" lon="6.98738">
        <ele>461</ele>
        <time>2021-07-29T16:49:40Z</time>
      </trkpt>
      <trkpt lat="47.3413" lon="6.98744">
        <ele>461</ele>
        <time>2021-07-29T16:49:41Z</time>
      </trkpt>
      <trkpt lat="47.34128" lon="6.9875">
        <ele>461.2</ele>
        <time>2021-07-29T16:49:42Z</time>
      </trkpt>
      <trkpt lat="47.34126" lon="6.98756">
        <ele>461</ele>
        <time>2021-07-29T16:49:43Z</time>
      </trkpt>
      <trkpt lat="47.34123" lon="6.98762">
        <ele>461.2</ele>
        <time>2021-07-29T16:49:44Z</time>
      </trkpt>
      <trkpt lat="47.34122" lon="6.98769">
        <ele>461.2</ele>
        <time>2021-07-29T16:49:45Z</time>
      </trkpt>
      <trkpt lat="47.3412" lon="6.98775">
        <ele>461.2</ele>
        <time>2021-07-29T16:49:46Z</time>
      </trkpt>
      <trkpt lat="47.34119" lon="6.98782">
        <ele>461.2</ele>
        <time>2021-07-29T16:49:47Z</time>
      </trkpt>
      <trkpt lat="47.34117" lon="6.98789">
        <ele>461.2</ele>
        <time>2021-07-29T16:49:48Z</time>
      </trkpt>
      <trkpt lat="47.34116" lon="6.98796">
        <ele>461.2</ele>
        <time>2021-07-29T16:49:49Z</time>
      </trkpt>
      <trkpt lat="47.34115" lon="6.98803">
        <ele>461.2</ele>
        <time>2021-07-29T16:49:50Z</time>
      </trkpt>
      <trkpt lat="47.34114" lon="6.9881">
        <ele>461.2</ele>
        <time>2021-07-29T16:49:51Z</time>
      </trkpt>
      <trkpt lat="47.34113" lon="6.98817">
        <ele>461.2</ele>
        <time>2021-07-29T16:49:52Z</time>
      </trkpt>
      <trkpt lat="47.34113" lon="6.98825">
        <ele>461.4</ele>
        <time>2021-07-29T16:49:53Z</time>
      </trkpt>
      <trkpt lat="47.34113" lon="6.98832">
        <ele>461.4</ele>
        <time>2021-07-29T16:49:54Z</time>
      </trkpt>
      <trkpt lat="47.34113" lon="6.98839">
        <ele>461.4</ele>
        <time>2021-07-29T16:49:55Z</time>
      </trkpt>
      <trkpt lat="47.34114" lon="6.98846">
        <ele>461.4</ele>
        <time>2021-07-29T16:49:56Z</time>
      </trkpt>
      <trkpt lat="47.34114" lon="6.98853">
        <ele>461.2</ele>
        <time>2021-07-29T16:49:57Z</time>
      </trkpt>
      <trkpt lat="47.34115" lon="6.98861">
        <ele>461.2</ele>
        <time>2021-07-29T16:49:58Z</time>
      </trkpt>
      <trkpt lat="47.34116" lon="6.98868">
        <ele>461.2</ele>
        <time>2021-07-29T16:49:59Z</time>
      </trkpt>
      <trkpt lat="47.34118" lon="6.98875">
        <ele>461.2</ele>
        <time>2021-07-29T16:50:00Z</time>
      </trkpt>
      <trkpt lat="47.34119" lon="6.98882">
        <ele>461.2</ele>
        <time>2021-07-29T16:50:01Z</time>
      </trkpt>
      <trkpt lat="47.34121" lon="6.98889">
        <ele>461.2</ele>
        <time>2021-07-29T16:50:02Z</time>
      </trkpt>
      <trkpt lat="47.34122" lon="6.98896">
        <ele>461.2</ele>
        <time>2021-07-29T16:50:03Z</time>
      </trkpt>
      <trkpt lat="47.34124" lon="6.98903">
        <ele>461.2</ele>
        <time>2021-07-29T16:50:04Z</time>
      </trkpt>
      <trkpt lat="47.34126" lon="6.9891">
        <ele>461.2</ele>
        <time>2021-07-29T16:50:05Z</time>
      </trkpt>
      <trkpt lat="47.34128" lon="6.98917">
        <ele>461.2</ele>
        <time>2021-07-29T16:50:06Z</time>
      </trkpt>
      <trkpt lat="47.34131" lon="6.98924">
        <ele>461</ele>
        <time>2021-07-29T16:50:07Z</time>
      </trkpt>
      <trkpt lat="47.34133" lon="6.98931">
        <ele>461</ele>
        <time>2021-07-29T16:50:08Z</time>
      </trkpt>
      <trkpt lat="47.34135" lon="6.98939">
        <ele>461</ele>
        <time>2021-07-29T16:50:09Z</time>
      </trkpt>
      <trkpt lat="47.34137" lon="6.98946">
        <ele>461</ele>
        <time>2021-07-29T16:50:10Z</time>
      </trkpt>
      <trkpt lat="47.3414" lon="6.98953">
        <ele>461</ele>
        <time>2021-07-29T16:50:11Z</time>
      </trkpt>
      <trkpt lat="47.34142" lon="6.98961">
        <ele>460.8</ele>
        <time>2021-07-29T16:50:12Z</time>
      </trkpt>
      <trkpt lat="47.34145" lon="6.98968">
        <ele>461</ele>
        <time>2021-07-29T16:50:13Z</time>
      </trkpt>
      <trkpt lat="47.34147" lon="6.98976">
        <ele>461</ele>
        <time>2021-07-29T16:50:14Z</time>
      </trkpt>
      <trkpt lat="47.3415" lon="6.98983">
        <ele>461</ele>
        <time>2021-07-29T16:50:15Z</time>
      </trkpt>
      <trkpt lat="47.34152" lon="6.98991">
        <ele>460.8</ele>
        <time>2021-07-29T16:50:16Z</time>
      </trkpt>
      <trkpt lat="47.34155" lon="6.98998">
        <ele>460.8</ele>
        <time>2021-07-29T16:50:17Z</time>
      </trkpt>
      <trkpt lat="47.34157" lon="6.99006">
        <ele>461</ele>
        <time>2021-07-29T16:50:18Z</time>
      </trkpt>
      <trkpt lat="47.3416" lon="6.99013">
        <ele>461</ele>
        <time>2021-07-29T16:50:19Z</time>
      </trkpt>
      <trkpt lat="47.34162" lon="6.9902">
        <ele>460.8</ele>
        <time>2021-07-29T16:50:20Z</time>
      </trkpt>
      <trkpt lat="47.34164" lon="6.99027">
        <ele>460.8</ele>
        <time>2021-07-29T16:50:21Z</time>
      </trkpt>
      <trkpt lat="47.34167" lon="6.99035">
        <ele>460.8</ele>
        <time>2021-07-29T16:50:22Z</time>
      </trkpt>
      <trkpt lat="47.34169" lon="6.99042">
        <ele>460.8</ele>
        <time>2021-07-29T16:50:23Z</time>
      </trkpt>
      <trkpt lat="47.34171" lon="6.9905">
        <ele>460.6</ele>
        <time>2021-07-29T16:50:24Z</time>
      </trkpt>
      <trkpt lat="47.34174" lon="6.99057">
        <ele>460.6</ele>
        <time>2021-07-29T16:50:25Z</time>
      </trkpt>
      <trkpt lat="47.34176" lon="6.99065">
        <ele>460.4</ele>
        <time>2021-07-29T16:50:26Z</time>
      </trkpt>
      <trkpt lat="47.34179" lon="6.99072">
        <ele>460.4</ele>
        <time>2021-07-29T16:50:27Z</time>
      </trkpt>
      <trkpt lat="47.34181" lon="6.99079">
        <ele>460.2</ele>
        <time>2021-07-29T16:50:28Z</time>
      </trkpt>
      <trkpt lat="47.34184" lon="6.99087">
        <ele>460.2</ele>
        <time>2021-07-29T16:50:29Z</time>
      </trkpt>
      <trkpt lat="47.34186" lon="6.99094">
        <ele>460.2</ele>
        <time>2021-07-29T16:50:30Z</time>
      </trkpt>
      <trkpt lat="47.34189" lon="6.99101">
        <ele>460.2</ele>
        <time>2021-07-29T16:50:31Z</time>
      </trkpt>
      <trkpt lat="47.34191" lon="6.99108">
        <ele>460.2</ele>
        <time>2021-07-29T16:50:32Z</time>
      </trkpt>
      <trkpt lat="47.34194" lon="6.99116">
        <ele>460.2</ele>
        <time>2021-07-29T16:50:33Z</time>
      </trkpt>
      <trkpt lat="47.34196" lon="6.99123">
        <ele>460.2</ele>
        <time>2021-07-29T16:50:34Z</time>
      </trkpt>
      <trkpt lat="47.34198" lon="6.9913">
        <ele>460.2</ele>
        <time>2021-07-29T16:50:35Z</time>
      </trkpt>
      <trkpt lat="47.34201" lon="6.99137">
        <ele>460.2</ele>
        <time>2021-07-29T16:50:36Z</time>
      </trkpt>
      <trkpt lat="47.34203" lon="6.99143">
        <ele>460.2</ele>
        <time>2021-07-29T16:50:37Z</time>
      </trkpt>
      <trkpt lat="47.34206" lon="6.9915">
        <ele>460.2</ele>
        <time>2021-07-29T16:50:38Z</time>
      </trkpt>
      <trkpt lat="47.34208" lon="6.99157">
        <ele>460.2</ele>
        <time>2021-07-29T16:50:39Z</time>
      </trkpt>
      <trkpt lat="47.3421" lon="6.99164">
        <ele>460</ele>
        <time>2021-07-29T16:50:40Z</time>
      </trkpt>
      <trkpt lat="47.34212" lon="6.9917">
        <ele>460</ele>
        <time>2021-07-29T16:50:41Z</time>
      </trkpt>
      <trkpt lat="47.34215" lon="6.99177">
        <ele>460</ele>
        <time>2021-07-29T16:50:42Z</time>
      </trkpt>
      <trkpt lat="47.34217" lon="6.99183">
        <ele>460</ele>
        <time>2021-07-29T16:50:43Z</time>
      </trkpt>
      <trkpt lat="47.3422" lon="6.9919">
        <ele>459.8</ele>
        <time>2021-07-29T16:50:44Z</time>
      </trkpt>
      <trkpt lat="47.34222" lon="6.99196">
        <ele>459.8</ele>
        <time>2021-07-29T16:50:45Z</time>
      </trkpt>
      <trkpt lat="47.34225" lon="6.99202">
        <ele>459.8</ele>
        <time>2021-07-29T16:50:46Z</time>
      </trkpt>
      <trkpt lat="47.34228" lon="6.99208">
        <ele>459.8</ele>
        <time>2021-07-29T16:50:47Z</time>
      </trkpt>
      <trkpt lat="47.34231" lon="6.99213">
        <ele>459.8</ele>
        <time>2021-07-29T16:50:48Z</time>
      </trkpt>
      <trkpt lat="47.34234" lon="6.99219">
        <ele>459.8</ele>
        <time>2021-07-29T16:50:49Z</time>
      </trkpt>
      <trkpt lat="47.34237" lon="6.99224">
        <ele>459.8</ele>
        <time>2021-07-29T16:50:50Z</time>
      </trkpt>
      <trkpt lat="47.34241" lon="6.9923">
        <ele>459.8</ele>
        <time>2021-07-29T16:50:51Z</time>
      </trkpt>
      <trkpt lat="47.34244" lon="6.99235">
        <ele>459.8</ele>
        <time>2021-07-29T16:50:52Z</time>
      </trkpt>
      <trkpt lat="47.34247" lon="6.9924">
        <ele>459.8</ele>
        <time>2021-07-29T16:50:53Z</time>
      </trkpt>
      <trkpt lat="47.34251" lon="6.99245">
        <ele>459.8</ele>
        <time>2021-07-29T16:50:54Z</time>
      </trkpt>
      <trkpt lat="47.34254" lon="6.99251">
        <ele>459.8</ele>
        <time>2021-07-29T16:50:55Z</time>
      </trkpt>
      <trkpt lat="47.34258" lon="6.99256">
        <ele>459.8</ele>
        <time>2021-07-29T16:50:56Z</time>
      </trkpt>
      <trkpt lat="47.34261" lon="6.99261">
        <ele>459.8</ele>
        <time>2021-07-29T16:50:57Z</time>
      </trkpt>
      <trkpt lat="47.34264" lon="6.99266">
        <ele>459.8</ele>
        <time>2021-07-29T16:50:58Z</time>
      </trkpt>
      <trkpt lat="47.34267" lon="6.9927">
        <ele>459.8</ele>
        <time>2021-07-29T16:50:59Z</time>
      </trkpt>
      <trkpt lat="47.3427" lon="6.99275">
        <ele>460</ele>
        <time>2021-07-29T16:51:00Z</time>
      </trkpt>
      <trkpt lat="47.34273" lon="6.9928">
        <ele>460</ele>
        <time>2021-07-29T16:51:01Z</time>
      </trkpt>
      <trkpt lat="47.34277" lon="6.99285">
        <ele>460</ele>
        <time>2021-07-29T16:51:02Z</time>
      </trkpt>
      <trkpt lat="47.34279" lon="6.9929">
        <ele>460.2</ele>
        <time>2021-07-29T16:51:03Z</time>
      </trkpt>
      <trkpt lat="47.34282" lon="6.99294">
        <ele>460.2</ele>
        <time>2021-07-29T16:51:04Z</time>
      </trkpt>
      <trkpt lat="47.34285" lon="6.99297">
        <ele>460.2</ele>
        <time>2021-07-29T16:51:05Z</time>
      </trkpt>
      <trkpt lat="47.34289" lon="6.99301">
        <ele>460.2</ele>
        <time>2021-07-29T16:51:06Z</time>
      </trkpt>
      <trkpt lat="47.34292" lon="6.99305">
        <ele>460.2</ele>
        <time>2021-07-29T16:51:07Z</time>
      </trkpt>
      <trkpt lat="47.34295" lon="6.99309">
        <ele>460.4</ele>
        <time>2021-07-29T16:51:08Z</time>
      </trkpt>
      <trkpt lat="47.34298" lon="6.99312">
        <ele>460.4</ele>
        <time>2021-07-29T16:51:09Z</time>
      </trkpt>
      <trkpt lat="47.34301" lon="6.99316">
        <ele>460.4</ele>
        <time>2021-07-29T16:51:10Z</time>
      </trkpt>
      <trkpt lat="47.34304" lon="6.9932">
        <ele>460.6</ele>
        <time>2021-07-29T16:51:11Z</time>
      </trkpt>
      <trkpt lat="47.34308" lon="6.99323">
        <ele>460.6</ele>
        <time>2021-07-29T16:51:12Z</time>
      </trkpt>
      <trkpt lat="47.34311" lon="6.99326">
        <ele>460.8</ele>
        <time>2021-07-29T16:51:13Z</time>
      </trkpt>
      <trkpt lat="47.34314" lon="6.9933">
        <ele>461</ele>
        <time>2021-07-29T16:51:14Z</time>
      </trkpt>
      <trkpt lat="47.34317" lon="6.99333">
        <ele>461</ele>
        <time>2021-07-29T16:51:15Z</time>
      </trkpt>
      <trkpt lat="47.3432" lon="6.99336">
        <ele>461.2</ele>
        <time>2021-07-29T16:51:16Z</time>
      </trkpt>
      <trkpt lat="47.34324" lon="6.99338">
        <ele>461.2</ele>
        <time>2021-07-29T16:51:17Z</time>
      </trkpt>
      <trkpt lat="47.34326" lon="6.99341">
        <ele>461.4</ele>
        <time>2021-07-29T16:51:18Z</time>
      </trkpt>
      <trkpt lat="47.34329" lon="6.99343">
        <ele>461.6</ele>
        <time>2021-07-29T16:51:19Z</time>
      </trkpt>
      <trkpt lat="47.34331" lon="6.99346">
        <ele>461.6</ele>
        <time>2021-07-29T16:51:20Z</time>
      </trkpt>
      <trkpt lat="47.34334" lon="6.99347">
        <ele>461.8</ele>
        <time>2021-07-29T16:51:21Z</time>
      </trkpt>
      <trkpt lat="47.34336" lon="6.99349">
        <ele>461.8</ele>
        <time>2021-07-29T16:51:22Z</time>
      </trkpt>
      <trkpt lat="47.34339" lon="6.9935">
        <ele>462</ele>
        <time>2021-07-29T16:51:23Z</time>
      </trkpt>
      <trkpt lat="47.34341" lon="6.99352">
        <ele>462</ele>
        <time>2021-07-29T16:51:24Z</time>
      </trkpt>
      <trkpt lat="47.34344" lon="6.99354">
        <ele>462.2</ele>
        <time>2021-07-29T16:51:25Z</time>
      </trkpt>
      <trkpt lat="47.34346" lon="6.99356">
        <ele>462.4</ele>
        <time>2021-07-29T16:51:26Z</time>
      </trkpt>
      <trkpt lat="47.34348" lon="6.99358">
        <ele>462.4</ele>
        <time>2021-07-29T16:51:27Z</time>
      </trkpt>
      <trkpt lat="47.3435" lon="6.9936">
        <ele>462.6</ele>
        <time>2021-07-29T16:51:28Z</time>
      </trkpt>
      <trkpt lat="47.34353" lon="6.99361">
        <ele>462.6</ele>
        <time>2021-07-29T16:51:29Z</time>
      </trkpt>
      <trkpt lat="47.34355" lon="6.99363">
        <ele>462.6</ele>
        <time>2021-07-29T16:51:30Z</time>
      </trkpt>
      <trkpt lat="47.34358" lon="6.99364">
        <ele>462.8</ele>
        <time>2021-07-29T16:51:31Z</time>
      </trkpt>
      <trkpt lat="47.3436" lon="6.99366">
        <ele>462.8</ele>
        <time>2021-07-29T16:51:32Z</time>
      </trkpt>
      <trkpt lat="47.34362" lon="6.99368">
        <ele>463</ele>
        <time>2021-07-29T16:51:33Z</time>
      </trkpt>
      <trkpt lat="47.34365" lon="6.9937">
        <ele>463</ele>
        <time>2021-07-29T16:51:34Z</time>
      </trkpt>
      <trkpt lat="47.34367" lon="6.99372">
        <ele>463</ele>
        <time>2021-07-29T16:51:35Z</time>
      </trkpt>
      <trkpt lat="47.3437" lon="6.99374">
        <ele>463</ele>
        <time>2021-07-29T16:51:36Z</time>
      </trkpt>
      <trkpt lat="47.34373" lon="6.99377">
        <ele>463</ele>
        <time>2021-07-29T16:51:37Z</time>
      </trkpt>
      <trkpt lat="47.34376" lon="6.9938">
        <ele>463</ele>
        <time>2021-07-29T16:51:38Z</time>
      </trkpt>
      <trkpt lat="47.34379" lon="6.99382">
        <ele>462.8</ele>
        <time>2021-07-29T16:51:39Z</time>
      </trkpt>
      <trkpt lat="47.34382" lon="6.99386">
        <ele>462.6</ele>
        <time>2021-07-29T16:51:40Z</time>
      </trkpt>
      <trkpt lat="47.34385" lon="6.99389">
        <ele>462.6</ele>
        <time>2021-07-29T16:51:41Z</time>
      </trkpt>
      <trkpt lat="47.34388" lon="6.99393">
        <ele>462.4</ele>
        <time>2021-07-29T16:51:42Z</time>
      </trkpt>
      <trkpt lat="47.34391" lon="6.99396">
        <ele>462.4</ele>
        <time>2021-07-29T16:51:43Z</time>
      </trkpt>
      <trkpt lat="47.34393" lon="6.994">
        <ele>462.4</ele>
        <time>2021-07-29T16:51:44Z</time>
      </trkpt>
      <trkpt lat="47.34395" lon="6.99405">
        <ele>462.2</ele>
        <time>2021-07-29T16:51:45Z</time>
      </trkpt>
      <trkpt lat="47.34397" lon="6.99409">
        <ele>462.2</ele>
        <time>2021-07-29T16:51:46Z</time>
      </trkpt>
      <trkpt lat="47.34399" lon="6.99413">
        <ele>462.2</ele>
        <time>2021-07-29T16:51:47Z</time>
      </trkpt>
      <trkpt lat="47.34401" lon="6.99418">
        <ele>462.4</ele>
        <time>2021-07-29T16:51:48Z</time>
      </trkpt>
      <trkpt lat="47.34402" lon="6.99422">
        <ele>462.4</ele>
        <time>2021-07-29T16:51:49Z</time>
      </trkpt>
      <trkpt lat="47.34403" lon="6.99426">
        <ele>462.4</ele>
        <time>2021-07-29T16:51:50Z</time>
      </trkpt>
      <trkpt lat="47.34405" lon="6.99431">
        <ele>462.2</ele>
        <time>2021-07-29T16:51:51Z</time>
      </trkpt>
      <trkpt lat="47.34406" lon="6.99436">
        <ele>462.4</ele>
        <time>2021-07-29T16:51:52Z</time>
      </trkpt>
      <trkpt lat="47.34407" lon="6.99441">
        <ele>462.4</ele>
        <time>2021-07-29T16:51:53Z</time>
      </trkpt>
      <trkpt lat="47.34407" lon="6.99446">
        <ele>462.2</ele>
        <time>2021-07-29T16:51:54Z</time>
      </trkpt>
      <trkpt lat="47.34407" lon="6.99451">
        <ele>462.2</ele>
        <time>2021-07-29T16:51:55Z</time>
      </trkpt>
      <trkpt lat="47.34407" lon="6.99456">
        <ele>462.2</ele>
        <time>2021-07-29T16:51:56Z</time>
      </trkpt>
      <trkpt lat="47.34407" lon="6.99462">
        <ele>462</ele>
        <time>2021-07-29T16:51:57Z</time>
      </trkpt>
      <trkpt lat="47.34408" lon="6.99468">
        <ele>461.8</ele>
        <time>2021-07-29T16:51:58Z</time>
      </trkpt>
      <trkpt lat="47.34408" lon="6.99474">
        <ele>461.8</ele>
        <time>2021-07-29T16:51:59Z</time>
      </trkpt>
      <trkpt lat="47.34408" lon="6.9948">
        <ele>461.6</ele>
        <time>2021-07-29T16:52:00Z</time>
      </trkpt>
      <trkpt lat="47.34407" lon="6.99487">
        <ele>461.6</ele>
        <time>2021-07-29T16:52:01Z</time>
      </trkpt>
      <trkpt lat="47.34407" lon="6.99492">
        <ele>461.6</ele>
        <time>2021-07-29T16:52:02Z</time>
      </trkpt>
      <trkpt lat="47.34407" lon="6.99498">
        <ele>461.4</ele>
        <time>2021-07-29T16:52:03Z</time>
      </trkpt>
      <trkpt lat="47.34407" lon="6.99503">
        <ele>461.2</ele>
        <time>2021-07-29T16:52:04Z</time>
      </trkpt>
      <trkpt lat="47.34409" lon="6.99508">
        <ele>461</ele>
        <time>2021-07-29T16:52:05Z</time>
      </trkpt>
      <trkpt lat="47.34411" lon="6.99513">
        <ele>461</ele>
        <time>2021-07-29T16:52:06Z</time>
      </trkpt>
      <trkpt lat="47.34413" lon="6.99518">
        <ele>460.8</ele>
        <time>2021-07-29T16:52:07Z</time>
      </trkpt>
      <trkpt lat="47.34416" lon="6.99525">
        <ele>460.4</ele>
        <time>2021-07-29T16:52:08Z</time>
      </trkpt>
      <trkpt lat="47.34418" lon="6.99532">
        <ele>460.2</ele>
        <time>2021-07-29T16:52:09Z</time>
      </trkpt>
      <trkpt lat="47.3442" lon="6.99539">
        <ele>460</ele>
        <time>2021-07-29T16:52:10Z</time>
      </trkpt>
      <trkpt lat="47.34421" lon="6.99546">
        <ele>459.8</ele>
        <time>2021-07-29T16:52:11Z</time>
      </trkpt>
      <trkpt lat="47.34423" lon="6.99553">
        <ele>459.8</ele>
        <time>2021-07-29T16:52:12Z</time>
      </trkpt>
      <trkpt lat="47.34424" lon="6.99561">
        <ele>459.8</ele>
        <time>2021-07-29T16:52:13Z</time>
      </trkpt>
      <trkpt lat="47.34426" lon="6.99568">
        <ele>459.8</ele>
        <time>2021-07-29T16:52:14Z</time>
      </trkpt>
      <trkpt lat="47.34427" lon="6.99575">
        <ele>459.8</ele>
        <time>2021-07-29T16:52:15Z</time>
      </trkpt>
      <trkpt lat="47.3443" lon="6.99582">
        <ele>459.6</ele>
        <time>2021-07-29T16:52:16Z</time>
      </trkpt>
      <trkpt lat="47.34432" lon="6.99589">
        <ele>459.6</ele>
        <time>2021-07-29T16:52:17Z</time>
      </trkpt>
      <trkpt lat="47.34434" lon="6.99596">
        <ele>459.6</ele>
        <time>2021-07-29T16:52:18Z</time>
      </trkpt>
      <trkpt lat="47.34436" lon="6.99603">
        <ele>459.6</ele>
        <time>2021-07-29T16:52:19Z</time>
      </trkpt>
      <trkpt lat="47.34438" lon="6.99611">
        <ele>459.6</ele>
        <time>2021-07-29T16:52:20Z</time>
      </trkpt>
      <trkpt lat="47.3444" lon="6.99618">
        <ele>459.6</ele>
        <time>2021-07-29T16:52:21Z</time>
      </trkpt>
      <trkpt lat="47.34442" lon="6.99626">
        <ele>459.6</ele>
        <time>2021-07-29T16:52:22Z</time>
      </trkpt>
      <trkpt lat="47.34444" lon="6.99633">
        <ele>459.6</ele>
        <time>2021-07-29T16:52:23Z</time>
      </trkpt>
      <trkpt lat="47.34446" lon="6.9964">
        <ele>459.6</ele>
        <time>2021-07-29T16:52:24Z</time>
      </trkpt>
      <trkpt lat="47.34447" lon="6.99648">
        <ele>459.8</ele>
        <time>2021-07-29T16:52:25Z</time>
      </trkpt>
      <trkpt lat="47.34449" lon="6.99655">
        <ele>459.6</ele>
        <time>2021-07-29T16:52:26Z</time>
      </trkpt>
      <trkpt lat="47.3445" lon="6.99662">
        <ele>459.6</ele>
        <time>2021-07-29T16:52:27Z</time>
      </trkpt>
      <trkpt lat="47.34451" lon="6.9967">
        <ele>459.6</ele>
        <time>2021-07-29T16:52:28Z</time>
      </trkpt>
      <trkpt lat="47.34452" lon="6.99677">
        <ele>459.6</ele>
        <time>2021-07-29T16:52:29Z</time>
      </trkpt>
      <trkpt lat="47.34453" lon="6.99685">
        <ele>459.6</ele>
        <time>2021-07-29T16:52:30Z</time>
      </trkpt>
      <trkpt lat="47.34454" lon="6.99692">
        <ele>459.6</ele>
        <time>2021-07-29T16:52:31Z</time>
      </trkpt>
      <trkpt lat="47.34455" lon="6.99699">
        <ele>459.6</ele>
        <time>2021-07-29T16:52:32Z</time>
      </trkpt>
      <trkpt lat="47.34456" lon="6.99707">
        <ele>459.6</ele>
        <time>2021-07-29T16:52:33Z</time>
      </trkpt>
      <trkpt lat="47.34458" lon="6.99714">
        <ele>459.6</ele>
        <time>2021-07-29T16:52:34Z</time>
      </trkpt>
      <trkpt lat="47.3446" lon="6.99722">
        <ele>459.6</ele>
        <time>2021-07-29T16:52:35Z</time>
      </trkpt>
      <trkpt lat="47.34462" lon="6.9973">
        <ele>459.6</ele>
        <time>2021-07-29T16:52:36Z</time>
      </trkpt>
      <trkpt lat="47.34463" lon="6.99737">
        <ele>459.6</ele>
        <time>2021-07-29T16:52:37Z</time>
      </trkpt>
      <trkpt lat="47.34465" lon="6.99745">
        <ele>459.6</ele>
        <time>2021-07-29T16:52:38Z</time>
      </trkpt>
      <trkpt lat="47.34466" lon="6.99753">
        <ele>459.6</ele>
        <time>2021-07-29T16:52:39Z</time>
      </trkpt>
      <trkpt lat="47.34468" lon="6.99761">
        <ele>459.6</ele>
        <time>2021-07-29T16:52:40Z</time>
      </trkpt>
      <trkpt lat="47.34469" lon="6.99769">
        <ele>459.8</ele>
        <time>2021-07-29T16:52:41Z</time>
      </trkpt>
      <trkpt lat="47.3447" lon="6.99776">
        <ele>459.8</ele>
        <time>2021-07-29T16:52:42Z</time>
      </trkpt>
      <trkpt lat="47.34471" lon="6.99784">
        <ele>459.8</ele>
        <time>2021-07-29T16:52:43Z</time>
      </trkpt>
      <trkpt lat="47.34473" lon="6.99792">
        <ele>460</ele>
        <time>2021-07-29T16:52:44Z</time>
      </trkpt>
      <trkpt lat="47.34474" lon="6.99799">
        <ele>460</ele>
        <time>2021-07-29T16:52:45Z</time>
      </trkpt>
      <trkpt lat="47.34475" lon="6.99807">
        <ele>460</ele>
        <time>2021-07-29T16:52:46Z</time>
      </trkpt>
      <trkpt lat="47.34476" lon="6.99814">
        <ele>460</ele>
        <time>2021-07-29T16:52:47Z</time>
      </trkpt>
      <trkpt lat="47.34477" lon="6.99821">
        <ele>460</ele>
        <time>2021-07-29T16:52:48Z</time>
      </trkpt>
      <trkpt lat="47.34477" lon="6.99828">
        <ele>460</ele>
        <time>2021-07-29T16:52:49Z</time>
      </trkpt>
      <trkpt lat="47.34478" lon="6.99836">
        <ele>460</ele>
        <time>2021-07-29T16:52:50Z</time>
      </trkpt>
      <trkpt lat="47.34479" lon="6.99843">
        <ele>460</ele>
        <time>2021-07-29T16:52:51Z</time>
      </trkpt>
      <trkpt lat="47.34479" lon="6.99851">
        <ele>460</ele>
        <time>2021-07-29T16:52:52Z</time>
      </trkpt>
      <trkpt lat="47.3448" lon="6.99858">
        <ele>460</ele>
        <time>2021-07-29T16:52:53Z</time>
      </trkpt>
      <trkpt lat="47.3448" lon="6.99866">
        <ele>460</ele>
        <time>2021-07-29T16:52:54Z</time>
      </trkpt>
      <trkpt lat="47.34481" lon="6.99873">
        <ele>460</ele>
        <time>2021-07-29T16:52:55Z</time>
      </trkpt>
      <trkpt lat="47.34481" lon="6.99881">
        <ele>460</ele>
        <time>2021-07-29T16:52:56Z</time>
      </trkpt>
      <trkpt lat="47.34481" lon="6.99888">
        <ele>460.2</ele>
        <time>2021-07-29T16:52:57Z</time>
      </trkpt>
      <trkpt lat="47.34482" lon="6.99895">
        <ele>460.2</ele>
        <time>2021-07-29T16:52:58Z</time>
      </trkpt>
      <trkpt lat="47.34482" lon="6.99903">
        <ele>460.2</ele>
        <time>2021-07-29T16:52:59Z</time>
      </trkpt>
      <trkpt lat="47.34482" lon="6.9991">
        <ele>460.2</ele>
        <time>2021-07-29T16:53:00Z</time>
      </trkpt>
      <trkpt lat="47.34482" lon="6.99918">
        <ele>460.2</ele>
        <time>2021-07-29T16:53:01Z</time>
      </trkpt>
      <trkpt lat="47.34482" lon="6.99925">
        <ele>460.2</ele>
        <time>2021-07-29T16:53:02Z</time>
      </trkpt>
      <trkpt lat="47.34482" lon="6.99933">
        <ele>460.2</ele>
        <time>2021-07-29T16:53:03Z</time>
      </trkpt>
      <trkpt lat="47.34482" lon="6.99941">
        <ele>460.2</ele>
        <time>2021-07-29T16:53:04Z</time>
      </trkpt>
      <trkpt lat="47.34482" lon="6.99949">
        <ele>460.2</ele>
        <time>2021-07-29T16:53:05Z</time>
      </trkpt>
      <trkpt lat="47.34482" lon="6.99956">
        <ele>460.2</ele>
        <time>2021-07-29T16:53:06Z</time>
      </trkpt>
      <trkpt lat="47.34482" lon="6.99964">
        <ele>460.2</ele>
        <time>2021-07-29T16:53:07Z</time>
      </trkpt>
      <trkpt lat="47.34482" lon="6.99972">
        <ele>460.2</ele>
        <time>2021-07-29T16:53:08Z</time>
      </trkpt>
      <trkpt lat="47.34482" lon="6.9998">
        <ele>460.2</ele>
        <time>2021-07-29T16:53:09Z</time>
      </trkpt>
      <trkpt lat="47.34482" lon="6.99988">
        <ele>460.2</ele>
        <time>2021-07-29T16:53:10Z</time>
      </trkpt>
      <trkpt lat="47.34483" lon="6.99996">
        <ele>460.2</ele>
        <time>2021-07-29T16:53:11Z</time>
      </trkpt>
      <trkpt lat="47.34483" lon="7.00004">
        <ele>460.2</ele>
        <time>2021-07-29T16:53:12Z</time>
      </trkpt>
      <trkpt lat="47.34483" lon="7.00012">
        <ele>460.4</ele>
        <time>2021-07-29T16:53:13Z</time>
      </trkpt>
      <trkpt lat="47.34483" lon="7.0002">
        <ele>460.4</ele>
        <time>2021-07-29T16:53:14Z</time>
      </trkpt>
      <trkpt lat="47.34483" lon="7.00028">
        <ele>460.4</ele>
        <time>2021-07-29T16:53:15Z</time>
      </trkpt>
      <trkpt lat="47.34483" lon="7.00036">
        <ele>460.4</ele>
        <time>2021-07-29T16:53:16Z</time>
      </trkpt>
      <trkpt lat="47.34483" lon="7.00043">
        <ele>460.4</ele>
        <time>2021-07-29T16:53:17Z</time>
      </trkpt>
      <trkpt lat="47.34483" lon="7.00051">
        <ele>460.4</ele>
        <time>2021-07-29T16:53:18Z</time>
      </trkpt>
      <trkpt lat="47.34483" lon="7.00059">
        <ele>460.4</ele>
        <time>2021-07-29T16:53:19Z</time>
      </trkpt>
      <trkpt lat="47.34482" lon="7.00067">
        <ele>460.4</ele>
        <time>2021-07-29T16:53:20Z</time>
      </trkpt>
      <trkpt lat="47.34482" lon="7.00075">
        <ele>460.4</ele>
        <time>2021-07-29T16:53:21Z</time>
      </trkpt>
      <trkpt lat="47.34482" lon="7.00082">
        <ele>460.4</ele>
        <time>2021-07-29T16:53:22Z</time>
      </trkpt>
      <trkpt lat="47.34481" lon="7.0009">
        <ele>460.4</ele>
        <time>2021-07-29T16:53:23Z</time>
      </trkpt>
      <trkpt lat="47.34481" lon="7.00098">
        <ele>460.4</ele>
        <time>2021-07-29T16:53:24Z</time>
      </trkpt>
      <trkpt lat="47.3448" lon="7.00105">
        <ele>460.2</ele>
        <time>2021-07-29T16:53:25Z</time>
      </trkpt>
      <trkpt lat="47.34479" lon="7.00113">
        <ele>460.2</ele>
        <time>2021-07-29T16:53:26Z</time>
      </trkpt>
      <trkpt lat="47.34478" lon="7.00121">
        <ele>460.4</ele>
        <time>2021-07-29T16:53:27Z</time>
      </trkpt>
      <trkpt lat="47.34477" lon="7.00129">
        <ele>460.4</ele>
        <time>2021-07-29T16:53:28Z</time>
      </trkpt>
      <trkpt lat="47.34476" lon="7.00136">
        <ele>460.4</ele>
        <time>2021-07-29T16:53:29Z</time>
      </trkpt>
      <trkpt lat="47.34475" lon="7.00144">
        <ele>460.4</ele>
        <time>2021-07-29T16:53:30Z</time>
      </trkpt>
      <trkpt lat="47.34474" lon="7.00152">
        <ele>460.4</ele>
        <time>2021-07-29T16:53:31Z</time>
      </trkpt>
      <trkpt lat="47.34473" lon="7.00159">
        <ele>460.4</ele>
        <time>2021-07-29T16:53:32Z</time>
      </trkpt>
      <trkpt lat="47.34472" lon="7.00167">
        <ele>460.6</ele>
        <time>2021-07-29T16:53:33Z</time>
      </trkpt>
      <trkpt lat="47.34471" lon="7.00175">
        <ele>460.6</ele>
        <time>2021-07-29T16:53:34Z</time>
      </trkpt>
      <trkpt lat="47.3447" lon="7.00183">
        <ele>460.6</ele>
        <time>2021-07-29T16:53:35Z</time>
      </trkpt>
      <trkpt lat="47.34469" lon="7.0019">
        <ele>460.6</ele>
        <time>2021-07-29T16:53:36Z</time>
      </trkpt>
      <trkpt lat="47.34468" lon="7.00198">
        <ele>460.6</ele>
        <time>2021-07-29T16:53:37Z</time>
      </trkpt>
      <trkpt lat="47.34467" lon="7.00206">
        <ele>460.8</ele>
        <time>2021-07-29T16:53:38Z</time>
      </trkpt>
      <trkpt lat="47.34466" lon="7.00213">
        <ele>460.8</ele>
        <time>2021-07-29T16:53:39Z</time>
      </trkpt>
      <trkpt lat="47.34465" lon="7.0022">
        <ele>461</ele>
        <time>2021-07-29T16:53:40Z</time>
      </trkpt>
      <trkpt lat="47.34464" lon="7.00228">
        <ele>461</ele>
        <time>2021-07-29T16:53:41Z</time>
      </trkpt>
      <trkpt lat="47.34463" lon="7.00235">
        <ele>461</ele>
        <time>2021-07-29T16:53:42Z</time>
      </trkpt>
      <trkpt lat="47.34462" lon="7.00242">
        <ele>461.2</ele>
        <time>2021-07-29T16:53:43Z</time>
      </trkpt>
      <trkpt lat="47.34461" lon="7.00249">
        <ele>461.4</ele>
        <time>2021-07-29T16:53:44Z</time>
      </trkpt>
      <trkpt lat="47.3446" lon="7.00255">
        <ele>461.4</ele>
        <time>2021-07-29T16:53:45Z</time>
      </trkpt>
      <trkpt lat="47.34459" lon="7.00262">
        <ele>461.6</ele>
        <time>2021-07-29T16:53:46Z</time>
      </trkpt>
      <trkpt lat="47.34459" lon="7.00268">
        <ele>461.8</ele>
        <time>2021-07-29T16:53:47Z</time>
      </trkpt>
      <trkpt lat="47.34458" lon="7.00275">
        <ele>462</ele>
        <time>2021-07-29T16:53:48Z</time>
      </trkpt>
      <trkpt lat="47.34457" lon="7.00281">
        <ele>462</ele>
        <time>2021-07-29T16:53:49Z</time>
      </trkpt>
      <trkpt lat="47.34456" lon="7.00287">
        <ele>462.2</ele>
        <time>2021-07-29T16:53:50Z</time>
      </trkpt>
      <trkpt lat="47.34455" lon="7.00293">
        <ele>462.4</ele>
        <time>2021-07-29T16:53:51Z</time>
      </trkpt>
      <trkpt lat="47.34455" lon="7.00299">
        <ele>462.6</ele>
        <time>2021-07-29T16:53:52Z</time>
      </trkpt>
      <trkpt lat="47.34454" lon="7.00305">
        <ele>462.6</ele>
        <time>2021-07-29T16:53:53Z</time>
      </trkpt>
      <trkpt lat="47.34453" lon="7.0031">
        <ele>462.8</ele>
        <time>2021-07-29T16:53:54Z</time>
      </trkpt>
      <trkpt lat="47.34452" lon="7.00316">
        <ele>463</ele>
        <time>2021-07-29T16:53:55Z</time>
      </trkpt>
      <trkpt lat="47.34451" lon="7.00322">
        <ele>463</ele>
        <time>2021-07-29T16:53:56Z</time>
      </trkpt>
      <trkpt lat="47.3445" lon="7.00328">
        <ele>463</ele>
        <time>2021-07-29T16:53:57Z</time>
      </trkpt>
      <trkpt lat="47.34449" lon="7.00334">
        <ele>463.2</ele>
        <time>2021-07-29T16:53:58Z</time>
      </trkpt>
      <trkpt lat="47.34448" lon="7.0034">
        <ele>463.2</ele>
        <time>2021-07-29T16:53:59Z</time>
      </trkpt>
      <trkpt lat="47.34447" lon="7.00345">
        <ele>463.2</ele>
        <time>2021-07-29T16:54:00Z</time>
      </trkpt>
      <trkpt lat="47.34446" lon="7.00351">
        <ele>463.4</ele>
        <time>2021-07-29T16:54:01Z</time>
      </trkpt>
      <trkpt lat="47.34445" lon="7.00357">
        <ele>463.4</ele>
        <time>2021-07-29T16:54:02Z</time>
      </trkpt>
      <trkpt lat="47.34444" lon="7.00363">
        <ele>463.6</ele>
        <time>2021-07-29T16:54:03Z</time>
      </trkpt>
      <trkpt lat="47.34442" lon="7.00368">
        <ele>463.6</ele>
        <time>2021-07-29T16:54:04Z</time>
      </trkpt>
      <trkpt lat="47.34441" lon="7.00374">
        <ele>463.6</ele>
        <time>2021-07-29T16:54:05Z</time>
      </trkpt>
      <trkpt lat="47.34439" lon="7.0038">
        <ele>463.8</ele>
        <time>2021-07-29T16:54:06Z</time>
      </trkpt>
      <trkpt lat="47.34438" lon="7.00386">
        <ele>463.8</ele>
        <time>2021-07-29T16:54:07Z</time>
      </trkpt>
      <trkpt lat="47.34437" lon="7.00391">
        <ele>463.8</ele>
        <time>2021-07-29T16:54:08Z</time>
      </trkpt>
      <trkpt lat="47.34435" lon="7.00397">
        <ele>464</ele>
        <time>2021-07-29T16:54:09Z</time>
      </trkpt>
      <trkpt lat="47.34434" lon="7.00403">
        <ele>464</ele>
        <time>2021-07-29T16:54:10Z</time>
      </trkpt>
      <trkpt lat="47.34432" lon="7.00408">
        <ele>464.2</ele>
        <time>2021-07-29T16:54:11Z</time>
      </trkpt>
      <trkpt lat="47.34431" lon="7.00414">
        <ele>464.4</ele>
        <time>2021-07-29T16:54:12Z</time>
      </trkpt>
      <trkpt lat="47.3443" lon="7.00419">
        <ele>464.6</ele>
        <time>2021-07-29T16:54:13Z</time>
      </trkpt>
      <trkpt lat="47.34428" lon="7.00424">
        <ele>464.8</ele>
        <time>2021-07-29T16:54:14Z</time>
      </trkpt>
      <trkpt lat="47.34427" lon="7.00429">
        <ele>464.8</ele>
        <time>2021-07-29T16:54:15Z</time>
      </trkpt>
      <trkpt lat="47.34425" lon="7.00433">
        <ele>465</ele>
        <time>2021-07-29T16:54:16Z</time>
      </trkpt>
      <trkpt lat="47.34424" lon="7.00438">
        <ele>465.2</ele>
        <time>2021-07-29T16:54:17Z</time>
      </trkpt>
      <trkpt lat="47.34423" lon="7.00443">
        <ele>465.4</ele>
        <time>2021-07-29T16:54:18Z</time>
      </trkpt>
      <trkpt lat="47.34422" lon="7.00447">
        <ele>465.4</ele>
        <time>2021-07-29T16:54:19Z</time>
      </trkpt>
      <trkpt lat="47.3442" lon="7.00451">
        <ele>465.6</ele>
        <time>2021-07-29T16:54:20Z</time>
      </trkpt>
      <trkpt lat="47.34419" lon="7.00456">
        <ele>465.8</ele>
        <time>2021-07-29T16:54:21Z</time>
      </trkpt>
      <trkpt lat="47.34418" lon="7.0046">
        <ele>465.8</ele>
        <time>2021-07-29T16:54:22Z</time>
      </trkpt>
      <trkpt lat="47.34417" lon="7.00464">
        <ele>466</ele>
        <time>2021-07-29T16:54:23Z</time>
      </trkpt>
      <trkpt lat="47.34415" lon="7.00468">
        <ele>466.2</ele>
        <time>2021-07-29T16:54:24Z</time>
      </trkpt>
      <trkpt lat="47.34414" lon="7.00471">
        <ele>466.4</ele>
        <time>2021-07-29T16:54:25Z</time>
      </trkpt>
      <trkpt lat="47.34413" lon="7.00475">
        <ele>466.6</ele>
        <time>2021-07-29T16:54:26Z</time>
      </trkpt>
      <trkpt lat="47.34411" lon="7.00479">
        <ele>466.8</ele>
        <time>2021-07-29T16:54:27Z</time>
      </trkpt>
      <trkpt lat="47.3441" lon="7.00482">
        <ele>467</ele>
        <time>2021-07-29T16:54:28Z</time>
      </trkpt>
      <trkpt lat="47.34408" lon="7.00486">
        <ele>467</ele>
        <time>2021-07-29T16:54:29Z</time>
      </trkpt>
      <trkpt lat="47.34407" lon="7.0049">
        <ele>467.2</ele>
        <time>2021-07-29T16:54:30Z</time>
      </trkpt>
      <trkpt lat="47.34405" lon="7.00493">
        <ele>467.4</ele>
        <time>2021-07-29T16:54:31Z</time>
      </trkpt>
      <trkpt lat="47.34404" lon="7.00497">
        <ele>467.6</ele>
        <time>2021-07-29T16:54:32Z</time>
      </trkpt>
      <trkpt lat="47.34403" lon="7.005">
        <ele>467.8</ele>
        <time>2021-07-29T16:54:33Z</time>
      </trkpt>
      <trkpt lat="47.34402" lon="7.00503">
        <ele>467.8</ele>
        <time>2021-07-29T16:54:34Z</time>
      </trkpt>
      <trkpt lat="47.34401" lon="7.00506">
        <ele>468.2</ele>
        <time>2021-07-29T16:54:35Z</time>
      </trkpt>
      <trkpt lat="47.344" lon="7.00509">
        <ele>468.4</ele>
        <time>2021-07-29T16:54:36Z</time>
      </trkpt>
      <trkpt lat="47.34399" lon="7.00511">
        <ele>468.6</ele>
        <time>2021-07-29T16:54:37Z</time>
      </trkpt>
      <trkpt lat="47.34397" lon="7.00514">
        <ele>468.6</ele>
        <time>2021-07-29T16:54:38Z</time>
      </trkpt>
      <trkpt lat="47.34396" lon="7.00517">
        <ele>468.8</ele>
        <time>2021-07-29T16:54:39Z</time>
      </trkpt>
      <trkpt lat="47.34396" lon="7.0052">
        <ele>469</ele>
        <time>2021-07-29T16:54:40Z</time>
      </trkpt>
      <trkpt lat="47.34395" lon="7.00522">
        <ele>469.2</ele>
        <time>2021-07-29T16:54:41Z</time>
      </trkpt>
      <trkpt lat="47.34394" lon="7.00524">
        <ele>469.2</ele>
        <time>2021-07-29T16:54:42Z</time>
      </trkpt>
      <trkpt lat="47.34393" lon="7.00526">
        <ele>469.4</ele>
        <time>2021-07-29T16:54:43Z</time>
      </trkpt>
      <trkpt lat="47.34392" lon="7.00529">
        <ele>469.4</ele>
        <time>2021-07-29T16:54:44Z</time>
      </trkpt>
      <trkpt lat="47.34392" lon="7.00531">
        <ele>469.4</ele>
        <time>2021-07-29T16:54:45Z</time>
      </trkpt>
      <trkpt lat="47.34391" lon="7.00533">
        <ele>469.6</ele>
        <time>2021-07-29T16:54:46Z</time>
      </trkpt>
      <trkpt lat="47.3439" lon="7.00535">
        <ele>469.6</ele>
        <time>2021-07-29T16:54:47Z</time>
      </trkpt>
      <trkpt lat="47.34389" lon="7.00536">
        <ele>469.6</ele>
        <time>2021-07-29T16:54:48Z</time>
      </trkpt>
      <trkpt lat="47.34388" lon="7.00538">
        <ele>469.6</ele>
        <time>2021-07-29T16:54:49Z</time>
      </trkpt>
      <trkpt lat="47.34388" lon="7.00539">
        <ele>469.6</ele>
        <time>2021-07-29T16:54:50Z</time>
      </trkpt>
      <trkpt lat="47.34388" lon="7.0054">
        <ele>469.6</ele>
        <time>2021-07-29T16:54:51Z</time>
      </trkpt>
      <trkpt lat="47.34388" lon="7.00541">
        <ele>469.6</ele>
        <time>2021-07-29T16:54:52Z</time>
      </trkpt>
      <trkpt lat="47.34389" lon="7.00541">
        <ele>469.8</ele>
        <time>2021-07-29T16:54:53Z</time>
      </trkpt>
      <trkpt lat="47.34389" lon="7.00541">
        <ele>469.8</ele>
        <time>2021-07-29T16:54:54Z</time>
      </trkpt>
      <trkpt lat="47.34389" lon="7.00541">
        <ele>469.8</ele>
        <time>2021-07-29T16:54:55Z</time>
      </trkpt>
      <trkpt lat="47.34389" lon="7.0054">
        <ele>469.8</ele>
        <time>2021-07-29T16:54:56Z</time>
      </trkpt>
      <trkpt lat="47.34389" lon="7.00539">
        <ele>469.8</ele>
        <time>2021-07-29T16:54:57Z</time>
      </trkpt>
      <trkpt lat="47.34389" lon="7.00538">
        <ele>469.8</ele>
        <time>2021-07-29T16:54:58Z</time>
      </trkpt>
      <trkpt lat="47.34401" lon="7.00508">
        <ele>468.2</ele>
        <time>2021-07-29T16:55:27Z</time>
      </trkpt>
      <trkpt lat="47.34403" lon="7.00503">
        <ele>468</ele>
        <time>2021-07-29T16:55:28Z</time>
      </trkpt>
      <trkpt lat="47.34404" lon="7.00499">
        <ele>467.8</ele>
        <time>2021-07-29T16:55:29Z</time>
      </trkpt>
      <trkpt lat="47.34406" lon="7.00494">
        <ele>467.4</ele>
        <time>2021-07-29T16:55:30Z</time>
      </trkpt>
      <trkpt lat="47.34407" lon="7.00489">
        <ele>467.2</ele>
        <time>2021-07-29T16:55:31Z</time>
      </trkpt>
      <trkpt lat="47.3441" lon="7.00484">
        <ele>466.8</ele>
        <time>2021-07-29T16:55:32Z</time>
      </trkpt>
      <trkpt lat="47.34412" lon="7.00478">
        <ele>466.6</ele>
        <time>2021-07-29T16:55:33Z</time>
      </trkpt>
      <trkpt lat="47.34414" lon="7.00471">
        <ele>466.4</ele>
        <time>2021-07-29T16:55:34Z</time>
      </trkpt>
      <trkpt lat="47.34417" lon="7.00465">
        <ele>466</ele>
        <time>2021-07-29T16:55:35Z</time>
      </trkpt>
      <trkpt lat="47.34419" lon="7.00458">
        <ele>465.8</ele>
        <time>2021-07-29T16:55:36Z</time>
      </trkpt>
      <trkpt lat="47.34421" lon="7.0045">
        <ele>465.4</ele>
        <time>2021-07-29T16:55:37Z</time>
      </trkpt>
      <trkpt lat="47.34423" lon="7.00443">
        <ele>465.2</ele>
        <time>2021-07-29T16:55:38Z</time>
      </trkpt>
      <trkpt lat="47.34425" lon="7.00436">
        <ele>465</ele>
        <time>2021-07-29T16:55:39Z</time>
      </trkpt>
      <trkpt lat="47.34427" lon="7.00428">
        <ele>464.8</ele>
        <time>2021-07-29T16:55:40Z</time>
      </trkpt>
      <trkpt lat="47.3443" lon="7.0042">
        <ele>464.6</ele>
        <time>2021-07-29T16:55:41Z</time>
      </trkpt>
      <trkpt lat="47.34431" lon="7.00413">
        <ele>464.4</ele>
        <time>2021-07-29T16:55:42Z</time>
      </trkpt>
      <trkpt lat="47.34433" lon="7.00405">
        <ele>464.2</ele>
        <time>2021-07-29T16:55:43Z</time>
      </trkpt>
      <trkpt lat="47.34436" lon="7.00398">
        <ele>464</ele>
        <time>2021-07-29T16:55:44Z</time>
      </trkpt>
      <trkpt lat="47.34438" lon="7.0039">
        <ele>463.8</ele>
        <time>2021-07-29T16:55:45Z</time>
      </trkpt>
      <trkpt lat="47.34439" lon="7.00382">
        <ele>463.6</ele>
        <time>2021-07-29T16:55:46Z</time>
      </trkpt>
      <trkpt lat="47.34441" lon="7.00374">
        <ele>463.4</ele>
        <time>2021-07-29T16:55:47Z</time>
      </trkpt>
      <trkpt lat="47.34443" lon="7.00366">
        <ele>463.2</ele>
        <time>2021-07-29T16:55:48Z</time>
      </trkpt>
      <trkpt lat="47.34444" lon="7.00358">
        <ele>463.2</ele>
        <time>2021-07-29T16:55:49Z</time>
      </trkpt>
      <trkpt lat="47.34446" lon="7.00351">
        <ele>463</ele>
        <time>2021-07-29T16:55:50Z</time>
      </trkpt>
      <trkpt lat="47.34447" lon="7.00344">
        <ele>463</ele>
        <time>2021-07-29T16:55:51Z</time>
      </trkpt>
      <trkpt lat="47.34448" lon="7.00338">
        <ele>463</ele>
        <time>2021-07-29T16:55:52Z</time>
      </trkpt>
      <trkpt lat="47.34449" lon="7.00333">
        <ele>462.8</ele>
        <time>2021-07-29T16:55:53Z</time>
      </trkpt>
      <trkpt lat="47.3445" lon="7.00327">
        <ele>462.8</ele>
        <time>2021-07-29T16:55:54Z</time>
      </trkpt>
      <trkpt lat="47.34451" lon="7.00321">
        <ele>462.6</ele>
        <time>2021-07-29T16:55:55Z</time>
      </trkpt>
      <trkpt lat="47.34452" lon="7.00315">
        <ele>462.6</ele>
        <time>2021-07-29T16:55:56Z</time>
      </trkpt>
      <trkpt lat="47.34453" lon="7.00309">
        <ele>462.6</ele>
        <time>2021-07-29T16:55:57Z</time>
      </trkpt>
      <trkpt lat="47.34454" lon="7.00303">
        <ele>462.6</ele>
        <time>2021-07-29T16:55:58Z</time>
      </trkpt>
      <trkpt lat="47.34455" lon="7.00297">
        <ele>462.6</ele>
        <time>2021-07-29T16:55:59Z</time>
      </trkpt>
      <trkpt lat="47.34455" lon="7.00291">
        <ele>462.4</ele>
        <time>2021-07-29T16:56:00Z</time>
      </trkpt>
      <trkpt lat="47.34456" lon="7.00285">
        <ele>462.2</ele>
        <time>2021-07-29T16:56:01Z</time>
      </trkpt>
      <trkpt lat="47.34456" lon="7.00279">
        <ele>462</ele>
        <time>2021-07-29T16:56:02Z</time>
      </trkpt>
      <trkpt lat="47.34457" lon="7.00272">
        <ele>461.8</ele>
        <time>2021-07-29T16:56:03Z</time>
      </trkpt>
      <trkpt lat="47.34457" lon="7.00266">
        <ele>461.6</ele>
        <time>2021-07-29T16:56:04Z</time>
      </trkpt>
      <trkpt lat="47.34458" lon="7.00259">
        <ele>461.6</ele>
        <time>2021-07-29T16:56:05Z</time>
      </trkpt>
      <trkpt lat="47.34459" lon="7.00253">
        <ele>461.4</ele>
        <time>2021-07-29T16:56:06Z</time>
      </trkpt>
      <trkpt lat="47.3446" lon="7.00247">
        <ele>461.2</ele>
        <time>2021-07-29T16:56:07Z</time>
      </trkpt>
      <trkpt lat="47.34461" lon="7.00241">
        <ele>461.2</ele>
        <time>2021-07-29T16:56:08Z</time>
      </trkpt>
      <trkpt lat="47.34462" lon="7.00235">
        <ele>461</ele>
        <time>2021-07-29T16:56:09Z</time>
      </trkpt>
      <trkpt lat="47.34462" lon="7.00229">
        <ele>460.8</ele>
        <time>2021-07-29T16:56:10Z</time>
      </trkpt>
      <trkpt lat="47.34462" lon="7.00223">
        <ele>460.8</ele>
        <time>2021-07-29T16:56:11Z</time>
      </trkpt>
      <trkpt lat="47.34463" lon="7.00217">
        <ele>460.6</ele>
        <time>2021-07-29T16:56:12Z</time>
      </trkpt>
      <trkpt lat="47.34464" lon="7.00211">
        <ele>460.6</ele>
        <time>2021-07-29T16:56:13Z</time>
      </trkpt>
      <trkpt lat="47.34466" lon="7.00207">
        <ele>460.4</ele>
        <time>2021-07-29T16:56:14Z</time>
      </trkpt>
      <trkpt lat="47.34466" lon="7.00203">
        <ele>460.4</ele>
        <time>2021-07-29T16:56:15Z</time>
      </trkpt>
      <trkpt lat="47.34465" lon="7.002">
        <ele>460.2</ele>
        <time>2021-07-29T16:56:16Z</time>
      </trkpt>
      <trkpt lat="47.34463" lon="7.00199">
        <ele>460.2</ele>
        <time>2021-07-29T16:56:17Z</time>
      </trkpt>
      <trkpt lat="47.34462" lon="7.002">
        <ele>460.2</ele>
        <time>2021-07-29T16:56:18Z</time>
      </trkpt>
      <trkpt lat="47.3446" lon="7.00201">
        <ele>460.2</ele>
        <time>2021-07-29T16:56:19Z</time>
      </trkpt>
      <trkpt lat="47.3446" lon="7.00204">
        <ele>460.2</ele>
        <time>2021-07-29T16:56:20Z</time>
      </trkpt>
      <trkpt lat="47.3446" lon="7.00207">
        <ele>460.2</ele>
        <time>2021-07-29T16:56:21Z</time>
      </trkpt>
      <trkpt lat="47.34461" lon="7.0021">
        <ele>460.2</ele>
        <time>2021-07-29T16:56:22Z</time>
      </trkpt>
      <trkpt lat="47.34462" lon="7.00213">
        <ele>460.4</ele>
        <time>2021-07-29T16:56:23Z</time>
      </trkpt>
      <trkpt lat="47.34462" lon="7.00217">
        <ele>460.4</ele>
        <time>2021-07-29T16:56:24Z</time>
      </trkpt>
      <trkpt lat="47.34463" lon="7.0022">
        <ele>460.6</ele>
        <time>2021-07-29T16:56:25Z</time>
      </trkpt>
      <trkpt lat="47.34463" lon="7.00224">
        <ele>460.6</ele>
        <time>2021-07-29T16:56:26Z</time>
      </trkpt>
      <trkpt lat="47.34463" lon="7.00229">
        <ele>460.6</ele>
        <time>2021-07-29T16:56:27Z</time>
      </trkpt>
      <trkpt lat="47.34463" lon="7.00233">
        <ele>460.8</ele>
        <time>2021-07-29T16:56:28Z</time>
      </trkpt>
      <trkpt lat="47.34462" lon="7.00237">
        <ele>460.8</ele>
        <time>2021-07-29T16:56:29Z</time>
      </trkpt>
      <trkpt lat="47.34461" lon="7.00242">
        <ele>460.8</ele>
        <time>2021-07-29T16:56:30Z</time>
      </trkpt>
      <trkpt lat="47.34461" lon="7.00246">
        <ele>461</ele>
        <time>2021-07-29T16:56:31Z</time>
      </trkpt>
      <trkpt lat="47.34461" lon="7.00251">
        <ele>461</ele>
        <time>2021-07-29T16:56:32Z</time>
      </trkpt>
      <trkpt lat="47.3446" lon="7.00256">
        <ele>461.2</ele>
        <time>2021-07-29T16:56:33Z</time>
      </trkpt>
      <trkpt lat="47.34459" lon="7.0026">
        <ele>461.2</ele>
        <time>2021-07-29T16:56:34Z</time>
      </trkpt>
      <trkpt lat="47.34458" lon="7.00265">
        <ele>461.4</ele>
        <time>2021-07-29T16:56:35Z</time>
      </trkpt>
      <trkpt lat="47.34457" lon="7.00269">
        <ele>461.4</ele>
        <time>2021-07-29T16:56:36Z</time>
      </trkpt>
      <trkpt lat="47.34457" lon="7.00274">
        <ele>461.6</ele>
        <time>2021-07-29T16:56:37Z</time>
      </trkpt>
      <trkpt lat="47.34456" lon="7.00279">
        <ele>461.6</ele>
        <time>2021-07-29T16:56:38Z</time>
      </trkpt>
      <trkpt lat="47.34455" lon="7.00284">
        <ele>461.8</ele>
        <time>2021-07-29T16:56:39Z</time>
      </trkpt>
      <trkpt lat="47.34455" lon="7.00288">
        <ele>461.8</ele>
        <time>2021-07-29T16:56:40Z</time>
      </trkpt>
      <trkpt lat="47.34454" lon="7.00293">
        <ele>462</ele>
        <time>2021-07-29T16:56:41Z</time>
      </trkpt>
      <trkpt lat="47.34453" lon="7.00297">
        <ele>462.2</ele>
        <time>2021-07-29T16:56:42Z</time>
      </trkpt>
      <trkpt lat="47.34453" lon="7.00302">
        <ele>462.2</ele>
        <time>2021-07-29T16:56:43Z</time>
      </trkpt>
      <trkpt lat="47.34452" lon="7.00306">
        <ele>462.4</ele>
        <time>2021-07-29T16:56:44Z</time>
      </trkpt>
      <trkpt lat="47.34451" lon="7.00311">
        <ele>462.4</ele>
        <time>2021-07-29T16:56:45Z</time>
      </trkpt>
      <trkpt lat="47.34451" lon="7.00316">
        <ele>462.4</ele>
        <time>2021-07-29T16:56:46Z</time>
      </trkpt>
      <trkpt lat="47.3445" lon="7.0032">
        <ele>462.6</ele>
        <time>2021-07-29T16:56:47Z</time>
      </trkpt>
      <trkpt lat="47.34449" lon="7.00325">
        <ele>462.6</ele>
        <time>2021-07-29T16:56:48Z</time>
      </trkpt>
      <trkpt lat="47.34448" lon="7.0033">
        <ele>462.6</ele>
        <time>2021-07-29T16:56:49Z</time>
      </trkpt>
      <trkpt lat="47.34447" lon="7.00335">
        <ele>462.6</ele>
        <time>2021-07-29T16:56:50Z</time>
      </trkpt>
      <trkpt lat="47.34446" lon="7.0034">
        <ele>462.8</ele>
        <time>2021-07-29T16:56:51Z</time>
      </trkpt>
      <trkpt lat="47.34445" lon="7.00345">
        <ele>462.8</ele>
        <time>2021-07-29T16:56:52Z</time>
      </trkpt>
      <trkpt lat="47.34445" lon="7.0035">
        <ele>462.8</ele>
        <time>2021-07-29T16:56:53Z</time>
      </trkpt>
      <trkpt lat="47.34444" lon="7.00356">
        <ele>463</ele>
        <time>2021-07-29T16:56:54Z</time>
      </trkpt>
      <trkpt lat="47.34442" lon="7.00361">
        <ele>463</ele>
        <time>2021-07-29T16:56:55Z</time>
      </trkpt>
      <trkpt lat="47.34442" lon="7.00366">
        <ele>463</ele>
        <time>2021-07-29T16:56:56Z</time>
      </trkpt>
      <trkpt lat="47.34441" lon="7.00371">
        <ele>463</ele>
        <time>2021-07-29T16:56:57Z</time>
      </trkpt>
      <trkpt lat="47.34439" lon="7.00377">
        <ele>463.2</ele>
        <time>2021-07-29T16:56:58Z</time>
      </trkpt>
      <trkpt lat="47.34438" lon="7.00382">
        <ele>463.2</ele>
        <time>2021-07-29T16:56:59Z</time>
      </trkpt>
      <trkpt lat="47.34437" lon="7.00387">
        <ele>463.4</ele>
        <time>2021-07-29T16:57:00Z</time>
      </trkpt>
      <trkpt lat="47.34436" lon="7.00392">
        <ele>463.6</ele>
        <time>2021-07-29T16:57:01Z</time>
      </trkpt>
      <trkpt lat="47.34435" lon="7.00397">
        <ele>463.6</ele>
        <time>2021-07-29T16:57:02Z</time>
      </trkpt>
      <trkpt lat="47.34434" lon="7.00402">
        <ele>463.8</ele>
        <time>2021-07-29T16:57:03Z</time>
      </trkpt>
      <trkpt lat="47.34433" lon="7.00407">
        <ele>464</ele>
        <time>2021-07-29T16:57:04Z</time>
      </trkpt>
      <trkpt lat="47.34432" lon="7.00411">
        <ele>464</ele>
        <time>2021-07-29T16:57:05Z</time>
      </trkpt>
      <trkpt lat="47.34431" lon="7.00416">
        <ele>464</ele>
        <time>2021-07-29T16:57:06Z</time>
      </trkpt>
      <trkpt lat="47.3443" lon="7.0042">
        <ele>464.2</ele>
        <time>2021-07-29T16:57:07Z</time>
      </trkpt>
      <trkpt lat="47.34429" lon="7.00424">
        <ele>464.4</ele>
        <time>2021-07-29T16:57:08Z</time>
      </trkpt>
      <trkpt lat="47.34428" lon="7.00428">
        <ele>464.4</ele>
        <time>2021-07-29T16:57:09Z</time>
      </trkpt>
      <trkpt lat="47.34427" lon="7.00432">
        <ele>464.6</ele>
        <time>2021-07-29T16:57:10Z</time>
      </trkpt>
      <trkpt lat="47.34426" lon="7.00436">
        <ele>464.8</ele>
        <time>2021-07-29T16:57:11Z</time>
      </trkpt>
      <trkpt lat="47.34424" lon="7.0044">
        <ele>464.8</ele>
        <time>2021-07-29T16:57:12Z</time>
      </trkpt>
      <trkpt lat="47.34423" lon="7.00444">
        <ele>465</ele>
        <time>2021-07-29T16:57:13Z</time>
      </trkpt>
      <trkpt lat="47.34422" lon="7.00448">
        <ele>465.2</ele>
        <time>2021-07-29T16:57:14Z</time>
      </trkpt>
      <trkpt lat="47.3442" lon="7.00452">
        <ele>465.2</ele>
        <time>2021-07-29T16:57:15Z</time>
      </trkpt>
      <trkpt lat="47.34419" lon="7.00456">
        <ele>465.4</ele>
        <time>2021-07-29T16:57:16Z</time>
      </trkpt>
      <trkpt lat="47.34417" lon="7.0046">
        <ele>465.6</ele>
        <time>2021-07-29T16:57:17Z</time>
      </trkpt>
      <trkpt lat="47.34416" lon="7.00463">
        <ele>465.6</ele>
        <time>2021-07-29T16:57:18Z</time>
      </trkpt>
      <trkpt lat="47.34415" lon="7.00467">
        <ele>465.8</ele>
        <time>2021-07-29T16:57:19Z</time>
      </trkpt>
      <trkpt lat="47.34413" lon="7.00471">
        <ele>466</ele>
        <time>2021-07-29T16:57:20Z</time>
      </trkpt>
      <trkpt lat="47.34412" lon="7.00474">
        <ele>466.2</ele>
        <time>2021-07-29T16:57:21Z</time>
      </trkpt>
      <trkpt lat="47.34411" lon="7.00478">
        <ele>466.4</ele>
        <time>2021-07-29T16:57:22Z</time>
      </trkpt>
      <trkpt lat="47.3441" lon="7.00482">
        <ele>466.4</ele>
        <time>2021-07-29T16:57:23Z</time>
      </trkpt>
      <trkpt lat="47.34409" lon="7.00485">
        <ele>466.6</ele>
        <time>2021-07-29T16:57:24Z</time>
      </trkpt>
      <trkpt lat="47.34408" lon="7.00488">
        <ele>466.6</ele>
        <time>2021-07-29T16:57:25Z</time>
      </trkpt>
      <trkpt lat="47.34407" lon="7.0049">
        <ele>466.8</ele>
        <time>2021-07-29T16:57:26Z</time>
      </trkpt>
      <trkpt lat="47.34406" lon="7.00493">
        <ele>466.8</ele>
        <time>2021-07-29T16:57:27Z</time>
      </trkpt>
      <trkpt lat="47.34404" lon="7.00495">
        <ele>467</ele>
        <time>2021-07-29T16:57:28Z</time>
      </trkpt>
      <trkpt lat="47.34403" lon="7.00497">
        <ele>467.2</ele>
        <time>2021-07-29T16:57:29Z</time>
      </trkpt>
      <trkpt lat="47.34402" lon="7.005">
        <ele>467.4</ele>
        <time>2021-07-29T16:57:30Z</time>
      </trkpt>
      <trkpt lat="47.34401" lon="7.00502">
        <ele>467.4</ele>
        <time>2021-07-29T16:57:31Z</time>
      </trkpt>
      <trkpt lat="47.344" lon="7.00504">
        <ele>467.6</ele>
        <time>2021-07-29T16:57:32Z</time>
      </trkpt>
      <trkpt lat="47.34399" lon="7.00506">
        <ele>467.8</ele>
        <time>2021-07-29T16:57:33Z</time>
      </trkpt>
      <trkpt lat="47.34398" lon="7.00509">
        <ele>468</ele>
        <time>2021-07-29T16:57:34Z</time>
      </trkpt>
      <trkpt lat="47.34397" lon="7.00511">
        <ele>468</ele>
        <time>2021-07-29T16:57:35Z</time>
      </trkpt>
      <trkpt lat="47.34396" lon="7.00513">
        <ele>468.2</ele>
        <time>2021-07-29T16:57:36Z</time>
      </trkpt>
      <trkpt lat="47.34395" lon="7.00516">
        <ele>468.4</ele>
        <time>2021-07-29T16:57:37Z</time>
      </trkpt>
      <trkpt lat="47.34394" lon="7.00518">
        <ele>468.4</ele>
        <time>2021-07-29T16:57:38Z</time>
      </trkpt>
      <trkpt lat="47.34393" lon="7.0052">
        <ele>468.6</ele>
        <time>2021-07-29T16:57:39Z</time>
      </trkpt>
      <trkpt lat="47.34392" lon="7.00522">
        <ele>468.8</ele>
        <time>2021-07-29T16:57:40Z</time>
      </trkpt>
      <trkpt lat="47.34392" lon="7.00523">
        <ele>468.8</ele>
        <time>2021-07-29T16:57:41Z</time>
      </trkpt>
      <trkpt lat="47.34391" lon="7.00525">
        <ele>468.8</ele>
        <time>2021-07-29T16:57:42Z</time>
      </trkpt>
      <trkpt lat="47.3439" lon="7.00527">
        <ele>469</ele>
        <time>2021-07-29T16:57:43Z</time>
      </trkpt>
      <trkpt lat="47.3439" lon="7.0053">
        <ele>469</ele>
        <time>2021-07-29T16:57:44Z</time>
      </trkpt>
      <trkpt lat="47.34389" lon="7.00533">
        <ele>469.2</ele>
        <time>2021-07-29T16:57:45Z</time>
      </trkpt>
      <trkpt lat="47.34388" lon="7.00535">
        <ele>469.2</ele>
        <time>2021-07-29T16:57:46Z</time>
      </trkpt>
      <trkpt lat="47.34387" lon="7.00537">
        <ele>469.2</ele>
        <time>2021-07-29T16:57:47Z</time>
      </trkpt>
      <trkpt lat="47.34386" lon="7.0054">
        <ele>469.2</ele>
        <time>2021-07-29T16:57:48Z</time>
      </trkpt>
      <trkpt lat="47.34385" lon="7.00543">
        <ele>469.2</ele>
        <time>2021-07-29T16:57:49Z</time>
      </trkpt>
      <trkpt lat="47.34384" lon="7.00548">
        <ele>469.2</ele>
        <time>2021-07-29T16:57:50Z</time>
      </trkpt>
      <trkpt lat="47.34383" lon="7.00553">
        <ele>469</ele>
        <time>2021-07-29T16:57:51Z</time>
      </trkpt>
      <trkpt lat="47.34382" lon="7.00558">
        <ele>468.8</ele>
        <time>2021-07-29T16:57:52Z</time>
      </trkpt>
      <trkpt lat="47.34381" lon="7.00563">
        <ele>468.6</ele>
        <time>2021-07-29T16:57:53Z</time>
      </trkpt>
      <trkpt lat="47.34379" lon="7.0057">
        <ele>468.4</ele>
        <time>2021-07-29T16:57:54Z</time>
      </trkpt>
      <trkpt lat="47.34378" lon="7.00576">
        <ele>468.2</ele>
        <time>2021-07-29T16:57:55Z</time>
      </trkpt>
      <trkpt lat="47.34377" lon="7.00583">
        <ele>468</ele>
        <time>2021-07-29T16:57:56Z</time>
      </trkpt>
      <trkpt lat="47.34375" lon="7.0059">
        <ele>467.8</ele>
        <time>2021-07-29T16:57:57Z</time>
      </trkpt>
      <trkpt lat="47.34373" lon="7.00598">
        <ele>467.8</ele>
        <time>2021-07-29T16:57:58Z</time>
      </trkpt>
      <trkpt lat="47.34371" lon="7.00605">
        <ele>467.6</ele>
        <time>2021-07-29T16:57:59Z</time>
      </trkpt>
      <trkpt lat="47.34369" lon="7.00612">
        <ele>467.4</ele>
        <time>2021-07-29T16:58:00Z</time>
      </trkpt>
      <trkpt lat="47.34366" lon="7.0062">
        <ele>467.4</ele>
        <time>2021-07-29T16:58:01Z</time>
      </trkpt>
      <trkpt lat="47.34364" lon="7.00627">
        <ele>467.4</ele>
        <time>2021-07-29T16:58:02Z</time>
      </trkpt>
      <trkpt lat="47.34361" lon="7.00634">
        <ele>467.2</ele>
        <time>2021-07-29T16:58:03Z</time>
      </trkpt>
      <trkpt lat="47.34359" lon="7.00642">
        <ele>467.4</ele>
        <time>2021-07-29T16:58:04Z</time>
      </trkpt>
      <trkpt lat="47.34356" lon="7.0065">
        <ele>467.4</ele>
        <time>2021-07-29T16:58:05Z</time>
      </trkpt>
      <trkpt lat="47.34353" lon="7.00657">
        <ele>467.4</ele>
        <time>2021-07-29T16:58:06Z</time>
      </trkpt>
      <trkpt lat="47.3435" lon="7.00665">
        <ele>467.2</ele>
        <time>2021-07-29T16:58:07Z</time>
      </trkpt>
      <trkpt lat="47.34347" lon="7.00673">
        <ele>466.8</ele>
        <time>2021-07-29T16:58:08Z</time>
      </trkpt>
      <trkpt lat="47.34345" lon="7.00682">
        <ele>466.6</ele>
        <time>2021-07-29T16:58:09Z</time>
      </trkpt>
      <trkpt lat="47.34342" lon="7.00691">
        <ele>466.4</ele>
        <time>2021-07-29T16:58:10Z</time>
      </trkpt>
      <trkpt lat="47.3434" lon="7.007">
        <ele>466</ele>
        <time>2021-07-29T16:58:11Z</time>
      </trkpt>
      <trkpt lat="47.34337" lon="7.00709">
        <ele>466.2</ele>
        <time>2021-07-29T16:58:12Z</time>
      </trkpt>
      <trkpt lat="47.34335" lon="7.00719">
        <ele>466.2</ele>
        <time>2021-07-29T16:58:13Z</time>
      </trkpt>
      <trkpt lat="47.34333" lon="7.00728">
        <ele>466.2</ele>
        <time>2021-07-29T16:58:14Z</time>
      </trkpt>
      <trkpt lat="47.34331" lon="7.00737">
        <ele>466.2</ele>
        <time>2021-07-29T16:58:15Z</time>
      </trkpt>
      <trkpt lat="47.3433" lon="7.00746">
        <ele>466.2</ele>
        <time>2021-07-29T16:58:16Z</time>
      </trkpt>
      <trkpt lat="47.34328" lon="7.00755">
        <ele>466.2</ele>
        <time>2021-07-29T16:58:17Z</time>
      </trkpt>
      <trkpt lat="47.34327" lon="7.00764">
        <ele>466.2</ele>
        <time>2021-07-29T16:58:18Z</time>
      </trkpt>
      <trkpt lat="47.34326" lon="7.00772">
        <ele>466.4</ele>
        <time>2021-07-29T16:58:19Z</time>
      </trkpt>
      <trkpt lat="47.34325" lon="7.0078">
        <ele>466.6</ele>
        <time>2021-07-29T16:58:20Z</time>
      </trkpt>
      <trkpt lat="47.34325" lon="7.00787">
        <ele>466.8</ele>
        <time>2021-07-29T16:58:21Z</time>
      </trkpt>
      <trkpt lat="47.34325" lon="7.00794">
        <ele>467</ele>
        <time>2021-07-29T16:58:22Z</time>
      </trkpt>
      <trkpt lat="47.34324" lon="7.00801">
        <ele>467.2</ele>
        <time>2021-07-29T16:58:23Z</time>
      </trkpt>
      <trkpt lat="47.34324" lon="7.00807">
        <ele>467.4</ele>
        <time>2021-07-29T16:58:24Z</time>
      </trkpt>
      <trkpt lat="47.34324" lon="7.00813">
        <ele>467.6</ele>
        <time>2021-07-29T16:58:25Z</time>
      </trkpt>
      <trkpt lat="47.34324" lon="7.00819">
        <ele>467.6</ele>
        <time>2021-07-29T16:58:26Z</time>
      </trkpt>
      <trkpt lat="47.34325" lon="7.00824">
        <ele>467.8</ele>
        <time>2021-07-29T16:58:27Z</time>
      </trkpt>
      <trkpt lat="47.34325" lon="7.00829">
        <ele>468</ele>
        <time>2021-07-29T16:58:28Z</time>
      </trkpt>
      <trkpt lat="47.34326" lon="7.00834">
        <ele>468</ele>
        <time>2021-07-29T16:58:29Z</time>
      </trkpt>
      <trkpt lat="47.34327" lon="7.00839">
        <ele>468.2</ele>
        <time>2021-07-29T16:58:30Z</time>
      </trkpt>
      <trkpt lat="47.34328" lon="7.00843">
        <ele>468.4</ele>
        <time>2021-07-29T16:58:31Z</time>
      </trkpt>
      <trkpt lat="47.34329" lon="7.00847">
        <ele>468.4</ele>
        <time>2021-07-29T16:58:32Z</time>
      </trkpt>
      <trkpt lat="47.34331" lon="7.00851">
        <ele>468.6</ele>
        <time>2021-07-29T16:58:33Z</time>
      </trkpt>
      <trkpt lat="47.34332" lon="7.00855">
        <ele>468.8</ele>
        <time>2021-07-29T16:58:34Z</time>
      </trkpt>
      <trkpt lat="47.34334" lon="7.00859">
        <ele>469</ele>
        <time>2021-07-29T16:58:35Z</time>
      </trkpt>
      <trkpt lat="47.34335" lon="7.00862">
        <ele>469.2</ele>
        <time>2021-07-29T16:58:36Z</time>
      </trkpt>
      <trkpt lat="47.34337" lon="7.00866">
        <ele>469.4</ele>
        <time>2021-07-29T16:58:37Z</time>
      </trkpt>
      <trkpt lat="47.34339" lon="7.00869">
        <ele>469.4</ele>
        <time>2021-07-29T16:58:38Z</time>
      </trkpt>
      <trkpt lat="47.3434" lon="7.00872">
        <ele>469.6</ele>
        <time>2021-07-29T16:58:39Z</time>
      </trkpt>
      <trkpt lat="47.34342" lon="7.00875">
        <ele>469.8</ele>
        <time>2021-07-29T16:58:40Z</time>
      </trkpt>
      <trkpt lat="47.34344" lon="7.00878">
        <ele>470</ele>
        <time>2021-07-29T16:58:41Z</time>
      </trkpt>
      <trkpt lat="47.34345" lon="7.00882">
        <ele>470</ele>
        <time>2021-07-29T16:58:42Z</time>
      </trkpt>
      <trkpt lat="47.34346" lon="7.00885">
        <ele>470.2</ele>
        <time>2021-07-29T16:58:43Z</time>
      </trkpt>
      <trkpt lat="47.34347" lon="7.00889">
        <ele>470.2</ele>
        <time>2021-07-29T16:58:44Z</time>
      </trkpt>
      <trkpt lat="47.34348" lon="7.00893">
        <ele>470.4</ele>
        <time>2021-07-29T16:58:45Z</time>
      </trkpt>
      <trkpt lat="47.34348" lon="7.00897">
        <ele>470.4</ele>
        <time>2021-07-29T16:58:46Z</time>
      </trkpt>
      <trkpt lat="47.34349" lon="7.009">
        <ele>470.6</ele>
        <time>2021-07-29T16:58:47Z</time>
      </trkpt>
      <trkpt lat="47.34349" lon="7.00904">
        <ele>470.8</ele>
        <time>2021-07-29T16:58:48Z</time>
      </trkpt>
      <trkpt lat="47.34349" lon="7.00907">
        <ele>471</ele>
        <time>2021-07-29T16:58:49Z</time>
      </trkpt>
      <trkpt lat="47.34349" lon="7.00911">
        <ele>471</ele>
        <time>2021-07-29T16:58:50Z</time>
      </trkpt>
      <trkpt lat="47.34348" lon="7.00915">
        <ele>471.2</ele>
        <time>2021-07-29T16:58:51Z</time>
      </trkpt>
      <trkpt lat="47.34348" lon="7.00918">
        <ele>471.2</ele>
        <time>2021-07-29T16:58:52Z</time>
      </trkpt>
      <trkpt lat="47.34347" lon="7.00921">
        <ele>471.4</ele>
        <time>2021-07-29T16:58:53Z</time>
      </trkpt>
      <trkpt lat="47.34347" lon="7.00925">
        <ele>471.4</ele>
        <time>2021-07-29T16:58:54Z</time>
      </trkpt>
      <trkpt lat="47.34346" lon="7.00928">
        <ele>471.6</ele>
        <time>2021-07-29T16:58:55Z</time>
      </trkpt>
      <trkpt lat="47.34345" lon="7.00931">
        <ele>471.6</ele>
        <time>2021-07-29T16:58:56Z</time>
      </trkpt>
      <trkpt lat="47.34344" lon="7.00935">
        <ele>471.8</ele>
        <time>2021-07-29T16:58:57Z</time>
      </trkpt>
      <trkpt lat="47.34344" lon="7.00938">
        <ele>471.8</ele>
        <time>2021-07-29T16:58:58Z</time>
      </trkpt>
      <trkpt lat="47.34343" lon="7.00941">
        <ele>471.8</ele>
        <time>2021-07-29T16:58:59Z</time>
      </trkpt>
      <trkpt lat="47.34342" lon="7.00944">
        <ele>471.8</ele>
        <time>2021-07-29T16:59:00Z</time>
      </trkpt>
      <trkpt lat="47.34342" lon="7.00947">
        <ele>472</ele>
        <time>2021-07-29T16:59:01Z</time>
      </trkpt>
      <trkpt lat="47.34341" lon="7.00949">
        <ele>472</ele>
        <time>2021-07-29T16:59:02Z</time>
      </trkpt>
      <trkpt lat="47.3434" lon="7.00951">
        <ele>472</ele>
        <time>2021-07-29T16:59:03Z</time>
      </trkpt>
      <trkpt lat="47.34339" lon="7.00953">
        <ele>472</ele>
        <time>2021-07-29T16:59:04Z</time>
      </trkpt>
      <trkpt lat="47.34339" lon="7.00956">
        <ele>472.2</ele>
        <time>2021-07-29T16:59:05Z</time>
      </trkpt>
      <trkpt lat="47.34339" lon="7.00958">
        <ele>472.2</ele>
        <time>2021-07-29T16:59:06Z</time>
      </trkpt>
      <trkpt lat="47.34338" lon="7.00961">
        <ele>472.2</ele>
        <time>2021-07-29T16:59:07Z</time>
      </trkpt>
      <trkpt lat="47.34338" lon="7.00963">
        <ele>472.4</ele>
        <time>2021-07-29T16:59:08Z</time>
      </trkpt>
      <trkpt lat="47.34337" lon="7.00965">
        <ele>472.4</ele>
        <time>2021-07-29T16:59:09Z</time>
      </trkpt>
      <trkpt lat="47.34335" lon="7.00967">
        <ele>472.4</ele>
        <time>2021-07-29T16:59:10Z</time>
      </trkpt>
      <trkpt lat="47.34334" lon="7.00968">
        <ele>472.6</ele>
        <time>2021-07-29T16:59:11Z</time>
      </trkpt>
      <trkpt lat="47.34333" lon="7.00971">
        <ele>472.6</ele>
        <time>2021-07-29T16:59:12Z</time>
      </trkpt>
      <trkpt lat="47.34332" lon="7.00973">
        <ele>472.6</ele>
        <time>2021-07-29T16:59:13Z</time>
      </trkpt>
      <trkpt lat="47.34331" lon="7.00976">
        <ele>472.6</ele>
        <time>2021-07-29T16:59:14Z</time>
      </trkpt>
      <trkpt lat="47.3433" lon="7.00978">
        <ele>472.6</ele>
        <time>2021-07-29T16:59:15Z</time>
      </trkpt>
      <trkpt lat="47.34329" lon="7.00981">
        <ele>472.8</ele>
        <time>2021-07-29T16:59:16Z</time>
      </trkpt>
      <trkpt lat="47.34327" lon="7.00984">
        <ele>472.8</ele>
        <time>2021-07-29T16:59:17Z</time>
      </trkpt>
      <trkpt lat="47.34326" lon="7.00987">
        <ele>472.8</ele>
        <time>2021-07-29T16:59:18Z</time>
      </trkpt>
      <trkpt lat="47.34325" lon="7.0099">
        <ele>472.8</ele>
        <time>2021-07-29T16:59:19Z</time>
      </trkpt>
      <trkpt lat="47.34323" lon="7.00993">
        <ele>473</ele>
        <time>2021-07-29T16:59:20Z</time>
      </trkpt>
      <trkpt lat="47.34322" lon="7.00996">
        <ele>473</ele>
        <time>2021-07-29T16:59:21Z</time>
      </trkpt>
      <trkpt lat="47.3432" lon="7.00999">
        <ele>473.2</ele>
        <time>2021-07-29T16:59:22Z</time>
      </trkpt>
      <trkpt lat="47.34319" lon="7.01003">
        <ele>473.2</ele>
        <time>2021-07-29T16:59:23Z</time>
      </trkpt>
      <trkpt lat="47.34318" lon="7.01006">
        <ele>473.4</ele>
        <time>2021-07-29T16:59:24Z</time>
      </trkpt>
      <trkpt lat="47.34316" lon="7.0101">
        <ele>473.4</ele>
        <time>2021-07-29T16:59:25Z</time>
      </trkpt>
      <trkpt lat="47.34315" lon="7.01013">
        <ele>473.6</ele>
        <time>2021-07-29T16:59:26Z</time>
      </trkpt>
      <trkpt lat="47.34315" lon="7.01016">
        <ele>473.6</ele>
        <time>2021-07-29T16:59:27Z</time>
      </trkpt>
      <trkpt lat="47.34314" lon="7.0102">
        <ele>473.8</ele>
        <time>2021-07-29T16:59:28Z</time>
      </trkpt>
      <trkpt lat="47.34314" lon="7.01023">
        <ele>474</ele>
        <time>2021-07-29T16:59:29Z</time>
      </trkpt>
      <trkpt lat="47.34313" lon="7.01026">
        <ele>474</ele>
        <time>2021-07-29T16:59:30Z</time>
      </trkpt>
      <trkpt lat="47.34313" lon="7.01029">
        <ele>474.2</ele>
        <time>2021-07-29T16:59:31Z</time>
      </trkpt>
      <trkpt lat="47.34313" lon="7.01032">
        <ele>474.4</ele>
        <time>2021-07-29T16:59:32Z</time>
      </trkpt>
      <trkpt lat="47.34313" lon="7.01035">
        <ele>474.4</ele>
        <time>2021-07-29T16:59:33Z</time>
      </trkpt>
      <trkpt lat="47.34314" lon="7.01037">
        <ele>474.6</ele>
        <time>2021-07-29T16:59:34Z</time>
      </trkpt>
      <trkpt lat="47.34314" lon="7.0104">
        <ele>474.6</ele>
        <time>2021-07-29T16:59:35Z</time>
      </trkpt>
      <trkpt lat="47.34314" lon="7.01042">
        <ele>474.8</ele>
        <time>2021-07-29T16:59:36Z</time>
      </trkpt>
      <trkpt lat="47.34314" lon="7.01044">
        <ele>475</ele>
        <time>2021-07-29T16:59:37Z</time>
      </trkpt>
      <trkpt lat="47.34315" lon="7.01046">
        <ele>475</ele>
        <time>2021-07-29T16:59:38Z</time>
      </trkpt>
      <trkpt lat="47.34315" lon="7.01048">
        <ele>475.2</ele>
        <time>2021-07-29T16:59:39Z</time>
      </trkpt>
      <trkpt lat="47.34315" lon="7.0105">
        <ele>475.4</ele>
        <time>2021-07-29T16:59:40Z</time>
      </trkpt>
      <trkpt lat="47.34315" lon="7.01052">
        <ele>475.6</ele>
        <time>2021-07-29T16:59:41Z</time>
      </trkpt>
      <trkpt lat="47.34315" lon="7.01054">
        <ele>475.6</ele>
        <time>2021-07-29T16:59:42Z</time>
      </trkpt>
      <trkpt lat="47.34315" lon="7.01056">
        <ele>475.8</ele>
        <time>2021-07-29T16:59:43Z</time>
      </trkpt>
      <trkpt lat="47.34315" lon="7.01058">
        <ele>475.8</ele>
        <time>2021-07-29T16:59:44Z</time>
      </trkpt>
      <trkpt lat="47.34316" lon="7.0106">
        <ele>476</ele>
        <time>2021-07-29T16:59:45Z</time>
      </trkpt>
      <trkpt lat="47.34316" lon="7.01061">
        <ele>476.2</ele>
        <time>2021-07-29T16:59:46Z</time>
      </trkpt>
      <trkpt lat="47.34317" lon="7.01064">
        <ele>476.4</ele>
        <time>2021-07-29T16:59:47Z</time>
      </trkpt>
      <trkpt lat="47.34317" lon="7.01067">
        <ele>476.6</ele>
        <time>2021-07-29T16:59:48Z</time>
      </trkpt>
      <trkpt lat="47.34317" lon="7.01069">
        <ele>476.8</ele>
        <time>2021-07-29T16:59:49Z</time>
      </trkpt>
      <trkpt lat="47.34318" lon="7.01072">
        <ele>477</ele>
        <time>2021-07-29T16:59:50Z</time>
      </trkpt>
      <trkpt lat="47.34318" lon="7.01074">
        <ele>477.4</ele>
        <time>2021-07-29T16:59:51Z</time>
      </trkpt>
      <trkpt lat="47.34318" lon="7.01077">
        <ele>477.6</ele>
        <time>2021-07-29T16:59:52Z</time>
      </trkpt>
      <trkpt lat="47.34318" lon="7.01079">
        <ele>477.8</ele>
        <time>2021-07-29T16:59:53Z</time>
      </trkpt>
      <trkpt lat="47.34319" lon="7.01081">
        <ele>478</ele>
        <time>2021-07-29T16:59:54Z</time>
      </trkpt>
      <trkpt lat="47.34319" lon="7.01084">
        <ele>478.2</ele>
        <time>2021-07-29T16:59:55Z</time>
      </trkpt>
      <trkpt lat="47.34319" lon="7.01086">
        <ele>478.4</ele>
        <time>2021-07-29T16:59:56Z</time>
      </trkpt>
      <trkpt lat="47.34318" lon="7.01088">
        <ele>478.6</ele>
        <time>2021-07-29T16:59:57Z</time>
      </trkpt>
      <trkpt lat="47.34318" lon="7.01089">
        <ele>478.8</ele>
        <time>2021-07-29T16:59:58Z</time>
      </trkpt>
      <trkpt lat="47.34317" lon="7.01091">
        <ele>478.8</ele>
        <time>2021-07-29T16:59:59Z</time>
      </trkpt>
      <trkpt lat="47.34317" lon="7.01092">
        <ele>479</ele>
        <time>2021-07-29T17:00:00Z</time>
      </trkpt>
      <trkpt lat="47.34316" lon="7.01094">
        <ele>479.2</ele>
        <time>2021-07-29T17:00:01Z</time>
      </trkpt>
      <trkpt lat="47.34316" lon="7.01096">
        <ele>479.4</ele>
        <time>2021-07-29T17:00:02Z</time>
      </trkpt>
      <trkpt lat="47.34316" lon="7.01098">
        <ele>479.4</ele>
        <time>2021-07-29T17:00:03Z</time>
      </trkpt>
      <trkpt lat="47.34315" lon="7.011">
        <ele>479.6</ele>
        <time>2021-07-29T17:00:04Z</time>
      </trkpt>
      <trkpt lat="47.34315" lon="7.01102">
        <ele>479.8</ele>
        <time>2021-07-29T17:00:05Z</time>
      </trkpt>
      <trkpt lat="47.34315" lon="7.01104">
        <ele>480</ele>
        <time>2021-07-29T17:00:06Z</time>
      </trkpt>
      <trkpt lat="47.34315" lon="7.01106">
        <ele>480.2</ele>
        <time>2021-07-29T17:00:07Z</time>
      </trkpt>
      <trkpt lat="47.34314" lon="7.01108">
        <ele>480.2</ele>
        <time>2021-07-29T17:00:08Z</time>
      </trkpt>
      <trkpt lat="47.34314" lon="7.0111">
        <ele>480.4</ele>
        <time>2021-07-29T17:00:09Z</time>
      </trkpt>
      <trkpt lat="47.34314" lon="7.01112">
        <ele>480.6</ele>
        <time>2021-07-29T17:00:10Z</time>
      </trkpt>
      <trkpt lat="47.34313" lon="7.01114">
        <ele>480.6</ele>
        <time>2021-07-29T17:00:11Z</time>
      </trkpt>
      <trkpt lat="47.34313" lon="7.01115">
        <ele>480.8</ele>
        <time>2021-07-29T17:00:12Z</time>
      </trkpt>
      <trkpt lat="47.34313" lon="7.01117">
        <ele>481</ele>
        <time>2021-07-29T17:00:13Z</time>
      </trkpt>
      <trkpt lat="47.34313" lon="7.01119">
        <ele>481.2</ele>
        <time>2021-07-29T17:00:14Z</time>
      </trkpt>
      <trkpt lat="47.34312" lon="7.01121">
        <ele>481.2</ele>
        <time>2021-07-29T17:00:15Z</time>
      </trkpt>
      <trkpt lat="47.34312" lon="7.01122">
        <ele>481.4</ele>
        <time>2021-07-29T17:00:16Z</time>
      </trkpt>
      <trkpt lat="47.34312" lon="7.01124">
        <ele>481.6</ele>
        <time>2021-07-29T17:00:17Z</time>
      </trkpt>
      <trkpt lat="47.34312" lon="7.01126">
        <ele>481.6</ele>
        <time>2021-07-29T17:00:18Z</time>
      </trkpt>
      <trkpt lat="47.34312" lon="7.01128">
        <ele>481.8</ele>
        <time>2021-07-29T17:00:19Z</time>
      </trkpt>
      <trkpt lat="47.34312" lon="7.01129">
        <ele>482</ele>
        <time>2021-07-29T17:00:20Z</time>
      </trkpt>
      <trkpt lat="47.34311" lon="7.01131">
        <ele>482.2</ele>
        <time>2021-07-29T17:00:21Z</time>
      </trkpt>
      <trkpt lat="47.34311" lon="7.01133">
        <ele>482.2</ele>
        <time>2021-07-29T17:00:22Z</time>
      </trkpt>
      <trkpt lat="47.34311" lon="7.01135">
        <ele>482.4</ele>
        <time>2021-07-29T17:00:23Z</time>
      </trkpt>
      <trkpt lat="47.34311" lon="7.01136">
        <ele>482.6</ele>
        <time>2021-07-29T17:00:24Z</time>
      </trkpt>
      <trkpt lat="47.3431" lon="7.01138">
        <ele>482.6</ele>
        <time>2021-07-29T17:00:25Z</time>
      </trkpt>
      <trkpt lat="47.3431" lon="7.0114">
        <ele>482.8</ele>
        <time>2021-07-29T17:00:26Z</time>
      </trkpt>
      <trkpt lat="47.3431" lon="7.01142">
        <ele>483</ele>
        <time>2021-07-29T17:00:27Z</time>
      </trkpt>
      <trkpt lat="47.3431" lon="7.01144">
        <ele>483</ele>
        <time>2021-07-29T17:00:28Z</time>
      </trkpt>
      <trkpt lat="47.3431" lon="7.01146">
        <ele>483.2</ele>
        <time>2021-07-29T17:00:29Z</time>
      </trkpt>
      <trkpt lat="47.3431" lon="7.01148">
        <ele>483.4</ele>
        <time>2021-07-29T17:00:30Z</time>
      </trkpt>
      <trkpt lat="47.3431" lon="7.0115">
        <ele>483.4</ele>
        <time>2021-07-29T17:00:31Z</time>
      </trkpt>
      <trkpt lat="47.3431" lon="7.01152">
        <ele>483.6</ele>
        <time>2021-07-29T17:00:32Z</time>
      </trkpt>
      <trkpt lat="47.3431" lon="7.01154">
        <ele>483.8</ele>
        <time>2021-07-29T17:00:33Z</time>
      </trkpt>
      <trkpt lat="47.3431" lon="7.01156">
        <ele>484</ele>
        <time>2021-07-29T17:00:34Z</time>
      </trkpt>
      <trkpt lat="47.3431" lon="7.01158">
        <ele>484</ele>
        <time>2021-07-29T17:00:35Z</time>
      </trkpt>
      <trkpt lat="47.34311" lon="7.0116">
        <ele>484.2</ele>
        <time>2021-07-29T17:00:36Z</time>
      </trkpt>
      <trkpt lat="47.34311" lon="7.01162">
        <ele>484.4</ele>
        <time>2021-07-29T17:00:37Z</time>
      </trkpt>
      <trkpt lat="47.34311" lon="7.01164">
        <ele>484.6</ele>
        <time>2021-07-29T17:00:38Z</time>
      </trkpt>
      <trkpt lat="47.34311" lon="7.01166">
        <ele>484.6</ele>
        <time>2021-07-29T17:00:39Z</time>
      </trkpt>
      <trkpt lat="47.34312" lon="7.01168">
        <ele>484.8</ele>
        <time>2021-07-29T17:00:40Z</time>
      </trkpt>
      <trkpt lat="47.34312" lon="7.0117">
        <ele>485</ele>
        <time>2021-07-29T17:00:41Z</time>
      </trkpt>
      <trkpt lat="47.34312" lon="7.01171">
        <ele>485.2</ele>
        <time>2021-07-29T17:00:42Z</time>
      </trkpt>
      <trkpt lat="47.34312" lon="7.01173">
        <ele>485.4</ele>
        <time>2021-07-29T17:00:43Z</time>
      </trkpt>
      <trkpt lat="47.34312" lon="7.01175">
        <ele>485.6</ele>
        <time>2021-07-29T17:00:44Z</time>
      </trkpt>
      <trkpt lat="47.34313" lon="7.01177">
        <ele>485.6</ele>
        <time>2021-07-29T17:00:45Z</time>
      </trkpt>
      <trkpt lat="47.34313" lon="7.01179">
        <ele>485.8</ele>
        <time>2021-07-29T17:00:46Z</time>
      </trkpt>
      <trkpt lat="47.34314" lon="7.0118">
        <ele>486</ele>
        <time>2021-07-29T17:00:47Z</time>
      </trkpt>
      <trkpt lat="47.34314" lon="7.01182">
        <ele>486.2</ele>
        <time>2021-07-29T17:00:48Z</time>
      </trkpt>
      <trkpt lat="47.34315" lon="7.01185">
        <ele>486.4</ele>
        <time>2021-07-29T17:00:49Z</time>
      </trkpt>
      <trkpt lat="47.34315" lon="7.01186">
        <ele>486.6</ele>
        <time>2021-07-29T17:00:50Z</time>
      </trkpt>
      <trkpt lat="47.34316" lon="7.01189">
        <ele>486.8</ele>
        <time>2021-07-29T17:00:51Z</time>
      </trkpt>
      <trkpt lat="47.34316" lon="7.0119">
        <ele>487</ele>
        <time>2021-07-29T17:00:52Z</time>
      </trkpt>
      <trkpt lat="47.34317" lon="7.01192">
        <ele>487.2</ele>
        <time>2021-07-29T17:00:53Z</time>
      </trkpt>
      <trkpt lat="47.34317" lon="7.01194">
        <ele>487.4</ele>
        <time>2021-07-29T17:00:54Z</time>
      </trkpt>
      <trkpt lat="47.34318" lon="7.01195">
        <ele>487.6</ele>
        <time>2021-07-29T17:00:55Z</time>
      </trkpt>
      <trkpt lat="47.34318" lon="7.01197">
        <ele>487.8</ele>
        <time>2021-07-29T17:00:56Z</time>
      </trkpt>
      <trkpt lat="47.34318" lon="7.01199">
        <ele>487.8</ele>
        <time>2021-07-29T17:00:57Z</time>
      </trkpt>
      <trkpt lat="47.34319" lon="7.01201">
        <ele>488.2</ele>
        <time>2021-07-29T17:00:58Z</time>
      </trkpt>
      <trkpt lat="47.34319" lon="7.01203">
        <ele>488.4</ele>
        <time>2021-07-29T17:00:59Z</time>
      </trkpt>
      <trkpt lat="47.3432" lon="7.01204">
        <ele>488.6</ele>
        <time>2021-07-29T17:01:00Z</time>
      </trkpt>
      <trkpt lat="47.3432" lon="7.01206">
        <ele>488.8</ele>
        <time>2021-07-29T17:01:01Z</time>
      </trkpt>
      <trkpt lat="47.34321" lon="7.01208">
        <ele>489</ele>
        <time>2021-07-29T17:01:02Z</time>
      </trkpt>
      <trkpt lat="47.34321" lon="7.01209">
        <ele>489</ele>
        <time>2021-07-29T17:01:03Z</time>
      </trkpt>
      <trkpt lat="47.34322" lon="7.01211">
        <ele>489.4</ele>
        <time>2021-07-29T17:01:04Z</time>
      </trkpt>
      <trkpt lat="47.34322" lon="7.01213">
        <ele>489.6</ele>
        <time>2021-07-29T17:01:05Z</time>
      </trkpt>
      <trkpt lat="47.34323" lon="7.01215">
        <ele>489.8</ele>
        <time>2021-07-29T17:01:06Z</time>
      </trkpt>
      <trkpt lat="47.34323" lon="7.01216">
        <ele>490</ele>
        <time>2021-07-29T17:01:07Z</time>
      </trkpt>
      <trkpt lat="47.34324" lon="7.01218">
        <ele>490.2</ele>
        <time>2021-07-29T17:01:08Z</time>
      </trkpt>
      <trkpt lat="47.34324" lon="7.0122">
        <ele>490.2</ele>
        <time>2021-07-29T17:01:09Z</time>
      </trkpt>
      <trkpt lat="47.34325" lon="7.01222">
        <ele>490.4</ele>
        <time>2021-07-29T17:01:10Z</time>
      </trkpt>
      <trkpt lat="47.34325" lon="7.01223">
        <ele>490.6</ele>
        <time>2021-07-29T17:01:11Z</time>
      </trkpt>
      <trkpt lat="47.34325" lon="7.01225">
        <ele>490.8</ele>
        <time>2021-07-29T17:01:12Z</time>
      </trkpt>
      <trkpt lat="47.34326" lon="7.01227">
        <ele>491</ele>
        <time>2021-07-29T17:01:13Z</time>
      </trkpt>
      <trkpt lat="47.34326" lon="7.01228">
        <ele>491.2</ele>
        <time>2021-07-29T17:01:14Z</time>
      </trkpt>
      <trkpt lat="47.34327" lon="7.0123">
        <ele>491.2</ele>
        <time>2021-07-29T17:01:15Z</time>
      </trkpt>
      <trkpt lat="47.34327" lon="7.01232">
        <ele>491.4</ele>
        <time>2021-07-29T17:01:16Z</time>
      </trkpt>
      <trkpt lat="47.34328" lon="7.01234">
        <ele>491.6</ele>
        <time>2021-07-29T17:01:17Z</time>
      </trkpt>
      <trkpt lat="47.34328" lon="7.01235">
        <ele>491.8</ele>
        <time>2021-07-29T17:01:18Z</time>
      </trkpt>
      <trkpt lat="47.34328" lon="7.01237">
        <ele>491.8</ele>
        <time>2021-07-29T17:01:19Z</time>
      </trkpt>
      <trkpt lat="47.34329" lon="7.01239">
        <ele>492</ele>
        <time>2021-07-29T17:01:20Z</time>
      </trkpt>
      <trkpt lat="47.34329" lon="7.01241">
        <ele>492.2</ele>
        <time>2021-07-29T17:01:21Z</time>
      </trkpt>
      <trkpt lat="47.34329" lon="7.01242">
        <ele>492.2</ele>
        <time>2021-07-29T17:01:22Z</time>
      </trkpt>
      <trkpt lat="47.3433" lon="7.01244">
        <ele>492.4</ele>
        <time>2021-07-29T17:01:23Z</time>
      </trkpt>
      <trkpt lat="47.3433" lon="7.01246">
        <ele>492.6</ele>
        <time>2021-07-29T17:01:24Z</time>
      </trkpt>
      <trkpt lat="47.34331" lon="7.01248">
        <ele>492.6</ele>
        <time>2021-07-29T17:01:25Z</time>
      </trkpt>
      <trkpt lat="47.34331" lon="7.0125">
        <ele>492.8</ele>
        <time>2021-07-29T17:01:26Z</time>
      </trkpt>
      <trkpt lat="47.34332" lon="7.01252">
        <ele>493</ele>
        <time>2021-07-29T17:01:27Z</time>
      </trkpt>
      <trkpt lat="47.34333" lon="7.01254">
        <ele>493</ele>
        <time>2021-07-29T17:01:28Z</time>
      </trkpt>
      <trkpt lat="47.34333" lon="7.01256">
        <ele>493</ele>
        <time>2021-07-29T17:01:29Z</time>
      </trkpt>
      <trkpt lat="47.34333" lon="7.01258">
        <ele>493.2</ele>
        <time>2021-07-29T17:01:30Z</time>
      </trkpt>
      <trkpt lat="47.34334" lon="7.0126">
        <ele>493.2</ele>
        <time>2021-07-29T17:01:31Z</time>
      </trkpt>
      <trkpt lat="47.34335" lon="7.01262">
        <ele>493.4</ele>
        <time>2021-07-29T17:01:32Z</time>
      </trkpt>
      <trkpt lat="47.34335" lon="7.01265">
        <ele>493.4</ele>
        <time>2021-07-29T17:01:33Z</time>
      </trkpt>
      <trkpt lat="47.34335" lon="7.01268">
        <ele>493.6</ele>
        <time>2021-07-29T17:01:34Z</time>
      </trkpt>
      <trkpt lat="47.34336" lon="7.0127">
        <ele>493.8</ele>
        <time>2021-07-29T17:01:35Z</time>
      </trkpt>
      <trkpt lat="47.34336" lon="7.01273">
        <ele>493.8</ele>
        <time>2021-07-29T17:01:36Z</time>
      </trkpt>
      <trkpt lat="47.34337" lon="7.01275">
        <ele>494</ele>
        <time>2021-07-29T17:01:37Z</time>
      </trkpt>
      <trkpt lat="47.34337" lon="7.01277">
        <ele>494</ele>
        <time>2021-07-29T17:01:38Z</time>
      </trkpt>
      <trkpt lat="47.34338" lon="7.01279">
        <ele>494.2</ele>
        <time>2021-07-29T17:01:39Z</time>
      </trkpt>
      <trkpt lat="47.34338" lon="7.01281">
        <ele>494.2</ele>
        <time>2021-07-29T17:01:40Z</time>
      </trkpt>
      <trkpt lat="47.34339" lon="7.01283">
        <ele>494.4</ele>
        <time>2021-07-29T17:01:41Z</time>
      </trkpt>
      <trkpt lat="47.34339" lon="7.01286">
        <ele>494.4</ele>
        <time>2021-07-29T17:01:42Z</time>
      </trkpt>
      <trkpt lat="47.3434" lon="7.01288">
        <ele>494.6</ele>
        <time>2021-07-29T17:01:43Z</time>
      </trkpt>
      <trkpt lat="47.3434" lon="7.0129">
        <ele>494.6</ele>
        <time>2021-07-29T17:01:44Z</time>
      </trkpt>
      <trkpt lat="47.34341" lon="7.01292">
        <ele>494.6</ele>
        <time>2021-07-29T17:01:45Z</time>
      </trkpt>
      <trkpt lat="47.34341" lon="7.01294">
        <ele>494.8</ele>
        <time>2021-07-29T17:01:46Z</time>
      </trkpt>
      <trkpt lat="47.34341" lon="7.01296">
        <ele>495</ele>
        <time>2021-07-29T17:01:47Z</time>
      </trkpt>
      <trkpt lat="47.34342" lon="7.01298">
        <ele>495</ele>
        <time>2021-07-29T17:01:48Z</time>
      </trkpt>
      <trkpt lat="47.34342" lon="7.013">
        <ele>495.2</ele>
        <time>2021-07-29T17:01:49Z</time>
      </trkpt>
      <trkpt lat="47.34343" lon="7.01303">
        <ele>495.4</ele>
        <time>2021-07-29T17:01:50Z</time>
      </trkpt>
      <trkpt lat="47.34343" lon="7.01304">
        <ele>495.4</ele>
        <time>2021-07-29T17:01:51Z</time>
      </trkpt>
      <trkpt lat="47.34344" lon="7.01306">
        <ele>495.6</ele>
        <time>2021-07-29T17:01:52Z</time>
      </trkpt>
      <trkpt lat="47.34344" lon="7.01308">
        <ele>495.8</ele>
        <time>2021-07-29T17:01:53Z</time>
      </trkpt>
      <trkpt lat="47.34344" lon="7.0131">
        <ele>496</ele>
        <time>2021-07-29T17:01:54Z</time>
      </trkpt>
      <trkpt lat="47.34345" lon="7.01311">
        <ele>496</ele>
        <time>2021-07-29T17:01:55Z</time>
      </trkpt>
      <trkpt lat="47.34345" lon="7.01313">
        <ele>496.2</ele>
        <time>2021-07-29T17:01:56Z</time>
      </trkpt>
      <trkpt lat="47.34345" lon="7.01315">
        <ele>496.4</ele>
        <time>2021-07-29T17:01:57Z</time>
      </trkpt>
      <trkpt lat="47.34345" lon="7.01317">
        <ele>496.4</ele>
        <time>2021-07-29T17:01:58Z</time>
      </trkpt>
      <trkpt lat="47.34346" lon="7.01319">
        <ele>496.6</ele>
        <time>2021-07-29T17:01:59Z</time>
      </trkpt>
      <trkpt lat="47.34346" lon="7.01321">
        <ele>496.8</ele>
        <time>2021-07-29T17:02:00Z</time>
      </trkpt>
      <trkpt lat="47.34347" lon="7.01322">
        <ele>496.8</ele>
        <time>2021-07-29T17:02:01Z</time>
      </trkpt>
      <trkpt lat="47.34347" lon="7.01324">
        <ele>497</ele>
        <time>2021-07-29T17:02:02Z</time>
      </trkpt>
      <trkpt lat="47.34347" lon="7.01326">
        <ele>497.2</ele>
        <time>2021-07-29T17:02:03Z</time>
      </trkpt>
      <trkpt lat="47.34348" lon="7.01328">
        <ele>497.4</ele>
        <time>2021-07-29T17:02:04Z</time>
      </trkpt>
      <trkpt lat="47.34348" lon="7.0133">
        <ele>497.4</ele>
        <time>2021-07-29T17:02:05Z</time>
      </trkpt>
      <trkpt lat="47.34348" lon="7.01332">
        <ele>497.6</ele>
        <time>2021-07-29T17:02:06Z</time>
      </trkpt>
      <trkpt lat="47.34349" lon="7.01334">
        <ele>497.8</ele>
        <time>2021-07-29T17:02:07Z</time>
      </trkpt>
      <trkpt lat="47.34349" lon="7.01336">
        <ele>498</ele>
        <time>2021-07-29T17:02:08Z</time>
      </trkpt>
      <trkpt lat="47.3435" lon="7.01338">
        <ele>498</ele>
        <time>2021-07-29T17:02:09Z</time>
      </trkpt>
      <trkpt lat="47.3435" lon="7.0134">
        <ele>498.2</ele>
        <time>2021-07-29T17:02:10Z</time>
      </trkpt>
      <trkpt lat="47.34351" lon="7.01341">
        <ele>498.4</ele>
        <time>2021-07-29T17:02:11Z</time>
      </trkpt>
      <trkpt lat="47.34352" lon="7.01343">
        <ele>498.6</ele>
        <time>2021-07-29T17:02:12Z</time>
      </trkpt>
      <trkpt lat="47.34352" lon="7.01345">
        <ele>498.6</ele>
        <time>2021-07-29T17:02:13Z</time>
      </trkpt>
      <trkpt lat="47.34353" lon="7.01346">
        <ele>498.8</ele>
        <time>2021-07-29T17:02:14Z</time>
      </trkpt>
      <trkpt lat="47.34353" lon="7.01348">
        <ele>499</ele>
        <time>2021-07-29T17:02:15Z</time>
      </trkpt>
      <trkpt lat="47.34354" lon="7.0135">
        <ele>499.2</ele>
        <time>2021-07-29T17:02:16Z</time>
      </trkpt>
      <trkpt lat="47.34355" lon="7.01352">
        <ele>499.4</ele>
        <time>2021-07-29T17:02:17Z</time>
      </trkpt>
      <trkpt lat="47.34355" lon="7.01353">
        <ele>499.6</ele>
        <time>2021-07-29T17:02:18Z</time>
      </trkpt>
      <trkpt lat="47.34356" lon="7.01354">
        <ele>499.6</ele>
        <time>2021-07-29T17:02:19Z</time>
      </trkpt>
      <trkpt lat="47.34357" lon="7.01356">
        <ele>500</ele>
        <time>2021-07-29T17:02:20Z</time>
      </trkpt>
      <trkpt lat="47.34358" lon="7.01357">
        <ele>500</ele>
        <time>2021-07-29T17:02:21Z</time>
      </trkpt>
      <trkpt lat="47.34358" lon="7.01359">
        <ele>500.2</ele>
        <time>2021-07-29T17:02:22Z</time>
      </trkpt>
      <trkpt lat="47.34359" lon="7.0136">
        <ele>500.4</ele>
        <time>2021-07-29T17:02:23Z</time>
      </trkpt>
      <trkpt lat="47.34359" lon="7.01361">
        <ele>500.6</ele>
        <time>2021-07-29T17:02:24Z</time>
      </trkpt>
      <trkpt lat="47.34359" lon="7.01362">
        <ele>500.8</ele>
        <time>2021-07-29T17:02:25Z</time>
      </trkpt>
      <trkpt lat="47.3436" lon="7.01364">
        <ele>501</ele>
        <time>2021-07-29T17:02:26Z</time>
      </trkpt>
      <trkpt lat="47.34361" lon="7.01365">
        <ele>501.2</ele>
        <time>2021-07-29T17:02:27Z</time>
      </trkpt>
      <trkpt lat="47.34362" lon="7.01367">
        <ele>501.4</ele>
        <time>2021-07-29T17:02:28Z</time>
      </trkpt>
      <trkpt lat="47.34363" lon="7.01368">
        <ele>501.6</ele>
        <time>2021-07-29T17:02:29Z</time>
      </trkpt>
      <trkpt lat="47.34364" lon="7.01369">
        <ele>501.6</ele>
        <time>2021-07-29T17:02:30Z</time>
      </trkpt>
      <trkpt lat="47.34365" lon="7.01372">
        <ele>501.8</ele>
        <time>2021-07-29T17:02:31Z</time>
      </trkpt>
      <trkpt lat="47.34365" lon="7.01374">
        <ele>502</ele>
        <time>2021-07-29T17:02:32Z</time>
      </trkpt>
      <trkpt lat="47.34366" lon="7.01375">
        <ele>502.2</ele>
        <time>2021-07-29T17:02:33Z</time>
      </trkpt>
      <trkpt lat="47.34367" lon="7.01377">
        <ele>502.4</ele>
        <time>2021-07-29T17:02:34Z</time>
      </trkpt>
      <trkpt lat="47.34368" lon="7.01379">
        <ele>502.4</ele>
        <time>2021-07-29T17:02:35Z</time>
      </trkpt>
      <trkpt lat="47.34369" lon="7.0138">
        <ele>502.6</ele>
        <time>2021-07-29T17:02:36Z</time>
      </trkpt>
      <trkpt lat="47.3437" lon="7.01381">
        <ele>502.8</ele>
        <time>2021-07-29T17:02:37Z</time>
      </trkpt>
      <trkpt lat="47.34371" lon="7.01382">
        <ele>503</ele>
        <time>2021-07-29T17:02:38Z</time>
      </trkpt>
      <trkpt lat="47.34371" lon="7.01384">
        <ele>503</ele>
        <time>2021-07-29T17:02:39Z</time>
      </trkpt>
      <trkpt lat="47.34373" lon="7.01385">
        <ele>503.2</ele>
        <time>2021-07-29T17:02:40Z</time>
      </trkpt>
      <trkpt lat="47.34374" lon="7.01387">
        <ele>503.4</ele>
        <time>2021-07-29T17:02:41Z</time>
      </trkpt>
      <trkpt lat="47.34375" lon="7.01388">
        <ele>503.4</ele>
        <time>2021-07-29T17:02:42Z</time>
      </trkpt>
      <trkpt lat="47.34376" lon="7.0139">
        <ele>503.6</ele>
        <time>2021-07-29T17:02:43Z</time>
      </trkpt>
      <trkpt lat="47.34377" lon="7.01392">
        <ele>503.6</ele>
        <time>2021-07-29T17:02:44Z</time>
      </trkpt>
      <trkpt lat="47.34378" lon="7.01394">
        <ele>503.8</ele>
        <time>2021-07-29T17:02:45Z</time>
      </trkpt>
      <trkpt lat="47.34378" lon="7.01397">
        <ele>504</ele>
        <time>2021-07-29T17:02:46Z</time>
      </trkpt>
      <trkpt lat="47.34379" lon="7.01398">
        <ele>504.2</ele>
        <time>2021-07-29T17:02:47Z</time>
      </trkpt>
      <trkpt lat="47.3438" lon="7.01401">
        <ele>504.2</ele>
        <time>2021-07-29T17:02:48Z</time>
      </trkpt>
      <trkpt lat="47.34381" lon="7.01403">
        <ele>504.4</ele>
        <time>2021-07-29T17:02:49Z</time>
      </trkpt>
      <trkpt lat="47.34382" lon="7.01405">
        <ele>504.4</ele>
        <time>2021-07-29T17:02:50Z</time>
      </trkpt>
      <trkpt lat="47.34383" lon="7.01407">
        <ele>504.6</ele>
        <time>2021-07-29T17:02:51Z</time>
      </trkpt>
      <trkpt lat="47.34384" lon="7.01409">
        <ele>504.8</ele>
        <time>2021-07-29T17:02:52Z</time>
      </trkpt>
      <trkpt lat="47.34385" lon="7.01411">
        <ele>505</ele>
        <time>2021-07-29T17:02:53Z</time>
      </trkpt>
      <trkpt lat="47.34386" lon="7.01414">
        <ele>505.2</ele>
        <time>2021-07-29T17:02:54Z</time>
      </trkpt>
      <trkpt lat="47.34387" lon="7.01416">
        <ele>505.2</ele>
        <time>2021-07-29T17:02:55Z</time>
      </trkpt>
      <trkpt lat="47.34389" lon="7.01418">
        <ele>505.4</ele>
        <time>2021-07-29T17:02:56Z</time>
      </trkpt>
      <trkpt lat="47.3439" lon="7.0142">
        <ele>505.6</ele>
        <time>2021-07-29T17:02:57Z</time>
      </trkpt>
      <trkpt lat="47.34391" lon="7.01422">
        <ele>505.8</ele>
        <time>2021-07-29T17:02:58Z</time>
      </trkpt>
      <trkpt lat="47.34391" lon="7.01425">
        <ele>506</ele>
        <time>2021-07-29T17:02:59Z</time>
      </trkpt>
      <trkpt lat="47.34393" lon="7.01427">
        <ele>506</ele>
        <time>2021-07-29T17:03:00Z</time>
      </trkpt>
      <trkpt lat="47.34394" lon="7.01429">
        <ele>506.2</ele>
        <time>2021-07-29T17:03:01Z</time>
      </trkpt>
      <trkpt lat="47.34395" lon="7.01431">
        <ele>506.2</ele>
        <time>2021-07-29T17:03:02Z</time>
      </trkpt>
      <trkpt lat="47.34397" lon="7.01433">
        <ele>506.4</ele>
        <time>2021-07-29T17:03:03Z</time>
      </trkpt>
      <trkpt lat="47.34398" lon="7.01435">
        <ele>506.6</ele>
        <time>2021-07-29T17:03:04Z</time>
      </trkpt>
      <trkpt lat="47.34399" lon="7.01438">
        <ele>506.8</ele>
        <time>2021-07-29T17:03:05Z</time>
      </trkpt>
      <trkpt lat="47.34401" lon="7.0144">
        <ele>506.8</ele>
        <time>2021-07-29T17:03:06Z</time>
      </trkpt>
      <trkpt lat="47.34402" lon="7.01442">
        <ele>507</ele>
        <time>2021-07-29T17:03:07Z</time>
      </trkpt>
      <trkpt lat="47.34403" lon="7.01445">
        <ele>507</ele>
        <time>2021-07-29T17:03:08Z</time>
      </trkpt>
      <trkpt lat="47.34405" lon="7.01447">
        <ele>507.2</ele>
        <time>2021-07-29T17:03:09Z</time>
      </trkpt>
      <trkpt lat="47.34406" lon="7.01449">
        <ele>507.4</ele>
        <time>2021-07-29T17:03:10Z</time>
      </trkpt>
      <trkpt lat="47.34407" lon="7.01451">
        <ele>507.6</ele>
        <time>2021-07-29T17:03:11Z</time>
      </trkpt>
      <trkpt lat="47.34409" lon="7.01453">
        <ele>507.6</ele>
        <time>2021-07-29T17:03:12Z</time>
      </trkpt>
      <trkpt lat="47.3441" lon="7.01455">
        <ele>507.8</ele>
        <time>2021-07-29T17:03:13Z</time>
      </trkpt>
      <trkpt lat="47.34411" lon="7.01457">
        <ele>507.8</ele>
        <time>2021-07-29T17:03:14Z</time>
      </trkpt>
      <trkpt lat="47.34413" lon="7.01458">
        <ele>508</ele>
        <time>2021-07-29T17:03:15Z</time>
      </trkpt>
      <trkpt lat="47.34414" lon="7.0146">
        <ele>508</ele>
        <time>2021-07-29T17:03:16Z</time>
      </trkpt>
      <trkpt lat="47.34415" lon="7.01462">
        <ele>508.2</ele>
        <time>2021-07-29T17:03:17Z</time>
      </trkpt>
      <trkpt lat="47.34416" lon="7.01464">
        <ele>508.2</ele>
        <time>2021-07-29T17:03:18Z</time>
      </trkpt>
      <trkpt lat="47.34417" lon="7.01467">
        <ele>508.4</ele>
        <time>2021-07-29T17:03:19Z</time>
      </trkpt>
      <trkpt lat="47.34418" lon="7.01469">
        <ele>508.6</ele>
        <time>2021-07-29T17:03:20Z</time>
      </trkpt>
      <trkpt lat="47.3442" lon="7.01471">
        <ele>508.6</ele>
        <time>2021-07-29T17:03:21Z</time>
      </trkpt>
      <trkpt lat="47.34421" lon="7.01474">
        <ele>508.8</ele>
        <time>2021-07-29T17:03:22Z</time>
      </trkpt>
      <trkpt lat="47.34422" lon="7.01476">
        <ele>508.8</ele>
        <time>2021-07-29T17:03:23Z</time>
      </trkpt>
      <trkpt lat="47.34423" lon="7.01478">
        <ele>509</ele>
        <time>2021-07-29T17:03:24Z</time>
      </trkpt>
      <trkpt lat="47.34424" lon="7.01481">
        <ele>509</ele>
        <time>2021-07-29T17:03:25Z</time>
      </trkpt>
      <trkpt lat="47.34425" lon="7.01483">
        <ele>509.2</ele>
        <time>2021-07-29T17:03:26Z</time>
      </trkpt>
      <trkpt lat="47.34426" lon="7.01485">
        <ele>509.2</ele>
        <time>2021-07-29T17:03:27Z</time>
      </trkpt>
      <trkpt lat="47.34427" lon="7.01487">
        <ele>509.4</ele>
        <time>2021-07-29T17:03:28Z</time>
      </trkpt>
      <trkpt lat="47.34428" lon="7.01489">
        <ele>509.4</ele>
        <time>2021-07-29T17:03:29Z</time>
      </trkpt>
      <trkpt lat="47.34429" lon="7.01491">
        <ele>509.4</ele>
        <time>2021-07-29T17:03:30Z</time>
      </trkpt>
      <trkpt lat="47.3443" lon="7.01493">
        <ele>509.6</ele>
        <time>2021-07-29T17:03:31Z</time>
      </trkpt>
      <trkpt lat="47.34431" lon="7.01495">
        <ele>509.6</ele>
        <time>2021-07-29T17:03:32Z</time>
      </trkpt>
      <trkpt lat="47.34432" lon="7.01498">
        <ele>509.8</ele>
        <time>2021-07-29T17:03:33Z</time>
      </trkpt>
      <trkpt lat="47.34433" lon="7.015">
        <ele>509.8</ele>
        <time>2021-07-29T17:03:34Z</time>
      </trkpt>
      <trkpt lat="47.34434" lon="7.01503">
        <ele>509.8</ele>
        <time>2021-07-29T17:03:35Z</time>
      </trkpt>
      <trkpt lat="47.34436" lon="7.01505">
        <ele>509.8</ele>
        <time>2021-07-29T17:03:36Z</time>
      </trkpt>
      <trkpt lat="47.34437" lon="7.01507">
        <ele>510</ele>
        <time>2021-07-29T17:03:37Z</time>
      </trkpt>
      <trkpt lat="47.34439" lon="7.01509">
        <ele>510</ele>
        <time>2021-07-29T17:03:38Z</time>
      </trkpt>
      <trkpt lat="47.3444" lon="7.01512">
        <ele>510</ele>
        <time>2021-07-29T17:03:39Z</time>
      </trkpt>
      <trkpt lat="47.34441" lon="7.01514">
        <ele>510.2</ele>
        <time>2021-07-29T17:03:40Z</time>
      </trkpt>
      <trkpt lat="47.34443" lon="7.01516">
        <ele>510.2</ele>
        <time>2021-07-29T17:03:41Z</time>
      </trkpt>
      <trkpt lat="47.34443" lon="7.01518">
        <ele>510.4</ele>
        <time>2021-07-29T17:03:42Z</time>
      </trkpt>
      <trkpt lat="47.34445" lon="7.01521">
        <ele>510.4</ele>
        <time>2021-07-29T17:03:43Z</time>
      </trkpt>
      <trkpt lat="47.34446" lon="7.01523">
        <ele>510.4</ele>
        <time>2021-07-29T17:03:44Z</time>
      </trkpt>
      <trkpt lat="47.34448" lon="7.01525">
        <ele>510.4</ele>
        <time>2021-07-29T17:03:45Z</time>
      </trkpt>
      <trkpt lat="47.34449" lon="7.01527">
        <ele>510.6</ele>
        <time>2021-07-29T17:03:46Z</time>
      </trkpt>
      <trkpt lat="47.34451" lon="7.01529">
        <ele>510.6</ele>
        <time>2021-07-29T17:03:47Z</time>
      </trkpt>
      <trkpt lat="47.34452" lon="7.01531">
        <ele>510.8</ele>
        <time>2021-07-29T17:03:48Z</time>
      </trkpt>
      <trkpt lat="47.34453" lon="7.01533">
        <ele>510.8</ele>
        <time>2021-07-29T17:03:49Z</time>
      </trkpt>
      <trkpt lat="47.34454" lon="7.01535">
        <ele>511</ele>
        <time>2021-07-29T17:03:50Z</time>
      </trkpt>
      <trkpt lat="47.34456" lon="7.01537">
        <ele>511</ele>
        <time>2021-07-29T17:03:51Z</time>
      </trkpt>
      <trkpt lat="47.34457" lon="7.01539">
        <ele>511</ele>
        <time>2021-07-29T17:03:52Z</time>
      </trkpt>
      <trkpt lat="47.34458" lon="7.01542">
        <ele>511.2</ele>
        <time>2021-07-29T17:03:53Z</time>
      </trkpt>
      <trkpt lat="47.34459" lon="7.01544">
        <ele>511.2</ele>
        <time>2021-07-29T17:03:54Z</time>
      </trkpt>
      <trkpt lat="47.3446" lon="7.01546">
        <ele>511.4</ele>
        <time>2021-07-29T17:03:55Z</time>
      </trkpt>
      <trkpt lat="47.34461" lon="7.01548">
        <ele>511.4</ele>
        <time>2021-07-29T17:03:56Z</time>
      </trkpt>
      <trkpt lat="47.34462" lon="7.0155">
        <ele>511.4</ele>
        <time>2021-07-29T17:03:57Z</time>
      </trkpt>
      <trkpt lat="47.34463" lon="7.01553">
        <ele>511.6</ele>
        <time>2021-07-29T17:03:58Z</time>
      </trkpt>
      <trkpt lat="47.34464" lon="7.01555">
        <ele>511.6</ele>
        <time>2021-07-29T17:03:59Z</time>
      </trkpt>
      <trkpt lat="47.34464" lon="7.01558">
        <ele>511.8</ele>
        <time>2021-07-29T17:04:00Z</time>
      </trkpt>
      <trkpt lat="47.34465" lon="7.0156">
        <ele>511.8</ele>
        <time>2021-07-29T17:04:01Z</time>
      </trkpt>
      <trkpt lat="47.34466" lon="7.01562">
        <ele>512</ele>
        <time>2021-07-29T17:04:02Z</time>
      </trkpt>
      <trkpt lat="47.34467" lon="7.01564">
        <ele>512</ele>
        <time>2021-07-29T17:04:03Z</time>
      </trkpt>
      <trkpt lat="47.34469" lon="7.01566">
        <ele>512.2</ele>
        <time>2021-07-29T17:04:04Z</time>
      </trkpt>
      <trkpt lat="47.3447" lon="7.01568">
        <ele>512.2</ele>
        <time>2021-07-29T17:04:05Z</time>
      </trkpt>
      <trkpt lat="47.34471" lon="7.0157">
        <ele>512.4</ele>
        <time>2021-07-29T17:04:06Z</time>
      </trkpt>
      <trkpt lat="47.34472" lon="7.01572">
        <ele>512.4</ele>
        <time>2021-07-29T17:04:07Z</time>
      </trkpt>
      <trkpt lat="47.34473" lon="7.01574">
        <ele>512.6</ele>
        <time>2021-07-29T17:04:08Z</time>
      </trkpt>
      <trkpt lat="47.34474" lon="7.01577">
        <ele>512.6</ele>
        <time>2021-07-29T17:04:09Z</time>
      </trkpt>
      <trkpt lat="47.34474" lon="7.01579">
        <ele>512.8</ele>
        <time>2021-07-29T17:04:10Z</time>
      </trkpt>
      <trkpt lat="47.34475" lon="7.01581">
        <ele>512.8</ele>
        <time>2021-07-29T17:04:11Z</time>
      </trkpt>
      <trkpt lat="47.34476" lon="7.01584">
        <ele>513</ele>
        <time>2021-07-29T17:04:12Z</time>
      </trkpt>
      <trkpt lat="47.34476" lon="7.01586">
        <ele>513</ele>
        <time>2021-07-29T17:04:13Z</time>
      </trkpt>
      <trkpt lat="47.34477" lon="7.01588">
        <ele>513.2</ele>
        <time>2021-07-29T17:04:14Z</time>
      </trkpt>
      <trkpt lat="47.34478" lon="7.0159">
        <ele>513.2</ele>
        <time>2021-07-29T17:04:15Z</time>
      </trkpt>
      <trkpt lat="47.34479" lon="7.01592">
        <ele>513.4</ele>
        <time>2021-07-29T17:04:16Z</time>
      </trkpt>
      <trkpt lat="47.34481" lon="7.01594">
        <ele>513.4</ele>
        <time>2021-07-29T17:04:17Z</time>
      </trkpt>
      <trkpt lat="47.34482" lon="7.01596">
        <ele>513.6</ele>
        <time>2021-07-29T17:04:18Z</time>
      </trkpt>
      <trkpt lat="47.34484" lon="7.01597">
        <ele>513.6</ele>
        <time>2021-07-29T17:04:19Z</time>
      </trkpt>
      <trkpt lat="47.34485" lon="7.01599">
        <ele>513.6</ele>
        <time>2021-07-29T17:04:20Z</time>
      </trkpt>
      <trkpt lat="47.34486" lon="7.016">
        <ele>513.8</ele>
        <time>2021-07-29T17:04:21Z</time>
      </trkpt>
      <trkpt lat="47.34487" lon="7.01602">
        <ele>513.8</ele>
        <time>2021-07-29T17:04:22Z</time>
      </trkpt>
      <trkpt lat="47.34488" lon="7.01605">
        <ele>514</ele>
        <time>2021-07-29T17:04:23Z</time>
      </trkpt>
      <trkpt lat="47.34489" lon="7.01607">
        <ele>514</ele>
        <time>2021-07-29T17:04:24Z</time>
      </trkpt>
      <trkpt lat="47.34489" lon="7.0161">
        <ele>514.2</ele>
        <time>2021-07-29T17:04:25Z</time>
      </trkpt>
      <trkpt lat="47.3449" lon="7.01612">
        <ele>514.2</ele>
        <time>2021-07-29T17:04:26Z</time>
      </trkpt>
      <trkpt lat="47.34491" lon="7.01613">
        <ele>514.4</ele>
        <time>2021-07-29T17:04:27Z</time>
      </trkpt>
      <trkpt lat="47.34492" lon="7.01615">
        <ele>514.4</ele>
        <time>2021-07-29T17:04:28Z</time>
      </trkpt>
      <trkpt lat="47.34493" lon="7.01617">
        <ele>514.6</ele>
        <time>2021-07-29T17:04:29Z</time>
      </trkpt>
      <trkpt lat="47.34494" lon="7.0162">
        <ele>514.8</ele>
        <time>2021-07-29T17:04:30Z</time>
      </trkpt>
      <trkpt lat="47.34495" lon="7.01622">
        <ele>514.8</ele>
        <time>2021-07-29T17:04:31Z</time>
      </trkpt>
      <trkpt lat="47.34496" lon="7.01624">
        <ele>515</ele>
        <time>2021-07-29T17:04:32Z</time>
      </trkpt>
      <trkpt lat="47.34497" lon="7.01626">
        <ele>515</ele>
        <time>2021-07-29T17:04:33Z</time>
      </trkpt>
      <trkpt lat="47.34498" lon="7.01628">
        <ele>515</ele>
        <time>2021-07-29T17:04:34Z</time>
      </trkpt>
      <trkpt lat="47.345" lon="7.0163">
        <ele>515.2</ele>
        <time>2021-07-29T17:04:35Z</time>
      </trkpt>
      <trkpt lat="47.34501" lon="7.01632">
        <ele>515.2</ele>
        <time>2021-07-29T17:04:36Z</time>
      </trkpt>
      <trkpt lat="47.34502" lon="7.01635">
        <ele>515.4</ele>
        <time>2021-07-29T17:04:37Z</time>
      </trkpt>
      <trkpt lat="47.34503" lon="7.01637">
        <ele>515.4</ele>
        <time>2021-07-29T17:04:38Z</time>
      </trkpt>
      <trkpt lat="47.34504" lon="7.01639">
        <ele>515.4</ele>
        <time>2021-07-29T17:04:39Z</time>
      </trkpt>
      <trkpt lat="47.34505" lon="7.01641">
        <ele>515.4</ele>
        <time>2021-07-29T17:04:40Z</time>
      </trkpt>
      <trkpt lat="47.34506" lon="7.01643">
        <ele>515.6</ele>
        <time>2021-07-29T17:04:41Z</time>
      </trkpt>
      <trkpt lat="47.34507" lon="7.01645">
        <ele>515.6</ele>
        <time>2021-07-29T17:04:42Z</time>
      </trkpt>
      <trkpt lat="47.34508" lon="7.01648">
        <ele>515.8</ele>
        <time>2021-07-29T17:04:43Z</time>
      </trkpt>
      <trkpt lat="47.34509" lon="7.0165">
        <ele>515.8</ele>
        <time>2021-07-29T17:04:44Z</time>
      </trkpt>
      <trkpt lat="47.34511" lon="7.01652">
        <ele>516</ele>
        <time>2021-07-29T17:04:45Z</time>
      </trkpt>
      <trkpt lat="47.34511" lon="7.01654">
        <ele>516</ele>
        <time>2021-07-29T17:04:46Z</time>
      </trkpt>
      <trkpt lat="47.34512" lon="7.01657">
        <ele>516.2</ele>
        <time>2021-07-29T17:04:47Z</time>
      </trkpt>
      <trkpt lat="47.34514" lon="7.01659">
        <ele>516.2</ele>
        <time>2021-07-29T17:04:48Z</time>
      </trkpt>
      <trkpt lat="47.34515" lon="7.01661">
        <ele>516.4</ele>
        <time>2021-07-29T17:04:49Z</time>
      </trkpt>
      <trkpt lat="47.34516" lon="7.01664">
        <ele>516.4</ele>
        <time>2021-07-29T17:04:50Z</time>
      </trkpt>
      <trkpt lat="47.34517" lon="7.01666">
        <ele>516.6</ele>
        <time>2021-07-29T17:04:51Z</time>
      </trkpt>
      <trkpt lat="47.34518" lon="7.01668">
        <ele>516.6</ele>
        <time>2021-07-29T17:04:52Z</time>
      </trkpt>
      <trkpt lat="47.34519" lon="7.01671">
        <ele>516.6</ele>
        <time>2021-07-29T17:04:53Z</time>
      </trkpt>
      <trkpt lat="47.3452" lon="7.01673">
        <ele>516.8</ele>
        <time>2021-07-29T17:04:54Z</time>
      </trkpt>
      <trkpt lat="47.34521" lon="7.01675">
        <ele>516.8</ele>
        <time>2021-07-29T17:04:55Z</time>
      </trkpt>
      <trkpt lat="47.34522" lon="7.01677">
        <ele>517</ele>
        <time>2021-07-29T17:04:56Z</time>
      </trkpt>
      <trkpt lat="47.34523" lon="7.01679">
        <ele>517</ele>
        <time>2021-07-29T17:04:57Z</time>
      </trkpt>
      <trkpt lat="47.34524" lon="7.01681">
        <ele>517.2</ele>
        <time>2021-07-29T17:04:58Z</time>
      </trkpt>
      <trkpt lat="47.34525" lon="7.01683">
        <ele>517.2</ele>
        <time>2021-07-29T17:04:59Z</time>
      </trkpt>
      <trkpt lat="47.34526" lon="7.01685">
        <ele>517.4</ele>
        <time>2021-07-29T17:05:00Z</time>
      </trkpt>
      <trkpt lat="47.34527" lon="7.01687">
        <ele>517.4</ele>
        <time>2021-07-29T17:05:01Z</time>
      </trkpt>
      <trkpt lat="47.34528" lon="7.01689">
        <ele>517.6</ele>
        <time>2021-07-29T17:05:02Z</time>
      </trkpt>
      <trkpt lat="47.34529" lon="7.01692">
        <ele>517.6</ele>
        <time>2021-07-29T17:05:03Z</time>
      </trkpt>
      <trkpt lat="47.3453" lon="7.01694">
        <ele>517.8</ele>
        <time>2021-07-29T17:05:04Z</time>
      </trkpt>
      <trkpt lat="47.34531" lon="7.01696">
        <ele>517.8</ele>
        <time>2021-07-29T17:05:05Z</time>
      </trkpt>
      <trkpt lat="47.34532" lon="7.01698">
        <ele>518</ele>
        <time>2021-07-29T17:05:06Z</time>
      </trkpt>
      <trkpt lat="47.34533" lon="7.017">
        <ele>518</ele>
        <time>2021-07-29T17:05:07Z</time>
      </trkpt>
      <trkpt lat="47.34533" lon="7.01703">
        <ele>518.2</ele>
        <time>2021-07-29T17:05:08Z</time>
      </trkpt>
      <trkpt lat="47.34534" lon="7.01705">
        <ele>518.2</ele>
        <time>2021-07-29T17:05:09Z</time>
      </trkpt>
      <trkpt lat="47.34535" lon="7.01707">
        <ele>518.2</ele>
        <time>2021-07-29T17:05:10Z</time>
      </trkpt>
      <trkpt lat="47.34536" lon="7.01709">
        <ele>518.4</ele>
        <time>2021-07-29T17:05:11Z</time>
      </trkpt>
      <trkpt lat="47.34538" lon="7.01711">
        <ele>518.4</ele>
        <time>2021-07-29T17:05:12Z</time>
      </trkpt>
      <trkpt lat="47.34539" lon="7.01713">
        <ele>518.6</ele>
        <time>2021-07-29T17:05:13Z</time>
      </trkpt>
      <trkpt lat="47.3454" lon="7.01715">
        <ele>518.6</ele>
        <time>2021-07-29T17:05:14Z</time>
      </trkpt>
      <trkpt lat="47.34541" lon="7.01718">
        <ele>518.8</ele>
        <time>2021-07-29T17:05:15Z</time>
      </trkpt>
      <trkpt lat="47.34542" lon="7.0172">
        <ele>518.8</ele>
        <time>2021-07-29T17:05:16Z</time>
      </trkpt>
      <trkpt lat="47.34543" lon="7.01721">
        <ele>518.8</ele>
        <time>2021-07-29T17:05:17Z</time>
      </trkpt>
      <trkpt lat="47.34543" lon="7.01723">
        <ele>518.8</ele>
        <time>2021-07-29T17:05:18Z</time>
      </trkpt>
      <trkpt lat="47.34543" lon="7.01723">
        <ele>518.8</ele>
        <time>2021-07-29T17:05:19Z</time>
      </trkpt>
      <trkpt lat="47.34543" lon="7.01724">
        <ele>518.8</ele>
        <time>2021-07-29T17:05:20Z</time>
      </trkpt>
      <trkpt lat="47.34543" lon="7.01724">
        <ele>518.8</ele>
        <time>2021-07-29T17:05:21Z</time>
      </trkpt>
      <trkpt lat="47.34543" lon="7.01724">
        <ele>518.8</ele>
        <time>2021-07-29T17:05:22Z</time>
      </trkpt>
      <trkpt lat="47.34543" lon="7.01724">
        <ele>519</ele>
        <time>2021-07-29T17:05:23Z</time>
      </trkpt>
      <trkpt lat="47.34543" lon="7.01724">
        <ele>518.8</ele>
        <time>2021-07-29T17:05:24Z</time>
      </trkpt>
      <trkpt lat="47.34543" lon="7.01724">
        <ele>518.8</ele>
        <time>2021-07-29T17:05:25Z</time>
      </trkpt>
      <trkpt lat="47.34543" lon="7.01725">
        <ele>519</ele>
        <time>2021-07-29T17:05:26Z</time>
      </trkpt>
      <trkpt lat="47.34549" lon="7.01739">
        <ele>519.6</ele>
        <time>2021-07-29T17:05:53Z</time>
      </trkpt>
      <trkpt lat="47.3455" lon="7.01742">
        <ele>519.6</ele>
        <time>2021-07-29T17:05:54Z</time>
      </trkpt>
      <trkpt lat="47.34551" lon="7.01744">
        <ele>519.8</ele>
        <time>2021-07-29T17:05:55Z</time>
      </trkpt>
      <trkpt lat="47.34552" lon="7.01747">
        <ele>519.8</ele>
        <time>2021-07-29T17:05:56Z</time>
      </trkpt>
      <trkpt lat="47.34554" lon="7.01749">
        <ele>520</ele>
        <time>2021-07-29T17:05:57Z</time>
      </trkpt>
      <trkpt lat="47.34555" lon="7.01751">
        <ele>520</ele>
        <time>2021-07-29T17:05:58Z</time>
      </trkpt>
      <trkpt lat="47.34556" lon="7.01754">
        <ele>520.2</ele>
        <time>2021-07-29T17:05:59Z</time>
      </trkpt>
      <trkpt lat="47.34557" lon="7.01756">
        <ele>520.2</ele>
        <time>2021-07-29T17:06:00Z</time>
      </trkpt>
      <trkpt lat="47.34559" lon="7.01758">
        <ele>520.2</ele>
        <time>2021-07-29T17:06:01Z</time>
      </trkpt>
      <trkpt lat="47.3456" lon="7.0176">
        <ele>520.4</ele>
        <time>2021-07-29T17:06:02Z</time>
      </trkpt>
      <trkpt lat="47.34561" lon="7.01763">
        <ele>520.4</ele>
        <time>2021-07-29T17:06:03Z</time>
      </trkpt>
      <trkpt lat="47.34563" lon="7.01765">
        <ele>520.6</ele>
        <time>2021-07-29T17:06:04Z</time>
      </trkpt>
      <trkpt lat="47.34564" lon="7.01767">
        <ele>520.6</ele>
        <time>2021-07-29T17:06:05Z</time>
      </trkpt>
      <trkpt lat="47.34565" lon="7.01768">
        <ele>520.8</ele>
        <time>2021-07-29T17:06:06Z</time>
      </trkpt>
      <trkpt lat="47.34567" lon="7.01768">
        <ele>521</ele>
        <time>2021-07-29T17:06:07Z</time>
      </trkpt>
      <trkpt lat="47.34568" lon="7.01767">
        <ele>521.2</ele>
        <time>2021-07-29T17:06:08Z</time>
      </trkpt>
      <trkpt lat="47.34569" lon="7.01766">
        <ele>521.4</ele>
        <time>2021-07-29T17:06:09Z</time>
      </trkpt>
      <trkpt lat="47.34569" lon="7.01764">
        <ele>521.6</ele>
        <time>2021-07-29T17:06:10Z</time>
      </trkpt>
      <trkpt lat="47.34569" lon="7.01763">
        <ele>521.6</ele>
        <time>2021-07-29T17:06:11Z</time>
      </trkpt>
      <trkpt lat="47.34568" lon="7.01761">
        <ele>521.8</ele>
        <time>2021-07-29T17:06:12Z</time>
      </trkpt>
      <trkpt lat="47.34568" lon="7.01759">
        <ele>521.8</ele>
        <time>2021-07-29T17:06:13Z</time>
      </trkpt>
      <trkpt lat="47.34568" lon="7.01757">
        <ele>521.8</ele>
        <time>2021-07-29T17:06:14Z</time>
      </trkpt>
      <trkpt lat="47.34567" lon="7.01756">
        <ele>522</ele>
        <time>2021-07-29T17:06:15Z</time>
      </trkpt>
      <trkpt lat="47.34567" lon="7.01755">
        <ele>522</ele>
        <time>2021-07-29T17:06:16Z</time>
      </trkpt>
      <trkpt lat="47.34567" lon="7.01754">
        <ele>522</ele>
        <time>2021-07-29T17:06:17Z</time>
      </trkpt>
      <trkpt lat="47.34567" lon="7.01753">
        <ele>522</ele>
        <time>2021-07-29T17:06:18Z</time>
      </trkpt>
      <trkpt lat="47.34566" lon="7.01753">
        <ele>522.2</ele>
        <time>2021-07-29T17:06:19Z</time>
      </trkpt>
      <trkpt lat="47.34566" lon="7.01754">
        <ele>522</ele>
        <time>2021-07-29T17:06:20Z</time>
      </trkpt>
      <trkpt lat="47.34566" lon="7.01754">
        <ele>522</ele>
        <time>2021-07-29T17:06:21Z</time>
      </trkpt>
      <trkpt lat="47.34566" lon="7.01754">
        <ele>522</ele>
        <time>2021-07-29T17:06:22Z</time>
      </trkpt>
      <trkpt lat="47.34566" lon="7.01755">
        <ele>522</ele>
        <time>2021-07-29T17:06:23Z</time>
      </trkpt>
      <trkpt lat="47.34566" lon="7.01755">
        <ele>522.2</ele>
        <time>2021-07-29T17:06:24Z</time>
      </trkpt>
      <trkpt lat="47.34557" lon="7.0174">
        <ele>521.8</ele>
        <time>2021-07-29T17:06:34Z</time>
      </trkpt>
      <trkpt lat="47.34556" lon="7.01737">
        <ele>521.8</ele>
        <time>2021-07-29T17:06:35Z</time>
      </trkpt>
      <trkpt lat="47.34554" lon="7.01735">
        <ele>521.6</ele>
        <time>2021-07-29T17:06:36Z</time>
      </trkpt>
      <trkpt lat="47.34553" lon="7.01732">
        <ele>521.6</ele>
        <time>2021-07-29T17:06:37Z</time>
      </trkpt>
      <trkpt lat="47.34551" lon="7.01729">
        <ele>521.4</ele>
        <time>2021-07-29T17:06:38Z</time>
      </trkpt>
      <trkpt lat="47.34549" lon="7.01726">
        <ele>521.4</ele>
        <time>2021-07-29T17:06:39Z</time>
      </trkpt>
      <trkpt lat="47.34548" lon="7.01723">
        <ele>521.2</ele>
        <time>2021-07-29T17:06:40Z</time>
      </trkpt>
      <trkpt lat="47.34547" lon="7.0172">
        <ele>521.2</ele>
        <time>2021-07-29T17:06:41Z</time>
      </trkpt>
      <trkpt lat="47.34545" lon="7.01717">
        <ele>521</ele>
        <time>2021-07-29T17:06:42Z</time>
      </trkpt>
      <trkpt lat="47.34544" lon="7.01714">
        <ele>521</ele>
        <time>2021-07-29T17:06:43Z</time>
      </trkpt>
      <trkpt lat="47.34542" lon="7.01711">
        <ele>520.8</ele>
        <time>2021-07-29T17:06:44Z</time>
      </trkpt>
      <trkpt lat="47.3454" lon="7.01707">
        <ele>520.8</ele>
        <time>2021-07-29T17:06:45Z</time>
      </trkpt>
      <trkpt lat="47.34539" lon="7.01704">
        <ele>520.6</ele>
        <time>2021-07-29T17:06:46Z</time>
      </trkpt>
      <trkpt lat="47.34537" lon="7.01701">
        <ele>520.6</ele>
        <time>2021-07-29T17:06:47Z</time>
      </trkpt>
      <trkpt lat="47.34536" lon="7.01697">
        <ele>520.4</ele>
        <time>2021-07-29T17:06:48Z</time>
      </trkpt>
      <trkpt lat="47.34535" lon="7.01693">
        <ele>520.2</ele>
        <time>2021-07-29T17:06:49Z</time>
      </trkpt>
      <trkpt lat="47.34533" lon="7.01689">
        <ele>520.2</ele>
        <time>2021-07-29T17:06:50Z</time>
      </trkpt>
      <trkpt lat="47.34531" lon="7.01685">
        <ele>520</ele>
        <time>2021-07-29T17:06:51Z</time>
      </trkpt>
      <trkpt lat="47.3453" lon="7.01682">
        <ele>519.8</ele>
        <time>2021-07-29T17:06:52Z</time>
      </trkpt>
      <trkpt lat="47.34528" lon="7.01678">
        <ele>519.8</ele>
        <time>2021-07-29T17:06:53Z</time>
      </trkpt>
      <trkpt lat="47.34526" lon="7.01674">
        <ele>519.6</ele>
        <time>2021-07-29T17:06:54Z</time>
      </trkpt>
      <trkpt lat="47.34525" lon="7.0167">
        <ele>519.6</ele>
        <time>2021-07-29T17:06:55Z</time>
      </trkpt>
      <trkpt lat="47.34523" lon="7.01666">
        <ele>519.4</ele>
        <time>2021-07-29T17:06:56Z</time>
      </trkpt>
      <trkpt lat="47.34522" lon="7.01662">
        <ele>519.2</ele>
        <time>2021-07-29T17:06:57Z</time>
      </trkpt>
      <trkpt lat="47.3452" lon="7.01659">
        <ele>519</ele>
        <time>2021-07-29T17:06:58Z</time>
      </trkpt>
      <trkpt lat="47.34519" lon="7.01655">
        <ele>519</ele>
        <time>2021-07-29T17:06:59Z</time>
      </trkpt>
      <trkpt lat="47.34517" lon="7.01651">
        <ele>518.8</ele>
        <time>2021-07-29T17:07:00Z</time>
      </trkpt>
      <trkpt lat="47.34516" lon="7.01647">
        <ele>518.6</ele>
        <time>2021-07-29T17:07:01Z</time>
      </trkpt>
      <trkpt lat="47.34514" lon="7.01642">
        <ele>518.6</ele>
        <time>2021-07-29T17:07:02Z</time>
      </trkpt>
      <trkpt lat="47.34512" lon="7.01639">
        <ele>518.4</ele>
        <time>2021-07-29T17:07:03Z</time>
      </trkpt>
      <trkpt lat="47.34511" lon="7.01635">
        <ele>518.2</ele>
        <time>2021-07-29T17:07:04Z</time>
      </trkpt>
      <trkpt lat="47.34509" lon="7.01631">
        <ele>518.2</ele>
        <time>2021-07-29T17:07:05Z</time>
      </trkpt>
      <trkpt lat="47.34507" lon="7.01628">
        <ele>518</ele>
        <time>2021-07-29T17:07:06Z</time>
      </trkpt>
      <trkpt lat="47.34505" lon="7.01624">
        <ele>517.8</ele>
        <time>2021-07-29T17:07:07Z</time>
      </trkpt>
      <trkpt lat="47.34504" lon="7.01621">
        <ele>517.6</ele>
        <time>2021-07-29T17:07:08Z</time>
      </trkpt>
      <trkpt lat="47.34502" lon="7.01617">
        <ele>517.6</ele>
        <time>2021-07-29T17:07:09Z</time>
      </trkpt>
      <trkpt lat="47.34501" lon="7.01613">
        <ele>517.4</ele>
        <time>2021-07-29T17:07:10Z</time>
      </trkpt>
      <trkpt lat="47.34499" lon="7.0161">
        <ele>517.4</ele>
        <time>2021-07-29T17:07:11Z</time>
      </trkpt>
      <trkpt lat="47.34498" lon="7.01607">
        <ele>517.2</ele>
        <time>2021-07-29T17:07:12Z</time>
      </trkpt>
      <trkpt lat="47.34497" lon="7.01604">
        <ele>517.2</ele>
        <time>2021-07-29T17:07:13Z</time>
      </trkpt>
      <trkpt lat="47.34496" lon="7.01602">
        <ele>517</ele>
        <time>2021-07-29T17:07:14Z</time>
      </trkpt>
      <trkpt lat="47.34495" lon="7.016">
        <ele>517</ele>
        <time>2021-07-29T17:07:15Z</time>
      </trkpt>
      <trkpt lat="47.34494" lon="7.01598">
        <ele>517</ele>
        <time>2021-07-29T17:07:16Z</time>
      </trkpt>
      <trkpt lat="47.34493" lon="7.01597">
        <ele>516.8</ele>
        <time>2021-07-29T17:07:17Z</time>
      </trkpt>
      <trkpt lat="47.34493" lon="7.01597">
        <ele>517</ele>
        <time>2021-07-29T17:07:18Z</time>
      </trkpt>
      <trkpt lat="47.34493" lon="7.01597">
        <ele>517</ele>
        <time>2021-07-29T17:07:19Z</time>
      </trkpt>
      <trkpt lat="47.34493" lon="7.01597">
        <ele>517</ele>
        <time>2021-07-29T17:07:20Z</time>
      </trkpt>
      <trkpt lat="47.34493" lon="7.01597">
        <ele>517</ele>
        <time>2021-07-29T17:07:21Z</time>
      </trkpt>
      <trkpt lat="47.34493" lon="7.01597">
        <ele>517</ele>
        <time>2021-07-29T17:07:22Z</time>
      </trkpt>
      <trkpt lat="47.34493" lon="7.01596">
        <ele>517</ele>
        <time>2021-07-29T17:07:23Z</time>
      </trkpt>
      <trkpt lat="47.34493" lon="7.01596">
        <ele>517</ele>
        <time>2021-07-29T17:07:24Z</time>
      </trkpt>
      <trkpt lat="47.34485" lon="7.0157">
        <ele>516.6</ele>
        <time>2021-07-29T17:07:51Z</time>
      </trkpt>
      <trkpt lat="47.34483" lon="7.01567">
        <ele>516.6</ele>
        <time>2021-07-29T17:07:52Z</time>
      </trkpt>
      <trkpt lat="47.34483" lon="7.01564">
        <ele>516.6</ele>
        <time>2021-07-29T17:07:53Z</time>
      </trkpt>
      <trkpt lat="47.34483" lon="7.01559">
        <ele>516.6</ele>
        <time>2021-07-29T17:07:54Z</time>
      </trkpt>
      <trkpt lat="47.34484" lon="7.01555">
        <ele>516.6</ele>
        <time>2021-07-29T17:07:55Z</time>
      </trkpt>
      <trkpt lat="47.34484" lon="7.0155">
        <ele>516.6</ele>
        <time>2021-07-29T17:07:56Z</time>
      </trkpt>
      <trkpt lat="47.34484" lon="7.01545">
        <ele>516.6</ele>
        <time>2021-07-29T17:07:57Z</time>
      </trkpt>
      <trkpt lat="47.34484" lon="7.01541">
        <ele>516.8</ele>
        <time>2021-07-29T17:07:58Z</time>
      </trkpt>
      <trkpt lat="47.34484" lon="7.01536">
        <ele>517</ele>
        <time>2021-07-29T17:07:59Z</time>
      </trkpt>
      <trkpt lat="47.34483" lon="7.01532">
        <ele>517</ele>
        <time>2021-07-29T17:08:00Z</time>
      </trkpt>
      <trkpt lat="47.34482" lon="7.01528">
        <ele>517.2</ele>
        <time>2021-07-29T17:08:01Z</time>
      </trkpt>
      <trkpt lat="47.34481" lon="7.01524">
        <ele>517.2</ele>
        <time>2021-07-29T17:08:02Z</time>
      </trkpt>
      <trkpt lat="47.3448" lon="7.01521">
        <ele>517.4</ele>
        <time>2021-07-29T17:08:03Z</time>
      </trkpt>
      <trkpt lat="47.34478" lon="7.01517">
        <ele>517.6</ele>
        <time>2021-07-29T17:08:04Z</time>
      </trkpt>
      <trkpt lat="47.34477" lon="7.01514">
        <ele>517.6</ele>
        <time>2021-07-29T17:08:05Z</time>
      </trkpt>
      <trkpt lat="47.34475" lon="7.0151">
        <ele>517.6</ele>
        <time>2021-07-29T17:08:06Z</time>
      </trkpt>
      <trkpt lat="47.34474" lon="7.01507">
        <ele>517.8</ele>
        <time>2021-07-29T17:08:07Z</time>
      </trkpt>
      <trkpt lat="47.34472" lon="7.01503">
        <ele>517.8</ele>
        <time>2021-07-29T17:08:08Z</time>
      </trkpt>
      <trkpt lat="47.3447" lon="7.015">
        <ele>517.8</ele>
        <time>2021-07-29T17:08:09Z</time>
      </trkpt>
      <trkpt lat="47.34468" lon="7.01496">
        <ele>517.8</ele>
        <time>2021-07-29T17:08:10Z</time>
      </trkpt>
      <trkpt lat="47.34466" lon="7.01492">
        <ele>518</ele>
        <time>2021-07-29T17:08:11Z</time>
      </trkpt>
      <trkpt lat="47.34464" lon="7.01488">
        <ele>518</ele>
        <time>2021-07-29T17:08:12Z</time>
      </trkpt>
      <trkpt lat="47.34462" lon="7.01485">
        <ele>518</ele>
        <time>2021-07-29T17:08:13Z</time>
      </trkpt>
      <trkpt lat="47.34459" lon="7.01482">
        <ele>518</ele>
        <time>2021-07-29T17:08:14Z</time>
      </trkpt>
      <trkpt lat="47.34457" lon="7.01478">
        <ele>518</ele>
        <time>2021-07-29T17:08:15Z</time>
      </trkpt>
      <trkpt lat="47.34455" lon="7.01474">
        <ele>518.2</ele>
        <time>2021-07-29T17:08:16Z</time>
      </trkpt>
      <trkpt lat="47.34454" lon="7.01469">
        <ele>518.2</ele>
        <time>2021-07-29T17:08:17Z</time>
      </trkpt>
      <trkpt lat="47.34453" lon="7.01465">
        <ele>518.2</ele>
        <time>2021-07-29T17:08:18Z</time>
      </trkpt>
      <trkpt lat="47.34451" lon="7.0146">
        <ele>518.2</ele>
        <time>2021-07-29T17:08:19Z</time>
      </trkpt>
      <trkpt lat="47.34448" lon="7.01457">
        <ele>518.2</ele>
        <time>2021-07-29T17:08:20Z</time>
      </trkpt>
      <trkpt lat="47.34446" lon="7.01453">
        <ele>518.2</ele>
        <time>2021-07-29T17:08:21Z</time>
      </trkpt>
      <trkpt lat="47.34445" lon="7.01448">
        <ele>518.2</ele>
        <time>2021-07-29T17:08:22Z</time>
      </trkpt>
      <trkpt lat="47.34444" lon="7.01444">
        <ele>518.2</ele>
        <time>2021-07-29T17:08:23Z</time>
      </trkpt>
      <trkpt lat="47.34444" lon="7.01439">
        <ele>518.2</ele>
        <time>2021-07-29T17:08:24Z</time>
      </trkpt>
      <trkpt lat="47.34442" lon="7.01435">
        <ele>518.2</ele>
        <time>2021-07-29T17:08:25Z</time>
      </trkpt>
      <trkpt lat="47.34441" lon="7.01431">
        <ele>518</ele>
        <time>2021-07-29T17:08:26Z</time>
      </trkpt>
      <trkpt lat="47.3444" lon="7.01426">
        <ele>518</ele>
        <time>2021-07-29T17:08:27Z</time>
      </trkpt>
      <trkpt lat="47.34438" lon="7.01421">
        <ele>518.2</ele>
        <time>2021-07-29T17:08:28Z</time>
      </trkpt>
      <trkpt lat="47.34437" lon="7.01417">
        <ele>518</ele>
        <time>2021-07-29T17:08:29Z</time>
      </trkpt>
      <trkpt lat="47.34435" lon="7.01413">
        <ele>518</ele>
        <time>2021-07-29T17:08:30Z</time>
      </trkpt>
      <trkpt lat="47.34433" lon="7.01409">
        <ele>518</ele>
        <time>2021-07-29T17:08:31Z</time>
      </trkpt>
      <trkpt lat="47.34432" lon="7.01404">
        <ele>518</ele>
        <time>2021-07-29T17:08:32Z</time>
      </trkpt>
      <trkpt lat="47.3443" lon="7.014">
        <ele>518</ele>
        <time>2021-07-29T17:08:33Z</time>
      </trkpt>
      <trkpt lat="47.34429" lon="7.01395">
        <ele>518</ele>
        <time>2021-07-29T17:08:34Z</time>
      </trkpt>
      <trkpt lat="47.34428" lon="7.0139">
        <ele>518</ele>
        <time>2021-07-29T17:08:35Z</time>
      </trkpt>
      <trkpt lat="47.34427" lon="7.01385">
        <ele>518</ele>
        <time>2021-07-29T17:08:36Z</time>
      </trkpt>
      <trkpt lat="47.34426" lon="7.0138">
        <ele>518</ele>
        <time>2021-07-29T17:08:37Z</time>
      </trkpt>
      <trkpt lat="47.34426" lon="7.01375">
        <ele>518.2</ele>
        <time>2021-07-29T17:08:38Z</time>
      </trkpt>
      <trkpt lat="47.34425" lon="7.0137">
        <ele>518.4</ele>
        <time>2021-07-29T17:08:39Z</time>
      </trkpt>
      <trkpt lat="47.34425" lon="7.01366">
        <ele>518.6</ele>
        <time>2021-07-29T17:08:40Z</time>
      </trkpt>
      <trkpt lat="47.34426" lon="7.01362">
        <ele>518.8</ele>
        <time>2021-07-29T17:08:41Z</time>
      </trkpt>
      <trkpt lat="47.34426" lon="7.01359">
        <ele>519</ele>
        <time>2021-07-29T17:08:42Z</time>
      </trkpt>
      <trkpt lat="47.34426" lon="7.01355">
        <ele>519.2</ele>
        <time>2021-07-29T17:08:43Z</time>
      </trkpt>
      <trkpt lat="47.34427" lon="7.01352">
        <ele>519.4</ele>
        <time>2021-07-29T17:08:44Z</time>
      </trkpt>
      <trkpt lat="47.34427" lon="7.01349">
        <ele>519.4</ele>
        <time>2021-07-29T17:08:45Z</time>
      </trkpt>
      <trkpt lat="47.34427" lon="7.01346">
        <ele>519.6</ele>
        <time>2021-07-29T17:08:46Z</time>
      </trkpt>
      <trkpt lat="47.34427" lon="7.01343">
        <ele>519.6</ele>
        <time>2021-07-29T17:08:47Z</time>
      </trkpt>
      <trkpt lat="47.34428" lon="7.0134">
        <ele>519.6</ele>
        <time>2021-07-29T17:08:48Z</time>
      </trkpt>
      <trkpt lat="47.34429" lon="7.01338">
        <ele>519.8</ele>
        <time>2021-07-29T17:08:49Z</time>
      </trkpt>
      <trkpt lat="47.3443" lon="7.01336">
        <ele>519.8</ele>
        <time>2021-07-29T17:08:50Z</time>
      </trkpt>
      <trkpt lat="47.34432" lon="7.01336">
        <ele>520</ele>
        <time>2021-07-29T17:08:51Z</time>
      </trkpt>
      <trkpt lat="47.34433" lon="7.01337">
        <ele>520.2</ele>
        <time>2021-07-29T17:08:52Z</time>
      </trkpt>
      <trkpt lat="47.34434" lon="7.01338">
        <ele>520.4</ele>
        <time>2021-07-29T17:08:53Z</time>
      </trkpt>
      <trkpt lat="47.34434" lon="7.01339">
        <ele>520.4</ele>
        <time>2021-07-29T17:08:54Z</time>
      </trkpt>
      <trkpt lat="47.34435" lon="7.0134">
        <ele>520.6</ele>
        <time>2021-07-29T17:08:55Z</time>
      </trkpt>
      <trkpt lat="47.34434" lon="7.01341">
        <ele>520.6</ele>
        <time>2021-07-29T17:08:56Z</time>
      </trkpt>
      <trkpt lat="47.34434" lon="7.01342">
        <ele>520.6</ele>
        <time>2021-07-29T17:08:57Z</time>
      </trkpt>
      <trkpt lat="47.34434" lon="7.01343">
        <ele>520.6</ele>
        <time>2021-07-29T17:08:58Z</time>
      </trkpt>
      <trkpt lat="47.34434" lon="7.01344">
        <ele>520.6</ele>
        <time>2021-07-29T17:08:59Z</time>
      </trkpt>
      <trkpt lat="47.34434" lon="7.01345">
        <ele>520.8</ele>
        <time>2021-07-29T17:09:00Z</time>
      </trkpt>
      <trkpt lat="47.34433" lon="7.01346">
        <ele>520.8</ele>
        <time>2021-07-29T17:09:01Z</time>
      </trkpt>
      <trkpt lat="47.34434" lon="7.01347">
        <ele>520.8</ele>
        <time>2021-07-29T17:09:02Z</time>
      </trkpt>
      <trkpt lat="47.34433" lon="7.01348">
        <ele>520.6</ele>
        <time>2021-07-29T17:09:03Z</time>
      </trkpt>
      <trkpt lat="47.34432" lon="7.01349">
        <ele>520.6</ele>
        <time>2021-07-29T17:09:04Z</time>
      </trkpt>
      <trkpt lat="47.34432" lon="7.0135">
        <ele>520.6</ele>
        <time>2021-07-29T17:09:05Z</time>
      </trkpt>
      <trkpt lat="47.34433" lon="7.0135">
        <ele>520.6</ele>
        <time>2021-07-29T17:09:06Z</time>
      </trkpt>
      <trkpt lat="47.34433" lon="7.01349">
        <ele>520.6</ele>
        <time>2021-07-29T17:09:07Z</time>
      </trkpt>
      <trkpt lat="47.34433" lon="7.0135">
        <ele>520.6</ele>
        <time>2021-07-29T17:09:08Z</time>
      </trkpt>
      <trkpt lat="47.34433" lon="7.0135">
        <ele>520.6</ele>
        <time>2021-07-29T17:09:09Z</time>
      </trkpt>
      <trkpt lat="47.34433" lon="7.0135">
        <ele>520.6</ele>
        <time>2021-07-29T17:09:10Z</time>
      </trkpt>
      <trkpt lat="47.34433" lon="7.0135">
        <ele>520.6</ele>
        <time>2021-07-29T17:09:11Z</time>
      </trkpt>
      <trkpt lat="47.34433" lon="7.01349">
        <ele>520.6</ele>
        <time>2021-07-29T17:09:12Z</time>
      </trkpt>
    </trkseg>
  </trk>
</gpx>